<?xml version='1.0' encoding='UTF-8'?>
<gpx version="1.1" creator="https://www.komoot.de" xmlns="http://www.topografix.com/GPX/1/1" xmlns:xsi="http://www.w3.org/2001/XMLSchema-instance" xsi:schemaLocation="http://www.topografix.com/GPX/1/1 http://www.topografix.com/GPX/1/1/gpx.xsd">
  <metadata>
    <name>Radtour 20, zur Höhlenwohnung ins "verruckte Dorf" &amp; "Fotorahmen" Falkenstein</name>
    <author>
      <link href="https://www.komoot.de">
        <text>komoot</text>
        <type>text/html</type>
      </link>
    </author>
  </metadata>
  <trk>
    <name>Radtour 20, zur Höhlenwohnung ins "verruckte Dorf" &amp; "Fotorahmen" Falkenstein</name>
    <trkseg>
      <trkpt lat="48.583929" lon="16.649184">
        <ele>237.494120</ele>
        <time>2020-09-10T06:07:50.904Z</time>
      </trkpt>
      <trkpt lat="48.584036" lon="16.648942">
        <ele>237.494120</ele>
        <time>2020-09-10T06:08:35.871Z</time>
      </trkpt>
      <trkpt lat="48.584120" lon="16.648871">
        <ele>237.494120</ele>
        <time>2020-09-10T06:08:37.864Z</time>
      </trkpt>
      <trkpt lat="48.584194" lon="16.648791">
        <ele>237.494120</ele>
        <time>2020-09-10T06:08:39.866Z</time>
      </trkpt>
      <trkpt lat="48.584274" lon="16.648721">
        <ele>237.494120</ele>
        <time>2020-09-10T06:08:41.861Z</time>
      </trkpt>
      <trkpt lat="48.584403" lon="16.648655">
        <ele>237.494120</ele>
        <time>2020-09-10T06:08:44.870Z</time>
      </trkpt>
      <trkpt lat="48.584491" lon="16.648690">
        <ele>237.494120</ele>
        <time>2020-09-10T06:08:46.890Z</time>
      </trkpt>
      <trkpt lat="48.584562" lon="16.648787">
        <ele>237.494120</ele>
        <time>2020-09-10T06:08:48.876Z</time>
      </trkpt>
      <trkpt lat="48.584625" lon="16.648887">
        <ele>237.494120</ele>
        <time>2020-09-10T06:08:50.885Z</time>
      </trkpt>
      <trkpt lat="48.584690" lon="16.648992">
        <ele>237.465013</ele>
        <time>2020-09-10T06:08:52.866Z</time>
      </trkpt>
      <trkpt lat="48.584754" lon="16.649097">
        <ele>237.431589</ele>
        <time>2020-09-10T06:08:54.856Z</time>
      </trkpt>
      <trkpt lat="48.584826" lon="16.649204">
        <ele>237.395858</ele>
        <time>2020-09-10T06:08:56.865Z</time>
      </trkpt>
      <trkpt lat="48.584905" lon="16.649305">
        <ele>237.359242</ele>
        <time>2020-09-10T06:08:58.851Z</time>
      </trkpt>
      <trkpt lat="48.584995" lon="16.649405">
        <ele>237.319714</ele>
        <time>2020-09-10T06:09:00.860Z</time>
      </trkpt>
      <trkpt lat="48.585087" lon="16.649512">
        <ele>237.278634</ele>
        <time>2020-09-10T06:09:02.870Z</time>
      </trkpt>
      <trkpt lat="48.585180" lon="16.649613">
        <ele>237.238110</ele>
        <time>2020-09-10T06:09:04.889Z</time>
      </trkpt>
      <trkpt lat="48.585279" lon="16.649706">
        <ele>237.196860</ele>
        <time>2020-09-10T06:09:06.864Z</time>
      </trkpt>
      <trkpt lat="48.585383" lon="16.649798">
        <ele>237.154217</ele>
        <time>2020-09-10T06:09:08.873Z</time>
      </trkpt>
      <trkpt lat="48.585493" lon="16.649883">
        <ele>237.110498</ele>
        <time>2020-09-10T06:09:10.851Z</time>
      </trkpt>
      <trkpt lat="48.585604" lon="16.649967">
        <ele>237.066568</ele>
        <time>2020-09-10T06:09:12.859Z</time>
      </trkpt>
      <trkpt lat="48.585719" lon="16.650049">
        <ele>237.021570</ele>
        <time>2020-09-10T06:09:14.866Z</time>
      </trkpt>
      <trkpt lat="48.585835" lon="16.650130">
        <ele>236.976351</ele>
        <time>2020-09-10T06:09:16.885Z</time>
      </trkpt>
      <trkpt lat="48.585948" lon="16.650215">
        <ele>236.931684</ele>
        <time>2020-09-10T06:09:18.861Z</time>
      </trkpt>
      <trkpt lat="48.586059" lon="16.650301">
        <ele>236.887543</ele>
        <time>2020-09-10T06:09:20.850Z</time>
      </trkpt>
      <trkpt lat="48.586167" lon="16.650382">
        <ele>236.865111</ele>
        <time>2020-09-10T06:09:22.862Z</time>
      </trkpt>
      <trkpt lat="48.586272" lon="16.650462">
        <ele>236.889727</ele>
        <time>2020-09-10T06:09:24.851Z</time>
      </trkpt>
      <trkpt lat="48.586376" lon="16.650555">
        <ele>236.915023</ele>
        <time>2020-09-10T06:09:26.860Z</time>
      </trkpt>
      <trkpt lat="48.586481" lon="16.650651">
        <ele>236.940711</ele>
        <time>2020-09-10T06:09:28.854Z</time>
      </trkpt>
      <trkpt lat="48.586585" lon="16.650754">
        <ele>236.966740</ele>
        <time>2020-09-10T06:09:30.854Z</time>
      </trkpt>
      <trkpt lat="48.586684" lon="16.650866">
        <ele>236.992626</ele>
        <time>2020-09-10T06:09:32.867Z</time>
      </trkpt>
      <trkpt lat="48.586778" lon="16.650995">
        <ele>237.019203</ele>
        <time>2020-09-10T06:09:34.875Z</time>
      </trkpt>
      <trkpt lat="48.586870" lon="16.651125">
        <ele>237.045567</ele>
        <time>2020-09-10T06:09:36.886Z</time>
      </trkpt>
      <trkpt lat="48.586958" lon="16.651264">
        <ele>237.072211</ele>
        <time>2020-09-10T06:09:38.853Z</time>
      </trkpt>
      <trkpt lat="48.587045" lon="16.651403">
        <ele>237.098710</ele>
        <time>2020-09-10T06:09:40.874Z</time>
      </trkpt>
      <trkpt lat="48.587131" lon="16.651543">
        <ele>237.125168</ele>
        <time>2020-09-10T06:09:42.879Z</time>
      </trkpt>
      <trkpt lat="48.587215" lon="16.651681">
        <ele>237.151138</ele>
        <time>2020-09-10T06:09:44.860Z</time>
      </trkpt>
      <trkpt lat="48.587299" lon="16.651814">
        <ele>237.176602</ele>
        <time>2020-09-10T06:09:46.865Z</time>
      </trkpt>
      <trkpt lat="48.587381" lon="16.651949">
        <ele>237.201983</ele>
        <time>2020-09-10T06:09:48.884Z</time>
      </trkpt>
      <trkpt lat="48.587462" lon="16.652083">
        <ele>237.227120</ele>
        <time>2020-09-10T06:09:50.863Z</time>
      </trkpt>
      <trkpt lat="48.587543" lon="16.652217">
        <ele>237.225710</ele>
        <time>2020-09-10T06:09:52.869Z</time>
      </trkpt>
      <trkpt lat="48.587624" lon="16.652355">
        <ele>237.213842</ele>
        <time>2020-09-10T06:09:54.862Z</time>
      </trkpt>
      <trkpt lat="48.587707" lon="16.652485">
        <ele>237.202218</ele>
        <time>2020-09-10T06:09:56.869Z</time>
      </trkpt>
      <trkpt lat="48.587789" lon="16.652616">
        <ele>237.190616</ele>
        <time>2020-09-10T06:09:58.855Z</time>
      </trkpt>
      <trkpt lat="48.587877" lon="16.652744">
        <ele>237.178740</ele>
        <time>2020-09-10T06:10:00.885Z</time>
      </trkpt>
      <trkpt lat="48.587966" lon="16.652866">
        <ele>237.167056</ele>
        <time>2020-09-10T06:10:02.881Z</time>
      </trkpt>
      <trkpt lat="48.588043" lon="16.652982">
        <ele>237.156484</ele>
        <time>2020-09-10T06:10:04.868Z</time>
      </trkpt>
      <trkpt lat="48.588109" lon="16.653125">
        <ele>237.145267</ele>
        <time>2020-09-10T06:10:06.886Z</time>
      </trkpt>
      <trkpt lat="48.588164" lon="16.653280">
        <ele>237.133951</ele>
        <time>2020-09-10T06:10:08.859Z</time>
      </trkpt>
      <trkpt lat="48.588223" lon="16.653461">
        <ele>237.120970</ele>
        <time>2020-09-10T06:10:10.863Z</time>
      </trkpt>
      <trkpt lat="48.588283" lon="16.653644">
        <ele>237.107831</ele>
        <time>2020-09-10T06:10:12.867Z</time>
      </trkpt>
      <trkpt lat="48.588331" lon="16.653828">
        <ele>237.095107</ele>
        <time>2020-09-10T06:10:14.861Z</time>
      </trkpt>
      <trkpt lat="48.588376" lon="16.654017">
        <ele>237.082185</ele>
        <time>2020-09-10T06:10:16.861Z</time>
      </trkpt>
      <trkpt lat="48.588419" lon="16.654204">
        <ele>237.069449</ele>
        <time>2020-09-10T06:10:18.863Z</time>
      </trkpt>
      <trkpt lat="48.588456" lon="16.654380">
        <ele>237.051608</ele>
        <time>2020-09-10T06:10:20.870Z</time>
      </trkpt>
      <trkpt lat="48.588489" lon="16.654554">
        <ele>236.997556</ele>
        <time>2020-09-10T06:10:22.886Z</time>
      </trkpt>
      <trkpt lat="48.588513" lon="16.654730">
        <ele>236.943895</ele>
        <time>2020-09-10T06:10:24.877Z</time>
      </trkpt>
      <trkpt lat="48.588529" lon="16.654912">
        <ele>236.889070</ele>
        <time>2020-09-10T06:10:26.884Z</time>
      </trkpt>
      <trkpt lat="48.588531" lon="16.655085">
        <ele>236.837402</ele>
        <time>2020-09-10T06:10:28.853Z</time>
      </trkpt>
      <trkpt lat="48.588532" lon="16.655255">
        <ele>236.786636</ele>
        <time>2020-09-10T06:10:30.855Z</time>
      </trkpt>
      <trkpt lat="48.588538" lon="16.655429">
        <ele>236.734607</ele>
        <time>2020-09-10T06:10:32.862Z</time>
      </trkpt>
      <trkpt lat="48.588551" lon="16.655611">
        <ele>236.679943</ele>
        <time>2020-09-10T06:10:34.867Z</time>
      </trkpt>
      <trkpt lat="48.588559" lon="16.655797">
        <ele>236.624284</ele>
        <time>2020-09-10T06:10:36.871Z</time>
      </trkpt>
      <trkpt lat="48.588565" lon="16.655984">
        <ele>236.568378</ele>
        <time>2020-09-10T06:10:38.878Z</time>
      </trkpt>
      <trkpt lat="48.588578" lon="16.656167">
        <ele>236.513418</ele>
        <time>2020-09-10T06:10:40.856Z</time>
      </trkpt>
      <trkpt lat="48.588582" lon="16.656352">
        <ele>236.458146</ele>
        <time>2020-09-10T06:10:42.859Z</time>
      </trkpt>
      <trkpt lat="48.588590" lon="16.656534">
        <ele>236.403678</ele>
        <time>2020-09-10T06:10:44.908Z</time>
      </trkpt>
      <trkpt lat="48.588600" lon="16.656715">
        <ele>236.349442</ele>
        <time>2020-09-10T06:10:46.862Z</time>
      </trkpt>
      <trkpt lat="48.588609" lon="16.656895">
        <ele>236.295538</ele>
        <time>2020-09-10T06:10:48.855Z</time>
      </trkpt>
      <trkpt lat="48.588618" lon="16.657078">
        <ele>236.244585</ele>
        <time>2020-09-10T06:10:50.863Z</time>
      </trkpt>
      <trkpt lat="48.588628" lon="16.657262">
        <ele>236.222151</ele>
        <time>2020-09-10T06:10:52.892Z</time>
      </trkpt>
      <trkpt lat="48.588641" lon="16.657445">
        <ele>236.199787</ele>
        <time>2020-09-10T06:10:54.885Z</time>
      </trkpt>
      <trkpt lat="48.588657" lon="16.657625">
        <ele>236.177718</ele>
        <time>2020-09-10T06:10:56.850Z</time>
      </trkpt>
      <trkpt lat="48.588679" lon="16.657802">
        <ele>236.155833</ele>
        <time>2020-09-10T06:10:58.864Z</time>
      </trkpt>
      <trkpt lat="48.588708" lon="16.657980">
        <ele>236.133558</ele>
        <time>2020-09-10T06:11:00.895Z</time>
      </trkpt>
      <trkpt lat="48.588740" lon="16.658159">
        <ele>236.111027</ele>
        <time>2020-09-10T06:11:02.873Z</time>
      </trkpt>
      <trkpt lat="48.588774" lon="16.658338">
        <ele>236.088397</ele>
        <time>2020-09-10T06:11:04.876Z</time>
      </trkpt>
      <trkpt lat="48.588808" lon="16.658511">
        <ele>236.066467</ele>
        <time>2020-09-10T06:11:06.887Z</time>
      </trkpt>
      <trkpt lat="48.588843" lon="16.658683">
        <ele>236.044600</ele>
        <time>2020-09-10T06:11:08.862Z</time>
      </trkpt>
      <trkpt lat="48.588883" lon="16.658854">
        <ele>236.022560</ele>
        <time>2020-09-10T06:11:10.881Z</time>
      </trkpt>
      <trkpt lat="48.588934" lon="16.659021">
        <ele>236.000209</ele>
        <time>2020-09-10T06:11:12.855Z</time>
      </trkpt>
      <trkpt lat="48.588987" lon="16.659185">
        <ele>235.978030</ele>
        <time>2020-09-10T06:11:14.853Z</time>
      </trkpt>
      <trkpt lat="48.589050" lon="16.659340">
        <ele>235.955924</ele>
        <time>2020-09-10T06:11:16.867Z</time>
      </trkpt>
      <trkpt lat="48.589110" lon="16.659498">
        <ele>235.933786</ele>
        <time>2020-09-10T06:11:18.865Z</time>
      </trkpt>
      <trkpt lat="48.589170" lon="16.659650">
        <ele>235.906120</ele>
        <time>2020-09-10T06:11:20.899Z</time>
      </trkpt>
      <trkpt lat="48.589234" lon="16.659803">
        <ele>235.854206</ele>
        <time>2020-09-10T06:11:22.888Z</time>
      </trkpt>
      <trkpt lat="48.589301" lon="16.659960">
        <ele>235.800625</ele>
        <time>2020-09-10T06:11:24.879Z</time>
      </trkpt>
      <trkpt lat="48.589369" lon="16.660115">
        <ele>235.747287</ele>
        <time>2020-09-10T06:11:26.859Z</time>
      </trkpt>
      <trkpt lat="48.589449" lon="16.660254">
        <ele>235.694448</ele>
        <time>2020-09-10T06:11:28.859Z</time>
      </trkpt>
      <trkpt lat="48.589534" lon="16.660385">
        <ele>235.641824</ele>
        <time>2020-09-10T06:11:30.871Z</time>
      </trkpt>
      <trkpt lat="48.589619" lon="16.660511">
        <ele>235.590213</ele>
        <time>2020-09-10T06:11:32.872Z</time>
      </trkpt>
      <trkpt lat="48.589695" lon="16.660629">
        <ele>235.542982</ele>
        <time>2020-09-10T06:11:34.857Z</time>
      </trkpt>
      <trkpt lat="48.589775" lon="16.660764">
        <ele>235.491003</ele>
        <time>2020-09-10T06:11:37.863Z</time>
      </trkpt>
      <trkpt lat="48.589812" lon="16.660929">
        <ele>235.441040</ele>
        <time>2020-09-10T06:11:40.871Z</time>
      </trkpt>
      <trkpt lat="48.589783" lon="16.661127">
        <ele>235.382884</ele>
        <time>2020-09-10T06:11:43.862Z</time>
      </trkpt>
      <trkpt lat="48.589753" lon="16.661262">
        <ele>235.342044</ele>
        <time>2020-09-10T06:11:45.869Z</time>
      </trkpt>
      <trkpt lat="48.589746" lon="16.661403">
        <ele>235.301495</ele>
        <time>2020-09-10T06:11:47.862Z</time>
      </trkpt>
      <trkpt lat="48.589747" lon="16.661556">
        <ele>235.257617</ele>
        <time>2020-09-10T06:11:49.853Z</time>
      </trkpt>
      <trkpt lat="48.589753" lon="16.661716">
        <ele>235.211660</ele>
        <time>2020-09-10T06:11:51.867Z</time>
      </trkpt>
      <trkpt lat="48.589766" lon="16.661889">
        <ele>235.161729</ele>
        <time>2020-09-10T06:11:53.868Z</time>
      </trkpt>
      <trkpt lat="48.589790" lon="16.662072">
        <ele>235.088692</ele>
        <time>2020-09-10T06:11:55.853Z</time>
      </trkpt>
      <trkpt lat="48.589830" lon="16.662252">
        <ele>234.997259</ele>
        <time>2020-09-10T06:11:57.877Z</time>
      </trkpt>
      <trkpt lat="48.589876" lon="16.662439">
        <ele>234.901191</ele>
        <time>2020-09-10T06:11:59.863Z</time>
      </trkpt>
      <trkpt lat="48.589929" lon="16.662622">
        <ele>234.804998</ele>
        <time>2020-09-10T06:12:01.863Z</time>
      </trkpt>
      <trkpt lat="48.589983" lon="16.662800">
        <ele>234.710704</ele>
        <time>2020-09-10T06:12:03.858Z</time>
      </trkpt>
      <trkpt lat="48.590038" lon="16.662972">
        <ele>234.618714</ele>
        <time>2020-09-10T06:12:05.878Z</time>
      </trkpt>
      <trkpt lat="48.590089" lon="16.663143">
        <ele>234.528393</ele>
        <time>2020-09-10T06:12:07.868Z</time>
      </trkpt>
      <trkpt lat="48.590141" lon="16.663313">
        <ele>234.438208</ele>
        <time>2020-09-10T06:12:09.863Z</time>
      </trkpt>
      <trkpt lat="48.590189" lon="16.663486">
        <ele>234.347875</ele>
        <time>2020-09-10T06:12:11.894Z</time>
      </trkpt>
      <trkpt lat="48.590238" lon="16.663656">
        <ele>234.258584</ele>
        <time>2020-09-10T06:12:13.880Z</time>
      </trkpt>
      <trkpt lat="48.590289" lon="16.663823">
        <ele>234.170015</ele>
        <time>2020-09-10T06:12:15.885Z</time>
      </trkpt>
      <trkpt lat="48.590336" lon="16.663990">
        <ele>234.082627</ele>
        <time>2020-09-10T06:12:17.886Z</time>
      </trkpt>
      <trkpt lat="48.590380" lon="16.664157">
        <ele>233.996071</ele>
        <time>2020-09-10T06:12:19.869Z</time>
      </trkpt>
      <trkpt lat="48.590428" lon="16.664322">
        <ele>233.909278</ele>
        <time>2020-09-10T06:12:21.865Z</time>
      </trkpt>
      <trkpt lat="48.590479" lon="16.664488">
        <ele>233.832800</ele>
        <time>2020-09-10T06:12:23.864Z</time>
      </trkpt>
      <trkpt lat="48.590533" lon="16.664659">
        <ele>233.905266</ele>
        <time>2020-09-10T06:12:25.860Z</time>
      </trkpt>
      <trkpt lat="48.590585" lon="16.664824">
        <ele>233.975162</ele>
        <time>2020-09-10T06:12:27.886Z</time>
      </trkpt>
      <trkpt lat="48.590633" lon="16.664988">
        <ele>234.043746</ele>
        <time>2020-09-10T06:12:29.875Z</time>
      </trkpt>
      <trkpt lat="48.590682" lon="16.665142">
        <ele>234.109099</ele>
        <time>2020-09-10T06:12:31.863Z</time>
      </trkpt>
      <trkpt lat="48.590733" lon="16.665294">
        <ele>234.174279</ele>
        <time>2020-09-10T06:12:33.873Z</time>
      </trkpt>
      <trkpt lat="48.590781" lon="16.665444">
        <ele>234.238003</ele>
        <time>2020-09-10T06:12:35.867Z</time>
      </trkpt>
      <trkpt lat="48.590820" lon="16.665588">
        <ele>234.297509</ele>
        <time>2020-09-10T06:12:37.904Z</time>
      </trkpt>
      <trkpt lat="48.590863" lon="16.665729">
        <ele>234.356886</ele>
        <time>2020-09-10T06:12:39.880Z</time>
      </trkpt>
      <trkpt lat="48.590910" lon="16.665868">
        <ele>234.416586</ele>
        <time>2020-09-10T06:12:41.865Z</time>
      </trkpt>
      <trkpt lat="48.590958" lon="16.666009">
        <ele>234.477231</ele>
        <time>2020-09-10T06:12:43.890Z</time>
      </trkpt>
      <trkpt lat="48.591005" lon="16.666147">
        <ele>234.536590</ele>
        <time>2020-09-10T06:12:45.860Z</time>
      </trkpt>
      <trkpt lat="48.591051" lon="16.666284">
        <ele>234.595346</ele>
        <time>2020-09-10T06:12:47.892Z</time>
      </trkpt>
      <trkpt lat="48.591099" lon="16.666417">
        <ele>234.653287</ele>
        <time>2020-09-10T06:12:49.883Z</time>
      </trkpt>
      <trkpt lat="48.591150" lon="16.666536">
        <ele>234.707513</ele>
        <time>2020-09-10T06:12:51.901Z</time>
      </trkpt>
      <trkpt lat="48.591221" lon="16.666645">
        <ele>234.766016</ele>
        <time>2020-09-10T06:12:53.863Z</time>
      </trkpt>
      <trkpt lat="48.591294" lon="16.666734">
        <ele>234.820236</ele>
        <time>2020-09-10T06:12:55.855Z</time>
      </trkpt>
      <trkpt lat="48.591373" lon="16.666807">
        <ele>234.870830</ele>
        <time>2020-09-10T06:12:57.873Z</time>
      </trkpt>
      <trkpt lat="48.591455" lon="16.666871">
        <ele>234.898891</ele>
        <time>2020-09-10T06:12:59.871Z</time>
      </trkpt>
      <trkpt lat="48.591539" lon="16.666927">
        <ele>234.926807</ele>
        <time>2020-09-10T06:13:01.873Z</time>
      </trkpt>
      <trkpt lat="48.591620" lon="16.666990">
        <ele>234.954506</ele>
        <time>2020-09-10T06:13:03.883Z</time>
      </trkpt>
      <trkpt lat="48.591699" lon="16.667060">
        <ele>234.982350</ele>
        <time>2020-09-10T06:13:05.867Z</time>
      </trkpt>
      <trkpt lat="48.591780" lon="16.667137">
        <ele>235.011445</ele>
        <time>2020-09-10T06:13:07.889Z</time>
      </trkpt>
      <trkpt lat="48.591867" lon="16.667228">
        <ele>235.043614</ele>
        <time>2020-09-10T06:13:09.852Z</time>
      </trkpt>
      <trkpt lat="48.591959" lon="16.667336">
        <ele>235.079033</ele>
        <time>2020-09-10T06:13:11.877Z</time>
      </trkpt>
      <trkpt lat="48.592060" lon="16.667447">
        <ele>235.117002</ele>
        <time>2020-09-10T06:13:13.891Z</time>
      </trkpt>
      <trkpt lat="48.592162" lon="16.667558">
        <ele>235.155217</ele>
        <time>2020-09-10T06:13:15.882Z</time>
      </trkpt>
      <trkpt lat="48.592271" lon="16.667669">
        <ele>235.195179</ele>
        <time>2020-09-10T06:13:17.860Z</time>
      </trkpt>
      <trkpt lat="48.592380" lon="16.667775">
        <ele>235.234589</ele>
        <time>2020-09-10T06:13:19.878Z</time>
      </trkpt>
      <trkpt lat="48.592472" lon="16.667892">
        <ele>235.271145</ele>
        <time>2020-09-10T06:13:21.885Z</time>
      </trkpt>
      <trkpt lat="48.592549" lon="16.668008">
        <ele>235.304198</ele>
        <time>2020-09-10T06:13:23.851Z</time>
      </trkpt>
      <trkpt lat="48.592604" lon="16.668122">
        <ele>235.332578</ele>
        <time>2020-09-10T06:13:25.875Z</time>
      </trkpt>
      <trkpt lat="48.592655" lon="16.668236">
        <ele>235.360258</ele>
        <time>2020-09-10T06:13:27.893Z</time>
      </trkpt>
      <trkpt lat="48.592697" lon="16.668358">
        <ele>235.387920</ele>
        <time>2020-09-10T06:13:29.880Z</time>
      </trkpt>
      <trkpt lat="48.592737" lon="16.668485">
        <ele>235.411232</ele>
        <time>2020-09-10T06:13:31.900Z</time>
      </trkpt>
      <trkpt lat="48.592782" lon="16.668621">
        <ele>235.352463</ele>
        <time>2020-09-10T06:13:33.861Z</time>
      </trkpt>
      <trkpt lat="48.592830" lon="16.668755">
        <ele>235.293569</ele>
        <time>2020-09-10T06:13:35.862Z</time>
      </trkpt>
      <trkpt lat="48.592879" lon="16.668895">
        <ele>235.232356</ele>
        <time>2020-09-10T06:13:37.872Z</time>
      </trkpt>
      <trkpt lat="48.592931" lon="16.669047">
        <ele>235.166220</ele>
        <time>2020-09-10T06:13:39.864Z</time>
      </trkpt>
      <trkpt lat="48.592983" lon="16.669205">
        <ele>235.098017</ele>
        <time>2020-09-10T06:13:41.859Z</time>
      </trkpt>
      <trkpt lat="48.593038" lon="16.669375">
        <ele>235.024880</ele>
        <time>2020-09-10T06:13:43.883Z</time>
      </trkpt>
      <trkpt lat="48.593098" lon="16.669554">
        <ele>234.947326</ele>
        <time>2020-09-10T06:13:45.883Z</time>
      </trkpt>
      <trkpt lat="48.593172" lon="16.669729">
        <ele>234.867055</ele>
        <time>2020-09-10T06:13:47.873Z</time>
      </trkpt>
      <trkpt lat="48.593249" lon="16.669908">
        <ele>234.784534</ele>
        <time>2020-09-10T06:13:49.864Z</time>
      </trkpt>
      <trkpt lat="48.593329" lon="16.670081">
        <ele>234.702955</ele>
        <time>2020-09-10T06:13:51.876Z</time>
      </trkpt>
      <trkpt lat="48.593405" lon="16.670256">
        <ele>234.622049</ele>
        <time>2020-09-10T06:13:53.868Z</time>
      </trkpt>
      <trkpt lat="48.593474" lon="16.670433">
        <ele>234.542648</ele>
        <time>2020-09-10T06:13:55.861Z</time>
      </trkpt>
      <trkpt lat="48.593527" lon="16.670619">
        <ele>234.464379</ele>
        <time>2020-09-10T06:13:57.858Z</time>
      </trkpt>
      <trkpt lat="48.593560" lon="16.670813">
        <ele>234.386966</ele>
        <time>2020-09-10T06:13:59.856Z</time>
      </trkpt>
      <trkpt lat="48.593581" lon="16.671002">
        <ele>234.361333</ele>
        <time>2020-09-10T06:14:01.863Z</time>
      </trkpt>
      <trkpt lat="48.593595" lon="16.671185">
        <ele>234.358225</ele>
        <time>2020-09-10T06:14:03.856Z</time>
      </trkpt>
      <trkpt lat="48.593622" lon="16.671357">
        <ele>234.355243</ele>
        <time>2020-09-10T06:14:05.862Z</time>
      </trkpt>
      <trkpt lat="48.593659" lon="16.671516">
        <ele>234.352399</ele>
        <time>2020-09-10T06:14:07.865Z</time>
      </trkpt>
      <trkpt lat="48.593694" lon="16.671664">
        <ele>234.349747</ele>
        <time>2020-09-10T06:14:09.866Z</time>
      </trkpt>
      <trkpt lat="48.593720" lon="16.671811">
        <ele>234.347179</ele>
        <time>2020-09-10T06:14:11.866Z</time>
      </trkpt>
      <trkpt lat="48.593744" lon="16.671960">
        <ele>234.344592</ele>
        <time>2020-09-10T06:14:13.869Z</time>
      </trkpt>
      <trkpt lat="48.593764" lon="16.672111">
        <ele>234.341993</ele>
        <time>2020-09-10T06:14:15.879Z</time>
      </trkpt>
      <trkpt lat="48.593779" lon="16.672264">
        <ele>234.339384</ele>
        <time>2020-09-10T06:14:17.864Z</time>
      </trkpt>
      <trkpt lat="48.593763" lon="16.672429">
        <ele>234.336570</ele>
        <time>2020-09-10T06:14:19.873Z</time>
      </trkpt>
      <trkpt lat="48.593732" lon="16.672573">
        <ele>234.334015</ele>
        <time>2020-09-10T06:14:21.853Z</time>
      </trkpt>
      <trkpt lat="48.593724" lon="16.672717">
        <ele>234.331577</ele>
        <time>2020-09-10T06:14:23.863Z</time>
      </trkpt>
      <trkpt lat="48.593730" lon="16.672865">
        <ele>234.329075</ele>
        <time>2020-09-10T06:14:25.852Z</time>
      </trkpt>
      <trkpt lat="48.593746" lon="16.673010">
        <ele>234.326595</ele>
        <time>2020-09-10T06:14:27.863Z</time>
      </trkpt>
      <trkpt lat="48.593764" lon="16.673155">
        <ele>234.324105</ele>
        <time>2020-09-10T06:14:29.876Z</time>
      </trkpt>
      <trkpt lat="48.593781" lon="16.673306">
        <ele>234.321521</ele>
        <time>2020-09-10T06:14:31.862Z</time>
      </trkpt>
      <trkpt lat="48.593807" lon="16.673454">
        <ele>234.318937</ele>
        <time>2020-09-10T06:14:33.863Z</time>
      </trkpt>
      <trkpt lat="48.593837" lon="16.673605">
        <ele>234.296277</ele>
        <time>2020-09-10T06:14:35.871Z</time>
      </trkpt>
      <trkpt lat="48.593872" lon="16.673749">
        <ele>234.256262</ele>
        <time>2020-09-10T06:14:37.871Z</time>
      </trkpt>
      <trkpt lat="48.593908" lon="16.673898">
        <ele>234.214886</ele>
        <time>2020-09-10T06:14:39.866Z</time>
      </trkpt>
      <trkpt lat="48.593940" lon="16.674051">
        <ele>234.173031</ele>
        <time>2020-09-10T06:14:41.904Z</time>
      </trkpt>
      <trkpt lat="48.593967" lon="16.674204">
        <ele>234.131728</ele>
        <time>2020-09-10T06:14:43.887Z</time>
      </trkpt>
      <trkpt lat="48.593993" lon="16.674358">
        <ele>234.090272</ele>
        <time>2020-09-10T06:14:45.897Z</time>
      </trkpt>
      <trkpt lat="48.594026" lon="16.674512">
        <ele>234.048049</ele>
        <time>2020-09-10T06:14:47.890Z</time>
      </trkpt>
      <trkpt lat="48.594056" lon="16.674671">
        <ele>234.004922</ele>
        <time>2020-09-10T06:14:49.854Z</time>
      </trkpt>
      <trkpt lat="48.594083" lon="16.674827">
        <ele>233.962863</ele>
        <time>2020-09-10T06:14:51.856Z</time>
      </trkpt>
      <trkpt lat="48.594109" lon="16.674983">
        <ele>233.920901</ele>
        <time>2020-09-10T06:14:53.870Z</time>
      </trkpt>
      <trkpt lat="48.594133" lon="16.675139">
        <ele>233.879126</ele>
        <time>2020-09-10T06:14:55.853Z</time>
      </trkpt>
      <trkpt lat="48.594151" lon="16.675290">
        <ele>233.839106</ele>
        <time>2020-09-10T06:14:57.883Z</time>
      </trkpt>
      <trkpt lat="48.594170" lon="16.675436">
        <ele>233.800295</ele>
        <time>2020-09-10T06:14:59.870Z</time>
      </trkpt>
      <trkpt lat="48.594187" lon="16.675579">
        <ele>233.762398</ele>
        <time>2020-09-10T06:15:01.863Z</time>
      </trkpt>
      <trkpt lat="48.594202" lon="16.675723">
        <ele>233.724376</ele>
        <time>2020-09-10T06:15:03.880Z</time>
      </trkpt>
      <trkpt lat="48.594214" lon="16.675868">
        <ele>233.686261</ele>
        <time>2020-09-10T06:15:05.874Z</time>
      </trkpt>
      <trkpt lat="48.594230" lon="16.676020">
        <ele>233.646116</ele>
        <time>2020-09-10T06:15:07.864Z</time>
      </trkpt>
      <trkpt lat="48.594252" lon="16.676175">
        <ele>233.605692</ele>
        <time>2020-09-10T06:15:09.861Z</time>
      </trkpt>
      <trkpt lat="48.594275" lon="16.676334">
        <ele>233.574245</ele>
        <time>2020-09-10T06:15:11.879Z</time>
      </trkpt>
      <trkpt lat="48.594294" lon="16.676498">
        <ele>233.542076</ele>
        <time>2020-09-10T06:15:13.867Z</time>
      </trkpt>
      <trkpt lat="48.594311" lon="16.676667">
        <ele>233.509047</ele>
        <time>2020-09-10T06:15:15.906Z</time>
      </trkpt>
      <trkpt lat="48.594322" lon="16.676846">
        <ele>233.474313</ele>
        <time>2020-09-10T06:15:17.867Z</time>
      </trkpt>
      <trkpt lat="48.594323" lon="16.677020">
        <ele>233.440693</ele>
        <time>2020-09-10T06:15:19.870Z</time>
      </trkpt>
      <trkpt lat="48.594322" lon="16.677198">
        <ele>233.406299</ele>
        <time>2020-09-10T06:15:21.856Z</time>
      </trkpt>
      <trkpt lat="48.594320" lon="16.677372">
        <ele>233.372675</ele>
        <time>2020-09-10T06:15:23.885Z</time>
      </trkpt>
      <trkpt lat="48.594321" lon="16.677551">
        <ele>233.338089</ele>
        <time>2020-09-10T06:15:25.868Z</time>
      </trkpt>
      <trkpt lat="48.594322" lon="16.677725">
        <ele>233.304468</ele>
        <time>2020-09-10T06:15:27.896Z</time>
      </trkpt>
      <trkpt lat="48.594327" lon="16.677880">
        <ele>233.274484</ele>
        <time>2020-09-10T06:15:29.867Z</time>
      </trkpt>
      <trkpt lat="48.594341" lon="16.678041">
        <ele>233.243109</ele>
        <time>2020-09-10T06:15:31.863Z</time>
      </trkpt>
      <trkpt lat="48.594356" lon="16.678214">
        <ele>233.209397</ele>
        <time>2020-09-10T06:15:33.873Z</time>
      </trkpt>
      <trkpt lat="48.594379" lon="16.678384">
        <ele>233.175871</ele>
        <time>2020-09-10T06:15:35.870Z</time>
      </trkpt>
      <trkpt lat="48.594401" lon="16.678549">
        <ele>233.143349</ele>
        <time>2020-09-10T06:15:37.875Z</time>
      </trkpt>
      <trkpt lat="48.594422" lon="16.678703">
        <ele>233.112969</ele>
        <time>2020-09-10T06:15:39.870Z</time>
      </trkpt>
      <trkpt lat="48.594446" lon="16.678861">
        <ele>233.081450</ele>
        <time>2020-09-10T06:15:41.870Z</time>
      </trkpt>
      <trkpt lat="48.594474" lon="16.679019">
        <ele>233.044877</ele>
        <time>2020-09-10T06:15:43.886Z</time>
      </trkpt>
      <trkpt lat="48.594504" lon="16.679170">
        <ele>233.009626</ele>
        <time>2020-09-10T06:15:45.862Z</time>
      </trkpt>
      <trkpt lat="48.594534" lon="16.679331">
        <ele>232.972227</ele>
        <time>2020-09-10T06:15:47.877Z</time>
      </trkpt>
      <trkpt lat="48.594565" lon="16.679502">
        <ele>232.932583</ele>
        <time>2020-09-10T06:15:49.861Z</time>
      </trkpt>
      <trkpt lat="48.594619" lon="16.679658">
        <ele>232.893215</ele>
        <time>2020-09-10T06:15:51.866Z</time>
      </trkpt>
      <trkpt lat="48.594667" lon="16.679826">
        <ele>232.852298</ele>
        <time>2020-09-10T06:15:53.884Z</time>
      </trkpt>
      <trkpt lat="48.594708" lon="16.679991">
        <ele>232.812888</ele>
        <time>2020-09-10T06:15:55.870Z</time>
      </trkpt>
      <trkpt lat="48.594736" lon="16.680155">
        <ele>232.775018</ele>
        <time>2020-09-10T06:15:57.882Z</time>
      </trkpt>
      <trkpt lat="48.594750" lon="16.680329">
        <ele>232.735827</ele>
        <time>2020-09-10T06:15:59.867Z</time>
      </trkpt>
      <trkpt lat="48.594760" lon="16.680501">
        <ele>232.697222</ele>
        <time>2020-09-10T06:16:01.848Z</time>
      </trkpt>
      <trkpt lat="48.594771" lon="16.680665">
        <ele>232.660366</ele>
        <time>2020-09-10T06:16:03.857Z</time>
      </trkpt>
      <trkpt lat="48.594780" lon="16.680822">
        <ele>232.625132</ele>
        <time>2020-09-10T06:16:05.860Z</time>
      </trkpt>
      <trkpt lat="48.594785" lon="16.680978">
        <ele>232.590212</ele>
        <time>2020-09-10T06:16:07.863Z</time>
      </trkpt>
      <trkpt lat="48.594789" lon="16.681137">
        <ele>232.554636</ele>
        <time>2020-09-10T06:16:09.860Z</time>
      </trkpt>
      <trkpt lat="48.594796" lon="16.681293">
        <ele>232.519676</ele>
        <time>2020-09-10T06:16:11.846Z</time>
      </trkpt>
      <trkpt lat="48.594804" lon="16.681446">
        <ele>232.485361</ele>
        <time>2020-09-10T06:16:13.898Z</time>
      </trkpt>
      <trkpt lat="48.594815" lon="16.681595">
        <ele>232.478492</ele>
        <time>2020-09-10T06:16:15.866Z</time>
      </trkpt>
      <trkpt lat="48.594834" lon="16.681737">
        <ele>232.483630</ele>
        <time>2020-09-10T06:16:17.881Z</time>
      </trkpt>
      <trkpt lat="48.594860" lon="16.681874">
        <ele>232.488684</ele>
        <time>2020-09-10T06:16:19.875Z</time>
      </trkpt>
      <trkpt lat="48.594903" lon="16.682008">
        <ele>232.493965</ele>
        <time>2020-09-10T06:16:21.885Z</time>
      </trkpt>
      <trkpt lat="48.594954" lon="16.682146">
        <ele>232.499570</ele>
        <time>2020-09-10T06:16:23.852Z</time>
      </trkpt>
      <trkpt lat="48.595009" lon="16.682304">
        <ele>232.505902</ele>
        <time>2020-09-10T06:16:25.861Z</time>
      </trkpt>
      <trkpt lat="48.595059" lon="16.682465">
        <ele>232.512209</ele>
        <time>2020-09-10T06:16:27.883Z</time>
      </trkpt>
      <trkpt lat="48.595108" lon="16.682627">
        <ele>232.518525</ele>
        <time>2020-09-10T06:16:29.859Z</time>
      </trkpt>
      <trkpt lat="48.595148" lon="16.682797">
        <ele>232.524924</ele>
        <time>2020-09-10T06:16:31.862Z</time>
      </trkpt>
      <trkpt lat="48.595180" lon="16.682970">
        <ele>232.531294</ele>
        <time>2020-09-10T06:16:33.859Z</time>
      </trkpt>
      <trkpt lat="48.595199" lon="16.683149">
        <ele>232.537722</ele>
        <time>2020-09-10T06:16:35.906Z</time>
      </trkpt>
      <trkpt lat="48.595208" lon="16.683317">
        <ele>232.543699</ele>
        <time>2020-09-10T06:16:37.869Z</time>
      </trkpt>
      <trkpt lat="48.595207" lon="16.683481">
        <ele>232.549514</ele>
        <time>2020-09-10T06:16:39.885Z</time>
      </trkpt>
      <trkpt lat="48.595204" lon="16.683648">
        <ele>232.555438</ele>
        <time>2020-09-10T06:16:41.858Z</time>
      </trkpt>
      <trkpt lat="48.595195" lon="16.683822">
        <ele>232.561627</ele>
        <time>2020-09-10T06:16:43.898Z</time>
      </trkpt>
      <trkpt lat="48.595189" lon="16.683995">
        <ele>232.567770</ele>
        <time>2020-09-10T06:16:45.858Z</time>
      </trkpt>
      <trkpt lat="48.595183" lon="16.684156">
        <ele>232.602773</ele>
        <time>2020-09-10T06:16:47.858Z</time>
      </trkpt>
      <trkpt lat="48.595176" lon="16.684320">
        <ele>232.685812</ele>
        <time>2020-09-10T06:16:49.877Z</time>
      </trkpt>
      <trkpt lat="48.595170" lon="16.684491">
        <ele>232.772337</ele>
        <time>2020-09-10T06:16:51.885Z</time>
      </trkpt>
      <trkpt lat="48.595160" lon="16.684652">
        <ele>232.854045</ele>
        <time>2020-09-10T06:16:53.868Z</time>
      </trkpt>
      <trkpt lat="48.595151" lon="16.684818">
        <ele>232.938204</ele>
        <time>2020-09-10T06:16:55.898Z</time>
      </trkpt>
      <trkpt lat="48.595149" lon="16.684978">
        <ele>233.019064</ele>
        <time>2020-09-10T06:16:57.878Z</time>
      </trkpt>
      <trkpt lat="48.595146" lon="16.685138">
        <ele>233.099941</ele>
        <time>2020-09-10T06:16:59.873Z</time>
      </trkpt>
      <trkpt lat="48.595141" lon="16.685295">
        <ele>233.179363</ele>
        <time>2020-09-10T06:17:01.864Z</time>
      </trkpt>
      <trkpt lat="48.595139" lon="16.685451">
        <ele>233.258202</ele>
        <time>2020-09-10T06:17:03.872Z</time>
      </trkpt>
      <trkpt lat="48.595151" lon="16.685609">
        <ele>233.338561</ele>
        <time>2020-09-10T06:17:05.854Z</time>
      </trkpt>
      <trkpt lat="48.595167" lon="16.685765">
        <ele>233.418328</ele>
        <time>2020-09-10T06:17:07.863Z</time>
      </trkpt>
      <trkpt lat="48.595205" lon="16.685917">
        <ele>233.500434</ele>
        <time>2020-09-10T06:17:09.853Z</time>
      </trkpt>
      <trkpt lat="48.595242" lon="16.686080">
        <ele>233.587511</ele>
        <time>2020-09-10T06:17:11.863Z</time>
      </trkpt>
      <trkpt lat="48.595283" lon="16.686245">
        <ele>233.676573</ele>
        <time>2020-09-10T06:17:13.872Z</time>
      </trkpt>
      <trkpt lat="48.595324" lon="16.686408">
        <ele>233.764689</ele>
        <time>2020-09-10T06:17:15.883Z</time>
      </trkpt>
      <trkpt lat="48.595368" lon="16.686563">
        <ele>233.849917</ele>
        <time>2020-09-10T06:17:17.860Z</time>
      </trkpt>
      <trkpt lat="48.595414" lon="16.686708">
        <ele>233.931176</ele>
        <time>2020-09-10T06:17:19.864Z</time>
      </trkpt>
      <trkpt lat="48.595469" lon="16.686840">
        <ele>233.932735</ele>
        <time>2020-09-10T06:17:21.846Z</time>
      </trkpt>
      <trkpt lat="48.595523" lon="16.686971">
        <ele>233.917415</ele>
        <time>2020-09-10T06:17:23.894Z</time>
      </trkpt>
      <trkpt lat="48.595571" lon="16.687104">
        <ele>233.902378</ele>
        <time>2020-09-10T06:17:25.870Z</time>
      </trkpt>
      <trkpt lat="48.595621" lon="16.687233">
        <ele>233.887538</ele>
        <time>2020-09-10T06:17:27.873Z</time>
      </trkpt>
      <trkpt lat="48.595676" lon="16.687364">
        <ele>233.872139</ele>
        <time>2020-09-10T06:17:29.867Z</time>
      </trkpt>
      <trkpt lat="48.595733" lon="16.687508">
        <ele>233.855483</ele>
        <time>2020-09-10T06:17:31.860Z</time>
      </trkpt>
      <trkpt lat="48.595795" lon="16.687658">
        <ele>233.837928</ele>
        <time>2020-09-10T06:17:33.859Z</time>
      </trkpt>
      <trkpt lat="48.595856" lon="16.687812">
        <ele>233.820112</ele>
        <time>2020-09-10T06:17:35.862Z</time>
      </trkpt>
      <trkpt lat="48.595914" lon="16.687976">
        <ele>233.801655</ele>
        <time>2020-09-10T06:17:37.870Z</time>
      </trkpt>
      <trkpt lat="48.595970" lon="16.688140">
        <ele>233.783337</ele>
        <time>2020-09-10T06:17:39.884Z</time>
      </trkpt>
      <trkpt lat="48.596036" lon="16.688308">
        <ele>233.763944</ele>
        <time>2020-09-10T06:17:41.881Z</time>
      </trkpt>
      <trkpt lat="48.596104" lon="16.688476">
        <ele>233.744396</ele>
        <time>2020-09-10T06:17:43.862Z</time>
      </trkpt>
      <trkpt lat="48.596169" lon="16.688647">
        <ele>233.724821</ele>
        <time>2020-09-10T06:17:45.887Z</time>
      </trkpt>
      <trkpt lat="48.596232" lon="16.688820">
        <ele>233.705221</ele>
        <time>2020-09-10T06:17:47.868Z</time>
      </trkpt>
      <trkpt lat="48.596296" lon="16.688995">
        <ele>233.685375</ele>
        <time>2020-09-10T06:17:49.872Z</time>
      </trkpt>
      <trkpt lat="48.596345" lon="16.689180">
        <ele>233.659827</ele>
        <time>2020-09-10T06:17:51.871Z</time>
      </trkpt>
      <trkpt lat="48.596390" lon="16.689366">
        <ele>233.628734</ele>
        <time>2020-09-10T06:17:53.866Z</time>
      </trkpt>
      <trkpt lat="48.596431" lon="16.689556">
        <ele>233.597357</ele>
        <time>2020-09-10T06:17:55.894Z</time>
      </trkpt>
      <trkpt lat="48.596451" lon="16.689754">
        <ele>233.565911</ele>
        <time>2020-09-10T06:17:57.874Z</time>
      </trkpt>
      <trkpt lat="48.596465" lon="16.689949">
        <ele>233.535117</ele>
        <time>2020-09-10T06:17:59.856Z</time>
      </trkpt>
      <trkpt lat="48.596484" lon="16.690135">
        <ele>233.505570</ele>
        <time>2020-09-10T06:18:01.868Z</time>
      </trkpt>
      <trkpt lat="48.596500" lon="16.690314">
        <ele>233.477212</ele>
        <time>2020-09-10T06:18:03.851Z</time>
      </trkpt>
      <trkpt lat="48.596520" lon="16.690484">
        <ele>233.450104</ele>
        <time>2020-09-10T06:18:05.849Z</time>
      </trkpt>
      <trkpt lat="48.596531" lon="16.690651">
        <ele>233.423756</ele>
        <time>2020-09-10T06:18:07.887Z</time>
      </trkpt>
      <trkpt lat="48.596515" lon="16.690816">
        <ele>233.397575</ele>
        <time>2020-09-10T06:18:09.865Z</time>
      </trkpt>
      <trkpt lat="48.596491" lon="16.690978">
        <ele>233.371512</ele>
        <time>2020-09-10T06:18:11.849Z</time>
      </trkpt>
      <trkpt lat="48.596462" lon="16.691125">
        <ele>233.347428</ele>
        <time>2020-09-10T06:18:13.892Z</time>
      </trkpt>
      <trkpt lat="48.596438" lon="16.691275">
        <ele>233.323200</ele>
        <time>2020-09-10T06:18:15.883Z</time>
      </trkpt>
      <trkpt lat="48.596418" lon="16.691408">
        <ele>233.301787</ele>
        <time>2020-09-10T06:18:17.860Z</time>
      </trkpt>
      <trkpt lat="48.596401" lon="16.691550">
        <ele>233.279131</ele>
        <time>2020-09-10T06:18:19.901Z</time>
      </trkpt>
      <trkpt lat="48.596387" lon="16.691748">
        <ele>233.248418</ele>
        <time>2020-09-10T06:18:22.877Z</time>
      </trkpt>
      <trkpt lat="48.596384" lon="16.691947">
        <ele>233.242570</ele>
        <time>2020-09-10T06:18:25.903Z</time>
      </trkpt>
      <trkpt lat="48.596384" lon="16.692096">
        <ele>233.238193</ele>
        <time>2020-09-10T06:18:27.855Z</time>
      </trkpt>
      <trkpt lat="48.596391" lon="16.692247">
        <ele>233.233746</ele>
        <time>2020-09-10T06:18:29.862Z</time>
      </trkpt>
      <trkpt lat="48.596394" lon="16.692406">
        <ele>233.229073</ele>
        <time>2020-09-10T06:18:31.879Z</time>
      </trkpt>
      <trkpt lat="48.596402" lon="16.692569">
        <ele>233.224271</ele>
        <time>2020-09-10T06:18:33.870Z</time>
      </trkpt>
      <trkpt lat="48.596429" lon="16.692732">
        <ele>233.219334</ele>
        <time>2020-09-10T06:18:35.851Z</time>
      </trkpt>
      <trkpt lat="48.596476" lon="16.692883">
        <ele>233.214431</ele>
        <time>2020-09-10T06:18:37.890Z</time>
      </trkpt>
      <trkpt lat="48.596540" lon="16.693024">
        <ele>233.209407</ele>
        <time>2020-09-10T06:18:39.859Z</time>
      </trkpt>
      <trkpt lat="48.596638" lon="16.693103">
        <ele>233.204474</ele>
        <time>2020-09-10T06:18:41.853Z</time>
      </trkpt>
      <trkpt lat="48.596737" lon="16.693163">
        <ele>233.199736</ele>
        <time>2020-09-10T06:18:43.854Z</time>
      </trkpt>
      <trkpt lat="48.596837" lon="16.693206">
        <ele>233.195118</ele>
        <time>2020-09-10T06:18:45.880Z</time>
      </trkpt>
      <trkpt lat="48.596942" lon="16.693235">
        <ele>233.190377</ele>
        <time>2020-09-10T06:18:47.880Z</time>
      </trkpt>
      <trkpt lat="48.597041" lon="16.693269">
        <ele>233.185867</ele>
        <time>2020-09-10T06:18:49.860Z</time>
      </trkpt>
      <trkpt lat="48.597141" lon="16.693319">
        <ele>233.181188</ele>
        <time>2020-09-10T06:18:51.867Z</time>
      </trkpt>
      <trkpt lat="48.597231" lon="16.693413">
        <ele>233.176329</ele>
        <time>2020-09-10T06:18:53.870Z</time>
      </trkpt>
      <trkpt lat="48.597317" lon="16.693522">
        <ele>233.171345</ele>
        <time>2020-09-10T06:18:55.868Z</time>
      </trkpt>
      <trkpt lat="48.597407" lon="16.693640">
        <ele>233.150801</ele>
        <time>2020-09-10T06:18:57.897Z</time>
      </trkpt>
      <trkpt lat="48.597497" lon="16.693748">
        <ele>233.115683</ele>
        <time>2020-09-10T06:18:59.854Z</time>
      </trkpt>
      <trkpt lat="48.597582" lon="16.693845">
        <ele>233.083134</ele>
        <time>2020-09-10T06:19:01.877Z</time>
      </trkpt>
      <trkpt lat="48.597658" lon="16.693944">
        <ele>233.052474</ele>
        <time>2020-09-10T06:19:03.860Z</time>
      </trkpt>
      <trkpt lat="48.597753" lon="16.694090">
        <ele>233.011073</ele>
        <time>2020-09-10T06:19:06.866Z</time>
      </trkpt>
      <trkpt lat="48.597810" lon="16.694260">
        <ele>232.972545</ele>
        <time>2020-09-10T06:19:09.864Z</time>
      </trkpt>
      <trkpt lat="48.597857" lon="16.694436">
        <ele>232.934178</ele>
        <time>2020-09-10T06:19:12.857Z</time>
      </trkpt>
      <trkpt lat="48.597901" lon="16.694625">
        <ele>232.893677</ele>
        <time>2020-09-10T06:19:15.876Z</time>
      </trkpt>
      <trkpt lat="48.597934" lon="16.694752">
        <ele>232.866095</ele>
        <time>2020-09-10T06:19:17.878Z</time>
      </trkpt>
      <trkpt lat="48.597983" lon="16.694939">
        <ele>232.825437</ele>
        <time>2020-09-10T06:19:20.880Z</time>
      </trkpt>
      <trkpt lat="48.598019" lon="16.695071">
        <ele>232.796575</ele>
        <time>2020-09-10T06:19:22.865Z</time>
      </trkpt>
      <trkpt lat="48.598055" lon="16.695210">
        <ele>232.766400</ele>
        <time>2020-09-10T06:19:24.874Z</time>
      </trkpt>
      <trkpt lat="48.598096" lon="16.695361">
        <ele>232.733405</ele>
        <time>2020-09-10T06:19:26.868Z</time>
      </trkpt>
      <trkpt lat="48.598140" lon="16.695515">
        <ele>232.699496</ele>
        <time>2020-09-10T06:19:28.871Z</time>
      </trkpt>
      <trkpt lat="48.598184" lon="16.695684">
        <ele>232.662783</ele>
        <time>2020-09-10T06:19:30.872Z</time>
      </trkpt>
      <trkpt lat="48.598229" lon="16.695859">
        <ele>232.624829</ele>
        <time>2020-09-10T06:19:32.887Z</time>
      </trkpt>
      <trkpt lat="48.598273" lon="16.696021">
        <ele>232.583345</ele>
        <time>2020-09-10T06:19:34.876Z</time>
      </trkpt>
      <trkpt lat="48.598336" lon="16.696171">
        <ele>232.540011</ele>
        <time>2020-09-10T06:19:36.863Z</time>
      </trkpt>
      <trkpt lat="48.598402" lon="16.696318">
        <ele>232.496681</ele>
        <time>2020-09-10T06:19:38.867Z</time>
      </trkpt>
      <trkpt lat="48.598472" lon="16.696468">
        <ele>232.451910</ele>
        <time>2020-09-10T06:19:40.869Z</time>
      </trkpt>
      <trkpt lat="48.598555" lon="16.696591">
        <ele>232.409055</ele>
        <time>2020-09-10T06:19:42.849Z</time>
      </trkpt>
      <trkpt lat="48.598662" lon="16.696671">
        <ele>232.365038</ele>
        <time>2020-09-10T06:19:44.859Z</time>
      </trkpt>
      <trkpt lat="48.598780" lon="16.696711">
        <ele>232.320445</ele>
        <time>2020-09-10T06:19:46.874Z</time>
      </trkpt>
      <trkpt lat="48.598890" lon="16.696765">
        <ele>232.277797</ele>
        <time>2020-09-10T06:19:48.875Z</time>
      </trkpt>
      <trkpt lat="48.599006" lon="16.696809">
        <ele>232.233696</ele>
        <time>2020-09-10T06:19:50.887Z</time>
      </trkpt>
      <trkpt lat="48.599124" lon="16.696836">
        <ele>232.189688</ele>
        <time>2020-09-10T06:19:52.883Z</time>
      </trkpt>
      <trkpt lat="48.599236" lon="16.696849">
        <ele>232.148265</ele>
        <time>2020-09-10T06:19:54.909Z</time>
      </trkpt>
      <trkpt lat="48.599355" lon="16.696856">
        <ele>232.104350</ele>
        <time>2020-09-10T06:19:56.878Z</time>
      </trkpt>
      <trkpt lat="48.599472" lon="16.696863">
        <ele>232.061172</ele>
        <time>2020-09-10T06:19:58.871Z</time>
      </trkpt>
      <trkpt lat="48.599592" lon="16.696873">
        <ele>232.016854</ele>
        <time>2020-09-10T06:20:00.873Z</time>
      </trkpt>
      <trkpt lat="48.599717" lon="16.696877">
        <ele>231.970749</ele>
        <time>2020-09-10T06:20:02.860Z</time>
      </trkpt>
      <trkpt lat="48.599835" lon="16.696881">
        <ele>231.989803</ele>
        <time>2020-09-10T06:20:04.895Z</time>
      </trkpt>
      <trkpt lat="48.599948" lon="16.696891">
        <ele>232.040003</ele>
        <time>2020-09-10T06:20:06.886Z</time>
      </trkpt>
      <trkpt lat="48.600060" lon="16.696889">
        <ele>232.089678</ele>
        <time>2020-09-10T06:20:08.877Z</time>
      </trkpt>
      <trkpt lat="48.600174" lon="16.696883">
        <ele>232.140267</ele>
        <time>2020-09-10T06:20:10.873Z</time>
      </trkpt>
      <trkpt lat="48.600284" lon="16.696878">
        <ele>232.189073</ele>
        <time>2020-09-10T06:20:12.868Z</time>
      </trkpt>
      <trkpt lat="48.600410" lon="16.696877">
        <ele>232.244953</ele>
        <time>2020-09-10T06:20:14.863Z</time>
      </trkpt>
      <trkpt lat="48.600525" lon="16.696870">
        <ele>232.295996</ele>
        <time>2020-09-10T06:20:16.886Z</time>
      </trkpt>
      <trkpt lat="48.600650" lon="16.696857">
        <ele>232.351564</ele>
        <time>2020-09-10T06:20:18.875Z</time>
      </trkpt>
      <trkpt lat="48.600774" lon="16.696835">
        <ele>232.406934</ele>
        <time>2020-09-10T06:20:20.872Z</time>
      </trkpt>
      <trkpt lat="48.600890" lon="16.696822">
        <ele>232.458520</ele>
        <time>2020-09-10T06:20:22.875Z</time>
      </trkpt>
      <trkpt lat="48.601127" lon="16.696810">
        <ele>232.563687</ele>
        <time>2020-09-10T06:20:51.886Z</time>
      </trkpt>
      <trkpt lat="48.601227" lon="16.696786">
        <ele>232.608591</ele>
        <time>2020-09-10T06:20:54.854Z</time>
      </trkpt>
      <trkpt lat="48.601346" lon="16.696769">
        <ele>232.661602</ele>
        <time>2020-09-10T06:20:57.866Z</time>
      </trkpt>
      <trkpt lat="48.601471" lon="16.696751">
        <ele>232.717289</ele>
        <time>2020-09-10T06:21:00.873Z</time>
      </trkpt>
      <trkpt lat="48.601608" lon="16.696727">
        <ele>232.760781</ele>
        <time>2020-09-10T06:21:03.881Z</time>
      </trkpt>
      <trkpt lat="48.601706" lon="16.696714">
        <ele>232.773734</ele>
        <time>2020-09-10T06:21:05.860Z</time>
      </trkpt>
      <trkpt lat="48.601806" lon="16.696704">
        <ele>232.786930</ele>
        <time>2020-09-10T06:21:07.862Z</time>
      </trkpt>
      <trkpt lat="48.601908" lon="16.696695">
        <ele>232.800382</ele>
        <time>2020-09-10T06:21:09.892Z</time>
      </trkpt>
      <trkpt lat="48.602009" lon="16.696681">
        <ele>232.813737</ele>
        <time>2020-09-10T06:21:11.862Z</time>
      </trkpt>
      <trkpt lat="48.602138" lon="16.696657">
        <ele>232.830850</ele>
        <time>2020-09-10T06:21:14.859Z</time>
      </trkpt>
      <trkpt lat="48.602269" lon="16.696636">
        <ele>232.848195</ele>
        <time>2020-09-10T06:21:17.876Z</time>
      </trkpt>
      <trkpt lat="48.602367" lon="16.696624">
        <ele>232.861140</ele>
        <time>2020-09-10T06:21:19.881Z</time>
      </trkpt>
      <trkpt lat="48.602468" lon="16.696613">
        <ele>232.874473</ele>
        <time>2020-09-10T06:21:21.900Z</time>
      </trkpt>
      <trkpt lat="48.602570" lon="16.696600">
        <ele>232.887951</ele>
        <time>2020-09-10T06:21:23.893Z</time>
      </trkpt>
      <trkpt lat="48.602669" lon="16.696587">
        <ele>232.901035</ele>
        <time>2020-09-10T06:21:25.857Z</time>
      </trkpt>
      <trkpt lat="48.602781" lon="16.696566">
        <ele>232.915895</ele>
        <time>2020-09-10T06:21:28.861Z</time>
      </trkpt>
      <trkpt lat="48.602726" lon="16.696384">
        <ele>232.933317</ele>
        <time>2020-09-10T06:21:32.854Z</time>
      </trkpt>
      <trkpt lat="48.602684" lon="16.696245">
        <ele>232.946623</ele>
        <time>2020-09-10T06:21:34.870Z</time>
      </trkpt>
      <trkpt lat="48.602636" lon="16.696059">
        <ele>232.964008</ele>
        <time>2020-09-10T06:21:37.873Z</time>
      </trkpt>
      <trkpt lat="48.602609" lon="16.695921">
        <ele>232.976538</ele>
        <time>2020-09-10T06:21:39.872Z</time>
      </trkpt>
      <trkpt lat="48.602578" lon="16.695782">
        <ele>232.989310</ele>
        <time>2020-09-10T06:21:41.861Z</time>
      </trkpt>
      <trkpt lat="48.602550" lon="16.695650">
        <ele>232.937197</ele>
        <time>2020-09-10T06:21:43.864Z</time>
      </trkpt>
      <trkpt lat="48.602522" lon="16.695516">
        <ele>232.879557</ele>
        <time>2020-09-10T06:21:45.870Z</time>
      </trkpt>
      <trkpt lat="48.602491" lon="16.695376">
        <ele>232.819001</ele>
        <time>2020-09-10T06:21:47.860Z</time>
      </trkpt>
      <trkpt lat="48.602460" lon="16.695233">
        <ele>232.757277</ele>
        <time>2020-09-10T06:21:49.863Z</time>
      </trkpt>
      <trkpt lat="48.602428" lon="16.695086">
        <ele>232.693800</ele>
        <time>2020-09-10T06:21:51.869Z</time>
      </trkpt>
      <trkpt lat="48.602398" lon="16.694937">
        <ele>232.629917</ele>
        <time>2020-09-10T06:21:53.890Z</time>
      </trkpt>
      <trkpt lat="48.602371" lon="16.694785">
        <ele>232.565362</ele>
        <time>2020-09-10T06:21:55.878Z</time>
      </trkpt>
      <trkpt lat="48.602350" lon="16.694633">
        <ele>232.501672</ele>
        <time>2020-09-10T06:21:57.874Z</time>
      </trkpt>
      <trkpt lat="48.602332" lon="16.694480">
        <ele>232.437932</ele>
        <time>2020-09-10T06:21:59.867Z</time>
      </trkpt>
      <trkpt lat="48.602310" lon="16.694325">
        <ele>232.372909</ele>
        <time>2020-09-10T06:22:01.863Z</time>
      </trkpt>
      <trkpt lat="48.602291" lon="16.694171">
        <ele>232.308654</ele>
        <time>2020-09-10T06:22:03.874Z</time>
      </trkpt>
      <trkpt lat="48.602278" lon="16.694016">
        <ele>232.244569</ele>
        <time>2020-09-10T06:22:05.876Z</time>
      </trkpt>
      <trkpt lat="48.602274" lon="16.693857">
        <ele>232.179307</ele>
        <time>2020-09-10T06:22:07.884Z</time>
      </trkpt>
      <trkpt lat="48.602277" lon="16.693702">
        <ele>232.115704</ele>
        <time>2020-09-10T06:22:09.870Z</time>
      </trkpt>
      <trkpt lat="48.602272" lon="16.693549">
        <ele>232.052873</ele>
        <time>2020-09-10T06:22:11.861Z</time>
      </trkpt>
      <trkpt lat="48.602261" lon="16.693395">
        <ele>231.989341</ele>
        <time>2020-09-10T06:22:13.873Z</time>
      </trkpt>
      <trkpt lat="48.602248" lon="16.693246">
        <ele>231.927697</ele>
        <time>2020-09-10T06:22:15.855Z</time>
      </trkpt>
      <trkpt lat="48.602233" lon="16.693094">
        <ele>231.867292</ele>
        <time>2020-09-10T06:22:17.873Z</time>
      </trkpt>
      <trkpt lat="48.602221" lon="16.692943">
        <ele>231.821537</ele>
        <time>2020-09-10T06:22:19.894Z</time>
      </trkpt>
      <trkpt lat="48.602204" lon="16.692795">
        <ele>231.776344</ele>
        <time>2020-09-10T06:22:21.861Z</time>
      </trkpt>
      <trkpt lat="48.602192" lon="16.692649">
        <ele>231.732082</ele>
        <time>2020-09-10T06:22:23.853Z</time>
      </trkpt>
      <trkpt lat="48.602182" lon="16.692506">
        <ele>231.688821</ele>
        <time>2020-09-10T06:22:25.856Z</time>
      </trkpt>
      <trkpt lat="48.602171" lon="16.692356">
        <ele>231.643417</ele>
        <time>2020-09-10T06:22:27.874Z</time>
      </trkpt>
      <trkpt lat="48.602156" lon="16.692203">
        <ele>231.596884</ele>
        <time>2020-09-10T06:22:29.878Z</time>
      </trkpt>
      <trkpt lat="48.602139" lon="16.692052">
        <ele>231.550802</ele>
        <time>2020-09-10T06:22:31.863Z</time>
      </trkpt>
      <trkpt lat="48.602128" lon="16.691897">
        <ele>231.503903</ele>
        <time>2020-09-10T06:22:33.878Z</time>
      </trkpt>
      <trkpt lat="48.602155" lon="16.691745">
        <ele>231.456552</ele>
        <time>2020-09-10T06:22:35.871Z</time>
      </trkpt>
      <trkpt lat="48.602233" lon="16.691648">
        <ele>231.410608</ele>
        <time>2020-09-10T06:22:37.861Z</time>
      </trkpt>
      <trkpt lat="48.602326" lon="16.691595">
        <ele>231.365393</ele>
        <time>2020-09-10T06:22:39.859Z</time>
      </trkpt>
      <trkpt lat="48.602414" lon="16.691536">
        <ele>231.321600</ele>
        <time>2020-09-10T06:22:41.875Z</time>
      </trkpt>
      <trkpt lat="48.602499" lon="16.691474">
        <ele>231.278666</ele>
        <time>2020-09-10T06:22:43.848Z</time>
      </trkpt>
      <trkpt lat="48.602582" lon="16.691418">
        <ele>231.237317</ele>
        <time>2020-09-10T06:22:45.871Z</time>
      </trkpt>
      <trkpt lat="48.602708" lon="16.691351">
        <ele>231.176553</ele>
        <time>2020-09-10T06:22:48.867Z</time>
      </trkpt>
      <trkpt lat="48.602791" lon="16.691296">
        <ele>231.135326</ele>
        <time>2020-09-10T06:22:50.886Z</time>
      </trkpt>
      <trkpt lat="48.602904" lon="16.691261">
        <ele>231.082850</ele>
        <time>2020-09-10T06:22:53.869Z</time>
      </trkpt>
      <trkpt lat="48.602994" lon="16.691189">
        <ele>231.052135</ele>
        <time>2020-09-10T06:22:56.853Z</time>
      </trkpt>
      <trkpt lat="48.603068" lon="16.691056">
        <ele>231.041243</ele>
        <time>2020-09-10T06:22:59.885Z</time>
      </trkpt>
      <trkpt lat="48.603192" lon="16.691034">
        <ele>231.029413</ele>
        <time>2020-09-10T06:23:02.854Z</time>
      </trkpt>
      <trkpt lat="48.603327" lon="16.691022">
        <ele>231.016598</ele>
        <time>2020-09-10T06:23:05.890Z</time>
      </trkpt>
      <trkpt lat="48.603419" lon="16.691003">
        <ele>231.007799</ele>
        <time>2020-09-10T06:23:07.893Z</time>
      </trkpt>
      <trkpt lat="48.603551" lon="16.690973">
        <ele>230.995150</ele>
        <time>2020-09-10T06:23:10.858Z</time>
      </trkpt>
      <trkpt lat="48.603641" lon="16.690950">
        <ele>230.986501</ele>
        <time>2020-09-10T06:23:12.897Z</time>
      </trkpt>
      <trkpt lat="48.603731" lon="16.690937">
        <ele>230.977934</ele>
        <time>2020-09-10T06:23:14.880Z</time>
      </trkpt>
      <trkpt lat="48.603823" lon="16.690927">
        <ele>230.969194</ele>
        <time>2020-09-10T06:23:16.873Z</time>
      </trkpt>
      <trkpt lat="48.603917" lon="16.690918">
        <ele>230.960268</ele>
        <time>2020-09-10T06:23:18.874Z</time>
      </trkpt>
      <trkpt lat="48.604051" lon="16.690899">
        <ele>230.947515</ele>
        <time>2020-09-10T06:23:21.875Z</time>
      </trkpt>
      <trkpt lat="48.604143" lon="16.690884">
        <ele>230.938747</ele>
        <time>2020-09-10T06:23:23.868Z</time>
      </trkpt>
      <trkpt lat="48.604239" lon="16.690873">
        <ele>230.929624</ele>
        <time>2020-09-10T06:23:25.861Z</time>
      </trkpt>
      <trkpt lat="48.604332" lon="16.690865">
        <ele>230.920797</ele>
        <time>2020-09-10T06:23:27.875Z</time>
      </trkpt>
      <trkpt lat="48.604425" lon="16.690849">
        <ele>230.911927</ele>
        <time>2020-09-10T06:23:29.857Z</time>
      </trkpt>
      <trkpt lat="48.604518" lon="16.690829">
        <ele>230.903026</ele>
        <time>2020-09-10T06:23:31.862Z</time>
      </trkpt>
      <trkpt lat="48.604609" lon="16.690815">
        <ele>230.894358</ele>
        <time>2020-09-10T06:23:33.881Z</time>
      </trkpt>
      <trkpt lat="48.604741" lon="16.690786">
        <ele>230.891060</ele>
        <time>2020-09-10T06:23:36.863Z</time>
      </trkpt>
      <trkpt lat="48.604830" lon="16.690770">
        <ele>230.901996</ele>
        <time>2020-09-10T06:23:38.883Z</time>
      </trkpt>
      <trkpt lat="48.604921" lon="16.690759">
        <ele>230.913134</ele>
        <time>2020-09-10T06:23:40.889Z</time>
      </trkpt>
      <trkpt lat="48.605055" lon="16.690738">
        <ele>230.929571</ele>
        <time>2020-09-10T06:23:43.900Z</time>
      </trkpt>
      <trkpt lat="48.605145" lon="16.690724">
        <ele>230.940610</ele>
        <time>2020-09-10T06:23:45.872Z</time>
      </trkpt>
      <trkpt lat="48.605271" lon="16.690702">
        <ele>230.956086</ele>
        <time>2020-09-10T06:23:48.873Z</time>
      </trkpt>
      <trkpt lat="48.605399" lon="16.690681">
        <ele>230.971795</ele>
        <time>2020-09-10T06:23:51.866Z</time>
      </trkpt>
      <trkpt lat="48.605522" lon="16.690651">
        <ele>230.986996</ele>
        <time>2020-09-10T06:23:54.891Z</time>
      </trkpt>
      <trkpt lat="48.605645" lon="16.690632">
        <ele>231.002081</ele>
        <time>2020-09-10T06:23:57.859Z</time>
      </trkpt>
      <trkpt lat="48.605766" lon="16.690610">
        <ele>231.016951</ele>
        <time>2020-09-10T06:24:00.883Z</time>
      </trkpt>
      <trkpt lat="48.605887" lon="16.690584">
        <ele>231.031863</ele>
        <time>2020-09-10T06:24:03.857Z</time>
      </trkpt>
      <trkpt lat="48.606012" lon="16.690569">
        <ele>231.047162</ele>
        <time>2020-09-10T06:24:06.862Z</time>
      </trkpt>
      <trkpt lat="48.606138" lon="16.690553">
        <ele>231.062590</ele>
        <time>2020-09-10T06:24:09.869Z</time>
      </trkpt>
      <trkpt lat="48.606258" lon="16.690533">
        <ele>231.077320</ele>
        <time>2020-09-10T06:24:12.861Z</time>
      </trkpt>
      <trkpt lat="48.606367" lon="16.690508">
        <ele>231.090771</ele>
        <time>2020-09-10T06:24:15.874Z</time>
      </trkpt>
      <trkpt lat="48.606468" lon="16.690475">
        <ele>231.103378</ele>
        <time>2020-09-10T06:24:18.871Z</time>
      </trkpt>
      <trkpt lat="48.606559" lon="16.690451">
        <ele>231.138666</ele>
        <time>2020-09-10T06:24:21.866Z</time>
      </trkpt>
      <trkpt lat="48.606675" lon="16.690428">
        <ele>231.189442</ele>
        <time>2020-09-10T06:24:25.864Z</time>
      </trkpt>
      <trkpt lat="48.606793" lon="16.690414">
        <ele>231.240813</ele>
        <time>2020-09-10T06:24:29.876Z</time>
      </trkpt>
      <trkpt lat="48.606907" lon="16.690393">
        <ele>231.290656</ele>
        <time>2020-09-10T06:24:33.862Z</time>
      </trkpt>
      <trkpt lat="48.607001" lon="16.690373">
        <ele>231.331855</ele>
        <time>2020-09-10T06:24:36.863Z</time>
      </trkpt>
      <trkpt lat="48.607123" lon="16.690354">
        <ele>231.385084</ele>
        <time>2020-09-10T06:24:40.856Z</time>
      </trkpt>
      <trkpt lat="48.607247" lon="16.690340">
        <ele>231.439051</ele>
        <time>2020-09-10T06:24:44.848Z</time>
      </trkpt>
      <trkpt lat="48.607360" lon="16.690322">
        <ele>231.488366</ele>
        <time>2020-09-10T06:24:47.873Z</time>
      </trkpt>
      <trkpt lat="48.607477" lon="16.690308">
        <ele>231.539304</ele>
        <time>2020-09-10T06:24:50.873Z</time>
      </trkpt>
      <trkpt lat="48.607604" lon="16.690292">
        <ele>231.594615</ele>
        <time>2020-09-10T06:24:53.856Z</time>
      </trkpt>
      <trkpt lat="48.607697" lon="16.690277">
        <ele>231.635207</ele>
        <time>2020-09-10T06:24:55.895Z</time>
      </trkpt>
      <trkpt lat="48.607806" lon="16.690262">
        <ele>231.682709</ele>
        <time>2020-09-10T06:24:57.846Z</time>
      </trkpt>
      <trkpt lat="48.607926" lon="16.690246">
        <ele>231.734993</ele>
        <time>2020-09-10T06:24:59.858Z</time>
      </trkpt>
      <trkpt lat="48.608047" lon="16.690227">
        <ele>231.787791</ele>
        <time>2020-09-10T06:25:01.850Z</time>
      </trkpt>
      <trkpt lat="48.608130" lon="16.690149">
        <ele>231.830202</ele>
        <time>2020-09-10T06:25:03.853Z</time>
      </trkpt>
      <trkpt lat="48.608113" lon="16.690009">
        <ele>231.871049</ele>
        <time>2020-09-10T06:25:05.858Z</time>
      </trkpt>
      <trkpt lat="48.608081" lon="16.689872">
        <ele>231.909645</ele>
        <time>2020-09-10T06:25:07.863Z</time>
      </trkpt>
      <trkpt lat="48.608045" lon="16.689742">
        <ele>231.945421</ele>
        <time>2020-09-10T06:25:09.872Z</time>
      </trkpt>
      <trkpt lat="48.608003" lon="16.689611">
        <ele>231.982377</ele>
        <time>2020-09-10T06:25:11.877Z</time>
      </trkpt>
      <trkpt lat="48.607959" lon="16.689481">
        <ele>232.019447</ele>
        <time>2020-09-10T06:25:13.882Z</time>
      </trkpt>
      <trkpt lat="48.607919" lon="16.689355">
        <ele>232.054926</ele>
        <time>2020-09-10T06:25:15.888Z</time>
      </trkpt>
      <trkpt lat="48.607879" lon="16.689224">
        <ele>232.091554</ele>
        <time>2020-09-10T06:25:17.888Z</time>
      </trkpt>
      <trkpt lat="48.607827" lon="16.689066">
        <ele>232.136354</ele>
        <time>2020-09-10T06:25:20.894Z</time>
      </trkpt>
      <trkpt lat="48.607768" lon="16.688874">
        <ele>232.190097</ele>
        <time>2020-09-10T06:25:48.894Z</time>
      </trkpt>
      <trkpt lat="48.607734" lon="16.688709">
        <ele>232.233967</ele>
        <time>2020-09-10T06:25:51.858Z</time>
      </trkpt>
      <trkpt lat="48.607683" lon="16.688528">
        <ele>232.283910</ele>
        <time>2020-09-10T06:25:54.845Z</time>
      </trkpt>
      <trkpt lat="48.607636" lon="16.688345">
        <ele>232.333744</ele>
        <time>2020-09-10T06:25:57.871Z</time>
      </trkpt>
      <trkpt lat="48.607593" lon="16.688166">
        <ele>232.382087</ele>
        <time>2020-09-10T06:26:00.877Z</time>
      </trkpt>
      <trkpt lat="48.607539" lon="16.687996">
        <ele>232.429961</ele>
        <time>2020-09-10T06:26:03.858Z</time>
      </trkpt>
      <trkpt lat="48.607478" lon="16.687821">
        <ele>232.480178</ele>
        <time>2020-09-10T06:26:06.851Z</time>
      </trkpt>
      <trkpt lat="48.607427" lon="16.687637">
        <ele>232.530822</ele>
        <time>2020-09-10T06:26:09.858Z</time>
      </trkpt>
      <trkpt lat="48.607381" lon="16.687463">
        <ele>232.579769</ele>
        <time>2020-09-10T06:26:12.868Z</time>
      </trkpt>
      <trkpt lat="48.607334" lon="16.687295">
        <ele>232.658022</ele>
        <time>2020-09-10T06:26:15.860Z</time>
      </trkpt>
      <trkpt lat="48.607292" lon="16.687127">
        <ele>232.735068</ele>
        <time>2020-09-10T06:26:18.877Z</time>
      </trkpt>
      <trkpt lat="48.607247" lon="16.686965">
        <ele>232.810444</ele>
        <time>2020-09-10T06:26:21.869Z</time>
      </trkpt>
      <trkpt lat="48.607206" lon="16.686819">
        <ele>232.878488</ele>
        <time>2020-09-10T06:26:24.854Z</time>
      </trkpt>
      <trkpt lat="48.607167" lon="16.686691">
        <ele>232.938946</ele>
        <time>2020-09-10T06:26:27.855Z</time>
      </trkpt>
      <trkpt lat="48.607131" lon="16.686549">
        <ele>233.004184</ele>
        <time>2020-09-10T06:26:31.872Z</time>
      </trkpt>
      <trkpt lat="48.607082" lon="16.686407">
        <ele>233.072894</ele>
        <time>2020-09-10T06:26:35.876Z</time>
      </trkpt>
      <trkpt lat="48.607041" lon="16.686276">
        <ele>233.135066</ele>
        <time>2020-09-10T06:26:38.863Z</time>
      </trkpt>
      <trkpt lat="48.606999" lon="16.686154">
        <ele>233.194069</ele>
        <time>2020-09-10T06:26:40.870Z</time>
      </trkpt>
      <trkpt lat="48.606954" lon="16.686002">
        <ele>233.265511</ele>
        <time>2020-09-10T06:26:42.866Z</time>
      </trkpt>
      <trkpt lat="48.606903" lon="16.685822">
        <ele>233.349516</ele>
        <time>2020-09-10T06:26:44.881Z</time>
      </trkpt>
      <trkpt lat="48.606842" lon="16.685616">
        <ele>233.446342</ele>
        <time>2020-09-10T06:26:46.875Z</time>
      </trkpt>
      <trkpt lat="48.606774" lon="16.685394">
        <ele>233.551296</ele>
        <time>2020-09-10T06:26:48.893Z</time>
      </trkpt>
      <trkpt lat="48.606710" lon="16.685173">
        <ele>233.654793</ele>
        <time>2020-09-10T06:26:50.862Z</time>
      </trkpt>
      <trkpt lat="48.606704" lon="16.684996">
        <ele>233.730822</ele>
        <time>2020-09-10T06:26:52.855Z</time>
      </trkpt>
      <trkpt lat="48.606782" lon="16.684906">
        <ele>233.839135</ele>
        <time>2020-09-10T06:26:54.880Z</time>
      </trkpt>
      <trkpt lat="48.606872" lon="16.684856">
        <ele>233.955608</ele>
        <time>2020-09-10T06:26:56.869Z</time>
      </trkpt>
      <trkpt lat="48.606965" lon="16.684805">
        <ele>234.075780</ele>
        <time>2020-09-10T06:26:58.876Z</time>
      </trkpt>
      <trkpt lat="48.607054" lon="16.684753">
        <ele>234.191682</ele>
        <time>2020-09-10T06:27:00.854Z</time>
      </trkpt>
      <trkpt lat="48.607139" lon="16.684699">
        <ele>234.303678</ele>
        <time>2020-09-10T06:27:02.870Z</time>
      </trkpt>
      <trkpt lat="48.607261" lon="16.684614">
        <ele>234.466851</ele>
        <time>2020-09-10T06:27:05.873Z</time>
      </trkpt>
      <trkpt lat="48.607378" lon="16.684530">
        <ele>234.624182</ele>
        <time>2020-09-10T06:27:08.863Z</time>
      </trkpt>
      <trkpt lat="48.607495" lon="16.684446">
        <ele>234.781512</ele>
        <time>2020-09-10T06:27:11.851Z</time>
      </trkpt>
      <trkpt lat="48.607613" lon="16.684361">
        <ele>234.940284</ele>
        <time>2020-09-10T06:27:14.858Z</time>
      </trkpt>
      <trkpt lat="48.607731" lon="16.684273">
        <ele>235.100108</ele>
        <time>2020-09-10T06:27:17.874Z</time>
      </trkpt>
      <trkpt lat="48.607848" lon="16.684187">
        <ele>235.258134</ele>
        <time>2020-09-10T06:27:20.857Z</time>
      </trkpt>
      <trkpt lat="48.607965" lon="16.684100">
        <ele>235.416512</ele>
        <time>2020-09-10T06:27:23.895Z</time>
      </trkpt>
      <trkpt lat="48.608082" lon="16.684017">
        <ele>235.573499</ele>
        <time>2020-09-10T06:27:26.857Z</time>
      </trkpt>
      <trkpt lat="48.608199" lon="16.683931">
        <ele>235.731525</ele>
        <time>2020-09-10T06:27:29.855Z</time>
      </trkpt>
      <trkpt lat="48.608315" lon="16.683840">
        <ele>235.890268</ele>
        <time>2020-09-10T06:27:32.894Z</time>
      </trkpt>
      <trkpt lat="48.608432" lon="16.683745">
        <ele>235.930488</ele>
        <time>2020-09-10T06:27:35.879Z</time>
      </trkpt>
      <trkpt lat="48.608547" lon="16.683654">
        <ele>235.933383</ele>
        <time>2020-09-10T06:27:38.904Z</time>
      </trkpt>
      <trkpt lat="48.608663" lon="16.683565">
        <ele>235.936284</ele>
        <time>2020-09-10T06:27:41.879Z</time>
      </trkpt>
      <trkpt lat="48.608780" lon="16.683488">
        <ele>235.939129</ele>
        <time>2020-09-10T06:27:44.893Z</time>
      </trkpt>
      <trkpt lat="48.608899" lon="16.683408">
        <ele>235.942034</ele>
        <time>2020-09-10T06:27:47.861Z</time>
      </trkpt>
      <trkpt lat="48.609018" lon="16.683321">
        <ele>235.944982</ele>
        <time>2020-09-10T06:27:50.859Z</time>
      </trkpt>
      <trkpt lat="48.609146" lon="16.683281">
        <ele>235.947897</ele>
        <time>2020-09-10T06:27:53.860Z</time>
      </trkpt>
      <trkpt lat="48.609267" lon="16.683366">
        <ele>235.950872</ele>
        <time>2020-09-10T06:27:56.855Z</time>
      </trkpt>
      <trkpt lat="48.609343" lon="16.683447">
        <ele>235.952946</ele>
        <time>2020-09-10T06:27:58.851Z</time>
      </trkpt>
      <trkpt lat="48.609448" lon="16.683564">
        <ele>235.955854</ele>
        <time>2020-09-10T06:28:01.888Z</time>
      </trkpt>
      <trkpt lat="48.609548" lon="16.683671">
        <ele>235.958586</ele>
        <time>2020-09-10T06:28:04.863Z</time>
      </trkpt>
      <trkpt lat="48.609648" lon="16.683766">
        <ele>235.961220</ele>
        <time>2020-09-10T06:28:07.860Z</time>
      </trkpt>
      <trkpt lat="48.609756" lon="16.683821">
        <ele>235.963762</ele>
        <time>2020-09-10T06:28:10.868Z</time>
      </trkpt>
      <trkpt lat="48.609874" lon="16.683847">
        <ele>235.966421</ele>
        <time>2020-09-10T06:28:13.885Z</time>
      </trkpt>
      <trkpt lat="48.610001" lon="16.683808">
        <ele>235.975489</ele>
        <time>2020-09-10T06:28:16.853Z</time>
      </trkpt>
      <trkpt lat="48.610080" lon="16.683710">
        <ele>235.992223</ele>
        <time>2020-09-10T06:28:18.852Z</time>
      </trkpt>
      <trkpt lat="48.610160" lon="16.683607">
        <ele>236.009431</ele>
        <time>2020-09-10T06:28:20.878Z</time>
      </trkpt>
      <trkpt lat="48.610243" lon="16.683511">
        <ele>236.026545</ele>
        <time>2020-09-10T06:28:22.864Z</time>
      </trkpt>
      <trkpt lat="48.610335" lon="16.683420">
        <ele>236.044549</ele>
        <time>2020-09-10T06:28:24.862Z</time>
      </trkpt>
      <trkpt lat="48.610423" lon="16.683332">
        <ele>236.061828</ele>
        <time>2020-09-10T06:28:26.853Z</time>
      </trkpt>
      <trkpt lat="48.610511" lon="16.683244">
        <ele>236.079106</ele>
        <time>2020-09-10T06:28:28.871Z</time>
      </trkpt>
      <trkpt lat="48.610595" lon="16.683157">
        <ele>236.095781</ele>
        <time>2020-09-10T06:28:30.860Z</time>
      </trkpt>
      <trkpt lat="48.610678" lon="16.683072">
        <ele>236.112198</ele>
        <time>2020-09-10T06:28:32.853Z</time>
      </trkpt>
      <trkpt lat="48.610756" lon="16.682988">
        <ele>236.127881</ele>
        <time>2020-09-10T06:28:34.868Z</time>
      </trkpt>
      <trkpt lat="48.610831" lon="16.682907">
        <ele>236.142976</ele>
        <time>2020-09-10T06:28:36.865Z</time>
      </trkpt>
      <trkpt lat="48.610906" lon="16.682820">
        <ele>236.158456</ele>
        <time>2020-09-10T06:28:38.857Z</time>
      </trkpt>
      <trkpt lat="48.610980" lon="16.682740">
        <ele>236.173354</ele>
        <time>2020-09-10T06:28:40.868Z</time>
      </trkpt>
      <trkpt lat="48.611087" lon="16.682631">
        <ele>236.194484</ele>
        <time>2020-09-10T06:28:43.874Z</time>
      </trkpt>
      <trkpt lat="48.611191" lon="16.682519">
        <ele>236.215394</ele>
        <time>2020-09-10T06:28:46.872Z</time>
      </trkpt>
      <trkpt lat="48.611295" lon="16.682408">
        <ele>236.236242</ele>
        <time>2020-09-10T06:28:49.873Z</time>
      </trkpt>
      <trkpt lat="48.611398" lon="16.682303">
        <ele>236.256586</ele>
        <time>2020-09-10T06:28:52.872Z</time>
      </trkpt>
      <trkpt lat="48.611505" lon="16.682196">
        <ele>236.310325</ele>
        <time>2020-09-10T06:28:55.860Z</time>
      </trkpt>
      <trkpt lat="48.611579" lon="16.682117">
        <ele>236.358268</ele>
        <time>2020-09-10T06:28:57.862Z</time>
      </trkpt>
      <trkpt lat="48.611688" lon="16.682000">
        <ele>236.429016</ele>
        <time>2020-09-10T06:29:00.856Z</time>
      </trkpt>
      <trkpt lat="48.611797" lon="16.681884">
        <ele>236.499562</ele>
        <time>2020-09-10T06:29:03.862Z</time>
      </trkpt>
      <trkpt lat="48.611907" lon="16.681769">
        <ele>236.570341</ele>
        <time>2020-09-10T06:29:06.862Z</time>
      </trkpt>
      <trkpt lat="48.611984" lon="16.681694">
        <ele>236.618819</ele>
        <time>2020-09-10T06:29:08.871Z</time>
      </trkpt>
      <trkpt lat="48.612062" lon="16.681614">
        <ele>236.668702</ele>
        <time>2020-09-10T06:29:10.891Z</time>
      </trkpt>
      <trkpt lat="48.612139" lon="16.681530">
        <ele>236.718954</ele>
        <time>2020-09-10T06:29:12.863Z</time>
      </trkpt>
      <trkpt lat="48.612216" lon="16.681447">
        <ele>236.769003</ele>
        <time>2020-09-10T06:29:14.855Z</time>
      </trkpt>
      <trkpt lat="48.612295" lon="16.681369">
        <ele>236.818939</ele>
        <time>2020-09-10T06:29:16.860Z</time>
      </trkpt>
      <trkpt lat="48.612374" lon="16.681293">
        <ele>236.868497</ele>
        <time>2020-09-10T06:29:18.880Z</time>
      </trkpt>
      <trkpt lat="48.612453" lon="16.681216">
        <ele>236.918243</ele>
        <time>2020-09-10T06:29:20.872Z</time>
      </trkpt>
      <trkpt lat="48.612529" lon="16.681134">
        <ele>236.967657</ele>
        <time>2020-09-10T06:29:22.892Z</time>
      </trkpt>
      <trkpt lat="48.612603" lon="16.681048">
        <ele>237.017053</ele>
        <time>2020-09-10T06:29:24.859Z</time>
      </trkpt>
      <trkpt lat="48.612678" lon="16.680963">
        <ele>237.066659</ele>
        <time>2020-09-10T06:29:26.885Z</time>
      </trkpt>
      <trkpt lat="48.612756" lon="16.680886">
        <ele>237.115961</ele>
        <time>2020-09-10T06:29:28.865Z</time>
      </trkpt>
      <trkpt lat="48.612833" lon="16.680814">
        <ele>237.163878</ele>
        <time>2020-09-10T06:29:30.860Z</time>
      </trkpt>
      <trkpt lat="48.612910" lon="16.680737">
        <ele>237.212737</ele>
        <time>2020-09-10T06:29:32.870Z</time>
      </trkpt>
      <trkpt lat="48.612982" lon="16.680654">
        <ele>237.273568</ele>
        <time>2020-09-10T06:29:34.891Z</time>
      </trkpt>
      <trkpt lat="48.613051" lon="16.680567">
        <ele>237.334558</ele>
        <time>2020-09-10T06:29:36.867Z</time>
      </trkpt>
      <trkpt lat="48.613152" lon="16.680439">
        <ele>237.424020</ele>
        <time>2020-09-10T06:29:39.881Z</time>
      </trkpt>
      <trkpt lat="48.613256" lon="16.680318">
        <ele>237.513103</ele>
        <time>2020-09-10T06:29:42.867Z</time>
      </trkpt>
      <trkpt lat="48.613324" lon="16.680229">
        <ele>237.574156</ele>
        <time>2020-09-10T06:29:44.886Z</time>
      </trkpt>
      <trkpt lat="48.613428" lon="16.680101">
        <ele>237.665189</ele>
        <time>2020-09-10T06:29:47.872Z</time>
      </trkpt>
      <trkpt lat="48.613501" lon="16.680017">
        <ele>237.727464</ele>
        <time>2020-09-10T06:29:49.856Z</time>
      </trkpt>
      <trkpt lat="48.613606" lon="16.679895">
        <ele>237.817359</ele>
        <time>2020-09-10T06:29:52.866Z</time>
      </trkpt>
      <trkpt lat="48.613715" lon="16.679782">
        <ele>237.907078</ele>
        <time>2020-09-10T06:29:55.875Z</time>
      </trkpt>
      <trkpt lat="48.613827" lon="16.679677">
        <ele>237.996542</ele>
        <time>2020-09-10T06:29:58.873Z</time>
      </trkpt>
      <trkpt lat="48.613943" lon="16.679583">
        <ele>238.085890</ele>
        <time>2020-09-10T06:30:01.882Z</time>
      </trkpt>
      <trkpt lat="48.614061" lon="16.679488">
        <ele>238.176647</ele>
        <time>2020-09-10T06:30:04.862Z</time>
      </trkpt>
      <trkpt lat="48.614182" lon="16.679404">
        <ele>238.267038</ele>
        <time>2020-09-10T06:30:07.879Z</time>
      </trkpt>
      <trkpt lat="48.614298" lon="16.679315">
        <ele>238.355348</ele>
        <time>2020-09-10T06:30:10.899Z</time>
      </trkpt>
      <trkpt lat="48.614417" lon="16.679226">
        <ele>238.446450</ele>
        <time>2020-09-10T06:30:13.873Z</time>
      </trkpt>
      <trkpt lat="48.614532" lon="16.679148">
        <ele>238.540917</ele>
        <time>2020-09-10T06:30:16.873Z</time>
      </trkpt>
      <trkpt lat="48.614650" lon="16.679096">
        <ele>238.633040</ele>
        <time>2020-09-10T06:30:19.890Z</time>
      </trkpt>
      <trkpt lat="48.614770" lon="16.679058">
        <ele>238.724936</ele>
        <time>2020-09-10T06:30:22.893Z</time>
      </trkpt>
      <trkpt lat="48.614890" lon="16.679021">
        <ele>238.816731</ele>
        <time>2020-09-10T06:30:25.863Z</time>
      </trkpt>
      <trkpt lat="48.615006" lon="16.678982">
        <ele>238.905800</ele>
        <time>2020-09-10T06:30:28.870Z</time>
      </trkpt>
      <trkpt lat="48.615125" lon="16.678947">
        <ele>238.996666</ele>
        <time>2020-09-10T06:30:31.857Z</time>
      </trkpt>
      <trkpt lat="48.615253" lon="16.678901">
        <ele>239.095279</ele>
        <time>2020-09-10T06:30:34.856Z</time>
      </trkpt>
      <trkpt lat="48.615340" lon="16.678866">
        <ele>239.162756</ele>
        <time>2020-09-10T06:30:36.848Z</time>
      </trkpt>
      <trkpt lat="48.615472" lon="16.678815">
        <ele>239.264873</ele>
        <time>2020-09-10T06:30:39.879Z</time>
      </trkpt>
      <trkpt lat="48.615564" lon="16.678782">
        <ele>239.335743</ele>
        <time>2020-09-10T06:30:41.887Z</time>
      </trkpt>
      <trkpt lat="48.615651" lon="16.678750">
        <ele>239.402854</ele>
        <time>2020-09-10T06:30:43.887Z</time>
      </trkpt>
      <trkpt lat="48.615740" lon="16.678716">
        <ele>239.471658</ele>
        <time>2020-09-10T06:30:45.850Z</time>
      </trkpt>
      <trkpt lat="48.615831" lon="16.678678">
        <ele>239.542418</ele>
        <time>2020-09-10T06:30:47.854Z</time>
      </trkpt>
      <trkpt lat="48.615923" lon="16.678652">
        <ele>239.612569</ele>
        <time>2020-09-10T06:30:49.876Z</time>
      </trkpt>
      <trkpt lat="48.616017" lon="16.678630">
        <ele>239.683865</ele>
        <time>2020-09-10T06:30:51.891Z</time>
      </trkpt>
      <trkpt lat="48.616109" lon="16.678609">
        <ele>239.753604</ele>
        <time>2020-09-10T06:30:53.876Z</time>
      </trkpt>
      <trkpt lat="48.616201" lon="16.678587">
        <ele>239.813414</ele>
        <time>2020-09-10T06:30:55.860Z</time>
      </trkpt>
      <trkpt lat="48.616291" lon="16.678565">
        <ele>239.864265</ele>
        <time>2020-09-10T06:30:57.858Z</time>
      </trkpt>
      <trkpt lat="48.616380" lon="16.678541">
        <ele>239.914689</ele>
        <time>2020-09-10T06:30:59.885Z</time>
      </trkpt>
      <trkpt lat="48.616510" lon="16.678490">
        <ele>239.989599</ele>
        <time>2020-09-10T06:31:02.861Z</time>
      </trkpt>
      <trkpt lat="48.616638" lon="16.678443">
        <ele>240.063068</ele>
        <time>2020-09-10T06:31:05.882Z</time>
      </trkpt>
      <trkpt lat="48.616767" lon="16.678391">
        <ele>240.137531</ele>
        <time>2020-09-10T06:31:08.859Z</time>
      </trkpt>
      <trkpt lat="48.616855" lon="16.678363">
        <ele>240.187690</ele>
        <time>2020-09-10T06:31:10.864Z</time>
      </trkpt>
      <trkpt lat="48.616984" lon="16.678340">
        <ele>240.260141</ele>
        <time>2020-09-10T06:31:13.871Z</time>
      </trkpt>
      <trkpt lat="48.617108" lon="16.678332">
        <ele>240.329367</ele>
        <time>2020-09-10T06:31:16.881Z</time>
      </trkpt>
      <trkpt lat="48.617233" lon="16.678336">
        <ele>240.399105</ele>
        <time>2020-09-10T06:31:19.875Z</time>
      </trkpt>
      <trkpt lat="48.617359" lon="16.678327">
        <ele>240.469463</ele>
        <time>2020-09-10T06:31:22.850Z</time>
      </trkpt>
      <trkpt lat="48.617488" lon="16.678294">
        <ele>240.542437</ele>
        <time>2020-09-10T06:31:25.868Z</time>
      </trkpt>
      <trkpt lat="48.617617" lon="16.678247">
        <ele>240.616448</ele>
        <time>2020-09-10T06:31:28.867Z</time>
      </trkpt>
      <trkpt lat="48.617738" lon="16.678189">
        <ele>240.687246</ele>
        <time>2020-09-10T06:31:31.874Z</time>
      </trkpt>
      <trkpt lat="48.617859" lon="16.678130">
        <ele>240.758156</ele>
        <time>2020-09-10T06:31:34.881Z</time>
      </trkpt>
      <trkpt lat="48.617988" lon="16.678076">
        <ele>240.841923</ele>
        <time>2020-09-10T06:31:37.898Z</time>
      </trkpt>
      <trkpt lat="48.618120" lon="16.678039">
        <ele>240.931874</ele>
        <time>2020-09-10T06:31:40.861Z</time>
      </trkpt>
      <trkpt lat="48.618248" lon="16.677998">
        <ele>241.019541</ele>
        <time>2020-09-10T06:31:43.851Z</time>
      </trkpt>
      <trkpt lat="48.618373" lon="16.677946">
        <ele>241.106406</ele>
        <time>2020-09-10T06:31:46.887Z</time>
      </trkpt>
      <trkpt lat="48.618498" lon="16.677881">
        <ele>241.194971</ele>
        <time>2020-09-10T06:31:49.862Z</time>
      </trkpt>
      <trkpt lat="48.618620" lon="16.677796">
        <ele>241.284970</ele>
        <time>2020-09-10T06:31:52.885Z</time>
      </trkpt>
      <trkpt lat="48.618742" lon="16.677712">
        <ele>241.374784</ele>
        <time>2020-09-10T06:31:55.889Z</time>
      </trkpt>
      <trkpt lat="48.618825" lon="16.677658">
        <ele>241.435323</ele>
        <time>2020-09-10T06:31:57.869Z</time>
      </trkpt>
      <trkpt lat="48.618946" lon="16.677586">
        <ele>241.522445</ele>
        <time>2020-09-10T06:32:00.863Z</time>
      </trkpt>
      <trkpt lat="48.619032" lon="16.677544">
        <ele>241.582997</ele>
        <time>2020-09-10T06:32:02.867Z</time>
      </trkpt>
      <trkpt lat="48.619158" lon="16.677501">
        <ele>241.669544</ele>
        <time>2020-09-10T06:32:05.874Z</time>
      </trkpt>
      <trkpt lat="48.619286" lon="16.677480">
        <ele>241.755812</ele>
        <time>2020-09-10T06:32:08.870Z</time>
      </trkpt>
      <trkpt lat="48.619404" lon="16.677461">
        <ele>241.835324</ele>
        <time>2020-09-10T06:32:11.875Z</time>
      </trkpt>
      <trkpt lat="48.619531" lon="16.677458">
        <ele>241.920429</ele>
        <time>2020-09-10T06:32:14.862Z</time>
      </trkpt>
      <trkpt lat="48.619663" lon="16.677459">
        <ele>242.009785</ele>
        <time>2020-09-10T06:32:17.870Z</time>
      </trkpt>
      <trkpt lat="48.619793" lon="16.677458">
        <ele>242.101796</ele>
        <time>2020-09-10T06:32:20.878Z</time>
      </trkpt>
      <trkpt lat="48.619927" lon="16.677463">
        <ele>242.196664</ele>
        <time>2020-09-10T06:32:23.881Z</time>
      </trkpt>
      <trkpt lat="48.620017" lon="16.677473">
        <ele>242.260535</ele>
        <time>2020-09-10T06:32:25.858Z</time>
      </trkpt>
      <trkpt lat="48.620107" lon="16.677488">
        <ele>242.324619</ele>
        <time>2020-09-10T06:32:27.862Z</time>
      </trkpt>
      <trkpt lat="48.620198" lon="16.677510">
        <ele>242.389842</ele>
        <time>2020-09-10T06:32:29.867Z</time>
      </trkpt>
      <trkpt lat="48.620290" lon="16.677536">
        <ele>242.456083</ele>
        <time>2020-09-10T06:32:31.880Z</time>
      </trkpt>
      <trkpt lat="48.620422" lon="16.677584">
        <ele>242.552168</ele>
        <time>2020-09-10T06:32:34.852Z</time>
      </trkpt>
      <trkpt lat="48.620512" lon="16.677616">
        <ele>242.617603</ele>
        <time>2020-09-10T06:32:36.859Z</time>
      </trkpt>
      <trkpt lat="48.620602" lon="16.677643">
        <ele>242.682542</ele>
        <time>2020-09-10T06:32:38.856Z</time>
      </trkpt>
      <trkpt lat="48.620735" lon="16.677668">
        <ele>242.777398</ele>
        <time>2020-09-10T06:32:41.869Z</time>
      </trkpt>
      <trkpt lat="48.620859" lon="16.677709">
        <ele>242.867232</ele>
        <time>2020-09-10T06:32:44.874Z</time>
      </trkpt>
      <trkpt lat="48.620983" lon="16.677749">
        <ele>242.956968</ele>
        <time>2020-09-10T06:32:47.891Z</time>
      </trkpt>
      <trkpt lat="48.621110" lon="16.677797">
        <ele>243.049616</ele>
        <time>2020-09-10T06:32:50.861Z</time>
      </trkpt>
      <trkpt lat="48.621197" lon="16.677831">
        <ele>243.113213</ele>
        <time>2020-09-10T06:32:52.858Z</time>
      </trkpt>
      <trkpt lat="48.621287" lon="16.677857">
        <ele>243.178063</ele>
        <time>2020-09-10T06:32:54.862Z</time>
      </trkpt>
      <trkpt lat="48.621421" lon="16.677895">
        <ele>243.271734</ele>
        <time>2020-09-10T06:32:57.876Z</time>
      </trkpt>
      <trkpt lat="48.621511" lon="16.677923">
        <ele>243.315983</ele>
        <time>2020-09-10T06:32:59.857Z</time>
      </trkpt>
      <trkpt lat="48.621604" lon="16.677949">
        <ele>243.361528</ele>
        <time>2020-09-10T06:33:01.879Z</time>
      </trkpt>
      <trkpt lat="48.621734" lon="16.677983">
        <ele>243.425063</ele>
        <time>2020-09-10T06:33:04.844Z</time>
      </trkpt>
      <trkpt lat="48.621851" lon="16.678009">
        <ele>243.482013</ele>
        <time>2020-09-10T06:33:07.864Z</time>
      </trkpt>
      <trkpt lat="48.621962" lon="16.678037">
        <ele>243.536206</ele>
        <time>2020-09-10T06:33:10.859Z</time>
      </trkpt>
      <trkpt lat="48.622077" lon="16.678074">
        <ele>243.592827</ele>
        <time>2020-09-10T06:33:13.865Z</time>
      </trkpt>
      <trkpt lat="48.622190" lon="16.678121">
        <ele>243.649265</ele>
        <time>2020-09-10T06:33:16.908Z</time>
      </trkpt>
      <trkpt lat="48.622299" lon="16.678175">
        <ele>243.704501</ele>
        <time>2020-09-10T06:33:19.867Z</time>
      </trkpt>
      <trkpt lat="48.622403" lon="16.678210">
        <ele>243.755809</ele>
        <time>2020-09-10T06:33:22.860Z</time>
      </trkpt>
      <trkpt lat="48.622513" lon="16.678241">
        <ele>243.809695</ele>
        <time>2020-09-10T06:33:25.870Z</time>
      </trkpt>
      <trkpt lat="48.622617" lon="16.678271">
        <ele>243.860682</ele>
        <time>2020-09-10T06:33:28.863Z</time>
      </trkpt>
      <trkpt lat="48.622723" lon="16.678304">
        <ele>243.912799</ele>
        <time>2020-09-10T06:33:31.854Z</time>
      </trkpt>
      <trkpt lat="48.622819" lon="16.678335">
        <ele>243.960072</ele>
        <time>2020-09-10T06:33:34.878Z</time>
      </trkpt>
      <trkpt lat="48.622928" lon="16.678375">
        <ele>244.014087</ele>
        <time>2020-09-10T06:33:37.892Z</time>
      </trkpt>
      <trkpt lat="48.623021" lon="16.678413">
        <ele>244.060479</ele>
        <time>2020-09-10T06:33:40.894Z</time>
      </trkpt>
      <trkpt lat="48.623122" lon="16.678452">
        <ele>244.110678</ele>
        <time>2020-09-10T06:33:43.895Z</time>
      </trkpt>
      <trkpt lat="48.623221" lon="16.678485">
        <ele>244.221519</ele>
        <time>2020-09-10T06:33:46.877Z</time>
      </trkpt>
      <trkpt lat="48.623324" lon="16.678514">
        <ele>244.385445</ele>
        <time>2020-09-10T06:33:49.878Z</time>
      </trkpt>
      <trkpt lat="48.623430" lon="16.678528">
        <ele>244.551928</ele>
        <time>2020-09-10T06:33:52.855Z</time>
      </trkpt>
      <trkpt lat="48.623546" lon="16.678526">
        <ele>244.733439</ele>
        <time>2020-09-10T06:33:55.867Z</time>
      </trkpt>
      <trkpt lat="48.623652" lon="16.678516">
        <ele>244.899613</ele>
        <time>2020-09-10T06:33:58.865Z</time>
      </trkpt>
      <trkpt lat="48.623769" lon="16.678499">
        <ele>245.083519</ele>
        <time>2020-09-10T06:34:01.856Z</time>
      </trkpt>
      <trkpt lat="48.623889" lon="16.678455">
        <ele>245.276713</ele>
        <time>2020-09-10T06:34:04.869Z</time>
      </trkpt>
      <trkpt lat="48.624009" lon="16.678407">
        <ele>245.470922</ele>
        <time>2020-09-10T06:34:07.878Z</time>
      </trkpt>
      <trkpt lat="48.624125" lon="16.678348">
        <ele>245.662403</ele>
        <time>2020-09-10T06:34:10.872Z</time>
      </trkpt>
      <trkpt lat="48.624242" lon="16.678285">
        <ele>245.856716</ele>
        <time>2020-09-10T06:34:13.871Z</time>
      </trkpt>
      <trkpt lat="48.624354" lon="16.678208">
        <ele>246.049203</ele>
        <time>2020-09-10T06:34:16.860Z</time>
      </trkpt>
      <trkpt lat="48.624462" lon="16.678112">
        <ele>246.245193</ele>
        <time>2020-09-10T06:34:19.860Z</time>
      </trkpt>
      <trkpt lat="48.624570" lon="16.678009">
        <ele>246.444948</ele>
        <time>2020-09-10T06:34:22.888Z</time>
      </trkpt>
      <trkpt lat="48.624677" lon="16.677911">
        <ele>246.640655</ele>
        <time>2020-09-10T06:34:25.860Z</time>
      </trkpt>
      <trkpt lat="48.624784" lon="16.677820">
        <ele>246.832711</ele>
        <time>2020-09-10T06:34:28.876Z</time>
      </trkpt>
      <trkpt lat="48.624877" lon="16.677740">
        <ele>247.003912</ele>
        <time>2020-09-10T06:34:31.867Z</time>
      </trkpt>
      <trkpt lat="48.625034" lon="16.677621">
        <ele>247.298082</ele>
        <time>2020-09-10T06:35:24.851Z</time>
      </trkpt>
      <trkpt lat="48.625133" lon="16.677544">
        <ele>247.484560</ele>
        <time>2020-09-10T06:35:27.855Z</time>
      </trkpt>
      <trkpt lat="48.625231" lon="16.677460">
        <ele>247.673248</ele>
        <time>2020-09-10T06:35:30.869Z</time>
      </trkpt>
      <trkpt lat="48.625330" lon="16.677369">
        <ele>247.867305</ele>
        <time>2020-09-10T06:35:33.858Z</time>
      </trkpt>
      <trkpt lat="48.625439" lon="16.677279">
        <ele>248.075327</ele>
        <time>2020-09-10T06:35:36.876Z</time>
      </trkpt>
      <trkpt lat="48.625545" lon="16.677189">
        <ele>248.278952</ele>
        <time>2020-09-10T06:35:39.860Z</time>
      </trkpt>
      <trkpt lat="48.625643" lon="16.677090">
        <ele>248.476356</ele>
        <time>2020-09-10T06:35:42.863Z</time>
      </trkpt>
      <trkpt lat="48.625743" lon="16.676993">
        <ele>248.675352</ele>
        <time>2020-09-10T06:35:45.861Z</time>
      </trkpt>
      <trkpt lat="48.625841" lon="16.676902">
        <ele>248.867978</ele>
        <time>2020-09-10T06:35:48.876Z</time>
      </trkpt>
      <trkpt lat="48.625939" lon="16.676813">
        <ele>249.059455</ele>
        <time>2020-09-10T06:35:51.878Z</time>
      </trkpt>
      <trkpt lat="48.626048" lon="16.676726">
        <ele>249.265906</ele>
        <time>2020-09-10T06:35:54.853Z</time>
      </trkpt>
      <trkpt lat="48.626155" lon="16.676666">
        <ele>249.457069</ele>
        <time>2020-09-10T06:35:57.852Z</time>
      </trkpt>
      <trkpt lat="48.626268" lon="16.676638">
        <ele>249.648890</ele>
        <time>2020-09-10T06:36:00.866Z</time>
      </trkpt>
      <trkpt lat="48.626382" lon="16.676618">
        <ele>249.841143</ele>
        <time>2020-09-10T06:36:03.862Z</time>
      </trkpt>
      <trkpt lat="48.626448" lon="16.676521">
        <ele>249.985087</ele>
        <time>2020-09-10T06:36:06.846Z</time>
      </trkpt>
      <trkpt lat="48.626475" lon="16.676362">
        <ele>250.115395</ele>
        <time>2020-09-10T06:36:09.855Z</time>
      </trkpt>
      <trkpt lat="48.626515" lon="16.676220">
        <ele>250.237919</ele>
        <time>2020-09-10T06:36:12.861Z</time>
      </trkpt>
      <trkpt lat="48.626553" lon="16.676034">
        <ele>250.392451</ele>
        <time>2020-09-10T06:36:15.852Z</time>
      </trkpt>
      <trkpt lat="48.626589" lon="16.675908">
        <ele>250.501410</ele>
        <time>2020-09-10T06:36:17.881Z</time>
      </trkpt>
      <trkpt lat="48.626640" lon="16.675791">
        <ele>250.612658</ele>
        <time>2020-09-10T06:36:19.868Z</time>
      </trkpt>
      <trkpt lat="48.626699" lon="16.675664">
        <ele>250.735876</ele>
        <time>2020-09-10T06:36:21.871Z</time>
      </trkpt>
      <trkpt lat="48.626746" lon="16.675535">
        <ele>250.852797</ele>
        <time>2020-09-10T06:36:23.856Z</time>
      </trkpt>
      <trkpt lat="48.626789" lon="16.675413">
        <ele>250.962544</ele>
        <time>2020-09-10T06:36:25.858Z</time>
      </trkpt>
      <trkpt lat="48.626850" lon="16.675235">
        <ele>251.121696</ele>
        <time>2020-09-10T06:36:28.851Z</time>
      </trkpt>
      <trkpt lat="48.626906" lon="16.675059">
        <ele>251.276742</ele>
        <time>2020-09-10T06:36:31.858Z</time>
      </trkpt>
      <trkpt lat="48.626966" lon="16.674890">
        <ele>251.429015</ele>
        <time>2020-09-10T06:36:34.886Z</time>
      </trkpt>
      <trkpt lat="48.627025" lon="16.674725">
        <ele>251.577923</ele>
        <time>2020-09-10T06:36:37.863Z</time>
      </trkpt>
      <trkpt lat="48.627082" lon="16.674558">
        <ele>251.727111</ele>
        <time>2020-09-10T06:36:40.872Z</time>
      </trkpt>
      <trkpt lat="48.627137" lon="16.674391">
        <ele>251.875213</ele>
        <time>2020-09-10T06:36:43.857Z</time>
      </trkpt>
      <trkpt lat="48.627193" lon="16.674228">
        <ele>252.021030</ele>
        <time>2020-09-10T06:36:46.875Z</time>
      </trkpt>
      <trkpt lat="48.627251" lon="16.674067">
        <ele>252.164747</ele>
        <time>2020-09-10T06:36:49.873Z</time>
      </trkpt>
      <trkpt lat="48.627309" lon="16.673901">
        <ele>252.308028</ele>
        <time>2020-09-10T06:36:52.852Z</time>
      </trkpt>
      <trkpt lat="48.627373" lon="16.673739">
        <ele>252.452047</ele>
        <time>2020-09-10T06:36:55.867Z</time>
      </trkpt>
      <trkpt lat="48.627432" lon="16.673579">
        <ele>252.591855</ele>
        <time>2020-09-10T06:36:58.865Z</time>
      </trkpt>
      <trkpt lat="48.627486" lon="16.673423">
        <ele>252.726233</ele>
        <time>2020-09-10T06:37:01.871Z</time>
      </trkpt>
      <trkpt lat="48.627539" lon="16.673261">
        <ele>252.864167</ele>
        <time>2020-09-10T06:37:04.855Z</time>
      </trkpt>
      <trkpt lat="48.627587" lon="16.673108">
        <ele>252.993402</ele>
        <time>2020-09-10T06:37:07.845Z</time>
      </trkpt>
      <trkpt lat="48.627630" lon="16.672972">
        <ele>253.108444</ele>
        <time>2020-09-10T06:37:10.859Z</time>
      </trkpt>
      <trkpt lat="48.627678" lon="16.672825">
        <ele>253.233558</ele>
        <time>2020-09-10T06:37:13.870Z</time>
      </trkpt>
      <trkpt lat="48.627753" lon="16.672711">
        <ele>253.356298</ele>
        <time>2020-09-10T06:37:16.850Z</time>
      </trkpt>
      <trkpt lat="48.627839" lon="16.672625">
        <ele>253.475313</ele>
        <time>2020-09-10T06:37:19.854Z</time>
      </trkpt>
      <trkpt lat="48.627918" lon="16.672536">
        <ele>253.589027</ele>
        <time>2020-09-10T06:37:22.854Z</time>
      </trkpt>
      <trkpt lat="48.627999" lon="16.672451">
        <ele>253.702835</ele>
        <time>2020-09-10T06:37:25.857Z</time>
      </trkpt>
      <trkpt lat="48.628066" lon="16.672361">
        <ele>253.806275</ele>
        <time>2020-09-10T06:37:28.891Z</time>
      </trkpt>
      <trkpt lat="48.628154" lon="16.672247">
        <ele>253.940026</ele>
        <time>2020-09-10T06:37:32.861Z</time>
      </trkpt>
      <trkpt lat="48.628239" lon="16.672132">
        <ele>254.071672</ele>
        <time>2020-09-10T06:37:36.866Z</time>
      </trkpt>
      <trkpt lat="48.628322" lon="16.672015">
        <ele>254.206681</ele>
        <time>2020-09-10T06:37:40.892Z</time>
      </trkpt>
      <trkpt lat="48.628406" lon="16.671905">
        <ele>254.411238</ele>
        <time>2020-09-10T06:37:44.854Z</time>
      </trkpt>
      <trkpt lat="48.628492" lon="16.671798">
        <ele>254.616255</ele>
        <time>2020-09-10T06:37:48.869Z</time>
      </trkpt>
      <trkpt lat="48.628572" lon="16.671700">
        <ele>254.805787</ele>
        <time>2020-09-10T06:37:52.869Z</time>
      </trkpt>
      <trkpt lat="48.628653" lon="16.671609">
        <ele>254.991553</ele>
        <time>2020-09-10T06:37:56.862Z</time>
      </trkpt>
      <trkpt lat="48.628731" lon="16.671501">
        <ele>255.186237</ele>
        <time>2020-09-10T06:38:00.853Z</time>
      </trkpt>
      <trkpt lat="48.628811" lon="16.671411">
        <ele>255.369799</ele>
        <time>2020-09-10T06:38:04.850Z</time>
      </trkpt>
      <trkpt lat="48.628896" lon="16.671321">
        <ele>255.560828</ele>
        <time>2020-09-10T06:38:08.870Z</time>
      </trkpt>
      <trkpt lat="48.628986" lon="16.671237">
        <ele>255.755539</ele>
        <time>2020-09-10T06:38:12.863Z</time>
      </trkpt>
      <trkpt lat="48.629070" lon="16.671140">
        <ele>255.950109</ele>
        <time>2020-09-10T06:38:16.887Z</time>
      </trkpt>
      <trkpt lat="48.629149" lon="16.671049">
        <ele>256.132931</ele>
        <time>2020-09-10T06:38:20.870Z</time>
      </trkpt>
      <trkpt lat="48.629229" lon="16.670959">
        <ele>256.316492</ele>
        <time>2020-09-10T06:38:24.863Z</time>
      </trkpt>
      <trkpt lat="48.629317" lon="16.670876">
        <ele>256.507431</ele>
        <time>2020-09-10T06:38:28.888Z</time>
      </trkpt>
      <trkpt lat="48.629406" lon="16.670787">
        <ele>256.703865</ele>
        <time>2020-09-10T06:38:32.872Z</time>
      </trkpt>
      <trkpt lat="48.629490" lon="16.670689">
        <ele>256.899176</ele>
        <time>2020-09-10T06:38:36.856Z</time>
      </trkpt>
      <trkpt lat="48.629567" lon="16.670601">
        <ele>257.076857</ele>
        <time>2020-09-10T06:38:40.875Z</time>
      </trkpt>
      <trkpt lat="48.629643" lon="16.670509">
        <ele>257.256071</ele>
        <time>2020-09-10T06:38:44.863Z</time>
      </trkpt>
      <trkpt lat="48.629734" lon="16.670421">
        <ele>257.454930</ele>
        <time>2020-09-10T06:38:48.871Z</time>
      </trkpt>
      <trkpt lat="48.629828" lon="16.670338">
        <ele>257.697426</ele>
        <time>2020-09-10T06:38:52.866Z</time>
      </trkpt>
      <trkpt lat="48.629907" lon="16.670233">
        <ele>257.946250</ele>
        <time>2020-09-10T06:38:56.855Z</time>
      </trkpt>
      <trkpt lat="48.629999" lon="16.670145">
        <ele>258.203808</ele>
        <time>2020-09-10T06:39:00.853Z</time>
      </trkpt>
      <trkpt lat="48.630088" lon="16.670047">
        <ele>258.464278</ele>
        <time>2020-09-10T06:39:04.849Z</time>
      </trkpt>
      <trkpt lat="48.630173" lon="16.669951">
        <ele>258.715273</ele>
        <time>2020-09-10T06:39:08.867Z</time>
      </trkpt>
      <trkpt lat="48.630264" lon="16.669859">
        <ele>258.974256</ele>
        <time>2020-09-10T06:39:12.850Z</time>
      </trkpt>
      <trkpt lat="48.630353" lon="16.669756">
        <ele>259.239403</ele>
        <time>2020-09-10T06:39:16.863Z</time>
      </trkpt>
      <trkpt lat="48.630443" lon="16.669649">
        <ele>259.510252</ele>
        <time>2020-09-10T06:39:20.881Z</time>
      </trkpt>
      <trkpt lat="48.630544" lon="16.669549">
        <ele>259.795875</ele>
        <time>2020-09-10T06:39:24.852Z</time>
      </trkpt>
      <trkpt lat="48.630634" lon="16.669441">
        <ele>260.067693</ele>
        <time>2020-09-10T06:39:28.864Z</time>
      </trkpt>
      <trkpt lat="48.630715" lon="16.669358">
        <ele>260.299184</ele>
        <time>2020-09-10T06:39:31.853Z</time>
      </trkpt>
      <trkpt lat="48.630807" lon="16.669257">
        <ele>260.568155</ele>
        <time>2020-09-10T06:39:35.906Z</time>
      </trkpt>
      <trkpt lat="48.630853" lon="16.669106">
        <ele>260.828187</ele>
        <time>2020-09-10T06:39:39.855Z</time>
      </trkpt>
      <trkpt lat="48.630834" lon="16.668932">
        <ele>261.104000</ele>
        <time>2020-09-10T06:39:43.858Z</time>
      </trkpt>
      <trkpt lat="48.630818" lon="16.668797">
        <ele>261.318499</ele>
        <time>2020-09-10T06:39:46.877Z</time>
      </trkpt>
      <trkpt lat="48.630795" lon="16.668624">
        <ele>261.594478</ele>
        <time>2020-09-10T06:39:50.863Z</time>
      </trkpt>
      <trkpt lat="48.630768" lon="16.668481">
        <ele>261.838862</ele>
        <time>2020-09-10T06:39:53.866Z</time>
      </trkpt>
      <trkpt lat="48.630759" lon="16.668337">
        <ele>262.107299</ele>
        <time>2020-09-10T06:39:56.855Z</time>
      </trkpt>
      <trkpt lat="48.630771" lon="16.668159">
        <ele>262.439357</ele>
        <time>2020-09-10T06:40:00.860Z</time>
      </trkpt>
      <trkpt lat="48.630789" lon="16.668026">
        <ele>262.691309</ele>
        <time>2020-09-10T06:40:03.854Z</time>
      </trkpt>
      <trkpt lat="48.630811" lon="16.667885">
        <ele>262.960180</ele>
        <time>2020-09-10T06:40:06.877Z</time>
      </trkpt>
      <trkpt lat="48.630905" lon="16.667782">
        <ele>263.286083</ele>
        <time>2020-09-10T06:40:10.853Z</time>
      </trkpt>
      <trkpt lat="48.631014" lon="16.667825">
        <ele>263.602393</ele>
        <time>2020-09-10T06:40:13.852Z</time>
      </trkpt>
      <trkpt lat="48.631134" lon="16.667867">
        <ele>263.948257</ele>
        <time>2020-09-10T06:40:16.877Z</time>
      </trkpt>
      <trkpt lat="48.631257" lon="16.667909">
        <ele>264.302334</ele>
        <time>2020-09-10T06:40:19.865Z</time>
      </trkpt>
      <trkpt lat="48.631376" lon="16.667938">
        <ele>264.640798</ele>
        <time>2020-09-10T06:40:22.878Z</time>
      </trkpt>
      <trkpt lat="48.631485" lon="16.667960">
        <ele>264.949587</ele>
        <time>2020-09-10T06:40:25.897Z</time>
      </trkpt>
      <trkpt lat="48.631590" lon="16.667987">
        <ele>265.248660</ele>
        <time>2020-09-10T06:40:28.876Z</time>
      </trkpt>
      <trkpt lat="48.631690" lon="16.668013">
        <ele>265.533581</ele>
        <time>2020-09-10T06:40:31.893Z</time>
      </trkpt>
      <trkpt lat="48.631792" lon="16.668039">
        <ele>265.824038</ele>
        <time>2020-09-10T06:40:34.877Z</time>
      </trkpt>
      <trkpt lat="48.631892" lon="16.668064">
        <ele>266.108650</ele>
        <time>2020-09-10T06:40:37.853Z</time>
      </trkpt>
      <trkpt lat="48.632044" lon="16.668128">
        <ele>266.551691</ele>
        <time>2020-09-10T06:41:08.867Z</time>
      </trkpt>
      <trkpt lat="48.632174" lon="16.668167">
        <ele>266.832353</ele>
        <time>2020-09-10T06:41:11.871Z</time>
      </trkpt>
      <trkpt lat="48.632273" lon="16.668214">
        <ele>266.879763</ele>
        <time>2020-09-10T06:41:13.846Z</time>
      </trkpt>
      <trkpt lat="48.632387" lon="16.668264">
        <ele>266.933996</ele>
        <time>2020-09-10T06:41:15.886Z</time>
      </trkpt>
      <trkpt lat="48.632504" lon="16.668316">
        <ele>266.989715</ele>
        <time>2020-09-10T06:41:17.850Z</time>
      </trkpt>
      <trkpt lat="48.632635" lon="16.668380">
        <ele>267.052615</ele>
        <time>2020-09-10T06:41:19.856Z</time>
      </trkpt>
      <trkpt lat="48.632774" lon="16.668461">
        <ele>267.120674</ele>
        <time>2020-09-10T06:41:21.853Z</time>
      </trkpt>
      <trkpt lat="48.632913" lon="16.668548">
        <ele>267.189406</ele>
        <time>2020-09-10T06:41:23.874Z</time>
      </trkpt>
      <trkpt lat="48.633053" lon="16.668632">
        <ele>267.258221</ele>
        <time>2020-09-10T06:41:25.852Z</time>
      </trkpt>
      <trkpt lat="48.633194" lon="16.668713">
        <ele>267.327134</ele>
        <time>2020-09-10T06:41:27.871Z</time>
      </trkpt>
      <trkpt lat="48.633336" lon="16.668794">
        <ele>267.396475</ele>
        <time>2020-09-10T06:41:29.859Z</time>
      </trkpt>
      <trkpt lat="48.633478" lon="16.668875">
        <ele>267.465815</ele>
        <time>2020-09-10T06:41:31.877Z</time>
      </trkpt>
      <trkpt lat="48.633618" lon="16.668963">
        <ele>267.535085</ele>
        <time>2020-09-10T06:41:33.882Z</time>
      </trkpt>
      <trkpt lat="48.633760" lon="16.669044">
        <ele>267.604425</ele>
        <time>2020-09-10T06:41:35.860Z</time>
      </trkpt>
      <trkpt lat="48.633901" lon="16.669124">
        <ele>267.595254</ele>
        <time>2020-09-10T06:41:37.851Z</time>
      </trkpt>
      <trkpt lat="48.634038" lon="16.669210">
        <ele>267.519480</ele>
        <time>2020-09-10T06:41:39.852Z</time>
      </trkpt>
      <trkpt lat="48.634178" lon="16.669291">
        <ele>267.442907</ele>
        <time>2020-09-10T06:41:41.869Z</time>
      </trkpt>
      <trkpt lat="48.634321" lon="16.669373">
        <ele>267.364782</ele>
        <time>2020-09-10T06:41:43.876Z</time>
      </trkpt>
      <trkpt lat="48.634468" lon="16.669454">
        <ele>267.284858</ele>
        <time>2020-09-10T06:41:45.877Z</time>
      </trkpt>
      <trkpt lat="48.634613" lon="16.669541">
        <ele>267.205170</ele>
        <time>2020-09-10T06:41:47.847Z</time>
      </trkpt>
      <trkpt lat="48.634758" lon="16.669647">
        <ele>267.122901</ele>
        <time>2020-09-10T06:41:49.878Z</time>
      </trkpt>
      <trkpt lat="48.634905" lon="16.669749">
        <ele>267.040283</ele>
        <time>2020-09-10T06:41:51.894Z</time>
      </trkpt>
      <trkpt lat="48.635057" lon="16.669838">
        <ele>266.957019</ele>
        <time>2020-09-10T06:41:53.890Z</time>
      </trkpt>
      <trkpt lat="48.635208" lon="16.669922">
        <ele>266.874828</ele>
        <time>2020-09-10T06:41:55.866Z</time>
      </trkpt>
      <trkpt lat="48.635358" lon="16.670013">
        <ele>266.792267</ele>
        <time>2020-09-10T06:41:57.871Z</time>
      </trkpt>
      <trkpt lat="48.635507" lon="16.670103">
        <ele>266.697067</ele>
        <time>2020-09-10T06:41:59.877Z</time>
      </trkpt>
      <trkpt lat="48.635660" lon="16.670196">
        <ele>266.458429</ele>
        <time>2020-09-10T06:42:01.871Z</time>
      </trkpt>
      <trkpt lat="48.635816" lon="16.670288">
        <ele>266.216106</ele>
        <time>2020-09-10T06:42:03.862Z</time>
      </trkpt>
      <trkpt lat="48.635976" lon="16.670386">
        <ele>265.966285</ele>
        <time>2020-09-10T06:42:05.853Z</time>
      </trkpt>
      <trkpt lat="48.636143" lon="16.670495">
        <ele>265.703057</ele>
        <time>2020-09-10T06:42:07.877Z</time>
      </trkpt>
      <trkpt lat="48.636231" lon="16.670550">
        <ele>265.565257</ele>
        <time>2020-09-10T06:42:08.880Z</time>
      </trkpt>
      <trkpt lat="48.636321" lon="16.670609">
        <ele>265.423300</ele>
        <time>2020-09-10T06:42:09.849Z</time>
      </trkpt>
      <trkpt lat="48.636413" lon="16.670667">
        <ele>265.279054</ele>
        <time>2020-09-10T06:42:10.864Z</time>
      </trkpt>
      <trkpt lat="48.636506" lon="16.670729">
        <ele>265.131969</ele>
        <time>2020-09-10T06:42:11.842Z</time>
      </trkpt>
      <trkpt lat="48.636600" lon="16.670791">
        <ele>264.983560</ele>
        <time>2020-09-10T06:42:12.849Z</time>
      </trkpt>
      <trkpt lat="48.636697" lon="16.670849">
        <ele>264.832607</ele>
        <time>2020-09-10T06:42:13.900Z</time>
      </trkpt>
      <trkpt lat="48.636794" lon="16.670907">
        <ele>264.681655</ele>
        <time>2020-09-10T06:42:14.895Z</time>
      </trkpt>
      <trkpt lat="48.636889" lon="16.670969">
        <ele>264.531917</ele>
        <time>2020-09-10T06:42:15.870Z</time>
      </trkpt>
      <trkpt lat="48.636983" lon="16.671031">
        <ele>264.383508</ele>
        <time>2020-09-10T06:42:16.882Z</time>
      </trkpt>
      <trkpt lat="48.637076" lon="16.671091">
        <ele>264.237184</ele>
        <time>2020-09-10T06:42:17.873Z</time>
      </trkpt>
      <trkpt lat="48.637169" lon="16.671151">
        <ele>264.083833</ele>
        <time>2020-09-10T06:42:18.864Z</time>
      </trkpt>
      <trkpt lat="48.637260" lon="16.671209">
        <ele>263.898096</ele>
        <time>2020-09-10T06:42:19.870Z</time>
      </trkpt>
      <trkpt lat="48.637352" lon="16.671262">
        <ele>263.712925</ele>
        <time>2020-09-10T06:42:20.868Z</time>
      </trkpt>
      <trkpt lat="48.637442" lon="16.671317">
        <ele>263.530349</ele>
        <time>2020-09-10T06:42:21.880Z</time>
      </trkpt>
      <trkpt lat="48.637532" lon="16.671367">
        <ele>263.350009</ele>
        <time>2020-09-10T06:42:22.873Z</time>
      </trkpt>
      <trkpt lat="48.637620" lon="16.671415">
        <ele>263.174053</ele>
        <time>2020-09-10T06:42:23.856Z</time>
      </trkpt>
      <trkpt lat="48.637707" lon="16.671462">
        <ele>263.000288</ele>
        <time>2020-09-10T06:42:24.859Z</time>
      </trkpt>
      <trkpt lat="48.637791" lon="16.671510">
        <ele>262.831392</ele>
        <time>2020-09-10T06:42:25.876Z</time>
      </trkpt>
      <trkpt lat="48.637957" lon="16.671610">
        <ele>262.495310</ele>
        <time>2020-09-10T06:42:27.864Z</time>
      </trkpt>
      <trkpt lat="48.638117" lon="16.671710">
        <ele>262.169686</ele>
        <time>2020-09-10T06:42:29.860Z</time>
      </trkpt>
      <trkpt lat="48.638275" lon="16.671804">
        <ele>261.850341</ele>
        <time>2020-09-10T06:42:31.860Z</time>
      </trkpt>
      <trkpt lat="48.638433" lon="16.671896">
        <ele>261.531897</ele>
        <time>2020-09-10T06:42:33.869Z</time>
      </trkpt>
      <trkpt lat="48.638590" lon="16.671984">
        <ele>261.216969</ele>
        <time>2020-09-10T06:42:35.858Z</time>
      </trkpt>
      <trkpt lat="48.638745" lon="16.672063">
        <ele>260.909317</ele>
        <time>2020-09-10T06:42:37.902Z</time>
      </trkpt>
      <trkpt lat="48.638894" lon="16.672123">
        <ele>260.625522</ele>
        <time>2020-09-10T06:42:39.862Z</time>
      </trkpt>
      <trkpt lat="48.639044" lon="16.672153">
        <ele>260.356786</ele>
        <time>2020-09-10T06:42:41.862Z</time>
      </trkpt>
      <trkpt lat="48.639191" lon="16.672221">
        <ele>260.083770</ele>
        <time>2020-09-10T06:42:43.882Z</time>
      </trkpt>
      <trkpt lat="48.639325" lon="16.672316">
        <ele>259.820946</ele>
        <time>2020-09-10T06:42:45.855Z</time>
      </trkpt>
      <trkpt lat="48.639456" lon="16.672397">
        <ele>259.569602</ele>
        <time>2020-09-10T06:42:47.864Z</time>
      </trkpt>
      <trkpt lat="48.639581" lon="16.672466">
        <ele>259.333278</ele>
        <time>2020-09-10T06:42:49.868Z</time>
      </trkpt>
      <trkpt lat="48.639701" lon="16.672532">
        <ele>259.106503</ele>
        <time>2020-09-10T06:42:51.862Z</time>
      </trkpt>
      <trkpt lat="48.639817" lon="16.672595">
        <ele>258.887606</ele>
        <time>2020-09-10T06:42:53.883Z</time>
      </trkpt>
      <trkpt lat="48.639928" lon="16.672654">
        <ele>258.678649</ele>
        <time>2020-09-10T06:42:55.863Z</time>
      </trkpt>
      <trkpt lat="48.640032" lon="16.672708">
        <ele>258.483362</ele>
        <time>2020-09-10T06:42:57.874Z</time>
      </trkpt>
      <trkpt lat="48.640132" lon="16.672764">
        <ele>258.293979</ele>
        <time>2020-09-10T06:42:59.877Z</time>
      </trkpt>
      <trkpt lat="48.640229" lon="16.672807">
        <ele>258.114456</ele>
        <time>2020-09-10T06:43:01.860Z</time>
      </trkpt>
      <trkpt lat="48.640320" lon="16.672847">
        <ele>257.946148</ele>
        <time>2020-09-10T06:43:03.877Z</time>
      </trkpt>
      <trkpt lat="48.640406" lon="16.672889">
        <ele>257.785645</ele>
        <time>2020-09-10T06:43:05.893Z</time>
      </trkpt>
      <trkpt lat="48.640530" lon="16.672954">
        <ele>257.552567</ele>
        <time>2020-09-10T06:43:08.870Z</time>
      </trkpt>
      <trkpt lat="48.640647" lon="16.673021">
        <ele>257.528605</ele>
        <time>2020-09-10T06:43:11.890Z</time>
      </trkpt>
      <trkpt lat="48.640762" lon="16.673085">
        <ele>257.520372</ele>
        <time>2020-09-10T06:43:14.872Z</time>
      </trkpt>
      <trkpt lat="48.640864" lon="16.673147">
        <ele>257.512986</ele>
        <time>2020-09-10T06:43:17.852Z</time>
      </trkpt>
      <trkpt lat="48.640967" lon="16.673211">
        <ele>257.505504</ele>
        <time>2020-09-10T06:43:20.862Z</time>
      </trkpt>
      <trkpt lat="48.641064" lon="16.673269">
        <ele>257.498496</ele>
        <time>2020-09-10T06:43:23.861Z</time>
      </trkpt>
      <trkpt lat="48.641152" lon="16.673324">
        <ele>257.492099</ele>
        <time>2020-09-10T06:43:26.860Z</time>
      </trkpt>
      <trkpt lat="48.641239" lon="16.673375">
        <ele>257.485830</ele>
        <time>2020-09-10T06:43:29.874Z</time>
      </trkpt>
      <trkpt lat="48.641328" lon="16.673426">
        <ele>257.479436</ele>
        <time>2020-09-10T06:43:32.894Z</time>
      </trkpt>
      <trkpt lat="48.641414" lon="16.673472">
        <ele>257.473307</ele>
        <time>2020-09-10T06:43:35.902Z</time>
      </trkpt>
      <trkpt lat="48.641503" lon="16.673521">
        <ele>257.466943</ele>
        <time>2020-09-10T06:43:38.851Z</time>
      </trkpt>
      <trkpt lat="48.641591" lon="16.673563">
        <ele>257.460743</ele>
        <time>2020-09-10T06:43:41.875Z</time>
      </trkpt>
      <trkpt lat="48.641699" lon="16.673615">
        <ele>257.453128</ele>
        <time>2020-09-10T06:43:45.873Z</time>
      </trkpt>
      <trkpt lat="48.641795" lon="16.673667">
        <ele>257.446277</ele>
        <time>2020-09-10T06:43:49.860Z</time>
      </trkpt>
      <trkpt lat="48.641888" lon="16.673726">
        <ele>257.439501</ele>
        <time>2020-09-10T06:43:53.862Z</time>
      </trkpt>
      <trkpt lat="48.641979" lon="16.673784">
        <ele>257.432867</ele>
        <time>2020-09-10T06:43:57.876Z</time>
      </trkpt>
      <trkpt lat="48.642072" lon="16.673840">
        <ele>257.426141</ele>
        <time>2020-09-10T06:44:01.907Z</time>
      </trkpt>
      <trkpt lat="48.642160" lon="16.673896">
        <ele>257.419727</ele>
        <time>2020-09-10T06:44:05.857Z</time>
      </trkpt>
      <trkpt lat="48.642241" lon="16.673957">
        <ele>257.433563</ele>
        <time>2020-09-10T06:44:09.867Z</time>
      </trkpt>
      <trkpt lat="48.642342" lon="16.674022">
        <ele>257.503663</ele>
        <time>2020-09-10T06:44:14.867Z</time>
      </trkpt>
      <trkpt lat="48.642436" lon="16.674080">
        <ele>257.568499</ele>
        <time>2020-09-10T06:44:19.862Z</time>
      </trkpt>
      <trkpt lat="48.642532" lon="16.674139">
        <ele>257.634677</ele>
        <time>2020-09-10T06:44:24.879Z</time>
      </trkpt>
      <trkpt lat="48.642633" lon="16.674196">
        <ele>257.703525</ele>
        <time>2020-09-10T06:44:29.888Z</time>
      </trkpt>
      <trkpt lat="48.642716" lon="16.674258">
        <ele>257.762644</ele>
        <time>2020-09-10T06:45:32.847Z</time>
      </trkpt>
      <trkpt lat="48.642810" lon="16.674296">
        <ele>257.824787</ele>
        <time>2020-09-10T06:45:35.847Z</time>
      </trkpt>
      <trkpt lat="48.642904" lon="16.674325">
        <ele>257.886059</ele>
        <time>2020-09-10T06:45:37.851Z</time>
      </trkpt>
      <trkpt lat="48.643016" lon="16.674361">
        <ele>257.959190</ele>
        <time>2020-09-10T06:45:39.857Z</time>
      </trkpt>
      <trkpt lat="48.643141" lon="16.674400">
        <ele>258.040707</ele>
        <time>2020-09-10T06:45:41.897Z</time>
      </trkpt>
      <trkpt lat="48.643296" lon="16.674448">
        <ele>258.141757</ele>
        <time>2020-09-10T06:45:43.866Z</time>
      </trkpt>
      <trkpt lat="48.643466" lon="16.674496">
        <ele>258.252210</ele>
        <time>2020-09-10T06:45:45.897Z</time>
      </trkpt>
      <trkpt lat="48.643554" lon="16.674529">
        <ele>258.310115</ele>
        <time>2020-09-10T06:45:46.861Z</time>
      </trkpt>
      <trkpt lat="48.643643" lon="16.674562">
        <ele>258.368641</ele>
        <time>2020-09-10T06:45:47.876Z</time>
      </trkpt>
      <trkpt lat="48.643735" lon="16.674593">
        <ele>258.428841</ele>
        <time>2020-09-10T06:45:48.852Z</time>
      </trkpt>
      <trkpt lat="48.643829" lon="16.674619">
        <ele>258.489873</ele>
        <time>2020-09-10T06:45:49.863Z</time>
      </trkpt>
      <trkpt lat="48.643924" lon="16.674643">
        <ele>258.551389</ele>
        <time>2020-09-10T06:45:50.867Z</time>
      </trkpt>
      <trkpt lat="48.644019" lon="16.674670">
        <ele>258.505517</ele>
        <time>2020-09-10T06:45:51.867Z</time>
      </trkpt>
      <trkpt lat="48.644113" lon="16.674699">
        <ele>258.431632</ele>
        <time>2020-09-10T06:45:52.869Z</time>
      </trkpt>
      <trkpt lat="48.644210" lon="16.674730">
        <ele>258.355278</ele>
        <time>2020-09-10T06:45:53.867Z</time>
      </trkpt>
      <trkpt lat="48.644305" lon="16.674760">
        <ele>258.280535</ele>
        <time>2020-09-10T06:45:54.864Z</time>
      </trkpt>
      <trkpt lat="48.644400" lon="16.674789">
        <ele>258.205895</ele>
        <time>2020-09-10T06:45:55.872Z</time>
      </trkpt>
      <trkpt lat="48.644493" lon="16.674816">
        <ele>258.132963</ele>
        <time>2020-09-10T06:45:56.871Z</time>
      </trkpt>
      <trkpt lat="48.644584" lon="16.674850">
        <ele>258.060772</ele>
        <time>2020-09-10T06:45:57.857Z</time>
      </trkpt>
      <trkpt lat="48.644675" lon="16.674882">
        <ele>257.988820</ele>
        <time>2020-09-10T06:45:58.861Z</time>
      </trkpt>
      <trkpt lat="48.644765" lon="16.674903">
        <ele>257.918685</ele>
        <time>2020-09-10T06:45:59.881Z</time>
      </trkpt>
      <trkpt lat="48.644938" lon="16.674952">
        <ele>257.783131</ele>
        <time>2020-09-10T06:46:01.880Z</time>
      </trkpt>
      <trkpt lat="48.645109" lon="16.675006">
        <ele>257.648595</ele>
        <time>2020-09-10T06:46:03.857Z</time>
      </trkpt>
      <trkpt lat="48.645280" lon="16.675056">
        <ele>257.514459</ele>
        <time>2020-09-10T06:46:05.854Z</time>
      </trkpt>
      <trkpt lat="48.645454" lon="16.675104">
        <ele>257.378241</ele>
        <time>2020-09-10T06:46:07.863Z</time>
      </trkpt>
      <trkpt lat="48.645543" lon="16.675129">
        <ele>257.308525</ele>
        <time>2020-09-10T06:46:08.876Z</time>
      </trkpt>
      <trkpt lat="48.645632" lon="16.675153">
        <ele>257.238899</ele>
        <time>2020-09-10T06:46:09.896Z</time>
      </trkpt>
      <trkpt lat="48.645807" lon="16.675207">
        <ele>257.051415</ele>
        <time>2020-09-10T06:46:11.862Z</time>
      </trkpt>
      <trkpt lat="48.645980" lon="16.675264">
        <ele>256.827454</ele>
        <time>2020-09-10T06:46:13.874Z</time>
      </trkpt>
      <trkpt lat="48.646150" lon="16.675308">
        <ele>256.609292</ele>
        <time>2020-09-10T06:46:15.870Z</time>
      </trkpt>
      <trkpt lat="48.646315" lon="16.675342">
        <ele>256.398650</ele>
        <time>2020-09-10T06:46:17.846Z</time>
      </trkpt>
      <trkpt lat="48.646476" lon="16.675361">
        <ele>256.194376</ele>
        <time>2020-09-10T06:46:19.865Z</time>
      </trkpt>
      <trkpt lat="48.646618" lon="16.675362">
        <ele>256.014752</ele>
        <time>2020-09-10T06:46:21.850Z</time>
      </trkpt>
      <trkpt lat="48.646747" lon="16.675359">
        <ele>255.851555</ele>
        <time>2020-09-10T06:46:23.858Z</time>
      </trkpt>
      <trkpt lat="48.646869" lon="16.675361">
        <ele>255.697223</ele>
        <time>2020-09-10T06:46:25.856Z</time>
      </trkpt>
      <trkpt lat="48.646986" lon="16.675374">
        <ele>255.548826</ele>
        <time>2020-09-10T06:46:27.864Z</time>
      </trkpt>
      <trkpt lat="48.647100" lon="16.675382">
        <ele>255.404467</ele>
        <time>2020-09-10T06:46:29.844Z</time>
      </trkpt>
      <trkpt lat="48.647220" lon="16.675411">
        <ele>255.250751</ele>
        <time>2020-09-10T06:46:31.876Z</time>
      </trkpt>
      <trkpt lat="48.647345" lon="16.675438">
        <ele>255.091031</ele>
        <time>2020-09-10T06:46:33.862Z</time>
      </trkpt>
      <trkpt lat="48.647490" lon="16.675441">
        <ele>254.907597</ele>
        <time>2020-09-10T06:46:35.862Z</time>
      </trkpt>
      <trkpt lat="48.647643" lon="16.675455">
        <ele>254.898548</ele>
        <time>2020-09-10T06:46:37.855Z</time>
      </trkpt>
      <trkpt lat="48.647783" lon="16.675462">
        <ele>254.893575</ele>
        <time>2020-09-10T06:46:39.860Z</time>
      </trkpt>
      <trkpt lat="48.647895" lon="16.675468">
        <ele>254.889596</ele>
        <time>2020-09-10T06:46:42.865Z</time>
      </trkpt>
      <trkpt lat="48.647795" lon="16.675414">
        <ele>254.885826</ele>
        <time>2020-09-10T06:46:50.876Z</time>
      </trkpt>
      <trkpt lat="48.647695" lon="16.675410">
        <ele>254.882275</ele>
        <time>2020-09-10T06:46:52.855Z</time>
      </trkpt>
      <trkpt lat="48.647597" lon="16.675408">
        <ele>254.878795</ele>
        <time>2020-09-10T06:46:54.865Z</time>
      </trkpt>
      <trkpt lat="48.647465" lon="16.675391">
        <ele>254.874091</ele>
        <time>2020-09-10T06:46:57.876Z</time>
      </trkpt>
      <trkpt lat="48.647334" lon="16.675381">
        <ele>254.869435</ele>
        <time>2020-09-10T06:47:00.888Z</time>
      </trkpt>
      <trkpt lat="48.647242" lon="16.675383">
        <ele>254.866168</ele>
        <time>2020-09-10T06:47:02.858Z</time>
      </trkpt>
      <trkpt lat="48.647120" lon="16.675380">
        <ele>254.861836</ele>
        <time>2020-09-10T06:47:05.856Z</time>
      </trkpt>
      <trkpt lat="48.646998" lon="16.675363">
        <ele>254.857486</ele>
        <time>2020-09-10T06:47:08.888Z</time>
      </trkpt>
      <trkpt lat="48.646864" lon="16.675345">
        <ele>254.852710</ele>
        <time>2020-09-10T06:47:11.856Z</time>
      </trkpt>
      <trkpt lat="48.646746" lon="16.675335">
        <ele>254.848514</ele>
        <time>2020-09-10T06:47:14.875Z</time>
      </trkpt>
      <trkpt lat="48.646631" lon="16.675322">
        <ele>254.844420</ele>
        <time>2020-09-10T06:47:17.897Z</time>
      </trkpt>
      <trkpt lat="48.646538" lon="16.675308">
        <ele>254.841102</ele>
        <time>2020-09-10T06:47:20.852Z</time>
      </trkpt>
      <trkpt lat="48.646443" lon="16.675407">
        <ele>254.789744</ele>
        <time>2020-09-10T06:47:24.864Z</time>
      </trkpt>
      <trkpt lat="48.646415" lon="16.675547">
        <ele>254.732628</ele>
        <time>2020-09-10T06:47:34.907Z</time>
      </trkpt>
      <trkpt lat="48.646374" lon="16.675731">
        <ele>254.656804</ele>
        <time>2020-09-10T06:47:38.843Z</time>
      </trkpt>
      <trkpt lat="48.646325" lon="16.675884">
        <ele>254.590413</ele>
        <time>2020-09-10T06:47:41.860Z</time>
      </trkpt>
      <trkpt lat="48.646288" lon="16.676064">
        <ele>254.516804</ele>
        <time>2020-09-10T06:47:44.863Z</time>
      </trkpt>
      <trkpt lat="48.646244" lon="16.676255">
        <ele>254.437820</ele>
        <time>2020-09-10T06:47:47.880Z</time>
      </trkpt>
      <trkpt lat="48.646211" lon="16.676386">
        <ele>254.383076</ele>
        <time>2020-09-10T06:47:49.884Z</time>
      </trkpt>
      <trkpt lat="48.646180" lon="16.676525">
        <ele>254.325791</ele>
        <time>2020-09-10T06:47:51.849Z</time>
      </trkpt>
      <trkpt lat="48.646149" lon="16.676673">
        <ele>254.265166</ele>
        <time>2020-09-10T06:47:53.852Z</time>
      </trkpt>
      <trkpt lat="48.646112" lon="16.676824">
        <ele>254.202280</ele>
        <time>2020-09-10T06:47:55.876Z</time>
      </trkpt>
      <trkpt lat="48.646071" lon="16.676988">
        <ele>254.133810</ele>
        <time>2020-09-10T06:47:57.861Z</time>
      </trkpt>
      <trkpt lat="48.646023" lon="16.677157">
        <ele>254.061981</ele>
        <time>2020-09-10T06:47:59.869Z</time>
      </trkpt>
      <trkpt lat="48.645980" lon="16.677324">
        <ele>253.991994</ele>
        <time>2020-09-10T06:48:01.858Z</time>
      </trkpt>
      <trkpt lat="48.645942" lon="16.677493">
        <ele>253.922286</ele>
        <time>2020-09-10T06:48:03.888Z</time>
      </trkpt>
      <trkpt lat="48.645899" lon="16.677673">
        <ele>253.847547</ele>
        <time>2020-09-10T06:48:05.853Z</time>
      </trkpt>
      <trkpt lat="48.645857" lon="16.677848">
        <ele>253.771657</ele>
        <time>2020-09-10T06:48:07.875Z</time>
      </trkpt>
      <trkpt lat="48.645815" lon="16.678026">
        <ele>253.590350</ele>
        <time>2020-09-10T06:48:09.885Z</time>
      </trkpt>
      <trkpt lat="48.645768" lon="16.678214">
        <ele>253.397533</ele>
        <time>2020-09-10T06:48:11.866Z</time>
      </trkpt>
      <trkpt lat="48.645715" lon="16.678402">
        <ele>253.201464</ele>
        <time>2020-09-10T06:48:13.868Z</time>
      </trkpt>
      <trkpt lat="48.645664" lon="16.678598">
        <ele>252.999396</ele>
        <time>2020-09-10T06:48:15.857Z</time>
      </trkpt>
      <trkpt lat="48.645610" lon="16.678793">
        <ele>252.796577</ele>
        <time>2020-09-10T06:48:17.886Z</time>
      </trkpt>
      <trkpt lat="48.645564" lon="16.678989">
        <ele>252.597055</ele>
        <time>2020-09-10T06:48:19.855Z</time>
      </trkpt>
      <trkpt lat="48.645519" lon="16.679178">
        <ele>252.404343</ele>
        <time>2020-09-10T06:48:21.863Z</time>
      </trkpt>
      <trkpt lat="48.645477" lon="16.679360">
        <ele>252.219417</ele>
        <time>2020-09-10T06:48:23.860Z</time>
      </trkpt>
      <trkpt lat="48.645436" lon="16.679542">
        <ele>252.034964</ele>
        <time>2020-09-10T06:48:25.858Z</time>
      </trkpt>
      <trkpt lat="48.645393" lon="16.679721">
        <ele>251.852260</ele>
        <time>2020-09-10T06:48:27.897Z</time>
      </trkpt>
      <trkpt lat="48.645352" lon="16.679902">
        <ele>251.668714</ele>
        <time>2020-09-10T06:48:29.873Z</time>
      </trkpt>
      <trkpt lat="48.645304" lon="16.680078">
        <ele>251.486068</ele>
        <time>2020-09-10T06:48:31.864Z</time>
      </trkpt>
      <trkpt lat="48.645256" lon="16.680256">
        <ele>251.301646</ele>
        <time>2020-09-10T06:48:33.863Z</time>
      </trkpt>
      <trkpt lat="48.645204" lon="16.680433">
        <ele>251.128523</ele>
        <time>2020-09-10T06:48:35.882Z</time>
      </trkpt>
      <trkpt lat="48.645163" lon="16.680618">
        <ele>250.988992</ele>
        <time>2020-09-10T06:48:37.886Z</time>
      </trkpt>
      <trkpt lat="48.645122" lon="16.680805">
        <ele>250.848105</ele>
        <time>2020-09-10T06:48:39.857Z</time>
      </trkpt>
      <trkpt lat="48.645078" lon="16.680995">
        <ele>250.704139</ele>
        <time>2020-09-10T06:48:41.857Z</time>
      </trkpt>
      <trkpt lat="48.645031" lon="16.681186">
        <ele>250.558397</ele>
        <time>2020-09-10T06:48:43.863Z</time>
      </trkpt>
      <trkpt lat="48.644983" lon="16.681377">
        <ele>250.412274</ele>
        <time>2020-09-10T06:48:45.879Z</time>
      </trkpt>
      <trkpt lat="48.644934" lon="16.681567">
        <ele>250.266428</ele>
        <time>2020-09-10T06:48:47.863Z</time>
      </trkpt>
      <trkpt lat="48.644885" lon="16.681760">
        <ele>250.118582</ele>
        <time>2020-09-10T06:48:49.863Z</time>
      </trkpt>
      <trkpt lat="48.644839" lon="16.681954">
        <ele>249.971196</ele>
        <time>2020-09-10T06:48:51.870Z</time>
      </trkpt>
      <trkpt lat="48.644798" lon="16.682151">
        <ele>249.823504</ele>
        <time>2020-09-10T06:48:53.870Z</time>
      </trkpt>
      <trkpt lat="48.644751" lon="16.682341">
        <ele>249.678431</ele>
        <time>2020-09-10T06:48:55.853Z</time>
      </trkpt>
      <trkpt lat="48.644703" lon="16.682527">
        <ele>249.535643</ele>
        <time>2020-09-10T06:48:57.861Z</time>
      </trkpt>
      <trkpt lat="48.644666" lon="16.682712">
        <ele>249.397427</ele>
        <time>2020-09-10T06:48:59.862Z</time>
      </trkpt>
      <trkpt lat="48.644625" lon="16.682890">
        <ele>249.262632</ele>
        <time>2020-09-10T06:49:01.896Z</time>
      </trkpt>
      <trkpt lat="48.644581" lon="16.683062">
        <ele>249.154816</ele>
        <time>2020-09-10T06:49:03.870Z</time>
      </trkpt>
      <trkpt lat="48.644535" lon="16.683235">
        <ele>249.057795</ele>
        <time>2020-09-10T06:49:05.880Z</time>
      </trkpt>
      <trkpt lat="48.644492" lon="16.683411">
        <ele>248.960169</ele>
        <time>2020-09-10T06:49:07.864Z</time>
      </trkpt>
      <trkpt lat="48.644454" lon="16.683588">
        <ele>248.863342</ele>
        <time>2020-09-10T06:49:09.858Z</time>
      </trkpt>
      <trkpt lat="48.644415" lon="16.683765">
        <ele>248.766270</ele>
        <time>2020-09-10T06:49:11.872Z</time>
      </trkpt>
      <trkpt lat="48.644377" lon="16.683947">
        <ele>248.666966</ele>
        <time>2020-09-10T06:49:13.857Z</time>
      </trkpt>
      <trkpt lat="48.644335" lon="16.684126">
        <ele>248.568140</ele>
        <time>2020-09-10T06:49:15.852Z</time>
      </trkpt>
      <trkpt lat="48.644281" lon="16.684295">
        <ele>248.470473</ele>
        <time>2020-09-10T06:49:17.867Z</time>
      </trkpt>
      <trkpt lat="48.644236" lon="16.684470">
        <ele>248.372773</ele>
        <time>2020-09-10T06:49:19.889Z</time>
      </trkpt>
      <trkpt lat="48.644196" lon="16.684651">
        <ele>248.273477</ele>
        <time>2020-09-10T06:49:21.852Z</time>
      </trkpt>
      <trkpt lat="48.644153" lon="16.684833">
        <ele>248.172916</ele>
        <time>2020-09-10T06:49:23.861Z</time>
      </trkpt>
      <trkpt lat="48.644103" lon="16.685015">
        <ele>248.070368</ele>
        <time>2020-09-10T06:49:25.882Z</time>
      </trkpt>
      <trkpt lat="48.644056" lon="16.685194">
        <ele>247.970155</ele>
        <time>2020-09-10T06:49:27.852Z</time>
      </trkpt>
      <trkpt lat="48.644009" lon="16.685371">
        <ele>247.870909</ele>
        <time>2020-09-10T06:49:29.854Z</time>
      </trkpt>
      <trkpt lat="48.643957" lon="16.685544">
        <ele>247.737853</ele>
        <time>2020-09-10T06:49:31.908Z</time>
      </trkpt>
      <trkpt lat="48.643904" lon="16.685717">
        <ele>247.528591</ele>
        <time>2020-09-10T06:49:33.870Z</time>
      </trkpt>
      <trkpt lat="48.643850" lon="16.685888">
        <ele>247.320607</ele>
        <time>2020-09-10T06:49:35.857Z</time>
      </trkpt>
      <trkpt lat="48.643793" lon="16.686052">
        <ele>247.117256</ele>
        <time>2020-09-10T06:49:37.884Z</time>
      </trkpt>
      <trkpt lat="48.643744" lon="16.686213">
        <ele>246.922734</ele>
        <time>2020-09-10T06:49:39.867Z</time>
      </trkpt>
      <trkpt lat="48.643705" lon="16.686357">
        <ele>246.751950</ele>
        <time>2020-09-10T06:49:41.875Z</time>
      </trkpt>
      <trkpt lat="48.643667" lon="16.686482">
        <ele>246.600953</ele>
        <time>2020-09-10T06:49:43.877Z</time>
      </trkpt>
      <trkpt lat="48.643617" lon="16.686645">
        <ele>246.403742</ele>
        <time>2020-09-10T06:49:46.881Z</time>
      </trkpt>
      <trkpt lat="48.643566" lon="16.686791">
        <ele>246.222510</ele>
        <time>2020-09-10T06:49:49.875Z</time>
      </trkpt>
      <trkpt lat="48.643518" lon="16.686922">
        <ele>246.058127</ele>
        <time>2020-09-10T06:49:52.886Z</time>
      </trkpt>
      <trkpt lat="48.643463" lon="16.687077">
        <ele>245.865054</ele>
        <time>2020-09-10T06:49:56.862Z</time>
      </trkpt>
      <trkpt lat="48.643424" lon="16.687235">
        <ele>245.679962</ele>
        <time>2020-09-10T06:50:00.864Z</time>
      </trkpt>
      <trkpt lat="48.643395" lon="16.687380">
        <ele>245.513709</ele>
        <time>2020-09-10T06:50:05.860Z</time>
      </trkpt>
      <trkpt lat="48.643366" lon="16.687513">
        <ele>245.360014</ele>
        <time>2020-09-10T06:50:48.878Z</time>
      </trkpt>
      <trkpt lat="48.643317" lon="16.687718">
        <ele>245.120779</ele>
        <time>2020-09-10T06:50:51.849Z</time>
      </trkpt>
      <trkpt lat="48.643274" lon="16.687914">
        <ele>244.894143</ele>
        <time>2020-09-10T06:50:53.871Z</time>
      </trkpt>
      <trkpt lat="48.643216" lon="16.688130">
        <ele>244.614131</ele>
        <time>2020-09-10T06:50:55.863Z</time>
      </trkpt>
      <trkpt lat="48.643154" lon="16.688351">
        <ele>244.314759</ele>
        <time>2020-09-10T06:50:57.867Z</time>
      </trkpt>
      <trkpt lat="48.643082" lon="16.688577">
        <ele>244.001917</ele>
        <time>2020-09-10T06:50:59.842Z</time>
      </trkpt>
      <trkpt lat="48.642998" lon="16.688811">
        <ele>243.669866</ele>
        <time>2020-09-10T06:51:01.860Z</time>
      </trkpt>
      <trkpt lat="48.642957" lon="16.688934">
        <ele>243.498088</ele>
        <time>2020-09-10T06:51:02.867Z</time>
      </trkpt>
      <trkpt lat="48.642916" lon="16.689060">
        <ele>243.322961</ele>
        <time>2020-09-10T06:51:03.870Z</time>
      </trkpt>
      <trkpt lat="48.642886" lon="16.689192">
        <ele>243.148907</ele>
        <time>2020-09-10T06:51:04.862Z</time>
      </trkpt>
      <trkpt lat="48.642854" lon="16.689325">
        <ele>242.972418</ele>
        <time>2020-09-10T06:51:05.859Z</time>
      </trkpt>
      <trkpt lat="48.642814" lon="16.689452">
        <ele>242.796992</ele>
        <time>2020-09-10T06:51:06.882Z</time>
      </trkpt>
      <trkpt lat="48.642773" lon="16.689576">
        <ele>242.624099</ele>
        <time>2020-09-10T06:51:07.861Z</time>
      </trkpt>
      <trkpt lat="48.642734" lon="16.689700">
        <ele>242.452861</ele>
        <time>2020-09-10T06:51:08.876Z</time>
      </trkpt>
      <trkpt lat="48.642663" lon="16.689944">
        <ele>242.120423</ele>
        <time>2020-09-10T06:51:10.855Z</time>
      </trkpt>
      <trkpt lat="48.642593" lon="16.690183">
        <ele>241.794449</ele>
        <time>2020-09-10T06:51:12.888Z</time>
      </trkpt>
      <trkpt lat="48.642525" lon="16.690411">
        <ele>241.482537</ele>
        <time>2020-09-10T06:51:14.878Z</time>
      </trkpt>
      <trkpt lat="48.642460" lon="16.690633">
        <ele>241.317954</ele>
        <time>2020-09-10T06:51:16.851Z</time>
      </trkpt>
      <trkpt lat="48.642398" lon="16.690853">
        <ele>241.190313</ele>
        <time>2020-09-10T06:51:18.885Z</time>
      </trkpt>
      <trkpt lat="48.642333" lon="16.691066">
        <ele>241.065102</ele>
        <time>2020-09-10T06:51:20.864Z</time>
      </trkpt>
      <trkpt lat="48.642269" lon="16.691273">
        <ele>240.943136</ele>
        <time>2020-09-10T06:51:22.874Z</time>
      </trkpt>
      <trkpt lat="48.642207" lon="16.691479">
        <ele>240.822331</ele>
        <time>2020-09-10T06:51:24.869Z</time>
      </trkpt>
      <trkpt lat="48.642148" lon="16.691683">
        <ele>240.703488</ele>
        <time>2020-09-10T06:51:26.863Z</time>
      </trkpt>
      <trkpt lat="48.642090" lon="16.691886">
        <ele>240.585457</ele>
        <time>2020-09-10T06:51:28.863Z</time>
      </trkpt>
      <trkpt lat="48.642033" lon="16.692085">
        <ele>240.469706</ele>
        <time>2020-09-10T06:51:30.863Z</time>
      </trkpt>
      <trkpt lat="48.641975" lon="16.692278">
        <ele>240.356554</ele>
        <time>2020-09-10T06:51:32.864Z</time>
      </trkpt>
      <trkpt lat="48.641918" lon="16.692470">
        <ele>240.244220</ele>
        <time>2020-09-10T06:51:34.866Z</time>
      </trkpt>
      <trkpt lat="48.641866" lon="16.692658">
        <ele>240.135452</ele>
        <time>2020-09-10T06:51:36.878Z</time>
      </trkpt>
      <trkpt lat="48.641809" lon="16.692836">
        <ele>240.029889</ele>
        <time>2020-09-10T06:51:38.867Z</time>
      </trkpt>
      <trkpt lat="48.641754" lon="16.693014">
        <ele>239.931726</ele>
        <time>2020-09-10T06:51:40.858Z</time>
      </trkpt>
      <trkpt lat="48.641707" lon="16.693192">
        <ele>239.845155</ele>
        <time>2020-09-10T06:51:42.875Z</time>
      </trkpt>
      <trkpt lat="48.641659" lon="16.693363">
        <ele>239.761247</ele>
        <time>2020-09-10T06:51:44.875Z</time>
      </trkpt>
      <trkpt lat="48.641608" lon="16.693526">
        <ele>239.679795</ele>
        <time>2020-09-10T06:51:46.869Z</time>
      </trkpt>
      <trkpt lat="48.641557" lon="16.693697">
        <ele>239.595063</ele>
        <time>2020-09-10T06:51:48.862Z</time>
      </trkpt>
      <trkpt lat="48.641506" lon="16.693872">
        <ele>239.508682</ele>
        <time>2020-09-10T06:51:50.867Z</time>
      </trkpt>
      <trkpt lat="48.641451" lon="16.694043">
        <ele>239.422789</ele>
        <time>2020-09-10T06:51:52.865Z</time>
      </trkpt>
      <trkpt lat="48.641398" lon="16.694214">
        <ele>239.337486</ele>
        <time>2020-09-10T06:51:54.867Z</time>
      </trkpt>
      <trkpt lat="48.641346" lon="16.694387">
        <ele>239.251649</ele>
        <time>2020-09-10T06:51:56.878Z</time>
      </trkpt>
      <trkpt lat="48.641298" lon="16.694563">
        <ele>239.165657</ele>
        <time>2020-09-10T06:51:58.881Z</time>
      </trkpt>
      <trkpt lat="48.641246" lon="16.694739">
        <ele>239.078585</ele>
        <time>2020-09-10T06:52:00.852Z</time>
      </trkpt>
      <trkpt lat="48.641193" lon="16.694916">
        <ele>238.990821</ele>
        <time>2020-09-10T06:52:02.861Z</time>
      </trkpt>
      <trkpt lat="48.641144" lon="16.695094">
        <ele>238.903732</ele>
        <time>2020-09-10T06:52:04.865Z</time>
      </trkpt>
      <trkpt lat="48.641094" lon="16.695271">
        <ele>238.816794</ele>
        <time>2020-09-10T06:52:06.876Z</time>
      </trkpt>
      <trkpt lat="48.641038" lon="16.695442">
        <ele>238.733037</ele>
        <time>2020-09-10T06:52:08.887Z</time>
      </trkpt>
      <trkpt lat="48.640985" lon="16.695615">
        <ele>238.671116</ele>
        <time>2020-09-10T06:52:10.875Z</time>
      </trkpt>
      <trkpt lat="48.640936" lon="16.695787">
        <ele>238.610295</ele>
        <time>2020-09-10T06:52:12.889Z</time>
      </trkpt>
      <trkpt lat="48.640889" lon="16.695959">
        <ele>238.549856</ele>
        <time>2020-09-10T06:52:14.883Z</time>
      </trkpt>
      <trkpt lat="48.640837" lon="16.696125">
        <ele>238.490202</ele>
        <time>2020-09-10T06:52:16.871Z</time>
      </trkpt>
      <trkpt lat="48.640789" lon="16.696292">
        <ele>238.431066</ele>
        <time>2020-09-10T06:52:18.875Z</time>
      </trkpt>
      <trkpt lat="48.640741" lon="16.696459">
        <ele>238.371929</ele>
        <time>2020-09-10T06:52:20.857Z</time>
      </trkpt>
      <trkpt lat="48.640690" lon="16.696625">
        <ele>238.312484</ele>
        <time>2020-09-10T06:52:22.869Z</time>
      </trkpt>
      <trkpt lat="48.640638" lon="16.696790">
        <ele>238.253123</ele>
        <time>2020-09-10T06:52:24.876Z</time>
      </trkpt>
      <trkpt lat="48.640587" lon="16.696959">
        <ele>238.192793</ele>
        <time>2020-09-10T06:52:26.865Z</time>
      </trkpt>
      <trkpt lat="48.640536" lon="16.697130">
        <ele>238.131872</ele>
        <time>2020-09-10T06:52:28.856Z</time>
      </trkpt>
      <trkpt lat="48.640482" lon="16.697296">
        <ele>238.071790</ele>
        <time>2020-09-10T06:52:30.907Z</time>
      </trkpt>
      <trkpt lat="48.640435" lon="16.697464">
        <ele>238.012549</ele>
        <time>2020-09-10T06:52:32.855Z</time>
      </trkpt>
      <trkpt lat="48.640387" lon="16.697633">
        <ele>237.952816</ele>
        <time>2020-09-10T06:52:34.874Z</time>
      </trkpt>
      <trkpt lat="48.640328" lon="16.697797">
        <ele>237.892180</ele>
        <time>2020-09-10T06:52:36.875Z</time>
      </trkpt>
      <trkpt lat="48.640275" lon="16.697966">
        <ele>237.838506</ele>
        <time>2020-09-10T06:52:38.872Z</time>
      </trkpt>
      <trkpt lat="48.640228" lon="16.698138">
        <ele>237.795916</ele>
        <time>2020-09-10T06:52:40.873Z</time>
      </trkpt>
      <trkpt lat="48.640179" lon="16.698307">
        <ele>237.753685</ele>
        <time>2020-09-10T06:52:42.872Z</time>
      </trkpt>
      <trkpt lat="48.640130" lon="16.698476">
        <ele>237.711455</ele>
        <time>2020-09-10T06:52:44.870Z</time>
      </trkpt>
      <trkpt lat="48.640076" lon="16.698646">
        <ele>237.668293</ele>
        <time>2020-09-10T06:52:46.857Z</time>
      </trkpt>
      <trkpt lat="48.640024" lon="16.698820">
        <ele>237.624594</ele>
        <time>2020-09-10T06:52:48.879Z</time>
      </trkpt>
      <trkpt lat="48.639978" lon="16.698995">
        <ele>237.581497</ele>
        <time>2020-09-10T06:52:50.896Z</time>
      </trkpt>
      <trkpt lat="48.639926" lon="16.699167">
        <ele>237.538215</ele>
        <time>2020-09-10T06:52:52.866Z</time>
      </trkpt>
      <trkpt lat="48.639875" lon="16.699342">
        <ele>237.494449</ele>
        <time>2020-09-10T06:52:54.869Z</time>
      </trkpt>
      <trkpt lat="48.639821" lon="16.699520">
        <ele>237.449630</ele>
        <time>2020-09-10T06:52:56.858Z</time>
      </trkpt>
      <trkpt lat="48.639767" lon="16.699700">
        <ele>237.404395</ele>
        <time>2020-09-10T06:52:58.879Z</time>
      </trkpt>
      <trkpt lat="48.639710" lon="16.699877">
        <ele>237.359338</ele>
        <time>2020-09-10T06:53:00.881Z</time>
      </trkpt>
      <trkpt lat="48.639655" lon="16.700054">
        <ele>237.314581</ele>
        <time>2020-09-10T06:53:02.898Z</time>
      </trkpt>
      <trkpt lat="48.639607" lon="16.700238">
        <ele>237.269314</ele>
        <time>2020-09-10T06:53:04.881Z</time>
      </trkpt>
      <trkpt lat="48.639571" lon="16.700427">
        <ele>237.222921</ele>
        <time>2020-09-10T06:53:06.868Z</time>
      </trkpt>
      <trkpt lat="48.639556" lon="16.700617">
        <ele>237.171763</ele>
        <time>2020-09-10T06:53:08.852Z</time>
      </trkpt>
      <trkpt lat="48.639561" lon="16.700806">
        <ele>237.121192</ele>
        <time>2020-09-10T06:53:10.874Z</time>
      </trkpt>
      <trkpt lat="48.639564" lon="16.700994">
        <ele>237.070915</ele>
        <time>2020-09-10T06:53:12.861Z</time>
      </trkpt>
      <trkpt lat="48.639563" lon="16.701182">
        <ele>237.020651</ele>
        <time>2020-09-10T06:53:14.885Z</time>
      </trkpt>
      <trkpt lat="48.639562" lon="16.701369">
        <ele>236.970654</ele>
        <time>2020-09-10T06:53:16.880Z</time>
      </trkpt>
      <trkpt lat="48.639556" lon="16.701554">
        <ele>236.921134</ele>
        <time>2020-09-10T06:53:18.871Z</time>
      </trkpt>
      <trkpt lat="48.639552" lon="16.701739">
        <ele>236.871647</ele>
        <time>2020-09-10T06:53:20.849Z</time>
      </trkpt>
      <trkpt lat="48.639551" lon="16.701924">
        <ele>236.822185</ele>
        <time>2020-09-10T06:53:22.851Z</time>
      </trkpt>
      <trkpt lat="48.639550" lon="16.702105">
        <ele>236.773792</ele>
        <time>2020-09-10T06:53:24.855Z</time>
      </trkpt>
      <trkpt lat="48.639556" lon="16.702279">
        <ele>236.727209</ele>
        <time>2020-09-10T06:53:26.866Z</time>
      </trkpt>
      <trkpt lat="48.639555" lon="16.702450">
        <ele>236.681490</ele>
        <time>2020-09-10T06:53:28.870Z</time>
      </trkpt>
      <trkpt lat="48.639553" lon="16.702621">
        <ele>236.635765</ele>
        <time>2020-09-10T06:53:30.871Z</time>
      </trkpt>
      <trkpt lat="48.639549" lon="16.702791">
        <ele>236.590286</ele>
        <time>2020-09-10T06:53:32.861Z</time>
      </trkpt>
      <trkpt lat="48.639543" lon="16.702965">
        <ele>236.543703</ele>
        <time>2020-09-10T06:53:34.861Z</time>
      </trkpt>
      <trkpt lat="48.639539" lon="16.703138">
        <ele>236.500954</ele>
        <time>2020-09-10T06:53:36.856Z</time>
      </trkpt>
      <trkpt lat="48.639536" lon="16.703311">
        <ele>236.476839</ele>
        <time>2020-09-10T06:53:38.863Z</time>
      </trkpt>
      <trkpt lat="48.639535" lon="16.703486">
        <ele>236.452453</ele>
        <time>2020-09-10T06:53:40.861Z</time>
      </trkpt>
      <trkpt lat="48.639538" lon="16.703660">
        <ele>236.428199</ele>
        <time>2020-09-10T06:53:42.869Z</time>
      </trkpt>
      <trkpt lat="48.639538" lon="16.703835">
        <ele>236.403814</ele>
        <time>2020-09-10T06:53:44.851Z</time>
      </trkpt>
      <trkpt lat="48.639533" lon="16.704007">
        <ele>236.379824</ele>
        <time>2020-09-10T06:53:46.871Z</time>
      </trkpt>
      <trkpt lat="48.639528" lon="16.704176">
        <ele>236.356252</ele>
        <time>2020-09-10T06:53:48.855Z</time>
      </trkpt>
      <trkpt lat="48.639527" lon="16.704348">
        <ele>236.332284</ele>
        <time>2020-09-10T06:53:50.875Z</time>
      </trkpt>
      <trkpt lat="48.639521" lon="16.704522">
        <ele>236.308005</ele>
        <time>2020-09-10T06:53:52.851Z</time>
      </trkpt>
      <trkpt lat="48.639516" lon="16.704696">
        <ele>236.283736</ele>
        <time>2020-09-10T06:53:54.856Z</time>
      </trkpt>
      <trkpt lat="48.639513" lon="16.704869">
        <ele>236.259622</ele>
        <time>2020-09-10T06:53:56.860Z</time>
      </trkpt>
      <trkpt lat="48.639508" lon="16.705037">
        <ele>236.236188</ele>
        <time>2020-09-10T06:53:58.853Z</time>
      </trkpt>
      <trkpt lat="48.639508" lon="16.705199">
        <ele>236.213615</ele>
        <time>2020-09-10T06:54:00.874Z</time>
      </trkpt>
      <trkpt lat="48.639513" lon="16.705350">
        <ele>236.192548</ele>
        <time>2020-09-10T06:54:02.867Z</time>
      </trkpt>
      <trkpt lat="48.639550" lon="16.705483">
        <ele>236.172440</ele>
        <time>2020-09-10T06:54:04.862Z</time>
      </trkpt>
      <trkpt lat="48.639633" lon="16.705568">
        <ele>236.151306</ele>
        <time>2020-09-10T06:54:06.857Z</time>
      </trkpt>
      <trkpt lat="48.639732" lon="16.705603">
        <ele>236.129868</ele>
        <time>2020-09-10T06:54:08.868Z</time>
      </trkpt>
      <trkpt lat="48.639825" lon="16.705634">
        <ele>236.099168</ele>
        <time>2020-09-10T06:54:10.871Z</time>
      </trkpt>
      <trkpt lat="48.639920" lon="16.705684">
        <ele>236.063637</ele>
        <time>2020-09-10T06:54:12.860Z</time>
      </trkpt>
      <trkpt lat="48.640016" lon="16.705729">
        <ele>236.028135</ele>
        <time>2020-09-10T06:54:14.854Z</time>
      </trkpt>
      <trkpt lat="48.640117" lon="16.705763">
        <ele>235.991585</ele>
        <time>2020-09-10T06:54:16.871Z</time>
      </trkpt>
      <trkpt lat="48.640219" lon="16.705796">
        <ele>235.954739</ele>
        <time>2020-09-10T06:54:18.855Z</time>
      </trkpt>
      <trkpt lat="48.640322" lon="16.705830">
        <ele>235.917499</ele>
        <time>2020-09-10T06:54:20.861Z</time>
      </trkpt>
      <trkpt lat="48.640427" lon="16.705876">
        <ele>235.878885</ele>
        <time>2020-09-10T06:54:22.863Z</time>
      </trkpt>
      <trkpt lat="48.640535" lon="16.705927">
        <ele>235.838919</ele>
        <time>2020-09-10T06:54:24.866Z</time>
      </trkpt>
      <trkpt lat="48.640645" lon="16.705967">
        <ele>235.798956</ele>
        <time>2020-09-10T06:54:26.853Z</time>
      </trkpt>
      <trkpt lat="48.640756" lon="16.706012">
        <ele>235.758362</ele>
        <time>2020-09-10T06:54:28.883Z</time>
      </trkpt>
      <trkpt lat="48.640868" lon="16.706054">
        <ele>235.717602</ele>
        <time>2020-09-10T06:54:30.876Z</time>
      </trkpt>
      <trkpt lat="48.640981" lon="16.706098">
        <ele>235.676384</ele>
        <time>2020-09-10T06:54:32.860Z</time>
      </trkpt>
      <trkpt lat="48.641095" lon="16.706137">
        <ele>235.635098</ele>
        <time>2020-09-10T06:54:34.860Z</time>
      </trkpt>
      <trkpt lat="48.641206" lon="16.706179">
        <ele>235.594680</ele>
        <time>2020-09-10T06:54:36.891Z</time>
      </trkpt>
      <trkpt lat="48.641321" lon="16.706226">
        <ele>235.552601</ele>
        <time>2020-09-10T06:54:38.871Z</time>
      </trkpt>
      <trkpt lat="48.641434" lon="16.706274">
        <ele>235.511141</ele>
        <time>2020-09-10T06:54:40.867Z</time>
      </trkpt>
      <trkpt lat="48.641547" lon="16.706322">
        <ele>235.455126</ele>
        <time>2020-09-10T06:54:42.896Z</time>
      </trkpt>
      <trkpt lat="48.641658" lon="16.706368">
        <ele>235.385553</ele>
        <time>2020-09-10T06:54:44.872Z</time>
      </trkpt>
      <trkpt lat="48.641770" lon="16.706413">
        <ele>235.315500</ele>
        <time>2020-09-10T06:54:46.892Z</time>
      </trkpt>
      <trkpt lat="48.641884" lon="16.706458">
        <ele>235.244277</ele>
        <time>2020-09-10T06:54:48.855Z</time>
      </trkpt>
      <trkpt lat="48.641995" lon="16.706503">
        <ele>235.174808</ele>
        <time>2020-09-10T06:54:50.875Z</time>
      </trkpt>
      <trkpt lat="48.642107" lon="16.706548">
        <ele>235.104755</ele>
        <time>2020-09-10T06:54:52.857Z</time>
      </trkpt>
      <trkpt lat="48.642214" lon="16.706601">
        <ele>235.036694</ele>
        <time>2020-09-10T06:54:54.845Z</time>
      </trkpt>
      <trkpt lat="48.642313" lon="16.706669">
        <ele>234.970969</ele>
        <time>2020-09-10T06:54:56.883Z</time>
      </trkpt>
      <trkpt lat="48.642402" lon="16.706757">
        <ele>234.906701</ele>
        <time>2020-09-10T06:54:58.859Z</time>
      </trkpt>
      <trkpt lat="48.642489" lon="16.706842">
        <ele>234.844099</ele>
        <time>2020-09-10T06:55:00.885Z</time>
      </trkpt>
      <trkpt lat="48.642576" lon="16.706929">
        <ele>234.781060</ele>
        <time>2020-09-10T06:55:02.855Z</time>
      </trkpt>
      <trkpt lat="48.642660" lon="16.707020">
        <ele>234.718611</ele>
        <time>2020-09-10T06:55:04.862Z</time>
      </trkpt>
      <trkpt lat="48.642742" lon="16.707110">
        <ele>234.657375</ele>
        <time>2020-09-10T06:55:06.849Z</time>
      </trkpt>
      <trkpt lat="48.642826" lon="16.707201">
        <ele>234.594925</ele>
        <time>2020-09-10T06:55:08.861Z</time>
      </trkpt>
      <trkpt lat="48.642914" lon="16.707283">
        <ele>234.532452</ele>
        <time>2020-09-10T06:55:10.866Z</time>
      </trkpt>
      <trkpt lat="48.643004" lon="16.707364">
        <ele>234.469150</ele>
        <time>2020-09-10T06:55:12.877Z</time>
      </trkpt>
      <trkpt lat="48.643094" lon="16.707457">
        <ele>234.403270</ele>
        <time>2020-09-10T06:55:14.851Z</time>
      </trkpt>
      <trkpt lat="48.643182" lon="16.707551">
        <ele>234.310300</ele>
        <time>2020-09-10T06:55:16.876Z</time>
      </trkpt>
      <trkpt lat="48.643271" lon="16.707644">
        <ele>234.216746</ele>
        <time>2020-09-10T06:55:18.878Z</time>
      </trkpt>
      <trkpt lat="48.643362" lon="16.707736">
        <ele>234.122083</ele>
        <time>2020-09-10T06:55:20.856Z</time>
      </trkpt>
      <trkpt lat="48.643455" lon="16.707824">
        <ele>234.027208</ele>
        <time>2020-09-10T06:55:22.874Z</time>
      </trkpt>
      <trkpt lat="48.643543" lon="16.707917">
        <ele>233.934365</ele>
        <time>2020-09-10T06:55:24.854Z</time>
      </trkpt>
      <trkpt lat="48.643635" lon="16.708011">
        <ele>233.838346</ele>
        <time>2020-09-10T06:55:26.866Z</time>
      </trkpt>
      <trkpt lat="48.643728" lon="16.708108">
        <ele>233.740647</ele>
        <time>2020-09-10T06:55:28.871Z</time>
      </trkpt>
      <trkpt lat="48.643822" lon="16.708209">
        <ele>233.640928</ele>
        <time>2020-09-10T06:55:30.864Z</time>
      </trkpt>
      <trkpt lat="48.643918" lon="16.708309">
        <ele>233.540119</ele>
        <time>2020-09-10T06:55:32.868Z</time>
      </trkpt>
      <trkpt lat="48.644017" lon="16.708411">
        <ele>233.436523</ele>
        <time>2020-09-10T06:55:34.879Z</time>
      </trkpt>
      <trkpt lat="48.644120" lon="16.708516">
        <ele>233.329101</ele>
        <time>2020-09-10T06:55:36.880Z</time>
      </trkpt>
      <trkpt lat="48.644228" lon="16.708621">
        <ele>233.218065</ele>
        <time>2020-09-10T06:55:38.877Z</time>
      </trkpt>
      <trkpt lat="48.644339" lon="16.708715">
        <ele>233.108040</ele>
        <time>2020-09-10T06:55:40.877Z</time>
      </trkpt>
      <trkpt lat="48.644442" lon="16.708819">
        <ele>233.000936</ele>
        <time>2020-09-10T06:55:42.860Z</time>
      </trkpt>
      <trkpt lat="48.644542" lon="16.708913">
        <ele>232.899109</ele>
        <time>2020-09-10T06:55:44.870Z</time>
      </trkpt>
      <trkpt lat="48.644641" lon="16.709000">
        <ele>232.716873</ele>
        <time>2020-09-10T06:55:46.879Z</time>
      </trkpt>
      <trkpt lat="48.644735" lon="16.709088">
        <ele>232.451533</ele>
        <time>2020-09-10T06:55:48.879Z</time>
      </trkpt>
      <trkpt lat="48.644822" lon="16.709172">
        <ele>232.203799</ele>
        <time>2020-09-10T06:55:50.882Z</time>
      </trkpt>
      <trkpt lat="48.644898" lon="16.709250">
        <ele>231.983359</ele>
        <time>2020-09-10T06:55:52.870Z</time>
      </trkpt>
      <trkpt lat="48.644987" lon="16.709366">
        <ele>231.701398</ele>
        <time>2020-09-10T06:55:55.879Z</time>
      </trkpt>
      <trkpt lat="48.645061" lon="16.709550">
        <ele>231.359732</ele>
        <time>2020-09-10T06:57:13.862Z</time>
      </trkpt>
      <trkpt lat="48.645060" lon="16.709734">
        <ele>231.067871</ele>
        <time>2020-09-10T06:57:16.857Z</time>
      </trkpt>
      <trkpt lat="48.644997" lon="16.709835">
        <ele>230.847559</ele>
        <time>2020-09-10T06:57:18.851Z</time>
      </trkpt>
      <trkpt lat="48.644906" lon="16.709905">
        <ele>230.602505</ele>
        <time>2020-09-10T06:57:20.861Z</time>
      </trkpt>
      <trkpt lat="48.644812" lon="16.709966">
        <ele>230.356978</ele>
        <time>2020-09-10T06:57:22.863Z</time>
      </trkpt>
      <trkpt lat="48.644731" lon="16.710071">
        <ele>230.100953</ele>
        <time>2020-09-10T06:57:24.867Z</time>
      </trkpt>
      <trkpt lat="48.644662" lon="16.710196">
        <ele>229.842596</ele>
        <time>2020-09-10T06:57:26.865Z</time>
      </trkpt>
      <trkpt lat="48.644595" lon="16.710328">
        <ele>229.578575</ele>
        <time>2020-09-10T06:57:28.861Z</time>
      </trkpt>
      <trkpt lat="48.644532" lon="16.710466">
        <ele>229.312518</ele>
        <time>2020-09-10T06:57:30.853Z</time>
      </trkpt>
      <trkpt lat="48.644467" lon="16.710600">
        <ele>229.048843</ele>
        <time>2020-09-10T06:57:32.884Z</time>
      </trkpt>
      <trkpt lat="48.644396" lon="16.710729">
        <ele>228.782537</ele>
        <time>2020-09-10T06:57:34.876Z</time>
      </trkpt>
      <trkpt lat="48.644328" lon="16.710865">
        <ele>228.522539</ele>
        <time>2020-09-10T06:57:36.877Z</time>
      </trkpt>
      <trkpt lat="48.644259" lon="16.710998">
        <ele>228.419682</ele>
        <time>2020-09-10T06:57:38.879Z</time>
      </trkpt>
      <trkpt lat="48.644188" lon="16.711124">
        <ele>228.318954</ele>
        <time>2020-09-10T06:57:40.866Z</time>
      </trkpt>
      <trkpt lat="48.644117" lon="16.711256">
        <ele>228.215422</ele>
        <time>2020-09-10T06:57:42.861Z</time>
      </trkpt>
      <trkpt lat="48.644047" lon="16.711395">
        <ele>228.109115</ele>
        <time>2020-09-10T06:57:44.884Z</time>
      </trkpt>
      <trkpt lat="48.643976" lon="16.711534">
        <ele>228.002247</ele>
        <time>2020-09-10T06:57:46.884Z</time>
      </trkpt>
      <trkpt lat="48.643926" lon="16.711686">
        <ele>227.898966</ele>
        <time>2020-09-10T06:57:48.860Z</time>
      </trkpt>
      <trkpt lat="48.643972" lon="16.711834">
        <ele>227.799480</ele>
        <time>2020-09-10T06:57:50.858Z</time>
      </trkpt>
      <trkpt lat="48.644070" lon="16.711912">
        <ele>227.697547</ele>
        <time>2020-09-10T06:57:52.850Z</time>
      </trkpt>
      <trkpt lat="48.644155" lon="16.711988">
        <ele>227.606661</ele>
        <time>2020-09-10T06:57:54.881Z</time>
      </trkpt>
      <trkpt lat="48.644245" lon="16.712057">
        <ele>227.513784</ele>
        <time>2020-09-10T06:57:56.867Z</time>
      </trkpt>
      <trkpt lat="48.644349" lon="16.712102">
        <ele>227.414207</ele>
        <time>2020-09-10T06:57:58.875Z</time>
      </trkpt>
      <trkpt lat="48.644460" lon="16.712135">
        <ele>227.310068</ele>
        <time>2020-09-10T06:58:00.867Z</time>
      </trkpt>
      <trkpt lat="48.644572" lon="16.712183">
        <ele>227.202908</ele>
        <time>2020-09-10T06:58:02.876Z</time>
      </trkpt>
      <trkpt lat="48.644673" lon="16.712228">
        <ele>227.105983</ele>
        <time>2020-09-10T06:58:04.883Z</time>
      </trkpt>
      <trkpt lat="48.644773" lon="16.712273">
        <ele>227.009941</ele>
        <time>2020-09-10T06:58:06.883Z</time>
      </trkpt>
      <trkpt lat="48.644875" lon="16.712321">
        <ele>226.911606</ele>
        <time>2020-09-10T06:58:08.853Z</time>
      </trkpt>
      <trkpt lat="48.644977" lon="16.712371">
        <ele>226.831866</ele>
        <time>2020-09-10T06:58:10.881Z</time>
      </trkpt>
      <trkpt lat="48.645080" lon="16.712422">
        <ele>226.763440</ele>
        <time>2020-09-10T06:58:12.857Z</time>
      </trkpt>
      <trkpt lat="48.645185" lon="16.712471">
        <ele>226.694062</ele>
        <time>2020-09-10T06:58:14.849Z</time>
      </trkpt>
      <trkpt lat="48.645290" lon="16.712523">
        <ele>226.624306</ele>
        <time>2020-09-10T06:58:16.867Z</time>
      </trkpt>
      <trkpt lat="48.645394" lon="16.712574">
        <ele>226.555279</ele>
        <time>2020-09-10T06:58:18.857Z</time>
      </trkpt>
      <trkpt lat="48.645490" lon="16.712657">
        <ele>226.485471</ele>
        <time>2020-09-10T06:58:20.872Z</time>
      </trkpt>
      <trkpt lat="48.645553" lon="16.712796">
        <ele>226.415150</ele>
        <time>2020-09-10T06:58:22.853Z</time>
      </trkpt>
      <trkpt lat="48.645592" lon="16.712956">
        <ele>226.344004</ele>
        <time>2020-09-10T06:58:24.891Z</time>
      </trkpt>
      <trkpt lat="48.645647" lon="16.713106">
        <ele>226.272437</ele>
        <time>2020-09-10T06:58:26.859Z</time>
      </trkpt>
      <trkpt lat="48.645695" lon="16.713253">
        <ele>226.204032</ele>
        <time>2020-09-10T06:58:28.893Z</time>
      </trkpt>
      <trkpt lat="48.645738" lon="16.713399">
        <ele>226.137346</ele>
        <time>2020-09-10T06:58:30.851Z</time>
      </trkpt>
      <trkpt lat="48.645779" lon="16.713549">
        <ele>226.069626</ele>
        <time>2020-09-10T06:58:32.875Z</time>
      </trkpt>
      <trkpt lat="48.645815" lon="16.713709">
        <ele>225.999114</ele>
        <time>2020-09-10T06:58:34.862Z</time>
      </trkpt>
      <trkpt lat="48.645847" lon="16.713871">
        <ele>225.928575</ele>
        <time>2020-09-10T06:58:36.848Z</time>
      </trkpt>
      <trkpt lat="48.645878" lon="16.714026">
        <ele>225.861015</ele>
        <time>2020-09-10T06:58:38.860Z</time>
      </trkpt>
      <trkpt lat="48.645911" lon="16.714185">
        <ele>225.791488</ele>
        <time>2020-09-10T06:58:40.855Z</time>
      </trkpt>
      <trkpt lat="48.645945" lon="16.714324">
        <ele>225.731196</ele>
        <time>2020-09-10T06:58:42.869Z</time>
      </trkpt>
      <trkpt lat="48.645998" lon="16.714450">
        <ele>225.680982</ele>
        <time>2020-09-10T06:58:45.873Z</time>
      </trkpt>
      <trkpt lat="48.646098" lon="16.714409">
        <ele>225.628266</ele>
        <time>2020-09-10T06:58:49.850Z</time>
      </trkpt>
      <trkpt lat="48.646187" lon="16.714328">
        <ele>225.575424</ele>
        <time>2020-09-10T06:58:52.859Z</time>
      </trkpt>
      <trkpt lat="48.646285" lon="16.714228">
        <ele>225.515286</ele>
        <time>2020-09-10T06:58:55.869Z</time>
      </trkpt>
      <trkpt lat="48.646400" lon="16.714135">
        <ele>225.448943</ele>
        <time>2020-09-10T06:58:58.863Z</time>
      </trkpt>
      <trkpt lat="48.646495" lon="16.714094">
        <ele>225.398678</ele>
        <time>2020-09-10T06:59:00.853Z</time>
      </trkpt>
      <trkpt lat="48.646595" lon="16.714058">
        <ele>225.346376</ele>
        <time>2020-09-10T06:59:02.854Z</time>
      </trkpt>
      <trkpt lat="48.646699" lon="16.714021">
        <ele>225.292017</ele>
        <time>2020-09-10T06:59:04.863Z</time>
      </trkpt>
      <trkpt lat="48.646809" lon="16.713990">
        <ele>225.235085</ele>
        <time>2020-09-10T06:59:06.844Z</time>
      </trkpt>
      <trkpt lat="48.646907" lon="16.713951">
        <ele>225.183526</ele>
        <time>2020-09-10T06:59:08.882Z</time>
      </trkpt>
      <trkpt lat="48.647006" lon="16.713917">
        <ele>225.131872</ele>
        <time>2020-09-10T06:59:10.866Z</time>
      </trkpt>
      <trkpt lat="48.647108" lon="16.713892">
        <ele>225.079296</ele>
        <time>2020-09-10T06:59:12.874Z</time>
      </trkpt>
      <trkpt lat="48.647212" lon="16.713870">
        <ele>225.025865</ele>
        <time>2020-09-10T06:59:14.882Z</time>
      </trkpt>
      <trkpt lat="48.647321" lon="16.713851">
        <ele>224.970037</ele>
        <time>2020-09-10T06:59:16.864Z</time>
      </trkpt>
      <trkpt lat="48.647426" lon="16.713875">
        <ele>224.916005</ele>
        <time>2020-09-10T06:59:18.851Z</time>
      </trkpt>
      <trkpt lat="48.647526" lon="16.713920">
        <ele>224.862922</ele>
        <time>2020-09-10T06:59:20.843Z</time>
      </trkpt>
      <trkpt lat="48.647619" lon="16.713977">
        <ele>224.835391</ele>
        <time>2020-09-10T06:59:22.856Z</time>
      </trkpt>
      <trkpt lat="48.647703" lon="16.714053">
        <ele>224.896711</ele>
        <time>2020-09-10T06:59:24.847Z</time>
      </trkpt>
      <trkpt lat="48.647782" lon="16.714133">
        <ele>224.956268</ele>
        <time>2020-09-10T06:59:26.884Z</time>
      </trkpt>
      <trkpt lat="48.647880" lon="16.714238">
        <ele>225.031501</ele>
        <time>2020-09-10T06:59:29.887Z</time>
      </trkpt>
      <trkpt lat="48.647963" lon="16.714300">
        <ele>225.089496</ele>
        <time>2020-09-10T06:59:33.861Z</time>
      </trkpt>
      <trkpt lat="48.648045" lon="16.714360">
        <ele>225.146564</ele>
        <time>2020-09-10T06:59:36.863Z</time>
      </trkpt>
      <trkpt lat="48.648155" lon="16.714414">
        <ele>225.219023</ele>
        <time>2020-09-10T06:59:39.861Z</time>
      </trkpt>
      <trkpt lat="48.648268" lon="16.714475">
        <ele>225.294195</ele>
        <time>2020-09-10T06:59:42.876Z</time>
      </trkpt>
      <trkpt lat="48.648384" lon="16.714538">
        <ele>225.371416</ele>
        <time>2020-09-10T06:59:45.883Z</time>
      </trkpt>
      <trkpt lat="48.648492" lon="16.714611">
        <ele>225.445528</ele>
        <time>2020-09-10T06:59:48.874Z</time>
      </trkpt>
      <trkpt lat="48.648586" lon="16.714642">
        <ele>225.505808</ele>
        <time>2020-09-10T06:59:51.861Z</time>
      </trkpt>
      <trkpt lat="48.648795" lon="16.714700">
        <ele>225.638946</ele>
        <time>2020-09-10T07:00:29.845Z</time>
      </trkpt>
      <trkpt lat="48.648884" lon="16.714738">
        <ele>225.696888</ele>
        <time>2020-09-10T07:00:32.844Z</time>
      </trkpt>
      <trkpt lat="48.648978" lon="16.714788">
        <ele>225.759318</ele>
        <time>2020-09-10T07:00:36.854Z</time>
      </trkpt>
      <trkpt lat="48.649086" lon="16.714815">
        <ele>225.827906</ele>
        <time>2020-09-10T07:00:41.861Z</time>
      </trkpt>
      <trkpt lat="48.649189" lon="16.714841">
        <ele>225.893335</ele>
        <time>2020-09-10T07:00:47.872Z</time>
      </trkpt>
      <trkpt lat="48.649298" lon="16.714875">
        <ele>225.991484</ele>
        <time>2020-09-10T07:00:52.871Z</time>
      </trkpt>
      <trkpt lat="48.649395" lon="16.714918">
        <ele>226.186557</ele>
        <time>2020-09-10T07:00:56.850Z</time>
      </trkpt>
      <trkpt lat="48.649487" lon="16.714958">
        <ele>226.371296</ele>
        <time>2020-09-10T07:01:00.873Z</time>
      </trkpt>
      <trkpt lat="48.649581" lon="16.714992">
        <ele>226.557824</ele>
        <time>2020-09-10T07:01:04.874Z</time>
      </trkpt>
      <trkpt lat="48.649683" lon="16.715023">
        <ele>226.758612</ele>
        <time>2020-09-10T07:01:09.879Z</time>
      </trkpt>
      <trkpt lat="48.649773" lon="16.715050">
        <ele>226.935690</ele>
        <time>2020-09-10T07:01:13.882Z</time>
      </trkpt>
      <trkpt lat="48.649876" lon="16.715086">
        <ele>227.139710</ele>
        <time>2020-09-10T07:01:18.857Z</time>
      </trkpt>
      <trkpt lat="48.649968" lon="16.715136">
        <ele>227.328368</ele>
        <time>2020-09-10T07:01:23.848Z</time>
      </trkpt>
      <trkpt lat="48.650055" lon="16.715182">
        <ele>227.506226</ele>
        <time>2020-09-10T07:01:28.886Z</time>
      </trkpt>
      <trkpt lat="48.650145" lon="16.715230">
        <ele>227.690393</ele>
        <time>2020-09-10T07:01:33.857Z</time>
      </trkpt>
      <trkpt lat="48.650250" lon="16.715282">
        <ele>227.903613</ele>
        <time>2020-09-10T07:01:38.864Z</time>
      </trkpt>
      <trkpt lat="48.650347" lon="16.715333">
        <ele>228.101794</ele>
        <time>2020-09-10T07:01:43.875Z</time>
      </trkpt>
      <trkpt lat="48.650443" lon="16.715378">
        <ele>228.295754</ele>
        <time>2020-09-10T07:01:48.860Z</time>
      </trkpt>
      <trkpt lat="48.650535" lon="16.715425">
        <ele>228.483154</ele>
        <time>2020-09-10T07:01:53.870Z</time>
      </trkpt>
      <trkpt lat="48.650629" lon="16.715472">
        <ele>228.674214</ele>
        <time>2020-09-10T07:01:58.898Z</time>
      </trkpt>
      <trkpt lat="48.650731" lon="16.715514">
        <ele>228.878228</ele>
        <time>2020-09-10T07:02:03.846Z</time>
      </trkpt>
      <trkpt lat="48.650824" lon="16.715549">
        <ele>229.063181</ele>
        <time>2020-09-10T07:02:07.867Z</time>
      </trkpt>
      <trkpt lat="48.650922" lon="16.715590">
        <ele>229.259412</ele>
        <time>2020-09-10T07:02:11.868Z</time>
      </trkpt>
      <trkpt lat="48.651026" lon="16.715627">
        <ele>229.465263</ele>
        <time>2020-09-10T07:02:15.858Z</time>
      </trkpt>
      <trkpt lat="48.651131" lon="16.715664">
        <ele>229.671765</ele>
        <time>2020-09-10T07:02:19.850Z</time>
      </trkpt>
      <trkpt lat="48.651240" lon="16.715720">
        <ele>229.892250</ele>
        <time>2020-09-10T07:02:22.861Z</time>
      </trkpt>
      <trkpt lat="48.651347" lon="16.715776">
        <ele>230.109109</ele>
        <time>2020-09-10T07:02:25.861Z</time>
      </trkpt>
      <trkpt lat="48.651457" lon="16.715819">
        <ele>230.326723</ele>
        <time>2020-09-10T07:02:28.876Z</time>
      </trkpt>
      <trkpt lat="48.651561" lon="16.715863">
        <ele>230.533567</ele>
        <time>2020-09-10T07:02:31.856Z</time>
      </trkpt>
      <trkpt lat="48.651665" lon="16.715911">
        <ele>230.741830</ele>
        <time>2020-09-10T07:02:34.884Z</time>
      </trkpt>
      <trkpt lat="48.651771" lon="16.715957">
        <ele>230.953048</ele>
        <time>2020-09-10T07:02:37.869Z</time>
      </trkpt>
      <trkpt lat="48.651871" lon="16.716002">
        <ele>231.152880</ele>
        <time>2020-09-10T07:02:40.848Z</time>
      </trkpt>
      <trkpt lat="48.651971" lon="16.716051">
        <ele>231.354212</ele>
        <time>2020-09-10T07:02:43.874Z</time>
      </trkpt>
      <trkpt lat="48.652065" lon="16.716088">
        <ele>231.540254</ele>
        <time>2020-09-10T07:02:46.868Z</time>
      </trkpt>
      <trkpt lat="48.652165" lon="16.716125">
        <ele>231.737440</ele>
        <time>2020-09-10T07:02:49.880Z</time>
      </trkpt>
      <trkpt lat="48.652254" lon="16.716172">
        <ele>231.917993</ele>
        <time>2020-09-10T07:02:52.872Z</time>
      </trkpt>
      <trkpt lat="48.652346" lon="16.716211">
        <ele>232.100996</ele>
        <time>2020-09-10T07:02:55.858Z</time>
      </trkpt>
      <trkpt lat="48.652439" lon="16.716256">
        <ele>232.288014</ele>
        <time>2020-09-10T07:02:59.872Z</time>
      </trkpt>
      <trkpt lat="48.652558" lon="16.716282">
        <ele>232.518317</ele>
        <time>2020-09-10T07:03:03.871Z</time>
      </trkpt>
      <trkpt lat="48.652652" lon="16.716305">
        <ele>232.700707</ele>
        <time>2020-09-10T07:03:06.852Z</time>
      </trkpt>
      <trkpt lat="48.652757" lon="16.716334">
        <ele>232.906639</ele>
        <time>2020-09-10T07:03:10.872Z</time>
      </trkpt>
      <trkpt lat="48.652860" lon="16.716365">
        <ele>233.115440</ele>
        <time>2020-09-10T07:03:14.860Z</time>
      </trkpt>
      <trkpt lat="48.652955" lon="16.716401">
        <ele>233.310155</ele>
        <time>2020-09-10T07:03:18.868Z</time>
      </trkpt>
      <trkpt lat="48.653051" lon="16.716446">
        <ele>233.509971</ele>
        <time>2020-09-10T07:03:22.849Z</time>
      </trkpt>
      <trkpt lat="48.653151" lon="16.716490">
        <ele>233.717028</ele>
        <time>2020-09-10T07:03:26.883Z</time>
      </trkpt>
      <trkpt lat="48.653243" lon="16.716532">
        <ele>233.908086</ele>
        <time>2020-09-10T07:03:30.853Z</time>
      </trkpt>
      <trkpt lat="48.653346" lon="16.716581">
        <ele>234.122754</ele>
        <time>2020-09-10T07:03:35.860Z</time>
      </trkpt>
      <trkpt lat="48.653439" lon="16.716614">
        <ele>234.312675</ele>
        <time>2020-09-10T07:03:39.858Z</time>
      </trkpt>
      <trkpt lat="48.653536" lon="16.716660">
        <ele>234.514780</ele>
        <time>2020-09-10T07:03:43.903Z</time>
      </trkpt>
      <trkpt lat="48.653640" lon="16.716695">
        <ele>234.726609</ele>
        <time>2020-09-10T07:03:47.855Z</time>
      </trkpt>
      <trkpt lat="48.653747" lon="16.716734">
        <ele>234.945435</ele>
        <time>2020-09-10T07:03:51.854Z</time>
      </trkpt>
      <trkpt lat="48.653861" lon="16.716787">
        <ele>235.182547</ele>
        <time>2020-09-10T07:03:55.849Z</time>
      </trkpt>
      <trkpt lat="48.653970" lon="16.716829">
        <ele>235.406180</ele>
        <time>2020-09-10T07:03:59.880Z</time>
      </trkpt>
      <trkpt lat="48.654066" lon="16.716878">
        <ele>235.607612</ele>
        <time>2020-09-10T07:04:03.869Z</time>
      </trkpt>
      <trkpt lat="48.654180" lon="16.716921">
        <ele>235.841206</ele>
        <time>2020-09-10T07:04:07.854Z</time>
      </trkpt>
      <trkpt lat="48.654274" lon="16.716961">
        <ele>236.035348</ele>
        <time>2020-09-10T07:04:10.846Z</time>
      </trkpt>
      <trkpt lat="48.654376" lon="16.716994">
        <ele>236.242731</ele>
        <time>2020-09-10T07:04:13.880Z</time>
      </trkpt>
      <trkpt lat="48.654482" lon="16.717042">
        <ele>236.458528</ele>
        <time>2020-09-10T07:04:16.847Z</time>
      </trkpt>
      <trkpt lat="48.654584" lon="16.717088">
        <ele>236.626930</ele>
        <time>2020-09-10T07:04:19.862Z</time>
      </trkpt>
      <trkpt lat="48.654692" lon="16.717130">
        <ele>236.803364</ele>
        <time>2020-09-10T07:04:22.859Z</time>
      </trkpt>
      <trkpt lat="48.654810" lon="16.717178">
        <ele>236.996695</ele>
        <time>2020-09-10T07:04:25.887Z</time>
      </trkpt>
      <trkpt lat="48.654933" lon="16.717232">
        <ele>237.199334</ele>
        <time>2020-09-10T07:04:28.863Z</time>
      </trkpt>
      <trkpt lat="48.655026" lon="16.717266">
        <ele>237.350715</ele>
        <time>2020-09-10T07:04:30.868Z</time>
      </trkpt>
      <trkpt lat="48.655123" lon="16.717298">
        <ele>237.507798</ele>
        <time>2020-09-10T07:04:32.864Z</time>
      </trkpt>
      <trkpt lat="48.655216" lon="16.717339">
        <ele>237.661062</ele>
        <time>2020-09-10T07:04:34.855Z</time>
      </trkpt>
      <trkpt lat="48.655314" lon="16.717384">
        <ele>237.823102</ele>
        <time>2020-09-10T07:04:36.855Z</time>
      </trkpt>
      <trkpt lat="48.655412" lon="16.717427">
        <ele>237.984546</ele>
        <time>2020-09-10T07:04:38.845Z</time>
      </trkpt>
      <trkpt lat="48.655513" lon="16.717465">
        <ele>238.149217</ele>
        <time>2020-09-10T07:04:40.850Z</time>
      </trkpt>
      <trkpt lat="48.655617" lon="16.717503">
        <ele>238.318499</ele>
        <time>2020-09-10T07:04:42.888Z</time>
      </trkpt>
      <trkpt lat="48.655717" lon="16.717546">
        <ele>238.482986</ele>
        <time>2020-09-10T07:04:44.890Z</time>
      </trkpt>
      <trkpt lat="48.655823" lon="16.717592">
        <ele>238.657462</ele>
        <time>2020-09-10T07:04:46.865Z</time>
      </trkpt>
      <trkpt lat="48.655929" lon="16.717639">
        <ele>238.832229</ele>
        <time>2020-09-10T07:04:48.875Z</time>
      </trkpt>
      <trkpt lat="48.656037" lon="16.717681">
        <ele>239.008663</ele>
        <time>2020-09-10T07:04:50.884Z</time>
      </trkpt>
      <trkpt lat="48.656146" lon="16.717720">
        <ele>239.185882</ele>
        <time>2020-09-10T07:04:52.858Z</time>
      </trkpt>
      <trkpt lat="48.656253" lon="16.717763">
        <ele>239.319237</ele>
        <time>2020-09-10T07:04:54.864Z</time>
      </trkpt>
      <trkpt lat="48.656362" lon="16.717807">
        <ele>239.395358</ele>
        <time>2020-09-10T07:04:56.886Z</time>
      </trkpt>
      <trkpt lat="48.656473" lon="16.717853">
        <ele>239.473014</ele>
        <time>2020-09-10T07:04:58.845Z</time>
      </trkpt>
      <trkpt lat="48.656581" lon="16.717901">
        <ele>239.548966</ele>
        <time>2020-09-10T07:05:00.840Z</time>
      </trkpt>
      <trkpt lat="48.656685" lon="16.717948">
        <ele>239.622204</ele>
        <time>2020-09-10T07:05:02.847Z</time>
      </trkpt>
      <trkpt lat="48.656787" lon="16.717994">
        <ele>239.694020</ele>
        <time>2020-09-10T07:05:04.843Z</time>
      </trkpt>
      <trkpt lat="48.656883" lon="16.718041">
        <ele>239.762103</ele>
        <time>2020-09-10T07:05:06.848Z</time>
      </trkpt>
      <trkpt lat="48.656982" lon="16.718089">
        <ele>239.832249</ele>
        <time>2020-09-10T07:05:08.843Z</time>
      </trkpt>
      <trkpt lat="48.657080" lon="16.718128">
        <ele>239.900624</ele>
        <time>2020-09-10T07:05:10.892Z</time>
      </trkpt>
      <trkpt lat="48.657180" lon="16.718148">
        <ele>239.968688</ele>
        <time>2020-09-10T07:05:12.855Z</time>
      </trkpt>
      <trkpt lat="48.657274" lon="16.718159">
        <ele>240.032307</ele>
        <time>2020-09-10T07:05:14.867Z</time>
      </trkpt>
      <trkpt lat="48.657365" lon="16.718170">
        <ele>240.093907</ele>
        <time>2020-09-10T07:05:16.878Z</time>
      </trkpt>
      <trkpt lat="48.657455" lon="16.718183">
        <ele>240.154913</ele>
        <time>2020-09-10T07:05:18.860Z</time>
      </trkpt>
      <trkpt lat="48.657545" lon="16.718199">
        <ele>240.216061</ele>
        <time>2020-09-10T07:05:20.876Z</time>
      </trkpt>
      <trkpt lat="48.657636" lon="16.718212">
        <ele>240.277738</ele>
        <time>2020-09-10T07:05:22.861Z</time>
      </trkpt>
      <trkpt lat="48.657731" lon="16.718229">
        <ele>240.342289</ele>
        <time>2020-09-10T07:05:24.904Z</time>
      </trkpt>
      <trkpt lat="48.657826" lon="16.718249">
        <ele>240.407010</ele>
        <time>2020-09-10T07:05:26.876Z</time>
      </trkpt>
      <trkpt lat="48.657920" lon="16.718270">
        <ele>240.471126</ele>
        <time>2020-09-10T07:05:28.879Z</time>
      </trkpt>
      <trkpt lat="48.658016" lon="16.718291">
        <ele>240.534287</ele>
        <time>2020-09-10T07:05:30.870Z</time>
      </trkpt>
      <trkpt lat="48.658112" lon="16.718309">
        <ele>240.595255</ele>
        <time>2020-09-10T07:05:32.859Z</time>
      </trkpt>
      <trkpt lat="48.658209" lon="16.718327">
        <ele>240.656850</ele>
        <time>2020-09-10T07:05:34.889Z</time>
      </trkpt>
      <trkpt lat="48.658308" lon="16.718343">
        <ele>240.719602</ele>
        <time>2020-09-10T07:05:36.856Z</time>
      </trkpt>
      <trkpt lat="48.658411" lon="16.718367">
        <ele>240.785285</ele>
        <time>2020-09-10T07:05:38.864Z</time>
      </trkpt>
      <trkpt lat="48.658522" lon="16.718383">
        <ele>240.855562</ele>
        <time>2020-09-10T07:05:40.891Z</time>
      </trkpt>
      <trkpt lat="48.658634" lon="16.718407">
        <ele>240.926857</ele>
        <time>2020-09-10T07:05:42.859Z</time>
      </trkpt>
      <trkpt lat="48.658748" lon="16.718435">
        <ele>240.999648</ele>
        <time>2020-09-10T07:05:44.870Z</time>
      </trkpt>
      <trkpt lat="48.658865" lon="16.718459">
        <ele>241.074064</ele>
        <time>2020-09-10T07:05:46.868Z</time>
      </trkpt>
      <trkpt lat="48.658982" lon="16.718481">
        <ele>241.148374</ele>
        <time>2020-09-10T07:05:48.858Z</time>
      </trkpt>
      <trkpt lat="48.659099" lon="16.718498">
        <ele>241.222455</ele>
        <time>2020-09-10T07:05:50.870Z</time>
      </trkpt>
      <trkpt lat="48.659223" lon="16.718515">
        <ele>241.300929</ele>
        <time>2020-09-10T07:05:52.892Z</time>
      </trkpt>
      <trkpt lat="48.659345" lon="16.718535">
        <ele>241.378273</ele>
        <time>2020-09-10T07:05:54.871Z</time>
      </trkpt>
      <trkpt lat="48.659465" lon="16.718562">
        <ele>241.454737</ele>
        <time>2020-09-10T07:05:56.877Z</time>
      </trkpt>
      <trkpt lat="48.659585" lon="16.718591">
        <ele>241.531327</ele>
        <time>2020-09-10T07:05:58.885Z</time>
      </trkpt>
      <trkpt lat="48.659705" lon="16.718614">
        <ele>241.607564</ele>
        <time>2020-09-10T07:06:00.877Z</time>
      </trkpt>
      <trkpt lat="48.659826" lon="16.718636">
        <ele>241.743300</ele>
        <time>2020-09-10T07:06:02.877Z</time>
      </trkpt>
      <trkpt lat="48.659947" lon="16.718658">
        <ele>241.912676</ele>
        <time>2020-09-10T07:06:04.869Z</time>
      </trkpt>
      <trkpt lat="48.660069" lon="16.718681">
        <ele>242.083544</ele>
        <time>2020-09-10T07:06:06.870Z</time>
      </trkpt>
      <trkpt lat="48.660192" lon="16.718699">
        <ele>242.255288</ele>
        <time>2020-09-10T07:06:08.891Z</time>
      </trkpt>
      <trkpt lat="48.660314" lon="16.718720">
        <ele>242.425938</ele>
        <time>2020-09-10T07:06:10.861Z</time>
      </trkpt>
      <trkpt lat="48.660436" lon="16.718738">
        <ele>242.596299</ele>
        <time>2020-09-10T07:06:12.851Z</time>
      </trkpt>
      <trkpt lat="48.660554" lon="16.718764">
        <ele>242.762026</ele>
        <time>2020-09-10T07:06:14.903Z</time>
      </trkpt>
      <trkpt lat="48.660669" lon="16.718779">
        <ele>242.922447</ele>
        <time>2020-09-10T07:06:16.873Z</time>
      </trkpt>
      <trkpt lat="48.660776" lon="16.718796">
        <ele>243.071974</ele>
        <time>2020-09-10T07:06:18.897Z</time>
      </trkpt>
      <trkpt lat="48.660880" lon="16.718818">
        <ele>243.217919</ele>
        <time>2020-09-10T07:06:20.876Z</time>
      </trkpt>
      <trkpt lat="48.660982" lon="16.718832">
        <ele>243.360262</ele>
        <time>2020-09-10T07:06:22.871Z</time>
      </trkpt>
      <trkpt lat="48.661082" lon="16.718847">
        <ele>243.499924</ele>
        <time>2020-09-10T07:06:24.881Z</time>
      </trkpt>
      <trkpt lat="48.661180" lon="16.718863">
        <ele>243.636916</ele>
        <time>2020-09-10T07:06:26.876Z</time>
      </trkpt>
      <trkpt lat="48.661275" lon="16.718879">
        <ele>243.769763</ele>
        <time>2020-09-10T07:06:28.887Z</time>
      </trkpt>
      <trkpt lat="48.661370" lon="16.718896">
        <ele>243.902715</ele>
        <time>2020-09-10T07:06:30.858Z</time>
      </trkpt>
      <trkpt lat="48.661465" lon="16.718913">
        <ele>244.035667</ele>
        <time>2020-09-10T07:06:32.868Z</time>
      </trkpt>
      <trkpt lat="48.661559" lon="16.718930">
        <ele>244.185343</ele>
        <time>2020-09-10T07:06:34.887Z</time>
      </trkpt>
      <trkpt lat="48.661653" lon="16.718945">
        <ele>244.391097</ele>
        <time>2020-09-10T07:06:36.848Z</time>
      </trkpt>
      <trkpt lat="48.661747" lon="16.718953">
        <ele>244.596041</ele>
        <time>2020-09-10T07:06:38.854Z</time>
      </trkpt>
      <trkpt lat="48.661837" lon="16.718970">
        <ele>244.793474</ele>
        <time>2020-09-10T07:06:40.869Z</time>
      </trkpt>
      <trkpt lat="48.661955" lon="16.718997">
        <ele>245.053256</ele>
        <time>2020-09-10T07:06:43.863Z</time>
      </trkpt>
      <trkpt lat="48.662172" lon="16.719101">
        <ele>245.548727</ele>
        <time>2020-09-10T07:07:20.862Z</time>
      </trkpt>
      <trkpt lat="48.662274" lon="16.719126">
        <ele>245.773654</ele>
        <time>2020-09-10T07:07:22.862Z</time>
      </trkpt>
      <trkpt lat="48.662401" lon="16.719161">
        <ele>246.054652</ele>
        <time>2020-09-10T07:07:24.864Z</time>
      </trkpt>
      <trkpt lat="48.662539" lon="16.719186">
        <ele>246.357196</ele>
        <time>2020-09-10T07:07:26.900Z</time>
      </trkpt>
      <trkpt lat="48.662686" lon="16.719213">
        <ele>246.679535</ele>
        <time>2020-09-10T07:07:28.867Z</time>
      </trkpt>
      <trkpt lat="48.662853" lon="16.719242">
        <ele>247.045447</ele>
        <time>2020-09-10T07:07:30.876Z</time>
      </trkpt>
      <trkpt lat="48.663024" lon="16.719268">
        <ele>247.419555</ele>
        <time>2020-09-10T07:07:32.874Z</time>
      </trkpt>
      <trkpt lat="48.663200" lon="16.719300">
        <ele>247.805428</ele>
        <time>2020-09-10T07:07:34.910Z</time>
      </trkpt>
      <trkpt lat="48.663291" lon="16.719321">
        <ele>248.005806</ele>
        <time>2020-09-10T07:07:35.858Z</time>
      </trkpt>
      <trkpt lat="48.663384" lon="16.719339">
        <ele>247.968626</ele>
        <time>2020-09-10T07:07:36.863Z</time>
      </trkpt>
      <trkpt lat="48.663478" lon="16.719355">
        <ele>247.862689</ele>
        <time>2020-09-10T07:07:37.859Z</time>
      </trkpt>
      <trkpt lat="48.663573" lon="16.719372">
        <ele>247.755554</ele>
        <time>2020-09-10T07:07:38.870Z</time>
      </trkpt>
      <trkpt lat="48.663670" lon="16.719390">
        <ele>247.646108</ele>
        <time>2020-09-10T07:07:39.877Z</time>
      </trkpt>
      <trkpt lat="48.663768" lon="16.719412">
        <ele>247.535154</ele>
        <time>2020-09-10T07:07:40.867Z</time>
      </trkpt>
      <trkpt lat="48.663869" lon="16.719432">
        <ele>247.421078</ele>
        <time>2020-09-10T07:07:41.873Z</time>
      </trkpt>
      <trkpt lat="48.663971" lon="16.719450">
        <ele>247.306071</ele>
        <time>2020-09-10T07:07:42.841Z</time>
      </trkpt>
      <trkpt lat="48.664075" lon="16.719469">
        <ele>247.188753</ele>
        <time>2020-09-10T07:07:43.861Z</time>
      </trkpt>
      <trkpt lat="48.664179" lon="16.719488">
        <ele>247.071435</ele>
        <time>2020-09-10T07:07:44.864Z</time>
      </trkpt>
      <trkpt lat="48.664286" lon="16.719508">
        <ele>246.950692</ele>
        <time>2020-09-10T07:07:45.880Z</time>
      </trkpt>
      <trkpt lat="48.664396" lon="16.719529">
        <ele>246.826524</ele>
        <time>2020-09-10T07:07:46.855Z</time>
      </trkpt>
      <trkpt lat="48.664506" lon="16.719549">
        <ele>246.702446</ele>
        <time>2020-09-10T07:07:47.860Z</time>
      </trkpt>
      <trkpt lat="48.664620" lon="16.719566">
        <ele>246.574156</ele>
        <time>2020-09-10T07:07:48.861Z</time>
      </trkpt>
      <trkpt lat="48.664734" lon="16.719586">
        <ele>246.445629</ele>
        <time>2020-09-10T07:07:49.866Z</time>
      </trkpt>
      <trkpt lat="48.664850" lon="16.719608">
        <ele>246.314701</ele>
        <time>2020-09-10T07:07:50.868Z</time>
      </trkpt>
      <trkpt lat="48.664966" lon="16.719629">
        <ele>246.183864</ele>
        <time>2020-09-10T07:07:51.881Z</time>
      </trkpt>
      <trkpt lat="48.665082" lon="16.719645">
        <ele>246.053413</ele>
        <time>2020-09-10T07:07:52.860Z</time>
      </trkpt>
      <trkpt lat="48.665198" lon="16.719660">
        <ele>245.839451</ele>
        <time>2020-09-10T07:07:53.854Z</time>
      </trkpt>
      <trkpt lat="48.665310" lon="16.719675">
        <ele>245.620557</ele>
        <time>2020-09-10T07:07:54.880Z</time>
      </trkpt>
      <trkpt lat="48.665423" lon="16.719698">
        <ele>245.398588</ele>
        <time>2020-09-10T07:07:55.877Z</time>
      </trkpt>
      <trkpt lat="48.665531" lon="16.719713">
        <ele>245.187449</ele>
        <time>2020-09-10T07:07:56.865Z</time>
      </trkpt>
      <trkpt lat="48.665636" lon="16.719727">
        <ele>244.982243</ele>
        <time>2020-09-10T07:07:57.857Z</time>
      </trkpt>
      <trkpt lat="48.665739" lon="16.719742">
        <ele>244.780796</ele>
        <time>2020-09-10T07:07:58.877Z</time>
      </trkpt>
      <trkpt lat="48.665841" lon="16.719760">
        <ele>244.580876</ele>
        <time>2020-09-10T07:07:59.882Z</time>
      </trkpt>
      <trkpt lat="48.665940" lon="16.719779">
        <ele>244.386600</ele>
        <time>2020-09-10T07:08:00.865Z</time>
      </trkpt>
      <trkpt lat="48.666039" lon="16.719797">
        <ele>244.192480</ele>
        <time>2020-09-10T07:08:01.860Z</time>
      </trkpt>
      <trkpt lat="48.666134" lon="16.719813">
        <ele>244.006392</ele>
        <time>2020-09-10T07:08:02.856Z</time>
      </trkpt>
      <trkpt lat="48.666228" lon="16.719829">
        <ele>243.822239</ele>
        <time>2020-09-10T07:08:03.843Z</time>
      </trkpt>
      <trkpt lat="48.666320" lon="16.719844">
        <ele>243.642097</ele>
        <time>2020-09-10T07:08:04.871Z</time>
      </trkpt>
      <trkpt lat="48.666410" lon="16.719861">
        <ele>243.465526</ele>
        <time>2020-09-10T07:08:05.856Z</time>
      </trkpt>
      <trkpt lat="48.666499" lon="16.719881">
        <ele>243.290361</ele>
        <time>2020-09-10T07:08:06.863Z</time>
      </trkpt>
      <trkpt lat="48.666676" lon="16.719929">
        <ele>242.940292</ele>
        <time>2020-09-10T07:08:08.853Z</time>
      </trkpt>
      <trkpt lat="48.666851" lon="16.719990">
        <ele>242.590688</ele>
        <time>2020-09-10T07:08:10.881Z</time>
      </trkpt>
      <trkpt lat="48.667021" lon="16.720063">
        <ele>242.169299</ele>
        <time>2020-09-10T07:08:12.868Z</time>
      </trkpt>
      <trkpt lat="48.667187" lon="16.720138">
        <ele>241.741413</ele>
        <time>2020-09-10T07:08:14.862Z</time>
      </trkpt>
      <trkpt lat="48.667347" lon="16.720220">
        <ele>241.324186</ele>
        <time>2020-09-10T07:08:16.869Z</time>
      </trkpt>
      <trkpt lat="48.667498" lon="16.720303">
        <ele>240.927398</ele>
        <time>2020-09-10T07:08:18.870Z</time>
      </trkpt>
      <trkpt lat="48.667640" lon="16.720392">
        <ele>240.547796</ele>
        <time>2020-09-10T07:08:20.881Z</time>
      </trkpt>
      <trkpt lat="48.667776" lon="16.720480">
        <ele>240.182487</ele>
        <time>2020-09-10T07:08:22.867Z</time>
      </trkpt>
      <trkpt lat="48.667907" lon="16.720566">
        <ele>239.829812</ele>
        <time>2020-09-10T07:08:24.874Z</time>
      </trkpt>
      <trkpt lat="48.668030" lon="16.720646">
        <ele>239.499158</ele>
        <time>2020-09-10T07:08:26.847Z</time>
      </trkpt>
      <trkpt lat="48.668147" lon="16.720718">
        <ele>239.187211</ele>
        <time>2020-09-10T07:08:28.863Z</time>
      </trkpt>
      <trkpt lat="48.668254" lon="16.720786">
        <ele>238.900585</ele>
        <time>2020-09-10T07:08:30.853Z</time>
      </trkpt>
      <trkpt lat="48.668351" lon="16.720850">
        <ele>238.639236</ele>
        <time>2020-09-10T07:08:32.878Z</time>
      </trkpt>
      <trkpt lat="48.668442" lon="16.720912">
        <ele>238.392759</ele>
        <time>2020-09-10T07:08:34.886Z</time>
      </trkpt>
      <trkpt lat="48.668526" lon="16.720971">
        <ele>238.164043</ele>
        <time>2020-09-10T07:08:36.861Z</time>
      </trkpt>
      <trkpt lat="48.668639" lon="16.721048">
        <ele>238.032535</ele>
        <time>2020-09-10T07:08:39.860Z</time>
      </trkpt>
      <trkpt lat="48.668735" lon="16.721110">
        <ele>237.967097</ele>
        <time>2020-09-10T07:08:42.883Z</time>
      </trkpt>
      <trkpt lat="48.668841" lon="16.721182">
        <ele>237.894254</ele>
        <time>2020-09-10T07:08:46.860Z</time>
      </trkpt>
      <trkpt lat="48.668926" lon="16.721268">
        <ele>237.830156</ele>
        <time>2020-09-10T07:08:50.863Z</time>
      </trkpt>
      <trkpt lat="48.669003" lon="16.721344">
        <ele>237.772526</ele>
        <time>2020-09-10T07:08:54.888Z</time>
      </trkpt>
      <trkpt lat="48.669089" lon="16.721431">
        <ele>237.707677</ele>
        <time>2020-09-10T07:08:59.856Z</time>
      </trkpt>
      <trkpt lat="48.669176" lon="16.721520">
        <ele>237.641846</ele>
        <time>2020-09-10T07:09:04.881Z</time>
      </trkpt>
      <trkpt lat="48.669260" lon="16.721603">
        <ele>237.578956</ele>
        <time>2020-09-10T07:09:09.864Z</time>
      </trkpt>
      <trkpt lat="48.669357" lon="16.721688">
        <ele>237.508687</ele>
        <time>2020-09-10T07:09:14.893Z</time>
      </trkpt>
      <trkpt lat="48.669443" lon="16.721773">
        <ele>237.444294</ele>
        <time>2020-09-10T07:09:18.889Z</time>
      </trkpt>
      <trkpt lat="48.669541" lon="16.721882">
        <ele>237.368053</ele>
        <time>2020-09-10T07:09:22.864Z</time>
      </trkpt>
      <trkpt lat="48.669630" lon="16.721964">
        <ele>237.302732</ele>
        <time>2020-09-10T07:09:25.860Z</time>
      </trkpt>
      <trkpt lat="48.669725" lon="16.722061">
        <ele>237.230890</ele>
        <time>2020-09-10T07:09:28.867Z</time>
      </trkpt>
      <trkpt lat="48.669821" lon="16.722167">
        <ele>237.156394</ele>
        <time>2020-09-10T07:09:31.869Z</time>
      </trkpt>
      <trkpt lat="48.669925" lon="16.722262">
        <ele>237.080240</ele>
        <time>2020-09-10T07:09:34.871Z</time>
      </trkpt>
      <trkpt lat="48.670031" lon="16.722369">
        <ele>237.000364</ele>
        <time>2020-09-10T07:09:37.852Z</time>
      </trkpt>
      <trkpt lat="48.670139" lon="16.722488">
        <ele>236.931377</ele>
        <time>2020-09-10T07:09:40.853Z</time>
      </trkpt>
      <trkpt lat="48.670218" lon="16.722561">
        <ele>236.891361</ele>
        <time>2020-09-10T07:09:42.867Z</time>
      </trkpt>
      <trkpt lat="48.670299" lon="16.722635">
        <ele>236.850457</ele>
        <time>2020-09-10T07:09:44.872Z</time>
      </trkpt>
      <trkpt lat="48.670381" lon="16.722722">
        <ele>236.807165</ele>
        <time>2020-09-10T07:09:46.860Z</time>
      </trkpt>
      <trkpt lat="48.670466" lon="16.722816">
        <ele>236.761655</ele>
        <time>2020-09-10T07:09:48.889Z</time>
      </trkpt>
      <trkpt lat="48.670557" lon="16.722907">
        <ele>236.714502</ele>
        <time>2020-09-10T07:09:50.861Z</time>
      </trkpt>
      <trkpt lat="48.670652" lon="16.722996">
        <ele>236.666200</ele>
        <time>2020-09-10T07:09:52.853Z</time>
      </trkpt>
      <trkpt lat="48.670752" lon="16.723092">
        <ele>236.615004</ele>
        <time>2020-09-10T07:09:54.874Z</time>
      </trkpt>
      <trkpt lat="48.670855" lon="16.723191">
        <ele>236.562255</ele>
        <time>2020-09-10T07:09:56.854Z</time>
      </trkpt>
      <trkpt lat="48.670959" lon="16.723299">
        <ele>236.507729</ele>
        <time>2020-09-10T07:09:58.846Z</time>
      </trkpt>
      <trkpt lat="48.671065" lon="16.723410">
        <ele>236.452004</ele>
        <time>2020-09-10T07:10:00.893Z</time>
      </trkpt>
      <trkpt lat="48.671171" lon="16.723519">
        <ele>236.396603</ele>
        <time>2020-09-10T07:10:02.865Z</time>
      </trkpt>
      <trkpt lat="48.671274" lon="16.723622">
        <ele>236.343233</ele>
        <time>2020-09-10T07:10:04.873Z</time>
      </trkpt>
      <trkpt lat="48.671371" lon="16.723722">
        <ele>236.292494</ele>
        <time>2020-09-10T07:10:06.870Z</time>
      </trkpt>
      <trkpt lat="48.671465" lon="16.723817">
        <ele>236.243629</ele>
        <time>2020-09-10T07:10:08.861Z</time>
      </trkpt>
      <trkpt lat="48.671560" lon="16.723902">
        <ele>236.195918</ele>
        <time>2020-09-10T07:10:10.855Z</time>
      </trkpt>
      <trkpt lat="48.671650" lon="16.723993">
        <ele>236.189866</ele>
        <time>2020-09-10T07:10:12.868Z</time>
      </trkpt>
      <trkpt lat="48.671737" lon="16.724086">
        <ele>236.194061</ele>
        <time>2020-09-10T07:10:14.871Z</time>
      </trkpt>
      <trkpt lat="48.671824" lon="16.724176">
        <ele>236.198212</ele>
        <time>2020-09-10T07:10:16.861Z</time>
      </trkpt>
      <trkpt lat="48.671914" lon="16.724265">
        <ele>236.202446</ele>
        <time>2020-09-10T07:10:18.873Z</time>
      </trkpt>
      <trkpt lat="48.672002" lon="16.724356">
        <ele>236.206644</ele>
        <time>2020-09-10T07:10:20.868Z</time>
      </trkpt>
      <trkpt lat="48.672091" lon="16.724447">
        <ele>236.210875</ele>
        <time>2020-09-10T07:10:22.857Z</time>
      </trkpt>
      <trkpt lat="48.672179" lon="16.724537">
        <ele>236.215058</ele>
        <time>2020-09-10T07:10:24.888Z</time>
      </trkpt>
      <trkpt lat="48.672267" lon="16.724627">
        <ele>236.219241</ele>
        <time>2020-09-10T07:10:26.861Z</time>
      </trkpt>
      <trkpt lat="48.672356" lon="16.724714">
        <ele>236.223414</ele>
        <time>2020-09-10T07:10:28.857Z</time>
      </trkpt>
      <trkpt lat="48.672443" lon="16.724795">
        <ele>236.227438</ele>
        <time>2020-09-10T07:10:30.860Z</time>
      </trkpt>
      <trkpt lat="48.672540" lon="16.724865">
        <ele>236.231671</ele>
        <time>2020-09-10T07:10:32.891Z</time>
      </trkpt>
      <trkpt lat="48.672640" lon="16.724921">
        <ele>236.235871</ele>
        <time>2020-09-10T07:10:34.887Z</time>
      </trkpt>
      <trkpt lat="48.672740" lon="16.724967">
        <ele>236.239988</ele>
        <time>2020-09-10T07:10:36.864Z</time>
      </trkpt>
      <trkpt lat="48.672835" lon="16.725011">
        <ele>236.243902</ele>
        <time>2020-09-10T07:10:38.889Z</time>
      </trkpt>
      <trkpt lat="48.672932" lon="16.725052">
        <ele>236.247869</ele>
        <time>2020-09-10T07:10:40.860Z</time>
      </trkpt>
      <trkpt lat="48.673036" lon="16.725083">
        <ele>236.252045</ele>
        <time>2020-09-10T07:10:42.850Z</time>
      </trkpt>
      <trkpt lat="48.673132" lon="16.725113">
        <ele>236.255906</ele>
        <time>2020-09-10T07:10:44.874Z</time>
      </trkpt>
      <trkpt lat="48.673220" lon="16.725143">
        <ele>236.235649</ele>
        <time>2020-09-10T07:10:46.861Z</time>
      </trkpt>
      <trkpt lat="48.673348" lon="16.725194">
        <ele>236.182822</ele>
        <time>2020-09-10T07:10:49.880Z</time>
      </trkpt>
      <trkpt lat="48.673466" lon="16.725234">
        <ele>236.134561</ele>
        <time>2020-09-10T07:10:52.876Z</time>
      </trkpt>
      <trkpt lat="48.673594" lon="16.725278">
        <ele>236.082174</ele>
        <time>2020-09-10T07:10:55.864Z</time>
      </trkpt>
      <trkpt lat="48.673725" lon="16.725327">
        <ele>236.028318</ele>
        <time>2020-09-10T07:10:58.873Z</time>
      </trkpt>
      <trkpt lat="48.673815" lon="16.725364">
        <ele>235.991097</ele>
        <time>2020-09-10T07:11:00.866Z</time>
      </trkpt>
      <trkpt lat="48.673912" lon="16.725401">
        <ele>235.951173</ele>
        <time>2020-09-10T07:11:02.877Z</time>
      </trkpt>
      <trkpt lat="48.674014" lon="16.725444">
        <ele>235.908915</ele>
        <time>2020-09-10T07:11:04.869Z</time>
      </trkpt>
      <trkpt lat="48.674118" lon="16.725494">
        <ele>235.865365</ele>
        <time>2020-09-10T07:11:06.858Z</time>
      </trkpt>
      <trkpt lat="48.674228" lon="16.725540">
        <ele>235.819818</ele>
        <time>2020-09-10T07:11:08.866Z</time>
      </trkpt>
      <trkpt lat="48.674350" lon="16.725588">
        <ele>235.769509</ele>
        <time>2020-09-10T07:11:10.845Z</time>
      </trkpt>
      <trkpt lat="48.674473" lon="16.725640">
        <ele>235.718540</ele>
        <time>2020-09-10T07:11:12.879Z</time>
      </trkpt>
      <trkpt lat="48.674608" lon="16.725712">
        <ele>235.661415</ele>
        <time>2020-09-10T07:11:14.883Z</time>
      </trkpt>
      <trkpt lat="48.674767" lon="16.725796">
        <ele>235.594204</ele>
        <time>2020-09-10T07:11:16.885Z</time>
      </trkpt>
      <trkpt lat="48.674854" lon="16.725835">
        <ele>235.557992</ele>
        <time>2020-09-10T07:11:17.852Z</time>
      </trkpt>
      <trkpt lat="48.674944" lon="16.725871">
        <ele>235.372590</ele>
        <time>2020-09-10T07:11:18.863Z</time>
      </trkpt>
      <trkpt lat="48.675037" lon="16.725905">
        <ele>235.030176</ele>
        <time>2020-09-10T07:11:19.863Z</time>
      </trkpt>
      <trkpt lat="48.675129" lon="16.725942">
        <ele>234.689489</ele>
        <time>2020-09-10T07:11:20.852Z</time>
      </trkpt>
      <trkpt lat="48.675290" lon="16.726010">
        <ele>234.091271</ele>
        <time>2020-09-10T07:11:22.859Z</time>
      </trkpt>
      <trkpt lat="48.675411" lon="16.726058">
        <ele>233.643594</ele>
        <time>2020-09-10T07:11:24.859Z</time>
      </trkpt>
      <trkpt lat="48.675509" lon="16.726056">
        <ele>233.292815</ele>
        <time>2020-09-10T07:11:27.847Z</time>
      </trkpt>
      <trkpt lat="48.675551" lon="16.726028">
        <ele>233.128574</ele>
        <time>2020-09-10T07:12:27.238Z</time>
      </trkpt>
      <trkpt lat="48.675640" lon="16.725957">
        <ele>232.768545</ele>
        <time>2020-09-10T07:16:30.863Z</time>
      </trkpt>
      <trkpt lat="48.675736" lon="16.725871">
        <ele>232.369343</ele>
        <time>2020-09-10T07:16:34.869Z</time>
      </trkpt>
      <trkpt lat="48.675815" lon="16.725787">
        <ele>232.023865</ele>
        <time>2020-09-10T07:16:37.878Z</time>
      </trkpt>
      <trkpt lat="48.675901" lon="16.725706">
        <ele>231.661395</ele>
        <time>2020-09-10T07:16:40.890Z</time>
      </trkpt>
      <trkpt lat="48.675987" lon="16.725628">
        <ele>231.302618</ele>
        <time>2020-09-10T07:16:43.894Z</time>
      </trkpt>
      <trkpt lat="48.676070" lon="16.725538">
        <ele>230.937261</ele>
        <time>2020-09-10T07:16:46.875Z</time>
      </trkpt>
      <trkpt lat="48.676150" lon="16.725443">
        <ele>230.573409</ele>
        <time>2020-09-10T07:16:49.892Z</time>
      </trkpt>
      <trkpt lat="48.676242" lon="16.725347">
        <ele>230.173542</ele>
        <time>2020-09-10T07:16:52.886Z</time>
      </trkpt>
      <trkpt lat="48.676332" lon="16.725235">
        <ele>229.756627</ele>
        <time>2020-09-10T07:16:55.874Z</time>
      </trkpt>
      <trkpt lat="48.676403" lon="16.725079">
        <ele>229.308862</ele>
        <time>2020-09-10T07:16:58.857Z</time>
      </trkpt>
      <trkpt lat="48.676476" lon="16.724926">
        <ele>229.176323</ele>
        <time>2020-09-10T07:17:01.860Z</time>
      </trkpt>
      <trkpt lat="48.676550" lon="16.724763">
        <ele>229.321546</ele>
        <time>2020-09-10T07:17:04.857Z</time>
      </trkpt>
      <trkpt lat="48.676596" lon="16.724644">
        <ele>229.422780</ele>
        <time>2020-09-10T07:17:06.865Z</time>
      </trkpt>
      <trkpt lat="48.676664" lon="16.724474">
        <ele>229.568700</ele>
        <time>2020-09-10T07:17:09.866Z</time>
      </trkpt>
      <trkpt lat="48.676723" lon="16.724303">
        <ele>229.710345</ele>
        <time>2020-09-10T07:17:12.866Z</time>
      </trkpt>
      <trkpt lat="48.676771" lon="16.724134">
        <ele>229.845408</ele>
        <time>2020-09-10T07:17:15.879Z</time>
      </trkpt>
      <trkpt lat="48.676812" lon="16.723964">
        <ele>229.978278</ele>
        <time>2020-09-10T07:17:18.870Z</time>
      </trkpt>
      <trkpt lat="48.676850" lon="16.723805">
        <ele>230.102419</ele>
        <time>2020-09-10T07:17:21.878Z</time>
      </trkpt>
      <trkpt lat="48.676896" lon="16.723647">
        <ele>230.229190</ele>
        <time>2020-09-10T07:17:24.879Z</time>
      </trkpt>
      <trkpt lat="48.676933" lon="16.723496">
        <ele>230.347433</ele>
        <time>2020-09-10T07:17:27.879Z</time>
      </trkpt>
      <trkpt lat="48.676977" lon="16.723367">
        <ele>230.454028</ele>
        <time>2020-09-10T07:17:30.870Z</time>
      </trkpt>
      <trkpt lat="48.677014" lon="16.723228">
        <ele>230.564054</ele>
        <time>2020-09-10T07:17:33.866Z</time>
      </trkpt>
      <trkpt lat="48.677042" lon="16.723086">
        <ele>230.672852</ele>
        <time>2020-09-10T07:17:36.860Z</time>
      </trkpt>
      <trkpt lat="48.677060" lon="16.722932">
        <ele>230.787669</ele>
        <time>2020-09-10T07:17:39.864Z</time>
      </trkpt>
      <trkpt lat="48.677076" lon="16.722749">
        <ele>230.923190</ele>
        <time>2020-09-10T07:17:42.881Z</time>
      </trkpt>
      <trkpt lat="48.677089" lon="16.722566">
        <ele>231.058315</ele>
        <time>2020-09-10T07:17:45.925Z</time>
      </trkpt>
      <trkpt lat="48.677099" lon="16.722416">
        <ele>231.166756</ele>
        <time>2020-09-10T07:17:47.861Z</time>
      </trkpt>
      <trkpt lat="48.677110" lon="16.722278">
        <ele>231.265400</ele>
        <time>2020-09-10T07:17:49.879Z</time>
      </trkpt>
      <trkpt lat="48.677117" lon="16.722140">
        <ele>231.363622</ele>
        <time>2020-09-10T07:17:51.874Z</time>
      </trkpt>
      <trkpt lat="48.677134" lon="16.721944">
        <ele>231.503911</ele>
        <time>2020-09-10T07:17:54.874Z</time>
      </trkpt>
      <trkpt lat="48.677138" lon="16.721790">
        <ele>231.613283</ele>
        <time>2020-09-10T07:17:56.871Z</time>
      </trkpt>
      <trkpt lat="48.677149" lon="16.721647">
        <ele>231.715451</ele>
        <time>2020-09-10T07:17:58.900Z</time>
      </trkpt>
      <trkpt lat="48.677160" lon="16.721501">
        <ele>231.819734</ele>
        <time>2020-09-10T07:18:00.893Z</time>
      </trkpt>
      <trkpt lat="48.677169" lon="16.721309">
        <ele>231.956332</ele>
        <time>2020-09-10T07:18:03.891Z</time>
      </trkpt>
      <trkpt lat="48.677185" lon="16.721119">
        <ele>232.092260</ele>
        <time>2020-09-10T07:18:06.878Z</time>
      </trkpt>
      <trkpt lat="48.677199" lon="16.720924">
        <ele>232.231459</ele>
        <time>2020-09-10T07:18:09.891Z</time>
      </trkpt>
      <trkpt lat="48.677211" lon="16.720737">
        <ele>232.364791</ele>
        <time>2020-09-10T07:18:12.873Z</time>
      </trkpt>
      <trkpt lat="48.677227" lon="16.720540">
        <ele>232.505648</ele>
        <time>2020-09-10T07:18:15.869Z</time>
      </trkpt>
      <trkpt lat="48.677246" lon="16.720343">
        <ele>232.646934</ele>
        <time>2020-09-10T07:18:18.869Z</time>
      </trkpt>
      <trkpt lat="48.677248" lon="16.720163">
        <ele>232.774691</ele>
        <time>2020-09-10T07:18:21.882Z</time>
      </trkpt>
      <trkpt lat="48.677257" lon="16.720024">
        <ele>232.873807</ele>
        <time>2020-09-10T07:18:24.896Z</time>
      </trkpt>
      <trkpt lat="48.677268" lon="16.719847">
        <ele>232.999972</ele>
        <time>2020-09-10T07:18:28.882Z</time>
      </trkpt>
      <trkpt lat="48.677290" lon="16.719697">
        <ele>233.131680</ele>
        <time>2020-09-10T07:18:31.878Z</time>
      </trkpt>
      <trkpt lat="48.677300" lon="16.719534">
        <ele>233.283378</ele>
        <time>2020-09-10T07:18:34.871Z</time>
      </trkpt>
      <trkpt lat="48.677318" lon="16.719392">
        <ele>233.417368</ele>
        <time>2020-09-10T07:18:37.874Z</time>
      </trkpt>
      <trkpt lat="48.677361" lon="16.719209">
        <ele>233.597367</ele>
        <time>2020-09-10T07:19:17.877Z</time>
      </trkpt>
      <trkpt lat="48.677408" lon="16.719081">
        <ele>233.733087</ele>
        <time>2020-09-10T07:19:20.901Z</time>
      </trkpt>
      <trkpt lat="48.677465" lon="16.718936">
        <ele>233.889463</ele>
        <time>2020-09-10T07:19:23.863Z</time>
      </trkpt>
      <trkpt lat="48.677508" lon="16.718755">
        <ele>234.067716</ele>
        <time>2020-09-10T07:19:26.862Z</time>
      </trkpt>
      <trkpt lat="48.677554" lon="16.718575">
        <ele>234.246573</ele>
        <time>2020-09-10T07:19:29.868Z</time>
      </trkpt>
      <trkpt lat="48.677603" lon="16.718391">
        <ele>234.430425</ele>
        <time>2020-09-10T07:19:32.871Z</time>
      </trkpt>
      <trkpt lat="48.677650" lon="16.718230">
        <ele>234.593548</ele>
        <time>2020-09-10T07:19:35.857Z</time>
      </trkpt>
      <trkpt lat="48.677693" lon="16.718080">
        <ele>234.745083</ele>
        <time>2020-09-10T07:19:38.878Z</time>
      </trkpt>
      <trkpt lat="48.677741" lon="16.717923">
        <ele>234.905408</ele>
        <time>2020-09-10T07:19:41.873Z</time>
      </trkpt>
      <trkpt lat="48.677785" lon="16.717759">
        <ele>235.069447</ele>
        <time>2020-09-10T07:19:44.861Z</time>
      </trkpt>
      <trkpt lat="48.677836" lon="16.717598">
        <ele>235.234919</ele>
        <time>2020-09-10T07:19:47.860Z</time>
      </trkpt>
      <trkpt lat="48.677874" lon="16.717434">
        <ele>235.395977</ele>
        <time>2020-09-10T07:19:50.867Z</time>
      </trkpt>
      <trkpt lat="48.677913" lon="16.717269">
        <ele>235.558377</ele>
        <time>2020-09-10T07:19:53.859Z</time>
      </trkpt>
      <trkpt lat="48.677959" lon="16.717099">
        <ele>235.680902</ele>
        <time>2020-09-10T07:19:57.855Z</time>
      </trkpt>
      <trkpt lat="48.677998" lon="16.716959">
        <ele>235.782061</ele>
        <time>2020-09-10T07:20:00.862Z</time>
      </trkpt>
      <trkpt lat="48.678053" lon="16.716804">
        <ele>235.899207</ele>
        <time>2020-09-10T07:20:03.872Z</time>
      </trkpt>
      <trkpt lat="48.678102" lon="16.716689">
        <ele>235.990324</ele>
        <time>2020-09-10T07:20:05.862Z</time>
      </trkpt>
      <trkpt lat="48.678188" lon="16.716536">
        <ele>236.124091</ele>
        <time>2020-09-10T07:20:08.872Z</time>
      </trkpt>
      <trkpt lat="48.678242" lon="16.716427">
        <ele>236.214811</ele>
        <time>2020-09-10T07:20:10.896Z</time>
      </trkpt>
      <trkpt lat="48.678293" lon="16.716310">
        <ele>236.308145</ele>
        <time>2020-09-10T07:20:12.878Z</time>
      </trkpt>
      <trkpt lat="48.678369" lon="16.716149">
        <ele>236.439903</ele>
        <time>2020-09-10T07:20:15.882Z</time>
      </trkpt>
      <trkpt lat="48.678443" lon="16.716004">
        <ele>236.561908</ele>
        <time>2020-09-10T07:20:18.910Z</time>
      </trkpt>
      <trkpt lat="48.678514" lon="16.715872">
        <ele>236.675252</ele>
        <time>2020-09-10T07:20:21.855Z</time>
      </trkpt>
      <trkpt lat="48.678577" lon="16.715747">
        <ele>236.779941</ele>
        <time>2020-09-10T07:20:24.892Z</time>
      </trkpt>
      <trkpt lat="48.678637" lon="16.715642">
        <ele>236.872386</ele>
        <time>2020-09-10T07:20:27.893Z</time>
      </trkpt>
      <trkpt lat="48.678698" lon="16.715542">
        <ele>236.963021</ele>
        <time>2020-09-10T07:20:30.901Z</time>
      </trkpt>
      <trkpt lat="48.678765" lon="16.715442">
        <ele>237.057865</ele>
        <time>2020-09-10T07:20:33.892Z</time>
      </trkpt>
      <trkpt lat="48.678838" lon="16.715348">
        <ele>237.154475</ele>
        <time>2020-09-10T07:20:36.870Z</time>
      </trkpt>
      <trkpt lat="48.678913" lon="16.715247">
        <ele>237.255664</ele>
        <time>2020-09-10T07:20:39.874Z</time>
      </trkpt>
      <trkpt lat="48.678994" lon="16.715141">
        <ele>237.363597</ele>
        <time>2020-09-10T07:20:42.858Z</time>
      </trkpt>
      <trkpt lat="48.679074" lon="16.715036">
        <ele>237.650968</ele>
        <time>2020-09-10T07:20:45.872Z</time>
      </trkpt>
      <trkpt lat="48.679149" lon="16.714937">
        <ele>237.936729</ele>
        <time>2020-09-10T07:20:48.901Z</time>
      </trkpt>
      <trkpt lat="48.679220" lon="16.714838">
        <ele>238.213933</ele>
        <time>2020-09-10T07:20:51.858Z</time>
      </trkpt>
      <trkpt lat="48.679310" lon="16.714725">
        <ele>238.549721</ele>
        <time>2020-09-10T07:20:55.875Z</time>
      </trkpt>
      <trkpt lat="48.679393" lon="16.714612">
        <ele>238.870288</ele>
        <time>2020-09-10T07:20:59.893Z</time>
      </trkpt>
      <trkpt lat="48.679478" lon="16.714499">
        <ele>239.195150</ele>
        <time>2020-09-10T07:21:03.891Z</time>
      </trkpt>
      <trkpt lat="48.679563" lon="16.714396">
        <ele>239.507825</ele>
        <time>2020-09-10T07:21:07.874Z</time>
      </trkpt>
      <trkpt lat="48.679641" lon="16.714286">
        <ele>239.813954</ele>
        <time>2020-09-10T07:21:11.885Z</time>
      </trkpt>
      <trkpt lat="48.679709" lon="16.714171">
        <ele>240.106726</ele>
        <time>2020-09-10T07:21:15.877Z</time>
      </trkpt>
      <trkpt lat="48.679771" lon="16.714065">
        <ele>240.375290</ele>
        <time>2020-09-10T07:21:19.867Z</time>
      </trkpt>
      <trkpt lat="48.679826" lon="16.713955">
        <ele>240.636971</ele>
        <time>2020-09-10T07:21:23.871Z</time>
      </trkpt>
      <trkpt lat="48.679871" lon="16.713835">
        <ele>240.898695</ele>
        <time>2020-09-10T07:21:27.872Z</time>
      </trkpt>
      <trkpt lat="48.679926" lon="16.713711">
        <ele>241.181996</ele>
        <time>2020-09-10T07:21:32.864Z</time>
      </trkpt>
      <trkpt lat="48.679969" lon="16.713582">
        <ele>241.456053</ele>
        <time>2020-09-10T07:21:37.869Z</time>
      </trkpt>
      <trkpt lat="48.680004" lon="16.713440">
        <ele>241.743507</ele>
        <time>2020-09-10T07:21:42.881Z</time>
      </trkpt>
      <trkpt lat="48.680026" lon="16.713281">
        <ele>242.051599</ele>
        <time>2020-09-10T07:21:47.876Z</time>
      </trkpt>
      <trkpt lat="48.680046" lon="16.713148">
        <ele>242.310291</ele>
        <time>2020-09-10T07:21:51.881Z</time>
      </trkpt>
      <trkpt lat="48.680076" lon="16.712997">
        <ele>242.652610</ele>
        <time>2020-09-10T07:21:56.875Z</time>
      </trkpt>
      <trkpt lat="48.680111" lon="16.712841">
        <ele>243.157015</ele>
        <time>2020-09-10T07:22:01.886Z</time>
      </trkpt>
      <trkpt lat="48.680147" lon="16.712690">
        <ele>243.648506</ele>
        <time>2020-09-10T07:22:06.870Z</time>
      </trkpt>
      <trkpt lat="48.680179" lon="16.712543">
        <ele>244.122367</ele>
        <time>2020-09-10T07:22:11.878Z</time>
      </trkpt>
      <trkpt lat="48.680209" lon="16.712394">
        <ele>244.599259</ele>
        <time>2020-09-10T07:22:16.896Z</time>
      </trkpt>
      <trkpt lat="48.680246" lon="16.712258">
        <ele>245.049575</ele>
        <time>2020-09-10T07:22:21.867Z</time>
      </trkpt>
      <trkpt lat="48.680298" lon="16.712112">
        <ele>245.557429</ele>
        <time>2020-09-10T07:22:26.865Z</time>
      </trkpt>
      <trkpt lat="48.680418" lon="16.711890">
        <ele>246.435776</ele>
        <time>2020-09-10T07:23:07.855Z</time>
      </trkpt>
      <trkpt lat="48.680478" lon="16.711787">
        <ele>246.856285</ele>
        <time>2020-09-10T07:23:11.849Z</time>
      </trkpt>
      <trkpt lat="48.680544" lon="16.711688">
        <ele>247.286991</ele>
        <time>2020-09-10T07:23:15.850Z</time>
      </trkpt>
      <trkpt lat="48.680607" lon="16.711579">
        <ele>247.730479</ele>
        <time>2020-09-10T07:23:19.851Z</time>
      </trkpt>
      <trkpt lat="48.680675" lon="16.711469">
        <ele>248.191799</ele>
        <time>2020-09-10T07:23:23.851Z</time>
      </trkpt>
      <trkpt lat="48.680757" lon="16.711351">
        <ele>248.716260</ele>
        <time>2020-09-10T07:23:27.857Z</time>
      </trkpt>
      <trkpt lat="48.680827" lon="16.711226">
        <ele>249.218043</ele>
        <time>2020-09-10T07:23:31.849Z</time>
      </trkpt>
      <trkpt lat="48.680897" lon="16.711101">
        <ele>249.719825</ele>
        <time>2020-09-10T07:23:35.851Z</time>
      </trkpt>
      <trkpt lat="48.680971" lon="16.710981">
        <ele>250.222506</ele>
        <time>2020-09-10T07:23:39.851Z</time>
      </trkpt>
      <trkpt lat="48.681033" lon="16.710864">
        <ele>250.681785</ele>
        <time>2020-09-10T07:23:43.848Z</time>
      </trkpt>
      <trkpt lat="48.681081" lon="16.710722">
        <ele>251.147656</ele>
        <time>2020-09-10T07:23:47.850Z</time>
      </trkpt>
      <trkpt lat="48.681132" lon="16.710584">
        <ele>251.594419</ele>
        <time>2020-09-10T07:23:51.853Z</time>
      </trkpt>
      <trkpt lat="48.681164" lon="16.710436">
        <ele>252.034363</ele>
        <time>2020-09-10T07:23:55.850Z</time>
      </trkpt>
      <trkpt lat="48.681193" lon="16.710306">
        <ele>252.422006</ele>
        <time>2020-09-10T07:23:59.849Z</time>
      </trkpt>
      <trkpt lat="48.681225" lon="16.710168">
        <ele>252.835197</ele>
        <time>2020-09-10T07:24:04.856Z</time>
      </trkpt>
      <trkpt lat="48.681263" lon="16.710031">
        <ele>253.254983</ele>
        <time>2020-09-10T07:24:09.854Z</time>
      </trkpt>
      <trkpt lat="48.681291" lon="16.709893">
        <ele>253.662822</ele>
        <time>2020-09-10T07:24:14.853Z</time>
      </trkpt>
      <trkpt lat="48.681322" lon="16.709743">
        <ele>254.106841</ele>
        <time>2020-09-10T07:24:19.870Z</time>
      </trkpt>
      <trkpt lat="48.681363" lon="16.709610">
        <ele>254.521498</ele>
        <time>2020-09-10T07:24:24.890Z</time>
      </trkpt>
      <trkpt lat="48.681418" lon="16.709481">
        <ele>254.955296</ele>
        <time>2020-09-10T07:24:30.893Z</time>
      </trkpt>
      <trkpt lat="48.681472" lon="16.709352">
        <ele>255.386788</ele>
        <time>2020-09-10T07:24:36.871Z</time>
      </trkpt>
      <trkpt lat="48.681536" lon="16.709247">
        <ele>255.790482</ele>
        <time>2020-09-10T07:24:42.881Z</time>
      </trkpt>
      <trkpt lat="48.681607" lon="16.709138">
        <ele>256.223032</ele>
        <time>2020-09-10T07:24:49.876Z</time>
      </trkpt>
      <trkpt lat="48.681670" lon="16.709039">
        <ele>256.611459</ele>
        <time>2020-09-10T07:24:56.854Z</time>
      </trkpt>
      <trkpt lat="48.681728" lon="16.708935">
        <ele>256.996037</ele>
        <time>2020-09-10T07:25:03.859Z</time>
      </trkpt>
      <trkpt lat="48.681793" lon="16.708842">
        <ele>257.378618</ele>
        <time>2020-09-10T07:25:11.861Z</time>
      </trkpt>
      <trkpt lat="48.681862" lon="16.708730">
        <ele>257.811358</ele>
        <time>2020-09-10T07:25:19.858Z</time>
      </trkpt>
      <trkpt lat="48.681937" lon="16.708644">
        <ele>258.213848</ele>
        <time>2020-09-10T07:25:26.879Z</time>
      </trkpt>
      <trkpt lat="48.682010" lon="16.708530">
        <ele>258.634058</ele>
        <time>2020-09-10T07:25:34.853Z</time>
      </trkpt>
      <trkpt lat="48.682081" lon="16.708430">
        <ele>258.914919</ele>
        <time>2020-09-10T07:25:41.873Z</time>
      </trkpt>
      <trkpt lat="48.682096" lon="16.708275">
        <ele>259.214540</ele>
        <time>2020-09-10T07:25:48.889Z</time>
      </trkpt>
      <trkpt lat="48.682060" lon="16.708146">
        <ele>259.482400</ele>
        <time>2020-09-10T07:25:52.871Z</time>
      </trkpt>
      <trkpt lat="48.682009" lon="16.707994">
        <ele>259.808501</ele>
        <time>2020-09-10T07:25:56.905Z</time>
      </trkpt>
      <trkpt lat="48.681962" lon="16.707833">
        <ele>260.145187</ele>
        <time>2020-09-10T07:26:00.861Z</time>
      </trkpt>
      <trkpt lat="48.681918" lon="16.707702">
        <ele>260.426296</ele>
        <time>2020-09-10T07:26:03.874Z</time>
      </trkpt>
      <trkpt lat="48.681882" lon="16.707551">
        <ele>260.733352</ele>
        <time>2020-09-10T07:26:06.863Z</time>
      </trkpt>
      <trkpt lat="48.681896" lon="16.707376">
        <ele>261.070506</ele>
        <time>2020-09-10T07:26:09.872Z</time>
      </trkpt>
      <trkpt lat="48.681961" lon="16.707254">
        <ele>261.370342</ele>
        <time>2020-09-10T07:26:12.867Z</time>
      </trkpt>
      <trkpt lat="48.682033" lon="16.707153">
        <ele>261.654627</ele>
        <time>2020-09-10T07:26:15.879Z</time>
      </trkpt>
      <trkpt lat="48.682110" lon="16.707053">
        <ele>261.948455</ele>
        <time>2020-09-10T07:26:18.860Z</time>
      </trkpt>
      <trkpt lat="48.682178" lon="16.706956">
        <ele>262.219049</ele>
        <time>2020-09-10T07:26:21.881Z</time>
      </trkpt>
      <trkpt lat="48.682250" lon="16.706873">
        <ele>262.481161</ele>
        <time>2020-09-10T07:26:24.871Z</time>
      </trkpt>
      <trkpt lat="48.682324" lon="16.706780">
        <ele>262.759713</ele>
        <time>2020-09-10T07:26:27.869Z</time>
      </trkpt>
      <trkpt lat="48.682416" lon="16.706659">
        <ele>263.112677</ele>
        <time>2020-09-10T07:26:31.878Z</time>
      </trkpt>
      <trkpt lat="48.682502" lon="16.706544">
        <ele>263.445005</ele>
        <time>2020-09-10T07:26:35.865Z</time>
      </trkpt>
      <trkpt lat="48.682579" lon="16.706457">
        <ele>263.723288</ele>
        <time>2020-09-10T07:26:38.877Z</time>
      </trkpt>
      <trkpt lat="48.682663" lon="16.706372">
        <ele>264.034419</ele>
        <time>2020-09-10T07:26:41.874Z</time>
      </trkpt>
      <trkpt lat="48.682750" lon="16.706246">
        <ele>264.411014</ele>
        <time>2020-09-10T07:26:45.863Z</time>
      </trkpt>
      <trkpt lat="48.682821" lon="16.706149">
        <ele>264.710158</ele>
        <time>2020-09-10T07:26:48.867Z</time>
      </trkpt>
      <trkpt lat="48.682899" lon="16.706054">
        <ele>265.023299</ele>
        <time>2020-09-10T07:26:51.890Z</time>
      </trkpt>
      <trkpt lat="48.682976" lon="16.705950">
        <ele>265.346071</ele>
        <time>2020-09-10T07:26:54.884Z</time>
      </trkpt>
      <trkpt lat="48.683051" lon="16.705843">
        <ele>265.668417</ele>
        <time>2020-09-10T07:26:57.878Z</time>
      </trkpt>
      <trkpt lat="48.683136" lon="16.705743">
        <ele>266.005144</ele>
        <time>2020-09-10T07:27:00.875Z</time>
      </trkpt>
      <trkpt lat="48.683217" lon="16.705629">
        <ele>266.351076</ele>
        <time>2020-09-10T07:27:03.899Z</time>
      </trkpt>
      <trkpt lat="48.683282" lon="16.705488">
        <ele>266.706292</ele>
        <time>2020-09-10T07:27:06.881Z</time>
      </trkpt>
      <trkpt lat="48.683343" lon="16.705318">
        <ele>267.105949</ele>
        <time>2020-09-10T07:27:09.848Z</time>
      </trkpt>
      <trkpt lat="48.683383" lon="16.705192">
        <ele>267.394734</ele>
        <time>2020-09-10T07:27:11.858Z</time>
      </trkpt>
      <trkpt lat="48.683424" lon="16.705053">
        <ele>267.709198</ele>
        <time>2020-09-10T07:27:13.884Z</time>
      </trkpt>
      <trkpt lat="48.683467" lon="16.704909">
        <ele>268.035648</ele>
        <time>2020-09-10T07:27:15.907Z</time>
      </trkpt>
      <trkpt lat="48.683513" lon="16.704761">
        <ele>268.373532</ele>
        <time>2020-09-10T07:27:17.865Z</time>
      </trkpt>
      <trkpt lat="48.683560" lon="16.704607">
        <ele>268.723970</ele>
        <time>2020-09-10T07:27:19.865Z</time>
      </trkpt>
      <trkpt lat="48.683610" lon="16.704455">
        <ele>269.074747</ele>
        <time>2020-09-10T07:27:21.902Z</time>
      </trkpt>
      <trkpt lat="48.683653" lon="16.704302">
        <ele>269.426343</ele>
        <time>2020-09-10T07:27:23.905Z</time>
      </trkpt>
      <trkpt lat="48.683692" lon="16.704148">
        <ele>270.219076</ele>
        <time>2020-09-10T07:27:25.853Z</time>
      </trkpt>
      <trkpt lat="48.683736" lon="16.704006">
        <ele>270.972979</ele>
        <time>2020-09-10T07:27:27.883Z</time>
      </trkpt>
      <trkpt lat="48.683778" lon="16.703878">
        <ele>271.659956</ele>
        <time>2020-09-10T07:27:29.889Z</time>
      </trkpt>
      <trkpt lat="48.683824" lon="16.703760">
        <ele>272.318567</ele>
        <time>2020-09-10T07:27:31.882Z</time>
      </trkpt>
      <trkpt lat="48.683900" lon="16.703620">
        <ele>273.189679</ele>
        <time>2020-09-10T07:27:34.865Z</time>
      </trkpt>
      <trkpt lat="48.683971" lon="16.703488">
        <ele>274.007982</ele>
        <time>2020-09-10T07:27:37.894Z</time>
      </trkpt>
      <trkpt lat="48.684037" lon="16.703379">
        <ele>274.718813</ele>
        <time>2020-09-10T07:27:40.878Z</time>
      </trkpt>
      <trkpt lat="48.684115" lon="16.703249">
        <ele>275.563080</ele>
        <time>2020-09-10T07:27:44.868Z</time>
      </trkpt>
      <trkpt lat="48.684186" lon="16.703138">
        <ele>276.305874</ele>
        <time>2020-09-10T07:27:48.872Z</time>
      </trkpt>
      <trkpt lat="48.684255" lon="16.703031">
        <ele>277.024735</ele>
        <time>2020-09-10T07:27:52.863Z</time>
      </trkpt>
      <trkpt lat="48.684324" lon="16.702933">
        <ele>277.713317</ele>
        <time>2020-09-10T07:27:56.874Z</time>
      </trkpt>
      <trkpt lat="48.684396" lon="16.702833">
        <ele>278.424448</ele>
        <time>2020-09-10T07:28:00.862Z</time>
      </trkpt>
      <trkpt lat="48.684469" lon="16.702726">
        <ele>279.163948</ele>
        <time>2020-09-10T07:28:05.893Z</time>
      </trkpt>
      <trkpt lat="48.684557" lon="16.702639">
        <ele>279.928943</ele>
        <time>2020-09-10T07:28:10.872Z</time>
      </trkpt>
      <trkpt lat="48.684651" lon="16.702567">
        <ele>280.695753</ele>
        <time>2020-09-10T07:28:14.852Z</time>
      </trkpt>
      <trkpt lat="48.684755" lon="16.702498">
        <ele>281.522284</ele>
        <time>2020-09-10T07:28:18.894Z</time>
      </trkpt>
      <trkpt lat="48.684850" lon="16.702436">
        <ele>282.275318</ele>
        <time>2020-09-10T07:28:22.859Z</time>
      </trkpt>
      <trkpt lat="48.684833" lon="16.702439">
        <ele>282.399910</ele>
        <time>2020-09-10T07:28:33.587Z</time>
      </trkpt>
      <trkpt lat="48.685049" lon="16.702251">
        <ele>283.820515</ele>
        <time>2020-09-10T07:31:14.876Z</time>
      </trkpt>
      <trkpt lat="48.685163" lon="16.702154">
        <ele>284.553374</ele>
        <time>2020-09-10T07:31:17.863Z</time>
      </trkpt>
      <trkpt lat="48.685251" lon="16.702073">
        <ele>285.130524</ele>
        <time>2020-09-10T07:31:19.863Z</time>
      </trkpt>
      <trkpt lat="48.685347" lon="16.701987">
        <ele>285.755644</ele>
        <time>2020-09-10T07:31:21.861Z</time>
      </trkpt>
      <trkpt lat="48.685436" lon="16.701902">
        <ele>286.345349</ele>
        <time>2020-09-10T07:31:23.872Z</time>
      </trkpt>
      <trkpt lat="48.685523" lon="16.701821">
        <ele>286.917715</ele>
        <time>2020-09-10T07:31:25.859Z</time>
      </trkpt>
      <trkpt lat="48.685629" lon="16.701740">
        <ele>287.583145</ele>
        <time>2020-09-10T07:31:27.853Z</time>
      </trkpt>
      <trkpt lat="48.685746" lon="16.701665">
        <ele>288.295212</ele>
        <time>2020-09-10T07:31:29.854Z</time>
      </trkpt>
      <trkpt lat="48.685859" lon="16.701589">
        <ele>288.988181</ele>
        <time>2020-09-10T07:31:31.853Z</time>
      </trkpt>
      <trkpt lat="48.685976" lon="16.701506">
        <ele>289.712297</ele>
        <time>2020-09-10T07:31:33.849Z</time>
      </trkpt>
      <trkpt lat="48.686084" lon="16.701433">
        <ele>290.375149</ele>
        <time>2020-09-10T07:31:35.853Z</time>
      </trkpt>
      <trkpt lat="48.686434" lon="16.701236">
        <ele>292.467884</ele>
        <time>2020-09-10T07:32:13.844Z</time>
      </trkpt>
      <trkpt lat="48.686543" lon="16.701174">
        <ele>292.320943</ele>
        <time>2020-09-10T07:32:15.843Z</time>
      </trkpt>
      <trkpt lat="48.686679" lon="16.701099">
        <ele>291.917029</ele>
        <time>2020-09-10T07:32:17.857Z</time>
      </trkpt>
      <trkpt lat="48.686828" lon="16.701015">
        <ele>291.473341</ele>
        <time>2020-09-10T07:32:19.853Z</time>
      </trkpt>
      <trkpt lat="48.686913" lon="16.700968">
        <ele>291.220816</ele>
        <time>2020-09-10T07:32:20.854Z</time>
      </trkpt>
      <trkpt lat="48.687014" lon="16.700922">
        <ele>290.926484</ele>
        <time>2020-09-10T07:32:21.855Z</time>
      </trkpt>
      <trkpt lat="48.687119" lon="16.700874">
        <ele>290.620401</ele>
        <time>2020-09-10T07:32:22.900Z</time>
      </trkpt>
      <trkpt lat="48.687224" lon="16.700824">
        <ele>290.313233</ele>
        <time>2020-09-10T07:32:23.882Z</time>
      </trkpt>
      <trkpt lat="48.687328" lon="16.700773">
        <ele>290.008164</ele>
        <time>2020-09-10T07:32:24.856Z</time>
      </trkpt>
      <trkpt lat="48.687432" lon="16.700722">
        <ele>289.703095</ele>
        <time>2020-09-10T07:32:25.866Z</time>
      </trkpt>
      <trkpt lat="48.687538" lon="16.700670">
        <ele>289.392149</ele>
        <time>2020-09-10T07:32:26.854Z</time>
      </trkpt>
      <trkpt lat="48.687646" lon="16.700621">
        <ele>289.077518</ele>
        <time>2020-09-10T07:32:27.857Z</time>
      </trkpt>
      <trkpt lat="48.687756" lon="16.700574">
        <ele>288.758556</ele>
        <time>2020-09-10T07:32:28.868Z</time>
      </trkpt>
      <trkpt lat="48.687866" lon="16.700525">
        <ele>288.438575</ele>
        <time>2020-09-10T07:32:29.864Z</time>
      </trkpt>
      <trkpt lat="48.687972" lon="16.700475">
        <ele>288.128744</ele>
        <time>2020-09-10T07:32:30.871Z</time>
      </trkpt>
      <trkpt lat="48.688074" lon="16.700426">
        <ele>287.830115</ele>
        <time>2020-09-10T07:32:31.885Z</time>
      </trkpt>
      <trkpt lat="48.688175" lon="16.700379">
        <ele>287.525907</ele>
        <time>2020-09-10T07:32:32.847Z</time>
      </trkpt>
      <trkpt lat="48.688274" lon="16.700336">
        <ele>287.154293</ele>
        <time>2020-09-10T07:32:33.886Z</time>
      </trkpt>
      <trkpt lat="48.688367" lon="16.700287">
        <ele>286.799004</ele>
        <time>2020-09-10T07:32:34.870Z</time>
      </trkpt>
      <trkpt lat="48.688456" lon="16.700239">
        <ele>286.458120</ele>
        <time>2020-09-10T07:32:35.880Z</time>
      </trkpt>
      <trkpt lat="48.688544" lon="16.700198">
        <ele>286.125912</ele>
        <time>2020-09-10T07:32:36.861Z</time>
      </trkpt>
      <trkpt lat="48.688711" lon="16.700124">
        <ele>285.498078</ele>
        <time>2020-09-10T07:32:38.867Z</time>
      </trkpt>
      <trkpt lat="48.688874" lon="16.700043">
        <ele>284.879090</ele>
        <time>2020-09-10T07:32:40.864Z</time>
      </trkpt>
      <trkpt lat="48.689030" lon="16.699946">
        <ele>284.270623</ele>
        <time>2020-09-10T07:32:42.868Z</time>
      </trkpt>
      <trkpt lat="48.689185" lon="16.699847">
        <ele>283.663658</ele>
        <time>2020-09-10T07:32:44.862Z</time>
      </trkpt>
      <trkpt lat="48.689352" lon="16.699731">
        <ele>283.000747</ele>
        <time>2020-09-10T07:32:46.888Z</time>
      </trkpt>
      <trkpt lat="48.689444" lon="16.699677">
        <ele>282.644737</ele>
        <time>2020-09-10T07:32:47.876Z</time>
      </trkpt>
      <trkpt lat="48.689540" lon="16.699624">
        <ele>282.276054</ele>
        <time>2020-09-10T07:32:48.854Z</time>
      </trkpt>
      <trkpt lat="48.689639" lon="16.699572">
        <ele>281.897970</ele>
        <time>2020-09-10T07:32:49.862Z</time>
      </trkpt>
      <trkpt lat="48.689743" lon="16.699522">
        <ele>281.504264</ele>
        <time>2020-09-10T07:32:50.854Z</time>
      </trkpt>
      <trkpt lat="48.689853" lon="16.699477">
        <ele>281.093134</ele>
        <time>2020-09-10T07:32:51.854Z</time>
      </trkpt>
      <trkpt lat="48.689965" lon="16.699430">
        <ele>280.738653</ele>
        <time>2020-09-10T07:32:52.862Z</time>
      </trkpt>
      <trkpt lat="48.690079" lon="16.699385">
        <ele>280.381933</ele>
        <time>2020-09-10T07:32:53.865Z</time>
      </trkpt>
      <trkpt lat="48.690193" lon="16.699343">
        <ele>280.026678</ele>
        <time>2020-09-10T07:32:54.868Z</time>
      </trkpt>
      <trkpt lat="48.690304" lon="16.699302">
        <ele>279.680723</ele>
        <time>2020-09-10T07:32:55.864Z</time>
      </trkpt>
      <trkpt lat="48.690413" lon="16.699268">
        <ele>279.343746</ele>
        <time>2020-09-10T07:32:56.857Z</time>
      </trkpt>
      <trkpt lat="48.690520" lon="16.699232">
        <ele>279.011855</ele>
        <time>2020-09-10T07:32:57.867Z</time>
      </trkpt>
      <trkpt lat="48.690627" lon="16.699184">
        <ele>278.673951</ele>
        <time>2020-09-10T07:32:58.869Z</time>
      </trkpt>
      <trkpt lat="48.690727" lon="16.699145">
        <ele>278.361277</ele>
        <time>2020-09-10T07:32:59.865Z</time>
      </trkpt>
      <trkpt lat="48.690830" lon="16.699103">
        <ele>278.038291</ele>
        <time>2020-09-10T07:33:00.851Z</time>
      </trkpt>
      <trkpt lat="48.690922" lon="16.699077">
        <ele>277.754908</ele>
        <time>2020-09-10T07:33:01.871Z</time>
      </trkpt>
      <trkpt lat="48.691090" lon="16.698994">
        <ele>277.219834</ele>
        <time>2020-09-10T07:33:03.890Z</time>
      </trkpt>
      <trkpt lat="48.691243" lon="16.698908">
        <ele>276.725686</ele>
        <time>2020-09-10T07:33:05.863Z</time>
      </trkpt>
      <trkpt lat="48.691381" lon="16.698819">
        <ele>276.271530</ele>
        <time>2020-09-10T07:33:07.859Z</time>
      </trkpt>
      <trkpt lat="48.691500" lon="16.698734">
        <ele>275.873151</ele>
        <time>2020-09-10T07:33:09.879Z</time>
      </trkpt>
      <trkpt lat="48.691603" lon="16.698668">
        <ele>275.627034</ele>
        <time>2020-09-10T07:33:11.888Z</time>
      </trkpt>
      <trkpt lat="48.691692" lon="16.698597">
        <ele>275.615013</ele>
        <time>2020-09-10T07:33:13.870Z</time>
      </trkpt>
      <trkpt lat="48.691777" lon="16.698541">
        <ele>275.603936</ele>
        <time>2020-09-10T07:33:15.860Z</time>
      </trkpt>
      <trkpt lat="48.691870" lon="16.698468">
        <ele>275.591419</ele>
        <time>2020-09-10T07:33:18.861Z</time>
      </trkpt>
      <trkpt lat="48.691962" lon="16.698413">
        <ele>275.579599</ele>
        <time>2020-09-10T07:33:22.882Z</time>
      </trkpt>
      <trkpt lat="48.692051" lon="16.698360">
        <ele>275.568171</ele>
        <time>2020-09-10T07:33:27.865Z</time>
      </trkpt>
      <trkpt lat="48.692147" lon="16.698307">
        <ele>275.555960</ele>
        <time>2020-09-10T07:33:33.853Z</time>
      </trkpt>
      <trkpt lat="48.692225" lon="16.698237">
        <ele>275.545126</ele>
        <time>2020-09-10T07:33:39.868Z</time>
      </trkpt>
      <trkpt lat="48.692313" lon="16.698155">
        <ele>275.532779</ele>
        <time>2020-09-10T07:33:46.895Z</time>
      </trkpt>
      <trkpt lat="48.692398" lon="16.698087">
        <ele>275.521292</ele>
        <time>2020-09-10T07:33:52.851Z</time>
      </trkpt>
      <trkpt lat="48.692479" lon="16.698026">
        <ele>275.510482</ele>
        <time>2020-09-10T07:33:59.858Z</time>
      </trkpt>
      <trkpt lat="48.692572" lon="16.697968">
        <ele>275.498463</ele>
        <time>2020-09-10T07:34:07.869Z</time>
      </trkpt>
      <trkpt lat="48.692657" lon="16.697905">
        <ele>275.487154</ele>
        <time>2020-09-10T07:34:15.856Z</time>
      </trkpt>
      <trkpt lat="48.692739" lon="16.697844">
        <ele>275.476237</ele>
        <time>2020-09-10T07:34:22.853Z</time>
      </trkpt>
      <trkpt lat="48.692825" lon="16.697799">
        <ele>275.465363</ele>
        <time>2020-09-10T07:34:30.863Z</time>
      </trkpt>
      <trkpt lat="48.692917" lon="16.697744">
        <ele>275.453544</ele>
        <time>2020-09-10T07:34:39.886Z</time>
      </trkpt>
      <trkpt lat="48.693006" lon="16.697705">
        <ele>275.442472</ele>
        <time>2020-09-10T07:34:48.854Z</time>
      </trkpt>
      <trkpt lat="48.693097" lon="16.697663">
        <ele>275.431103</ele>
        <time>2020-09-10T07:34:58.878Z</time>
      </trkpt>
      <trkpt lat="48.693183" lon="16.697613">
        <ele>275.420095</ele>
        <time>2020-09-10T07:35:06.853Z</time>
      </trkpt>
      <trkpt lat="48.693279" lon="16.697575">
        <ele>275.538493</ele>
        <time>2020-09-10T07:35:16.862Z</time>
      </trkpt>
      <trkpt lat="48.693370" lon="16.697530">
        <ele>275.721845</ele>
        <time>2020-09-10T07:35:24.884Z</time>
      </trkpt>
      <trkpt lat="48.693442" lon="16.697500">
        <ele>275.864875</ele>
        <time>2020-09-10T07:35:43.376Z</time>
      </trkpt>
      <trkpt lat="48.693596" lon="16.697416">
        <ele>276.178384</ele>
        <time>2020-09-10T07:37:18.848Z</time>
      </trkpt>
      <trkpt lat="48.693702" lon="16.697360">
        <ele>276.393408</ele>
        <time>2020-09-10T07:37:21.877Z</time>
      </trkpt>
      <trkpt lat="48.693791" lon="16.697314">
        <ele>276.573527</ele>
        <time>2020-09-10T07:37:23.873Z</time>
      </trkpt>
      <trkpt lat="48.693885" lon="16.697263">
        <ele>276.764773</ele>
        <time>2020-09-10T07:37:25.883Z</time>
      </trkpt>
      <trkpt lat="48.693985" lon="16.697206">
        <ele>276.969422</ele>
        <time>2020-09-10T07:37:27.863Z</time>
      </trkpt>
      <trkpt lat="48.694099" lon="16.697147">
        <ele>277.200168</ele>
        <time>2020-09-10T07:37:29.885Z</time>
      </trkpt>
      <trkpt lat="48.694232" lon="16.697088">
        <ele>277.465613</ele>
        <time>2020-09-10T07:37:31.866Z</time>
      </trkpt>
      <trkpt lat="48.694377" lon="16.697022">
        <ele>277.755611</ele>
        <time>2020-09-10T07:37:33.899Z</time>
      </trkpt>
      <trkpt lat="48.694538" lon="16.696939">
        <ele>278.081357</ele>
        <time>2020-09-10T07:37:35.865Z</time>
      </trkpt>
      <trkpt lat="48.694627" lon="16.696898">
        <ele>278.259534</ele>
        <time>2020-09-10T07:37:36.880Z</time>
      </trkpt>
      <trkpt lat="48.694720" lon="16.696859">
        <ele>278.444365</ele>
        <time>2020-09-10T07:37:37.896Z</time>
      </trkpt>
      <trkpt lat="48.694814" lon="16.696818">
        <ele>278.631727</ele>
        <time>2020-09-10T07:37:38.871Z</time>
      </trkpt>
      <trkpt lat="48.694912" lon="16.696773">
        <ele>278.827869</ele>
        <time>2020-09-10T07:37:39.875Z</time>
      </trkpt>
      <trkpt lat="48.695015" lon="16.696727">
        <ele>278.546297</ele>
        <time>2020-09-10T07:37:40.890Z</time>
      </trkpt>
      <trkpt lat="48.695122" lon="16.696674">
        <ele>278.152983</ele>
        <time>2020-09-10T07:37:41.858Z</time>
      </trkpt>
      <trkpt lat="48.695235" lon="16.696617">
        <ele>277.736870</ele>
        <time>2020-09-10T07:37:42.856Z</time>
      </trkpt>
      <trkpt lat="48.695352" lon="16.696565">
        <ele>277.310864</ele>
        <time>2020-09-10T07:37:43.868Z</time>
      </trkpt>
      <trkpt lat="48.695473" lon="16.696518">
        <ele>276.874436</ele>
        <time>2020-09-10T07:37:44.860Z</time>
      </trkpt>
      <trkpt lat="48.695594" lon="16.696472">
        <ele>276.438575</ele>
        <time>2020-09-10T07:37:45.876Z</time>
      </trkpt>
      <trkpt lat="48.695706" lon="16.696436">
        <ele>276.038555</ele>
        <time>2020-09-10T07:37:46.850Z</time>
      </trkpt>
      <trkpt lat="48.695818" lon="16.696405">
        <ele>275.640768</ele>
        <time>2020-09-10T07:37:47.850Z</time>
      </trkpt>
      <trkpt lat="48.695931" lon="16.696371">
        <ele>275.238254</ele>
        <time>2020-09-10T07:37:48.850Z</time>
      </trkpt>
      <trkpt lat="48.696048" lon="16.696334">
        <ele>274.820664</ele>
        <time>2020-09-10T07:37:49.853Z</time>
      </trkpt>
      <trkpt lat="48.696165" lon="16.696292">
        <ele>274.400567</ele>
        <time>2020-09-10T07:37:50.854Z</time>
      </trkpt>
      <trkpt lat="48.696278" lon="16.696253">
        <ele>273.995649</ele>
        <time>2020-09-10T07:37:51.853Z</time>
      </trkpt>
      <trkpt lat="48.696381" lon="16.696218">
        <ele>273.626843</ele>
        <time>2020-09-10T07:37:52.863Z</time>
      </trkpt>
      <trkpt lat="48.696473" lon="16.696182">
        <ele>273.294862</ele>
        <time>2020-09-10T07:37:53.854Z</time>
      </trkpt>
      <trkpt lat="48.696563" lon="16.696143">
        <ele>272.967807</ele>
        <time>2020-09-10T07:37:54.851Z</time>
      </trkpt>
      <trkpt lat="48.696656" lon="16.696108">
        <ele>272.633005</ele>
        <time>2020-09-10T07:37:55.910Z</time>
      </trkpt>
      <trkpt lat="48.696752" lon="16.696067">
        <ele>272.255149</ele>
        <time>2020-09-10T07:37:56.853Z</time>
      </trkpt>
      <trkpt lat="48.696849" lon="16.696038">
        <ele>271.874997</ele>
        <time>2020-09-10T07:37:57.867Z</time>
      </trkpt>
      <trkpt lat="48.696943" lon="16.696005">
        <ele>271.503997</ele>
        <time>2020-09-10T07:37:58.870Z</time>
      </trkpt>
      <trkpt lat="48.697112" lon="16.695951">
        <ele>270.839908</ele>
        <time>2020-09-10T07:38:00.860Z</time>
      </trkpt>
      <trkpt lat="48.697279" lon="16.695936">
        <ele>270.196675</ele>
        <time>2020-09-10T07:38:02.883Z</time>
      </trkpt>
      <trkpt lat="48.697436" lon="16.695952">
        <ele>269.591655</ele>
        <time>2020-09-10T07:38:04.898Z</time>
      </trkpt>
      <trkpt lat="48.697593" lon="16.695965">
        <ele>268.987099</ele>
        <time>2020-09-10T07:38:06.878Z</time>
      </trkpt>
      <trkpt lat="48.697744" lon="16.695944">
        <ele>268.404072</ele>
        <time>2020-09-10T07:38:08.877Z</time>
      </trkpt>
      <trkpt lat="48.697890" lon="16.695940">
        <ele>267.842618</ele>
        <time>2020-09-10T07:38:10.867Z</time>
      </trkpt>
      <trkpt lat="48.698029" lon="16.695919">
        <ele>267.305521</ele>
        <time>2020-09-10T07:38:12.883Z</time>
      </trkpt>
      <trkpt lat="48.698162" lon="16.695879">
        <ele>266.784166</ele>
        <time>2020-09-10T07:38:14.862Z</time>
      </trkpt>
      <trkpt lat="48.698289" lon="16.695823">
        <ele>266.275599</ele>
        <time>2020-09-10T07:38:16.907Z</time>
      </trkpt>
      <trkpt lat="48.698416" lon="16.695767">
        <ele>265.767031</ele>
        <time>2020-09-10T07:38:18.896Z</time>
      </trkpt>
      <trkpt lat="48.698533" lon="16.695704">
        <ele>265.321593</ele>
        <time>2020-09-10T07:38:20.864Z</time>
      </trkpt>
      <trkpt lat="48.698642" lon="16.695646">
        <ele>264.915637</ele>
        <time>2020-09-10T07:38:22.867Z</time>
      </trkpt>
      <trkpt lat="48.698741" lon="16.695586">
        <ele>264.540956</ele>
        <time>2020-09-10T07:38:24.891Z</time>
      </trkpt>
      <trkpt lat="48.698821" lon="16.695513">
        <ele>264.212793</ele>
        <time>2020-09-10T07:38:27.878Z</time>
      </trkpt>
      <trkpt lat="48.698856" lon="16.695356">
        <ele>263.828458</ele>
        <time>2020-09-10T07:38:32.878Z</time>
      </trkpt>
      <trkpt lat="48.698807" lon="16.695205">
        <ele>263.438210</ele>
        <time>2020-09-10T07:38:35.865Z</time>
      </trkpt>
      <trkpt lat="48.698767" lon="16.695023">
        <ele>262.993316</ele>
        <time>2020-09-10T07:38:38.863Z</time>
      </trkpt>
      <trkpt lat="48.698738" lon="16.694882">
        <ele>262.650788</ele>
        <time>2020-09-10T07:38:40.895Z</time>
      </trkpt>
      <trkpt lat="48.698709" lon="16.694742">
        <ele>262.310475</ele>
        <time>2020-09-10T07:38:42.862Z</time>
      </trkpt>
      <trkpt lat="48.698684" lon="16.694601">
        <ele>261.971863</ele>
        <time>2020-09-10T07:38:44.862Z</time>
      </trkpt>
      <trkpt lat="48.698657" lon="16.694440">
        <ele>261.586594</ele>
        <time>2020-09-10T07:38:46.867Z</time>
      </trkpt>
      <trkpt lat="48.698631" lon="16.694278">
        <ele>261.199923</ele>
        <time>2020-09-10T07:38:48.873Z</time>
      </trkpt>
      <trkpt lat="48.698607" lon="16.694108">
        <ele>260.796727</ele>
        <time>2020-09-10T07:38:50.877Z</time>
      </trkpt>
      <trkpt lat="48.698581" lon="16.693944">
        <ele>260.405547</ele>
        <time>2020-09-10T07:38:52.871Z</time>
      </trkpt>
      <trkpt lat="48.698558" lon="16.693779">
        <ele>260.014424</ele>
        <time>2020-09-10T07:38:54.888Z</time>
      </trkpt>
      <trkpt lat="48.698548" lon="16.693619">
        <ele>259.641679</ele>
        <time>2020-09-10T07:38:56.874Z</time>
      </trkpt>
      <trkpt lat="48.698536" lon="16.693453">
        <ele>259.277508</ele>
        <time>2020-09-10T07:38:58.853Z</time>
      </trkpt>
      <trkpt lat="48.698527" lon="16.693295">
        <ele>259.008120</ele>
        <time>2020-09-10T07:39:00.854Z</time>
      </trkpt>
      <trkpt lat="48.698520" lon="16.693136">
        <ele>258.737432</ele>
        <time>2020-09-10T07:39:02.853Z</time>
      </trkpt>
      <trkpt lat="48.698529" lon="16.692982">
        <ele>258.474813</ele>
        <time>2020-09-10T07:39:04.863Z</time>
      </trkpt>
      <trkpt lat="48.698545" lon="16.692831">
        <ele>258.215030</ele>
        <time>2020-09-10T07:39:06.850Z</time>
      </trkpt>
      <trkpt lat="48.698578" lon="16.692688">
        <ele>257.957701</ele>
        <time>2020-09-10T07:39:08.857Z</time>
      </trkpt>
      <trkpt lat="48.698614" lon="16.692549">
        <ele>257.704059</ele>
        <time>2020-09-10T07:39:10.853Z</time>
      </trkpt>
      <trkpt lat="48.698669" lon="16.692428">
        <ele>257.454494</ele>
        <time>2020-09-10T07:39:12.873Z</time>
      </trkpt>
      <trkpt lat="48.698738" lon="16.692317">
        <ele>257.195482</ele>
        <time>2020-09-10T07:39:14.903Z</time>
      </trkpt>
      <trkpt lat="48.698814" lon="16.692229">
        <ele>256.949304</ele>
        <time>2020-09-10T07:39:16.887Z</time>
      </trkpt>
      <trkpt lat="48.698883" lon="16.692128">
        <ele>256.702383</ele>
        <time>2020-09-10T07:39:18.864Z</time>
      </trkpt>
      <trkpt lat="48.698947" lon="16.692032">
        <ele>256.470601</ele>
        <time>2020-09-10T07:39:20.874Z</time>
      </trkpt>
      <trkpt lat="48.699012" lon="16.692133">
        <ele>256.230978</ele>
        <time>2020-09-10T07:39:42.852Z</time>
      </trkpt>
      <trkpt lat="48.699016" lon="16.691985">
        <ele>255.979366</ele>
        <time>2020-09-10T07:40:21.859Z</time>
      </trkpt>
      <trkpt lat="48.699045" lon="16.691852">
        <ele>255.741436</ele>
        <time>2020-09-10T07:40:25.849Z</time>
      </trkpt>
      <trkpt lat="48.699060" lon="16.691709">
        <ele>255.495481</ele>
        <time>2020-09-10T07:40:28.880Z</time>
      </trkpt>
      <trkpt lat="48.699067" lon="16.691547">
        <ele>255.219710</ele>
        <time>2020-09-10T07:40:31.859Z</time>
      </trkpt>
      <trkpt lat="48.699045" lon="16.691354">
        <ele>254.887017</ele>
        <time>2020-09-10T07:40:34.873Z</time>
      </trkpt>
      <trkpt lat="48.699015" lon="16.691166">
        <ele>254.640606</ele>
        <time>2020-09-10T07:40:37.887Z</time>
      </trkpt>
      <trkpt lat="48.698981" lon="16.690981">
        <ele>254.489226</ele>
        <time>2020-09-10T07:40:40.878Z</time>
      </trkpt>
      <trkpt lat="48.698953" lon="16.690841">
        <ele>254.373911</ele>
        <time>2020-09-10T07:40:42.869Z</time>
      </trkpt>
      <trkpt lat="48.698927" lon="16.690703">
        <ele>254.260783</ele>
        <time>2020-09-10T07:40:44.887Z</time>
      </trkpt>
      <trkpt lat="48.698897" lon="16.690567">
        <ele>254.147747</ele>
        <time>2020-09-10T07:40:46.865Z</time>
      </trkpt>
      <trkpt lat="48.698856" lon="16.690427">
        <ele>254.027012</ele>
        <time>2020-09-10T07:40:48.857Z</time>
      </trkpt>
      <trkpt lat="48.698811" lon="16.690299">
        <ele>253.912690</ele>
        <time>2020-09-10T07:40:50.857Z</time>
      </trkpt>
      <trkpt lat="48.698764" lon="16.690173">
        <ele>253.798601</ele>
        <time>2020-09-10T07:40:52.855Z</time>
      </trkpt>
      <trkpt lat="48.698716" lon="16.690055">
        <ele>253.689336</ele>
        <time>2020-09-10T07:40:54.855Z</time>
      </trkpt>
      <trkpt lat="48.698662" lon="16.689935">
        <ele>253.574848</ele>
        <time>2020-09-10T07:40:56.874Z</time>
      </trkpt>
      <trkpt lat="48.698603" lon="16.689813">
        <ele>253.455624</ele>
        <time>2020-09-10T07:40:58.879Z</time>
      </trkpt>
      <trkpt lat="48.698543" lon="16.689683">
        <ele>253.330577</ele>
        <time>2020-09-10T07:41:00.892Z</time>
      </trkpt>
      <trkpt lat="48.698479" lon="16.689567">
        <ele>253.211395</ele>
        <time>2020-09-10T07:41:02.884Z</time>
      </trkpt>
      <trkpt lat="48.698429" lon="16.689453">
        <ele>253.103498</ele>
        <time>2020-09-10T07:41:04.893Z</time>
      </trkpt>
      <trkpt lat="48.698383" lon="16.689335">
        <ele>252.995466</ele>
        <time>2020-09-10T07:41:06.849Z</time>
      </trkpt>
      <trkpt lat="48.698337" lon="16.689212">
        <ele>252.884023</ele>
        <time>2020-09-10T07:41:08.875Z</time>
      </trkpt>
      <trkpt lat="48.698288" lon="16.689090">
        <ele>252.771445</ele>
        <time>2020-09-10T07:41:10.878Z</time>
      </trkpt>
      <trkpt lat="48.698241" lon="16.688964">
        <ele>252.657355</ele>
        <time>2020-09-10T07:41:12.864Z</time>
      </trkpt>
      <trkpt lat="48.698194" lon="16.688835">
        <ele>252.548902</ele>
        <time>2020-09-10T07:41:14.873Z</time>
      </trkpt>
      <trkpt lat="48.698141" lon="16.688679">
        <ele>252.458275</ele>
        <time>2020-09-10T07:41:17.891Z</time>
      </trkpt>
      <trkpt lat="48.698088" lon="16.688546">
        <ele>252.378027</ele>
        <time>2020-09-10T07:41:25.856Z</time>
      </trkpt>
      <trkpt lat="48.698026" lon="16.688445">
        <ele>252.306782</ele>
        <time>2020-09-10T07:42:24.849Z</time>
      </trkpt>
      <trkpt lat="48.698000" lon="16.688307">
        <ele>252.232654</ele>
        <time>2020-09-10T07:42:27.888Z</time>
      </trkpt>
      <trkpt lat="48.697956" lon="16.688137">
        <ele>252.138334</ele>
        <time>2020-09-10T07:42:30.871Z</time>
      </trkpt>
      <trkpt lat="48.697894" lon="16.687966">
        <ele>252.037558</ele>
        <time>2020-09-10T07:42:33.881Z</time>
      </trkpt>
      <trkpt lat="48.697838" lon="16.687807">
        <ele>251.944469</ele>
        <time>2020-09-10T07:42:36.901Z</time>
      </trkpt>
      <trkpt lat="48.697783" lon="16.687646">
        <ele>251.850829</ele>
        <time>2020-09-10T07:42:39.866Z</time>
      </trkpt>
      <trkpt lat="48.697723" lon="16.687467">
        <ele>251.747130</ele>
        <time>2020-09-10T07:42:42.873Z</time>
      </trkpt>
      <trkpt lat="48.697656" lon="16.687313">
        <ele>251.651858</ele>
        <time>2020-09-10T07:42:45.874Z</time>
      </trkpt>
      <trkpt lat="48.697595" lon="16.687161">
        <ele>251.559971</ele>
        <time>2020-09-10T07:42:48.874Z</time>
      </trkpt>
      <trkpt lat="48.697535" lon="16.686984">
        <ele>251.457192</ele>
        <time>2020-09-10T07:42:51.856Z</time>
      </trkpt>
      <trkpt lat="48.697491" lon="16.686861">
        <ele>251.384928</ele>
        <time>2020-09-10T07:42:53.858Z</time>
      </trkpt>
      <trkpt lat="48.697448" lon="16.686736">
        <ele>251.312118</ele>
        <time>2020-09-10T07:42:55.891Z</time>
      </trkpt>
      <trkpt lat="48.697392" lon="16.686564">
        <ele>251.213053</ele>
        <time>2020-09-10T07:42:58.868Z</time>
      </trkpt>
      <trkpt lat="48.697354" lon="16.686435">
        <ele>251.158180</ele>
        <time>2020-09-10T07:43:00.852Z</time>
      </trkpt>
      <trkpt lat="48.697308" lon="16.686247">
        <ele>251.172763</ele>
        <time>2020-09-10T07:43:03.852Z</time>
      </trkpt>
      <trkpt lat="48.697282" lon="16.686109">
        <ele>251.183201</ele>
        <time>2020-09-10T07:43:05.860Z</time>
      </trkpt>
      <trkpt lat="48.697240" lon="16.685925">
        <ele>251.197362</ele>
        <time>2020-09-10T07:43:08.855Z</time>
      </trkpt>
      <trkpt lat="48.697201" lon="16.685736">
        <ele>251.211764</ele>
        <time>2020-09-10T07:43:11.855Z</time>
      </trkpt>
      <trkpt lat="48.697171" lon="16.685551">
        <ele>251.225620</ele>
        <time>2020-09-10T07:43:14.905Z</time>
      </trkpt>
      <trkpt lat="48.697141" lon="16.685389">
        <ele>251.237858</ele>
        <time>2020-09-10T07:43:17.863Z</time>
      </trkpt>
      <trkpt lat="48.697110" lon="16.685236">
        <ele>251.249498</ele>
        <time>2020-09-10T07:43:20.876Z</time>
      </trkpt>
      <trkpt lat="48.697074" lon="16.685073">
        <ele>251.262000</ele>
        <time>2020-09-10T07:43:23.880Z</time>
      </trkpt>
      <trkpt lat="48.697039" lon="16.684908">
        <ele>251.274605</ele>
        <time>2020-09-10T07:43:26.876Z</time>
      </trkpt>
      <trkpt lat="48.697013" lon="16.684756">
        <ele>251.286026</ele>
        <time>2020-09-10T07:43:29.850Z</time>
      </trkpt>
      <trkpt lat="48.696986" lon="16.684612">
        <ele>251.296914</ele>
        <time>2020-09-10T07:43:32.890Z</time>
      </trkpt>
      <trkpt lat="48.696961" lon="16.684467">
        <ele>251.307814</ele>
        <time>2020-09-10T07:43:35.875Z</time>
      </trkpt>
      <trkpt lat="48.696937" lon="16.684326">
        <ele>251.318405</ele>
        <time>2020-09-10T07:43:38.864Z</time>
      </trkpt>
      <trkpt lat="48.696910" lon="16.684184">
        <ele>251.329153</ele>
        <time>2020-09-10T07:43:41.863Z</time>
      </trkpt>
      <trkpt lat="48.696883" lon="16.684038">
        <ele>251.340181</ele>
        <time>2020-09-10T07:43:44.897Z</time>
      </trkpt>
      <trkpt lat="48.696850" lon="16.683890">
        <ele>251.351543</ele>
        <time>2020-09-10T07:43:47.874Z</time>
      </trkpt>
      <trkpt lat="48.696832" lon="16.683735">
        <ele>251.432205</ele>
        <time>2020-09-10T07:43:50.906Z</time>
      </trkpt>
      <trkpt lat="48.696829" lon="16.683575">
        <ele>251.534978</ele>
        <time>2020-09-10T07:43:53.863Z</time>
      </trkpt>
      <trkpt lat="48.696816" lon="16.683408">
        <ele>251.642946</ele>
        <time>2020-09-10T07:43:56.854Z</time>
      </trkpt>
      <trkpt lat="48.696799" lon="16.683231">
        <ele>251.757789</ele>
        <time>2020-09-10T07:43:59.855Z</time>
      </trkpt>
      <trkpt lat="48.696783" lon="16.683034">
        <ele>251.885230</ele>
        <time>2020-09-10T07:44:02.866Z</time>
      </trkpt>
      <trkpt lat="48.696758" lon="16.682830">
        <ele>252.018451</ele>
        <time>2020-09-10T07:44:05.861Z</time>
      </trkpt>
      <trkpt lat="48.696744" lon="16.682689">
        <ele>252.110001</ele>
        <time>2020-09-10T07:44:07.869Z</time>
      </trkpt>
      <trkpt lat="48.696740" lon="16.682546">
        <ele>252.201899</ele>
        <time>2020-09-10T07:44:09.852Z</time>
      </trkpt>
      <trkpt lat="48.696739" lon="16.682395">
        <ele>252.298856</ele>
        <time>2020-09-10T07:44:11.875Z</time>
      </trkpt>
      <trkpt lat="48.696734" lon="16.682192">
        <ele>252.429287</ele>
        <time>2020-09-10T07:44:14.890Z</time>
      </trkpt>
      <trkpt lat="48.696728" lon="16.682004">
        <ele>252.550137</ele>
        <time>2020-09-10T07:44:17.869Z</time>
      </trkpt>
      <trkpt lat="48.696705" lon="16.681812">
        <ele>252.675428</ele>
        <time>2020-09-10T07:44:20.884Z</time>
      </trkpt>
      <trkpt lat="48.696665" lon="16.681660">
        <ele>252.780493</ele>
        <time>2020-09-10T07:44:23.869Z</time>
      </trkpt>
      <trkpt lat="48.696548" lon="16.681429">
        <ele>252.967447</ele>
        <time>2020-09-10T07:45:01.868Z</time>
      </trkpt>
      <trkpt lat="48.696481" lon="16.681284">
        <ele>253.081094</ele>
        <time>2020-09-10T07:45:04.852Z</time>
      </trkpt>
      <trkpt lat="48.696410" lon="16.681133">
        <ele>253.134210</ele>
        <time>2020-09-10T07:45:07.871Z</time>
      </trkpt>
      <trkpt lat="48.696334" lon="16.680998">
        <ele>253.170169</ele>
        <time>2020-09-10T07:45:10.854Z</time>
      </trkpt>
      <trkpt lat="48.696270" lon="16.680860">
        <ele>253.204350</ele>
        <time>2020-09-10T07:45:13.882Z</time>
      </trkpt>
      <trkpt lat="48.696216" lon="16.680734">
        <ele>253.234797</ele>
        <time>2020-09-10T07:45:16.887Z</time>
      </trkpt>
      <trkpt lat="48.696065" lon="16.680545">
        <ele>253.294936</ele>
        <time>2020-09-10T07:46:09.850Z</time>
      </trkpt>
      <trkpt lat="48.695994" lon="16.680395">
        <ele>253.332344</ele>
        <time>2020-09-10T07:46:12.856Z</time>
      </trkpt>
      <trkpt lat="48.695914" lon="16.680239">
        <ele>253.372381</ele>
        <time>2020-09-10T07:46:15.867Z</time>
      </trkpt>
      <trkpt lat="48.695869" lon="16.680122">
        <ele>253.399824</ele>
        <time>2020-09-10T07:46:17.861Z</time>
      </trkpt>
      <trkpt lat="48.695830" lon="16.679994">
        <ele>253.428396</ele>
        <time>2020-09-10T07:46:19.861Z</time>
      </trkpt>
      <trkpt lat="48.695785" lon="16.679864">
        <ele>253.458146</ele>
        <time>2020-09-10T07:46:21.902Z</time>
      </trkpt>
      <trkpt lat="48.695740" lon="16.679739">
        <ele>253.487002</ele>
        <time>2020-09-10T07:46:23.851Z</time>
      </trkpt>
      <trkpt lat="48.695693" lon="16.679610">
        <ele>253.516864</ele>
        <time>2020-09-10T07:46:25.887Z</time>
      </trkpt>
      <trkpt lat="48.695644" lon="16.679479">
        <ele>253.547380</ele>
        <time>2020-09-10T07:46:27.874Z</time>
      </trkpt>
      <trkpt lat="48.695595" lon="16.679353">
        <ele>253.577019</ele>
        <time>2020-09-10T07:46:29.882Z</time>
      </trkpt>
      <trkpt lat="48.695539" lon="16.679233">
        <ele>253.606803</ele>
        <time>2020-09-10T07:46:31.871Z</time>
      </trkpt>
      <trkpt lat="48.695477" lon="16.679113">
        <ele>253.637688</ele>
        <time>2020-09-10T07:46:33.859Z</time>
      </trkpt>
      <trkpt lat="48.695408" lon="16.678994">
        <ele>253.654381</ele>
        <time>2020-09-10T07:46:35.864Z</time>
      </trkpt>
      <trkpt lat="48.695337" lon="16.678874">
        <ele>253.650370</ele>
        <time>2020-09-10T07:46:37.883Z</time>
      </trkpt>
      <trkpt lat="48.695268" lon="16.678759">
        <ele>253.646502</ele>
        <time>2020-09-10T07:46:39.888Z</time>
      </trkpt>
      <trkpt lat="48.695199" lon="16.678647">
        <ele>253.642689</ele>
        <time>2020-09-10T07:46:41.903Z</time>
      </trkpt>
      <trkpt lat="48.695126" lon="16.678532">
        <ele>253.638718</ele>
        <time>2020-09-10T07:46:43.851Z</time>
      </trkpt>
      <trkpt lat="48.695051" lon="16.678417">
        <ele>253.634694</ele>
        <time>2020-09-10T07:46:45.861Z</time>
      </trkpt>
      <trkpt lat="48.694979" lon="16.678304">
        <ele>253.630785</ele>
        <time>2020-09-10T07:46:47.876Z</time>
      </trkpt>
      <trkpt lat="48.694905" lon="16.678191">
        <ele>253.626823</ele>
        <time>2020-09-10T07:46:49.860Z</time>
      </trkpt>
      <trkpt lat="48.694828" lon="16.678085">
        <ele>253.622900</ele>
        <time>2020-09-10T07:46:51.863Z</time>
      </trkpt>
      <trkpt lat="48.694755" lon="16.677986">
        <ele>253.619205</ele>
        <time>2020-09-10T07:46:53.883Z</time>
      </trkpt>
      <trkpt lat="48.694686" lon="16.677894">
        <ele>253.615739</ele>
        <time>2020-09-10T07:46:55.863Z</time>
      </trkpt>
      <trkpt lat="48.694621" lon="16.677758">
        <ele>253.611560</ele>
        <time>2020-09-10T07:46:58.878Z</time>
      </trkpt>
      <trkpt lat="48.694689" lon="16.677610">
        <ele>253.607072</ele>
        <time>2020-09-10T07:47:02.855Z</time>
      </trkpt>
      <trkpt lat="48.694758" lon="16.677508">
        <ele>253.603436</ele>
        <time>2020-09-10T07:47:05.865Z</time>
      </trkpt>
      <trkpt lat="48.694814" lon="16.677384">
        <ele>253.599697</ele>
        <time>2020-09-10T07:47:08.855Z</time>
      </trkpt>
      <trkpt lat="48.694880" lon="16.677265">
        <ele>253.595828</ele>
        <time>2020-09-10T07:47:11.850Z</time>
      </trkpt>
      <trkpt lat="48.694933" lon="16.677145">
        <ele>253.592234</ele>
        <time>2020-09-10T07:47:14.863Z</time>
      </trkpt>
      <trkpt lat="48.695007" lon="16.677016">
        <ele>253.594575</ele>
        <time>2020-09-10T07:47:18.871Z</time>
      </trkpt>
      <trkpt lat="48.695097" lon="16.676915">
        <ele>253.696350</ele>
        <time>2020-09-10T07:47:22.868Z</time>
      </trkpt>
      <trkpt lat="48.695201" lon="16.676816">
        <ele>253.807960</ele>
        <time>2020-09-10T07:47:26.899Z</time>
      </trkpt>
      <trkpt lat="48.695295" lon="16.676714">
        <ele>253.913026</ele>
        <time>2020-09-10T07:47:30.881Z</time>
      </trkpt>
      <trkpt lat="48.695370" lon="16.676617">
        <ele>254.002633</ele>
        <time>2020-09-10T07:47:34.845Z</time>
      </trkpt>
      <trkpt lat="48.695433" lon="16.676495">
        <ele>254.095540</ele>
        <time>2020-09-10T07:47:38.893Z</time>
      </trkpt>
      <trkpt lat="48.695499" lon="16.676373">
        <ele>254.190152</ele>
        <time>2020-09-10T07:47:43.886Z</time>
      </trkpt>
      <trkpt lat="48.695555" lon="16.676253">
        <ele>254.278298</ele>
        <time>2020-09-10T07:47:48.876Z</time>
      </trkpt>
      <trkpt lat="48.695630" lon="16.676134">
        <ele>254.376984</ele>
        <time>2020-09-10T07:47:53.858Z</time>
      </trkpt>
      <trkpt lat="48.695706" lon="16.676008">
        <ele>254.479359</ele>
        <time>2020-09-10T07:47:58.872Z</time>
      </trkpt>
      <trkpt lat="48.695770" lon="16.675903">
        <ele>254.565081</ele>
        <time>2020-09-10T07:48:02.877Z</time>
      </trkpt>
      <trkpt lat="48.695833" lon="16.675791">
        <ele>254.653342</ele>
        <time>2020-09-10T07:48:07.867Z</time>
      </trkpt>
      <trkpt lat="48.695901" lon="16.675664">
        <ele>254.751425</ele>
        <time>2020-09-10T07:48:13.867Z</time>
      </trkpt>
      <trkpt lat="48.695962" lon="16.675553">
        <ele>254.838056</ele>
        <time>2020-09-10T07:48:18.880Z</time>
      </trkpt>
      <trkpt lat="48.696022" lon="16.675418">
        <ele>254.935671</ele>
        <time>2020-09-10T07:48:25.870Z</time>
      </trkpt>
      <trkpt lat="48.696093" lon="16.675294">
        <ele>255.034128</ele>
        <time>2020-09-10T07:48:31.873Z</time>
      </trkpt>
      <trkpt lat="48.696146" lon="16.675167">
        <ele>255.124248</ele>
        <time>2020-09-10T07:48:36.879Z</time>
      </trkpt>
      <trkpt lat="48.696220" lon="16.675060">
        <ele>255.217201</ele>
        <time>2020-09-10T07:48:41.864Z</time>
      </trkpt>
      <trkpt lat="48.696299" lon="16.674988">
        <ele>256.687834</ele>
        <time>2020-09-10T07:48:47.865Z</time>
      </trkpt>
      <trkpt lat="48.696374" lon="16.674895">
        <ele>258.335221</ele>
        <time>2020-09-10T07:48:55.867Z</time>
      </trkpt>
      <trkpt lat="48.696414" lon="16.674603">
        <ele>261.681085</ele>
        <time>2020-09-10T07:50:19.881Z</time>
      </trkpt>
      <trkpt lat="48.696461" lon="16.674475">
        <ele>263.324419</ele>
        <time>2020-09-10T07:50:23.849Z</time>
      </trkpt>
      <trkpt lat="48.696516" lon="16.674352">
        <ele>264.991254</ele>
        <time>2020-09-10T07:50:28.881Z</time>
      </trkpt>
      <trkpt lat="48.696591" lon="16.674261">
        <ele>266.624518</ele>
        <time>2020-09-10T07:50:33.855Z</time>
      </trkpt>
      <trkpt lat="48.696658" lon="16.674157">
        <ele>268.254985</ele>
        <time>2020-09-10T07:50:40.882Z</time>
      </trkpt>
      <trkpt lat="48.696734" lon="16.674076">
        <ele>269.834439</ele>
        <time>2020-09-10T07:50:47.867Z</time>
      </trkpt>
      <trkpt lat="48.696820" lon="16.674032">
        <ele>271.377349</ele>
        <time>2020-09-10T07:50:53.854Z</time>
      </trkpt>
      <trkpt lat="48.696848" lon="16.674018">
        <ele>271.878535</ele>
        <time>2020-09-10T07:51:06.540Z</time>
      </trkpt>
      <trkpt lat="48.696845" lon="16.673808">
        <ele>274.235131</ele>
        <time>2020-09-10T07:54:41.865Z</time>
      </trkpt>
      <trkpt lat="48.696928" lon="16.673734">
        <ele>275.872101</ele>
        <time>2020-09-10T07:54:45.906Z</time>
      </trkpt>
      <trkpt lat="48.696998" lon="16.673640">
        <ele>277.462046</ele>
        <time>2020-09-10T07:54:49.882Z</time>
      </trkpt>
      <trkpt lat="48.697069" lon="16.673549">
        <ele>279.042806</ele>
        <time>2020-09-10T07:54:54.880Z</time>
      </trkpt>
      <trkpt lat="48.697153" lon="16.673459">
        <ele>280.791577</ele>
        <time>2020-09-10T07:54:59.875Z</time>
      </trkpt>
      <trkpt lat="48.697242" lon="16.673371">
        <ele>282.598039</ele>
        <time>2020-09-10T07:55:05.915Z</time>
      </trkpt>
      <trkpt lat="48.697313" lon="16.673287">
        <ele>284.129248</ele>
        <time>2020-09-10T07:55:11.873Z</time>
      </trkpt>
      <trkpt lat="48.697397" lon="16.673221">
        <ele>285.737643</ele>
        <time>2020-09-10T07:55:16.879Z</time>
      </trkpt>
      <trkpt lat="48.697475" lon="16.673135">
        <ele>286.085969</ele>
        <time>2020-09-10T07:55:21.873Z</time>
      </trkpt>
      <trkpt lat="48.697545" lon="16.673038">
        <ele>286.381998</ele>
        <time>2020-09-10T07:55:27.882Z</time>
      </trkpt>
      <trkpt lat="48.697627" lon="16.672940">
        <ele>286.707916</ele>
        <time>2020-09-10T07:55:33.902Z</time>
      </trkpt>
      <trkpt lat="48.697691" lon="16.672835">
        <ele>287.002295</ele>
        <time>2020-09-10T07:55:38.881Z</time>
      </trkpt>
      <trkpt lat="48.697745" lon="16.672699">
        <ele>287.329192</ele>
        <time>2020-09-10T07:55:44.878Z</time>
      </trkpt>
      <trkpt lat="48.697814" lon="16.672595">
        <ele>287.632916</ele>
        <time>2020-09-10T07:55:50.876Z</time>
      </trkpt>
      <trkpt lat="48.697867" lon="16.672474">
        <ele>287.932024</ele>
        <time>2020-09-10T07:55:56.898Z</time>
      </trkpt>
      <trkpt lat="48.697926" lon="16.672368">
        <ele>288.217619</ele>
        <time>2020-09-10T07:56:02.894Z</time>
      </trkpt>
      <trkpt lat="48.698010" lon="16.672282">
        <ele>288.533986</ele>
        <time>2020-09-10T07:56:09.871Z</time>
      </trkpt>
      <trkpt lat="48.698089" lon="16.672182">
        <ele>288.855230</ele>
        <time>2020-09-10T07:56:16.884Z</time>
      </trkpt>
      <trkpt lat="48.698161" lon="16.672088">
        <ele>289.151822</ele>
        <time>2020-09-10T07:56:22.870Z</time>
      </trkpt>
      <trkpt lat="48.698235" lon="16.671998">
        <ele>289.447944</ele>
        <time>2020-09-10T07:56:29.867Z</time>
      </trkpt>
      <trkpt lat="48.698302" lon="16.671898">
        <ele>289.741434</ele>
        <time>2020-09-10T07:56:36.895Z</time>
      </trkpt>
      <trkpt lat="48.698383" lon="16.671794">
        <ele>290.072758</ele>
        <time>2020-09-10T07:56:44.908Z</time>
      </trkpt>
      <trkpt lat="48.698467" lon="16.671689">
        <ele>290.412585</ele>
        <time>2020-09-10T07:56:49.878Z</time>
      </trkpt>
      <trkpt lat="48.698533" lon="16.671586">
        <ele>290.708261</ele>
        <time>2020-09-10T07:56:54.869Z</time>
      </trkpt>
      <trkpt lat="48.698599" lon="16.671489">
        <ele>290.995199</ele>
        <time>2020-09-10T07:56:59.859Z</time>
      </trkpt>
      <trkpt lat="48.698683" lon="16.671412">
        <ele>291.301571</ele>
        <time>2020-09-10T07:57:06.909Z</time>
      </trkpt>
      <trkpt lat="48.698771" lon="16.671346">
        <ele>291.720001</ele>
        <time>2020-09-10T07:57:13.872Z</time>
      </trkpt>
      <trkpt lat="48.698839" lon="16.671243">
        <ele>292.188454</ele>
        <time>2020-09-10T07:57:21.877Z</time>
      </trkpt>
      <trkpt lat="48.698914" lon="16.671156">
        <ele>292.648645</ele>
        <time>2020-09-10T07:57:29.863Z</time>
      </trkpt>
      <trkpt lat="48.698990" lon="16.671075">
        <ele>293.101344</ele>
        <time>2020-09-10T07:57:36.871Z</time>
      </trkpt>
      <trkpt lat="48.699068" lon="16.670978">
        <ele>293.592968</ele>
        <time>2020-09-10T07:57:43.870Z</time>
      </trkpt>
      <trkpt lat="48.699146" lon="16.670872">
        <ele>294.103443</ele>
        <time>2020-09-10T07:57:50.884Z</time>
      </trkpt>
      <trkpt lat="48.699222" lon="16.670781">
        <ele>294.575375</ele>
        <time>2020-09-10T07:57:56.860Z</time>
      </trkpt>
      <trkpt lat="48.699295" lon="16.670694">
        <ele>295.027866</ele>
        <time>2020-09-10T07:58:02.868Z</time>
      </trkpt>
      <trkpt lat="48.699359" lon="16.670593">
        <ele>295.478084</ele>
        <time>2020-09-10T07:58:08.896Z</time>
      </trkpt>
      <trkpt lat="48.699417" lon="16.670479">
        <ele>295.940923</ele>
        <time>2020-09-10T07:58:38.890Z</time>
      </trkpt>
      <trkpt lat="48.699512" lon="16.670401">
        <ele>296.467345</ele>
        <time>2020-09-10T07:58:43.862Z</time>
      </trkpt>
      <trkpt lat="48.699581" lon="16.670311">
        <ele>296.910916</ele>
        <time>2020-09-10T07:58:47.895Z</time>
      </trkpt>
      <trkpt lat="48.699659" lon="16.670224">
        <ele>297.382793</ele>
        <time>2020-09-10T07:58:51.867Z</time>
      </trkpt>
      <trkpt lat="48.699731" lon="16.670140">
        <ele>297.825513</ele>
        <time>2020-09-10T07:58:55.928Z</time>
      </trkpt>
      <trkpt lat="48.699812" lon="16.670071">
        <ele>298.278233</ele>
        <time>2020-09-10T07:58:59.898Z</time>
      </trkpt>
      <trkpt lat="48.699900" lon="16.669983">
        <ele>298.791923</ele>
        <time>2020-09-10T07:59:04.868Z</time>
      </trkpt>
      <trkpt lat="48.700000" lon="16.669920">
        <ele>299.319554</ele>
        <time>2020-09-10T07:59:09.873Z</time>
      </trkpt>
      <trkpt lat="48.700093" lon="16.669845">
        <ele>299.832826</ele>
        <time>2020-09-10T07:59:14.875Z</time>
      </trkpt>
      <trkpt lat="48.700173" lon="16.669770">
        <ele>300.287234</ele>
        <time>2020-09-10T07:59:19.889Z</time>
      </trkpt>
      <trkpt lat="48.700262" lon="16.669731">
        <ele>300.723837</ele>
        <time>2020-09-10T07:59:24.901Z</time>
      </trkpt>
      <trkpt lat="48.700358" lon="16.669686">
        <ele>301.197395</ele>
        <time>2020-09-10T07:59:30.875Z</time>
      </trkpt>
      <trkpt lat="48.700444" lon="16.669625">
        <ele>301.644882</ele>
        <time>2020-09-10T07:59:35.890Z</time>
      </trkpt>
      <trkpt lat="48.700519" lon="16.669531">
        <ele>302.103571</ele>
        <time>2020-09-10T07:59:41.870Z</time>
      </trkpt>
      <trkpt lat="48.700600" lon="16.669450">
        <ele>302.560927</ele>
        <time>2020-09-10T07:59:47.880Z</time>
      </trkpt>
      <trkpt lat="48.700695" lon="16.669384">
        <ele>303.053435</ele>
        <time>2020-09-10T07:59:54.894Z</time>
      </trkpt>
      <trkpt lat="48.700775" lon="16.669322">
        <ele>303.476892</ele>
        <time>2020-09-10T08:00:00.875Z</time>
      </trkpt>
      <trkpt lat="48.700855" lon="16.669258">
        <ele>303.903217</ele>
        <time>2020-09-10T08:00:06.871Z</time>
      </trkpt>
      <trkpt lat="48.700947" lon="16.669191">
        <ele>304.384249</ele>
        <time>2020-09-10T08:00:13.859Z</time>
      </trkpt>
      <trkpt lat="48.701029" lon="16.669128">
        <ele>304.817515</ele>
        <time>2020-09-10T08:00:19.861Z</time>
      </trkpt>
      <trkpt lat="48.701111" lon="16.669070">
        <ele>305.243974</ele>
        <time>2020-09-10T08:00:25.861Z</time>
      </trkpt>
      <trkpt lat="48.701203" lon="16.668999">
        <ele>305.730524</ele>
        <time>2020-09-10T08:00:32.868Z</time>
      </trkpt>
      <trkpt lat="48.701287" lon="16.668934">
        <ele>306.175011</ele>
        <time>2020-09-10T08:00:39.876Z</time>
      </trkpt>
      <trkpt lat="48.701374" lon="16.668854">
        <ele>306.654594</ele>
        <time>2020-09-10T08:00:46.861Z</time>
      </trkpt>
      <trkpt lat="48.701456" lon="16.668773">
        <ele>307.115888</ele>
        <time>2020-09-10T08:00:52.860Z</time>
      </trkpt>
      <trkpt lat="48.701540" lon="16.668691">
        <ele>307.586783</ele>
        <time>2020-09-10T08:00:59.891Z</time>
      </trkpt>
      <trkpt lat="48.701669" lon="16.668621">
        <ele>308.232507</ele>
        <time>2020-09-10T08:01:42.863Z</time>
      </trkpt>
      <trkpt lat="48.701749" lon="16.668529">
        <ele>308.688860</ele>
        <time>2020-09-10T08:01:48.866Z</time>
      </trkpt>
      <trkpt lat="48.701836" lon="16.668454">
        <ele>309.023728</ele>
        <time>2020-09-10T08:01:54.895Z</time>
      </trkpt>
      <trkpt lat="48.701910" lon="16.668371">
        <ele>309.331742</ele>
        <time>2020-09-10T08:01:59.874Z</time>
      </trkpt>
      <trkpt lat="48.701992" lon="16.668278">
        <ele>309.674410</ele>
        <time>2020-09-10T08:02:04.882Z</time>
      </trkpt>
      <trkpt lat="48.702079" lon="16.668189">
        <ele>310.025592</ele>
        <time>2020-09-10T08:02:09.883Z</time>
      </trkpt>
      <trkpt lat="48.702171" lon="16.668105">
        <ele>310.384938</ele>
        <time>2020-09-10T08:02:14.866Z</time>
      </trkpt>
      <trkpt lat="48.702261" lon="16.668006">
        <ele>310.757009</ele>
        <time>2020-09-10T08:02:19.872Z</time>
      </trkpt>
      <trkpt lat="48.702334" lon="16.667918">
        <ele>311.069091</ele>
        <time>2020-09-10T08:02:23.884Z</time>
      </trkpt>
      <trkpt lat="48.702399" lon="16.667823">
        <ele>311.371222</ele>
        <time>2020-09-10T08:02:27.873Z</time>
      </trkpt>
      <trkpt lat="48.702547" lon="16.667607">
        <ele>312.058681</ele>
        <time>2020-09-10T08:03:04.857Z</time>
      </trkpt>
      <trkpt lat="48.702615" lon="16.667502">
        <ele>312.383486</ele>
        <time>2020-09-10T08:03:08.882Z</time>
      </trkpt>
      <trkpt lat="48.702679" lon="16.667379">
        <ele>312.729312</ele>
        <time>2020-09-10T08:03:12.898Z</time>
      </trkpt>
      <trkpt lat="48.702736" lon="16.667233">
        <ele>313.103847</ele>
        <time>2020-09-10T08:03:16.863Z</time>
      </trkpt>
      <trkpt lat="48.702796" lon="16.667077">
        <ele>313.502503</ele>
        <time>2020-09-10T08:03:20.876Z</time>
      </trkpt>
      <trkpt lat="48.702856" lon="16.666929">
        <ele>313.886000</ele>
        <time>2020-09-10T08:03:24.879Z</time>
      </trkpt>
      <trkpt lat="48.702903" lon="16.666803">
        <ele>314.205557</ele>
        <time>2020-09-10T08:03:27.872Z</time>
      </trkpt>
      <trkpt lat="48.702953" lon="16.666659">
        <ele>314.564813</ele>
        <time>2020-09-10T08:03:30.876Z</time>
      </trkpt>
      <trkpt lat="48.703001" lon="16.666505">
        <ele>314.778800</ele>
        <time>2020-09-10T08:03:33.853Z</time>
      </trkpt>
      <trkpt lat="48.703056" lon="16.666330">
        <ele>314.955587</ele>
        <time>2020-09-10T08:03:36.857Z</time>
      </trkpt>
      <trkpt lat="48.703096" lon="16.666206">
        <ele>315.081471</ele>
        <time>2020-09-10T08:03:38.881Z</time>
      </trkpt>
      <trkpt lat="48.703139" lon="16.666074">
        <ele>315.215732</ele>
        <time>2020-09-10T08:03:40.895Z</time>
      </trkpt>
      <trkpt lat="48.703182" lon="16.665940">
        <ele>315.351631</ele>
        <time>2020-09-10T08:03:42.880Z</time>
      </trkpt>
      <trkpt lat="48.703229" lon="16.665800">
        <ele>315.494892</ele>
        <time>2020-09-10T08:03:44.866Z</time>
      </trkpt>
      <trkpt lat="48.703282" lon="16.665647">
        <ele>315.652494</ele>
        <time>2020-09-10T08:03:46.876Z</time>
      </trkpt>
      <trkpt lat="48.703334" lon="16.665488">
        <ele>315.814342</ele>
        <time>2020-09-10T08:03:48.863Z</time>
      </trkpt>
      <trkpt lat="48.703385" lon="16.665336">
        <ele>315.969864</ele>
        <time>2020-09-10T08:03:50.884Z</time>
      </trkpt>
      <trkpt lat="48.703441" lon="16.665176">
        <ele>316.135047</ele>
        <time>2020-09-10T08:03:52.874Z</time>
      </trkpt>
      <trkpt lat="48.703502" lon="16.665000">
        <ele>316.316360</ele>
        <time>2020-09-10T08:03:54.871Z</time>
      </trkpt>
      <trkpt lat="48.703566" lon="16.664816">
        <ele>316.506061</ele>
        <time>2020-09-10T08:03:56.895Z</time>
      </trkpt>
      <trkpt lat="48.703630" lon="16.664628">
        <ele>316.698997</ele>
        <time>2020-09-10T08:03:58.882Z</time>
      </trkpt>
      <trkpt lat="48.703697" lon="16.664432">
        <ele>316.900318</ele>
        <time>2020-09-10T08:04:00.872Z</time>
      </trkpt>
      <trkpt lat="48.703762" lon="16.664225">
        <ele>317.109396</ele>
        <time>2020-09-10T08:04:02.860Z</time>
      </trkpt>
      <trkpt lat="48.703825" lon="16.664009">
        <ele>317.243485</ele>
        <time>2020-09-10T08:04:04.866Z</time>
      </trkpt>
      <trkpt lat="48.703893" lon="16.663785">
        <ele>317.363475</ele>
        <time>2020-09-10T08:04:06.872Z</time>
      </trkpt>
      <trkpt lat="48.703965" lon="16.663556">
        <ele>317.486920</ele>
        <time>2020-09-10T08:04:08.890Z</time>
      </trkpt>
      <trkpt lat="48.704038" lon="16.663325">
        <ele>317.611560</ele>
        <time>2020-09-10T08:04:10.873Z</time>
      </trkpt>
      <trkpt lat="48.704114" lon="16.663090">
        <ele>317.738917</ele>
        <time>2020-09-10T08:04:12.875Z</time>
      </trkpt>
      <trkpt lat="48.704185" lon="16.662851">
        <ele>317.866467</ele>
        <time>2020-09-10T08:04:14.880Z</time>
      </trkpt>
      <trkpt lat="48.704254" lon="16.662608">
        <ele>317.995204</ele>
        <time>2020-09-10T08:04:16.870Z</time>
      </trkpt>
      <trkpt lat="48.704319" lon="16.662366">
        <ele>318.122354</ele>
        <time>2020-09-10T08:04:18.873Z</time>
      </trkpt>
      <trkpt lat="48.704379" lon="16.662128">
        <ele>318.246339</ele>
        <time>2020-09-10T08:04:20.901Z</time>
      </trkpt>
      <trkpt lat="48.704429" lon="16.661894">
        <ele>318.366035</ele>
        <time>2020-09-10T08:04:22.849Z</time>
      </trkpt>
      <trkpt lat="48.704471" lon="16.661664">
        <ele>318.487657</ele>
        <time>2020-09-10T08:04:24.868Z</time>
      </trkpt>
      <trkpt lat="48.704511" lon="16.661444">
        <ele>318.712528</ele>
        <time>2020-09-10T08:04:26.862Z</time>
      </trkpt>
      <trkpt lat="48.704546" lon="16.661234">
        <ele>318.925964</ele>
        <time>2020-09-10T08:04:28.866Z</time>
      </trkpt>
      <trkpt lat="48.704575" lon="16.661037">
        <ele>319.124864</ele>
        <time>2020-09-10T08:04:30.859Z</time>
      </trkpt>
      <trkpt lat="48.704601" lon="16.660851">
        <ele>319.312219</ele>
        <time>2020-09-10T08:04:32.857Z</time>
      </trkpt>
      <trkpt lat="48.704631" lon="16.660679">
        <ele>319.487531</ele>
        <time>2020-09-10T08:04:34.865Z</time>
      </trkpt>
      <trkpt lat="48.704661" lon="16.660520">
        <ele>319.650491</ele>
        <time>2020-09-10T08:04:36.876Z</time>
      </trkpt>
      <trkpt lat="48.704688" lon="16.660371">
        <ele>319.802754</ele>
        <time>2020-09-10T08:04:38.893Z</time>
      </trkpt>
      <trkpt lat="48.704712" lon="16.660229">
        <ele>319.947199</ele>
        <time>2020-09-10T08:04:40.859Z</time>
      </trkpt>
      <trkpt lat="48.704733" lon="16.660093">
        <ele>320.084836</ele>
        <time>2020-09-10T08:04:42.875Z</time>
      </trkpt>
      <trkpt lat="48.704754" lon="16.659961">
        <ele>320.218638</ele>
        <time>2020-09-10T08:04:44.887Z</time>
      </trkpt>
      <trkpt lat="48.704786" lon="16.659771">
        <ele>320.411869</ele>
        <time>2020-09-10T08:04:47.864Z</time>
      </trkpt>
      <trkpt lat="48.704820" lon="16.659590">
        <ele>320.597314</ele>
        <time>2020-09-10T08:04:50.871Z</time>
      </trkpt>
      <trkpt lat="48.704849" lon="16.659402">
        <ele>320.787566</ele>
        <time>2020-09-10T08:04:53.924Z</time>
      </trkpt>
      <trkpt lat="48.704883" lon="16.659220">
        <ele>320.973960</ele>
        <time>2020-09-10T08:04:56.884Z</time>
      </trkpt>
      <trkpt lat="48.704916" lon="16.659044">
        <ele>321.154257</ele>
        <time>2020-09-10T08:04:59.860Z</time>
      </trkpt>
      <trkpt lat="48.704951" lon="16.658868">
        <ele>321.300713</ele>
        <time>2020-09-10T08:05:02.875Z</time>
      </trkpt>
      <trkpt lat="48.704981" lon="16.658697">
        <ele>321.440087</ele>
        <time>2020-09-10T08:05:05.860Z</time>
      </trkpt>
      <trkpt lat="48.705013" lon="16.658528">
        <ele>321.578579</ele>
        <time>2020-09-10T08:05:08.860Z</time>
      </trkpt>
      <trkpt lat="48.705046" lon="16.658358">
        <ele>321.718160</ele>
        <time>2020-09-10T08:05:11.857Z</time>
      </trkpt>
      <trkpt lat="48.705077" lon="16.658192">
        <ele>321.854052</ele>
        <time>2020-09-10T08:05:14.911Z</time>
      </trkpt>
      <trkpt lat="48.705110" lon="16.658029">
        <ele>321.988352</ele>
        <time>2020-09-10T08:05:17.858Z</time>
      </trkpt>
      <trkpt lat="48.705141" lon="16.657865">
        <ele>322.122728</ele>
        <time>2020-09-10T08:05:20.861Z</time>
      </trkpt>
      <trkpt lat="48.705171" lon="16.657708">
        <ele>322.251476</ele>
        <time>2020-09-10T08:05:23.858Z</time>
      </trkpt>
      <trkpt lat="48.705198" lon="16.657559">
        <ele>322.373186</ele>
        <time>2020-09-10T08:05:26.863Z</time>
      </trkpt>
      <trkpt lat="48.705224" lon="16.657416">
        <ele>322.490023</ele>
        <time>2020-09-10T08:05:29.854Z</time>
      </trkpt>
      <trkpt lat="48.705247" lon="16.657274">
        <ele>322.605195</ele>
        <time>2020-09-10T08:05:32.860Z</time>
      </trkpt>
      <trkpt lat="48.705268" lon="16.657134">
        <ele>322.718285</ele>
        <time>2020-09-10T08:05:35.867Z</time>
      </trkpt>
      <trkpt lat="48.705286" lon="16.656996">
        <ele>322.829089</ele>
        <time>2020-09-10T08:05:38.882Z</time>
      </trkpt>
      <trkpt lat="48.705306" lon="16.656862">
        <ele>322.937305</ele>
        <time>2020-09-10T08:05:41.897Z</time>
      </trkpt>
      <trkpt lat="48.705321" lon="16.656728">
        <ele>323.044364</ele>
        <time>2020-09-10T08:05:44.878Z</time>
      </trkpt>
      <trkpt lat="48.705332" lon="16.656583">
        <ele>323.159331</ele>
        <time>2020-09-10T08:05:47.879Z</time>
      </trkpt>
      <trkpt lat="48.705336" lon="16.656441">
        <ele>323.271285</ele>
        <time>2020-09-10T08:05:50.911Z</time>
      </trkpt>
      <trkpt lat="48.705341" lon="16.656304">
        <ele>323.408278</ele>
        <time>2020-09-10T08:05:53.901Z</time>
      </trkpt>
      <trkpt lat="48.705344" lon="16.656165">
        <ele>323.563097</ele>
        <time>2020-09-10T08:05:56.874Z</time>
      </trkpt>
      <trkpt lat="48.705348" lon="16.656021">
        <ele>323.723542</ele>
        <time>2020-09-10T08:05:59.848Z</time>
      </trkpt>
      <trkpt lat="48.705352" lon="16.655875">
        <ele>323.886210</ele>
        <time>2020-09-10T08:06:02.862Z</time>
      </trkpt>
      <trkpt lat="48.705355" lon="16.655730">
        <ele>324.047705</ele>
        <time>2020-09-10T08:06:05.860Z</time>
      </trkpt>
      <trkpt lat="48.705352" lon="16.655579">
        <ele>324.215876</ele>
        <time>2020-09-10T08:06:08.862Z</time>
      </trkpt>
      <trkpt lat="48.705341" lon="16.655415">
        <ele>324.399383</ele>
        <time>2020-09-10T08:06:11.875Z</time>
      </trkpt>
      <trkpt lat="48.705343" lon="16.655267">
        <ele>324.564173</ele>
        <time>2020-09-10T08:06:14.883Z</time>
      </trkpt>
      <trkpt lat="48.705339" lon="16.655126">
        <ele>324.721281</ele>
        <time>2020-09-10T08:06:17.899Z</time>
      </trkpt>
      <trkpt lat="48.705328" lon="16.654975">
        <ele>324.890397</ele>
        <time>2020-09-10T08:06:20.852Z</time>
      </trkpt>
      <trkpt lat="48.705315" lon="16.654818">
        <ele>325.066541</ele>
        <time>2020-09-10T08:06:23.857Z</time>
      </trkpt>
      <trkpt lat="48.705302" lon="16.654665">
        <ele>325.238269</ele>
        <time>2020-09-10T08:06:26.863Z</time>
      </trkpt>
      <trkpt lat="48.705288" lon="16.654514">
        <ele>325.408015</ele>
        <time>2020-09-10T08:06:29.859Z</time>
      </trkpt>
      <trkpt lat="48.705271" lon="16.654359">
        <ele>325.582929</ele>
        <time>2020-09-10T08:06:32.871Z</time>
      </trkpt>
      <trkpt lat="48.705253" lon="16.654206">
        <ele>325.755936</ele>
        <time>2020-09-10T08:06:35.899Z</time>
      </trkpt>
      <trkpt lat="48.705233" lon="16.654053">
        <ele>325.929567</ele>
        <time>2020-09-10T08:06:38.876Z</time>
      </trkpt>
      <trkpt lat="48.705210" lon="16.653902">
        <ele>326.102082</ele>
        <time>2020-09-10T08:06:41.881Z</time>
      </trkpt>
      <trkpt lat="48.705187" lon="16.653746">
        <ele>326.280024</ele>
        <time>2020-09-10T08:06:44.873Z</time>
      </trkpt>
      <trkpt lat="48.705166" lon="16.653588">
        <ele>326.503557</ele>
        <time>2020-09-10T08:06:47.894Z</time>
      </trkpt>
      <trkpt lat="48.705150" lon="16.653425">
        <ele>326.756776</ele>
        <time>2020-09-10T08:06:50.865Z</time>
      </trkpt>
      <trkpt lat="48.705137" lon="16.653266">
        <ele>327.002961</ele>
        <time>2020-09-10T08:06:53.882Z</time>
      </trkpt>
      <trkpt lat="48.705134" lon="16.653100">
        <ele>327.258129</ele>
        <time>2020-09-10T08:06:57.863Z</time>
      </trkpt>
      <trkpt lat="48.705137" lon="16.652819">
        <ele>327.689966</ele>
        <time>2020-09-10T08:07:29.862Z</time>
      </trkpt>
      <trkpt lat="48.705146" lon="16.652683">
        <ele>327.899990</ele>
        <time>2020-09-10T08:07:32.863Z</time>
      </trkpt>
      <trkpt lat="48.705160" lon="16.652543">
        <ele>328.117568</ele>
        <time>2020-09-10T08:07:35.881Z</time>
      </trkpt>
      <trkpt lat="48.705181" lon="16.652406">
        <ele>328.333684</ele>
        <time>2020-09-10T08:07:38.867Z</time>
      </trkpt>
      <trkpt lat="48.705204" lon="16.652270">
        <ele>328.549412</ele>
        <time>2020-09-10T08:07:41.863Z</time>
      </trkpt>
      <trkpt lat="48.705223" lon="16.652132">
        <ele>328.766026</ele>
        <time>2020-09-10T08:07:44.860Z</time>
      </trkpt>
      <trkpt lat="48.705248" lon="16.651981">
        <ele>329.005240</ele>
        <time>2020-09-10T08:07:47.867Z</time>
      </trkpt>
      <trkpt lat="48.705278" lon="16.651829">
        <ele>329.249022</ele>
        <time>2020-09-10T08:07:50.874Z</time>
      </trkpt>
      <trkpt lat="48.705304" lon="16.651664">
        <ele>329.509685</ele>
        <time>2020-09-10T08:07:53.865Z</time>
      </trkpt>
      <trkpt lat="48.705330" lon="16.651474">
        <ele>329.807846</ele>
        <time>2020-09-10T08:07:56.868Z</time>
      </trkpt>
      <trkpt lat="48.705351" lon="16.651340">
        <ele>330.019474</ele>
        <time>2020-09-10T08:07:58.890Z</time>
      </trkpt>
      <trkpt lat="48.705373" lon="16.651204">
        <ele>330.234635</ele>
        <time>2020-09-10T08:08:00.873Z</time>
      </trkpt>
      <trkpt lat="48.705404" lon="16.651069">
        <ele>330.454272</ele>
        <time>2020-09-10T08:08:02.863Z</time>
      </trkpt>
      <trkpt lat="48.705513" lon="16.650965">
        <ele>330.647333</ele>
        <time>2020-09-10T08:08:05.868Z</time>
      </trkpt>
      <trkpt lat="48.705625" lon="16.650891">
        <ele>330.795377</ele>
        <time>2020-09-10T08:08:08.863Z</time>
      </trkpt>
      <trkpt lat="48.705712" lon="16.650754">
        <ele>330.947404</ele>
        <time>2020-09-10T08:08:11.858Z</time>
      </trkpt>
      <trkpt lat="48.705741" lon="16.650601">
        <ele>331.074689</ele>
        <time>2020-09-10T08:08:14.863Z</time>
      </trkpt>
      <trkpt lat="48.705734" lon="16.650459">
        <ele>331.188548</ele>
        <time>2020-09-10T08:08:17.860Z</time>
      </trkpt>
      <trkpt lat="48.705703" lon="16.650281">
        <ele>331.335750</ele>
        <time>2020-09-10T08:08:21.873Z</time>
      </trkpt>
      <trkpt lat="48.705668" lon="16.650134">
        <ele>331.460707</ele>
        <time>2020-09-10T08:08:25.891Z</time>
      </trkpt>
      <trkpt lat="48.705724" lon="16.650274">
        <ele>331.591610</ele>
        <time>2020-09-10T08:08:34.870Z</time>
      </trkpt>
      <trkpt lat="48.705773" lon="16.650393">
        <ele>331.703765</ele>
        <time>2020-09-10T08:08:37.885Z</time>
      </trkpt>
      <trkpt lat="48.705864" lon="16.650455">
        <ele>331.824658</ele>
        <time>2020-09-10T08:08:40.866Z</time>
      </trkpt>
      <trkpt lat="48.705987" lon="16.650492">
        <ele>331.976599</ele>
        <time>2020-09-10T08:08:43.881Z</time>
      </trkpt>
      <trkpt lat="48.706078" lon="16.650534">
        <ele>332.091860</ele>
        <time>2020-09-10T08:08:45.887Z</time>
      </trkpt>
      <trkpt lat="48.706179" lon="16.650591">
        <ele>332.222448</ele>
        <time>2020-09-10T08:08:47.862Z</time>
      </trkpt>
      <trkpt lat="48.706300" lon="16.650671">
        <ele>332.382405</ele>
        <time>2020-09-10T08:08:49.908Z</time>
      </trkpt>
      <trkpt lat="48.706413" lon="16.650778">
        <ele>332.543855</ele>
        <time>2020-09-10T08:08:51.875Z</time>
      </trkpt>
      <trkpt lat="48.706519" lon="16.650893">
        <ele>332.701813</ele>
        <time>2020-09-10T08:08:53.886Z</time>
      </trkpt>
      <trkpt lat="48.706623" lon="16.651010">
        <ele>332.582465</ele>
        <time>2020-09-10T08:08:55.890Z</time>
      </trkpt>
      <trkpt lat="48.706722" lon="16.651117">
        <ele>332.454808</ele>
        <time>2020-09-10T08:08:57.867Z</time>
      </trkpt>
      <trkpt lat="48.706823" lon="16.651233">
        <ele>332.321764</ele>
        <time>2020-09-10T08:08:59.888Z</time>
      </trkpt>
      <trkpt lat="48.706928" lon="16.651359">
        <ele>332.181158</ele>
        <time>2020-09-10T08:09:01.857Z</time>
      </trkpt>
      <trkpt lat="48.707030" lon="16.651473">
        <ele>332.048104</ele>
        <time>2020-09-10T08:09:03.861Z</time>
      </trkpt>
      <trkpt lat="48.707131" lon="16.651578">
        <ele>331.919520</ele>
        <time>2020-09-10T08:09:05.863Z</time>
      </trkpt>
      <trkpt lat="48.707234" lon="16.651680">
        <ele>331.790348</ele>
        <time>2020-09-10T08:09:07.862Z</time>
      </trkpt>
      <trkpt lat="48.707331" lon="16.651779">
        <ele>331.667574</ele>
        <time>2020-09-10T08:09:09.875Z</time>
      </trkpt>
      <trkpt lat="48.707430" lon="16.651862">
        <ele>331.548798</ele>
        <time>2020-09-10T08:09:11.884Z</time>
      </trkpt>
      <trkpt lat="48.707526" lon="16.651940">
        <ele>331.434444</ele>
        <time>2020-09-10T08:09:13.871Z</time>
      </trkpt>
      <trkpt lat="48.707617" lon="16.652022">
        <ele>331.323298</ele>
        <time>2020-09-10T08:09:15.893Z</time>
      </trkpt>
      <trkpt lat="48.707709" lon="16.652109">
        <ele>331.209453</ele>
        <time>2020-09-10T08:09:17.900Z</time>
      </trkpt>
      <trkpt lat="48.707800" lon="16.652197">
        <ele>331.096126</ele>
        <time>2020-09-10T08:09:19.920Z</time>
      </trkpt>
      <trkpt lat="48.707901" lon="16.652281">
        <ele>330.975177</ele>
        <time>2020-09-10T08:09:21.897Z</time>
      </trkpt>
      <trkpt lat="48.708010" lon="16.652369">
        <ele>330.845521</ele>
        <time>2020-09-10T08:09:23.868Z</time>
      </trkpt>
      <trkpt lat="48.708126" lon="16.652466">
        <ele>330.548029</ele>
        <time>2020-09-10T08:09:25.895Z</time>
      </trkpt>
      <trkpt lat="48.708252" lon="16.652571">
        <ele>330.191045</ele>
        <time>2020-09-10T08:09:27.850Z</time>
      </trkpt>
      <trkpt lat="48.708382" lon="16.652679">
        <ele>329.822992</ele>
        <time>2020-09-10T08:09:29.862Z</time>
      </trkpt>
      <trkpt lat="48.708526" lon="16.652775">
        <ele>329.432434</ele>
        <time>2020-09-10T08:09:31.868Z</time>
      </trkpt>
      <trkpt lat="48.708674" lon="16.652844">
        <ele>329.048016</ele>
        <time>2020-09-10T08:09:33.862Z</time>
      </trkpt>
      <trkpt lat="48.708840" lon="16.652901">
        <ele>328.625459</ele>
        <time>2020-09-10T08:09:35.865Z</time>
      </trkpt>
      <trkpt lat="48.708932" lon="16.652928">
        <ele>328.392817</ele>
        <time>2020-09-10T08:09:36.866Z</time>
      </trkpt>
      <trkpt lat="48.709029" lon="16.652945">
        <ele>328.150401</ele>
        <time>2020-09-10T08:09:37.882Z</time>
      </trkpt>
      <trkpt lat="48.709120" lon="16.652944">
        <ele>327.924480</ele>
        <time>2020-09-10T08:09:38.863Z</time>
      </trkpt>
      <trkpt lat="48.709216" lon="16.652942">
        <ele>327.686129</ele>
        <time>2020-09-10T08:09:39.858Z</time>
      </trkpt>
      <trkpt lat="48.709311" lon="16.652972">
        <ele>327.445216</ele>
        <time>2020-09-10T08:09:40.859Z</time>
      </trkpt>
      <trkpt lat="48.709407" lon="16.653006">
        <ele>327.200466</ele>
        <time>2020-09-10T08:09:41.859Z</time>
      </trkpt>
      <trkpt lat="48.709504" lon="16.653055">
        <ele>326.946628</ele>
        <time>2020-09-10T08:09:42.857Z</time>
      </trkpt>
      <trkpt lat="48.709601" lon="16.653099">
        <ele>326.695260</ele>
        <time>2020-09-10T08:09:43.861Z</time>
      </trkpt>
      <trkpt lat="48.709699" lon="16.653128">
        <ele>326.447372</ele>
        <time>2020-09-10T08:09:44.860Z</time>
      </trkpt>
      <trkpt lat="48.709791" lon="16.653164">
        <ele>326.236535</ele>
        <time>2020-09-10T08:09:45.863Z</time>
      </trkpt>
      <trkpt lat="48.709879" lon="16.653198">
        <ele>326.049839</ele>
        <time>2020-09-10T08:09:46.864Z</time>
      </trkpt>
      <trkpt lat="48.710053" lon="16.653250">
        <ele>325.685242</ele>
        <time>2020-09-10T08:09:48.858Z</time>
      </trkpt>
      <trkpt lat="48.710210" lon="16.653303">
        <ele>325.354573</ele>
        <time>2020-09-10T08:09:50.869Z</time>
      </trkpt>
      <trkpt lat="48.710354" lon="16.653354">
        <ele>325.050563</ele>
        <time>2020-09-10T08:09:52.885Z</time>
      </trkpt>
      <trkpt lat="48.710480" lon="16.653394">
        <ele>324.785911</ele>
        <time>2020-09-10T08:09:54.870Z</time>
      </trkpt>
      <trkpt lat="48.710593" lon="16.653422">
        <ele>324.550522</ele>
        <time>2020-09-10T08:09:56.885Z</time>
      </trkpt>
      <trkpt lat="48.710697" lon="16.653446">
        <ele>324.334256</ele>
        <time>2020-09-10T08:09:58.877Z</time>
      </trkpt>
      <trkpt lat="48.710791" lon="16.653470">
        <ele>324.138288</ele>
        <time>2020-09-10T08:10:00.903Z</time>
      </trkpt>
      <trkpt lat="48.710883" lon="16.653490">
        <ele>323.947220</ele>
        <time>2020-09-10T08:10:02.898Z</time>
      </trkpt>
      <trkpt lat="48.710974" lon="16.653512">
        <ele>323.757778</ele>
        <time>2020-09-10T08:10:04.891Z</time>
      </trkpt>
      <trkpt lat="48.711106" lon="16.653546">
        <ele>323.482522</ele>
        <time>2020-09-10T08:10:07.874Z</time>
      </trkpt>
      <trkpt lat="48.711196" lon="16.653562">
        <ele>323.296233</ele>
        <time>2020-09-10T08:10:09.871Z</time>
      </trkpt>
      <trkpt lat="48.711286" lon="16.653577">
        <ele>323.110096</ele>
        <time>2020-09-10T08:10:11.887Z</time>
      </trkpt>
      <trkpt lat="48.711408" lon="16.653578">
        <ele>322.859286</ele>
        <time>2020-09-10T08:10:14.889Z</time>
      </trkpt>
      <trkpt lat="48.711589" lon="16.653269">
        <ele>322.069951</ele>
        <time>2020-09-10T08:10:58.882Z</time>
      </trkpt>
      <trkpt lat="48.711668" lon="16.653156">
        <ele>321.704980</ele>
        <time>2020-09-10T08:11:00.861Z</time>
      </trkpt>
      <trkpt lat="48.711761" lon="16.653031">
        <ele>321.287342</ele>
        <time>2020-09-10T08:11:02.860Z</time>
      </trkpt>
      <trkpt lat="48.711860" lon="16.652886">
        <ele>320.824780</ele>
        <time>2020-09-10T08:11:04.876Z</time>
      </trkpt>
      <trkpt lat="48.711967" lon="16.652727">
        <ele>320.321309</ele>
        <time>2020-09-10T08:11:06.870Z</time>
      </trkpt>
      <trkpt lat="48.712081" lon="16.652554">
        <ele>319.779287</ele>
        <time>2020-09-10T08:11:08.873Z</time>
      </trkpt>
      <trkpt lat="48.712188" lon="16.652395">
        <ele>319.275817</ele>
        <time>2020-09-10T08:11:10.884Z</time>
      </trkpt>
      <trkpt lat="48.712288" lon="16.652254">
        <ele>318.816920</ele>
        <time>2020-09-10T08:11:12.878Z</time>
      </trkpt>
      <trkpt lat="48.712388" lon="16.652114">
        <ele>318.359531</ele>
        <time>2020-09-10T08:11:14.878Z</time>
      </trkpt>
      <trkpt lat="48.712492" lon="16.651961">
        <ele>317.872565</ele>
        <time>2020-09-10T08:11:16.872Z</time>
      </trkpt>
      <trkpt lat="48.712596" lon="16.651808">
        <ele>317.385601</ele>
        <time>2020-09-10T08:11:18.875Z</time>
      </trkpt>
      <trkpt lat="48.712714" lon="16.651632">
        <ele>316.829359</ele>
        <time>2020-09-10T08:11:20.865Z</time>
      </trkpt>
      <trkpt lat="48.712779" lon="16.651537">
        <ele>316.538365</ele>
        <time>2020-09-10T08:11:21.868Z</time>
      </trkpt>
      <trkpt lat="48.712847" lon="16.651438">
        <ele>316.264894</ele>
        <time>2020-09-10T08:11:22.889Z</time>
      </trkpt>
      <trkpt lat="48.712915" lon="16.651331">
        <ele>315.980603</ele>
        <time>2020-09-10T08:11:23.868Z</time>
      </trkpt>
      <trkpt lat="48.712989" lon="16.651228">
        <ele>315.689207</ele>
        <time>2020-09-10T08:11:24.870Z</time>
      </trkpt>
      <trkpt lat="48.713062" lon="16.651123">
        <ele>315.397319</ele>
        <time>2020-09-10T08:11:25.881Z</time>
      </trkpt>
      <trkpt lat="48.713135" lon="16.651018">
        <ele>315.105432</ele>
        <time>2020-09-10T08:11:26.898Z</time>
      </trkpt>
      <trkpt lat="48.713208" lon="16.650914">
        <ele>314.814858</ele>
        <time>2020-09-10T08:11:27.887Z</time>
      </trkpt>
      <trkpt lat="48.713285" lon="16.650811">
        <ele>314.516997</ele>
        <time>2020-09-10T08:11:28.863Z</time>
      </trkpt>
      <trkpt lat="48.713355" lon="16.650704">
        <ele>314.228653</ele>
        <time>2020-09-10T08:11:29.868Z</time>
      </trkpt>
      <trkpt lat="48.713423" lon="16.650600">
        <ele>313.948469</ele>
        <time>2020-09-10T08:11:30.868Z</time>
      </trkpt>
      <trkpt lat="48.713488" lon="16.650500">
        <ele>313.679847</ele>
        <time>2020-09-10T08:11:31.860Z</time>
      </trkpt>
      <trkpt lat="48.713554" lon="16.650405">
        <ele>313.415859</ele>
        <time>2020-09-10T08:11:32.863Z</time>
      </trkpt>
      <trkpt lat="48.713673" lon="16.650228">
        <ele>312.932289</ele>
        <time>2020-09-10T08:11:34.882Z</time>
      </trkpt>
      <trkpt lat="48.713778" lon="16.650061">
        <ele>312.490855</ele>
        <time>2020-09-10T08:11:36.879Z</time>
      </trkpt>
      <trkpt lat="48.713879" lon="16.649909">
        <ele>312.078047</ele>
        <time>2020-09-10T08:11:38.883Z</time>
      </trkpt>
      <trkpt lat="48.713973" lon="16.649758">
        <ele>311.680783</ele>
        <time>2020-09-10T08:11:40.884Z</time>
      </trkpt>
      <trkpt lat="48.714057" lon="16.649618">
        <ele>311.284721</ele>
        <time>2020-09-10T08:11:42.870Z</time>
      </trkpt>
      <trkpt lat="48.714139" lon="16.649493">
        <ele>310.806824</ele>
        <time>2020-09-10T08:11:44.888Z</time>
      </trkpt>
      <trkpt lat="48.714217" lon="16.649369">
        <ele>310.342336</ele>
        <time>2020-09-10T08:11:46.857Z</time>
      </trkpt>
      <trkpt lat="48.714296" lon="16.649245">
        <ele>309.875004</ele>
        <time>2020-09-10T08:11:48.865Z</time>
      </trkpt>
      <trkpt lat="48.714374" lon="16.649127">
        <ele>309.422152</ele>
        <time>2020-09-10T08:11:50.861Z</time>
      </trkpt>
      <trkpt lat="48.714453" lon="16.649014">
        <ele>308.975794</ele>
        <time>2020-09-10T08:11:52.860Z</time>
      </trkpt>
      <trkpt lat="48.714532" lon="16.648904">
        <ele>308.534979</ele>
        <time>2020-09-10T08:11:54.859Z</time>
      </trkpt>
      <trkpt lat="48.714615" lon="16.648780">
        <ele>308.056085</ele>
        <time>2020-09-10T08:11:56.893Z</time>
      </trkpt>
      <trkpt lat="48.714691" lon="16.648669">
        <ele>307.622391</ele>
        <time>2020-09-10T08:11:58.863Z</time>
      </trkpt>
      <trkpt lat="48.714770" lon="16.648551">
        <ele>307.166623</ele>
        <time>2020-09-10T08:12:00.876Z</time>
      </trkpt>
      <trkpt lat="48.714842" lon="16.648443">
        <ele>306.750372</ele>
        <time>2020-09-10T08:12:02.859Z</time>
      </trkpt>
      <trkpt lat="48.714909" lon="16.648337">
        <ele>306.352397</ele>
        <time>2020-09-10T08:12:04.855Z</time>
      </trkpt>
      <trkpt lat="48.714975" lon="16.648235">
        <ele>305.965069</ele>
        <time>2020-09-10T08:12:06.863Z</time>
      </trkpt>
      <trkpt lat="48.715041" lon="16.648139">
        <ele>305.589183</ele>
        <time>2020-09-10T08:12:08.862Z</time>
      </trkpt>
      <trkpt lat="48.715136" lon="16.648003">
        <ele>305.052214</ele>
        <time>2020-09-10T08:12:11.862Z</time>
      </trkpt>
      <trkpt lat="48.715233" lon="16.647868">
        <ele>304.511080</ele>
        <time>2020-09-10T08:12:14.866Z</time>
      </trkpt>
      <trkpt lat="48.715300" lon="16.647772">
        <ele>304.132220</ele>
        <time>2020-09-10T08:12:16.872Z</time>
      </trkpt>
      <trkpt lat="48.715367" lon="16.647678">
        <ele>303.861721</ele>
        <time>2020-09-10T08:12:18.856Z</time>
      </trkpt>
      <trkpt lat="48.715436" lon="16.647584">
        <ele>303.638610</ele>
        <time>2020-09-10T08:12:20.854Z</time>
      </trkpt>
      <trkpt lat="48.715507" lon="16.647482">
        <ele>303.403354</ele>
        <time>2020-09-10T08:12:22.870Z</time>
      </trkpt>
      <trkpt lat="48.715577" lon="16.647375">
        <ele>303.164270</ele>
        <time>2020-09-10T08:12:24.867Z</time>
      </trkpt>
      <trkpt lat="48.715648" lon="16.647259">
        <ele>302.913215</ele>
        <time>2020-09-10T08:12:26.874Z</time>
      </trkpt>
      <trkpt lat="48.715723" lon="16.647137">
        <ele>302.648637</ele>
        <time>2020-09-10T08:12:28.876Z</time>
      </trkpt>
      <trkpt lat="48.715803" lon="16.647009">
        <ele>302.368889</ele>
        <time>2020-09-10T08:12:30.853Z</time>
      </trkpt>
      <trkpt lat="48.715884" lon="16.646883">
        <ele>302.089763</ele>
        <time>2020-09-10T08:12:32.860Z</time>
      </trkpt>
      <trkpt lat="48.715966" lon="16.646755">
        <ele>301.806685</ele>
        <time>2020-09-10T08:12:34.866Z</time>
      </trkpt>
      <trkpt lat="48.716049" lon="16.646629">
        <ele>301.524183</ele>
        <time>2020-09-10T08:12:36.889Z</time>
      </trkpt>
      <trkpt lat="48.716129" lon="16.646501">
        <ele>301.244435</ele>
        <time>2020-09-10T08:12:38.875Z</time>
      </trkpt>
      <trkpt lat="48.716207" lon="16.646371">
        <ele>300.965633</ele>
        <time>2020-09-10T08:12:40.869Z</time>
      </trkpt>
      <trkpt lat="48.716278" lon="16.646248">
        <ele>300.706327</ele>
        <time>2020-09-10T08:12:42.882Z</time>
      </trkpt>
      <trkpt lat="48.716342" lon="16.646144">
        <ele>300.480680</ele>
        <time>2020-09-10T08:12:44.860Z</time>
      </trkpt>
      <trkpt lat="48.716416" lon="16.646045">
        <ele>300.243315</ele>
        <time>2020-09-10T08:12:46.864Z</time>
      </trkpt>
      <trkpt lat="48.716487" lon="16.645942">
        <ele>300.006966</ele>
        <time>2020-09-10T08:12:48.862Z</time>
      </trkpt>
      <trkpt lat="48.716555" lon="16.645836">
        <ele>299.772387</ele>
        <time>2020-09-10T08:12:50.860Z</time>
      </trkpt>
      <trkpt lat="48.716635" lon="16.645717">
        <ele>299.465721</ele>
        <time>2020-09-10T08:12:52.856Z</time>
      </trkpt>
      <trkpt lat="48.716732" lon="16.645577">
        <ele>299.077638</ele>
        <time>2020-09-10T08:12:54.880Z</time>
      </trkpt>
      <trkpt lat="48.716831" lon="16.645436">
        <ele>298.684032</ele>
        <time>2020-09-10T08:12:56.861Z</time>
      </trkpt>
      <trkpt lat="48.716935" lon="16.645285">
        <ele>298.266759</ele>
        <time>2020-09-10T08:12:58.865Z</time>
      </trkpt>
      <trkpt lat="48.717042" lon="16.645130">
        <ele>297.837920</ele>
        <time>2020-09-10T08:13:00.861Z</time>
      </trkpt>
      <trkpt lat="48.717150" lon="16.644966">
        <ele>297.394978</ele>
        <time>2020-09-10T08:13:02.861Z</time>
      </trkpt>
      <trkpt lat="48.717262" lon="16.644803">
        <ele>296.945100</ele>
        <time>2020-09-10T08:13:04.860Z</time>
      </trkpt>
      <trkpt lat="48.717377" lon="16.644624">
        <ele>296.467499</ele>
        <time>2020-09-10T08:13:06.896Z</time>
      </trkpt>
      <trkpt lat="48.717492" lon="16.644452">
        <ele>295.999393</ele>
        <time>2020-09-10T08:13:08.867Z</time>
      </trkpt>
      <trkpt lat="48.717617" lon="16.644269">
        <ele>295.495866</ele>
        <time>2020-09-10T08:13:10.861Z</time>
      </trkpt>
      <trkpt lat="48.717771" lon="16.644125">
        <ele>294.971597</ele>
        <time>2020-09-10T08:13:12.887Z</time>
      </trkpt>
      <trkpt lat="48.717856" lon="16.644059">
        <ele>294.694888</ele>
        <time>2020-09-10T08:13:13.873Z</time>
      </trkpt>
      <trkpt lat="48.717945" lon="16.643991">
        <ele>294.424099</ele>
        <time>2020-09-10T08:13:14.876Z</time>
      </trkpt>
      <trkpt lat="48.718033" lon="16.643917">
        <ele>294.211243</ele>
        <time>2020-09-10T08:13:15.884Z</time>
      </trkpt>
      <trkpt lat="48.718124" lon="16.643862">
        <ele>294.004031</ele>
        <time>2020-09-10T08:13:16.871Z</time>
      </trkpt>
      <trkpt lat="48.718213" lon="16.643802">
        <ele>293.798007</ele>
        <time>2020-09-10T08:13:17.873Z</time>
      </trkpt>
      <trkpt lat="48.718302" lon="16.643740">
        <ele>293.590832</ele>
        <time>2020-09-10T08:13:18.871Z</time>
      </trkpt>
      <trkpt lat="48.718387" lon="16.643676">
        <ele>293.390088</ele>
        <time>2020-09-10T08:13:19.859Z</time>
      </trkpt>
      <trkpt lat="48.718471" lon="16.643613">
        <ele>293.191859</ele>
        <time>2020-09-10T08:13:20.877Z</time>
      </trkpt>
      <trkpt lat="48.718552" lon="16.643550">
        <ele>292.999296</ele>
        <time>2020-09-10T08:13:21.884Z</time>
      </trkpt>
      <trkpt lat="48.718707" lon="16.643430">
        <ele>292.631165</ele>
        <time>2020-09-10T08:13:23.874Z</time>
      </trkpt>
      <trkpt lat="48.718861" lon="16.643336">
        <ele>292.280020</ele>
        <time>2020-09-10T08:13:25.872Z</time>
      </trkpt>
      <trkpt lat="48.718999" lon="16.643223">
        <ele>291.948266</ele>
        <time>2020-09-10T08:13:27.916Z</time>
      </trkpt>
      <trkpt lat="48.719121" lon="16.643115">
        <ele>291.649438</ele>
        <time>2020-09-10T08:13:29.874Z</time>
      </trkpt>
      <trkpt lat="48.719232" lon="16.643000">
        <ele>291.365058</ele>
        <time>2020-09-10T08:13:31.889Z</time>
      </trkpt>
      <trkpt lat="48.719331" lon="16.642859">
        <ele>291.077727</ele>
        <time>2020-09-10T08:13:33.868Z</time>
      </trkpt>
      <trkpt lat="48.719428" lon="16.642726">
        <ele>290.801073</ele>
        <time>2020-09-10T08:13:35.868Z</time>
      </trkpt>
      <trkpt lat="48.719523" lon="16.642600">
        <ele>290.351474</ele>
        <time>2020-09-10T08:13:37.869Z</time>
      </trkpt>
      <trkpt lat="48.719623" lon="16.642496">
        <ele>289.746322</ele>
        <time>2020-09-10T08:13:39.864Z</time>
      </trkpt>
      <trkpt lat="48.719719" lon="16.642386">
        <ele>289.145818</ele>
        <time>2020-09-10T08:13:41.902Z</time>
      </trkpt>
      <trkpt lat="48.719806" lon="16.642278">
        <ele>288.584686</ele>
        <time>2020-09-10T08:13:43.877Z</time>
      </trkpt>
      <trkpt lat="48.719892" lon="16.642180">
        <ele>288.047810</ele>
        <time>2020-09-10T08:13:45.903Z</time>
      </trkpt>
      <trkpt lat="48.719982" lon="16.642089">
        <ele>287.507970</ele>
        <time>2020-09-10T08:13:47.867Z</time>
      </trkpt>
      <trkpt lat="48.720069" lon="16.641996">
        <ele>286.976751</ele>
        <time>2020-09-10T08:13:49.867Z</time>
      </trkpt>
      <trkpt lat="48.720150" lon="16.641896">
        <ele>286.455468</ele>
        <time>2020-09-10T08:13:51.894Z</time>
      </trkpt>
      <trkpt lat="48.720225" lon="16.641797">
        <ele>285.959208</ele>
        <time>2020-09-10T08:13:53.866Z</time>
      </trkpt>
      <trkpt lat="48.720324" lon="16.641675">
        <ele>285.322546</ele>
        <time>2020-09-10T08:13:56.876Z</time>
      </trkpt>
      <trkpt lat="48.720398" lon="16.641575">
        <ele>284.827855</ele>
        <time>2020-09-10T08:13:59.881Z</time>
      </trkpt>
      <trkpt lat="48.720445" lon="16.641433">
        <ele>284.304859</ele>
        <time>2020-09-10T08:14:05.878Z</time>
      </trkpt>
      <trkpt lat="48.720414" lon="16.641278">
        <ele>283.771668</ele>
        <time>2020-09-10T08:14:09.870Z</time>
      </trkpt>
      <trkpt lat="48.720349" lon="16.641142">
        <ele>283.218817</ele>
        <time>2020-09-10T08:14:12.875Z</time>
      </trkpt>
      <trkpt lat="48.720281" lon="16.640993">
        <ele>282.622384</ele>
        <time>2020-09-10T08:14:15.878Z</time>
      </trkpt>
      <trkpt lat="48.720213" lon="16.640830">
        <ele>281.987506</ele>
        <time>2020-09-10T08:14:18.873Z</time>
      </trkpt>
      <trkpt lat="48.720146" lon="16.640665">
        <ele>281.551489</ele>
        <time>2020-09-10T08:14:21.872Z</time>
      </trkpt>
      <trkpt lat="48.720075" lon="16.640505">
        <ele>281.289418</ele>
        <time>2020-09-10T08:14:24.871Z</time>
      </trkpt>
      <trkpt lat="48.720029" lon="16.640388">
        <ele>281.104307</ele>
        <time>2020-09-10T08:14:26.904Z</time>
      </trkpt>
      <trkpt lat="48.719963" lon="16.640217">
        <ele>280.835048</ele>
        <time>2020-09-10T08:14:29.894Z</time>
      </trkpt>
      <trkpt lat="48.719895" lon="16.640046">
        <ele>280.563686</ele>
        <time>2020-09-10T08:14:32.872Z</time>
      </trkpt>
      <trkpt lat="48.719829" lon="16.639884">
        <ele>280.304911</ele>
        <time>2020-09-10T08:14:35.863Z</time>
      </trkpt>
      <trkpt lat="48.719757" lon="16.639726">
        <ele>280.043924</ele>
        <time>2020-09-10T08:14:38.866Z</time>
      </trkpt>
      <trkpt lat="48.719691" lon="16.639557">
        <ele>279.777008</ele>
        <time>2020-09-10T08:14:41.873Z</time>
      </trkpt>
      <trkpt lat="48.719629" lon="16.639378">
        <ele>279.502235</ele>
        <time>2020-09-10T08:14:44.872Z</time>
      </trkpt>
      <trkpt lat="48.719580" lon="16.639262">
        <ele>279.315029</ele>
        <time>2020-09-10T08:14:46.869Z</time>
      </trkpt>
      <trkpt lat="48.719528" lon="16.639145">
        <ele>279.123295</ele>
        <time>2020-09-10T08:14:48.914Z</time>
      </trkpt>
      <trkpt lat="48.719477" lon="16.639025">
        <ele>278.929289</ele>
        <time>2020-09-10T08:14:50.911Z</time>
      </trkpt>
      <trkpt lat="48.719430" lon="16.638902">
        <ele>278.736101</ele>
        <time>2020-09-10T08:14:52.873Z</time>
      </trkpt>
      <trkpt lat="48.719382" lon="16.638777">
        <ele>278.539528</ele>
        <time>2020-09-10T08:14:54.866Z</time>
      </trkpt>
      <trkpt lat="48.719328" lon="16.638645">
        <ele>278.328432</ele>
        <time>2020-09-10T08:14:56.867Z</time>
      </trkpt>
      <trkpt lat="48.719272" lon="16.638511">
        <ele>278.112844</ele>
        <time>2020-09-10T08:14:58.902Z</time>
      </trkpt>
      <trkpt lat="48.719215" lon="16.638368">
        <ele>277.959844</ele>
        <time>2020-09-10T08:15:00.901Z</time>
      </trkpt>
      <trkpt lat="48.719160" lon="16.638220">
        <ele>277.896181</ele>
        <time>2020-09-10T08:15:02.871Z</time>
      </trkpt>
      <trkpt lat="48.719102" lon="16.638068">
        <ele>277.830372</ele>
        <time>2020-09-10T08:15:04.881Z</time>
      </trkpt>
      <trkpt lat="48.719035" lon="16.637918">
        <ele>277.762481</ele>
        <time>2020-09-10T08:15:06.891Z</time>
      </trkpt>
      <trkpt lat="48.718971" lon="16.637768">
        <ele>277.695531</ele>
        <time>2020-09-10T08:15:08.867Z</time>
      </trkpt>
      <trkpt lat="48.718908" lon="16.637618">
        <ele>277.628887</ele>
        <time>2020-09-10T08:15:10.877Z</time>
      </trkpt>
      <trkpt lat="48.718842" lon="16.637469">
        <ele>277.561625</ele>
        <time>2020-09-10T08:15:12.859Z</time>
      </trkpt>
      <trkpt lat="48.718776" lon="16.637323">
        <ele>277.495293</ele>
        <time>2020-09-10T08:15:14.884Z</time>
      </trkpt>
      <trkpt lat="48.718714" lon="16.637179">
        <ele>277.430847</ele>
        <time>2020-09-10T08:15:16.890Z</time>
      </trkpt>
      <trkpt lat="48.718654" lon="16.637032">
        <ele>277.366062</ele>
        <time>2020-09-10T08:15:18.874Z</time>
      </trkpt>
      <trkpt lat="48.718596" lon="16.636887">
        <ele>277.302509</ele>
        <time>2020-09-10T08:15:20.903Z</time>
      </trkpt>
      <trkpt lat="48.718539" lon="16.636749">
        <ele>277.241488</ele>
        <time>2020-09-10T08:15:22.880Z</time>
      </trkpt>
      <trkpt lat="48.718487" lon="16.636612">
        <ele>277.182251</ele>
        <time>2020-09-10T08:15:24.875Z</time>
      </trkpt>
      <trkpt lat="48.718438" lon="16.636484">
        <ele>277.126787</ele>
        <time>2020-09-10T08:15:26.890Z</time>
      </trkpt>
      <trkpt lat="48.718389" lon="16.636356">
        <ele>277.071322</ele>
        <time>2020-09-10T08:15:28.886Z</time>
      </trkpt>
      <trkpt lat="48.718328" lon="16.636203">
        <ele>277.004322</ele>
        <time>2020-09-10T08:15:31.872Z</time>
      </trkpt>
      <trkpt lat="48.718272" lon="16.636072">
        <ele>276.972200</ele>
        <time>2020-09-10T08:15:34.854Z</time>
      </trkpt>
      <trkpt lat="48.718203" lon="16.635932">
        <ele>276.991136</ele>
        <time>2020-09-10T08:15:38.859Z</time>
      </trkpt>
      <trkpt lat="48.718139" lon="16.635824">
        <ele>277.006866</ele>
        <time>2020-09-10T08:15:41.871Z</time>
      </trkpt>
      <trkpt lat="48.718059" lon="16.635727">
        <ele>277.023692</ele>
        <time>2020-09-10T08:15:44.890Z</time>
      </trkpt>
      <trkpt lat="48.717975" lon="16.635626">
        <ele>277.041301</ele>
        <time>2020-09-10T08:15:47.879Z</time>
      </trkpt>
      <trkpt lat="48.717889" lon="16.635516">
        <ele>277.059783</ele>
        <time>2020-09-10T08:15:50.867Z</time>
      </trkpt>
      <trkpt lat="48.717795" lon="16.635418">
        <ele>277.078521</ele>
        <time>2020-09-10T08:15:53.864Z</time>
      </trkpt>
      <trkpt lat="48.717688" lon="16.635316">
        <ele>277.099281</ele>
        <time>2020-09-10T08:15:56.870Z</time>
      </trkpt>
      <trkpt lat="48.717578" lon="16.635204">
        <ele>277.121045</ele>
        <time>2020-09-10T08:15:59.877Z</time>
      </trkpt>
      <trkpt lat="48.717467" lon="16.635090">
        <ele>277.143066</ele>
        <time>2020-09-10T08:16:02.866Z</time>
      </trkpt>
      <trkpt lat="48.717353" lon="16.634994">
        <ele>277.164485</ele>
        <time>2020-09-10T08:16:05.865Z</time>
      </trkpt>
      <trkpt lat="48.717240" lon="16.634897">
        <ele>277.185813</ele>
        <time>2020-09-10T08:16:08.877Z</time>
      </trkpt>
      <trkpt lat="48.717159" lon="16.634819">
        <ele>277.201574</ele>
        <time>2020-09-10T08:16:10.872Z</time>
      </trkpt>
      <trkpt lat="48.717081" lon="16.634729">
        <ele>277.217675</ele>
        <time>2020-09-10T08:16:12.870Z</time>
      </trkpt>
      <trkpt lat="48.717004" lon="16.634611">
        <ele>277.235659</ele>
        <time>2020-09-10T08:16:14.873Z</time>
      </trkpt>
      <trkpt lat="48.716939" lon="16.634481">
        <ele>277.253333</ele>
        <time>2020-09-10T08:16:16.877Z</time>
      </trkpt>
      <trkpt lat="48.716883" lon="16.634321">
        <ele>277.237196</ele>
        <time>2020-09-10T08:16:18.865Z</time>
      </trkpt>
      <trkpt lat="48.716850" lon="16.634144">
        <ele>277.193894</ele>
        <time>2020-09-10T08:16:20.864Z</time>
      </trkpt>
      <trkpt lat="48.716843" lon="16.633961">
        <ele>277.150738</ele>
        <time>2020-09-10T08:16:22.877Z</time>
      </trkpt>
      <trkpt lat="48.716848" lon="16.633775">
        <ele>277.106912</ele>
        <time>2020-09-10T08:16:24.885Z</time>
      </trkpt>
      <trkpt lat="48.716857" lon="16.633607">
        <ele>277.067229</ele>
        <time>2020-09-10T08:16:26.864Z</time>
      </trkpt>
      <trkpt lat="48.716875" lon="16.633446">
        <ele>277.028785</ele>
        <time>2020-09-10T08:16:28.857Z</time>
      </trkpt>
      <trkpt lat="48.716896" lon="16.633291">
        <ele>276.991532</ele>
        <time>2020-09-10T08:16:30.884Z</time>
      </trkpt>
      <trkpt lat="48.716916" lon="16.633137">
        <ele>276.954580</ele>
        <time>2020-09-10T08:16:32.880Z</time>
      </trkpt>
      <trkpt lat="48.716939" lon="16.632992">
        <ele>276.919470</ele>
        <time>2020-09-10T08:16:34.871Z</time>
      </trkpt>
      <trkpt lat="48.716968" lon="16.632847">
        <ele>276.883799</ele>
        <time>2020-09-10T08:16:36.887Z</time>
      </trkpt>
      <trkpt lat="48.716997" lon="16.632701">
        <ele>276.847903</ele>
        <time>2020-09-10T08:16:38.894Z</time>
      </trkpt>
      <trkpt lat="48.717025" lon="16.632552">
        <ele>276.811429</ele>
        <time>2020-09-10T08:16:40.898Z</time>
      </trkpt>
      <trkpt lat="48.717052" lon="16.632410">
        <ele>276.776637</ele>
        <time>2020-09-10T08:16:42.867Z</time>
      </trkpt>
      <trkpt lat="48.717096" lon="16.632273">
        <ele>276.740765</ele>
        <time>2020-09-10T08:16:44.872Z</time>
      </trkpt>
      <trkpt lat="48.717136" lon="16.632138">
        <ele>276.705925</ele>
        <time>2020-09-10T08:16:46.888Z</time>
      </trkpt>
      <trkpt lat="48.717175" lon="16.632010">
        <ele>276.672732</ele>
        <time>2020-09-10T08:16:48.873Z</time>
      </trkpt>
      <trkpt lat="48.717221" lon="16.631892">
        <ele>276.640464</ele>
        <time>2020-09-10T08:16:50.867Z</time>
      </trkpt>
      <trkpt lat="48.717300" lon="16.631816">
        <ele>276.602372</ele>
        <time>2020-09-10T08:16:53.875Z</time>
      </trkpt>
      <trkpt lat="48.717400" lon="16.631667">
        <ele>276.533947</ele>
        <time>2020-09-10T08:18:08.861Z</time>
      </trkpt>
      <trkpt lat="48.717460" lon="16.631526">
        <ele>276.479932</ele>
        <time>2020-09-10T08:18:11.857Z</time>
      </trkpt>
      <trkpt lat="48.717524" lon="16.631379">
        <ele>276.423233</ele>
        <time>2020-09-10T08:18:14.902Z</time>
      </trkpt>
      <trkpt lat="48.717587" lon="16.631259">
        <ele>276.373862</ele>
        <time>2020-09-10T08:18:18.883Z</time>
      </trkpt>
      <trkpt lat="48.717707" lon="16.631069">
        <ele>276.289187</ele>
        <time>2020-09-10T08:18:47.868Z</time>
      </trkpt>
      <trkpt lat="48.717760" lon="16.630919">
        <ele>276.234408</ele>
        <time>2020-09-10T08:18:51.881Z</time>
      </trkpt>
      <trkpt lat="48.717830" lon="16.630808">
        <ele>276.184975</ele>
        <time>2020-09-10T08:18:54.863Z</time>
      </trkpt>
      <trkpt lat="48.717897" lon="16.630696">
        <ele>276.136304</ele>
        <time>2020-09-10T08:18:57.877Z</time>
      </trkpt>
      <trkpt lat="48.717965" lon="16.630572">
        <ele>276.084395</ele>
        <time>2020-09-10T08:19:00.875Z</time>
      </trkpt>
      <trkpt lat="48.718071" lon="16.630304">
        <ele>275.983802</ele>
        <time>2020-09-10T08:19:44.878Z</time>
      </trkpt>
      <trkpt lat="48.718134" lon="16.630191">
        <ele>275.936174</ele>
        <time>2020-09-10T08:19:47.879Z</time>
      </trkpt>
      <trkpt lat="48.718202" lon="16.630066">
        <ele>275.884018</ele>
        <time>2020-09-10T08:19:50.883Z</time>
      </trkpt>
      <trkpt lat="48.718279" lon="16.629916">
        <ele>275.822834</ele>
        <time>2020-09-10T08:19:53.892Z</time>
      </trkpt>
      <trkpt lat="48.718362" lon="16.629760">
        <ele>275.758317</ele>
        <time>2020-09-10T08:19:56.880Z</time>
      </trkpt>
      <trkpt lat="48.718443" lon="16.629599">
        <ele>275.726077</ele>
        <time>2020-09-10T08:19:59.869Z</time>
      </trkpt>
      <trkpt lat="48.718501" lon="16.629495">
        <ele>275.711650</ele>
        <time>2020-09-10T08:20:01.872Z</time>
      </trkpt>
      <trkpt lat="48.718561" lon="16.629388">
        <ele>275.696773</ele>
        <time>2020-09-10T08:20:03.875Z</time>
      </trkpt>
      <trkpt lat="48.718624" lon="16.629281">
        <ele>275.681579</ele>
        <time>2020-09-10T08:20:05.870Z</time>
      </trkpt>
      <trkpt lat="48.718687" lon="16.629172">
        <ele>275.666227</ele>
        <time>2020-09-10T08:20:07.876Z</time>
      </trkpt>
      <trkpt lat="48.718754" lon="16.629072">
        <ele>275.651128</ele>
        <time>2020-09-10T08:20:09.869Z</time>
      </trkpt>
      <trkpt lat="48.718827" lon="16.628973">
        <ele>275.635398</ele>
        <time>2020-09-10T08:20:11.866Z</time>
      </trkpt>
      <trkpt lat="48.718902" lon="16.628873">
        <ele>275.619359</ele>
        <time>2020-09-10T08:20:13.890Z</time>
      </trkpt>
      <trkpt lat="48.718971" lon="16.628775">
        <ele>275.604175</ele>
        <time>2020-09-10T08:20:15.876Z</time>
      </trkpt>
      <trkpt lat="48.719035" lon="16.628667">
        <ele>275.588795</ele>
        <time>2020-09-10T08:20:17.881Z</time>
      </trkpt>
      <trkpt lat="48.719094" lon="16.628563">
        <ele>275.574264</ele>
        <time>2020-09-10T08:20:19.860Z</time>
      </trkpt>
      <trkpt lat="48.719157" lon="16.628452">
        <ele>275.558752</ele>
        <time>2020-09-10T08:20:21.865Z</time>
      </trkpt>
      <trkpt lat="48.719218" lon="16.628343">
        <ele>275.543610</ele>
        <time>2020-09-10T08:20:23.879Z</time>
      </trkpt>
      <trkpt lat="48.719277" lon="16.628234">
        <ele>275.528673</ele>
        <time>2020-09-10T08:20:25.861Z</time>
      </trkpt>
      <trkpt lat="48.719335" lon="16.628121">
        <ele>275.513505</ele>
        <time>2020-09-10T08:20:27.908Z</time>
      </trkpt>
      <trkpt lat="48.719392" lon="16.628007">
        <ele>275.498352</ele>
        <time>2020-09-10T08:20:29.882Z</time>
      </trkpt>
      <trkpt lat="48.719468" lon="16.627841">
        <ele>275.476946</ele>
        <time>2020-09-10T08:20:32.896Z</time>
      </trkpt>
      <trkpt lat="48.719500" lon="16.627657">
        <ele>275.456787</ele>
        <time>2020-09-10T08:20:35.868Z</time>
      </trkpt>
      <trkpt lat="48.719470" lon="16.627518">
        <ele>275.453010</ele>
        <time>2020-09-10T08:20:39.864Z</time>
      </trkpt>
      <trkpt lat="48.719433" lon="16.627387">
        <ele>275.452509</ele>
        <time>2020-09-10T08:21:07.893Z</time>
      </trkpt>
      <trkpt lat="48.719407" lon="16.627214">
        <ele>275.451884</ele>
        <time>2020-09-10T08:21:11.866Z</time>
      </trkpt>
      <trkpt lat="48.719352" lon="16.627076">
        <ele>275.451317</ele>
        <time>2020-09-10T08:21:14.885Z</time>
      </trkpt>
      <trkpt lat="48.719294" lon="16.626923">
        <ele>275.450696</ele>
        <time>2020-09-10T08:21:17.883Z</time>
      </trkpt>
      <trkpt lat="48.719267" lon="16.626760">
        <ele>275.450104</ele>
        <time>2020-09-10T08:21:20.882Z</time>
      </trkpt>
      <trkpt lat="48.719244" lon="16.626592">
        <ele>275.449500</ele>
        <time>2020-09-10T08:21:23.865Z</time>
      </trkpt>
      <trkpt lat="48.719219" lon="16.626427">
        <ele>275.448904</ele>
        <time>2020-09-10T08:21:26.881Z</time>
      </trkpt>
      <trkpt lat="48.719190" lon="16.626277">
        <ele>275.448354</ele>
        <time>2020-09-10T08:21:29.879Z</time>
      </trkpt>
      <trkpt lat="48.719168" lon="16.626124">
        <ele>275.447803</ele>
        <time>2020-09-10T08:21:32.893Z</time>
      </trkpt>
      <trkpt lat="48.719144" lon="16.625992">
        <ele>275.447321</ele>
        <time>2020-09-10T08:21:35.871Z</time>
      </trkpt>
      <trkpt lat="48.719111" lon="16.625840">
        <ele>275.446758</ele>
        <time>2020-09-10T08:21:39.883Z</time>
      </trkpt>
      <trkpt lat="48.719083" lon="16.625709">
        <ele>275.446273</ele>
        <time>2020-09-10T08:21:43.875Z</time>
      </trkpt>
      <trkpt lat="48.719036" lon="16.625573">
        <ele>275.445733</ele>
        <time>2020-09-10T08:21:48.874Z</time>
      </trkpt>
      <trkpt lat="48.718994" lon="16.625451">
        <ele>275.445248</ele>
        <time>2020-09-10T08:21:53.883Z</time>
      </trkpt>
      <trkpt lat="48.718955" lon="16.625310">
        <ele>275.444710</ele>
        <time>2020-09-10T08:21:58.867Z</time>
      </trkpt>
      <trkpt lat="48.718909" lon="16.625169">
        <ele>275.444156</ele>
        <time>2020-09-10T08:22:03.881Z</time>
      </trkpt>
      <trkpt lat="48.718864" lon="16.625004">
        <ele>275.507975</ele>
        <time>2020-09-10T08:22:07.867Z</time>
      </trkpt>
      <trkpt lat="48.718809" lon="16.624868">
        <ele>275.632620</ele>
        <time>2020-09-10T08:22:10.872Z</time>
      </trkpt>
      <trkpt lat="48.718757" lon="16.624723">
        <ele>275.761580</ele>
        <time>2020-09-10T08:22:13.912Z</time>
      </trkpt>
      <trkpt lat="48.718683" lon="16.624624">
        <ele>275.878480</ele>
        <time>2020-09-10T08:22:16.876Z</time>
      </trkpt>
      <trkpt lat="48.718606" lon="16.624518">
        <ele>276.001677</ele>
        <time>2020-09-10T08:22:20.868Z</time>
      </trkpt>
      <trkpt lat="48.718527" lon="16.624404">
        <ele>276.130866</ele>
        <time>2020-09-10T08:22:25.856Z</time>
      </trkpt>
      <trkpt lat="48.718455" lon="16.624299">
        <ele>276.249202</ele>
        <time>2020-09-10T08:22:29.862Z</time>
      </trkpt>
      <trkpt lat="48.718388" lon="16.624207">
        <ele>276.356277</ele>
        <time>2020-09-10T08:22:33.877Z</time>
      </trkpt>
      <trkpt lat="48.718316" lon="16.624122">
        <ele>276.464366</ele>
        <time>2020-09-10T08:22:37.879Z</time>
      </trkpt>
      <trkpt lat="48.718234" lon="16.624014">
        <ele>276.593029</ele>
        <time>2020-09-10T08:22:42.864Z</time>
      </trkpt>
      <trkpt lat="48.718151" lon="16.623944">
        <ele>276.705525</ele>
        <time>2020-09-10T08:22:46.877Z</time>
      </trkpt>
      <trkpt lat="48.718054" lon="16.623864">
        <ele>276.836316</ele>
        <time>2020-09-10T08:22:51.861Z</time>
      </trkpt>
      <trkpt lat="48.717959" lon="16.623797">
        <ele>276.960416</ele>
        <time>2020-09-10T08:22:56.881Z</time>
      </trkpt>
      <trkpt lat="48.717868" lon="16.623732">
        <ele>277.079562</ele>
        <time>2020-09-10T08:23:01.895Z</time>
      </trkpt>
      <trkpt lat="48.717775" lon="16.623668">
        <ele>277.200531</ele>
        <time>2020-09-10T08:23:06.898Z</time>
      </trkpt>
      <trkpt lat="48.717679" lon="16.623632">
        <ele>277.317659</ele>
        <time>2020-09-10T08:23:12.870Z</time>
      </trkpt>
      <trkpt lat="48.717579" lon="16.623606">
        <ele>277.437827</ele>
        <time>2020-09-10T08:23:19.872Z</time>
      </trkpt>
      <trkpt lat="48.717497" lon="16.623548">
        <ele>277.545000</ele>
        <time>2020-09-10T08:23:25.881Z</time>
      </trkpt>
      <trkpt lat="48.717405" lon="16.623505">
        <ele>277.796310</ele>
        <time>2020-09-10T08:23:30.856Z</time>
      </trkpt>
      <trkpt lat="48.717314" lon="16.623473">
        <ele>278.085772</ele>
        <time>2020-09-10T08:23:34.863Z</time>
      </trkpt>
      <trkpt lat="48.717217" lon="16.623406">
        <ele>278.416075</ele>
        <time>2020-09-10T08:23:40.860Z</time>
      </trkpt>
      <trkpt lat="48.717162" lon="16.623292">
        <ele>278.704797</ele>
        <time>2020-09-10T08:23:56.898Z</time>
      </trkpt>
      <trkpt lat="48.717141" lon="16.623154">
        <ele>278.994329</ele>
        <time>2020-09-10T08:24:04.858Z</time>
      </trkpt>
      <trkpt lat="48.717134" lon="16.623003">
        <ele>279.303792</ele>
        <time>2020-09-10T08:24:11.863Z</time>
      </trkpt>
      <trkpt lat="48.717131" lon="16.622844">
        <ele>279.628982</ele>
        <time>2020-09-10T08:24:18.855Z</time>
      </trkpt>
      <trkpt lat="48.717120" lon="16.622686">
        <ele>279.953787</ele>
        <time>2020-09-10T08:24:25.897Z</time>
      </trkpt>
      <trkpt lat="48.717115" lon="16.622548">
        <ele>280.236337</ele>
        <time>2020-09-10T08:24:31.867Z</time>
      </trkpt>
      <trkpt lat="48.717104" lon="16.622401">
        <ele>280.538788</ele>
        <time>2020-09-10T08:24:37.855Z</time>
      </trkpt>
      <trkpt lat="48.717112" lon="16.622256">
        <ele>280.836259</ele>
        <time>2020-09-10T08:24:44.871Z</time>
      </trkpt>
      <trkpt lat="48.717152" lon="16.622121">
        <ele>281.138804</ele>
        <time>2020-09-10T08:24:52.862Z</time>
      </trkpt>
      <trkpt lat="48.717138" lon="16.621968">
        <ele>281.454588</ele>
        <time>2020-09-10T08:25:00.879Z</time>
      </trkpt>
      <trkpt lat="48.717035" lon="16.621895">
        <ele>281.806913</ele>
        <time>2020-09-10T08:25:25.841Z</time>
      </trkpt>
      <trkpt lat="48.717047" lon="16.621755">
        <ele>282.095532</ele>
        <time>2020-09-10T08:25:43.858Z</time>
      </trkpt>
      <trkpt lat="48.717075" lon="16.621891">
        <ele>282.386791</ele>
        <time>2020-09-10T08:26:17.859Z</time>
      </trkpt>
      <trkpt lat="48.717075" lon="16.621729">
        <ele>282.717981</ele>
        <time>2020-09-10T08:26:25.877Z</time>
      </trkpt>
      <trkpt lat="48.717058" lon="16.621563">
        <ele>283.061413</ele>
        <time>2020-09-10T08:26:30.853Z</time>
      </trkpt>
      <trkpt lat="48.717058" lon="16.621401">
        <ele>283.300995</ele>
        <time>2020-09-10T08:26:35.884Z</time>
      </trkpt>
      <trkpt lat="48.717069" lon="16.621253">
        <ele>283.491743</ele>
        <time>2020-09-10T08:26:39.853Z</time>
      </trkpt>
      <trkpt lat="48.717089" lon="16.621096">
        <ele>283.696533</ele>
        <time>2020-09-10T08:26:43.867Z</time>
      </trkpt>
      <trkpt lat="48.717122" lon="16.620924">
        <ele>283.925946</ele>
        <time>2020-09-10T08:26:47.866Z</time>
      </trkpt>
      <trkpt lat="48.717141" lon="16.620778">
        <ele>284.116537</ele>
        <time>2020-09-10T08:26:51.858Z</time>
      </trkpt>
      <trkpt lat="48.717172" lon="16.620629">
        <ele>284.316630</ele>
        <time>2020-09-10T08:26:55.890Z</time>
      </trkpt>
      <trkpt lat="48.717210" lon="16.620489">
        <ele>284.510514</ele>
        <time>2020-09-10T08:27:01.858Z</time>
      </trkpt>
      <trkpt lat="48.717264" lon="16.620356">
        <ele>284.710521</ele>
        <time>2020-09-10T08:27:07.882Z</time>
      </trkpt>
      <trkpt lat="48.717316" lon="16.620217">
        <ele>284.915169</ele>
        <time>2020-09-10T08:27:12.906Z</time>
      </trkpt>
      <trkpt lat="48.717414" lon="16.620156">
        <ele>285.120821</ele>
        <time>2020-09-10T08:27:17.858Z</time>
      </trkpt>
      <trkpt lat="48.717491" lon="16.620070">
        <ele>285.306490</ele>
        <time>2020-09-10T08:27:23.886Z</time>
      </trkpt>
      <trkpt lat="48.717564" lon="16.619957">
        <ele>285.509036</ele>
        <time>2020-09-10T08:27:28.852Z</time>
      </trkpt>
      <trkpt lat="48.717650" lon="16.619890">
        <ele>285.696739</ele>
        <time>2020-09-10T08:27:32.876Z</time>
      </trkpt>
      <trkpt lat="48.717731" lon="16.619813">
        <ele>285.882340</ele>
        <time>2020-09-10T08:27:36.885Z</time>
      </trkpt>
      <trkpt lat="48.717807" lon="16.619719">
        <ele>286.072756</ele>
        <time>2020-09-10T08:27:40.877Z</time>
      </trkpt>
      <trkpt lat="48.717856" lon="16.619588">
        <ele>286.265618</ele>
        <time>2020-09-10T08:27:44.858Z</time>
      </trkpt>
      <trkpt lat="48.717925" lon="16.619459">
        <ele>286.478304</ele>
        <time>2020-09-10T08:27:49.896Z</time>
      </trkpt>
      <trkpt lat="48.717978" lon="16.619335">
        <ele>286.673833</ele>
        <time>2020-09-10T08:27:54.887Z</time>
      </trkpt>
      <trkpt lat="48.718014" lon="16.619194">
        <ele>286.910013</ele>
        <time>2020-09-10T08:27:59.858Z</time>
      </trkpt>
      <trkpt lat="48.718008" lon="16.619055">
        <ele>287.127615</ele>
        <time>2020-09-10T08:28:04.896Z</time>
      </trkpt>
      <trkpt lat="48.717965" lon="16.618902">
        <ele>287.387405</ele>
        <time>2020-09-10T08:28:09.873Z</time>
      </trkpt>
      <trkpt lat="48.717951" lon="16.618768">
        <ele>287.599341</ele>
        <time>2020-09-10T08:28:14.873Z</time>
      </trkpt>
      <trkpt lat="48.717925" lon="16.618637">
        <ele>287.813042</ele>
        <time>2020-09-10T08:28:27.864Z</time>
      </trkpt>
      <trkpt lat="48.717919" lon="16.618494">
        <ele>288.036880</ele>
        <time>2020-09-10T08:28:31.867Z</time>
      </trkpt>
      <trkpt lat="48.717905" lon="16.618348">
        <ele>288.267350</ele>
        <time>2020-09-10T08:28:36.867Z</time>
      </trkpt>
      <trkpt lat="48.717894" lon="16.618199">
        <ele>288.501563</ele>
        <time>2020-09-10T08:28:41.913Z</time>
      </trkpt>
      <trkpt lat="48.717885" lon="16.618047">
        <ele>288.739964</ele>
        <time>2020-09-10T08:28:46.865Z</time>
      </trkpt>
      <trkpt lat="48.717877" lon="16.617898">
        <ele>288.973494</ele>
        <time>2020-09-10T08:28:51.872Z</time>
      </trkpt>
      <trkpt lat="48.717869" lon="16.617755">
        <ele>289.197683</ele>
        <time>2020-09-10T08:28:56.861Z</time>
      </trkpt>
      <trkpt lat="48.717856" lon="16.617607">
        <ele>289.430921</ele>
        <time>2020-09-10T08:29:01.874Z</time>
      </trkpt>
      <trkpt lat="48.717851" lon="16.617468">
        <ele>289.648382</ele>
        <time>2020-09-10T08:29:06.900Z</time>
      </trkpt>
      <trkpt lat="48.717848" lon="16.617321">
        <ele>289.878128</ele>
        <time>2020-09-10T08:29:11.887Z</time>
      </trkpt>
      <trkpt lat="48.717845" lon="16.617183">
        <ele>290.093822</ele>
        <time>2020-09-10T08:29:16.871Z</time>
      </trkpt>
      <trkpt lat="48.717834" lon="16.617037">
        <ele>290.323379</ele>
        <time>2020-09-10T08:29:21.873Z</time>
      </trkpt>
      <trkpt lat="48.717833" lon="16.616872">
        <ele>290.581144</ele>
        <time>2020-09-10T08:29:26.866Z</time>
      </trkpt>
      <trkpt lat="48.717839" lon="16.616705">
        <ele>290.842410</ele>
        <time>2020-09-10T08:29:31.891Z</time>
      </trkpt>
      <trkpt lat="48.717828" lon="16.616538">
        <ele>291.191459</ele>
        <time>2020-09-10T08:29:36.874Z</time>
      </trkpt>
      <trkpt lat="48.717805" lon="16.616380">
        <ele>291.550260</ele>
        <time>2020-09-10T08:29:41.890Z</time>
      </trkpt>
      <trkpt lat="48.717771" lon="16.616250">
        <ele>291.860367</ele>
        <time>2020-09-10T08:29:46.883Z</time>
      </trkpt>
      <trkpt lat="48.717729" lon="16.616118">
        <ele>292.185347</ele>
        <time>2020-09-10T08:29:51.863Z</time>
      </trkpt>
      <trkpt lat="48.717681" lon="16.615999">
        <ele>292.494647</ele>
        <time>2020-09-10T08:29:56.897Z</time>
      </trkpt>
      <trkpt lat="48.717642" lon="16.615852">
        <ele>292.845997</ele>
        <time>2020-09-10T08:30:02.871Z</time>
      </trkpt>
      <trkpt lat="48.717618" lon="16.615708">
        <ele>293.175358</ele>
        <time>2020-09-10T08:30:08.874Z</time>
      </trkpt>
      <trkpt lat="48.717593" lon="16.615566">
        <ele>293.501271</ele>
        <time>2020-09-10T08:30:14.866Z</time>
      </trkpt>
      <trkpt lat="48.717582" lon="16.615421">
        <ele>293.824937</ele>
        <time>2020-09-10T08:30:20.872Z</time>
      </trkpt>
      <trkpt lat="48.717574" lon="16.615263">
        <ele>294.176343</ele>
        <time>2020-09-10T08:30:26.874Z</time>
      </trkpt>
      <trkpt lat="48.717580" lon="16.615105">
        <ele>294.527298</ele>
        <time>2020-09-10T08:30:32.875Z</time>
      </trkpt>
      <trkpt lat="48.717588" lon="16.614942">
        <ele>294.889761</ele>
        <time>2020-09-10T08:30:37.896Z</time>
      </trkpt>
      <trkpt lat="48.717573" lon="16.614796">
        <ele>295.217428</ele>
        <time>2020-09-10T08:30:42.866Z</time>
      </trkpt>
      <trkpt lat="48.717570" lon="16.614659">
        <ele>295.521402</ele>
        <time>2020-09-10T08:30:47.891Z</time>
      </trkpt>
      <trkpt lat="48.717575" lon="16.614509">
        <ele>295.854461</ele>
        <time>2020-09-10T08:30:52.877Z</time>
      </trkpt>
      <trkpt lat="48.717568" lon="16.614358">
        <ele>296.190140</ele>
        <time>2020-09-10T08:30:57.871Z</time>
      </trkpt>
      <trkpt lat="48.717530" lon="16.614224">
        <ele>296.513580</ele>
        <time>2020-09-10T08:31:02.872Z</time>
      </trkpt>
      <trkpt lat="48.717520" lon="16.614069">
        <ele>296.858943</ele>
        <time>2020-09-10T08:31:07.878Z</time>
      </trkpt>
      <trkpt lat="48.717523" lon="16.613927">
        <ele>297.171510</ele>
        <time>2020-09-10T08:31:11.871Z</time>
      </trkpt>
      <trkpt lat="48.717514" lon="16.613771">
        <ele>297.515030</ele>
        <time>2020-09-10T08:31:16.876Z</time>
      </trkpt>
      <trkpt lat="48.717505" lon="16.613617">
        <ele>297.854180</ele>
        <time>2020-09-10T08:31:21.884Z</time>
      </trkpt>
      <trkpt lat="48.717516" lon="16.613473">
        <ele>298.172180</ele>
        <time>2020-09-10T08:31:25.867Z</time>
      </trkpt>
      <trkpt lat="48.717508" lon="16.613315">
        <ele>298.519801</ele>
        <time>2020-09-10T08:31:29.879Z</time>
      </trkpt>
      <trkpt lat="48.717500" lon="16.613155">
        <ele>298.871796</ele>
        <time>2020-09-10T08:31:33.856Z</time>
      </trkpt>
      <trkpt lat="48.717498" lon="16.612986">
        <ele>299.242588</ele>
        <time>2020-09-10T08:31:37.865Z</time>
      </trkpt>
      <trkpt lat="48.717509" lon="16.612819">
        <ele>299.610754</ele>
        <time>2020-09-10T08:31:41.873Z</time>
      </trkpt>
      <trkpt lat="48.717516" lon="16.612642">
        <ele>299.999732</ele>
        <time>2020-09-10T08:31:45.864Z</time>
      </trkpt>
      <trkpt lat="48.717521" lon="16.612498">
        <ele>300.316060</ele>
        <time>2020-09-10T08:31:48.865Z</time>
      </trkpt>
      <trkpt lat="48.717530" lon="16.612356">
        <ele>300.628996</ele>
        <time>2020-09-10T08:31:51.887Z</time>
      </trkpt>
      <trkpt lat="48.717539" lon="16.612216">
        <ele>300.937566</ele>
        <time>2020-09-10T08:31:54.888Z</time>
      </trkpt>
      <trkpt lat="48.717543" lon="16.612050">
        <ele>301.301959</ele>
        <time>2020-09-10T08:31:58.890Z</time>
      </trkpt>
      <trkpt lat="48.717559" lon="16.611908">
        <ele>301.617972</ele>
        <time>2020-09-10T08:33:06.899Z</time>
      </trkpt>
      <trkpt lat="48.717570" lon="16.611748">
        <ele>301.970861</ele>
        <time>2020-09-10T08:33:10.876Z</time>
      </trkpt>
      <trkpt lat="48.717585" lon="16.611576">
        <ele>302.351455</ele>
        <time>2020-09-10T08:33:14.875Z</time>
      </trkpt>
      <trkpt lat="48.717596" lon="16.611405">
        <ele>302.728353</ele>
        <time>2020-09-10T08:33:18.877Z</time>
      </trkpt>
      <trkpt lat="48.717592" lon="16.611257">
        <ele>303.036048</ele>
        <time>2020-09-10T08:33:21.868Z</time>
      </trkpt>
      <trkpt lat="48.717595" lon="16.611120">
        <ele>303.296864</ele>
        <time>2020-09-10T08:33:24.881Z</time>
      </trkpt>
      <trkpt lat="48.717598" lon="16.610969">
        <ele>303.584305</ele>
        <time>2020-09-10T08:33:27.877Z</time>
      </trkpt>
      <trkpt lat="48.717594" lon="16.610818">
        <ele>303.871847</ele>
        <time>2020-09-10T08:33:30.878Z</time>
      </trkpt>
      <trkpt lat="48.717584" lon="16.610667">
        <ele>304.160602</ele>
        <time>2020-09-10T08:33:33.914Z</time>
      </trkpt>
      <trkpt lat="48.717575" lon="16.610530">
        <ele>304.422563</ele>
        <time>2020-09-10T08:33:36.904Z</time>
      </trkpt>
      <trkpt lat="48.717561" lon="16.610381">
        <ele>304.708929</ele>
        <time>2020-09-10T08:33:39.885Z</time>
      </trkpt>
      <trkpt lat="48.717554" lon="16.610213">
        <ele>305.029223</ele>
        <time>2020-09-10T08:33:42.885Z</time>
      </trkpt>
      <trkpt lat="48.717545" lon="16.610054">
        <ele>305.332868</ele>
        <time>2020-09-10T08:33:45.865Z</time>
      </trkpt>
      <trkpt lat="48.717535" lon="16.609908">
        <ele>305.612158</ele>
        <time>2020-09-10T08:33:48.896Z</time>
      </trkpt>
      <trkpt lat="48.717532" lon="16.609768">
        <ele>305.878679</ele>
        <time>2020-09-10T08:33:51.889Z</time>
      </trkpt>
      <trkpt lat="48.717524" lon="16.609600">
        <ele>306.199168</ele>
        <time>2020-09-10T08:33:55.875Z</time>
      </trkpt>
      <trkpt lat="48.717512" lon="16.609432">
        <ele>306.520694</ele>
        <time>2020-09-10T08:33:59.869Z</time>
      </trkpt>
      <trkpt lat="48.717496" lon="16.609272">
        <ele>306.828606</ele>
        <time>2020-09-10T08:34:03.861Z</time>
      </trkpt>
      <trkpt lat="48.717485" lon="16.609118">
        <ele>307.123338</ele>
        <time>2020-09-10T08:34:07.881Z</time>
      </trkpt>
      <trkpt lat="48.717466" lon="16.608963">
        <ele>307.423307</ele>
        <time>2020-09-10T08:34:11.871Z</time>
      </trkpt>
      <trkpt lat="48.717451" lon="16.608812">
        <ele>307.713857</ele>
        <time>2020-09-10T08:34:15.876Z</time>
      </trkpt>
      <trkpt lat="48.717440" lon="16.608666">
        <ele>307.993461</ele>
        <time>2020-09-10T08:34:19.873Z</time>
      </trkpt>
      <trkpt lat="48.717423" lon="16.608528">
        <ele>308.320133</ele>
        <time>2020-09-10T08:34:23.883Z</time>
      </trkpt>
      <trkpt lat="48.717412" lon="16.608389">
        <ele>308.692167</ele>
        <time>2020-09-10T08:34:27.855Z</time>
      </trkpt>
      <trkpt lat="48.717356" lon="16.608265">
        <ele>309.091495</ele>
        <time>2020-09-10T08:34:32.898Z</time>
      </trkpt>
      <trkpt lat="48.717251" lon="16.608209">
        <ele>309.539836</ele>
        <time>2020-09-10T08:34:37.890Z</time>
      </trkpt>
      <trkpt lat="48.717161" lon="16.608182">
        <ele>309.909374</ele>
        <time>2020-09-10T08:34:41.903Z</time>
      </trkpt>
      <trkpt lat="48.717079" lon="16.608121">
        <ele>310.277293</ele>
        <time>2020-09-10T08:34:46.868Z</time>
      </trkpt>
      <trkpt lat="48.717058" lon="16.607985">
        <ele>310.648475</ele>
        <time>2020-09-10T08:34:51.870Z</time>
      </trkpt>
      <trkpt lat="48.717033" lon="16.607848">
        <ele>311.026217</ele>
        <time>2020-09-10T08:34:56.871Z</time>
      </trkpt>
      <trkpt lat="48.717001" lon="16.607688">
        <ele>311.470520</ele>
        <time>2020-09-10T08:35:01.883Z</time>
      </trkpt>
      <trkpt lat="48.716987" lon="16.607549">
        <ele>311.844188</ele>
        <time>2020-09-10T08:35:05.875Z</time>
      </trkpt>
      <trkpt lat="48.716969" lon="16.607411">
        <ele>312.218018</ele>
        <time>2020-09-10T08:35:09.874Z</time>
      </trkpt>
      <trkpt lat="48.716971" lon="16.607272">
        <ele>312.587495</ele>
        <time>2020-09-10T08:35:13.865Z</time>
      </trkpt>
      <trkpt lat="48.716973" lon="16.607125">
        <ele>312.978227</ele>
        <time>2020-09-10T08:35:17.872Z</time>
      </trkpt>
      <trkpt lat="48.716979" lon="16.606969">
        <ele>313.393498</ele>
        <time>2020-09-10T08:35:21.864Z</time>
      </trkpt>
      <trkpt lat="48.716977" lon="16.606810">
        <ele>313.816113</ele>
        <time>2020-09-10T08:35:25.870Z</time>
      </trkpt>
      <trkpt lat="48.716975" lon="16.606651">
        <ele>314.238729</ele>
        <time>2020-09-10T08:35:29.913Z</time>
      </trkpt>
      <trkpt lat="48.716979" lon="16.606496">
        <ele>314.650953</ele>
        <time>2020-09-10T08:35:33.874Z</time>
      </trkpt>
      <trkpt lat="48.716982" lon="16.606340">
        <ele>315.065696</ele>
        <time>2020-09-10T08:35:37.875Z</time>
      </trkpt>
      <trkpt lat="48.716981" lon="16.606184">
        <ele>315.460237</ele>
        <time>2020-09-10T08:35:41.854Z</time>
      </trkpt>
      <trkpt lat="48.716983" lon="16.606039">
        <ele>315.783966</ele>
        <time>2020-09-10T08:35:45.880Z</time>
      </trkpt>
      <trkpt lat="48.716989" lon="16.605889">
        <ele>316.119400</ele>
        <time>2020-09-10T08:35:49.872Z</time>
      </trkpt>
      <trkpt lat="48.716995" lon="16.605738">
        <ele>316.457061</ele>
        <time>2020-09-10T08:35:53.873Z</time>
      </trkpt>
      <trkpt lat="48.716997" lon="16.605577">
        <ele>316.816497</ele>
        <time>2020-09-10T08:35:57.875Z</time>
      </trkpt>
      <trkpt lat="48.716992" lon="16.605407">
        <ele>317.196334</ele>
        <time>2020-09-10T08:36:01.886Z</time>
      </trkpt>
      <trkpt lat="48.716975" lon="16.605228">
        <ele>317.600003</ele>
        <time>2020-09-10T08:36:05.877Z</time>
      </trkpt>
      <trkpt lat="48.716951" lon="16.605046">
        <ele>318.014284</ele>
        <time>2020-09-10T08:36:09.878Z</time>
      </trkpt>
      <trkpt lat="48.716923" lon="16.604866">
        <ele>318.427083</ele>
        <time>2020-09-10T08:36:13.900Z</time>
      </trkpt>
      <trkpt lat="48.716903" lon="16.604728">
        <ele>318.742460</ele>
        <time>2020-09-10T08:36:16.881Z</time>
      </trkpt>
      <trkpt lat="48.716880" lon="16.604585">
        <ele>319.071002</ele>
        <time>2020-09-10T08:36:19.865Z</time>
      </trkpt>
      <trkpt lat="48.716862" lon="16.604404">
        <ele>319.479581</ele>
        <time>2020-09-10T08:36:23.880Z</time>
      </trkpt>
      <trkpt lat="48.716845" lon="16.604233">
        <ele>319.865584</ele>
        <time>2020-09-10T08:36:27.872Z</time>
      </trkpt>
      <trkpt lat="48.716834" lon="16.604062">
        <ele>320.249088</ele>
        <time>2020-09-10T08:36:31.863Z</time>
      </trkpt>
      <trkpt lat="48.716828" lon="16.603889">
        <ele>320.635780</ele>
        <time>2020-09-10T08:36:35.882Z</time>
      </trkpt>
      <trkpt lat="48.716835" lon="16.603707">
        <ele>321.042718</ele>
        <time>2020-09-10T08:36:39.859Z</time>
      </trkpt>
      <trkpt lat="48.716838" lon="16.603540">
        <ele>321.415622</ele>
        <time>2020-09-10T08:36:43.899Z</time>
      </trkpt>
      <trkpt lat="48.716841" lon="16.603389">
        <ele>321.935849</ele>
        <time>2020-09-10T08:36:47.883Z</time>
      </trkpt>
      <trkpt lat="48.716833" lon="16.603225">
        <ele>322.517753</ele>
        <time>2020-09-10T08:36:52.881Z</time>
      </trkpt>
      <trkpt lat="48.716828" lon="16.603070">
        <ele>323.066881</ele>
        <time>2020-09-10T08:36:56.873Z</time>
      </trkpt>
      <trkpt lat="48.716816" lon="16.602913">
        <ele>323.626146</ele>
        <time>2020-09-10T08:37:00.866Z</time>
      </trkpt>
      <trkpt lat="48.716802" lon="16.602764">
        <ele>324.158708</ele>
        <time>2020-09-10T08:37:04.880Z</time>
      </trkpt>
      <trkpt lat="48.716783" lon="16.602593">
        <ele>324.772318</ele>
        <time>2020-09-10T08:37:09.877Z</time>
      </trkpt>
      <trkpt lat="48.716765" lon="16.602433">
        <ele>325.346656</ele>
        <time>2020-09-10T08:37:14.888Z</time>
      </trkpt>
      <trkpt lat="48.716750" lon="16.602275">
        <ele>325.911504</ele>
        <time>2020-09-10T08:37:20.870Z</time>
      </trkpt>
      <trkpt lat="48.716733" lon="16.602135">
        <ele>326.415220</ele>
        <time>2020-09-10T08:37:25.901Z</time>
      </trkpt>
      <trkpt lat="48.716720" lon="16.601989">
        <ele>326.936531</ele>
        <time>2020-09-10T08:37:31.869Z</time>
      </trkpt>
      <trkpt lat="48.716708" lon="16.601840">
        <ele>327.467687</ele>
        <time>2020-09-10T08:37:38.907Z</time>
      </trkpt>
      <trkpt lat="48.716690" lon="16.601701">
        <ele>327.968929</ele>
        <time>2020-09-10T08:37:45.870Z</time>
      </trkpt>
      <trkpt lat="48.716684" lon="16.601561">
        <ele>328.465369</ele>
        <time>2020-09-10T08:37:51.861Z</time>
      </trkpt>
      <trkpt lat="48.716666" lon="16.601423">
        <ele>328.963140</ele>
        <time>2020-09-10T08:37:57.864Z</time>
      </trkpt>
      <trkpt lat="48.716655" lon="16.601277">
        <ele>329.483125</ele>
        <time>2020-09-10T08:38:03.858Z</time>
      </trkpt>
      <trkpt lat="48.716636" lon="16.601132">
        <ele>330.006236</ele>
        <time>2020-09-10T08:38:09.910Z</time>
      </trkpt>
      <trkpt lat="48.716624" lon="16.600996">
        <ele>330.491763</ele>
        <time>2020-09-10T08:38:14.898Z</time>
      </trkpt>
      <trkpt lat="48.716616" lon="16.600860">
        <ele>330.974915</ele>
        <time>2020-09-10T08:38:19.875Z</time>
      </trkpt>
      <trkpt lat="48.716601" lon="16.600720">
        <ele>331.554370</ele>
        <time>2020-09-10T08:38:24.874Z</time>
      </trkpt>
      <trkpt lat="48.716588" lon="16.600572">
        <ele>332.187721</ele>
        <time>2020-09-10T08:38:29.869Z</time>
      </trkpt>
      <trkpt lat="48.716575" lon="16.600430">
        <ele>332.795852</ele>
        <time>2020-09-10T08:38:34.869Z</time>
      </trkpt>
      <trkpt lat="48.716559" lon="16.600293">
        <ele>333.386037</ele>
        <time>2020-09-10T08:38:39.889Z</time>
      </trkpt>
      <trkpt lat="48.716538" lon="16.600142">
        <ele>334.040650</ele>
        <time>2020-09-10T08:38:44.876Z</time>
      </trkpt>
      <trkpt lat="48.716519" lon="16.599991">
        <ele>334.692733</ele>
        <time>2020-09-10T08:38:49.899Z</time>
      </trkpt>
      <trkpt lat="48.716495" lon="16.599843">
        <ele>335.339230</ele>
        <time>2020-09-10T08:38:54.877Z</time>
      </trkpt>
      <trkpt lat="48.716478" lon="16.599699">
        <ele>335.959777</ele>
        <time>2020-09-10T08:38:59.870Z</time>
      </trkpt>
      <trkpt lat="48.716462" lon="16.599552">
        <ele>336.591776</ele>
        <time>2020-09-10T08:39:04.874Z</time>
      </trkpt>
      <trkpt lat="48.716441" lon="16.599412">
        <ele>337.200808</ele>
        <time>2020-09-10T08:39:10.884Z</time>
      </trkpt>
      <trkpt lat="48.716424" lon="16.599268">
        <ele>337.821355</ele>
        <time>2020-09-10T08:39:15.871Z</time>
      </trkpt>
      <trkpt lat="48.716392" lon="16.599111">
        <ele>338.518402</ele>
        <time>2020-09-10T08:39:21.876Z</time>
      </trkpt>
      <trkpt lat="48.716363" lon="16.598959">
        <ele>339.189601</ele>
        <time>2020-09-10T08:39:26.882Z</time>
      </trkpt>
      <trkpt lat="48.716337" lon="16.598828">
        <ele>339.769900</ele>
        <time>2020-09-10T08:39:31.896Z</time>
      </trkpt>
      <trkpt lat="48.716313" lon="16.598670">
        <ele>340.457667</ele>
        <time>2020-09-10T08:39:37.883Z</time>
      </trkpt>
      <trkpt lat="48.716293" lon="16.598534">
        <ele>341.048735</ele>
        <time>2020-09-10T08:39:42.864Z</time>
      </trkpt>
      <trkpt lat="48.716273" lon="16.598402">
        <ele>341.623254</ele>
        <time>2020-09-10T08:39:47.885Z</time>
      </trkpt>
      <trkpt lat="48.716259" lon="16.598264">
        <ele>342.215529</ele>
        <time>2020-09-10T08:39:52.867Z</time>
      </trkpt>
      <trkpt lat="48.716266" lon="16.598117">
        <ele>342.870767</ele>
        <time>2020-09-10T08:39:57.880Z</time>
      </trkpt>
      <trkpt lat="48.716267" lon="16.597962">
        <ele>343.632243</ele>
        <time>2020-09-10T08:40:02.858Z</time>
      </trkpt>
      <trkpt lat="48.716169" lon="16.597618">
        <ele>345.472949</ele>
        <time>2020-09-10T08:44:36.873Z</time>
      </trkpt>
      <trkpt lat="48.716079" lon="16.597550">
        <ele>346.221700</ele>
        <time>2020-09-10T08:44:39.878Z</time>
      </trkpt>
      <trkpt lat="48.715988" lon="16.597464">
        <ele>347.020174</ele>
        <time>2020-09-10T08:44:42.860Z</time>
      </trkpt>
      <trkpt lat="48.715891" lon="16.597364">
        <ele>347.893636</ele>
        <time>2020-09-10T08:44:45.882Z</time>
      </trkpt>
      <trkpt lat="48.715797" lon="16.597234">
        <ele>348.841101</ele>
        <time>2020-09-10T08:44:48.865Z</time>
      </trkpt>
      <trkpt lat="48.715709" lon="16.597087">
        <ele>349.816190</ele>
        <time>2020-09-10T08:44:51.889Z</time>
      </trkpt>
      <trkpt lat="48.715633" lon="16.596927">
        <ele>350.784703</ele>
        <time>2020-09-10T08:44:54.884Z</time>
      </trkpt>
      <trkpt lat="48.715575" lon="16.596767">
        <ele>351.681533</ele>
        <time>2020-09-10T08:44:57.851Z</time>
      </trkpt>
      <trkpt lat="48.715538" lon="16.596611">
        <ele>352.495907</ele>
        <time>2020-09-10T08:45:00.854Z</time>
      </trkpt>
      <trkpt lat="48.715516" lon="16.596436">
        <ele>353.371076</ele>
        <time>2020-09-10T08:45:03.854Z</time>
      </trkpt>
      <trkpt lat="48.715503" lon="16.596302">
        <ele>354.036441</ele>
        <time>2020-09-10T08:45:05.864Z</time>
      </trkpt>
      <trkpt lat="48.715489" lon="16.596154">
        <ele>354.770938</ele>
        <time>2020-09-10T08:45:07.874Z</time>
      </trkpt>
      <trkpt lat="48.715467" lon="16.596008">
        <ele>355.506643</ele>
        <time>2020-09-10T08:45:09.872Z</time>
      </trkpt>
      <trkpt lat="48.715422" lon="16.595875">
        <ele>356.077086</ele>
        <time>2020-09-10T08:45:13.883Z</time>
      </trkpt>
      <trkpt lat="48.715491" lon="16.595784">
        <ele>356.195433</ele>
        <time>2020-09-10T08:45:19.862Z</time>
      </trkpt>
      <trkpt lat="48.715579" lon="16.595716">
        <ele>356.323241</ele>
        <time>2020-09-10T08:45:24.854Z</time>
      </trkpt>
      <trkpt lat="48.715657" lon="16.595640">
        <ele>356.443221</ele>
        <time>2020-09-10T08:45:28.903Z</time>
      </trkpt>
      <trkpt lat="48.715749" lon="16.595549">
        <ele>356.585367</ele>
        <time>2020-09-10T08:45:33.901Z</time>
      </trkpt>
      <trkpt lat="48.715832" lon="16.595459">
        <ele>356.717415</ele>
        <time>2020-09-10T08:45:38.877Z</time>
      </trkpt>
      <trkpt lat="48.715910" lon="16.595372">
        <ele>356.842723</ele>
        <time>2020-09-10T08:45:43.867Z</time>
      </trkpt>
      <trkpt lat="48.715980" lon="16.595258">
        <ele>356.975670</ele>
        <time>2020-09-10T08:45:48.862Z</time>
      </trkpt>
      <trkpt lat="48.716040" lon="16.595146">
        <ele>357.098833</ele>
        <time>2020-09-10T08:45:52.891Z</time>
      </trkpt>
      <trkpt lat="48.716099" lon="16.595030">
        <ele>357.223871</ele>
        <time>2020-09-10T08:45:56.883Z</time>
      </trkpt>
      <trkpt lat="48.716156" lon="16.594898">
        <ele>357.358549</ele>
        <time>2020-09-10T08:46:00.865Z</time>
      </trkpt>
      <trkpt lat="48.716223" lon="16.594777">
        <ele>357.493403</ele>
        <time>2020-09-10T08:46:04.866Z</time>
      </trkpt>
      <trkpt lat="48.716274" lon="16.594635">
        <ele>357.631425</ele>
        <time>2020-09-10T08:46:08.873Z</time>
      </trkpt>
      <trkpt lat="48.716322" lon="16.594502">
        <ele>357.760843</ele>
        <time>2020-09-10T08:46:12.874Z</time>
      </trkpt>
      <trkpt lat="48.716372" lon="16.594356">
        <ele>357.901273</ele>
        <time>2020-09-10T08:46:16.858Z</time>
      </trkpt>
      <trkpt lat="48.716428" lon="16.594205">
        <ele>358.049149</ele>
        <time>2020-09-10T08:46:20.872Z</time>
      </trkpt>
      <trkpt lat="48.716462" lon="16.594067">
        <ele>358.174905</ele>
        <time>2020-09-10T08:46:23.857Z</time>
      </trkpt>
      <trkpt lat="48.716546" lon="16.593925">
        <ele>358.337719</ele>
        <time>2020-09-10T08:47:21.873Z</time>
      </trkpt>
      <trkpt lat="48.716587" lon="16.593769">
        <ele>358.583543</ele>
        <time>2020-09-10T08:47:24.864Z</time>
      </trkpt>
      <trkpt lat="48.716635" lon="16.593645">
        <ele>358.819386</ele>
        <time>2020-09-10T08:47:26.856Z</time>
      </trkpt>
      <trkpt lat="48.716716" lon="16.593562">
        <ele>359.062489</ele>
        <time>2020-09-10T08:47:28.859Z</time>
      </trkpt>
      <trkpt lat="48.716817" lon="16.593574">
        <ele>359.314382</ele>
        <time>2020-09-10T08:47:30.862Z</time>
      </trkpt>
      <trkpt lat="48.716918" lon="16.593635">
        <ele>359.584708</ele>
        <time>2020-09-10T08:47:32.858Z</time>
      </trkpt>
      <trkpt lat="48.717021" lon="16.593695">
        <ele>359.859066</ele>
        <time>2020-09-10T08:47:34.861Z</time>
      </trkpt>
      <trkpt lat="48.717121" lon="16.593754">
        <ele>360.125876</ele>
        <time>2020-09-10T08:47:36.878Z</time>
      </trkpt>
      <trkpt lat="48.717234" lon="16.593816">
        <ele>360.424677</ele>
        <time>2020-09-10T08:47:38.876Z</time>
      </trkpt>
      <trkpt lat="48.717356" lon="16.593884">
        <ele>360.747874</ele>
        <time>2020-09-10T08:47:40.883Z</time>
      </trkpt>
      <trkpt lat="48.717496" lon="16.593957">
        <ele>361.115987</ele>
        <time>2020-09-10T08:47:42.860Z</time>
      </trkpt>
      <trkpt lat="48.717647" lon="16.594011">
        <ele>361.501736</ele>
        <time>2020-09-10T08:47:44.864Z</time>
      </trkpt>
      <trkpt lat="48.717771" lon="16.594025">
        <ele>361.810899</ele>
        <time>2020-09-10T08:47:46.863Z</time>
      </trkpt>
      <trkpt lat="48.717870" lon="16.594000">
        <ele>362.060442</ele>
        <time>2020-09-10T08:47:48.883Z</time>
      </trkpt>
      <trkpt lat="48.717969" lon="16.593966">
        <ele>362.312831</ele>
        <time>2020-09-10T08:47:52.859Z</time>
      </trkpt>
      <trkpt lat="48.718062" lon="16.593965">
        <ele>362.544068</ele>
        <time>2020-09-10T08:48:42.880Z</time>
      </trkpt>
      <trkpt lat="48.718072" lon="16.593827">
        <ele>362.771807</ele>
        <time>2020-09-10T08:49:59.871Z</time>
      </trkpt>
      <trkpt lat="48.718069" lon="16.593644">
        <ele>362.932892</ele>
        <time>2020-09-10T08:50:02.892Z</time>
      </trkpt>
      <trkpt lat="48.718042" lon="16.593500">
        <ele>363.029925</ele>
        <time>2020-09-10T08:50:04.873Z</time>
      </trkpt>
      <trkpt lat="48.717991" lon="16.593330">
        <ele>363.150972</ele>
        <time>2020-09-10T08:50:06.855Z</time>
      </trkpt>
      <trkpt lat="48.717904" lon="16.593149">
        <ele>363.296125</ele>
        <time>2020-09-10T08:50:08.875Z</time>
      </trkpt>
      <trkpt lat="48.717807" lon="16.592997">
        <ele>363.433194</ele>
        <time>2020-09-10T08:50:10.856Z</time>
      </trkpt>
      <trkpt lat="48.717703" lon="16.592845">
        <ele>363.575132</ele>
        <time>2020-09-10T08:50:12.863Z</time>
      </trkpt>
      <trkpt lat="48.717603" lon="16.592673">
        <ele>363.723729</ele>
        <time>2020-09-10T08:50:14.870Z</time>
      </trkpt>
      <trkpt lat="48.717532" lon="16.592561">
        <ele>363.824405</ele>
        <time>2020-09-10T08:50:15.876Z</time>
      </trkpt>
      <trkpt lat="48.717454" lon="16.592438">
        <ele>363.934987</ele>
        <time>2020-09-10T08:50:16.883Z</time>
      </trkpt>
      <trkpt lat="48.717371" lon="16.592298">
        <ele>364.056986</ele>
        <time>2020-09-10T08:50:17.860Z</time>
      </trkpt>
      <trkpt lat="48.717287" lon="16.592155">
        <ele>364.181090</ele>
        <time>2020-09-10T08:50:18.867Z</time>
      </trkpt>
      <trkpt lat="48.717203" lon="16.592023">
        <ele>364.299964</ele>
        <time>2020-09-10T08:50:19.867Z</time>
      </trkpt>
      <trkpt lat="48.717135" lon="16.591906">
        <ele>364.401030</ele>
        <time>2020-09-10T08:50:20.851Z</time>
      </trkpt>
      <trkpt lat="48.717049" lon="16.591724">
        <ele>364.546134</ele>
        <time>2020-09-10T08:50:22.886Z</time>
      </trkpt>
      <trkpt lat="48.717002" lon="16.591578">
        <ele>364.565678</ele>
        <time>2020-09-10T08:50:24.873Z</time>
      </trkpt>
      <trkpt lat="48.716994" lon="16.591425">
        <ele>364.464086</ele>
        <time>2020-09-10T08:50:26.851Z</time>
      </trkpt>
      <trkpt lat="48.717067" lon="16.591265">
        <ele>364.335322</ele>
        <time>2020-09-10T08:50:29.865Z</time>
      </trkpt>
      <trkpt lat="48.717183" lon="16.591156">
        <ele>364.198394</ele>
        <time>2020-09-10T08:50:32.874Z</time>
      </trkpt>
      <trkpt lat="48.717286" lon="16.591104">
        <ele>364.089478</ele>
        <time>2020-09-10T08:50:34.887Z</time>
      </trkpt>
      <trkpt lat="48.717389" lon="16.591052">
        <ele>363.980561</ele>
        <time>2020-09-10T08:50:36.871Z</time>
      </trkpt>
      <trkpt lat="48.717492" lon="16.590999">
        <ele>363.871433</ele>
        <time>2020-09-10T08:50:38.871Z</time>
      </trkpt>
      <trkpt lat="48.717596" lon="16.590943">
        <ele>363.760706</ele>
        <time>2020-09-10T08:50:40.884Z</time>
      </trkpt>
      <trkpt lat="48.717691" lon="16.590880">
        <ele>363.656674</ele>
        <time>2020-09-10T08:50:42.869Z</time>
      </trkpt>
      <trkpt lat="48.717771" lon="16.590816">
        <ele>363.565920</ele>
        <time>2020-09-10T08:50:44.875Z</time>
      </trkpt>
      <trkpt lat="48.717884" lon="16.590747">
        <ele>363.443698</ele>
        <time>2020-09-10T08:50:47.870Z</time>
      </trkpt>
      <trkpt lat="48.717994" lon="16.590672">
        <ele>363.322689</ele>
        <time>2020-09-10T08:50:50.863Z</time>
      </trkpt>
      <trkpt lat="48.718117" lon="16.590586">
        <ele>363.186792</ele>
        <time>2020-09-10T08:50:53.881Z</time>
      </trkpt>
      <trkpt lat="48.718202" lon="16.590530">
        <ele>363.093808</ele>
        <time>2020-09-10T08:50:55.879Z</time>
      </trkpt>
      <trkpt lat="48.718321" lon="16.590464">
        <ele>362.966679</ele>
        <time>2020-09-10T08:50:58.863Z</time>
      </trkpt>
      <trkpt lat="48.718435" lon="16.590401">
        <ele>362.844944</ele>
        <time>2020-09-10T08:51:01.864Z</time>
      </trkpt>
      <trkpt lat="48.718554" lon="16.590354">
        <ele>362.369119</ele>
        <time>2020-09-10T08:51:04.903Z</time>
      </trkpt>
      <trkpt lat="48.718671" lon="16.590307">
        <ele>361.731678</ele>
        <time>2020-09-10T08:51:07.861Z</time>
      </trkpt>
      <trkpt lat="48.718791" lon="16.590261">
        <ele>361.079812</ele>
        <time>2020-09-10T08:51:10.885Z</time>
      </trkpt>
      <trkpt lat="48.718910" lon="16.590224">
        <ele>360.440061</ele>
        <time>2020-09-10T08:51:13.894Z</time>
      </trkpt>
      <trkpt lat="48.719009" lon="16.590189">
        <ele>359.904693</ele>
        <time>2020-09-10T08:51:15.882Z</time>
      </trkpt>
      <trkpt lat="48.719104" lon="16.590170">
        <ele>359.400049</ele>
        <time>2020-09-10T08:51:17.866Z</time>
      </trkpt>
      <trkpt lat="48.719219" lon="16.590189">
        <ele>358.790826</ele>
        <time>2020-09-10T08:51:20.906Z</time>
      </trkpt>
      <trkpt lat="48.719374" lon="16.590101">
        <ele>357.919150</ele>
        <time>2020-09-10T08:51:49.875Z</time>
      </trkpt>
      <trkpt lat="48.719505" lon="16.590068">
        <ele>357.219789</ele>
        <time>2020-09-10T08:51:52.852Z</time>
      </trkpt>
      <trkpt lat="48.719603" lon="16.590045">
        <ele>356.697532</ele>
        <time>2020-09-10T08:51:54.849Z</time>
      </trkpt>
      <trkpt lat="48.719704" lon="16.589999">
        <ele>356.142133</ele>
        <time>2020-09-10T08:51:56.855Z</time>
      </trkpt>
      <trkpt lat="48.719815" lon="16.589940">
        <ele>355.522661</ele>
        <time>2020-09-10T08:51:58.854Z</time>
      </trkpt>
      <trkpt lat="48.719935" lon="16.589851">
        <ele>354.819096</ele>
        <time>2020-09-10T08:52:00.851Z</time>
      </trkpt>
      <trkpt lat="48.720033" lon="16.589738">
        <ele>354.170627</ele>
        <time>2020-09-10T08:52:02.871Z</time>
      </trkpt>
      <trkpt lat="48.720265" lon="16.589502">
        <ele>353.003361</ele>
        <time>2020-09-10T08:52:31.870Z</time>
      </trkpt>
      <trkpt lat="48.720357" lon="16.589422">
        <ele>352.713218</ele>
        <time>2020-09-10T08:52:33.854Z</time>
      </trkpt>
      <trkpt lat="48.720463" lon="16.589323">
        <ele>352.372625</ele>
        <time>2020-09-10T08:52:35.876Z</time>
      </trkpt>
      <trkpt lat="48.720563" lon="16.589237">
        <ele>352.058108</ele>
        <time>2020-09-10T08:52:37.855Z</time>
      </trkpt>
      <trkpt lat="48.720654" lon="16.589153">
        <ele>351.766647</ele>
        <time>2020-09-10T08:52:39.859Z</time>
      </trkpt>
      <trkpt lat="48.720738" lon="16.589073">
        <ele>351.495268</ele>
        <time>2020-09-10T08:52:41.867Z</time>
      </trkpt>
      <trkpt lat="48.720812" lon="16.588967">
        <ele>351.216748</ele>
        <time>2020-09-10T08:52:43.861Z</time>
      </trkpt>
      <trkpt lat="48.720870" lon="16.588819">
        <ele>350.906079</ele>
        <time>2020-09-10T08:52:45.850Z</time>
      </trkpt>
      <trkpt lat="48.720900" lon="16.588640">
        <ele>350.572774</ele>
        <time>2020-09-10T08:52:47.858Z</time>
      </trkpt>
      <trkpt lat="48.720917" lon="16.588472">
        <ele>350.266037</ele>
        <time>2020-09-10T08:52:49.853Z</time>
      </trkpt>
      <trkpt lat="48.720940" lon="16.588302">
        <ele>349.952851</ele>
        <time>2020-09-10T08:52:51.854Z</time>
      </trkpt>
      <trkpt lat="48.720960" lon="16.588106">
        <ele>349.594922</ele>
        <time>2020-09-10T08:52:53.866Z</time>
      </trkpt>
      <trkpt lat="48.720959" lon="16.587903">
        <ele>349.228555</ele>
        <time>2020-09-10T08:52:55.859Z</time>
      </trkpt>
      <trkpt lat="48.720957" lon="16.587699">
        <ele>348.860353</ele>
        <time>2020-09-10T08:52:57.872Z</time>
      </trkpt>
      <trkpt lat="48.720953" lon="16.587504">
        <ele>348.508265</ele>
        <time>2020-09-10T08:52:59.914Z</time>
      </trkpt>
      <trkpt lat="48.720954" lon="16.587329">
        <ele>348.176543</ele>
        <time>2020-09-10T08:53:01.856Z</time>
      </trkpt>
      <trkpt lat="48.720953" lon="16.587172">
        <ele>347.872678</ele>
        <time>2020-09-10T08:53:03.873Z</time>
      </trkpt>
      <trkpt lat="48.720924" lon="16.587014">
        <ele>347.555279</ele>
        <time>2020-09-10T08:53:05.870Z</time>
      </trkpt>
      <trkpt lat="48.720851" lon="16.586873">
        <ele>347.208397</ele>
        <time>2020-09-10T08:53:07.883Z</time>
      </trkpt>
      <trkpt lat="48.720787" lon="16.586730">
        <ele>346.873968</ele>
        <time>2020-09-10T08:53:09.869Z</time>
      </trkpt>
      <trkpt lat="48.720726" lon="16.586590">
        <ele>346.549258</ele>
        <time>2020-09-10T08:53:11.861Z</time>
      </trkpt>
      <trkpt lat="48.720670" lon="16.586461">
        <ele>346.250395</ele>
        <time>2020-09-10T08:53:13.866Z</time>
      </trkpt>
      <trkpt lat="48.720630" lon="16.586338">
        <ele>345.984996</ele>
        <time>2020-09-10T08:53:15.864Z</time>
      </trkpt>
      <trkpt lat="48.720655" lon="16.586161">
        <ele>345.634674</ele>
        <time>2020-09-10T08:53:18.856Z</time>
      </trkpt>
      <trkpt lat="48.720685" lon="16.586003">
        <ele>345.316474</ele>
        <time>2020-09-10T08:53:21.849Z</time>
      </trkpt>
      <trkpt lat="48.720656" lon="16.585836">
        <ele>344.982259</ele>
        <time>2020-09-10T08:53:24.862Z</time>
      </trkpt>
      <trkpt lat="48.720615" lon="16.585690">
        <ele>344.675163</ele>
        <time>2020-09-10T08:53:27.864Z</time>
      </trkpt>
      <trkpt lat="48.720547" lon="16.585563">
        <ele>344.358608</ele>
        <time>2020-09-10T08:53:30.869Z</time>
      </trkpt>
      <trkpt lat="48.720486" lon="16.585437">
        <ele>344.056138</ele>
        <time>2020-09-10T08:53:33.858Z</time>
      </trkpt>
      <trkpt lat="48.720495" lon="16.585153">
        <ele>343.505859</ele>
        <time>2020-09-10T08:54:10.877Z</time>
      </trkpt>
      <trkpt lat="48.720424" lon="16.585036">
        <ele>343.198196</ele>
        <time>2020-09-10T08:54:15.858Z</time>
      </trkpt>
      <trkpt lat="48.720343" lon="16.584926">
        <ele>342.862092</ele>
        <time>2020-09-10T08:54:19.881Z</time>
      </trkpt>
      <trkpt lat="48.720253" lon="16.584818">
        <ele>342.502923</ele>
        <time>2020-09-10T08:54:23.884Z</time>
      </trkpt>
      <trkpt lat="48.720183" lon="16.584688">
        <ele>342.156533</ele>
        <time>2020-09-10T08:54:27.888Z</time>
      </trkpt>
      <trkpt lat="48.720110" lon="16.584552">
        <ele>341.794612</ele>
        <time>2020-09-10T08:54:31.879Z</time>
      </trkpt>
      <trkpt lat="48.720033" lon="16.584431">
        <ele>341.447576</ele>
        <time>2020-09-10T08:54:35.873Z</time>
      </trkpt>
      <trkpt lat="48.719964" lon="16.584313">
        <ele>341.122086</ele>
        <time>2020-09-10T08:54:39.880Z</time>
      </trkpt>
      <trkpt lat="48.719893" lon="16.584185">
        <ele>340.776878</ele>
        <time>2020-09-10T08:54:43.861Z</time>
      </trkpt>
      <trkpt lat="48.719823" lon="16.584070">
        <ele>340.453882</ele>
        <time>2020-09-10T08:54:47.847Z</time>
      </trkpt>
      <trkpt lat="48.719755" lon="16.583954">
        <ele>340.133556</ele>
        <time>2020-09-10T08:54:51.868Z</time>
      </trkpt>
      <trkpt lat="48.719693" lon="16.583839">
        <ele>339.826980</ele>
        <time>2020-09-10T08:54:55.864Z</time>
      </trkpt>
      <trkpt lat="48.719642" lon="16.583709">
        <ele>339.514763</ele>
        <time>2020-09-10T08:54:59.841Z</time>
      </trkpt>
      <trkpt lat="48.719595" lon="16.583593">
        <ele>339.233753</ele>
        <time>2020-09-10T08:55:02.850Z</time>
      </trkpt>
      <trkpt lat="48.719537" lon="16.583432">
        <ele>338.855083</ele>
        <time>2020-09-10T08:55:05.861Z</time>
      </trkpt>
      <trkpt lat="48.719518" lon="16.583286">
        <ele>338.547889</ele>
        <time>2020-09-10T08:55:07.854Z</time>
      </trkpt>
      <trkpt lat="48.719508" lon="16.583130">
        <ele>338.224343</ele>
        <time>2020-09-10T08:55:09.851Z</time>
      </trkpt>
      <trkpt lat="48.719482" lon="16.582976">
        <ele>337.896198</ele>
        <time>2020-09-10T08:55:11.855Z</time>
      </trkpt>
      <trkpt lat="48.719445" lon="16.582822">
        <ele>337.557873</ele>
        <time>2020-09-10T08:55:13.851Z</time>
      </trkpt>
      <trkpt lat="48.719410" lon="16.582660">
        <ele>337.451750</ele>
        <time>2020-09-10T08:55:15.859Z</time>
      </trkpt>
      <trkpt lat="48.719377" lon="16.582505">
        <ele>337.389469</ele>
        <time>2020-09-10T08:55:17.851Z</time>
      </trkpt>
      <trkpt lat="48.719348" lon="16.582362">
        <ele>337.332262</ele>
        <time>2020-09-10T08:55:19.863Z</time>
      </trkpt>
      <trkpt lat="48.719321" lon="16.582228">
        <ele>337.278684</ele>
        <time>2020-09-10T08:55:21.873Z</time>
      </trkpt>
      <trkpt lat="48.719277" lon="16.582043">
        <ele>337.203485</ele>
        <time>2020-09-10T08:55:24.883Z</time>
      </trkpt>
      <trkpt lat="48.719235" lon="16.581894">
        <ele>337.141525</ele>
        <time>2020-09-10T08:55:27.852Z</time>
      </trkpt>
      <trkpt lat="48.719195" lon="16.581771">
        <ele>337.089087</ele>
        <time>2020-09-10T08:55:30.855Z</time>
      </trkpt>
      <trkpt lat="48.719144" lon="16.581633">
        <ele>337.028602</ele>
        <time>2020-09-10T08:55:34.877Z</time>
      </trkpt>
      <trkpt lat="48.719091" lon="16.581485">
        <ele>336.964207</ele>
        <time>2020-09-10T08:55:38.867Z</time>
      </trkpt>
      <trkpt lat="48.719046" lon="16.581346">
        <ele>336.905000</ele>
        <time>2020-09-10T08:55:42.865Z</time>
      </trkpt>
      <trkpt lat="48.718994" lon="16.581214">
        <ele>336.846210</ele>
        <time>2020-09-10T08:55:46.881Z</time>
      </trkpt>
      <trkpt lat="48.718945" lon="16.581089">
        <ele>336.790609</ele>
        <time>2020-09-10T08:55:50.855Z</time>
      </trkpt>
      <trkpt lat="48.718894" lon="16.580967">
        <ele>336.735380</ele>
        <time>2020-09-10T08:55:54.881Z</time>
      </trkpt>
      <trkpt lat="48.718845" lon="16.580841">
        <ele>336.679451</ele>
        <time>2020-09-10T08:55:58.875Z</time>
      </trkpt>
      <trkpt lat="48.718801" lon="16.580698">
        <ele>336.619113</ele>
        <time>2020-09-10T08:56:03.899Z</time>
      </trkpt>
      <trkpt lat="48.718759" lon="16.580552">
        <ele>336.558207</ele>
        <time>2020-09-10T08:56:08.872Z</time>
      </trkpt>
      <trkpt lat="48.718722" lon="16.580426">
        <ele>336.505467</ele>
        <time>2020-09-10T08:56:13.869Z</time>
      </trkpt>
      <trkpt lat="48.718675" lon="16.580300">
        <ele>336.481319</ele>
        <time>2020-09-10T08:56:19.890Z</time>
      </trkpt>
      <trkpt lat="48.718622" lon="16.580173">
        <ele>336.543354</ele>
        <time>2020-09-10T08:56:26.858Z</time>
      </trkpt>
      <trkpt lat="48.718565" lon="16.580058">
        <ele>336.602732</ele>
        <time>2020-09-10T08:56:32.848Z</time>
      </trkpt>
      <trkpt lat="48.718514" lon="16.579932">
        <ele>336.663755</ele>
        <time>2020-09-10T08:56:39.852Z</time>
      </trkpt>
      <trkpt lat="48.718464" lon="16.579795">
        <ele>336.728387</ele>
        <time>2020-09-10T08:56:47.850Z</time>
      </trkpt>
      <trkpt lat="48.718404" lon="16.579670">
        <ele>336.792201</ele>
        <time>2020-09-10T08:56:54.851Z</time>
      </trkpt>
      <trkpt lat="48.718342" lon="16.579552">
        <ele>336.854473</ele>
        <time>2020-09-10T08:57:00.851Z</time>
      </trkpt>
      <trkpt lat="48.718284" lon="16.579434">
        <ele>336.915218</ele>
        <time>2020-09-10T08:57:06.851Z</time>
      </trkpt>
      <trkpt lat="48.718233" lon="16.579294">
        <ele>336.981236</ele>
        <time>2020-09-10T08:57:12.883Z</time>
      </trkpt>
      <trkpt lat="48.718180" lon="16.579158">
        <ele>337.046442</ele>
        <time>2020-09-10T08:57:17.871Z</time>
      </trkpt>
      <trkpt lat="48.718116" lon="16.579039">
        <ele>337.109821</ele>
        <time>2020-09-10T08:57:21.867Z</time>
      </trkpt>
      <trkpt lat="48.718027" lon="16.578921">
        <ele>337.183807</ele>
        <time>2020-09-10T08:57:25.872Z</time>
      </trkpt>
      <trkpt lat="48.717953" lon="16.578826">
        <ele>337.244486</ele>
        <time>2020-09-10T08:57:28.858Z</time>
      </trkpt>
      <trkpt lat="48.717872" lon="16.578745">
        <ele>337.305205</ele>
        <time>2020-09-10T08:57:31.885Z</time>
      </trkpt>
      <trkpt lat="48.717790" lon="16.578667">
        <ele>337.365780</ele>
        <time>2020-09-10T08:57:34.867Z</time>
      </trkpt>
      <trkpt lat="48.717708" lon="16.578576">
        <ele>337.429370</ele>
        <time>2020-09-10T08:57:37.869Z</time>
      </trkpt>
      <trkpt lat="48.717626" lon="16.578486">
        <ele>337.492718</ele>
        <time>2020-09-10T08:57:40.896Z</time>
      </trkpt>
      <trkpt lat="48.717546" lon="16.578408">
        <ele>337.552236</ele>
        <time>2020-09-10T08:57:43.865Z</time>
      </trkpt>
      <trkpt lat="48.717466" lon="16.578328">
        <ele>337.626914</ele>
        <time>2020-09-10T08:57:46.866Z</time>
      </trkpt>
      <trkpt lat="48.717383" lon="16.578248">
        <ele>337.730238</ele>
        <time>2020-09-10T08:57:49.867Z</time>
      </trkpt>
      <trkpt lat="48.717297" lon="16.578169">
        <ele>337.835875</ele>
        <time>2020-09-10T08:57:52.893Z</time>
      </trkpt>
      <trkpt lat="48.717213" lon="16.578091">
        <ele>337.939357</ele>
        <time>2020-09-10T08:57:55.886Z</time>
      </trkpt>
      <trkpt lat="48.717133" lon="16.578013">
        <ele>338.039280</ele>
        <time>2020-09-10T08:57:58.859Z</time>
      </trkpt>
      <trkpt lat="48.717049" lon="16.577937">
        <ele>338.142044</ele>
        <time>2020-09-10T08:58:01.869Z</time>
      </trkpt>
      <trkpt lat="48.716968" lon="16.577870">
        <ele>338.238978</ele>
        <time>2020-09-10T08:58:04.868Z</time>
      </trkpt>
      <trkpt lat="48.716887" lon="16.577799">
        <ele>338.337269</ele>
        <time>2020-09-10T08:58:07.864Z</time>
      </trkpt>
      <trkpt lat="48.716806" lon="16.577725">
        <ele>338.436619</ele>
        <time>2020-09-10T08:58:10.879Z</time>
      </trkpt>
      <trkpt lat="48.716709" lon="16.577631">
        <ele>338.557560</ele>
        <time>2020-09-10T08:58:14.870Z</time>
      </trkpt>
      <trkpt lat="48.716615" lon="16.577537">
        <ele>338.675859</ele>
        <time>2020-09-10T08:58:18.853Z</time>
      </trkpt>
      <trkpt lat="48.716533" lon="16.577439">
        <ele>338.785555</ele>
        <time>2020-09-10T08:58:22.895Z</time>
      </trkpt>
      <trkpt lat="48.716482" lon="16.577316">
        <ele>338.886239</ele>
        <time>2020-09-10T08:58:27.884Z</time>
      </trkpt>
      <trkpt lat="48.716467" lon="16.577172">
        <ele>338.987279</ele>
        <time>2020-09-10T08:58:32.873Z</time>
      </trkpt>
      <trkpt lat="48.716485" lon="16.577031">
        <ele>339.086815</ele>
        <time>2020-09-10T08:58:38.891Z</time>
      </trkpt>
      <trkpt lat="48.716508" lon="16.576898">
        <ele>339.182109</ele>
        <time>2020-09-10T08:58:43.854Z</time>
      </trkpt>
      <trkpt lat="48.716537" lon="16.576753">
        <ele>339.287121</ele>
        <time>2020-09-10T08:58:48.875Z</time>
      </trkpt>
      <trkpt lat="48.716557" lon="16.576611">
        <ele>339.387755</ele>
        <time>2020-09-10T08:58:53.902Z</time>
      </trkpt>
      <trkpt lat="48.716586" lon="16.576470">
        <ele>339.502572</ele>
        <time>2020-09-10T08:58:58.856Z</time>
      </trkpt>
      <trkpt lat="48.716620" lon="16.576332">
        <ele>339.729650</ele>
        <time>2020-09-10T08:59:03.861Z</time>
      </trkpt>
      <trkpt lat="48.716666" lon="16.576193">
        <ele>339.969365</ele>
        <time>2020-09-10T08:59:09.893Z</time>
      </trkpt>
      <trkpt lat="48.716706" lon="16.576069">
        <ele>340.182137</ele>
        <time>2020-09-10T08:59:14.858Z</time>
      </trkpt>
      <trkpt lat="48.716770" lon="16.575951">
        <ele>340.417608</ele>
        <time>2020-09-10T08:59:19.877Z</time>
      </trkpt>
      <trkpt lat="48.716830" lon="16.575847">
        <ele>340.630571</ele>
        <time>2020-09-10T08:59:24.861Z</time>
      </trkpt>
      <trkpt lat="48.716897" lon="16.575752">
        <ele>340.844932</ele>
        <time>2020-09-10T08:59:29.871Z</time>
      </trkpt>
      <trkpt lat="48.716972" lon="16.575657">
        <ele>341.073299</ele>
        <time>2020-09-10T08:59:34.876Z</time>
      </trkpt>
      <trkpt lat="48.717045" lon="16.575561">
        <ele>341.299107</ele>
        <time>2020-09-10T08:59:39.861Z</time>
      </trkpt>
      <trkpt lat="48.717115" lon="16.575474">
        <ele>341.510611</ele>
        <time>2020-09-10T08:59:44.873Z</time>
      </trkpt>
      <trkpt lat="48.717205" lon="16.575381">
        <ele>341.765108</ele>
        <time>2020-09-10T08:59:50.847Z</time>
      </trkpt>
      <trkpt lat="48.717298" lon="16.575304">
        <ele>342.012700</ele>
        <time>2020-09-10T08:59:56.874Z</time>
      </trkpt>
      <trkpt lat="48.717383" lon="16.575253">
        <ele>342.226289</ele>
        <time>2020-09-10T09:00:01.869Z</time>
      </trkpt>
      <trkpt lat="48.717475" lon="16.575170">
        <ele>342.476435</ele>
        <time>2020-09-10T09:00:07.862Z</time>
      </trkpt>
      <trkpt lat="48.717548" lon="16.575082">
        <ele>342.694360</ele>
        <time>2020-09-10T09:00:12.870Z</time>
      </trkpt>
      <trkpt lat="48.717612" lon="16.574985">
        <ele>342.905824</ele>
        <time>2020-09-10T09:00:17.850Z</time>
      </trkpt>
      <trkpt lat="48.717664" lon="16.574874">
        <ele>343.115676</ele>
        <time>2020-09-10T09:00:22.862Z</time>
      </trkpt>
      <trkpt lat="48.717724" lon="16.574769">
        <ele>343.329800</ele>
        <time>2020-09-10T09:00:27.860Z</time>
      </trkpt>
      <trkpt lat="48.717788" lon="16.574638">
        <ele>343.581070</ele>
        <time>2020-09-10T09:00:33.887Z</time>
      </trkpt>
      <trkpt lat="48.717837" lon="16.574518">
        <ele>343.875712</ele>
        <time>2020-09-10T09:00:38.850Z</time>
      </trkpt>
      <trkpt lat="48.717897" lon="16.574414">
        <ele>344.229850</ele>
        <time>2020-09-10T09:00:43.882Z</time>
      </trkpt>
      <trkpt lat="48.717961" lon="16.574307">
        <ele>344.600066</ele>
        <time>2020-09-10T09:00:48.874Z</time>
      </trkpt>
      <trkpt lat="48.718007" lon="16.574189">
        <ele>344.951398</ele>
        <time>2020-09-10T09:00:53.896Z</time>
      </trkpt>
      <trkpt lat="48.718053" lon="16.574059">
        <ele>345.329536</ele>
        <time>2020-09-10T09:00:58.876Z</time>
      </trkpt>
      <trkpt lat="48.718106" lon="16.573935">
        <ele>345.708265</ele>
        <time>2020-09-10T09:01:03.850Z</time>
      </trkpt>
      <trkpt lat="48.718159" lon="16.573796">
        <ele>346.119796</ele>
        <time>2020-09-10T09:01:09.876Z</time>
      </trkpt>
      <trkpt lat="48.718222" lon="16.573671">
        <ele>346.523010</ele>
        <time>2020-09-10T09:01:15.872Z</time>
      </trkpt>
      <trkpt lat="48.718267" lon="16.573541">
        <ele>346.899327</ele>
        <time>2020-09-10T09:01:21.869Z</time>
      </trkpt>
      <trkpt lat="48.718311" lon="16.573405">
        <ele>347.287602</ele>
        <time>2020-09-10T09:01:27.865Z</time>
      </trkpt>
      <trkpt lat="48.718352" lon="16.573265">
        <ele>347.680236</ele>
        <time>2020-09-10T09:01:33.856Z</time>
      </trkpt>
      <trkpt lat="48.718395" lon="16.573120">
        <ele>348.087742</ele>
        <time>2020-09-10T09:01:39.865Z</time>
      </trkpt>
      <trkpt lat="48.718423" lon="16.572983">
        <ele>348.455385</ele>
        <time>2020-09-10T09:01:45.858Z</time>
      </trkpt>
      <trkpt lat="48.718449" lon="16.572828">
        <ele>348.865343</ele>
        <time>2020-09-10T09:01:51.871Z</time>
      </trkpt>
      <trkpt lat="48.718489" lon="16.572683">
        <ele>349.268210</ele>
        <time>2020-09-10T09:01:57.890Z</time>
      </trkpt>
      <trkpt lat="48.718515" lon="16.572526">
        <ele>349.683139</ele>
        <time>2020-09-10T09:02:03.868Z</time>
      </trkpt>
      <trkpt lat="48.718547" lon="16.572385">
        <ele>350.065356</ele>
        <time>2020-09-10T09:02:09.859Z</time>
      </trkpt>
      <trkpt lat="48.718576" lon="16.572246">
        <ele>350.439050</ele>
        <time>2020-09-10T09:02:15.850Z</time>
      </trkpt>
      <trkpt lat="48.718607" lon="16.572096">
        <ele>350.939074</ele>
        <time>2020-09-10T09:02:21.852Z</time>
      </trkpt>
      <trkpt lat="48.718636" lon="16.571952">
        <ele>351.543567</ele>
        <time>2020-09-10T09:02:27.922Z</time>
      </trkpt>
      <trkpt lat="48.718658" lon="16.571801">
        <ele>352.164436</ele>
        <time>2020-09-10T09:02:33.861Z</time>
      </trkpt>
      <trkpt lat="48.718689" lon="16.571661">
        <ele>352.757347</ele>
        <time>2020-09-10T09:02:39.864Z</time>
      </trkpt>
      <trkpt lat="48.718718" lon="16.571511">
        <ele>353.384919</ele>
        <time>2020-09-10T09:02:45.860Z</time>
      </trkpt>
      <trkpt lat="48.718739" lon="16.571368">
        <ele>353.973112</ele>
        <time>2020-09-10T09:02:51.861Z</time>
      </trkpt>
      <trkpt lat="48.718768" lon="16.571223">
        <ele>354.581445</ele>
        <time>2020-09-10T09:02:57.877Z</time>
      </trkpt>
      <trkpt lat="48.718797" lon="16.571081">
        <ele>355.178261</ele>
        <time>2020-09-10T09:03:03.861Z</time>
      </trkpt>
      <trkpt lat="48.718824" lon="16.570936">
        <ele>355.783175</ele>
        <time>2020-09-10T09:03:09.870Z</time>
      </trkpt>
      <trkpt lat="48.718861" lon="16.570791">
        <ele>356.407372</ele>
        <time>2020-09-10T09:03:15.890Z</time>
      </trkpt>
      <trkpt lat="48.718886" lon="16.570638">
        <ele>357.040221</ele>
        <time>2020-09-10T09:03:21.854Z</time>
      </trkpt>
      <trkpt lat="48.718908" lon="16.570505">
        <ele>357.590739</ele>
        <time>2020-09-10T09:03:26.865Z</time>
      </trkpt>
      <trkpt lat="48.718937" lon="16.570357">
        <ele>358.210607</ele>
        <time>2020-09-10T09:03:32.886Z</time>
      </trkpt>
      <trkpt lat="48.718976" lon="16.570228">
        <ele>358.780326</ele>
        <time>2020-09-10T09:03:38.869Z</time>
      </trkpt>
      <trkpt lat="48.719001" lon="16.570070">
        <ele>359.432678</ele>
        <time>2020-09-10T09:03:44.869Z</time>
      </trkpt>
      <trkpt lat="48.719024" lon="16.569921">
        <ele>360.047063</ele>
        <time>2020-09-10T09:03:50.859Z</time>
      </trkpt>
      <trkpt lat="48.719047" lon="16.569786">
        <ele>360.606862</ele>
        <time>2020-09-10T09:03:55.854Z</time>
      </trkpt>
      <trkpt lat="48.719072" lon="16.569644">
        <ele>361.196935</ele>
        <time>2020-09-10T09:04:00.871Z</time>
      </trkpt>
      <trkpt lat="48.719090" lon="16.569495">
        <ele>361.980859</ele>
        <time>2020-09-10T09:04:05.867Z</time>
      </trkpt>
      <trkpt lat="48.719126" lon="16.569366">
        <ele>363.066529</ele>
        <time>2020-09-10T09:04:11.867Z</time>
      </trkpt>
      <trkpt lat="48.719235" lon="16.569359">
        <ele>364.348272</ele>
        <time>2020-09-10T09:04:16.867Z</time>
      </trkpt>
      <trkpt lat="48.719196" lon="16.569193">
        <ele>365.714105</ele>
        <time>2020-09-10T09:05:17.861Z</time>
      </trkpt>
      <trkpt lat="48.719178" lon="16.569057">
        <ele>366.789261</ele>
        <time>2020-09-10T09:05:23.876Z</time>
      </trkpt>
      <trkpt lat="48.719180" lon="16.568917">
        <ele>367.874672</ele>
        <time>2020-09-10T09:05:28.863Z</time>
      </trkpt>
      <trkpt lat="48.719186" lon="16.568772">
        <ele>369.000793</ele>
        <time>2020-09-10T09:05:33.888Z</time>
      </trkpt>
      <trkpt lat="48.719132" lon="16.568559">
        <ele>370.769482</ele>
        <time>2020-09-10T09:06:44.897Z</time>
      </trkpt>
      <trkpt lat="48.719133" lon="16.568399">
        <ele>372.009718</ele>
        <time>2020-09-10T09:06:48.862Z</time>
      </trkpt>
      <trkpt lat="48.719138" lon="16.568230">
        <ele>373.320975</ele>
        <time>2020-09-10T09:06:52.886Z</time>
      </trkpt>
      <trkpt lat="48.719155" lon="16.568057">
        <ele>374.676713</ele>
        <time>2020-09-10T09:06:56.872Z</time>
      </trkpt>
      <trkpt lat="48.719164" lon="16.567913">
        <ele>375.797872</ele>
        <time>2020-09-10T09:07:00.849Z</time>
      </trkpt>
      <trkpt lat="48.719174" lon="16.567763">
        <ele>376.966461</ele>
        <time>2020-09-10T09:07:04.851Z</time>
      </trkpt>
      <trkpt lat="48.719165" lon="16.567609">
        <ele>378.164808</ele>
        <time>2020-09-10T09:07:09.869Z</time>
      </trkpt>
      <trkpt lat="48.719124" lon="16.567464">
        <ele>379.387595</ele>
        <time>2020-09-10T09:07:13.883Z</time>
      </trkpt>
      <trkpt lat="48.719104" lon="16.567316">
        <ele>380.558580</ele>
        <time>2020-09-10T09:07:18.863Z</time>
      </trkpt>
      <trkpt lat="48.719089" lon="16.567171">
        <ele>381.696227</ele>
        <time>2020-09-10T09:07:23.900Z</time>
      </trkpt>
      <trkpt lat="48.719064" lon="16.567038">
        <ele>382.770110</ele>
        <time>2020-09-10T09:07:28.851Z</time>
      </trkpt>
      <trkpt lat="48.719009" lon="16.566905">
        <ele>384.103411</ele>
        <time>2020-09-10T09:07:32.853Z</time>
      </trkpt>
      <trkpt lat="48.718953" lon="16.566791">
        <ele>385.310677</ele>
        <time>2020-09-10T09:07:35.857Z</time>
      </trkpt>
      <trkpt lat="48.718916" lon="16.566661">
        <ele>386.513288</ele>
        <time>2020-09-10T09:07:41.892Z</time>
      </trkpt>
      <trkpt lat="48.718879" lon="16.566526">
        <ele>387.755010</ele>
        <time>2020-09-10T09:07:46.856Z</time>
      </trkpt>
      <trkpt lat="48.718862" lon="16.566382">
        <ele>388.997599</ele>
        <time>2020-09-10T09:07:50.851Z</time>
      </trkpt>
      <trkpt lat="48.718842" lon="16.566246">
        <ele>390.181156</ele>
        <time>2020-09-10T09:07:54.872Z</time>
      </trkpt>
      <trkpt lat="48.718824" lon="16.566109">
        <ele>391.367710</ele>
        <time>2020-09-10T09:07:58.854Z</time>
      </trkpt>
      <trkpt lat="48.718814" lon="16.565959">
        <ele>392.648325</ele>
        <time>2020-09-10T09:08:03.895Z</time>
      </trkpt>
      <trkpt lat="48.718775" lon="16.565821">
        <ele>393.923538</ele>
        <time>2020-09-10T09:08:09.870Z</time>
      </trkpt>
      <trkpt lat="48.718740" lon="16.565662">
        <ele>395.347304</ele>
        <time>2020-09-10T09:08:15.857Z</time>
      </trkpt>
      <trkpt lat="48.718696" lon="16.565533">
        <ele>396.580828</ele>
        <time>2020-09-10T09:08:21.857Z</time>
      </trkpt>
      <trkpt lat="48.718646" lon="16.565413">
        <ele>397.786390</ele>
        <time>2020-09-10T09:08:26.847Z</time>
      </trkpt>
      <trkpt lat="48.718579" lon="16.565285">
        <ele>399.174276</ele>
        <time>2020-09-10T09:08:32.866Z</time>
      </trkpt>
      <trkpt lat="48.718522" lon="16.565177">
        <ele>400.349066</ele>
        <time>2020-09-10T09:08:37.869Z</time>
      </trkpt>
      <trkpt lat="48.718467" lon="16.565060">
        <ele>401.569357</ele>
        <time>2020-09-10T09:08:42.883Z</time>
      </trkpt>
      <trkpt lat="48.718402" lon="16.564929">
        <ele>402.961671</ele>
        <time>2020-09-10T09:08:48.866Z</time>
      </trkpt>
      <trkpt lat="48.718347" lon="16.564793">
        <ele>404.316644</ele>
        <time>2020-09-10T09:08:54.858Z</time>
      </trkpt>
      <trkpt lat="48.718303" lon="16.564640">
        <ele>405.734363</ele>
        <time>2020-09-10T09:09:00.890Z</time>
      </trkpt>
      <trkpt lat="48.718259" lon="16.564519">
        <ele>406.768135</ele>
        <time>2020-09-10T09:09:05.873Z</time>
      </trkpt>
      <trkpt lat="48.718206" lon="16.564402">
        <ele>407.805650</ele>
        <time>2020-09-10T09:09:10.858Z</time>
      </trkpt>
      <trkpt lat="48.718157" lon="16.564281">
        <ele>408.843544</ele>
        <time>2020-09-10T09:09:15.865Z</time>
      </trkpt>
      <trkpt lat="48.718104" lon="16.564156">
        <ele>409.929777</ele>
        <time>2020-09-10T09:09:21.889Z</time>
      </trkpt>
      <trkpt lat="48.718052" lon="16.564035">
        <ele>410.985441</ele>
        <time>2020-09-10T09:09:26.854Z</time>
      </trkpt>
      <trkpt lat="48.717994" lon="16.563927">
        <ele>412.003460</ele>
        <time>2020-09-10T09:09:31.894Z</time>
      </trkpt>
      <trkpt lat="48.717927" lon="16.563817">
        <ele>413.097893</ele>
        <time>2020-09-10T09:09:36.863Z</time>
      </trkpt>
      <trkpt lat="48.717882" lon="16.563689">
        <ele>414.158185</ele>
        <time>2020-09-10T09:09:41.902Z</time>
      </trkpt>
      <trkpt lat="48.717827" lon="16.563558">
        <ele>415.293315</ele>
        <time>2020-09-10T09:09:46.861Z</time>
      </trkpt>
      <trkpt lat="48.717761" lon="16.563410">
        <ele>416.599230</ele>
        <time>2020-09-10T09:09:51.882Z</time>
      </trkpt>
      <trkpt lat="48.717697" lon="16.563267">
        <ele>417.862454</ele>
        <time>2020-09-10T09:09:55.872Z</time>
      </trkpt>
      <trkpt lat="48.717643" lon="16.563156">
        <ele>418.870660</ele>
        <time>2020-09-10T09:09:58.860Z</time>
      </trkpt>
      <trkpt lat="48.717590" lon="16.563036">
        <ele>419.926337</ele>
        <time>2020-09-10T09:10:01.897Z</time>
      </trkpt>
      <trkpt lat="48.717536" lon="16.562912">
        <ele>421.012500</ele>
        <time>2020-09-10T09:10:04.852Z</time>
      </trkpt>
      <trkpt lat="48.717476" lon="16.562788">
        <ele>422.136658</ele>
        <time>2020-09-10T09:10:07.904Z</time>
      </trkpt>
      <trkpt lat="48.717421" lon="16.562657">
        <ele>423.271795</ele>
        <time>2020-09-10T09:10:10.873Z</time>
      </trkpt>
      <trkpt lat="48.717371" lon="16.562525">
        <ele>424.384510</ele>
        <time>2020-09-10T09:10:13.859Z</time>
      </trkpt>
      <trkpt lat="48.717312" lon="16.562372">
        <ele>425.680056</ele>
        <time>2020-09-10T09:10:16.849Z</time>
      </trkpt>
      <trkpt lat="48.717264" lon="16.562256">
        <ele>426.167737</ele>
        <time>2020-09-10T09:10:18.869Z</time>
      </trkpt>
      <trkpt lat="48.717217" lon="16.562132">
        <ele>426.579346</ele>
        <time>2020-09-10T09:10:20.878Z</time>
      </trkpt>
      <trkpt lat="48.717164" lon="16.562003">
        <ele>427.016748</ele>
        <time>2020-09-10T09:10:22.868Z</time>
      </trkpt>
      <trkpt lat="48.717114" lon="16.561877">
        <ele>427.439953</ele>
        <time>2020-09-10T09:10:24.869Z</time>
      </trkpt>
      <trkpt lat="48.717043" lon="16.561714">
        <ele>428.002134</ele>
        <time>2020-09-10T09:10:26.881Z</time>
      </trkpt>
      <trkpt lat="48.716975" lon="16.561535">
        <ele>428.596646</ele>
        <time>2020-09-10T09:10:28.861Z</time>
      </trkpt>
      <trkpt lat="48.716900" lon="16.561344">
        <ele>429.236396</ele>
        <time>2020-09-10T09:10:31.891Z</time>
      </trkpt>
      <trkpt lat="48.716843" lon="16.561188">
        <ele>429.749665</ele>
        <time>2020-09-10T09:10:33.853Z</time>
      </trkpt>
      <trkpt lat="48.716778" lon="16.560999">
        <ele>430.363131</ele>
        <time>2020-09-10T09:10:35.863Z</time>
      </trkpt>
      <trkpt lat="48.716726" lon="16.560864">
        <ele>430.813073</ele>
        <time>2020-09-10T09:10:37.854Z</time>
      </trkpt>
      <trkpt lat="48.716649" lon="16.560657">
        <ele>431.497049</ele>
        <time>2020-09-10T09:10:39.859Z</time>
      </trkpt>
      <trkpt lat="48.716583" lon="16.560422">
        <ele>432.232182</ele>
        <time>2020-09-10T09:10:41.848Z</time>
      </trkpt>
      <trkpt lat="48.716535" lon="16.560166">
        <ele>432.998205</ele>
        <time>2020-09-10T09:10:43.870Z</time>
      </trkpt>
      <trkpt lat="48.716505" lon="16.559914">
        <ele>433.669676</ele>
        <time>2020-09-10T09:10:45.865Z</time>
      </trkpt>
      <trkpt lat="48.716488" lon="16.559779">
        <ele>433.587426</ele>
        <time>2020-09-10T09:10:46.876Z</time>
      </trkpt>
      <trkpt lat="48.716470" lon="16.559523">
        <ele>433.433355</ele>
        <time>2020-09-10T09:10:48.854Z</time>
      </trkpt>
      <trkpt lat="48.716453" lon="16.559270">
        <ele>433.281163</ele>
        <time>2020-09-10T09:10:50.873Z</time>
      </trkpt>
      <trkpt lat="48.716461" lon="16.559017">
        <ele>433.129580</ele>
        <time>2020-09-10T09:10:52.870Z</time>
      </trkpt>
      <trkpt lat="48.716465" lon="16.558878">
        <ele>433.046316</ele>
        <time>2020-09-10T09:10:53.854Z</time>
      </trkpt>
      <trkpt lat="48.716465" lon="16.558732">
        <ele>432.958942</ele>
        <time>2020-09-10T09:10:54.890Z</time>
      </trkpt>
      <trkpt lat="48.716462" lon="16.558589">
        <ele>432.873320</ele>
        <time>2020-09-10T09:10:55.856Z</time>
      </trkpt>
      <trkpt lat="48.716455" lon="16.558444">
        <ele>432.786312</ele>
        <time>2020-09-10T09:10:56.860Z</time>
      </trkpt>
      <trkpt lat="48.716436" lon="16.558297">
        <ele>432.696667</ele>
        <time>2020-09-10T09:10:57.881Z</time>
      </trkpt>
      <trkpt lat="48.716415" lon="16.558141">
        <ele>432.601385</ele>
        <time>2020-09-10T09:10:58.859Z</time>
      </trkpt>
      <trkpt lat="48.716390" lon="16.557979">
        <ele>432.501819</ele>
        <time>2020-09-10T09:10:59.890Z</time>
      </trkpt>
      <trkpt lat="48.716361" lon="16.557818">
        <ele>432.401942</ele>
        <time>2020-09-10T09:11:00.867Z</time>
      </trkpt>
      <trkpt lat="48.716332" lon="16.557653">
        <ele>432.299754</ele>
        <time>2020-09-10T09:11:01.894Z</time>
      </trkpt>
      <trkpt lat="48.716307" lon="16.557484">
        <ele>432.196104</ele>
        <time>2020-09-10T09:11:02.859Z</time>
      </trkpt>
      <trkpt lat="48.716281" lon="16.557318">
        <ele>432.093999</ele>
        <time>2020-09-10T09:11:03.853Z</time>
      </trkpt>
      <trkpt lat="48.716256" lon="16.557144">
        <ele>431.974862</ele>
        <time>2020-09-10T09:11:04.853Z</time>
      </trkpt>
      <trkpt lat="48.716238" lon="16.556961">
        <ele>431.841726</ele>
        <time>2020-09-10T09:11:05.856Z</time>
      </trkpt>
      <trkpt lat="48.716212" lon="16.556778">
        <ele>431.707027</ele>
        <time>2020-09-10T09:11:06.891Z</time>
      </trkpt>
      <trkpt lat="48.716187" lon="16.556591">
        <ele>431.569734</ele>
        <time>2020-09-10T09:11:07.867Z</time>
      </trkpt>
      <trkpt lat="48.716160" lon="16.556402">
        <ele>431.430584</ele>
        <time>2020-09-10T09:11:08.843Z</time>
      </trkpt>
      <trkpt lat="48.716130" lon="16.556215">
        <ele>431.292105</ele>
        <time>2020-09-10T09:11:09.872Z</time>
      </trkpt>
      <trkpt lat="48.716107" lon="16.556032">
        <ele>431.158056</ele>
        <time>2020-09-10T09:11:10.897Z</time>
      </trkpt>
      <trkpt lat="48.716093" lon="16.555843">
        <ele>431.021203</ele>
        <time>2020-09-10T09:11:11.849Z</time>
      </trkpt>
      <trkpt lat="48.716080" lon="16.555645">
        <ele>430.878025</ele>
        <time>2020-09-10T09:11:12.858Z</time>
      </trkpt>
      <trkpt lat="48.716067" lon="16.555452">
        <ele>430.738426</ele>
        <time>2020-09-10T09:11:13.859Z</time>
      </trkpt>
      <trkpt lat="48.716054" lon="16.555264">
        <ele>430.602406</ele>
        <time>2020-09-10T09:11:14.871Z</time>
      </trkpt>
      <trkpt lat="48.716042" lon="16.555082">
        <ele>430.470792</ele>
        <time>2020-09-10T09:11:15.878Z</time>
      </trkpt>
      <trkpt lat="48.716035" lon="16.554904">
        <ele>430.342482</ele>
        <time>2020-09-10T09:11:16.854Z</time>
      </trkpt>
      <trkpt lat="48.716022" lon="16.554726">
        <ele>430.213616</ele>
        <time>2020-09-10T09:11:17.857Z</time>
      </trkpt>
      <trkpt lat="48.716020" lon="16.554545">
        <ele>430.086740</ele>
        <time>2020-09-10T09:11:18.851Z</time>
      </trkpt>
      <trkpt lat="48.716012" lon="16.554371">
        <ele>430.054358</ele>
        <time>2020-09-10T09:11:19.854Z</time>
      </trkpt>
      <trkpt lat="48.716004" lon="16.554197">
        <ele>430.021977</ele>
        <time>2020-09-10T09:11:20.874Z</time>
      </trkpt>
      <trkpt lat="48.715997" lon="16.554034">
        <ele>429.991652</ele>
        <time>2020-09-10T09:11:21.854Z</time>
      </trkpt>
      <trkpt lat="48.715991" lon="16.553875">
        <ele>429.962086</ele>
        <time>2020-09-10T09:11:22.862Z</time>
      </trkpt>
      <trkpt lat="48.715989" lon="16.553707">
        <ele>429.930891</ele>
        <time>2020-09-10T09:11:23.858Z</time>
      </trkpt>
      <trkpt lat="48.715991" lon="16.553545">
        <ele>429.900811</ele>
        <time>2020-09-10T09:11:24.858Z</time>
      </trkpt>
      <trkpt lat="48.716006" lon="16.553386">
        <ele>429.870992</ele>
        <time>2020-09-10T09:11:25.870Z</time>
      </trkpt>
      <trkpt lat="48.716020" lon="16.553230">
        <ele>429.841764</ele>
        <time>2020-09-10T09:11:26.862Z</time>
      </trkpt>
      <trkpt lat="48.716037" lon="16.553076">
        <ele>429.812777</ele>
        <time>2020-09-10T09:11:27.852Z</time>
      </trkpt>
      <trkpt lat="48.716056" lon="16.552924">
        <ele>429.784056</ele>
        <time>2020-09-10T09:11:28.854Z</time>
      </trkpt>
      <trkpt lat="48.716069" lon="16.552774">
        <ele>429.755970</ele>
        <time>2020-09-10T09:11:29.843Z</time>
      </trkpt>
      <trkpt lat="48.716083" lon="16.552623">
        <ele>429.727661</ele>
        <time>2020-09-10T09:11:30.847Z</time>
      </trkpt>
      <trkpt lat="48.716098" lon="16.552475">
        <ele>429.699863</ele>
        <time>2020-09-10T09:11:31.861Z</time>
      </trkpt>
      <trkpt lat="48.716114" lon="16.552326">
        <ele>429.671837</ele>
        <time>2020-09-10T09:11:32.860Z</time>
      </trkpt>
      <trkpt lat="48.716126" lon="16.552180">
        <ele>429.644523</ele>
        <time>2020-09-10T09:11:33.892Z</time>
      </trkpt>
      <trkpt lat="48.716134" lon="16.552036">
        <ele>429.617695</ele>
        <time>2020-09-10T09:11:34.861Z</time>
      </trkpt>
      <trkpt lat="48.716139" lon="16.551890">
        <ele>429.590554</ele>
        <time>2020-09-10T09:11:35.858Z</time>
      </trkpt>
      <trkpt lat="48.716131" lon="16.551749">
        <ele>429.274019</ele>
        <time>2020-09-10T09:11:36.856Z</time>
      </trkpt>
      <trkpt lat="48.716123" lon="16.551604">
        <ele>428.800003</ele>
        <time>2020-09-10T09:11:37.874Z</time>
      </trkpt>
      <trkpt lat="48.716116" lon="16.551457">
        <ele>428.319874</ele>
        <time>2020-09-10T09:11:38.838Z</time>
      </trkpt>
      <trkpt lat="48.716108" lon="16.551309">
        <ele>427.836118</ele>
        <time>2020-09-10T09:11:39.848Z</time>
      </trkpt>
      <trkpt lat="48.716112" lon="16.551156">
        <ele>427.337297</ele>
        <time>2020-09-10T09:11:40.875Z</time>
      </trkpt>
      <trkpt lat="48.716129" lon="16.550997">
        <ele>426.812565</ele>
        <time>2020-09-10T09:11:41.865Z</time>
      </trkpt>
      <trkpt lat="48.716154" lon="16.550835">
        <ele>426.270573</ele>
        <time>2020-09-10T09:11:42.839Z</time>
      </trkpt>
      <trkpt lat="48.716173" lon="16.550667">
        <ele>425.715296</ele>
        <time>2020-09-10T09:11:43.856Z</time>
      </trkpt>
      <trkpt lat="48.716196" lon="16.550496">
        <ele>425.146771</ele>
        <time>2020-09-10T09:11:44.872Z</time>
      </trkpt>
      <trkpt lat="48.716214" lon="16.550316">
        <ele>424.553688</ele>
        <time>2020-09-10T09:11:45.871Z</time>
      </trkpt>
      <trkpt lat="48.716228" lon="16.550129">
        <ele>423.940588</ele>
        <time>2020-09-10T09:11:46.870Z</time>
      </trkpt>
      <trkpt lat="48.716238" lon="16.549937">
        <ele>423.313164</ele>
        <time>2020-09-10T09:11:47.876Z</time>
      </trkpt>
      <trkpt lat="48.716242" lon="16.549742">
        <ele>422.677605</ele>
        <time>2020-09-10T09:11:48.880Z</time>
      </trkpt>
      <trkpt lat="48.716240" lon="16.549544">
        <ele>422.032505</ele>
        <time>2020-09-10T09:11:49.854Z</time>
      </trkpt>
      <trkpt lat="48.716228" lon="16.549346">
        <ele>421.384765</ele>
        <time>2020-09-10T09:11:50.858Z</time>
      </trkpt>
      <trkpt lat="48.716214" lon="16.549148">
        <ele>420.736046</ele>
        <time>2020-09-10T09:11:51.866Z</time>
      </trkpt>
      <trkpt lat="48.716190" lon="16.548948">
        <ele>420.087547</ele>
        <time>2020-09-10T09:11:52.843Z</time>
      </trkpt>
      <trkpt lat="48.716154" lon="16.548755">
        <ele>419.448470</ele>
        <time>2020-09-10T09:11:53.867Z</time>
      </trkpt>
      <trkpt lat="48.716124" lon="16.548567">
        <ele>418.832157</ele>
        <time>2020-09-10T09:11:54.888Z</time>
      </trkpt>
      <trkpt lat="48.716092" lon="16.548389">
        <ele>418.244301</ele>
        <time>2020-09-10T09:11:55.863Z</time>
      </trkpt>
      <trkpt lat="48.716064" lon="16.548210">
        <ele>417.658125</ele>
        <time>2020-09-10T09:11:56.853Z</time>
      </trkpt>
      <trkpt lat="48.716043" lon="16.548022">
        <ele>417.050558</ele>
        <time>2020-09-10T09:11:57.874Z</time>
      </trkpt>
      <trkpt lat="48.716033" lon="16.547842">
        <ele>416.474976</ele>
        <time>2020-09-10T09:11:58.852Z</time>
      </trkpt>
      <trkpt lat="48.716023" lon="16.547677">
        <ele>415.947007</ele>
        <time>2020-09-10T09:11:59.857Z</time>
      </trkpt>
      <trkpt lat="48.716012" lon="16.547517">
        <ele>415.434422</ele>
        <time>2020-09-10T09:12:00.869Z</time>
      </trkpt>
      <trkpt lat="48.716005" lon="16.547351">
        <ele>414.904400</ele>
        <time>2020-09-10T09:12:01.854Z</time>
      </trkpt>
      <trkpt lat="48.716018" lon="16.547178">
        <ele>414.349589</ele>
        <time>2020-09-10T09:12:02.856Z</time>
      </trkpt>
      <trkpt lat="48.716032" lon="16.546998">
        <ele>413.772065</ele>
        <time>2020-09-10T09:12:03.886Z</time>
      </trkpt>
      <trkpt lat="48.716047" lon="16.546820">
        <ele>413.200278</ele>
        <time>2020-09-10T09:12:04.847Z</time>
      </trkpt>
      <trkpt lat="48.716061" lon="16.546639">
        <ele>412.619590</ele>
        <time>2020-09-10T09:12:05.861Z</time>
      </trkpt>
      <trkpt lat="48.716075" lon="16.546448">
        <ele>412.006453</ele>
        <time>2020-09-10T09:12:06.860Z</time>
      </trkpt>
      <trkpt lat="48.716083" lon="16.546256">
        <ele>411.328005</ele>
        <time>2020-09-10T09:12:07.852Z</time>
      </trkpt>
      <trkpt lat="48.716091" lon="16.546067">
        <ele>410.660115</ele>
        <time>2020-09-10T09:12:08.847Z</time>
      </trkpt>
      <trkpt lat="48.716093" lon="16.545888">
        <ele>410.028771</ele>
        <time>2020-09-10T09:12:09.857Z</time>
      </trkpt>
      <trkpt lat="48.716105" lon="16.545721">
        <ele>409.436353</ele>
        <time>2020-09-10T09:12:10.877Z</time>
      </trkpt>
      <trkpt lat="48.716118" lon="16.545548">
        <ele>408.822315</ele>
        <time>2020-09-10T09:12:11.843Z</time>
      </trkpt>
      <trkpt lat="48.716121" lon="16.545362">
        <ele>408.166179</ele>
        <time>2020-09-10T09:12:12.873Z</time>
      </trkpt>
      <trkpt lat="48.716128" lon="16.545174">
        <ele>407.502132</ele>
        <time>2020-09-10T09:12:13.843Z</time>
      </trkpt>
      <trkpt lat="48.716143" lon="16.544983">
        <ele>406.823805</ele>
        <time>2020-09-10T09:12:14.860Z</time>
      </trkpt>
      <trkpt lat="48.716167" lon="16.544793">
        <ele>406.141591</ele>
        <time>2020-09-10T09:12:15.862Z</time>
      </trkpt>
      <trkpt lat="48.716189" lon="16.544598">
        <ele>405.443932</ele>
        <time>2020-09-10T09:12:16.879Z</time>
      </trkpt>
      <trkpt lat="48.716213" lon="16.544402">
        <ele>404.740926</ele>
        <time>2020-09-10T09:12:17.896Z</time>
      </trkpt>
      <trkpt lat="48.716233" lon="16.544203">
        <ele>404.031047</ele>
        <time>2020-09-10T09:12:18.858Z</time>
      </trkpt>
      <trkpt lat="48.716259" lon="16.544018">
        <ele>403.363999</ele>
        <time>2020-09-10T09:12:19.855Z</time>
      </trkpt>
      <trkpt lat="48.716285" lon="16.543848">
        <ele>402.748591</ele>
        <time>2020-09-10T09:12:20.852Z</time>
      </trkpt>
      <trkpt lat="48.716307" lon="16.543688">
        <ele>402.102342</ele>
        <time>2020-09-10T09:12:21.879Z</time>
      </trkpt>
      <trkpt lat="48.716331" lon="16.543525">
        <ele>401.333456</ele>
        <time>2020-09-10T09:12:22.858Z</time>
      </trkpt>
      <trkpt lat="48.716343" lon="16.543355">
        <ele>400.546337</ele>
        <time>2020-09-10T09:12:23.859Z</time>
      </trkpt>
      <trkpt lat="48.716357" lon="16.543181">
        <ele>399.739335</ele>
        <time>2020-09-10T09:12:24.885Z</time>
      </trkpt>
      <trkpt lat="48.716370" lon="16.543015">
        <ele>398.969733</ele>
        <time>2020-09-10T09:12:25.848Z</time>
      </trkpt>
      <trkpt lat="48.716379" lon="16.542862">
        <ele>398.262552</ele>
        <time>2020-09-10T09:12:26.856Z</time>
      </trkpt>
      <trkpt lat="48.716404" lon="16.542714">
        <ele>397.559209</ele>
        <time>2020-09-10T09:12:27.871Z</time>
      </trkpt>
      <trkpt lat="48.716428" lon="16.542561">
        <ele>396.835188</ele>
        <time>2020-09-10T09:12:28.856Z</time>
      </trkpt>
      <trkpt lat="48.716439" lon="16.542411">
        <ele>396.140361</ele>
        <time>2020-09-10T09:12:29.857Z</time>
      </trkpt>
      <trkpt lat="48.716456" lon="16.542274">
        <ele>395.498579</ele>
        <time>2020-09-10T09:12:30.867Z</time>
      </trkpt>
      <trkpt lat="48.716474" lon="16.542071">
        <ele>394.555600</ele>
        <time>2020-09-10T09:12:32.859Z</time>
      </trkpt>
      <trkpt lat="48.716466" lon="16.541640">
        <ele>392.570565</ele>
        <time>2020-09-10T09:13:07.867Z</time>
      </trkpt>
      <trkpt lat="48.716472" lon="16.541487">
        <ele>391.864936</ele>
        <time>2020-09-10T09:13:09.865Z</time>
      </trkpt>
      <trkpt lat="48.716475" lon="16.541301">
        <ele>391.008368</ele>
        <time>2020-09-10T09:13:11.868Z</time>
      </trkpt>
      <trkpt lat="48.716467" lon="16.541067">
        <ele>389.929627</ele>
        <time>2020-09-10T09:13:13.868Z</time>
      </trkpt>
      <trkpt lat="48.716442" lon="16.540810">
        <ele>388.863817</ele>
        <time>2020-09-10T09:13:15.876Z</time>
      </trkpt>
      <trkpt lat="48.716423" lon="16.540674">
        <ele>388.298406</ele>
        <time>2020-09-10T09:13:16.855Z</time>
      </trkpt>
      <trkpt lat="48.716403" lon="16.540534">
        <ele>387.715795</ele>
        <time>2020-09-10T09:13:17.865Z</time>
      </trkpt>
      <trkpt lat="48.716382" lon="16.540388">
        <ele>387.108028</ele>
        <time>2020-09-10T09:13:18.866Z</time>
      </trkpt>
      <trkpt lat="48.716361" lon="16.540238">
        <ele>386.484356</ele>
        <time>2020-09-10T09:13:19.871Z</time>
      </trkpt>
      <trkpt lat="48.716339" lon="16.540084">
        <ele>385.843484</ele>
        <time>2020-09-10T09:13:20.893Z</time>
      </trkpt>
      <trkpt lat="48.716306" lon="16.539933">
        <ele>385.196512</ele>
        <time>2020-09-10T09:13:21.903Z</time>
      </trkpt>
      <trkpt lat="48.716280" lon="16.539778">
        <ele>384.546031</ele>
        <time>2020-09-10T09:13:22.886Z</time>
      </trkpt>
      <trkpt lat="48.716256" lon="16.539618">
        <ele>383.878662</ele>
        <time>2020-09-10T09:13:23.885Z</time>
      </trkpt>
      <trkpt lat="48.716233" lon="16.539454">
        <ele>383.196727</ele>
        <time>2020-09-10T09:13:24.862Z</time>
      </trkpt>
      <trkpt lat="48.716220" lon="16.539279">
        <ele>382.480457</ele>
        <time>2020-09-10T09:13:25.892Z</time>
      </trkpt>
      <trkpt lat="48.716205" lon="16.539103">
        <ele>381.758669</ele>
        <time>2020-09-10T09:13:26.871Z</time>
      </trkpt>
      <trkpt lat="48.716188" lon="16.538924">
        <ele>381.023123</ele>
        <time>2020-09-10T09:13:27.872Z</time>
      </trkpt>
      <trkpt lat="48.716166" lon="16.538745">
        <ele>380.282557</ele>
        <time>2020-09-10T09:13:28.894Z</time>
      </trkpt>
      <trkpt lat="48.716142" lon="16.538566">
        <ele>379.539634</ele>
        <time>2020-09-10T09:13:29.878Z</time>
      </trkpt>
      <trkpt lat="48.716117" lon="16.538387">
        <ele>378.795458</ele>
        <time>2020-09-10T09:13:30.885Z</time>
      </trkpt>
      <trkpt lat="48.716093" lon="16.538207">
        <ele>378.203114</ele>
        <time>2020-09-10T09:13:31.881Z</time>
      </trkpt>
      <trkpt lat="48.716070" lon="16.538026">
        <ele>377.615663</ele>
        <time>2020-09-10T09:13:32.863Z</time>
      </trkpt>
      <trkpt lat="48.716048" lon="16.537843">
        <ele>377.022837</ele>
        <time>2020-09-10T09:13:33.860Z</time>
      </trkpt>
      <trkpt lat="48.716024" lon="16.537661">
        <ele>376.431329</ele>
        <time>2020-09-10T09:13:34.882Z</time>
      </trkpt>
      <trkpt lat="48.716000" lon="16.537478">
        <ele>375.836694</ele>
        <time>2020-09-10T09:13:35.890Z</time>
      </trkpt>
      <trkpt lat="48.715975" lon="16.537297">
        <ele>375.247339</ele>
        <time>2020-09-10T09:13:36.882Z</time>
      </trkpt>
      <trkpt lat="48.715949" lon="16.537116">
        <ele>374.656976</ele>
        <time>2020-09-10T09:13:37.865Z</time>
      </trkpt>
      <trkpt lat="48.715923" lon="16.536936">
        <ele>374.069725</ele>
        <time>2020-09-10T09:13:38.853Z</time>
      </trkpt>
      <trkpt lat="48.715902" lon="16.536755">
        <ele>373.484023</ele>
        <time>2020-09-10T09:13:39.872Z</time>
      </trkpt>
      <trkpt lat="48.715881" lon="16.536574">
        <ele>372.898321</ele>
        <time>2020-09-10T09:13:40.887Z</time>
      </trkpt>
      <trkpt lat="48.715860" lon="16.536394">
        <ele>372.315756</ele>
        <time>2020-09-10T09:13:41.899Z</time>
      </trkpt>
      <trkpt lat="48.715834" lon="16.536215">
        <ele>371.731618</ele>
        <time>2020-09-10T09:13:42.880Z</time>
      </trkpt>
      <trkpt lat="48.715808" lon="16.536040">
        <ele>371.159923</ele>
        <time>2020-09-10T09:13:43.871Z</time>
      </trkpt>
      <trkpt lat="48.715787" lon="16.535875">
        <ele>370.624368</ele>
        <time>2020-09-10T09:13:44.858Z</time>
      </trkpt>
      <trkpt lat="48.715768" lon="16.535725">
        <ele>370.137583</ele>
        <time>2020-09-10T09:13:45.845Z</time>
      </trkpt>
      <trkpt lat="48.715750" lon="16.535581">
        <ele>369.134778</ele>
        <time>2020-09-10T09:13:46.871Z</time>
      </trkpt>
      <trkpt lat="48.715731" lon="16.535433">
        <ele>368.017342</ele>
        <time>2020-09-10T09:13:47.868Z</time>
      </trkpt>
      <trkpt lat="48.715707" lon="16.535292">
        <ele>366.938141</ele>
        <time>2020-09-10T09:13:48.872Z</time>
      </trkpt>
      <trkpt lat="48.715695" lon="16.535155">
        <ele>365.913890</ele>
        <time>2020-09-10T09:13:49.903Z</time>
      </trkpt>
      <trkpt lat="48.715683" lon="16.535018">
        <ele>364.889638</ele>
        <time>2020-09-10T09:13:50.888Z</time>
      </trkpt>
      <trkpt lat="48.715664" lon="16.534878">
        <ele>363.830339</ele>
        <time>2020-09-10T09:13:51.894Z</time>
      </trkpt>
      <trkpt lat="48.715658" lon="16.534738">
        <ele>362.790575</ele>
        <time>2020-09-10T09:13:52.869Z</time>
      </trkpt>
      <trkpt lat="48.715684" lon="16.534473">
        <ele>360.804993</ele>
        <time>2020-09-10T09:13:54.875Z</time>
      </trkpt>
      <trkpt lat="48.715717" lon="16.534346">
        <ele>359.793402</ele>
        <time>2020-09-10T09:13:55.850Z</time>
      </trkpt>
      <trkpt lat="48.715753" lon="16.534220">
        <ele>358.775789</ele>
        <time>2020-09-10T09:13:56.864Z</time>
      </trkpt>
      <trkpt lat="48.715868" lon="16.534030">
        <ele>356.864903</ele>
        <time>2020-09-10T09:13:58.851Z</time>
      </trkpt>
      <trkpt lat="48.715986" lon="16.533885">
        <ele>355.158546</ele>
        <time>2020-09-10T09:14:00.855Z</time>
      </trkpt>
      <trkpt lat="48.716099" lon="16.533733">
        <ele>353.461457</ele>
        <time>2020-09-10T09:14:02.891Z</time>
      </trkpt>
      <trkpt lat="48.716186" lon="16.533535">
        <ele>351.698415</ele>
        <time>2020-09-10T09:14:04.884Z</time>
      </trkpt>
      <trkpt lat="48.716167" lon="16.533321">
        <ele>350.098125</ele>
        <time>2020-09-10T09:14:06.891Z</time>
      </trkpt>
      <trkpt lat="48.716095" lon="16.533126">
        <ele>349.010744</ele>
        <time>2020-09-10T09:14:08.865Z</time>
      </trkpt>
      <trkpt lat="48.716049" lon="16.532915">
        <ele>348.019227</ele>
        <time>2020-09-10T09:14:10.850Z</time>
      </trkpt>
      <trkpt lat="48.715990" lon="16.532715">
        <ele>347.041717</ele>
        <time>2020-09-10T09:14:12.858Z</time>
      </trkpt>
      <trkpt lat="48.715908" lon="16.532522">
        <ele>346.017476</ele>
        <time>2020-09-10T09:14:14.866Z</time>
      </trkpt>
      <trkpt lat="48.715841" lon="16.532319">
        <ele>345.004708</ele>
        <time>2020-09-10T09:14:16.873Z</time>
      </trkpt>
      <trkpt lat="48.715792" lon="16.532109">
        <ele>344.010844</ele>
        <time>2020-09-10T09:14:18.880Z</time>
      </trkpt>
      <trkpt lat="48.715759" lon="16.531892">
        <ele>343.017227</ele>
        <time>2020-09-10T09:14:20.860Z</time>
      </trkpt>
      <trkpt lat="48.715718" lon="16.531679">
        <ele>342.027224</ele>
        <time>2020-09-10T09:14:22.876Z</time>
      </trkpt>
      <trkpt lat="48.715680" lon="16.531466">
        <ele>341.042709</ele>
        <time>2020-09-10T09:14:24.867Z</time>
      </trkpt>
      <trkpt lat="48.715644" lon="16.531248">
        <ele>340.040010</ele>
        <time>2020-09-10T09:14:26.885Z</time>
      </trkpt>
      <trkpt lat="48.715605" lon="16.531031">
        <ele>339.036498</ele>
        <time>2020-09-10T09:14:28.860Z</time>
      </trkpt>
      <trkpt lat="48.715575" lon="16.530811">
        <ele>338.034132</ele>
        <time>2020-09-10T09:14:30.866Z</time>
      </trkpt>
      <trkpt lat="48.715536" lon="16.530598">
        <ele>337.248550</ele>
        <time>2020-09-10T09:14:32.859Z</time>
      </trkpt>
      <trkpt lat="48.715498" lon="16.530388">
        <ele>336.572497</ele>
        <time>2020-09-10T09:14:34.863Z</time>
      </trkpt>
      <trkpt lat="48.715447" lon="16.530175">
        <ele>335.869007</ele>
        <time>2020-09-10T09:14:36.879Z</time>
      </trkpt>
      <trkpt lat="48.715409" lon="16.529963">
        <ele>335.186962</ele>
        <time>2020-09-10T09:14:38.866Z</time>
      </trkpt>
      <trkpt lat="48.715375" lon="16.529754">
        <ele>334.518655</ele>
        <time>2020-09-10T09:14:40.851Z</time>
      </trkpt>
      <trkpt lat="48.715337" lon="16.529547">
        <ele>333.851577</ele>
        <time>2020-09-10T09:14:42.851Z</time>
      </trkpt>
      <trkpt lat="48.715300" lon="16.529339">
        <ele>333.182748</ele>
        <time>2020-09-10T09:14:44.857Z</time>
      </trkpt>
      <trkpt lat="48.715276" lon="16.529129">
        <ele>332.521058</ele>
        <time>2020-09-10T09:14:46.882Z</time>
      </trkpt>
      <trkpt lat="48.715257" lon="16.528923">
        <ele>331.875276</ele>
        <time>2020-09-10T09:14:48.858Z</time>
      </trkpt>
      <trkpt lat="48.715258" lon="16.528721">
        <ele>331.248114</ele>
        <time>2020-09-10T09:14:50.879Z</time>
      </trkpt>
      <trkpt lat="48.715282" lon="16.528526">
        <ele>330.632260</ele>
        <time>2020-09-10T09:14:52.870Z</time>
      </trkpt>
      <trkpt lat="48.715308" lon="16.528334">
        <ele>330.023737</ele>
        <time>2020-09-10T09:14:54.842Z</time>
      </trkpt>
      <trkpt lat="48.715341" lon="16.528150">
        <ele>329.431750</ele>
        <time>2020-09-10T09:14:56.864Z</time>
      </trkpt>
      <trkpt lat="48.715380" lon="16.527972">
        <ele>328.748020</ele>
        <time>2020-09-10T09:14:58.868Z</time>
      </trkpt>
      <trkpt lat="48.715406" lon="16.527797">
        <ele>328.048021</ele>
        <time>2020-09-10T09:15:00.858Z</time>
      </trkpt>
      <trkpt lat="48.715406" lon="16.527624">
        <ele>327.372926</ele>
        <time>2020-09-10T09:15:02.853Z</time>
      </trkpt>
      <trkpt lat="48.715389" lon="16.527449">
        <ele>326.682664</ele>
        <time>2020-09-10T09:15:04.850Z</time>
      </trkpt>
      <trkpt lat="48.715365" lon="16.527279">
        <ele>326.004259</ele>
        <time>2020-09-10T09:15:06.863Z</time>
      </trkpt>
      <trkpt lat="48.715341" lon="16.527126">
        <ele>325.390568</ele>
        <time>2020-09-10T09:15:08.877Z</time>
      </trkpt>
      <trkpt lat="48.715277" lon="16.526973">
        <ele>324.683641</ele>
        <time>2020-09-10T09:15:11.850Z</time>
      </trkpt>
      <trkpt lat="48.715149" lon="16.526976">
        <ele>323.926514</ele>
        <time>2020-09-10T09:15:14.849Z</time>
      </trkpt>
      <trkpt lat="48.715036" lon="16.527039">
        <ele>323.214409</ele>
        <time>2020-09-10T09:15:17.905Z</time>
      </trkpt>
      <trkpt lat="48.714944" lon="16.527090">
        <ele>322.635034</ele>
        <time>2020-09-10T09:15:19.847Z</time>
      </trkpt>
      <trkpt lat="48.714776" lon="16.527266">
        <ele>321.427156</ele>
        <time>2020-09-10T09:16:04.853Z</time>
      </trkpt>
      <trkpt lat="48.714678" lon="16.527330">
        <ele>320.796032</ele>
        <time>2020-09-10T09:16:07.876Z</time>
      </trkpt>
      <trkpt lat="48.714562" lon="16.527397">
        <ele>320.061836</ele>
        <time>2020-09-10T09:16:10.856Z</time>
      </trkpt>
      <trkpt lat="48.714478" lon="16.527448">
        <ele>319.526649</ele>
        <time>2020-09-10T09:16:12.847Z</time>
      </trkpt>
      <trkpt lat="48.714359" lon="16.527519">
        <ele>318.770269</ele>
        <time>2020-09-10T09:16:15.854Z</time>
      </trkpt>
      <trkpt lat="48.714232" lon="16.527580">
        <ele>318.387556</ele>
        <time>2020-09-10T09:16:18.885Z</time>
      </trkpt>
      <trkpt lat="48.714146" lon="16.527630">
        <ele>318.196502</ele>
        <time>2020-09-10T09:16:20.858Z</time>
      </trkpt>
      <trkpt lat="48.714057" lon="16.527691">
        <ele>317.993901</ele>
        <time>2020-09-10T09:16:22.906Z</time>
      </trkpt>
      <trkpt lat="48.713973" lon="16.527756">
        <ele>317.798273</ele>
        <time>2020-09-10T09:16:24.862Z</time>
      </trkpt>
      <trkpt lat="48.713885" lon="16.527820">
        <ele>317.595818</ele>
        <time>2020-09-10T09:16:26.862Z</time>
      </trkpt>
      <trkpt lat="48.713799" lon="16.527880">
        <ele>317.399445</ele>
        <time>2020-09-10T09:16:28.858Z</time>
      </trkpt>
      <trkpt lat="48.713704" lon="16.527936">
        <ele>317.188018</ele>
        <time>2020-09-10T09:16:30.856Z</time>
      </trkpt>
      <trkpt lat="48.713610" lon="16.528002">
        <ele>316.973138</ele>
        <time>2020-09-10T09:16:32.854Z</time>
      </trkpt>
      <trkpt lat="48.713516" lon="16.528062">
        <ele>316.761579</ele>
        <time>2020-09-10T09:16:34.864Z</time>
      </trkpt>
      <trkpt lat="48.713420" lon="16.528109">
        <ele>316.552326</ele>
        <time>2020-09-10T09:16:36.868Z</time>
      </trkpt>
      <trkpt lat="48.713324" lon="16.528143">
        <ele>316.347840</ele>
        <time>2020-09-10T09:16:38.866Z</time>
      </trkpt>
      <trkpt lat="48.713218" lon="16.528161">
        <ele>316.126601</ele>
        <time>2020-09-10T09:16:40.854Z</time>
      </trkpt>
      <trkpt lat="48.713108" lon="16.528189">
        <ele>315.895245</ele>
        <time>2020-09-10T09:16:42.875Z</time>
      </trkpt>
      <trkpt lat="48.712998" lon="16.528227">
        <ele>315.661233</ele>
        <time>2020-09-10T09:16:44.867Z</time>
      </trkpt>
      <trkpt lat="48.712889" lon="16.528254">
        <ele>315.432147</ele>
        <time>2020-09-10T09:16:46.859Z</time>
      </trkpt>
      <trkpt lat="48.712785" lon="16.528285">
        <ele>315.212300</ele>
        <time>2020-09-10T09:16:48.890Z</time>
      </trkpt>
      <trkpt lat="48.712687" lon="16.528307">
        <ele>315.006812</ele>
        <time>2020-09-10T09:16:50.867Z</time>
      </trkpt>
      <trkpt lat="48.712597" lon="16.528332">
        <ele>314.869683</ele>
        <time>2020-09-10T09:16:52.876Z</time>
      </trkpt>
      <trkpt lat="48.712469" lon="16.528368">
        <ele>314.841907</ele>
        <time>2020-09-10T09:16:55.863Z</time>
      </trkpt>
      <trkpt lat="48.712355" lon="16.528397">
        <ele>314.817243</ele>
        <time>2020-09-10T09:16:58.847Z</time>
      </trkpt>
      <trkpt lat="48.712236" lon="16.528406">
        <ele>314.791821</ele>
        <time>2020-09-10T09:17:01.864Z</time>
      </trkpt>
      <trkpt lat="48.712143" lon="16.528412">
        <ele>314.771960</ele>
        <time>2020-09-10T09:17:04.852Z</time>
      </trkpt>
      <trkpt lat="48.712054" lon="16.528436">
        <ele>314.752673</ele>
        <time>2020-09-10T09:17:08.859Z</time>
      </trkpt>
      <trkpt lat="48.711956" lon="16.528475">
        <ele>314.731054</ele>
        <time>2020-09-10T09:17:12.879Z</time>
      </trkpt>
      <trkpt lat="48.711848" lon="16.528495">
        <ele>314.707840</ele>
        <time>2020-09-10T09:17:16.882Z</time>
      </trkpt>
      <trkpt lat="48.711751" lon="16.528511">
        <ele>314.687021</ele>
        <time>2020-09-10T09:17:20.873Z</time>
      </trkpt>
      <trkpt lat="48.711658" lon="16.528526">
        <ele>314.667066</ele>
        <time>2020-09-10T09:17:24.855Z</time>
      </trkpt>
      <trkpt lat="48.711562" lon="16.528543">
        <ele>314.646444</ele>
        <time>2020-09-10T09:17:28.875Z</time>
      </trkpt>
      <trkpt lat="48.711465" lon="16.528564">
        <ele>314.625538</ele>
        <time>2020-09-10T09:17:32.868Z</time>
      </trkpt>
      <trkpt lat="48.711363" lon="16.528599">
        <ele>314.603224</ele>
        <time>2020-09-10T09:17:36.863Z</time>
      </trkpt>
      <trkpt lat="48.711261" lon="16.528641">
        <ele>314.580672</ele>
        <time>2020-09-10T09:17:40.855Z</time>
      </trkpt>
      <trkpt lat="48.711152" lon="16.528669">
        <ele>314.557083</ele>
        <time>2020-09-10T09:17:44.876Z</time>
      </trkpt>
      <trkpt lat="48.711040" lon="16.528692">
        <ele>314.532968</ele>
        <time>2020-09-10T09:17:48.901Z</time>
      </trkpt>
      <trkpt lat="48.710948" lon="16.528714">
        <ele>314.513096</ele>
        <time>2020-09-10T09:17:51.855Z</time>
      </trkpt>
      <trkpt lat="48.710861" lon="16.528747">
        <ele>314.493961</ele>
        <time>2020-09-10T09:17:54.858Z</time>
      </trkpt>
      <trkpt lat="48.710773" lon="16.528785">
        <ele>314.453212</ele>
        <time>2020-09-10T09:17:57.854Z</time>
      </trkpt>
      <trkpt lat="48.710676" lon="16.528807">
        <ele>314.406931</ele>
        <time>2020-09-10T09:18:00.854Z</time>
      </trkpt>
      <trkpt lat="48.710571" lon="16.528828">
        <ele>314.356956</ele>
        <time>2020-09-10T09:18:03.862Z</time>
      </trkpt>
      <trkpt lat="48.710459" lon="16.528861">
        <ele>314.303117</ele>
        <time>2020-09-10T09:18:06.880Z</time>
      </trkpt>
      <trkpt lat="48.710328" lon="16.528897">
        <ele>314.240295</ele>
        <time>2020-09-10T09:18:09.878Z</time>
      </trkpt>
      <trkpt lat="48.710232" lon="16.528927">
        <ele>314.194042</ele>
        <time>2020-09-10T09:18:11.850Z</time>
      </trkpt>
      <trkpt lat="48.710129" lon="16.528960">
        <ele>314.144366</ele>
        <time>2020-09-10T09:18:13.885Z</time>
      </trkpt>
      <trkpt lat="48.710015" lon="16.528987">
        <ele>314.089920</ele>
        <time>2020-09-10T09:18:15.869Z</time>
      </trkpt>
      <trkpt lat="48.709900" lon="16.529016">
        <ele>314.034909</ele>
        <time>2020-09-10T09:18:17.883Z</time>
      </trkpt>
      <trkpt lat="48.709778" lon="16.529043">
        <ele>313.976731</ele>
        <time>2020-09-10T09:18:19.864Z</time>
      </trkpt>
      <trkpt lat="48.709652" lon="16.529073">
        <ele>313.916547</ele>
        <time>2020-09-10T09:18:21.856Z</time>
      </trkpt>
      <trkpt lat="48.709521" lon="16.529103">
        <ele>313.854030</ele>
        <time>2020-09-10T09:18:23.847Z</time>
      </trkpt>
      <trkpt lat="48.709383" lon="16.529161">
        <ele>313.786455</ele>
        <time>2020-09-10T09:18:25.862Z</time>
      </trkpt>
      <trkpt lat="48.709240" lon="16.529213">
        <ele>313.717063</ele>
        <time>2020-09-10T09:18:27.857Z</time>
      </trkpt>
      <trkpt lat="48.709095" lon="16.529249">
        <ele>313.647730</ele>
        <time>2020-09-10T09:18:29.848Z</time>
      </trkpt>
      <trkpt lat="48.708942" lon="16.529288">
        <ele>313.523703</ele>
        <time>2020-09-10T09:18:31.853Z</time>
      </trkpt>
      <trkpt lat="48.708785" lon="16.529331">
        <ele>313.392747</ele>
        <time>2020-09-10T09:18:33.858Z</time>
      </trkpt>
      <trkpt lat="48.708627" lon="16.529376">
        <ele>313.260787</ele>
        <time>2020-09-10T09:18:35.854Z</time>
      </trkpt>
      <trkpt lat="48.708469" lon="16.529419">
        <ele>313.129023</ele>
        <time>2020-09-10T09:18:37.878Z</time>
      </trkpt>
      <trkpt lat="48.708318" lon="16.529462">
        <ele>313.002911</ele>
        <time>2020-09-10T09:18:39.869Z</time>
      </trkpt>
      <trkpt lat="48.708187" lon="16.529470">
        <ele>312.895296</ele>
        <time>2020-09-10T09:18:41.890Z</time>
      </trkpt>
      <trkpt lat="48.708100" lon="16.529376">
        <ele>312.807593</ele>
        <time>2020-09-10T09:18:43.850Z</time>
      </trkpt>
      <trkpt lat="48.708059" lon="16.529207">
        <ele>312.710063</ele>
        <time>2020-09-10T09:18:45.854Z</time>
      </trkpt>
      <trkpt lat="48.708049" lon="16.529013">
        <ele>312.604662</ele>
        <time>2020-09-10T09:18:47.866Z</time>
      </trkpt>
      <trkpt lat="48.708035" lon="16.528810">
        <ele>312.494108</ele>
        <time>2020-09-10T09:18:49.856Z</time>
      </trkpt>
      <trkpt lat="48.708012" lon="16.528607">
        <ele>312.382543</ele>
        <time>2020-09-10T09:18:51.866Z</time>
      </trkpt>
      <trkpt lat="48.707980" lon="16.528403">
        <ele>312.268967</ele>
        <time>2020-09-10T09:18:53.872Z</time>
      </trkpt>
      <trkpt lat="48.707952" lon="16.528198">
        <ele>312.153341</ele>
        <time>2020-09-10T09:18:55.846Z</time>
      </trkpt>
      <trkpt lat="48.707925" lon="16.527995">
        <ele>312.019025</ele>
        <time>2020-09-10T09:18:57.902Z</time>
      </trkpt>
      <trkpt lat="48.707906" lon="16.527794">
        <ele>311.887323</ele>
        <time>2020-09-10T09:18:59.873Z</time>
      </trkpt>
      <trkpt lat="48.707885" lon="16.527600">
        <ele>311.759810</ele>
        <time>2020-09-10T09:19:01.864Z</time>
      </trkpt>
      <trkpt lat="48.707864" lon="16.527412">
        <ele>311.636136</ele>
        <time>2020-09-10T09:19:03.868Z</time>
      </trkpt>
      <trkpt lat="48.707841" lon="16.527224">
        <ele>311.512119</ele>
        <time>2020-09-10T09:19:05.886Z</time>
      </trkpt>
      <trkpt lat="48.707812" lon="16.527043">
        <ele>311.391309</ele>
        <time>2020-09-10T09:19:07.854Z</time>
      </trkpt>
      <trkpt lat="48.707793" lon="16.526864">
        <ele>311.273715</ele>
        <time>2020-09-10T09:19:09.861Z</time>
      </trkpt>
      <trkpt lat="48.707774" lon="16.526684">
        <ele>311.155480</ele>
        <time>2020-09-10T09:19:11.917Z</time>
      </trkpt>
      <trkpt lat="48.707749" lon="16.526503">
        <ele>311.035536</ele>
        <time>2020-09-10T09:19:13.885Z</time>
      </trkpt>
      <trkpt lat="48.707723" lon="16.526317">
        <ele>310.912217</ele>
        <time>2020-09-10T09:19:15.864Z</time>
      </trkpt>
      <trkpt lat="48.707698" lon="16.526124">
        <ele>310.784645</ele>
        <time>2020-09-10T09:19:17.868Z</time>
      </trkpt>
      <trkpt lat="48.707677" lon="16.525929">
        <ele>310.656492</ele>
        <time>2020-09-10T09:19:19.871Z</time>
      </trkpt>
      <trkpt lat="48.707658" lon="16.525738">
        <ele>310.531207</ele>
        <time>2020-09-10T09:19:21.879Z</time>
      </trkpt>
      <trkpt lat="48.707634" lon="16.525552">
        <ele>310.408279</ele>
        <time>2020-09-10T09:19:23.887Z</time>
      </trkpt>
      <trkpt lat="48.707608" lon="16.525376">
        <ele>310.317299</ele>
        <time>2020-09-10T09:19:25.860Z</time>
      </trkpt>
      <trkpt lat="48.707586" lon="16.525216">
        <ele>310.236885</ele>
        <time>2020-09-10T09:19:27.873Z</time>
      </trkpt>
      <trkpt lat="48.707565" lon="16.525057">
        <ele>310.157102</ele>
        <time>2020-09-10T09:19:29.878Z</time>
      </trkpt>
      <trkpt lat="48.707543" lon="16.524902">
        <ele>310.079095</ele>
        <time>2020-09-10T09:19:31.856Z</time>
      </trkpt>
      <trkpt lat="48.707526" lon="16.524749">
        <ele>310.002756</ele>
        <time>2020-09-10T09:19:33.860Z</time>
      </trkpt>
      <trkpt lat="48.707510" lon="16.524604">
        <ele>309.930422</ele>
        <time>2020-09-10T09:19:35.866Z</time>
      </trkpt>
      <trkpt lat="48.707489" lon="16.524459">
        <ele>309.857381</ele>
        <time>2020-09-10T09:19:37.886Z</time>
      </trkpt>
      <trkpt lat="48.707470" lon="16.524311">
        <ele>309.783196</ele>
        <time>2020-09-10T09:19:39.860Z</time>
      </trkpt>
      <trkpt lat="48.707451" lon="16.524164">
        <ele>309.709495</ele>
        <time>2020-09-10T09:19:41.872Z</time>
      </trkpt>
      <trkpt lat="48.707428" lon="16.524016">
        <ele>309.634683</ele>
        <time>2020-09-10T09:19:43.875Z</time>
      </trkpt>
      <trkpt lat="48.707410" lon="16.523866">
        <ele>309.559669</ele>
        <time>2020-09-10T09:19:45.878Z</time>
      </trkpt>
      <trkpt lat="48.707391" lon="16.523715">
        <ele>309.484035</ele>
        <time>2020-09-10T09:19:47.876Z</time>
      </trkpt>
      <trkpt lat="48.707373" lon="16.523563">
        <ele>309.408053</ele>
        <time>2020-09-10T09:19:49.861Z</time>
      </trkpt>
      <trkpt lat="48.707354" lon="16.523409">
        <ele>309.330969</ele>
        <time>2020-09-10T09:19:51.862Z</time>
      </trkpt>
      <trkpt lat="48.707331" lon="16.523255">
        <ele>309.253281</ele>
        <time>2020-09-10T09:19:53.876Z</time>
      </trkpt>
      <trkpt lat="48.707306" lon="16.523094">
        <ele>309.171901</ele>
        <time>2020-09-10T09:19:55.850Z</time>
      </trkpt>
      <trkpt lat="48.707284" lon="16.522926">
        <ele>309.087629</ele>
        <time>2020-09-10T09:19:57.859Z</time>
      </trkpt>
      <trkpt lat="48.707264" lon="16.522760">
        <ele>308.969245</ele>
        <time>2020-09-10T09:19:59.869Z</time>
      </trkpt>
      <trkpt lat="48.707244" lon="16.522592">
        <ele>308.829561</ele>
        <time>2020-09-10T09:20:01.869Z</time>
      </trkpt>
      <trkpt lat="48.707222" lon="16.522417">
        <ele>308.683793</ele>
        <time>2020-09-10T09:20:03.889Z</time>
      </trkpt>
      <trkpt lat="48.707197" lon="16.522228">
        <ele>308.526068</ele>
        <time>2020-09-10T09:20:05.872Z</time>
      </trkpt>
      <trkpt lat="48.707167" lon="16.522033">
        <ele>308.362232</ele>
        <time>2020-09-10T09:20:07.866Z</time>
      </trkpt>
      <trkpt lat="48.707145" lon="16.521828">
        <ele>308.192288</ele>
        <time>2020-09-10T09:20:09.903Z</time>
      </trkpt>
      <trkpt lat="48.707124" lon="16.521614">
        <ele>308.015258</ele>
        <time>2020-09-10T09:20:11.859Z</time>
      </trkpt>
      <trkpt lat="48.707102" lon="16.521399">
        <ele>307.837232</ele>
        <time>2020-09-10T09:20:13.863Z</time>
      </trkpt>
      <trkpt lat="48.707073" lon="16.521190">
        <ele>307.662479</ele>
        <time>2020-09-10T09:20:15.866Z</time>
      </trkpt>
      <trkpt lat="48.707047" lon="16.520975">
        <ele>307.483627</ele>
        <time>2020-09-10T09:20:17.871Z</time>
      </trkpt>
      <trkpt lat="48.707021" lon="16.520760">
        <ele>307.304774</ele>
        <time>2020-09-10T09:20:19.896Z</time>
      </trkpt>
      <trkpt lat="48.706993" lon="16.520545">
        <ele>307.125458</ele>
        <time>2020-09-10T09:20:21.861Z</time>
      </trkpt>
      <trkpt lat="48.706953" lon="16.520332">
        <ele>306.944251</ele>
        <time>2020-09-10T09:20:23.871Z</time>
      </trkpt>
      <trkpt lat="48.706922" lon="16.520123">
        <ele>306.749767</ele>
        <time>2020-09-10T09:20:25.860Z</time>
      </trkpt>
      <trkpt lat="48.706896" lon="16.519916">
        <ele>306.520994</ele>
        <time>2020-09-10T09:20:27.857Z</time>
      </trkpt>
      <trkpt lat="48.706870" lon="16.519711">
        <ele>306.294355</ele>
        <time>2020-09-10T09:20:29.898Z</time>
      </trkpt>
      <trkpt lat="48.706843" lon="16.519506">
        <ele>306.067399</ele>
        <time>2020-09-10T09:20:31.876Z</time>
      </trkpt>
      <trkpt lat="48.706816" lon="16.519302">
        <ele>305.841507</ele>
        <time>2020-09-10T09:20:33.882Z</time>
      </trkpt>
      <trkpt lat="48.706800" lon="16.519093">
        <ele>305.613076</ele>
        <time>2020-09-10T09:20:35.856Z</time>
      </trkpt>
      <trkpt lat="48.706785" lon="16.518886">
        <ele>305.386987</ele>
        <time>2020-09-10T09:20:37.859Z</time>
      </trkpt>
      <trkpt lat="48.706758" lon="16.518685">
        <ele>305.164288</ele>
        <time>2020-09-10T09:20:39.871Z</time>
      </trkpt>
      <trkpt lat="48.706729" lon="16.518486">
        <ele>304.943029</ele>
        <time>2020-09-10T09:20:41.860Z</time>
      </trkpt>
      <trkpt lat="48.706698" lon="16.518293">
        <ele>304.727373</ele>
        <time>2020-09-10T09:20:43.895Z</time>
      </trkpt>
      <trkpt lat="48.706671" lon="16.518099">
        <ele>304.512115</ele>
        <time>2020-09-10T09:20:45.891Z</time>
      </trkpt>
      <trkpt lat="48.706647" lon="16.517907">
        <ele>304.299955</ele>
        <time>2020-09-10T09:20:47.896Z</time>
      </trkpt>
      <trkpt lat="48.706627" lon="16.517717">
        <ele>304.091065</ele>
        <time>2020-09-10T09:20:49.861Z</time>
      </trkpt>
      <trkpt lat="48.706602" lon="16.517531">
        <ele>303.884980</ele>
        <time>2020-09-10T09:20:51.862Z</time>
      </trkpt>
      <trkpt lat="48.706574" lon="16.517348">
        <ele>303.739377</ele>
        <time>2020-09-10T09:20:53.845Z</time>
      </trkpt>
      <trkpt lat="48.706548" lon="16.517165">
        <ele>303.599369</ele>
        <time>2020-09-10T09:20:55.857Z</time>
      </trkpt>
      <trkpt lat="48.706520" lon="16.516982">
        <ele>303.458866</ele>
        <time>2020-09-10T09:20:57.864Z</time>
      </trkpt>
      <trkpt lat="48.706496" lon="16.516798">
        <ele>303.318584</ele>
        <time>2020-09-10T09:20:59.862Z</time>
      </trkpt>
      <trkpt lat="48.706475" lon="16.516619">
        <ele>303.182604</ele>
        <time>2020-09-10T09:21:01.873Z</time>
      </trkpt>
      <trkpt lat="48.706454" lon="16.516443">
        <ele>303.048833</ele>
        <time>2020-09-10T09:21:03.847Z</time>
      </trkpt>
      <trkpt lat="48.706433" lon="16.516274">
        <ele>302.920210</ele>
        <time>2020-09-10T09:21:05.876Z</time>
      </trkpt>
      <trkpt lat="48.706404" lon="16.516120">
        <ele>302.800430</ele>
        <time>2020-09-10T09:21:07.858Z</time>
      </trkpt>
      <trkpt lat="48.706272" lon="16.516080">
        <ele>302.647862</ele>
        <time>2020-09-10T09:21:10.854Z</time>
      </trkpt>
      <trkpt lat="48.706178" lon="16.516200">
        <ele>302.508557</ele>
        <time>2020-09-10T09:21:12.855Z</time>
      </trkpt>
      <trkpt lat="48.706096" lon="16.516339">
        <ele>302.369109</ele>
        <time>2020-09-10T09:21:14.851Z</time>
      </trkpt>
      <trkpt lat="48.706011" lon="16.516473">
        <ele>302.230091</ele>
        <time>2020-09-10T09:21:16.870Z</time>
      </trkpt>
      <trkpt lat="48.705932" lon="16.516601">
        <ele>302.099010</ele>
        <time>2020-09-10T09:21:18.852Z</time>
      </trkpt>
      <trkpt lat="48.705859" lon="16.516730">
        <ele>301.971909</ele>
        <time>2020-09-10T09:21:20.851Z</time>
      </trkpt>
      <trkpt lat="48.705790" lon="16.516862">
        <ele>301.845960</ele>
        <time>2020-09-10T09:21:22.859Z</time>
      </trkpt>
      <trkpt lat="48.705728" lon="16.516993">
        <ele>301.821293</ele>
        <time>2020-09-10T09:21:24.881Z</time>
      </trkpt>
      <trkpt lat="48.705666" lon="16.517129">
        <ele>301.810958</ele>
        <time>2020-09-10T09:21:26.858Z</time>
      </trkpt>
      <trkpt lat="48.705609" lon="16.517258">
        <ele>301.801252</ele>
        <time>2020-09-10T09:21:28.884Z</time>
      </trkpt>
      <trkpt lat="48.705554" lon="16.517375">
        <ele>301.792270</ele>
        <time>2020-09-10T09:21:30.868Z</time>
      </trkpt>
      <trkpt lat="48.705501" lon="16.517489">
        <ele>301.783552</ele>
        <time>2020-09-10T09:21:32.868Z</time>
      </trkpt>
      <trkpt lat="48.705428" lon="16.517651">
        <ele>301.771287</ele>
        <time>2020-09-10T09:21:35.867Z</time>
      </trkpt>
      <trkpt lat="48.705357" lon="16.517807">
        <ele>301.759438</ele>
        <time>2020-09-10T09:21:38.897Z</time>
      </trkpt>
      <trkpt lat="48.705294" lon="16.517956">
        <ele>301.748374</ele>
        <time>2020-09-10T09:21:41.873Z</time>
      </trkpt>
      <trkpt lat="48.705227" lon="16.518100">
        <ele>301.737358</ele>
        <time>2020-09-10T09:21:44.869Z</time>
      </trkpt>
      <trkpt lat="48.705160" lon="16.518247">
        <ele>301.726188</ele>
        <time>2020-09-10T09:21:47.892Z</time>
      </trkpt>
      <trkpt lat="48.705089" lon="16.518390">
        <ele>301.714999</ele>
        <time>2020-09-10T09:21:50.877Z</time>
      </trkpt>
      <trkpt lat="48.705015" lon="16.518538">
        <ele>301.703389</ele>
        <time>2020-09-10T09:21:53.853Z</time>
      </trkpt>
      <trkpt lat="48.704940" lon="16.518689">
        <ele>301.691573</ele>
        <time>2020-09-10T09:21:56.889Z</time>
      </trkpt>
      <trkpt lat="48.704863" lon="16.518842">
        <ele>301.679542</ele>
        <time>2020-09-10T09:21:59.856Z</time>
      </trkpt>
      <trkpt lat="48.704775" lon="16.518989">
        <ele>301.667133</ele>
        <time>2020-09-10T09:22:02.875Z</time>
      </trkpt>
      <trkpt lat="48.704718" lon="16.519094">
        <ele>301.659107</ele>
        <time>2020-09-10T09:22:04.872Z</time>
      </trkpt>
      <trkpt lat="48.704635" lon="16.519247">
        <ele>301.652600</ele>
        <time>2020-09-10T09:22:07.848Z</time>
      </trkpt>
      <trkpt lat="48.704581" lon="16.519357">
        <ele>301.648095</ele>
        <time>2020-09-10T09:22:09.844Z</time>
      </trkpt>
      <trkpt lat="48.704520" lon="16.519458">
        <ele>301.643597</ele>
        <time>2020-09-10T09:22:11.856Z</time>
      </trkpt>
      <trkpt lat="48.704463" lon="16.519564">
        <ele>301.639104</ele>
        <time>2020-09-10T09:22:13.859Z</time>
      </trkpt>
      <trkpt lat="48.704407" lon="16.519672">
        <ele>301.634592</ele>
        <time>2020-09-10T09:22:15.848Z</time>
      </trkpt>
      <trkpt lat="48.704355" lon="16.519785">
        <ele>301.630066</ele>
        <time>2020-09-10T09:22:17.857Z</time>
      </trkpt>
      <trkpt lat="48.704300" lon="16.519900">
        <ele>301.625399</ele>
        <time>2020-09-10T09:22:19.856Z</time>
      </trkpt>
      <trkpt lat="48.704244" lon="16.520010">
        <ele>301.620835</ele>
        <time>2020-09-10T09:22:21.879Z</time>
      </trkpt>
      <trkpt lat="48.704157" lon="16.520168">
        <ele>301.614074</ele>
        <time>2020-09-10T09:22:24.858Z</time>
      </trkpt>
      <trkpt lat="48.704093" lon="16.520287">
        <ele>301.609030</ele>
        <time>2020-09-10T09:22:26.859Z</time>
      </trkpt>
      <trkpt lat="48.704029" lon="16.520417">
        <ele>301.603701</ele>
        <time>2020-09-10T09:22:28.864Z</time>
      </trkpt>
      <trkpt lat="48.703959" lon="16.520555">
        <ele>301.597983</ele>
        <time>2020-09-10T09:22:30.879Z</time>
      </trkpt>
      <trkpt lat="48.703883" lon="16.520691">
        <ele>301.592127</ele>
        <time>2020-09-10T09:22:32.860Z</time>
      </trkpt>
      <trkpt lat="48.703805" lon="16.520832">
        <ele>301.586082</ele>
        <time>2020-09-10T09:22:34.867Z</time>
      </trkpt>
      <trkpt lat="48.703725" lon="16.520979">
        <ele>301.579822</ele>
        <time>2020-09-10T09:22:36.871Z</time>
      </trkpt>
      <trkpt lat="48.703638" lon="16.521129">
        <ele>301.573261</ele>
        <time>2020-09-10T09:22:38.863Z</time>
      </trkpt>
      <trkpt lat="48.703549" lon="16.521284">
        <ele>301.552982</ele>
        <time>2020-09-10T09:22:40.870Z</time>
      </trkpt>
      <trkpt lat="48.703456" lon="16.521441">
        <ele>301.519825</ele>
        <time>2020-09-10T09:22:42.865Z</time>
      </trkpt>
      <trkpt lat="48.703353" lon="16.521588">
        <ele>301.486127</ele>
        <time>2020-09-10T09:22:44.856Z</time>
      </trkpt>
      <trkpt lat="48.703237" lon="16.521721">
        <ele>301.451484</ele>
        <time>2020-09-10T09:22:46.873Z</time>
      </trkpt>
      <trkpt lat="48.703116" lon="16.521854">
        <ele>301.415884</ele>
        <time>2020-09-10T09:22:48.865Z</time>
      </trkpt>
      <trkpt lat="48.702987" lon="16.521979">
        <ele>301.379417</ele>
        <time>2020-09-10T09:22:50.864Z</time>
      </trkpt>
      <trkpt lat="48.702863" lon="16.522109">
        <ele>301.343506</ele>
        <time>2020-09-10T09:22:52.888Z</time>
      </trkpt>
      <trkpt lat="48.702741" lon="16.522237">
        <ele>301.308166</ele>
        <time>2020-09-10T09:22:54.875Z</time>
      </trkpt>
      <trkpt lat="48.702632" lon="16.522373">
        <ele>301.274539</ele>
        <time>2020-09-10T09:22:56.857Z</time>
      </trkpt>
      <trkpt lat="48.702527" lon="16.522507">
        <ele>301.241845</ele>
        <time>2020-09-10T09:22:58.858Z</time>
      </trkpt>
      <trkpt lat="48.702430" lon="16.522638">
        <ele>301.210900</ele>
        <time>2020-09-10T09:23:00.884Z</time>
      </trkpt>
      <trkpt lat="48.702340" lon="16.522767">
        <ele>301.181396</ele>
        <time>2020-09-10T09:23:02.884Z</time>
      </trkpt>
      <trkpt lat="48.702257" lon="16.522893">
        <ele>301.153415</ele>
        <time>2020-09-10T09:23:04.853Z</time>
      </trkpt>
      <trkpt lat="48.702176" lon="16.523011">
        <ele>301.120505</ele>
        <time>2020-09-10T09:23:06.872Z</time>
      </trkpt>
      <trkpt lat="48.702103" lon="16.523115">
        <ele>301.086907</ele>
        <time>2020-09-10T09:23:08.851Z</time>
      </trkpt>
      <trkpt lat="48.702017" lon="16.523256">
        <ele>301.044421</ele>
        <time>2020-09-10T09:23:11.861Z</time>
      </trkpt>
      <trkpt lat="48.701938" lon="16.523372">
        <ele>301.007534</ele>
        <time>2020-09-10T09:23:14.878Z</time>
      </trkpt>
      <trkpt lat="48.701865" lon="16.523482">
        <ele>300.973014</ele>
        <time>2020-09-10T09:23:17.874Z</time>
      </trkpt>
      <trkpt lat="48.701790" lon="16.523585">
        <ele>300.939073</ele>
        <time>2020-09-10T09:23:21.889Z</time>
      </trkpt>
      <trkpt lat="48.701680" lon="16.523731">
        <ele>300.890040</ele>
        <time>2020-09-10T09:24:00.863Z</time>
      </trkpt>
      <trkpt lat="48.701612" lon="16.523820">
        <ele>300.859911</ele>
        <time>2020-09-10T09:24:03.882Z</time>
      </trkpt>
      <trkpt lat="48.701538" lon="16.523921">
        <ele>300.826516</ele>
        <time>2020-09-10T09:24:06.839Z</time>
      </trkpt>
      <trkpt lat="48.701453" lon="16.524047">
        <ele>300.786644</ele>
        <time>2020-09-10T09:24:09.852Z</time>
      </trkpt>
      <trkpt lat="48.701360" lon="16.524171">
        <ele>300.745106</ele>
        <time>2020-09-10T09:24:12.860Z</time>
      </trkpt>
      <trkpt lat="48.701260" lon="16.524317">
        <ele>300.698543</ele>
        <time>2020-09-10T09:24:15.869Z</time>
      </trkpt>
      <trkpt lat="48.701189" lon="16.524421">
        <ele>300.665430</ele>
        <time>2020-09-10T09:24:17.848Z</time>
      </trkpt>
      <trkpt lat="48.701116" lon="16.524526">
        <ele>300.631680</ele>
        <time>2020-09-10T09:24:19.880Z</time>
      </trkpt>
      <trkpt lat="48.701041" lon="16.524633">
        <ele>300.597139</ele>
        <time>2020-09-10T09:24:21.873Z</time>
      </trkpt>
      <trkpt lat="48.700957" lon="16.524746">
        <ele>300.559474</ele>
        <time>2020-09-10T09:24:23.887Z</time>
      </trkpt>
      <trkpt lat="48.700866" lon="16.524867">
        <ele>300.544964</ele>
        <time>2020-09-10T09:24:25.884Z</time>
      </trkpt>
      <trkpt lat="48.700766" lon="16.524993">
        <ele>300.558924</ele>
        <time>2020-09-10T09:24:27.880Z</time>
      </trkpt>
      <trkpt lat="48.700663" lon="16.525121">
        <ele>300.573222</ele>
        <time>2020-09-10T09:24:29.859Z</time>
      </trkpt>
      <trkpt lat="48.700559" lon="16.525259">
        <ele>300.588061</ele>
        <time>2020-09-10T09:24:31.868Z</time>
      </trkpt>
      <trkpt lat="48.700475" lon="16.525419">
        <ele>300.602544</ele>
        <time>2020-09-10T09:24:33.859Z</time>
      </trkpt>
      <trkpt lat="48.700410" lon="16.525592">
        <ele>300.616646</ele>
        <time>2020-09-10T09:24:35.871Z</time>
      </trkpt>
      <trkpt lat="48.700366" lon="16.525773">
        <ele>300.630310</ele>
        <time>2020-09-10T09:24:37.877Z</time>
      </trkpt>
      <trkpt lat="48.700332" lon="16.525947">
        <ele>300.643165</ele>
        <time>2020-09-10T09:24:39.859Z</time>
      </trkpt>
      <trkpt lat="48.700305" lon="16.526114">
        <ele>300.655345</ele>
        <time>2020-09-10T09:24:41.853Z</time>
      </trkpt>
      <trkpt lat="48.700281" lon="16.526274">
        <ele>300.666968</ele>
        <time>2020-09-10T09:24:43.865Z</time>
      </trkpt>
      <trkpt lat="48.700258" lon="16.526424">
        <ele>300.677877</ele>
        <time>2020-09-10T09:24:45.856Z</time>
      </trkpt>
      <trkpt lat="48.700237" lon="16.526570">
        <ele>300.688463</ele>
        <time>2020-09-10T09:24:47.854Z</time>
      </trkpt>
      <trkpt lat="48.700205" lon="16.526762">
        <ele>300.702491</ele>
        <time>2020-09-10T09:24:50.886Z</time>
      </trkpt>
      <trkpt lat="48.700178" lon="16.526934">
        <ele>300.715016</ele>
        <time>2020-09-10T09:24:53.861Z</time>
      </trkpt>
      <trkpt lat="48.700155" lon="16.527085">
        <ele>300.725994</ele>
        <time>2020-09-10T09:24:56.865Z</time>
      </trkpt>
      <trkpt lat="48.700131" lon="16.527251">
        <ele>300.783669</ele>
        <time>2020-09-10T09:25:00.882Z</time>
      </trkpt>
      <trkpt lat="48.700107" lon="16.527408">
        <ele>300.877293</ele>
        <time>2020-09-10T09:25:04.867Z</time>
      </trkpt>
      <trkpt lat="48.700084" lon="16.527555">
        <ele>300.965060</ele>
        <time>2020-09-10T09:25:08.860Z</time>
      </trkpt>
      <trkpt lat="48.700063" lon="16.527701">
        <ele>301.051870</ele>
        <time>2020-09-10T09:25:12.882Z</time>
      </trkpt>
      <trkpt lat="48.700042" lon="16.527842">
        <ele>301.135844</ele>
        <time>2020-09-10T09:25:16.862Z</time>
      </trkpt>
      <trkpt lat="48.700023" lon="16.527984">
        <ele>301.220018</ele>
        <time>2020-09-10T09:25:20.893Z</time>
      </trkpt>
      <trkpt lat="48.700004" lon="16.528142">
        <ele>301.313319</ele>
        <time>2020-09-10T09:25:24.865Z</time>
      </trkpt>
      <trkpt lat="48.699991" lon="16.528295">
        <ele>301.402939</ele>
        <time>2020-09-10T09:25:28.864Z</time>
      </trkpt>
      <trkpt lat="48.699974" lon="16.528440">
        <ele>301.488496</ele>
        <time>2020-09-10T09:25:32.858Z</time>
      </trkpt>
      <trkpt lat="48.699956" lon="16.528585">
        <ele>301.574211</ele>
        <time>2020-09-10T09:25:36.862Z</time>
      </trkpt>
      <trkpt lat="48.699931" lon="16.528740">
        <ele>301.666909</ele>
        <time>2020-09-10T09:25:40.859Z</time>
      </trkpt>
      <trkpt lat="48.699905" lon="16.528902">
        <ele>301.763766</ele>
        <time>2020-09-10T09:25:44.892Z</time>
      </trkpt>
      <trkpt lat="48.699883" lon="16.529064">
        <ele>301.859852</ele>
        <time>2020-09-10T09:25:48.874Z</time>
      </trkpt>
      <trkpt lat="48.699855" lon="16.529222">
        <ele>301.954894</ele>
        <time>2020-09-10T09:25:52.859Z</time>
      </trkpt>
      <trkpt lat="48.699826" lon="16.529382">
        <ele>302.051288</ele>
        <time>2020-09-10T09:25:56.857Z</time>
      </trkpt>
      <trkpt lat="48.699804" lon="16.529538">
        <ele>302.143963</ele>
        <time>2020-09-10T09:26:00.854Z</time>
      </trkpt>
      <trkpt lat="48.699781" lon="16.529694">
        <ele>302.236826</ele>
        <time>2020-09-10T09:26:04.855Z</time>
      </trkpt>
      <trkpt lat="48.699747" lon="16.529854">
        <ele>302.332136</ele>
        <time>2020-09-10T09:26:08.865Z</time>
      </trkpt>
      <trkpt lat="48.699717" lon="16.530027">
        <ele>302.423611</ele>
        <time>2020-09-10T09:26:12.889Z</time>
      </trkpt>
      <trkpt lat="48.699678" lon="16.530189">
        <ele>302.511798</ele>
        <time>2020-09-10T09:26:15.875Z</time>
      </trkpt>
      <trkpt lat="48.699643" lon="16.530315">
        <ele>302.581709</ele>
        <time>2020-09-10T09:26:17.856Z</time>
      </trkpt>
      <trkpt lat="48.699605" lon="16.530450">
        <ele>302.656765</ele>
        <time>2020-09-10T09:26:19.881Z</time>
      </trkpt>
      <trkpt lat="48.699562" lon="16.530592">
        <ele>302.736663</ele>
        <time>2020-09-10T09:26:21.854Z</time>
      </trkpt>
      <trkpt lat="48.699509" lon="16.530741">
        <ele>302.823224</ele>
        <time>2020-09-10T09:26:23.855Z</time>
      </trkpt>
      <trkpt lat="48.699452" lon="16.530891">
        <ele>302.911740</ele>
        <time>2020-09-10T09:26:25.866Z</time>
      </trkpt>
      <trkpt lat="48.699393" lon="16.531040">
        <ele>303.000601</ele>
        <time>2020-09-10T09:26:27.852Z</time>
      </trkpt>
      <trkpt lat="48.699336" lon="16.531192">
        <ele>303.090006</ele>
        <time>2020-09-10T09:26:29.840Z</time>
      </trkpt>
      <trkpt lat="48.699279" lon="16.531339">
        <ele>303.177196</ele>
        <time>2020-09-10T09:26:31.843Z</time>
      </trkpt>
      <trkpt lat="48.699224" lon="16.531483">
        <ele>303.262281</ele>
        <time>2020-09-10T09:26:33.862Z</time>
      </trkpt>
      <trkpt lat="48.699171" lon="16.531624">
        <ele>303.345264</ele>
        <time>2020-09-10T09:26:35.881Z</time>
      </trkpt>
      <trkpt lat="48.699121" lon="16.531755">
        <ele>303.422654</ele>
        <time>2020-09-10T09:26:37.877Z</time>
      </trkpt>
      <trkpt lat="48.699073" lon="16.531881">
        <ele>303.497055</ele>
        <time>2020-09-10T09:26:39.886Z</time>
      </trkpt>
      <trkpt lat="48.699027" lon="16.532000">
        <ele>303.567582</ele>
        <time>2020-09-10T09:26:41.867Z</time>
      </trkpt>
      <trkpt lat="48.698960" lon="16.532171">
        <ele>303.669281</ele>
        <time>2020-09-10T09:26:44.885Z</time>
      </trkpt>
      <trkpt lat="48.698896" lon="16.532330">
        <ele>303.728843</ele>
        <time>2020-09-10T09:26:47.852Z</time>
      </trkpt>
      <trkpt lat="48.698834" lon="16.532482">
        <ele>303.761937</ele>
        <time>2020-09-10T09:26:50.884Z</time>
      </trkpt>
      <trkpt lat="48.698777" lon="16.532628">
        <ele>303.793353</ele>
        <time>2020-09-10T09:26:53.862Z</time>
      </trkpt>
      <trkpt lat="48.698722" lon="16.532767">
        <ele>303.823369</ele>
        <time>2020-09-10T09:26:56.890Z</time>
      </trkpt>
      <trkpt lat="48.698669" lon="16.532904">
        <ele>303.852780</ele>
        <time>2020-09-10T09:26:59.883Z</time>
      </trkpt>
      <trkpt lat="48.698619" lon="16.533034">
        <ele>303.880646</ele>
        <time>2020-09-10T09:27:02.862Z</time>
      </trkpt>
      <trkpt lat="48.698560" lon="16.533156">
        <ele>303.908658</ele>
        <time>2020-09-10T09:27:05.890Z</time>
      </trkpt>
      <trkpt lat="48.698503" lon="16.533283">
        <ele>303.937102</ele>
        <time>2020-09-10T09:27:08.853Z</time>
      </trkpt>
      <trkpt lat="48.698443" lon="16.533415">
        <ele>303.966787</ele>
        <time>2020-09-10T09:27:11.880Z</time>
      </trkpt>
      <trkpt lat="48.698387" lon="16.533536">
        <ele>303.994157</ele>
        <time>2020-09-10T09:27:14.884Z</time>
      </trkpt>
      <trkpt lat="48.698324" lon="16.533672">
        <ele>304.024930</ele>
        <time>2020-09-10T09:27:18.867Z</time>
      </trkpt>
      <trkpt lat="48.698262" lon="16.533809">
        <ele>304.055696</ele>
        <time>2020-09-10T09:27:22.862Z</time>
      </trkpt>
      <trkpt lat="48.698212" lon="16.533930">
        <ele>304.082136</ele>
        <time>2020-09-10T09:27:25.872Z</time>
      </trkpt>
      <trkpt lat="48.698165" lon="16.534054">
        <ele>304.108619</ele>
        <time>2020-09-10T09:27:28.887Z</time>
      </trkpt>
      <trkpt lat="48.698113" lon="16.534181">
        <ele>304.136299</ele>
        <time>2020-09-10T09:27:31.861Z</time>
      </trkpt>
      <trkpt lat="48.698053" lon="16.534313">
        <ele>304.165983</ele>
        <time>2020-09-10T09:27:34.889Z</time>
      </trkpt>
      <trkpt lat="48.697994" lon="16.534450">
        <ele>304.196281</ele>
        <time>2020-09-10T09:27:37.851Z</time>
      </trkpt>
      <trkpt lat="48.697935" lon="16.534597">
        <ele>304.219970</ele>
        <time>2020-09-10T09:27:40.885Z</time>
      </trkpt>
      <trkpt lat="48.697870" lon="16.534753">
        <ele>304.235322</ele>
        <time>2020-09-10T09:27:43.891Z</time>
      </trkpt>
      <trkpt lat="48.697800" lon="16.534910">
        <ele>304.251089</ele>
        <time>2020-09-10T09:27:46.889Z</time>
      </trkpt>
      <trkpt lat="48.697733" lon="16.535070">
        <ele>304.266857</ele>
        <time>2020-09-10T09:27:49.899Z</time>
      </trkpt>
      <trkpt lat="48.697666" lon="16.535223">
        <ele>304.282137</ele>
        <time>2020-09-10T09:27:52.870Z</time>
      </trkpt>
      <trkpt lat="48.697589" lon="16.535380">
        <ele>304.298414</ele>
        <time>2020-09-10T09:27:55.872Z</time>
      </trkpt>
      <trkpt lat="48.697518" lon="16.535543">
        <ele>304.314666</ele>
        <time>2020-09-10T09:27:58.905Z</time>
      </trkpt>
      <trkpt lat="48.697453" lon="16.535703">
        <ele>304.330300</ele>
        <time>2020-09-10T09:28:01.900Z</time>
      </trkpt>
      <trkpt lat="48.697381" lon="16.535862">
        <ele>304.346346</ele>
        <time>2020-09-10T09:28:04.903Z</time>
      </trkpt>
      <trkpt lat="48.697303" lon="16.536018">
        <ele>304.362633</ele>
        <time>2020-09-10T09:28:07.862Z</time>
      </trkpt>
      <trkpt lat="48.697223" lon="16.536185">
        <ele>304.379804</ele>
        <time>2020-09-10T09:28:10.906Z</time>
      </trkpt>
      <trkpt lat="48.697162" lon="16.536309">
        <ele>304.392674</ele>
        <time>2020-09-10T09:28:12.870Z</time>
      </trkpt>
      <trkpt lat="48.697090" lon="16.536450">
        <ele>304.407509</ele>
        <time>2020-09-10T09:28:14.865Z</time>
      </trkpt>
      <trkpt lat="48.697006" lon="16.536601">
        <ele>304.423943</ele>
        <time>2020-09-10T09:28:16.878Z</time>
      </trkpt>
      <trkpt lat="48.696921" lon="16.536769">
        <ele>304.443389</ele>
        <time>2020-09-10T09:28:18.854Z</time>
      </trkpt>
      <trkpt lat="48.696826" lon="16.536948">
        <ele>304.486047</ele>
        <time>2020-09-10T09:28:20.848Z</time>
      </trkpt>
      <trkpt lat="48.696725" lon="16.537137">
        <ele>304.531212</ele>
        <time>2020-09-10T09:28:22.850Z</time>
      </trkpt>
      <trkpt lat="48.696619" lon="16.537336">
        <ele>304.578705</ele>
        <time>2020-09-10T09:28:24.858Z</time>
      </trkpt>
      <trkpt lat="48.696515" lon="16.537537">
        <ele>304.626139</ele>
        <time>2020-09-10T09:28:26.883Z</time>
      </trkpt>
      <trkpt lat="48.696409" lon="16.537735">
        <ele>304.673488</ele>
        <time>2020-09-10T09:28:28.855Z</time>
      </trkpt>
      <trkpt lat="48.696308" lon="16.537921">
        <ele>304.718221</ele>
        <time>2020-09-10T09:28:30.884Z</time>
      </trkpt>
      <trkpt lat="48.696213" lon="16.538111">
        <ele>304.762490</ele>
        <time>2020-09-10T09:28:32.867Z</time>
      </trkpt>
      <trkpt lat="48.696122" lon="16.538290">
        <ele>304.804453</ele>
        <time>2020-09-10T09:28:34.863Z</time>
      </trkpt>
      <trkpt lat="48.696034" lon="16.538465">
        <ele>304.845313</ele>
        <time>2020-09-10T09:28:36.872Z</time>
      </trkpt>
      <trkpt lat="48.695946" lon="16.538629">
        <ele>304.884568</ele>
        <time>2020-09-10T09:28:38.861Z</time>
      </trkpt>
      <trkpt lat="48.695861" lon="16.538791">
        <ele>304.923004</ele>
        <time>2020-09-10T09:28:40.877Z</time>
      </trkpt>
      <trkpt lat="48.695779" lon="16.538959">
        <ele>304.966854</ele>
        <time>2020-09-10T09:28:42.863Z</time>
      </trkpt>
      <trkpt lat="48.695696" lon="16.539123">
        <ele>305.017623</ele>
        <time>2020-09-10T09:28:44.856Z</time>
      </trkpt>
      <trkpt lat="48.695616" lon="16.539286">
        <ele>305.067523</ele>
        <time>2020-09-10T09:28:46.878Z</time>
      </trkpt>
      <trkpt lat="48.695534" lon="16.539444">
        <ele>305.116899</ele>
        <time>2020-09-10T09:28:48.883Z</time>
      </trkpt>
      <trkpt lat="48.695455" lon="16.539601">
        <ele>305.165397</ele>
        <time>2020-09-10T09:28:50.861Z</time>
      </trkpt>
      <trkpt lat="48.695375" lon="16.539756">
        <ele>305.213734</ele>
        <time>2020-09-10T09:28:52.861Z</time>
      </trkpt>
      <trkpt lat="48.695296" lon="16.539906">
        <ele>305.260876</ele>
        <time>2020-09-10T09:28:54.857Z</time>
      </trkpt>
      <trkpt lat="48.695222" lon="16.540054">
        <ele>305.306488</ele>
        <time>2020-09-10T09:28:56.864Z</time>
      </trkpt>
      <trkpt lat="48.695148" lon="16.540203">
        <ele>305.352296</ele>
        <time>2020-09-10T09:28:58.864Z</time>
      </trkpt>
      <trkpt lat="48.695072" lon="16.540343">
        <ele>305.396827</ele>
        <time>2020-09-10T09:29:00.896Z</time>
      </trkpt>
      <trkpt lat="48.695005" lon="16.540481">
        <ele>305.438912</ele>
        <time>2020-09-10T09:29:02.879Z</time>
      </trkpt>
      <trkpt lat="48.694937" lon="16.540620">
        <ele>305.481416</ele>
        <time>2020-09-10T09:29:04.907Z</time>
      </trkpt>
      <trkpt lat="48.694870" lon="16.540756">
        <ele>305.523106</ele>
        <time>2020-09-10T09:29:06.884Z</time>
      </trkpt>
      <trkpt lat="48.694804" lon="16.540890">
        <ele>305.564180</ele>
        <time>2020-09-10T09:29:08.895Z</time>
      </trkpt>
      <trkpt lat="48.694744" lon="16.541023">
        <ele>305.603756</ele>
        <time>2020-09-10T09:29:10.860Z</time>
      </trkpt>
      <trkpt lat="48.694688" lon="16.541159">
        <ele>305.685530</ele>
        <time>2020-09-10T09:29:12.850Z</time>
      </trkpt>
      <trkpt lat="48.694631" lon="16.541295">
        <ele>305.786051</ele>
        <time>2020-09-10T09:29:14.882Z</time>
      </trkpt>
      <trkpt lat="48.694581" lon="16.541421">
        <ele>305.877785</ele>
        <time>2020-09-10T09:29:16.881Z</time>
      </trkpt>
      <trkpt lat="48.694513" lon="16.541595">
        <ele>306.003958</ele>
        <time>2020-09-10T09:29:19.900Z</time>
      </trkpt>
      <trkpt lat="48.694449" lon="16.541757">
        <ele>306.121763</ele>
        <time>2020-09-10T09:29:22.854Z</time>
      </trkpt>
      <trkpt lat="48.694389" lon="16.541896">
        <ele>306.225394</ele>
        <time>2020-09-10T09:29:25.865Z</time>
      </trkpt>
      <trkpt lat="48.694333" lon="16.542016">
        <ele>306.317094</ele>
        <time>2020-09-10T09:29:28.854Z</time>
      </trkpt>
      <trkpt lat="48.694271" lon="16.542162">
        <ele>306.425418</ele>
        <time>2020-09-10T09:29:32.883Z</time>
      </trkpt>
      <trkpt lat="48.694217" lon="16.542308">
        <ele>306.529845</ele>
        <time>2020-09-10T09:29:36.862Z</time>
      </trkpt>
      <trkpt lat="48.694174" lon="16.542459">
        <ele>306.632459</ele>
        <time>2020-09-10T09:29:40.870Z</time>
      </trkpt>
      <trkpt lat="48.694137" lon="16.542610">
        <ele>306.732962</ele>
        <time>2020-09-10T09:29:44.883Z</time>
      </trkpt>
      <trkpt lat="48.694100" lon="16.542763">
        <ele>306.834635</ele>
        <time>2020-09-10T09:29:48.863Z</time>
      </trkpt>
      <trkpt lat="48.694063" lon="16.542919">
        <ele>306.938068</ele>
        <time>2020-09-10T09:29:52.872Z</time>
      </trkpt>
      <trkpt lat="48.694026" lon="16.543090">
        <ele>307.050355</ele>
        <time>2020-09-10T09:29:56.860Z</time>
      </trkpt>
      <trkpt lat="48.693990" lon="16.543254">
        <ele>307.158197</ele>
        <time>2020-09-10T09:30:00.886Z</time>
      </trkpt>
      <trkpt lat="48.693957" lon="16.543421">
        <ele>307.266970</ele>
        <time>2020-09-10T09:30:04.865Z</time>
      </trkpt>
      <trkpt lat="48.693914" lon="16.543579">
        <ele>307.439161</ele>
        <time>2020-09-10T09:30:08.865Z</time>
      </trkpt>
      <trkpt lat="48.693848" lon="16.543729">
        <ele>307.679344</ele>
        <time>2020-09-10T09:30:12.863Z</time>
      </trkpt>
      <trkpt lat="48.693787" lon="16.543857">
        <ele>307.889686</ele>
        <time>2020-09-10T09:30:16.860Z</time>
      </trkpt>
      <trkpt lat="48.693724" lon="16.543973">
        <ele>308.089828</ele>
        <time>2020-09-10T09:30:20.859Z</time>
      </trkpt>
      <trkpt lat="48.693664" lon="16.544076">
        <ele>308.272856</ele>
        <time>2020-09-10T09:30:24.852Z</time>
      </trkpt>
      <trkpt lat="48.693592" lon="16.544191">
        <ele>308.484036</ele>
        <time>2020-09-10T09:30:29.861Z</time>
      </trkpt>
      <trkpt lat="48.693522" lon="16.544301">
        <ele>308.687611</ele>
        <time>2020-09-10T09:30:34.862Z</time>
      </trkpt>
      <trkpt lat="48.693441" lon="16.544405">
        <ele>308.901925</ele>
        <time>2020-09-10T09:30:40.885Z</time>
      </trkpt>
      <trkpt lat="48.693364" lon="16.544502">
        <ele>309.104059</ele>
        <time>2020-09-10T09:30:45.857Z</time>
      </trkpt>
      <trkpt lat="48.693278" lon="16.544598">
        <ele>309.319680</ele>
        <time>2020-09-10T09:30:50.871Z</time>
      </trkpt>
      <trkpt lat="48.693197" lon="16.544671">
        <ele>309.509918</ele>
        <time>2020-09-10T09:30:55.866Z</time>
      </trkpt>
      <trkpt lat="48.693110" lon="16.544761">
        <ele>309.722559</ele>
        <time>2020-09-10T09:31:01.863Z</time>
      </trkpt>
      <trkpt lat="48.693031" lon="16.544844">
        <ele>309.916611</ele>
        <time>2020-09-10T09:31:06.884Z</time>
      </trkpt>
      <trkpt lat="48.692945" lon="16.544926">
        <ele>310.121717</ele>
        <time>2020-09-10T09:31:11.879Z</time>
      </trkpt>
      <trkpt lat="48.692860" lon="16.545034">
        <ele>310.345641</ele>
        <time>2020-09-10T09:31:15.861Z</time>
      </trkpt>
      <trkpt lat="48.692776" lon="16.545119">
        <ele>310.549536</ele>
        <time>2020-09-10T09:31:18.869Z</time>
      </trkpt>
      <trkpt lat="48.692680" lon="16.545226">
        <ele>310.790101</ele>
        <time>2020-09-10T09:31:21.866Z</time>
      </trkpt>
      <trkpt lat="48.692583" lon="16.545345">
        <ele>310.989804</ele>
        <time>2020-09-10T09:31:24.863Z</time>
      </trkpt>
      <trkpt lat="48.692514" lon="16.545436">
        <ele>311.073671</ele>
        <time>2020-09-10T09:31:26.859Z</time>
      </trkpt>
      <trkpt lat="48.692439" lon="16.545528">
        <ele>311.162140</ele>
        <time>2020-09-10T09:31:28.881Z</time>
      </trkpt>
      <trkpt lat="48.692364" lon="16.545620">
        <ele>311.250609</ele>
        <time>2020-09-10T09:31:30.853Z</time>
      </trkpt>
      <trkpt lat="48.692285" lon="16.545714">
        <ele>311.342699</ele>
        <time>2020-09-10T09:31:32.880Z</time>
      </trkpt>
      <trkpt lat="48.692201" lon="16.545811">
        <ele>311.439526</ele>
        <time>2020-09-10T09:31:34.872Z</time>
      </trkpt>
      <trkpt lat="48.692112" lon="16.545913">
        <ele>311.541834</ele>
        <time>2020-09-10T09:31:36.877Z</time>
      </trkpt>
      <trkpt lat="48.692017" lon="16.546028">
        <ele>311.653313</ele>
        <time>2020-09-10T09:31:38.866Z</time>
      </trkpt>
      <trkpt lat="48.691906" lon="16.546143">
        <ele>311.776592</ele>
        <time>2020-09-10T09:31:40.874Z</time>
      </trkpt>
      <trkpt lat="48.691777" lon="16.546263">
        <ele>311.915367</ele>
        <time>2020-09-10T09:31:42.860Z</time>
      </trkpt>
      <trkpt lat="48.691631" lon="16.546393">
        <ele>312.070619</ele>
        <time>2020-09-10T09:31:44.865Z</time>
      </trkpt>
      <trkpt lat="48.691548" lon="16.546454">
        <ele>312.155190</ele>
        <time>2020-09-10T09:31:45.841Z</time>
      </trkpt>
      <trkpt lat="48.691460" lon="16.546499">
        <ele>312.240335</ele>
        <time>2020-09-10T09:31:46.850Z</time>
      </trkpt>
      <trkpt lat="48.691374" lon="16.546546">
        <ele>312.324148</ele>
        <time>2020-09-10T09:31:47.874Z</time>
      </trkpt>
      <trkpt lat="48.691234" lon="16.546699">
        <ele>312.482403</ele>
        <time>2020-09-10T09:31:49.860Z</time>
      </trkpt>
      <trkpt lat="48.691143" lon="16.546917">
        <ele>312.614901</ele>
        <time>2020-09-10T09:31:51.879Z</time>
      </trkpt>
      <trkpt lat="48.691064" lon="16.547091">
        <ele>312.673023</ele>
        <time>2020-09-10T09:31:53.852Z</time>
      </trkpt>
      <trkpt lat="48.690979" lon="16.547221">
        <ele>312.723382</ele>
        <time>2020-09-10T09:31:56.853Z</time>
      </trkpt>
      <trkpt lat="48.690879" lon="16.547120">
        <ele>312.773492</ele>
        <time>2020-09-10T09:31:59.860Z</time>
      </trkpt>
      <trkpt lat="48.690813" lon="16.547015">
        <ele>312.813395</ele>
        <time>2020-09-10T09:32:01.877Z</time>
      </trkpt>
      <trkpt lat="48.690740" lon="16.546911">
        <ele>312.855176</ele>
        <time>2020-09-10T09:32:03.878Z</time>
      </trkpt>
      <trkpt lat="48.690658" lon="16.546804">
        <ele>312.900299</ele>
        <time>2020-09-10T09:32:05.865Z</time>
      </trkpt>
      <trkpt lat="48.690569" lon="16.546703">
        <ele>312.946662</ele>
        <time>2020-09-10T09:32:07.858Z</time>
      </trkpt>
      <trkpt lat="48.690474" lon="16.546610">
        <ele>312.993821</ele>
        <time>2020-09-10T09:32:09.859Z</time>
      </trkpt>
      <trkpt lat="48.690373" lon="16.546521">
        <ele>313.042537</ele>
        <time>2020-09-10T09:32:11.875Z</time>
      </trkpt>
      <trkpt lat="48.690260" lon="16.546441">
        <ele>313.094540</ele>
        <time>2020-09-10T09:32:13.876Z</time>
      </trkpt>
      <trkpt lat="48.690148" lon="16.546352">
        <ele>313.147271</ele>
        <time>2020-09-10T09:32:15.873Z</time>
      </trkpt>
      <trkpt lat="48.690039" lon="16.546254">
        <ele>313.200117</ele>
        <time>2020-09-10T09:32:17.874Z</time>
      </trkpt>
      <trkpt lat="48.689931" lon="16.546156">
        <ele>313.252606</ele>
        <time>2020-09-10T09:32:19.855Z</time>
      </trkpt>
      <trkpt lat="48.689845" lon="16.546021">
        <ele>313.304241</ele>
        <time>2020-09-10T09:32:21.864Z</time>
      </trkpt>
      <trkpt lat="48.689780" lon="16.545859">
        <ele>313.355338</ele>
        <time>2020-09-10T09:32:23.865Z</time>
      </trkpt>
      <trkpt lat="48.689713" lon="16.545698">
        <ele>313.402712</ele>
        <time>2020-09-10T09:32:25.860Z</time>
      </trkpt>
      <trkpt lat="48.689642" lon="16.545538">
        <ele>313.450701</ele>
        <time>2020-09-10T09:32:27.887Z</time>
      </trkpt>
      <trkpt lat="48.689575" lon="16.545366">
        <ele>313.500413</ele>
        <time>2020-09-10T09:32:29.861Z</time>
      </trkpt>
      <trkpt lat="48.689506" lon="16.545203">
        <ele>313.548613</ele>
        <time>2020-09-10T09:32:31.892Z</time>
      </trkpt>
      <trkpt lat="48.689434" lon="16.545050">
        <ele>313.595383</ele>
        <time>2020-09-10T09:32:33.874Z</time>
      </trkpt>
      <trkpt lat="48.689350" lon="16.544926">
        <ele>313.639610</ele>
        <time>2020-09-10T09:32:35.847Z</time>
      </trkpt>
      <trkpt lat="48.689238" lon="16.544863">
        <ele>313.684659</ele>
        <time>2020-09-10T09:32:37.860Z</time>
      </trkpt>
      <trkpt lat="48.689127" lon="16.544776">
        <ele>313.731785</ele>
        <time>2020-09-10T09:32:39.901Z</time>
      </trkpt>
      <trkpt lat="48.689023" lon="16.544668">
        <ele>313.779330</ele>
        <time>2020-09-10T09:32:41.869Z</time>
      </trkpt>
      <trkpt lat="48.688919" lon="16.544554">
        <ele>313.827736</ele>
        <time>2020-09-10T09:32:43.870Z</time>
      </trkpt>
      <trkpt lat="48.688812" lon="16.544443">
        <ele>313.876636</ele>
        <time>2020-09-10T09:32:45.858Z</time>
      </trkpt>
      <trkpt lat="48.688697" lon="16.544344">
        <ele>313.926513</ele>
        <time>2020-09-10T09:32:47.849Z</time>
      </trkpt>
      <trkpt lat="48.688579" lon="16.544247">
        <ele>313.977136</ele>
        <time>2020-09-10T09:32:49.865Z</time>
      </trkpt>
      <trkpt lat="48.688457" lon="16.544155">
        <ele>314.025859</ele>
        <time>2020-09-10T09:32:51.866Z</time>
      </trkpt>
      <trkpt lat="48.688333" lon="16.544062">
        <ele>314.051201</ele>
        <time>2020-09-10T09:32:53.872Z</time>
      </trkpt>
      <trkpt lat="48.688215" lon="16.543947">
        <ele>314.076900</ele>
        <time>2020-09-10T09:32:55.874Z</time>
      </trkpt>
      <trkpt lat="48.688106" lon="16.543804">
        <ele>314.103310</ele>
        <time>2020-09-10T09:32:57.861Z</time>
      </trkpt>
      <trkpt lat="48.688009" lon="16.543643">
        <ele>314.129664</ele>
        <time>2020-09-10T09:32:59.859Z</time>
      </trkpt>
      <trkpt lat="48.687920" lon="16.543473">
        <ele>314.155898</ele>
        <time>2020-09-10T09:33:01.863Z</time>
      </trkpt>
      <trkpt lat="48.687830" lon="16.543301">
        <ele>314.182435</ele>
        <time>2020-09-10T09:33:03.898Z</time>
      </trkpt>
      <trkpt lat="48.687737" lon="16.543135">
        <ele>314.208759</ele>
        <time>2020-09-10T09:33:05.869Z</time>
      </trkpt>
      <trkpt lat="48.687638" lon="16.542974">
        <ele>314.235362</ele>
        <time>2020-09-10T09:33:07.854Z</time>
      </trkpt>
      <trkpt lat="48.687522" lon="16.542836">
        <ele>314.262377</ele>
        <time>2020-09-10T09:33:09.855Z</time>
      </trkpt>
      <trkpt lat="48.687395" lon="16.542716">
        <ele>314.289792</ele>
        <time>2020-09-10T09:33:11.871Z</time>
      </trkpt>
      <trkpt lat="48.687264" lon="16.542602">
        <ele>314.317462</ele>
        <time>2020-09-10T09:33:13.874Z</time>
      </trkpt>
      <trkpt lat="48.687132" lon="16.542484">
        <ele>314.345534</ele>
        <time>2020-09-10T09:33:15.890Z</time>
      </trkpt>
      <trkpt lat="48.687001" lon="16.542361">
        <ele>314.375411</ele>
        <time>2020-09-10T09:33:17.886Z</time>
      </trkpt>
      <trkpt lat="48.686869" lon="16.542235">
        <ele>314.406230</ele>
        <time>2020-09-10T09:33:19.872Z</time>
      </trkpt>
      <trkpt lat="48.686739" lon="16.542111">
        <ele>314.436576</ele>
        <time>2020-09-10T09:33:21.856Z</time>
      </trkpt>
      <trkpt lat="48.686614" lon="16.541980">
        <ele>314.466601</ele>
        <time>2020-09-10T09:33:23.874Z</time>
      </trkpt>
      <trkpt lat="48.686494" lon="16.541849">
        <ele>314.495819</ele>
        <time>2020-09-10T09:33:25.854Z</time>
      </trkpt>
      <trkpt lat="48.686378" lon="16.541718">
        <ele>314.524400</ele>
        <time>2020-09-10T09:33:27.861Z</time>
      </trkpt>
      <trkpt lat="48.686266" lon="16.541593">
        <ele>314.551880</ele>
        <time>2020-09-10T09:33:29.848Z</time>
      </trkpt>
      <trkpt lat="48.686158" lon="16.541468">
        <ele>314.578728</ele>
        <time>2020-09-10T09:33:31.874Z</time>
      </trkpt>
      <trkpt lat="48.686060" lon="16.541358">
        <ele>314.602821</ele>
        <time>2020-09-10T09:33:33.844Z</time>
      </trkpt>
      <trkpt lat="48.685955" lon="16.541358">
        <ele>314.623562</ele>
        <time>2020-09-10T09:33:35.861Z</time>
      </trkpt>
      <trkpt lat="48.685861" lon="16.541470">
        <ele>314.647186</ele>
        <time>2020-09-10T09:33:37.848Z</time>
      </trkpt>
      <trkpt lat="48.685766" lon="16.541593">
        <ele>314.671872</ele>
        <time>2020-09-10T09:33:39.864Z</time>
      </trkpt>
      <trkpt lat="48.685668" lon="16.541723">
        <ele>314.697604</ele>
        <time>2020-09-10T09:33:41.865Z</time>
      </trkpt>
      <trkpt lat="48.685567" lon="16.541865">
        <ele>314.637196</ele>
        <time>2020-09-10T09:33:43.871Z</time>
      </trkpt>
      <trkpt lat="48.685464" lon="16.542001">
        <ele>314.523160</ele>
        <time>2020-09-10T09:33:45.855Z</time>
      </trkpt>
      <trkpt lat="48.685357" lon="16.542139">
        <ele>314.405876</ele>
        <time>2020-09-10T09:33:47.879Z</time>
      </trkpt>
      <trkpt lat="48.685252" lon="16.542275">
        <ele>314.290577</ele>
        <time>2020-09-10T09:33:49.880Z</time>
      </trkpt>
      <trkpt lat="48.685149" lon="16.542408">
        <ele>314.177620</ele>
        <time>2020-09-10T09:33:51.866Z</time>
      </trkpt>
      <trkpt lat="48.685052" lon="16.542538">
        <ele>314.069528</ele>
        <time>2020-09-10T09:33:53.862Z</time>
      </trkpt>
      <trkpt lat="48.684956" lon="16.542668">
        <ele>313.962060</ele>
        <time>2020-09-10T09:33:55.873Z</time>
      </trkpt>
      <trkpt lat="48.684861" lon="16.542801">
        <ele>313.854097</ele>
        <time>2020-09-10T09:33:57.895Z</time>
      </trkpt>
      <trkpt lat="48.684774" lon="16.542936">
        <ele>313.750152</ele>
        <time>2020-09-10T09:33:59.871Z</time>
      </trkpt>
      <trkpt lat="48.684693" lon="16.543071">
        <ele>313.649640</ele>
        <time>2020-09-10T09:34:01.854Z</time>
      </trkpt>
      <trkpt lat="48.684613" lon="16.543194">
        <ele>313.554506</ele>
        <time>2020-09-10T09:34:03.857Z</time>
      </trkpt>
      <trkpt lat="48.684520" lon="16.543274">
        <ele>313.465248</ele>
        <time>2020-09-10T09:34:05.853Z</time>
      </trkpt>
      <trkpt lat="48.684412" lon="16.543286">
        <ele>313.374872</ele>
        <time>2020-09-10T09:34:07.865Z</time>
      </trkpt>
      <trkpt lat="48.684307" lon="16.543278">
        <ele>313.287132</ele>
        <time>2020-09-10T09:34:09.858Z</time>
      </trkpt>
      <trkpt lat="48.684209" lon="16.543267">
        <ele>313.205941</ele>
        <time>2020-09-10T09:34:11.873Z</time>
      </trkpt>
      <trkpt lat="48.684112" lon="16.543248">
        <ele>313.160690</ele>
        <time>2020-09-10T09:34:13.852Z</time>
      </trkpt>
      <trkpt lat="48.684023" lon="16.543236">
        <ele>313.119352</ele>
        <time>2020-09-10T09:34:15.854Z</time>
      </trkpt>
      <trkpt lat="48.683890" lon="16.543217">
        <ele>313.057546</ele>
        <time>2020-09-10T09:34:18.873Z</time>
      </trkpt>
      <trkpt lat="48.683765" lon="16.543204">
        <ele>312.999579</ele>
        <time>2020-09-10T09:34:21.859Z</time>
      </trkpt>
      <trkpt lat="48.683657" lon="16.543197">
        <ele>312.949567</ele>
        <time>2020-09-10T09:34:24.863Z</time>
      </trkpt>
      <trkpt lat="48.683560" lon="16.543190">
        <ele>312.904639</ele>
        <time>2020-09-10T09:34:27.864Z</time>
      </trkpt>
      <trkpt lat="48.683470" lon="16.543160">
        <ele>312.862004</ele>
        <time>2020-09-10T09:34:30.861Z</time>
      </trkpt>
      <trkpt lat="48.683355" lon="16.543144">
        <ele>312.808575</ele>
        <time>2020-09-10T09:34:34.854Z</time>
      </trkpt>
      <trkpt lat="48.683237" lon="16.543128">
        <ele>312.753764</ele>
        <time>2020-09-10T09:34:38.850Z</time>
      </trkpt>
      <trkpt lat="48.683147" lon="16.543113">
        <ele>312.711875</ele>
        <time>2020-09-10T09:34:41.864Z</time>
      </trkpt>
      <trkpt lat="48.683054" lon="16.543106">
        <ele>312.668795</ele>
        <time>2020-09-10T09:34:44.864Z</time>
      </trkpt>
      <trkpt lat="48.682961" lon="16.543099">
        <ele>312.625715</ele>
        <time>2020-09-10T09:34:47.868Z</time>
      </trkpt>
      <trkpt lat="48.682864" lon="16.543093">
        <ele>312.580801</ele>
        <time>2020-09-10T09:34:50.863Z</time>
      </trkpt>
      <trkpt lat="48.682761" lon="16.543098">
        <ele>312.533124</ele>
        <time>2020-09-10T09:34:53.863Z</time>
      </trkpt>
      <trkpt lat="48.682662" lon="16.543098">
        <ele>312.487321</ele>
        <time>2020-09-10T09:34:56.857Z</time>
      </trkpt>
      <trkpt lat="48.682562" lon="16.543092">
        <ele>312.441020</ele>
        <time>2020-09-10T09:34:59.850Z</time>
      </trkpt>
      <trkpt lat="48.682468" lon="16.543090">
        <ele>312.397527</ele>
        <time>2020-09-10T09:35:02.852Z</time>
      </trkpt>
      <trkpt lat="48.682374" lon="16.543079">
        <ele>312.362262</ele>
        <time>2020-09-10T09:35:05.861Z</time>
      </trkpt>
      <trkpt lat="48.682277" lon="16.543070">
        <ele>312.335261</ele>
        <time>2020-09-10T09:35:08.862Z</time>
      </trkpt>
      <trkpt lat="48.682160" lon="16.543078">
        <ele>312.302721</ele>
        <time>2020-09-10T09:35:12.880Z</time>
      </trkpt>
      <trkpt lat="48.682050" lon="16.543086">
        <ele>312.272123</ele>
        <time>2020-09-10T09:35:16.865Z</time>
      </trkpt>
      <trkpt lat="48.681951" lon="16.543087">
        <ele>312.244617</ele>
        <time>2020-09-10T09:35:20.873Z</time>
      </trkpt>
      <trkpt lat="48.681846" lon="16.543082">
        <ele>312.215429</ele>
        <time>2020-09-10T09:35:24.853Z</time>
      </trkpt>
      <trkpt lat="48.681745" lon="16.543082">
        <ele>312.187367</ele>
        <time>2020-09-10T09:35:28.861Z</time>
      </trkpt>
      <trkpt lat="48.681655" lon="16.543081">
        <ele>312.162361</ele>
        <time>2020-09-10T09:35:32.883Z</time>
      </trkpt>
      <trkpt lat="48.681564" lon="16.543079">
        <ele>312.137075</ele>
        <time>2020-09-10T09:35:37.856Z</time>
      </trkpt>
      <trkpt lat="48.681459" lon="16.543074">
        <ele>312.107888</ele>
        <time>2020-09-10T09:35:43.861Z</time>
      </trkpt>
      <trkpt lat="48.681366" lon="16.543076">
        <ele>312.082046</ele>
        <time>2020-09-10T09:35:48.875Z</time>
      </trkpt>
      <trkpt lat="48.681258" lon="16.543083">
        <ele>312.052012</ele>
        <time>2020-09-10T09:35:53.871Z</time>
      </trkpt>
      <trkpt lat="48.681149" lon="16.543081">
        <ele>312.021725</ele>
        <time>2020-09-10T09:35:57.900Z</time>
      </trkpt>
      <trkpt lat="48.681056" lon="16.543090">
        <ele>311.995834</ele>
        <time>2020-09-10T09:36:00.865Z</time>
      </trkpt>
      <trkpt lat="48.680944" lon="16.543085">
        <ele>311.964702</ele>
        <time>2020-09-10T09:36:03.855Z</time>
      </trkpt>
      <trkpt lat="48.680816" lon="16.543071">
        <ele>311.929046</ele>
        <time>2020-09-10T09:36:06.897Z</time>
      </trkpt>
      <trkpt lat="48.680712" lon="16.543071">
        <ele>311.900151</ele>
        <time>2020-09-10T09:36:08.866Z</time>
      </trkpt>
      <trkpt lat="48.680598" lon="16.543078">
        <ele>311.863451</ele>
        <time>2020-09-10T09:36:10.870Z</time>
      </trkpt>
      <trkpt lat="48.680480" lon="16.543081">
        <ele>311.805954</ele>
        <time>2020-09-10T09:36:12.870Z</time>
      </trkpt>
      <trkpt lat="48.680363" lon="16.543078">
        <ele>311.748943</ele>
        <time>2020-09-10T09:36:14.866Z</time>
      </trkpt>
      <trkpt lat="48.680242" lon="16.543075">
        <ele>311.689985</ele>
        <time>2020-09-10T09:36:16.868Z</time>
      </trkpt>
      <trkpt lat="48.680117" lon="16.543073">
        <ele>311.629082</ele>
        <time>2020-09-10T09:36:18.870Z</time>
      </trkpt>
      <trkpt lat="48.679994" lon="16.543074">
        <ele>311.569156</ele>
        <time>2020-09-10T09:36:20.874Z</time>
      </trkpt>
      <trkpt lat="48.679864" lon="16.543071">
        <ele>311.505813</ele>
        <time>2020-09-10T09:36:22.860Z</time>
      </trkpt>
      <trkpt lat="48.679734" lon="16.543072">
        <ele>311.442477</ele>
        <time>2020-09-10T09:36:24.881Z</time>
      </trkpt>
      <trkpt lat="48.679606" lon="16.543063">
        <ele>311.380049</ele>
        <time>2020-09-10T09:36:26.863Z</time>
      </trkpt>
      <trkpt lat="48.679473" lon="16.543060">
        <ele>311.315245</ele>
        <time>2020-09-10T09:36:28.874Z</time>
      </trkpt>
      <trkpt lat="48.679339" lon="16.543059">
        <ele>311.249960</ele>
        <time>2020-09-10T09:36:30.870Z</time>
      </trkpt>
      <trkpt lat="48.679203" lon="16.543054">
        <ele>311.183681</ele>
        <time>2020-09-10T09:36:32.875Z</time>
      </trkpt>
      <trkpt lat="48.679066" lon="16.543053">
        <ele>311.116935</ele>
        <time>2020-09-10T09:36:34.878Z</time>
      </trkpt>
      <trkpt lat="48.678928" lon="16.543042">
        <ele>311.049609</ele>
        <time>2020-09-10T09:36:36.861Z</time>
      </trkpt>
      <trkpt lat="48.678795" lon="16.543037">
        <ele>310.999657</ele>
        <time>2020-09-10T09:36:38.871Z</time>
      </trkpt>
      <trkpt lat="48.678668" lon="16.543052">
        <ele>311.003468</ele>
        <time>2020-09-10T09:36:40.850Z</time>
      </trkpt>
      <trkpt lat="48.678547" lon="16.543058">
        <ele>311.007090</ele>
        <time>2020-09-10T09:36:42.866Z</time>
      </trkpt>
      <trkpt lat="48.678434" lon="16.543062">
        <ele>311.010471</ele>
        <time>2020-09-10T09:36:44.876Z</time>
      </trkpt>
      <trkpt lat="48.678327" lon="16.543073">
        <ele>311.013680</ele>
        <time>2020-09-10T09:36:46.862Z</time>
      </trkpt>
      <trkpt lat="48.678225" lon="16.543077">
        <ele>311.016732</ele>
        <time>2020-09-10T09:36:48.910Z</time>
      </trkpt>
      <trkpt lat="48.678127" lon="16.543080">
        <ele>311.019665</ele>
        <time>2020-09-10T09:36:50.867Z</time>
      </trkpt>
      <trkpt lat="48.678029" lon="16.543081">
        <ele>311.022597</ele>
        <time>2020-09-10T09:36:52.876Z</time>
      </trkpt>
      <trkpt lat="48.677931" lon="16.543077">
        <ele>311.025530</ele>
        <time>2020-09-10T09:36:54.890Z</time>
      </trkpt>
      <trkpt lat="48.677836" lon="16.543074">
        <ele>311.028372</ele>
        <time>2020-09-10T09:36:56.857Z</time>
      </trkpt>
      <trkpt lat="48.677744" lon="16.543067">
        <ele>311.031128</ele>
        <time>2020-09-10T09:36:58.859Z</time>
      </trkpt>
      <trkpt lat="48.677655" lon="16.543047">
        <ele>311.033820</ele>
        <time>2020-09-10T09:37:00.856Z</time>
      </trkpt>
      <trkpt lat="48.677528" lon="16.543014">
        <ele>311.037675</ele>
        <time>2020-09-10T09:37:03.885Z</time>
      </trkpt>
      <trkpt lat="48.677405" lon="16.542985">
        <ele>311.041399</ele>
        <time>2020-09-10T09:37:06.854Z</time>
      </trkpt>
      <trkpt lat="48.677288" lon="16.542950">
        <ele>311.044967</ele>
        <time>2020-09-10T09:37:09.854Z</time>
      </trkpt>
      <trkpt lat="48.677173" lon="16.542910">
        <ele>311.048497</ele>
        <time>2020-09-10T09:37:12.845Z</time>
      </trkpt>
      <trkpt lat="48.677045" lon="16.542871">
        <ele>311.052403</ele>
        <time>2020-09-10T09:37:15.877Z</time>
      </trkpt>
      <trkpt lat="48.676954" lon="16.542841">
        <ele>311.027531</ele>
        <time>2020-09-10T09:37:17.857Z</time>
      </trkpt>
      <trkpt lat="48.676826" lon="16.542801">
        <ele>310.989565</ele>
        <time>2020-09-10T09:37:20.888Z</time>
      </trkpt>
      <trkpt lat="48.676730" lon="16.542772">
        <ele>310.961128</ele>
        <time>2020-09-10T09:37:23.860Z</time>
      </trkpt>
      <trkpt lat="48.676621" lon="16.542734">
        <ele>310.928637</ele>
        <time>2020-09-10T09:38:01.876Z</time>
      </trkpt>
      <trkpt lat="48.676499" lon="16.542701">
        <ele>310.892636</ele>
        <time>2020-09-10T09:38:04.896Z</time>
      </trkpt>
      <trkpt lat="48.676392" lon="16.542684">
        <ele>310.861383</ele>
        <time>2020-09-10T09:38:06.866Z</time>
      </trkpt>
      <trkpt lat="48.676262" lon="16.542667">
        <ele>310.823478</ele>
        <time>2020-09-10T09:38:08.880Z</time>
      </trkpt>
      <trkpt lat="48.676108" lon="16.542622">
        <ele>310.777918</ele>
        <time>2020-09-10T09:38:10.894Z</time>
      </trkpt>
      <trkpt lat="48.675937" lon="16.542560">
        <ele>310.726840</ele>
        <time>2020-09-10T09:38:12.866Z</time>
      </trkpt>
      <trkpt lat="48.675846" lon="16.542540">
        <ele>310.700128</ele>
        <time>2020-09-10T09:38:13.882Z</time>
      </trkpt>
      <trkpt lat="48.675752" lon="16.542505">
        <ele>310.672009</ele>
        <time>2020-09-10T09:38:14.858Z</time>
      </trkpt>
      <trkpt lat="48.675654" lon="16.542472">
        <ele>310.642845</ele>
        <time>2020-09-10T09:38:15.848Z</time>
      </trkpt>
      <trkpt lat="48.675553" lon="16.542443">
        <ele>310.612983</ele>
        <time>2020-09-10T09:38:16.856Z</time>
      </trkpt>
      <trkpt lat="48.675451" lon="16.542416">
        <ele>310.582904</ele>
        <time>2020-09-10T09:38:17.845Z</time>
      </trkpt>
      <trkpt lat="48.675347" lon="16.542386">
        <ele>310.552149</ele>
        <time>2020-09-10T09:38:18.860Z</time>
      </trkpt>
      <trkpt lat="48.675243" lon="16.542353">
        <ele>310.516716</ele>
        <time>2020-09-10T09:38:19.891Z</time>
      </trkpt>
      <trkpt lat="48.675136" lon="16.542325">
        <ele>310.468867</ele>
        <time>2020-09-10T09:38:20.885Z</time>
      </trkpt>
      <trkpt lat="48.675027" lon="16.542300">
        <ele>310.420288</ele>
        <time>2020-09-10T09:38:21.879Z</time>
      </trkpt>
      <trkpt lat="48.674917" lon="16.542281">
        <ele>310.371501</ele>
        <time>2020-09-10T09:38:22.864Z</time>
      </trkpt>
      <trkpt lat="48.674806" lon="16.542266">
        <ele>310.322394</ele>
        <time>2020-09-10T09:38:23.867Z</time>
      </trkpt>
      <trkpt lat="48.674694" lon="16.542248">
        <ele>310.272764</ele>
        <time>2020-09-10T09:38:24.896Z</time>
      </trkpt>
      <trkpt lat="48.674584" lon="16.542227">
        <ele>310.223908</ele>
        <time>2020-09-10T09:38:25.851Z</time>
      </trkpt>
      <trkpt lat="48.674473" lon="16.542205">
        <ele>310.174578</ele>
        <time>2020-09-10T09:38:26.872Z</time>
      </trkpt>
      <trkpt lat="48.674361" lon="16.542185">
        <ele>310.124883</ele>
        <time>2020-09-10T09:38:27.867Z</time>
      </trkpt>
      <trkpt lat="48.674253" lon="16.542160">
        <ele>310.076739</ele>
        <time>2020-09-10T09:38:28.891Z</time>
      </trkpt>
      <trkpt lat="48.674153" lon="16.542137">
        <ele>310.032169</ele>
        <time>2020-09-10T09:38:29.868Z</time>
      </trkpt>
      <trkpt lat="48.674058" lon="16.542090">
        <ele>309.988129</ele>
        <time>2020-09-10T09:38:30.855Z</time>
      </trkpt>
      <trkpt lat="48.673965" lon="16.542039">
        <ele>309.944544</ele>
        <time>2020-09-10T09:38:31.882Z</time>
      </trkpt>
      <trkpt lat="48.673874" lon="16.541994">
        <ele>309.902361</ele>
        <time>2020-09-10T09:38:32.869Z</time>
      </trkpt>
      <trkpt lat="48.673784" lon="16.541955">
        <ele>309.861110</ele>
        <time>2020-09-10T09:38:33.849Z</time>
      </trkpt>
      <trkpt lat="48.673696" lon="16.541923">
        <ele>309.821230</ele>
        <time>2020-09-10T09:38:34.855Z</time>
      </trkpt>
      <trkpt lat="48.673526" lon="16.541866">
        <ele>309.744504</ele>
        <time>2020-09-10T09:38:36.878Z</time>
      </trkpt>
      <trkpt lat="48.673366" lon="16.541816">
        <ele>309.701337</ele>
        <time>2020-09-10T09:38:38.850Z</time>
      </trkpt>
      <trkpt lat="48.673210" lon="16.541771">
        <ele>309.662379</ele>
        <time>2020-09-10T09:38:40.867Z</time>
      </trkpt>
      <trkpt lat="48.673064" lon="16.541727">
        <ele>309.625861</ele>
        <time>2020-09-10T09:38:42.867Z</time>
      </trkpt>
      <trkpt lat="48.672919" lon="16.541690">
        <ele>309.589788</ele>
        <time>2020-09-10T09:38:44.863Z</time>
      </trkpt>
      <trkpt lat="48.672775" lon="16.541651">
        <ele>309.553902</ele>
        <time>2020-09-10T09:38:46.872Z</time>
      </trkpt>
      <trkpt lat="48.672634" lon="16.541612">
        <ele>309.518740</ele>
        <time>2020-09-10T09:38:48.853Z</time>
      </trkpt>
      <trkpt lat="48.672497" lon="16.541571">
        <ele>309.484481</ele>
        <time>2020-09-10T09:38:50.882Z</time>
      </trkpt>
      <trkpt lat="48.672363" lon="16.541531">
        <ele>309.450976</ele>
        <time>2020-09-10T09:38:52.860Z</time>
      </trkpt>
      <trkpt lat="48.672235" lon="16.541497">
        <ele>309.419096</ele>
        <time>2020-09-10T09:38:54.870Z</time>
      </trkpt>
      <trkpt lat="48.672114" lon="16.541458">
        <ele>309.388748</ele>
        <time>2020-09-10T09:38:56.867Z</time>
      </trkpt>
      <trkpt lat="48.672002" lon="16.541426">
        <ele>309.360787</ele>
        <time>2020-09-10T09:38:58.872Z</time>
      </trkpt>
      <trkpt lat="48.671896" lon="16.541393">
        <ele>309.334240</ele>
        <time>2020-09-10T09:39:00.867Z</time>
      </trkpt>
      <trkpt lat="48.671795" lon="16.541360">
        <ele>309.308892</ele>
        <time>2020-09-10T09:39:02.887Z</time>
      </trkpt>
      <trkpt lat="48.671698" lon="16.541337">
        <ele>309.225674</ele>
        <time>2020-09-10T09:39:04.862Z</time>
      </trkpt>
      <trkpt lat="48.671606" lon="16.541316">
        <ele>309.085380</ele>
        <time>2020-09-10T09:39:06.876Z</time>
      </trkpt>
      <trkpt lat="48.671482" lon="16.541280">
        <ele>308.894996</ele>
        <time>2020-09-10T09:39:09.866Z</time>
      </trkpt>
      <trkpt lat="48.671380" lon="16.541189">
        <ele>308.716482</ele>
        <time>2020-09-10T09:39:12.875Z</time>
      </trkpt>
      <trkpt lat="48.671302" lon="16.541044">
        <ele>308.530253</ele>
        <time>2020-09-10T09:39:15.876Z</time>
      </trkpt>
      <trkpt lat="48.671216" lon="16.540888">
        <ele>308.327898</ele>
        <time>2020-09-10T09:39:18.877Z</time>
      </trkpt>
      <trkpt lat="48.671155" lon="16.540782">
        <ele>308.187890</ele>
        <time>2020-09-10T09:39:20.888Z</time>
      </trkpt>
      <trkpt lat="48.671091" lon="16.540678">
        <ele>308.046334</ele>
        <time>2020-09-10T09:39:22.852Z</time>
      </trkpt>
      <trkpt lat="48.671025" lon="16.540571">
        <ele>307.900536</ele>
        <time>2020-09-10T09:39:24.895Z</time>
      </trkpt>
      <trkpt lat="48.670955" lon="16.540460">
        <ele>307.747700</ele>
        <time>2020-09-10T09:39:26.876Z</time>
      </trkpt>
      <trkpt lat="48.670877" lon="16.540336">
        <ele>307.577171</ele>
        <time>2020-09-10T09:39:28.858Z</time>
      </trkpt>
      <trkpt lat="48.670794" lon="16.540192">
        <ele>307.386841</ele>
        <time>2020-09-10T09:39:30.871Z</time>
      </trkpt>
      <trkpt lat="48.670737" lon="16.540074">
        <ele>307.241258</ele>
        <time>2020-09-10T09:39:32.870Z</time>
      </trkpt>
      <trkpt lat="48.670660" lon="16.539965">
        <ele>307.082317</ele>
        <time>2020-09-10T09:39:36.854Z</time>
      </trkpt>
      <trkpt lat="48.670564" lon="16.540053">
        <ele>306.913102</ele>
        <time>2020-09-10T09:39:42.862Z</time>
      </trkpt>
      <trkpt lat="48.670544" lon="16.540220">
        <ele>306.744091</ele>
        <time>2020-09-10T09:39:46.858Z</time>
      </trkpt>
      <trkpt lat="48.670541" lon="16.540396">
        <ele>306.576480</ele>
        <time>2020-09-10T09:39:50.873Z</time>
      </trkpt>
      <trkpt lat="48.670533" lon="16.540561">
        <ele>306.494393</ele>
        <time>2020-09-10T09:39:54.860Z</time>
      </trkpt>
      <trkpt lat="48.670524" lon="16.540720">
        <ele>306.415214</ele>
        <time>2020-09-10T09:39:58.861Z</time>
      </trkpt>
      <trkpt lat="48.670515" lon="16.540876">
        <ele>306.337518</ele>
        <time>2020-09-10T09:40:02.861Z</time>
      </trkpt>
      <trkpt lat="48.670511" lon="16.541024">
        <ele>306.264025</ele>
        <time>2020-09-10T09:40:06.863Z</time>
      </trkpt>
      <trkpt lat="48.670483" lon="16.541184">
        <ele>306.181899</ele>
        <time>2020-09-10T09:40:10.856Z</time>
      </trkpt>
      <trkpt lat="48.670448" lon="16.541326">
        <ele>306.106697</ele>
        <time>2020-09-10T09:40:14.857Z</time>
      </trkpt>
      <trkpt lat="48.670412" lon="16.541471">
        <ele>306.029837</ele>
        <time>2020-09-10T09:40:18.859Z</time>
      </trkpt>
      <trkpt lat="48.670376" lon="16.541623">
        <ele>305.949717</ele>
        <time>2020-09-10T09:40:22.871Z</time>
      </trkpt>
      <trkpt lat="48.670336" lon="16.541771">
        <ele>305.870374</ele>
        <time>2020-09-10T09:40:26.848Z</time>
      </trkpt>
      <trkpt lat="48.670285" lon="16.541920">
        <ele>305.787105</ele>
        <time>2020-09-10T09:40:30.884Z</time>
      </trkpt>
      <trkpt lat="48.670229" lon="16.542081">
        <ele>305.696820</ele>
        <time>2020-09-10T09:40:34.902Z</time>
      </trkpt>
      <trkpt lat="48.670186" lon="16.542205">
        <ele>305.627330</ele>
        <time>2020-09-10T09:40:37.861Z</time>
      </trkpt>
      <trkpt lat="48.670137" lon="16.542332">
        <ele>305.554351</ele>
        <time>2020-09-10T09:40:40.862Z</time>
      </trkpt>
      <trkpt lat="48.670089" lon="16.542455">
        <ele>305.483464</ele>
        <time>2020-09-10T09:40:43.882Z</time>
      </trkpt>
      <trkpt lat="48.670040" lon="16.542592">
        <ele>305.406160</ele>
        <time>2020-09-10T09:40:46.858Z</time>
      </trkpt>
      <trkpt lat="48.669993" lon="16.542732">
        <ele>305.328237</ele>
        <time>2020-09-10T09:40:49.917Z</time>
      </trkpt>
      <trkpt lat="48.669931" lon="16.542874">
        <ele>305.243775</ele>
        <time>2020-09-10T09:40:52.858Z</time>
      </trkpt>
      <trkpt lat="48.669872" lon="16.543025">
        <ele>305.217381</ele>
        <time>2020-09-10T09:40:55.882Z</time>
      </trkpt>
      <trkpt lat="48.669820" lon="16.543186">
        <ele>305.199375</ele>
        <time>2020-09-10T09:40:58.873Z</time>
      </trkpt>
      <trkpt lat="48.669757" lon="16.543343">
        <ele>305.180918</ele>
        <time>2020-09-10T09:41:01.879Z</time>
      </trkpt>
      <trkpt lat="48.669694" lon="16.543509">
        <ele>305.161682</ele>
        <time>2020-09-10T09:41:04.869Z</time>
      </trkpt>
      <trkpt lat="48.669635" lon="16.543682">
        <ele>305.142121</ele>
        <time>2020-09-10T09:41:07.858Z</time>
      </trkpt>
      <trkpt lat="48.669573" lon="16.543861">
        <ele>305.121813</ele>
        <time>2020-09-10T09:41:10.851Z</time>
      </trkpt>
      <trkpt lat="48.669527" lon="16.543981">
        <ele>305.107873</ele>
        <time>2020-09-10T09:41:12.879Z</time>
      </trkpt>
      <trkpt lat="48.669479" lon="16.544109">
        <ele>305.093085</ele>
        <time>2020-09-10T09:41:14.853Z</time>
      </trkpt>
      <trkpt lat="48.669431" lon="16.544239">
        <ele>305.078121</ele>
        <time>2020-09-10T09:41:16.862Z</time>
      </trkpt>
      <trkpt lat="48.669386" lon="16.544368">
        <ele>305.063463</ele>
        <time>2020-09-10T09:41:18.867Z</time>
      </trkpt>
      <trkpt lat="48.669337" lon="16.544503">
        <ele>305.047987</ele>
        <time>2020-09-10T09:41:20.874Z</time>
      </trkpt>
      <trkpt lat="48.669284" lon="16.544641">
        <ele>305.031948</ele>
        <time>2020-09-10T09:41:22.852Z</time>
      </trkpt>
      <trkpt lat="48.669233" lon="16.544788">
        <ele>305.015265</ele>
        <time>2020-09-10T09:41:24.854Z</time>
      </trkpt>
      <trkpt lat="48.669179" lon="16.544937">
        <ele>304.998189</ele>
        <time>2020-09-10T09:41:26.859Z</time>
      </trkpt>
      <trkpt lat="48.669123" lon="16.545093">
        <ele>304.980350</ele>
        <time>2020-09-10T09:41:28.860Z</time>
      </trkpt>
      <trkpt lat="48.669069" lon="16.545252">
        <ele>304.962387</ele>
        <time>2020-09-10T09:41:30.874Z</time>
      </trkpt>
      <trkpt lat="48.669019" lon="16.545413">
        <ele>304.922761</ele>
        <time>2020-09-10T09:41:32.852Z</time>
      </trkpt>
      <trkpt lat="48.668966" lon="16.545575">
        <ele>304.877608</ele>
        <time>2020-09-10T09:41:34.852Z</time>
      </trkpt>
      <trkpt lat="48.668909" lon="16.545745">
        <ele>304.829990</ele>
        <time>2020-09-10T09:41:36.882Z</time>
      </trkpt>
      <trkpt lat="48.668845" lon="16.545913">
        <ele>304.781550</ele>
        <time>2020-09-10T09:41:38.875Z</time>
      </trkpt>
      <trkpt lat="48.668782" lon="16.546073">
        <ele>304.735025</ele>
        <time>2020-09-10T09:41:40.864Z</time>
      </trkpt>
      <trkpt lat="48.668723" lon="16.546231">
        <ele>304.689692</ele>
        <time>2020-09-10T09:41:42.857Z</time>
      </trkpt>
      <trkpt lat="48.668673" lon="16.546396">
        <ele>304.644350</ele>
        <time>2020-09-10T09:41:44.872Z</time>
      </trkpt>
      <trkpt lat="48.668628" lon="16.546553">
        <ele>304.601604</ele>
        <time>2020-09-10T09:41:46.883Z</time>
      </trkpt>
      <trkpt lat="48.668579" lon="16.546703">
        <ele>304.559808</ele>
        <time>2020-09-10T09:41:48.872Z</time>
      </trkpt>
      <trkpt lat="48.668535" lon="16.546842">
        <ele>304.521309</ele>
        <time>2020-09-10T09:41:50.897Z</time>
      </trkpt>
      <trkpt lat="48.668492" lon="16.546980">
        <ele>304.483199</ele>
        <time>2020-09-10T09:41:52.854Z</time>
      </trkpt>
      <trkpt lat="48.668451" lon="16.547112">
        <ele>304.446766</ele>
        <time>2020-09-10T09:41:54.868Z</time>
      </trkpt>
      <trkpt lat="48.668409" lon="16.547245">
        <ele>304.409946</ele>
        <time>2020-09-10T09:41:56.854Z</time>
      </trkpt>
      <trkpt lat="48.668369" lon="16.547376">
        <ele>304.373899</ele>
        <time>2020-09-10T09:41:58.855Z</time>
      </trkpt>
      <trkpt lat="48.668326" lon="16.547508">
        <ele>304.337138</ele>
        <time>2020-09-10T09:42:00.861Z</time>
      </trkpt>
      <trkpt lat="48.668277" lon="16.547641">
        <ele>304.299101</ele>
        <time>2020-09-10T09:42:02.845Z</time>
      </trkpt>
      <trkpt lat="48.668231" lon="16.547777">
        <ele>304.244688</ele>
        <time>2020-09-10T09:42:04.851Z</time>
      </trkpt>
      <trkpt lat="48.668172" lon="16.547911">
        <ele>304.168133</ele>
        <time>2020-09-10T09:42:06.848Z</time>
      </trkpt>
      <trkpt lat="48.668120" lon="16.548058">
        <ele>304.088863</ele>
        <time>2020-09-10T09:42:08.884Z</time>
      </trkpt>
      <trkpt lat="48.668074" lon="16.548210">
        <ele>304.009385</ele>
        <time>2020-09-10T09:42:10.868Z</time>
      </trkpt>
      <trkpt lat="48.668032" lon="16.548364">
        <ele>303.930184</ele>
        <time>2020-09-10T09:42:12.865Z</time>
      </trkpt>
      <trkpt lat="48.667988" lon="16.548522">
        <ele>303.848674</ele>
        <time>2020-09-10T09:42:14.859Z</time>
      </trkpt>
      <trkpt lat="48.667937" lon="16.548680">
        <ele>303.765077</ele>
        <time>2020-09-10T09:42:16.846Z</time>
      </trkpt>
      <trkpt lat="48.667884" lon="16.548842">
        <ele>303.679139</ele>
        <time>2020-09-10T09:42:18.860Z</time>
      </trkpt>
      <trkpt lat="48.667833" lon="16.549002">
        <ele>303.594687</ele>
        <time>2020-09-10T09:42:20.893Z</time>
      </trkpt>
      <trkpt lat="48.667782" lon="16.549162">
        <ele>303.510234</ele>
        <time>2020-09-10T09:42:22.860Z</time>
      </trkpt>
      <trkpt lat="48.667727" lon="16.549328">
        <ele>303.421952</ele>
        <time>2020-09-10T09:42:24.866Z</time>
      </trkpt>
      <trkpt lat="48.667668" lon="16.549491">
        <ele>303.333594</ele>
        <time>2020-09-10T09:42:26.875Z</time>
      </trkpt>
      <trkpt lat="48.667607" lon="16.549653">
        <ele>303.244949</ele>
        <time>2020-09-10T09:42:28.855Z</time>
      </trkpt>
      <trkpt lat="48.667548" lon="16.549818">
        <ele>303.155756</ele>
        <time>2020-09-10T09:42:30.870Z</time>
      </trkpt>
      <trkpt lat="48.667487" lon="16.549988">
        <ele>303.063788</ele>
        <time>2020-09-10T09:42:32.885Z</time>
      </trkpt>
      <trkpt lat="48.667426" lon="16.550160">
        <ele>302.976404</ele>
        <time>2020-09-10T09:42:34.852Z</time>
      </trkpt>
      <trkpt lat="48.667364" lon="16.550331">
        <ele>302.921387</ele>
        <time>2020-09-10T09:42:36.866Z</time>
      </trkpt>
      <trkpt lat="48.667297" lon="16.550503">
        <ele>302.865069</ele>
        <time>2020-09-10T09:42:38.860Z</time>
      </trkpt>
      <trkpt lat="48.667229" lon="16.550673">
        <ele>302.809015</ele>
        <time>2020-09-10T09:42:40.870Z</time>
      </trkpt>
      <trkpt lat="48.667167" lon="16.550849">
        <ele>302.752758</ele>
        <time>2020-09-10T09:42:42.872Z</time>
      </trkpt>
      <trkpt lat="48.667098" lon="16.551018">
        <ele>302.696722</ele>
        <time>2020-09-10T09:42:44.876Z</time>
      </trkpt>
      <trkpt lat="48.667028" lon="16.551187">
        <ele>302.640461</ele>
        <time>2020-09-10T09:42:46.857Z</time>
      </trkpt>
      <trkpt lat="48.666958" lon="16.551359">
        <ele>302.583481</ele>
        <time>2020-09-10T09:42:48.846Z</time>
      </trkpt>
      <trkpt lat="48.666885" lon="16.551527">
        <ele>302.526764</ele>
        <time>2020-09-10T09:42:50.883Z</time>
      </trkpt>
      <trkpt lat="48.666821" lon="16.551699">
        <ele>302.471085</ele>
        <time>2020-09-10T09:42:52.857Z</time>
      </trkpt>
      <trkpt lat="48.666752" lon="16.551868">
        <ele>302.415049</ele>
        <time>2020-09-10T09:42:54.883Z</time>
      </trkpt>
      <trkpt lat="48.666682" lon="16.552037">
        <ele>302.358787</ele>
        <time>2020-09-10T09:42:56.875Z</time>
      </trkpt>
      <trkpt lat="48.666616" lon="16.552212">
        <ele>302.301951</ele>
        <time>2020-09-10T09:42:58.852Z</time>
      </trkpt>
      <trkpt lat="48.666554" lon="16.552390">
        <ele>302.245195</ele>
        <time>2020-09-10T09:43:00.855Z</time>
      </trkpt>
      <trkpt lat="48.666488" lon="16.552572">
        <ele>302.164458</ele>
        <time>2020-09-10T09:43:02.867Z</time>
      </trkpt>
      <trkpt lat="48.666418" lon="16.552759">
        <ele>302.058390</ele>
        <time>2020-09-10T09:43:04.866Z</time>
      </trkpt>
      <trkpt lat="48.666352" lon="16.552953">
        <ele>301.950704</ele>
        <time>2020-09-10T09:43:06.853Z</time>
      </trkpt>
      <trkpt lat="48.666286" lon="16.553155">
        <ele>301.839494</ele>
        <time>2020-09-10T09:43:08.855Z</time>
      </trkpt>
      <trkpt lat="48.666220" lon="16.553366">
        <ele>301.724286</ele>
        <time>2020-09-10T09:43:10.861Z</time>
      </trkpt>
      <trkpt lat="48.666151" lon="16.553584">
        <ele>301.604996</ele>
        <time>2020-09-10T09:43:12.859Z</time>
      </trkpt>
      <trkpt lat="48.666078" lon="16.553811">
        <ele>301.480407</ele>
        <time>2020-09-10T09:43:14.863Z</time>
      </trkpt>
      <trkpt lat="48.666008" lon="16.554050">
        <ele>301.351392</ele>
        <time>2020-09-10T09:43:16.867Z</time>
      </trkpt>
      <trkpt lat="48.665929" lon="16.554295">
        <ele>301.216854</ele>
        <time>2020-09-10T09:43:18.881Z</time>
      </trkpt>
      <trkpt lat="48.665895" lon="16.554423">
        <ele>301.148773</ele>
        <time>2020-09-10T09:43:19.877Z</time>
      </trkpt>
      <trkpt lat="48.665857" lon="16.554552">
        <ele>301.079071</ele>
        <time>2020-09-10T09:43:20.861Z</time>
      </trkpt>
      <trkpt lat="48.665818" lon="16.554682">
        <ele>301.008613</ele>
        <time>2020-09-10T09:43:21.900Z</time>
      </trkpt>
      <trkpt lat="48.665782" lon="16.554815">
        <ele>300.937684</ele>
        <time>2020-09-10T09:43:22.852Z</time>
      </trkpt>
      <trkpt lat="48.665747" lon="16.554949">
        <ele>300.874248</ele>
        <time>2020-09-10T09:43:23.880Z</time>
      </trkpt>
      <trkpt lat="48.665715" lon="16.555087">
        <ele>300.898218</ele>
        <time>2020-09-10T09:43:24.862Z</time>
      </trkpt>
      <trkpt lat="48.665679" lon="16.555224">
        <ele>300.922382</ele>
        <time>2020-09-10T09:43:25.865Z</time>
      </trkpt>
      <trkpt lat="48.665645" lon="16.555362">
        <ele>300.946522</ele>
        <time>2020-09-10T09:43:26.854Z</time>
      </trkpt>
      <trkpt lat="48.665613" lon="16.555502">
        <ele>300.970801</ele>
        <time>2020-09-10T09:43:27.882Z</time>
      </trkpt>
      <trkpt lat="48.665582" lon="16.555643">
        <ele>300.995156</ele>
        <time>2020-09-10T09:43:28.882Z</time>
      </trkpt>
      <trkpt lat="48.665549" lon="16.555783">
        <ele>301.019518</ele>
        <time>2020-09-10T09:43:29.867Z</time>
      </trkpt>
      <trkpt lat="48.665517" lon="16.555923">
        <ele>301.043798</ele>
        <time>2020-09-10T09:43:30.848Z</time>
      </trkpt>
      <trkpt lat="48.665489" lon="16.556065">
        <ele>301.068085</ele>
        <time>2020-09-10T09:43:31.886Z</time>
      </trkpt>
      <trkpt lat="48.665458" lon="16.556205">
        <ele>301.092285</ele>
        <time>2020-09-10T09:43:32.873Z</time>
      </trkpt>
      <trkpt lat="48.665434" lon="16.556349">
        <ele>301.116625</ele>
        <time>2020-09-10T09:43:33.879Z</time>
      </trkpt>
      <trkpt lat="48.665411" lon="16.556495">
        <ele>301.141224</ele>
        <time>2020-09-10T09:43:34.858Z</time>
      </trkpt>
      <trkpt lat="48.665390" lon="16.556640">
        <ele>301.165553</ele>
        <time>2020-09-10T09:43:35.857Z</time>
      </trkpt>
      <trkpt lat="48.665369" lon="16.556784">
        <ele>301.189721</ele>
        <time>2020-09-10T09:43:36.871Z</time>
      </trkpt>
      <trkpt lat="48.665346" lon="16.556923">
        <ele>301.213206</ele>
        <time>2020-09-10T09:43:37.860Z</time>
      </trkpt>
      <trkpt lat="48.665332" lon="16.557062">
        <ele>301.236250</ele>
        <time>2020-09-10T09:43:38.866Z</time>
      </trkpt>
      <trkpt lat="48.665328" lon="16.557202">
        <ele>301.259216</ele>
        <time>2020-09-10T09:43:39.866Z</time>
      </trkpt>
      <trkpt lat="48.665326" lon="16.557344">
        <ele>301.282494</ele>
        <time>2020-09-10T09:43:40.890Z</time>
      </trkpt>
      <trkpt lat="48.665322" lon="16.557484">
        <ele>301.305460</ele>
        <time>2020-09-10T09:43:41.858Z</time>
      </trkpt>
      <trkpt lat="48.665320" lon="16.557624">
        <ele>301.287329</ele>
        <time>2020-09-10T09:43:42.874Z</time>
      </trkpt>
      <trkpt lat="48.665321" lon="16.557765">
        <ele>301.213046</ele>
        <time>2020-09-10T09:43:43.870Z</time>
      </trkpt>
      <trkpt lat="48.665323" lon="16.557906">
        <ele>301.138750</ele>
        <time>2020-09-10T09:43:44.865Z</time>
      </trkpt>
      <trkpt lat="48.665324" lon="16.558046">
        <ele>301.064993</ele>
        <time>2020-09-10T09:43:45.860Z</time>
      </trkpt>
      <trkpt lat="48.665332" lon="16.558185">
        <ele>300.991490</ele>
        <time>2020-09-10T09:43:46.854Z</time>
      </trkpt>
      <trkpt lat="48.665338" lon="16.558323">
        <ele>300.918634</ele>
        <time>2020-09-10T09:43:47.882Z</time>
      </trkpt>
      <trkpt lat="48.665344" lon="16.558461">
        <ele>300.845779</ele>
        <time>2020-09-10T09:43:48.868Z</time>
      </trkpt>
      <trkpt lat="48.665343" lon="16.558600">
        <ele>300.772549</ele>
        <time>2020-09-10T09:43:49.889Z</time>
      </trkpt>
      <trkpt lat="48.665343" lon="16.558737">
        <ele>300.700377</ele>
        <time>2020-09-10T09:43:50.864Z</time>
      </trkpt>
      <trkpt lat="48.665345" lon="16.558874">
        <ele>300.628188</ele>
        <time>2020-09-10T09:43:51.861Z</time>
      </trkpt>
      <trkpt lat="48.665348" lon="16.559145">
        <ele>300.485405</ele>
        <time>2020-09-10T09:43:53.870Z</time>
      </trkpt>
      <trkpt lat="48.665349" lon="16.559415">
        <ele>300.343166</ele>
        <time>2020-09-10T09:43:55.848Z</time>
      </trkpt>
      <trkpt lat="48.665349" lon="16.559681">
        <ele>300.203037</ele>
        <time>2020-09-10T09:43:57.857Z</time>
      </trkpt>
      <trkpt lat="48.665339" lon="16.559946">
        <ele>300.063207</ele>
        <time>2020-09-10T09:43:59.887Z</time>
      </trkpt>
      <trkpt lat="48.665323" lon="16.560210">
        <ele>299.923548</ele>
        <time>2020-09-10T09:44:01.859Z</time>
      </trkpt>
      <trkpt lat="48.665313" lon="16.560473">
        <ele>299.790650</ele>
        <time>2020-09-10T09:44:03.891Z</time>
      </trkpt>
      <trkpt lat="48.665304" lon="16.560734">
        <ele>299.661126</ele>
        <time>2020-09-10T09:44:05.873Z</time>
      </trkpt>
      <trkpt lat="48.665289" lon="16.560993">
        <ele>299.532277</ele>
        <time>2020-09-10T09:44:07.846Z</time>
      </trkpt>
      <trkpt lat="48.665267" lon="16.561251">
        <ele>299.403355</ele>
        <time>2020-09-10T09:44:09.887Z</time>
      </trkpt>
      <trkpt lat="48.665250" lon="16.561508">
        <ele>299.275352</ele>
        <time>2020-09-10T09:44:11.855Z</time>
      </trkpt>
      <trkpt lat="48.665229" lon="16.561762">
        <ele>299.148491</ele>
        <time>2020-09-10T09:44:13.875Z</time>
      </trkpt>
      <trkpt lat="48.665207" lon="16.562017">
        <ele>299.021043</ele>
        <time>2020-09-10T09:44:15.847Z</time>
      </trkpt>
      <trkpt lat="48.665184" lon="16.562272">
        <ele>298.893495</ele>
        <time>2020-09-10T09:44:17.889Z</time>
      </trkpt>
      <trkpt lat="48.665162" lon="16.562528">
        <ele>298.765555</ele>
        <time>2020-09-10T09:44:19.876Z</time>
      </trkpt>
      <trkpt lat="48.665138" lon="16.562785">
        <ele>298.636923</ele>
        <time>2020-09-10T09:44:21.860Z</time>
      </trkpt>
      <trkpt lat="48.665108" lon="16.563041">
        <ele>298.498568</ele>
        <time>2020-09-10T09:44:23.870Z</time>
      </trkpt>
      <trkpt lat="48.665083" lon="16.563296">
        <ele>298.324631</ele>
        <time>2020-09-10T09:44:25.878Z</time>
      </trkpt>
      <trkpt lat="48.665061" lon="16.563551">
        <ele>298.151118</ele>
        <time>2020-09-10T09:44:27.859Z</time>
      </trkpt>
      <trkpt lat="48.665042" lon="16.563806">
        <ele>297.977975</ele>
        <time>2020-09-10T09:44:29.875Z</time>
      </trkpt>
      <trkpt lat="48.665026" lon="16.564061">
        <ele>297.805149</ele>
        <time>2020-09-10T09:44:31.862Z</time>
      </trkpt>
      <trkpt lat="48.665012" lon="16.564319">
        <ele>297.630487</ele>
        <time>2020-09-10T09:44:33.856Z</time>
      </trkpt>
      <trkpt lat="48.664998" lon="16.564574">
        <ele>297.457841</ele>
        <time>2020-09-10T09:44:35.896Z</time>
      </trkpt>
      <trkpt lat="48.664986" lon="16.564828">
        <ele>297.286026</ele>
        <time>2020-09-10T09:44:37.862Z</time>
      </trkpt>
      <trkpt lat="48.664970" lon="16.565079">
        <ele>297.115886</ele>
        <time>2020-09-10T09:44:39.865Z</time>
      </trkpt>
      <trkpt lat="48.664964" lon="16.565333">
        <ele>296.944400</ele>
        <time>2020-09-10T09:44:41.866Z</time>
      </trkpt>
      <trkpt lat="48.664959" lon="16.565583">
        <ele>296.775644</ele>
        <time>2020-09-10T09:44:43.857Z</time>
      </trkpt>
      <trkpt lat="48.664963" lon="16.565837">
        <ele>296.586908</ele>
        <time>2020-09-10T09:44:45.876Z</time>
      </trkpt>
      <trkpt lat="48.664954" lon="16.566093">
        <ele>296.381634</ele>
        <time>2020-09-10T09:44:47.893Z</time>
      </trkpt>
      <trkpt lat="48.664960" lon="16.566351">
        <ele>296.174921</ele>
        <time>2020-09-10T09:44:49.862Z</time>
      </trkpt>
      <trkpt lat="48.664963" lon="16.566613">
        <ele>295.965101</ele>
        <time>2020-09-10T09:44:51.863Z</time>
      </trkpt>
      <trkpt lat="48.664978" lon="16.566875">
        <ele>295.754526</ele>
        <time>2020-09-10T09:44:53.855Z</time>
      </trkpt>
      <trkpt lat="48.664990" lon="16.567137">
        <ele>295.544234</ele>
        <time>2020-09-10T09:44:55.873Z</time>
      </trkpt>
      <trkpt lat="48.664994" lon="16.567395">
        <ele>295.337592</ele>
        <time>2020-09-10T09:44:57.871Z</time>
      </trkpt>
      <trkpt lat="48.664999" lon="16.567650">
        <ele>295.133319</ele>
        <time>2020-09-10T09:44:59.877Z</time>
      </trkpt>
      <trkpt lat="48.665017" lon="16.567901">
        <ele>294.931158</ele>
        <time>2020-09-10T09:45:01.866Z</time>
      </trkpt>
      <trkpt lat="48.665033" lon="16.568151">
        <ele>294.730040</ele>
        <time>2020-09-10T09:45:03.861Z</time>
      </trkpt>
      <trkpt lat="48.665043" lon="16.568402">
        <ele>294.528695</ele>
        <time>2020-09-10T09:45:05.891Z</time>
      </trkpt>
      <trkpt lat="48.665057" lon="16.568650">
        <ele>294.345156</ele>
        <time>2020-09-10T09:45:07.872Z</time>
      </trkpt>
      <trkpt lat="48.665075" lon="16.568897">
        <ele>294.162959</ele>
        <time>2020-09-10T09:45:09.867Z</time>
      </trkpt>
      <trkpt lat="48.665091" lon="16.569141">
        <ele>293.983182</ele>
        <time>2020-09-10T09:45:11.864Z</time>
      </trkpt>
      <trkpt lat="48.665112" lon="16.569383">
        <ele>293.804226</ele>
        <time>2020-09-10T09:45:13.865Z</time>
      </trkpt>
      <trkpt lat="48.665127" lon="16.569621">
        <ele>293.628934</ele>
        <time>2020-09-10T09:45:15.881Z</time>
      </trkpt>
      <trkpt lat="48.665145" lon="16.569856">
        <ele>293.455481</ele>
        <time>2020-09-10T09:45:17.875Z</time>
      </trkpt>
      <trkpt lat="48.665166" lon="16.570091">
        <ele>293.281612</ele>
        <time>2020-09-10T09:45:19.856Z</time>
      </trkpt>
      <trkpt lat="48.665190" lon="16.570323">
        <ele>293.109439</ele>
        <time>2020-09-10T09:45:21.867Z</time>
      </trkpt>
      <trkpt lat="48.665213" lon="16.570553">
        <ele>292.938884</ele>
        <time>2020-09-10T09:45:23.877Z</time>
      </trkpt>
      <trkpt lat="48.665243" lon="16.570780">
        <ele>292.769151</ele>
        <time>2020-09-10T09:45:25.875Z</time>
      </trkpt>
      <trkpt lat="48.665272" lon="16.571004">
        <ele>292.601792</ele>
        <time>2020-09-10T09:45:27.868Z</time>
      </trkpt>
      <trkpt lat="48.665303" lon="16.571231">
        <ele>292.396785</ele>
        <time>2020-09-10T09:45:29.853Z</time>
      </trkpt>
      <trkpt lat="48.665328" lon="16.571461">
        <ele>292.157616</ele>
        <time>2020-09-10T09:45:31.879Z</time>
      </trkpt>
      <trkpt lat="48.665352" lon="16.571690">
        <ele>291.919708</ele>
        <time>2020-09-10T09:45:33.871Z</time>
      </trkpt>
      <trkpt lat="48.665376" lon="16.571917">
        <ele>291.683826</ele>
        <time>2020-09-10T09:45:35.853Z</time>
      </trkpt>
      <trkpt lat="48.665397" lon="16.572144">
        <ele>291.448637</ele>
        <time>2020-09-10T09:45:37.881Z</time>
      </trkpt>
      <trkpt lat="48.665426" lon="16.572375">
        <ele>291.207373</ele>
        <time>2020-09-10T09:45:39.867Z</time>
      </trkpt>
      <trkpt lat="48.665454" lon="16.572606">
        <ele>290.966394</ele>
        <time>2020-09-10T09:45:41.861Z</time>
      </trkpt>
      <trkpt lat="48.665475" lon="16.572841">
        <ele>290.723073</ele>
        <time>2020-09-10T09:45:43.855Z</time>
      </trkpt>
      <trkpt lat="48.665497" lon="16.573077">
        <ele>290.478523</ele>
        <time>2020-09-10T09:45:45.896Z</time>
      </trkpt>
      <trkpt lat="48.665519" lon="16.573312">
        <ele>290.234989</ele>
        <time>2020-09-10T09:45:47.871Z</time>
      </trkpt>
      <trkpt lat="48.665535" lon="16.573547">
        <ele>289.992588</ele>
        <time>2020-09-10T09:45:49.864Z</time>
      </trkpt>
      <trkpt lat="48.665544" lon="16.573786">
        <ele>289.746962</ele>
        <time>2020-09-10T09:45:51.851Z</time>
      </trkpt>
      <trkpt lat="48.665559" lon="16.574023">
        <ele>289.541086</ele>
        <time>2020-09-10T09:45:53.863Z</time>
      </trkpt>
      <trkpt lat="48.665572" lon="16.574258">
        <ele>289.340873</ele>
        <time>2020-09-10T09:45:55.877Z</time>
      </trkpt>
      <trkpt lat="48.665586" lon="16.574491">
        <ele>289.142240</ele>
        <time>2020-09-10T09:45:57.863Z</time>
      </trkpt>
      <trkpt lat="48.665598" lon="16.574723">
        <ele>288.944670</ele>
        <time>2020-09-10T09:45:59.887Z</time>
      </trkpt>
      <trkpt lat="48.665610" lon="16.574952">
        <ele>288.749639</ele>
        <time>2020-09-10T09:46:01.866Z</time>
      </trkpt>
      <trkpt lat="48.665619" lon="16.575177">
        <ele>288.558265</ele>
        <time>2020-09-10T09:46:03.871Z</time>
      </trkpt>
      <trkpt lat="48.665634" lon="16.575400">
        <ele>288.367959</ele>
        <time>2020-09-10T09:46:05.881Z</time>
      </trkpt>
      <trkpt lat="48.665648" lon="16.575621">
        <ele>288.179470</ele>
        <time>2020-09-10T09:46:07.869Z</time>
      </trkpt>
      <trkpt lat="48.665650" lon="16.575838">
        <ele>287.995220</ele>
        <time>2020-09-10T09:46:09.855Z</time>
      </trkpt>
      <trkpt lat="48.665658" lon="16.576055">
        <ele>287.810702</ele>
        <time>2020-09-10T09:46:11.857Z</time>
      </trkpt>
      <trkpt lat="48.665662" lon="16.576268">
        <ele>287.629793</ele>
        <time>2020-09-10T09:46:13.861Z</time>
      </trkpt>
      <trkpt lat="48.665663" lon="16.576476">
        <ele>287.453197</ele>
        <time>2020-09-10T09:46:15.879Z</time>
      </trkpt>
      <trkpt lat="48.665659" lon="16.576681">
        <ele>287.309316</ele>
        <time>2020-09-10T09:46:17.867Z</time>
      </trkpt>
      <trkpt lat="48.665658" lon="16.576885">
        <ele>287.175174</ele>
        <time>2020-09-10T09:46:19.887Z</time>
      </trkpt>
      <trkpt lat="48.665652" lon="16.577087">
        <ele>287.042217</ele>
        <time>2020-09-10T09:46:21.854Z</time>
      </trkpt>
      <trkpt lat="48.665646" lon="16.577285">
        <ele>286.911887</ele>
        <time>2020-09-10T09:46:23.855Z</time>
      </trkpt>
      <trkpt lat="48.665645" lon="16.577477">
        <ele>286.785636</ele>
        <time>2020-09-10T09:46:25.854Z</time>
      </trkpt>
      <trkpt lat="48.665638" lon="16.577669">
        <ele>286.659196</ele>
        <time>2020-09-10T09:46:27.870Z</time>
      </trkpt>
      <trkpt lat="48.665629" lon="16.577857">
        <ele>286.535254</ele>
        <time>2020-09-10T09:46:29.849Z</time>
      </trkpt>
      <trkpt lat="48.665620" lon="16.578044">
        <ele>286.411969</ele>
        <time>2020-09-10T09:46:31.878Z</time>
      </trkpt>
      <trkpt lat="48.665609" lon="16.578228">
        <ele>286.290487</ele>
        <time>2020-09-10T09:46:33.861Z</time>
      </trkpt>
      <trkpt lat="48.665601" lon="16.578410">
        <ele>286.170550</ele>
        <time>2020-09-10T09:46:35.861Z</time>
      </trkpt>
      <trkpt lat="48.665585" lon="16.578584">
        <ele>286.055034</ele>
        <time>2020-09-10T09:46:37.854Z</time>
      </trkpt>
      <trkpt lat="48.665569" lon="16.578759">
        <ele>285.938867</ele>
        <time>2020-09-10T09:46:39.856Z</time>
      </trkpt>
      <trkpt lat="48.665559" lon="16.578929">
        <ele>285.826643</ele>
        <time>2020-09-10T09:46:41.880Z</time>
      </trkpt>
      <trkpt lat="48.665547" lon="16.579102">
        <ele>285.712263</ele>
        <time>2020-09-10T09:46:43.856Z</time>
      </trkpt>
      <trkpt lat="48.665527" lon="16.579273">
        <ele>285.607780</ele>
        <time>2020-09-10T09:46:45.858Z</time>
      </trkpt>
      <trkpt lat="48.665509" lon="16.579443">
        <ele>285.539634</ele>
        <time>2020-09-10T09:46:47.883Z</time>
      </trkpt>
      <trkpt lat="48.665489" lon="16.579612">
        <ele>285.471677</ele>
        <time>2020-09-10T09:46:49.874Z</time>
      </trkpt>
      <trkpt lat="48.665470" lon="16.579780">
        <ele>285.404214</ele>
        <time>2020-09-10T09:46:51.856Z</time>
      </trkpt>
      <trkpt lat="48.665450" lon="16.579948">
        <ele>285.336646</ele>
        <time>2020-09-10T09:46:53.871Z</time>
      </trkpt>
      <trkpt lat="48.665426" lon="16.580114">
        <ele>285.269387</ele>
        <time>2020-09-10T09:46:55.899Z</time>
      </trkpt>
      <trkpt lat="48.665401" lon="16.580278">
        <ele>285.202768</ele>
        <time>2020-09-10T09:46:57.850Z</time>
      </trkpt>
      <trkpt lat="48.665374" lon="16.580434">
        <ele>285.138937</ele>
        <time>2020-09-10T09:46:59.873Z</time>
      </trkpt>
      <trkpt lat="48.665347" lon="16.580589">
        <ele>285.075489</ele>
        <time>2020-09-10T09:47:01.873Z</time>
      </trkpt>
      <trkpt lat="48.665321" lon="16.580744">
        <ele>285.012191</ele>
        <time>2020-09-10T09:47:03.861Z</time>
      </trkpt>
      <trkpt lat="48.665302" lon="16.580902">
        <ele>284.948625</ele>
        <time>2020-09-10T09:47:05.884Z</time>
      </trkpt>
      <trkpt lat="48.665282" lon="16.581068">
        <ele>284.881836</ele>
        <time>2020-09-10T09:47:07.853Z</time>
      </trkpt>
      <trkpt lat="48.665258" lon="16.581233">
        <ele>284.814963</ele>
        <time>2020-09-10T09:47:09.871Z</time>
      </trkpt>
      <trkpt lat="48.665235" lon="16.581396">
        <ele>284.748990</ele>
        <time>2020-09-10T09:47:11.870Z</time>
      </trkpt>
      <trkpt lat="48.665212" lon="16.581562">
        <ele>284.681856</ele>
        <time>2020-09-10T09:47:13.856Z</time>
      </trkpt>
      <trkpt lat="48.665188" lon="16.581731">
        <ele>284.613435</ele>
        <time>2020-09-10T09:47:15.901Z</time>
      </trkpt>
      <trkpt lat="48.665164" lon="16.581904">
        <ele>284.542844</ele>
        <time>2020-09-10T09:47:17.878Z</time>
      </trkpt>
      <trkpt lat="48.665145" lon="16.582076">
        <ele>284.433897</ele>
        <time>2020-09-10T09:47:19.857Z</time>
      </trkpt>
      <trkpt lat="48.665136" lon="16.582250">
        <ele>284.324859</ele>
        <time>2020-09-10T09:47:21.866Z</time>
      </trkpt>
      <trkpt lat="48.665125" lon="16.582433">
        <ele>284.210060</ele>
        <time>2020-09-10T09:47:23.861Z</time>
      </trkpt>
      <trkpt lat="48.665119" lon="16.582624">
        <ele>284.090599</ele>
        <time>2020-09-10T09:47:25.859Z</time>
      </trkpt>
      <trkpt lat="48.665118" lon="16.582821">
        <ele>283.967522</ele>
        <time>2020-09-10T09:47:27.887Z</time>
      </trkpt>
      <trkpt lat="48.665115" lon="16.583023">
        <ele>283.841293</ele>
        <time>2020-09-10T09:47:29.880Z</time>
      </trkpt>
      <trkpt lat="48.665112" lon="16.583230">
        <ele>283.711941</ele>
        <time>2020-09-10T09:47:31.860Z</time>
      </trkpt>
      <trkpt lat="48.665114" lon="16.583444">
        <ele>283.578233</ele>
        <time>2020-09-10T09:47:33.861Z</time>
      </trkpt>
      <trkpt lat="48.665112" lon="16.583661">
        <ele>283.442652</ele>
        <time>2020-09-10T09:47:35.857Z</time>
      </trkpt>
      <trkpt lat="48.665107" lon="16.583879">
        <ele>283.306376</ele>
        <time>2020-09-10T09:47:37.868Z</time>
      </trkpt>
      <trkpt lat="48.665106" lon="16.584098">
        <ele>283.169555</ele>
        <time>2020-09-10T09:47:39.855Z</time>
      </trkpt>
      <trkpt lat="48.665104" lon="16.584315">
        <ele>283.033974</ele>
        <time>2020-09-10T09:47:41.868Z</time>
      </trkpt>
      <trkpt lat="48.665072" lon="16.584522">
        <ele>282.901157</ele>
        <time>2020-09-10T09:47:43.878Z</time>
      </trkpt>
      <trkpt lat="48.665024" lon="16.584719">
        <ele>282.753488</ele>
        <time>2020-09-10T09:47:45.875Z</time>
      </trkpt>
      <trkpt lat="48.664966" lon="16.584898">
        <ele>282.600870</ele>
        <time>2020-09-10T09:47:47.844Z</time>
      </trkpt>
      <trkpt lat="48.664902" lon="16.585077">
        <ele>282.445063</ele>
        <time>2020-09-10T09:47:49.872Z</time>
      </trkpt>
      <trkpt lat="48.664841" lon="16.585256">
        <ele>282.290882</ele>
        <time>2020-09-10T09:47:51.873Z</time>
      </trkpt>
      <trkpt lat="48.664790" lon="16.585439">
        <ele>282.138842</ele>
        <time>2020-09-10T09:47:53.869Z</time>
      </trkpt>
      <trkpt lat="48.664751" lon="16.585629">
        <ele>281.986542</ele>
        <time>2020-09-10T09:47:55.874Z</time>
      </trkpt>
      <trkpt lat="48.664717" lon="16.585831">
        <ele>281.826976</ele>
        <time>2020-09-10T09:47:57.865Z</time>
      </trkpt>
      <trkpt lat="48.664690" lon="16.586046">
        <ele>281.659453</ele>
        <time>2020-09-10T09:47:59.865Z</time>
      </trkpt>
      <trkpt lat="48.664655" lon="16.586266">
        <ele>281.486234</ele>
        <time>2020-09-10T09:48:01.861Z</time>
      </trkpt>
      <trkpt lat="48.664614" lon="16.586489">
        <ele>281.309045</ele>
        <time>2020-09-10T09:48:03.875Z</time>
      </trkpt>
      <trkpt lat="48.664559" lon="16.586713">
        <ele>281.126115</ele>
        <time>2020-09-10T09:48:05.858Z</time>
      </trkpt>
      <trkpt lat="48.664490" lon="16.586931">
        <ele>280.941071</ele>
        <time>2020-09-10T09:48:07.853Z</time>
      </trkpt>
      <trkpt lat="48.664410" lon="16.587133">
        <ele>280.760779</ele>
        <time>2020-09-10T09:48:09.877Z</time>
      </trkpt>
      <trkpt lat="48.664320" lon="16.587324">
        <ele>280.511245</ele>
        <time>2020-09-10T09:48:11.859Z</time>
      </trkpt>
      <trkpt lat="48.664234" lon="16.587515">
        <ele>280.264544</ele>
        <time>2020-09-10T09:48:13.898Z</time>
      </trkpt>
      <trkpt lat="48.664150" lon="16.587702">
        <ele>280.023190</ele>
        <time>2020-09-10T09:48:15.882Z</time>
      </trkpt>
      <trkpt lat="48.664069" lon="16.587877">
        <ele>279.795129</ele>
        <time>2020-09-10T09:48:17.857Z</time>
      </trkpt>
      <trkpt lat="48.663989" lon="16.588046">
        <ele>279.573226</ele>
        <time>2020-09-10T09:48:19.895Z</time>
      </trkpt>
      <trkpt lat="48.663910" lon="16.588216">
        <ele>279.351389</ele>
        <time>2020-09-10T09:48:21.850Z</time>
      </trkpt>
      <trkpt lat="48.663840" lon="16.588397">
        <ele>279.127541</ele>
        <time>2020-09-10T09:48:23.883Z</time>
      </trkpt>
      <trkpt lat="48.663773" lon="16.588576">
        <ele>278.907962</ele>
        <time>2020-09-10T09:48:25.857Z</time>
      </trkpt>
      <trkpt lat="48.663701" lon="16.588747">
        <ele>278.691535</ele>
        <time>2020-09-10T09:48:27.853Z</time>
      </trkpt>
      <trkpt lat="48.663631" lon="16.588907">
        <ele>278.486713</ele>
        <time>2020-09-10T09:48:29.849Z</time>
      </trkpt>
      <trkpt lat="48.663566" lon="16.589076">
        <ele>278.277997</ele>
        <time>2020-09-10T09:48:31.874Z</time>
      </trkpt>
      <trkpt lat="48.663508" lon="16.589253">
        <ele>278.067125</ele>
        <time>2020-09-10T09:48:33.859Z</time>
      </trkpt>
      <trkpt lat="48.663451" lon="16.589413">
        <ele>277.873110</ele>
        <time>2020-09-10T09:48:35.876Z</time>
      </trkpt>
      <trkpt lat="48.663383" lon="16.589559">
        <ele>277.731457</ele>
        <time>2020-09-10T09:48:37.863Z</time>
      </trkpt>
      <trkpt lat="48.663279" lon="16.589606">
        <ele>277.606704</ele>
        <time>2020-09-10T09:48:39.845Z</time>
      </trkpt>
      <trkpt lat="48.663159" lon="16.589567">
        <ele>277.465629</ele>
        <time>2020-09-10T09:48:41.878Z</time>
      </trkpt>
      <trkpt lat="48.663048" lon="16.589515">
        <ele>277.332073</ele>
        <time>2020-09-10T09:48:43.893Z</time>
      </trkpt>
      <trkpt lat="48.662948" lon="16.589454">
        <ele>277.208150</ele>
        <time>2020-09-10T09:48:45.848Z</time>
      </trkpt>
      <trkpt lat="48.662851" lon="16.589398">
        <ele>277.088824</ele>
        <time>2020-09-10T09:48:47.852Z</time>
      </trkpt>
      <trkpt lat="48.662757" lon="16.589333">
        <ele>276.970040</ele>
        <time>2020-09-10T09:48:49.850Z</time>
      </trkpt>
      <trkpt lat="48.662667" lon="16.589256">
        <ele>276.851216</ele>
        <time>2020-09-10T09:48:51.873Z</time>
      </trkpt>
      <trkpt lat="48.662581" lon="16.589172">
        <ele>276.733578</ele>
        <time>2020-09-10T09:48:53.854Z</time>
      </trkpt>
      <trkpt lat="48.662499" lon="16.589096">
        <ele>276.623066</ele>
        <time>2020-09-10T09:48:55.863Z</time>
      </trkpt>
      <trkpt lat="48.662416" lon="16.589020">
        <ele>276.511571</ele>
        <time>2020-09-10T09:48:57.859Z</time>
      </trkpt>
      <trkpt lat="48.662334" lon="16.588952">
        <ele>276.404105</ele>
        <time>2020-09-10T09:48:59.877Z</time>
      </trkpt>
      <trkpt lat="48.662253" lon="16.588887">
        <ele>276.298730</ele>
        <time>2020-09-10T09:49:01.866Z</time>
      </trkpt>
      <trkpt lat="48.662173" lon="16.588822">
        <ele>276.194370</ele>
        <time>2020-09-10T09:49:03.866Z</time>
      </trkpt>
      <trkpt lat="48.662090" lon="16.588762">
        <ele>276.088650</ele>
        <time>2020-09-10T09:49:05.846Z</time>
      </trkpt>
      <trkpt lat="48.662006" lon="16.588708">
        <ele>275.983753</ele>
        <time>2020-09-10T09:49:07.848Z</time>
      </trkpt>
      <trkpt lat="48.661885" lon="16.588626">
        <ele>275.831374</ele>
        <time>2020-09-10T09:49:10.854Z</time>
      </trkpt>
      <trkpt lat="48.661758" lon="16.588562">
        <ele>275.715446</ele>
        <time>2020-09-10T09:49:13.859Z</time>
      </trkpt>
      <trkpt lat="48.661632" lon="16.588513">
        <ele>275.618775</ele>
        <time>2020-09-10T09:49:16.867Z</time>
      </trkpt>
      <trkpt lat="48.661504" lon="16.588468">
        <ele>275.521128</ele>
        <time>2020-09-10T09:49:19.863Z</time>
      </trkpt>
      <trkpt lat="48.661413" lon="16.588443">
        <ele>275.452401</ele>
        <time>2020-09-10T09:49:21.876Z</time>
      </trkpt>
      <trkpt lat="48.661281" lon="16.588408">
        <ele>275.352818</ele>
        <time>2020-09-10T09:49:24.890Z</time>
      </trkpt>
      <trkpt lat="48.661149" lon="16.588378">
        <ele>275.253630</ele>
        <time>2020-09-10T09:49:27.860Z</time>
      </trkpt>
      <trkpt lat="48.661059" lon="16.588354">
        <ele>275.185721</ele>
        <time>2020-09-10T09:49:29.866Z</time>
      </trkpt>
      <trkpt lat="48.660932" lon="16.588319">
        <ele>275.089796</ele>
        <time>2020-09-10T09:49:32.875Z</time>
      </trkpt>
      <trkpt lat="48.660799" lon="16.588273">
        <ele>274.988417</ele>
        <time>2020-09-10T09:49:35.857Z</time>
      </trkpt>
      <trkpt lat="48.660709" lon="16.588243">
        <ele>274.919936</ele>
        <time>2020-09-10T09:49:37.883Z</time>
      </trkpt>
      <trkpt lat="48.660582" lon="16.588194">
        <ele>274.822546</ele>
        <time>2020-09-10T09:49:40.877Z</time>
      </trkpt>
      <trkpt lat="48.660455" lon="16.588149">
        <ele>274.725621</ele>
        <time>2020-09-10T09:49:43.893Z</time>
      </trkpt>
      <trkpt lat="48.660323" lon="16.588112">
        <ele>274.625865</ele>
        <time>2020-09-10T09:49:46.874Z</time>
      </trkpt>
      <trkpt lat="48.660233" lon="16.588086">
        <ele>274.557779</ele>
        <time>2020-09-10T09:49:48.866Z</time>
      </trkpt>
      <trkpt lat="48.660105" lon="16.588050">
        <ele>274.461034</ele>
        <time>2020-09-10T09:49:51.858Z</time>
      </trkpt>
      <trkpt lat="48.659980" lon="16.588015">
        <ele>274.396297</ele>
        <time>2020-09-10T09:49:54.865Z</time>
      </trkpt>
      <trkpt lat="48.659856" lon="16.587977">
        <ele>274.336509</ele>
        <time>2020-09-10T09:49:57.865Z</time>
      </trkpt>
      <trkpt lat="48.659744" lon="16.587939">
        <ele>274.282267</ele>
        <time>2020-09-10T09:50:00.884Z</time>
      </trkpt>
      <trkpt lat="48.659636" lon="16.587891">
        <ele>274.229074</ele>
        <time>2020-09-10T09:50:03.883Z</time>
      </trkpt>
      <trkpt lat="48.659534" lon="16.587854">
        <ele>274.179507</ele>
        <time>2020-09-10T09:50:06.871Z</time>
      </trkpt>
      <trkpt lat="48.659424" lon="16.587817">
        <ele>274.126255</ele>
        <time>2020-09-10T09:50:09.878Z</time>
      </trkpt>
      <trkpt lat="48.659312" lon="16.587773">
        <ele>274.071573</ele>
        <time>2020-09-10T09:50:12.858Z</time>
      </trkpt>
      <trkpt lat="48.659204" lon="16.587719">
        <ele>274.017823</ele>
        <time>2020-09-10T09:50:15.888Z</time>
      </trkpt>
      <trkpt lat="48.659095" lon="16.587670">
        <ele>273.964089</ele>
        <time>2020-09-10T09:50:18.866Z</time>
      </trkpt>
      <trkpt lat="48.658987" lon="16.587636">
        <ele>273.911958</ele>
        <time>2020-09-10T09:50:21.860Z</time>
      </trkpt>
      <trkpt lat="48.658886" lon="16.587590">
        <ele>273.862114</ele>
        <time>2020-09-10T09:50:24.853Z</time>
      </trkpt>
      <trkpt lat="48.658786" lon="16.587546">
        <ele>273.812901</ele>
        <time>2020-09-10T09:50:27.847Z</time>
      </trkpt>
      <trkpt lat="48.658687" lon="16.587503">
        <ele>273.764228</ele>
        <time>2020-09-10T09:50:30.859Z</time>
      </trkpt>
      <trkpt lat="48.658586" lon="16.587456">
        <ele>273.714293</ele>
        <time>2020-09-10T09:50:33.890Z</time>
      </trkpt>
      <trkpt lat="48.658490" lon="16.587419">
        <ele>273.667478</ele>
        <time>2020-09-10T09:50:36.856Z</time>
      </trkpt>
      <trkpt lat="48.658397" lon="16.587377">
        <ele>273.621614</ele>
        <time>2020-09-10T09:50:39.864Z</time>
      </trkpt>
      <trkpt lat="48.658308" lon="16.587338">
        <ele>273.576466</ele>
        <time>2020-09-10T09:50:42.854Z</time>
      </trkpt>
      <trkpt lat="48.658201" lon="16.587292">
        <ele>273.520389</ele>
        <time>2020-09-10T09:50:46.861Z</time>
      </trkpt>
      <trkpt lat="48.658110" lon="16.587241">
        <ele>273.471468</ele>
        <time>2020-09-10T09:50:50.867Z</time>
      </trkpt>
      <trkpt lat="48.658021" lon="16.587195">
        <ele>273.424056</ele>
        <time>2020-09-10T09:50:54.891Z</time>
      </trkpt>
      <trkpt lat="48.657932" lon="16.587149">
        <ele>273.376644</ele>
        <time>2020-09-10T09:50:58.890Z</time>
      </trkpt>
      <trkpt lat="48.657841" lon="16.587094">
        <ele>273.327245</ele>
        <time>2020-09-10T09:51:02.860Z</time>
      </trkpt>
      <trkpt lat="48.657749" lon="16.587052">
        <ele>273.278800</ele>
        <time>2020-09-10T09:51:06.876Z</time>
      </trkpt>
      <trkpt lat="48.657641" lon="16.587013">
        <ele>273.222824</ele>
        <time>2020-09-10T09:51:11.874Z</time>
      </trkpt>
      <trkpt lat="48.657602" lon="16.586880">
        <ele>273.174364</ele>
        <time>2020-09-10T09:52:51.849Z</time>
      </trkpt>
      <trkpt lat="48.657603" lon="16.587019">
        <ele>273.128072</ele>
        <time>2020-09-10T09:53:29.856Z</time>
      </trkpt>
      <trkpt lat="48.657449" lon="16.586946">
        <ele>273.046716</ele>
        <time>2020-09-10T10:05:36.871Z</time>
      </trkpt>
      <trkpt lat="48.657538" lon="16.587009">
        <ele>272.997183</ele>
        <time>2020-09-10T10:05:48.884Z</time>
      </trkpt>
      <trkpt lat="48.657431" lon="16.586953">
        <ele>272.940107</ele>
        <time>2020-09-10T10:06:18.862Z</time>
      </trkpt>
      <trkpt lat="48.657339" lon="16.586910">
        <ele>272.891564</ele>
        <time>2020-09-10T10:06:22.872Z</time>
      </trkpt>
      <trkpt lat="48.657236" lon="16.586867">
        <ele>272.837699</ele>
        <time>2020-09-10T10:06:26.866Z</time>
      </trkpt>
      <trkpt lat="48.657139" lon="16.586829">
        <ele>272.787185</ele>
        <time>2020-09-10T10:06:30.877Z</time>
      </trkpt>
      <trkpt lat="48.657026" lon="16.586792">
        <ele>272.728899</ele>
        <time>2020-09-10T10:06:34.874Z</time>
      </trkpt>
      <trkpt lat="48.656924" lon="16.586758">
        <ele>272.693652</ele>
        <time>2020-09-10T10:06:38.880Z</time>
      </trkpt>
      <trkpt lat="48.656826" lon="16.586725">
        <ele>272.701035</ele>
        <time>2020-09-10T10:06:42.872Z</time>
      </trkpt>
      <trkpt lat="48.656724" lon="16.586667">
        <ele>272.709049</ele>
        <time>2020-09-10T10:06:46.860Z</time>
      </trkpt>
      <trkpt lat="48.656623" lon="16.586619">
        <ele>272.716835</ele>
        <time>2020-09-10T10:06:50.867Z</time>
      </trkpt>
      <trkpt lat="48.656525" lon="16.586572">
        <ele>272.724395</ele>
        <time>2020-09-10T10:06:53.882Z</time>
      </trkpt>
      <trkpt lat="48.656419" lon="16.586511">
        <ele>272.732735</ele>
        <time>2020-09-10T10:06:56.855Z</time>
      </trkpt>
      <trkpt lat="48.656312" lon="16.586466">
        <ele>272.740903</ele>
        <time>2020-09-10T10:06:59.864Z</time>
      </trkpt>
      <trkpt lat="48.656206" lon="16.586422">
        <ele>272.748987</ele>
        <time>2020-09-10T10:07:02.866Z</time>
      </trkpt>
      <trkpt lat="48.656104" lon="16.586379">
        <ele>272.756774</ele>
        <time>2020-09-10T10:07:05.849Z</time>
      </trkpt>
      <trkpt lat="48.656000" lon="16.586335">
        <ele>272.764716</ele>
        <time>2020-09-10T10:07:08.869Z</time>
      </trkpt>
      <trkpt lat="48.655895" lon="16.586306">
        <ele>272.772566</ele>
        <time>2020-09-10T10:07:11.847Z</time>
      </trkpt>
      <trkpt lat="48.655800" lon="16.586273">
        <ele>272.779734</ele>
        <time>2020-09-10T10:07:14.872Z</time>
      </trkpt>
      <trkpt lat="48.655694" lon="16.586238">
        <ele>272.787714</ele>
        <time>2020-09-10T10:07:17.902Z</time>
      </trkpt>
      <trkpt lat="48.655571" lon="16.586185">
        <ele>272.797119</ele>
        <time>2020-09-10T10:07:20.867Z</time>
      </trkpt>
      <trkpt lat="48.655473" lon="16.586143">
        <ele>272.804610</ele>
        <time>2020-09-10T10:07:22.849Z</time>
      </trkpt>
      <trkpt lat="48.655364" lon="16.586092">
        <ele>272.813001</ele>
        <time>2020-09-10T10:07:24.850Z</time>
      </trkpt>
      <trkpt lat="48.655251" lon="16.586034">
        <ele>272.821777</ele>
        <time>2020-09-10T10:07:26.843Z</time>
      </trkpt>
      <trkpt lat="48.655141" lon="16.585956">
        <ele>272.892685</ele>
        <time>2020-09-10T10:07:28.850Z</time>
      </trkpt>
      <trkpt lat="48.655038" lon="16.585853">
        <ele>272.982258</ele>
        <time>2020-09-10T10:07:30.868Z</time>
      </trkpt>
      <trkpt lat="48.654955" lon="16.585715">
        <ele>273.071716</ele>
        <time>2020-09-10T10:07:32.865Z</time>
      </trkpt>
      <trkpt lat="48.654897" lon="16.585558">
        <ele>273.157940</ele>
        <time>2020-09-10T10:07:34.849Z</time>
      </trkpt>
      <trkpt lat="48.654852" lon="16.585404">
        <ele>273.238657</ele>
        <time>2020-09-10T10:07:36.852Z</time>
      </trkpt>
      <trkpt lat="48.654820" lon="16.585241">
        <ele>273.320166</ele>
        <time>2020-09-10T10:07:38.850Z</time>
      </trkpt>
      <trkpt lat="48.654800" lon="16.585092">
        <ele>273.393046</ele>
        <time>2020-09-10T10:07:40.869Z</time>
      </trkpt>
      <trkpt lat="48.654782" lon="16.584949">
        <ele>273.462824</ele>
        <time>2020-09-10T10:07:42.858Z</time>
      </trkpt>
      <trkpt lat="48.654762" lon="16.584806">
        <ele>273.532889</ele>
        <time>2020-09-10T10:07:44.854Z</time>
      </trkpt>
      <trkpt lat="48.654740" lon="16.584672">
        <ele>273.599074</ele>
        <time>2020-09-10T10:07:46.852Z</time>
      </trkpt>
      <trkpt lat="48.654714" lon="16.584479">
        <ele>273.693490</ele>
        <time>2020-09-10T10:07:49.854Z</time>
      </trkpt>
      <trkpt lat="48.654689" lon="16.584288">
        <ele>273.786823</ele>
        <time>2020-09-10T10:07:52.859Z</time>
      </trkpt>
      <trkpt lat="48.654661" lon="16.584118">
        <ele>273.870805</ele>
        <time>2020-09-10T10:07:55.850Z</time>
      </trkpt>
      <trkpt lat="48.654635" lon="16.583945">
        <ele>273.955849</ele>
        <time>2020-09-10T10:07:58.852Z</time>
      </trkpt>
      <trkpt lat="48.654594" lon="16.583775">
        <ele>274.042597</ele>
        <time>2020-09-10T10:08:01.853Z</time>
      </trkpt>
      <trkpt lat="48.654552" lon="16.583609">
        <ele>274.127804</ele>
        <time>2020-09-10T10:08:04.859Z</time>
      </trkpt>
      <trkpt lat="48.654473" lon="16.583466">
        <ele>274.221400</ele>
        <time>2020-09-10T10:08:07.864Z</time>
      </trkpt>
      <trkpt lat="48.654378" lon="16.583345">
        <ele>274.315813</ele>
        <time>2020-09-10T10:08:10.854Z</time>
      </trkpt>
      <trkpt lat="48.654305" lon="16.583261">
        <ele>274.385543</ele>
        <time>2020-09-10T10:08:12.859Z</time>
      </trkpt>
      <trkpt lat="48.654216" lon="16.583189">
        <ele>274.462282</ele>
        <time>2020-09-10T10:08:14.845Z</time>
      </trkpt>
      <trkpt lat="48.654119" lon="16.583125">
        <ele>274.542747</ele>
        <time>2020-09-10T10:08:16.879Z</time>
      </trkpt>
      <trkpt lat="48.654023" lon="16.583068">
        <ele>274.621165</ele>
        <time>2020-09-10T10:08:18.879Z</time>
      </trkpt>
      <trkpt lat="48.653927" lon="16.583018">
        <ele>274.698369</ele>
        <time>2020-09-10T10:08:20.861Z</time>
      </trkpt>
      <trkpt lat="48.653832" lon="16.582983">
        <ele>274.772720</ele>
        <time>2020-09-10T10:08:22.891Z</time>
      </trkpt>
      <trkpt lat="48.653738" lon="16.582954">
        <ele>274.845672</ele>
        <time>2020-09-10T10:08:24.861Z</time>
      </trkpt>
      <trkpt lat="48.653644" lon="16.582924">
        <ele>274.918726</ele>
        <time>2020-09-10T10:08:26.883Z</time>
      </trkpt>
      <trkpt lat="48.653552" lon="16.582900">
        <ele>274.989718</ele>
        <time>2020-09-10T10:08:28.885Z</time>
      </trkpt>
      <trkpt lat="48.653460" lon="16.582880">
        <ele>275.060397</ele>
        <time>2020-09-10T10:08:30.862Z</time>
      </trkpt>
      <trkpt lat="48.653327" lon="16.582858">
        <ele>275.162139</ele>
        <time>2020-09-10T10:08:33.852Z</time>
      </trkpt>
      <trkpt lat="48.653237" lon="16.582845">
        <ele>275.230891</ele>
        <time>2020-09-10T10:08:35.860Z</time>
      </trkpt>
      <trkpt lat="48.653147" lon="16.582829">
        <ele>275.299801</ele>
        <time>2020-09-10T10:08:37.874Z</time>
      </trkpt>
      <trkpt lat="48.653056" lon="16.582823">
        <ele>275.369068</ele>
        <time>2020-09-10T10:08:39.890Z</time>
      </trkpt>
      <trkpt lat="48.652922" lon="16.582825">
        <ele>275.470973</ele>
        <time>2020-09-10T10:08:42.862Z</time>
      </trkpt>
      <trkpt lat="48.652831" lon="16.582827">
        <ele>275.544153</ele>
        <time>2020-09-10T10:08:44.879Z</time>
      </trkpt>
      <trkpt lat="48.652737" lon="16.582828">
        <ele>275.622154</ele>
        <time>2020-09-10T10:08:46.861Z</time>
      </trkpt>
      <trkpt lat="48.652640" lon="16.582841">
        <ele>275.702957</ele>
        <time>2020-09-10T10:08:48.867Z</time>
      </trkpt>
      <trkpt lat="48.652541" lon="16.582871">
        <ele>275.786735</ele>
        <time>2020-09-10T10:08:50.853Z</time>
      </trkpt>
      <trkpt lat="48.652444" lon="16.582895">
        <ele>275.868292</ele>
        <time>2020-09-10T10:08:52.864Z</time>
      </trkpt>
      <trkpt lat="48.652344" lon="16.582921">
        <ele>275.952485</ele>
        <time>2020-09-10T10:08:54.856Z</time>
      </trkpt>
      <trkpt lat="48.652246" lon="16.582953">
        <ele>276.035674</ele>
        <time>2020-09-10T10:08:56.856Z</time>
      </trkpt>
      <trkpt lat="48.652143" lon="16.582993">
        <ele>276.123909</ele>
        <time>2020-09-10T10:08:58.888Z</time>
      </trkpt>
      <trkpt lat="48.652049" lon="16.583036">
        <ele>276.205392</ele>
        <time>2020-09-10T10:09:00.876Z</time>
      </trkpt>
      <trkpt lat="48.651953" lon="16.583068">
        <ele>276.286959</ele>
        <time>2020-09-10T10:09:02.888Z</time>
      </trkpt>
      <trkpt lat="48.651851" lon="16.583102">
        <ele>276.373624</ele>
        <time>2020-09-10T10:09:04.893Z</time>
      </trkpt>
      <trkpt lat="48.651754" lon="16.583142">
        <ele>276.457046</ele>
        <time>2020-09-10T10:09:06.881Z</time>
      </trkpt>
      <trkpt lat="48.651656" lon="16.583173">
        <ele>276.540121</ele>
        <time>2020-09-10T10:09:08.873Z</time>
      </trkpt>
      <trkpt lat="48.651562" lon="16.583199">
        <ele>276.619412</ele>
        <time>2020-09-10T10:09:10.860Z</time>
      </trkpt>
      <trkpt lat="48.651467" lon="16.583223">
        <ele>276.699331</ele>
        <time>2020-09-10T10:09:12.882Z</time>
      </trkpt>
      <trkpt lat="48.651364" lon="16.583254">
        <ele>276.786471</ele>
        <time>2020-09-10T10:09:14.887Z</time>
      </trkpt>
      <trkpt lat="48.651261" lon="16.583284">
        <ele>276.873506</ele>
        <time>2020-09-10T10:09:16.888Z</time>
      </trkpt>
      <trkpt lat="48.651158" lon="16.583309">
        <ele>276.960065</ele>
        <time>2020-09-10T10:09:18.878Z</time>
      </trkpt>
      <trkpt lat="48.651057" lon="16.583330">
        <ele>277.004468</ele>
        <time>2020-09-10T10:09:20.862Z</time>
      </trkpt>
      <trkpt lat="48.650957" lon="16.583349">
        <ele>277.027611</ele>
        <time>2020-09-10T10:09:22.853Z</time>
      </trkpt>
      <trkpt lat="48.650854" lon="16.583371">
        <ele>277.051496</ele>
        <time>2020-09-10T10:09:24.865Z</time>
      </trkpt>
      <trkpt lat="48.650755" lon="16.583394">
        <ele>277.074495</ele>
        <time>2020-09-10T10:09:26.879Z</time>
      </trkpt>
      <trkpt lat="48.650660" lon="16.583415">
        <ele>277.096541</ele>
        <time>2020-09-10T10:09:28.865Z</time>
      </trkpt>
      <trkpt lat="48.650567" lon="16.583434">
        <ele>277.118089</ele>
        <time>2020-09-10T10:09:30.858Z</time>
      </trkpt>
      <trkpt lat="48.650435" lon="16.583456">
        <ele>277.148583</ele>
        <time>2020-09-10T10:09:33.870Z</time>
      </trkpt>
      <trkpt lat="48.650343" lon="16.583476">
        <ele>277.169925</ele>
        <time>2020-09-10T10:09:35.861Z</time>
      </trkpt>
      <trkpt lat="48.650250" lon="16.583493">
        <ele>277.191435</ele>
        <time>2020-09-10T10:09:37.850Z</time>
      </trkpt>
      <trkpt lat="48.650158" lon="16.583508">
        <ele>277.212682</ele>
        <time>2020-09-10T10:09:39.867Z</time>
      </trkpt>
      <trkpt lat="48.650064" lon="16.583521">
        <ele>277.234357</ele>
        <time>2020-09-10T10:09:41.855Z</time>
      </trkpt>
      <trkpt lat="48.649972" lon="16.583531">
        <ele>277.255537</ele>
        <time>2020-09-10T10:09:43.864Z</time>
      </trkpt>
      <trkpt lat="48.649840" lon="16.583534">
        <ele>277.285850</ele>
        <time>2020-09-10T10:09:46.858Z</time>
      </trkpt>
      <trkpt lat="48.649712" lon="16.583545">
        <ele>277.315289</ele>
        <time>2020-09-10T10:09:49.872Z</time>
      </trkpt>
      <trkpt lat="48.649579" lon="16.583549">
        <ele>277.345835</ele>
        <time>2020-09-10T10:09:52.860Z</time>
      </trkpt>
      <trkpt lat="48.649448" lon="16.583556">
        <ele>277.375935</ele>
        <time>2020-09-10T10:09:55.858Z</time>
      </trkpt>
      <trkpt lat="48.649318" lon="16.583568">
        <ele>277.411500</ele>
        <time>2020-09-10T10:09:58.858Z</time>
      </trkpt>
      <trkpt lat="48.649212" lon="16.583620">
        <ele>277.475796</ele>
        <time>2020-09-10T10:10:01.860Z</time>
      </trkpt>
      <trkpt lat="48.649188" lon="16.583772">
        <ele>277.535373</ele>
        <time>2020-09-10T10:10:04.860Z</time>
      </trkpt>
      <trkpt lat="48.649199" lon="16.583936">
        <ele>277.598214</ele>
        <time>2020-09-10T10:10:08.851Z</time>
      </trkpt>
      <trkpt lat="48.649218" lon="16.584073">
        <ele>277.651579</ele>
        <time>2020-09-10T10:10:11.853Z</time>
      </trkpt>
      <trkpt lat="48.649235" lon="16.584219">
        <ele>277.708095</ele>
        <time>2020-09-10T10:10:14.854Z</time>
      </trkpt>
      <trkpt lat="48.649254" lon="16.584361">
        <ele>277.763327</ele>
        <time>2020-09-10T10:10:17.857Z</time>
      </trkpt>
      <trkpt lat="48.649270" lon="16.584522">
        <ele>277.825393</ele>
        <time>2020-09-10T10:10:21.858Z</time>
      </trkpt>
      <trkpt lat="48.649283" lon="16.584679">
        <ele>277.885712</ele>
        <time>2020-09-10T10:10:25.861Z</time>
      </trkpt>
      <trkpt lat="48.649289" lon="16.584819">
        <ele>277.939195</ele>
        <time>2020-09-10T10:10:29.861Z</time>
      </trkpt>
      <trkpt lat="48.649287" lon="16.584964">
        <ele>277.994483</ele>
        <time>2020-09-10T10:10:33.856Z</time>
      </trkpt>
      <trkpt lat="48.649287" lon="16.585102">
        <ele>278.047091</ele>
        <time>2020-09-10T10:10:37.858Z</time>
      </trkpt>
      <trkpt lat="48.649275" lon="16.585240">
        <ele>278.100153</ele>
        <time>2020-09-10T10:10:41.860Z</time>
      </trkpt>
      <trkpt lat="48.649281" lon="16.585393">
        <ele>278.158582</ele>
        <time>2020-09-10T10:10:46.846Z</time>
      </trkpt>
      <trkpt lat="48.649265" lon="16.585560">
        <ele>278.222911</ele>
        <time>2020-09-10T10:10:51.859Z</time>
      </trkpt>
      <trkpt lat="48.649254" lon="16.585703">
        <ele>278.277793</ele>
        <time>2020-09-10T10:10:56.910Z</time>
      </trkpt>
      <trkpt lat="48.649247" lon="16.585839">
        <ele>278.329796</ele>
        <time>2020-09-10T10:11:01.859Z</time>
      </trkpt>
      <trkpt lat="48.649236" lon="16.585975">
        <ele>278.382028</ele>
        <time>2020-09-10T10:11:05.896Z</time>
      </trkpt>
      <trkpt lat="48.649240" lon="16.586127">
        <ele>278.440193</ele>
        <time>2020-09-10T10:11:10.862Z</time>
      </trkpt>
      <trkpt lat="48.649242" lon="16.586288">
        <ele>278.658546</ele>
        <time>2020-09-10T10:11:15.866Z</time>
      </trkpt>
      <trkpt lat="48.649244" lon="16.586427">
        <ele>278.847074</ele>
        <time>2020-09-10T10:11:19.871Z</time>
      </trkpt>
      <trkpt lat="48.649251" lon="16.586589">
        <ele>279.067214</ele>
        <time>2020-09-10T10:11:24.877Z</time>
      </trkpt>
      <trkpt lat="48.649259" lon="16.586726">
        <ele>279.253709</ele>
        <time>2020-09-10T10:11:28.843Z</time>
      </trkpt>
      <trkpt lat="48.649266" lon="16.586869">
        <ele>279.448147</ele>
        <time>2020-09-10T10:11:33.847Z</time>
      </trkpt>
      <trkpt lat="48.649277" lon="16.587024">
        <ele>279.659534</ele>
        <time>2020-09-10T10:11:38.884Z</time>
      </trkpt>
      <trkpt lat="48.649293" lon="16.587186">
        <ele>279.881646</ele>
        <time>2020-09-10T10:11:43.843Z</time>
      </trkpt>
      <trkpt lat="48.649298" lon="16.587336">
        <ele>280.085303</ele>
        <time>2020-09-10T10:11:48.850Z</time>
      </trkpt>
      <trkpt lat="48.649305" lon="16.587500">
        <ele>280.308149</ele>
        <time>2020-09-10T10:11:52.846Z</time>
      </trkpt>
      <trkpt lat="48.649312" lon="16.587661">
        <ele>280.526935</ele>
        <time>2020-09-10T10:11:55.853Z</time>
      </trkpt>
      <trkpt lat="48.649316" lon="16.587805">
        <ele>280.722370</ele>
        <time>2020-09-10T10:11:58.845Z</time>
      </trkpt>
      <trkpt lat="48.649321" lon="16.587941">
        <ele>280.907070</ele>
        <time>2020-09-10T10:12:01.847Z</time>
      </trkpt>
      <trkpt lat="48.649326" lon="16.588082">
        <ele>281.098540</ele>
        <time>2020-09-10T10:12:04.882Z</time>
      </trkpt>
      <trkpt lat="48.649326" lon="16.588240">
        <ele>281.312786</ele>
        <time>2020-09-10T10:12:08.870Z</time>
      </trkpt>
      <trkpt lat="48.649328" lon="16.588400">
        <ele>281.529783</ele>
        <time>2020-09-10T10:12:12.885Z</time>
      </trkpt>
      <trkpt lat="48.649327" lon="16.588560">
        <ele>281.746751</ele>
        <time>2020-09-10T10:12:16.897Z</time>
      </trkpt>
      <trkpt lat="48.649335" lon="16.588724">
        <ele>281.969739</ele>
        <time>2020-09-10T10:12:20.876Z</time>
      </trkpt>
      <trkpt lat="48.649336" lon="16.588881">
        <ele>282.176043</ele>
        <time>2020-09-10T10:12:24.860Z</time>
      </trkpt>
      <trkpt lat="48.649336" lon="16.589050">
        <ele>282.375594</ele>
        <time>2020-09-10T10:12:28.847Z</time>
      </trkpt>
      <trkpt lat="48.649334" lon="16.589216">
        <ele>282.571636</ele>
        <time>2020-09-10T10:12:32.860Z</time>
      </trkpt>
      <trkpt lat="48.649338" lon="16.589389">
        <ele>282.776036</ele>
        <time>2020-09-10T10:12:36.884Z</time>
      </trkpt>
      <trkpt lat="48.649336" lon="16.589534">
        <ele>282.947286</ele>
        <time>2020-09-10T10:12:39.879Z</time>
      </trkpt>
      <trkpt lat="48.649336" lon="16.589693">
        <ele>283.135030</ele>
        <time>2020-09-10T10:12:42.846Z</time>
      </trkpt>
      <trkpt lat="48.649321" lon="16.589886">
        <ele>283.364492</ele>
        <time>2020-09-10T10:12:45.867Z</time>
      </trkpt>
      <trkpt lat="48.649310" lon="16.590028">
        <ele>283.533312</ele>
        <time>2020-09-10T10:12:47.866Z</time>
      </trkpt>
      <trkpt lat="48.649300" lon="16.590196">
        <ele>283.732486</ele>
        <time>2020-09-10T10:12:49.894Z</time>
      </trkpt>
      <trkpt lat="48.649295" lon="16.590366">
        <ele>283.933418</ele>
        <time>2020-09-10T10:12:51.863Z</time>
      </trkpt>
      <trkpt lat="48.649285" lon="16.590555">
        <ele>284.157300</ele>
        <time>2020-09-10T10:12:53.846Z</time>
      </trkpt>
      <trkpt lat="48.649269" lon="16.590749">
        <ele>284.388149</ele>
        <time>2020-09-10T10:12:55.863Z</time>
      </trkpt>
      <trkpt lat="48.649252" lon="16.590967">
        <ele>284.647346</ele>
        <time>2020-09-10T10:12:57.865Z</time>
      </trkpt>
      <trkpt lat="48.649238" lon="16.591186">
        <ele>284.907145</ele>
        <time>2020-09-10T10:12:59.848Z</time>
      </trkpt>
      <trkpt lat="48.649240" lon="16.591376">
        <ele>285.131522</ele>
        <time>2020-09-10T10:13:01.855Z</time>
      </trkpt>
      <trkpt lat="48.649241" lon="16.591563">
        <ele>285.344093</ele>
        <time>2020-09-10T10:13:03.864Z</time>
      </trkpt>
      <trkpt lat="48.649230" lon="16.591757">
        <ele>285.263715</ele>
        <time>2020-09-10T10:13:05.847Z</time>
      </trkpt>
      <trkpt lat="48.649223" lon="16.591951">
        <ele>285.183512</ele>
        <time>2020-09-10T10:13:07.891Z</time>
      </trkpt>
      <trkpt lat="48.649227" lon="16.592161">
        <ele>285.096787</ele>
        <time>2020-09-10T10:13:09.861Z</time>
      </trkpt>
      <trkpt lat="48.649235" lon="16.592381">
        <ele>285.005833</ele>
        <time>2020-09-10T10:13:11.857Z</time>
      </trkpt>
      <trkpt lat="48.649245" lon="16.592607">
        <ele>284.912331</ele>
        <time>2020-09-10T10:13:13.864Z</time>
      </trkpt>
      <trkpt lat="48.649257" lon="16.592815">
        <ele>284.826141</ele>
        <time>2020-09-10T10:13:15.873Z</time>
      </trkpt>
      <trkpt lat="48.649274" lon="16.593033">
        <ele>284.735526</ele>
        <time>2020-09-10T10:13:17.862Z</time>
      </trkpt>
      <trkpt lat="48.649328" lon="16.593244">
        <ele>284.642118</ele>
        <time>2020-09-10T10:13:19.864Z</time>
      </trkpt>
      <trkpt lat="48.649367" lon="16.593438">
        <ele>284.558409</ele>
        <time>2020-09-10T10:13:21.844Z</time>
      </trkpt>
      <trkpt lat="48.649420" lon="16.593626">
        <ele>284.474032</ele>
        <time>2020-09-10T10:13:23.859Z</time>
      </trkpt>
      <trkpt lat="48.649446" lon="16.593823">
        <ele>284.391103</ele>
        <time>2020-09-10T10:13:25.864Z</time>
      </trkpt>
      <trkpt lat="48.649479" lon="16.594020">
        <ele>284.307208</ele>
        <time>2020-09-10T10:13:27.860Z</time>
      </trkpt>
      <trkpt lat="48.649531" lon="16.594197">
        <ele>284.227244</ele>
        <time>2020-09-10T10:13:29.852Z</time>
      </trkpt>
      <trkpt lat="48.649596" lon="16.594373">
        <ele>284.366596</ele>
        <time>2020-09-10T10:13:31.874Z</time>
      </trkpt>
      <trkpt lat="48.649646" lon="16.594571">
        <ele>284.527592</ele>
        <time>2020-09-10T10:13:33.884Z</time>
      </trkpt>
      <trkpt lat="48.649670" lon="16.594812">
        <ele>284.712704</ele>
        <time>2020-09-10T10:13:35.873Z</time>
      </trkpt>
      <trkpt lat="48.649693" lon="16.595060">
        <ele>284.902912</ele>
        <time>2020-09-10T10:13:37.866Z</time>
      </trkpt>
      <trkpt lat="48.649703" lon="16.595321">
        <ele>285.101479</ele>
        <time>2020-09-10T10:13:39.856Z</time>
      </trkpt>
      <trkpt lat="48.649711" lon="16.595588">
        <ele>285.304479</ele>
        <time>2020-09-10T10:13:41.857Z</time>
      </trkpt>
      <trkpt lat="48.649725" lon="16.595858">
        <ele>285.510180</ele>
        <time>2020-09-10T10:13:43.866Z</time>
      </trkpt>
      <trkpt lat="48.649755" lon="16.596127">
        <ele>285.717381</ele>
        <time>2020-09-10T10:13:45.873Z</time>
      </trkpt>
      <trkpt lat="48.649772" lon="16.596263">
        <ele>285.822508</ele>
        <time>2020-09-10T10:13:46.868Z</time>
      </trkpt>
      <trkpt lat="48.649787" lon="16.596399">
        <ele>285.927232</ele>
        <time>2020-09-10T10:13:47.892Z</time>
      </trkpt>
      <trkpt lat="48.649799" lon="16.596538">
        <ele>286.033702</ele>
        <time>2020-09-10T10:13:48.865Z</time>
      </trkpt>
      <trkpt lat="48.649815" lon="16.596676">
        <ele>286.140118</ele>
        <time>2020-09-10T10:13:49.868Z</time>
      </trkpt>
      <trkpt lat="48.649834" lon="16.596813">
        <ele>286.246439</ele>
        <time>2020-09-10T10:13:50.859Z</time>
      </trkpt>
      <trkpt lat="48.649855" lon="16.596951">
        <ele>286.304822</ele>
        <time>2020-09-10T10:13:51.845Z</time>
      </trkpt>
      <trkpt lat="48.649878" lon="16.597088">
        <ele>286.329466</ele>
        <time>2020-09-10T10:13:52.861Z</time>
      </trkpt>
      <trkpt lat="48.649895" lon="16.597230">
        <ele>286.354626</ele>
        <time>2020-09-10T10:13:53.891Z</time>
      </trkpt>
      <trkpt lat="48.649919" lon="16.597366">
        <ele>286.379168</ele>
        <time>2020-09-10T10:13:54.857Z</time>
      </trkpt>
      <trkpt lat="48.649940" lon="16.597504">
        <ele>286.403857</ele>
        <time>2020-09-10T10:13:55.855Z</time>
      </trkpt>
      <trkpt lat="48.649964" lon="16.597640">
        <ele>286.428399</ele>
        <time>2020-09-10T10:13:56.859Z</time>
      </trkpt>
      <trkpt lat="48.649992" lon="16.597776">
        <ele>286.453234</ele>
        <time>2020-09-10T10:13:57.885Z</time>
      </trkpt>
      <trkpt lat="48.650012" lon="16.597917">
        <ele>286.478377</ele>
        <time>2020-09-10T10:13:58.878Z</time>
      </trkpt>
      <trkpt lat="48.650025" lon="16.598058">
        <ele>286.503197</ele>
        <time>2020-09-10T10:13:59.867Z</time>
      </trkpt>
      <trkpt lat="48.650032" lon="16.598203">
        <ele>286.528544</ele>
        <time>2020-09-10T10:14:00.852Z</time>
      </trkpt>
      <trkpt lat="48.650045" lon="16.598346">
        <ele>286.553710</ele>
        <time>2020-09-10T10:14:01.848Z</time>
      </trkpt>
      <trkpt lat="48.650062" lon="16.598490">
        <ele>286.579213</ele>
        <time>2020-09-10T10:14:02.887Z</time>
      </trkpt>
      <trkpt lat="48.650079" lon="16.598637">
        <ele>286.605231</ele>
        <time>2020-09-10T10:14:03.862Z</time>
      </trkpt>
      <trkpt lat="48.650087" lon="16.598789">
        <ele>286.631815</ele>
        <time>2020-09-10T10:14:04.864Z</time>
      </trkpt>
      <trkpt lat="48.650092" lon="16.598943">
        <ele>286.658696</ele>
        <time>2020-09-10T10:14:05.865Z</time>
      </trkpt>
      <trkpt lat="48.650097" lon="16.599096">
        <ele>286.685404</ele>
        <time>2020-09-10T10:14:06.900Z</time>
      </trkpt>
      <trkpt lat="48.650103" lon="16.599249">
        <ele>286.712125</ele>
        <time>2020-09-10T10:14:07.856Z</time>
      </trkpt>
      <trkpt lat="48.650112" lon="16.599403">
        <ele>286.739078</ele>
        <time>2020-09-10T10:14:08.866Z</time>
      </trkpt>
      <trkpt lat="48.650124" lon="16.599554">
        <ele>286.763276</ele>
        <time>2020-09-10T10:14:09.861Z</time>
      </trkpt>
      <trkpt lat="48.650134" lon="16.599706">
        <ele>286.710166</ele>
        <time>2020-09-10T10:14:10.866Z</time>
      </trkpt>
      <trkpt lat="48.650142" lon="16.599860">
        <ele>286.656456</ele>
        <time>2020-09-10T10:14:11.859Z</time>
      </trkpt>
      <trkpt lat="48.650149" lon="16.600015">
        <ele>286.602439</ele>
        <time>2020-09-10T10:14:12.875Z</time>
      </trkpt>
      <trkpt lat="48.650151" lon="16.600171">
        <ele>286.548189</ele>
        <time>2020-09-10T10:14:13.867Z</time>
      </trkpt>
      <trkpt lat="48.650155" lon="16.600327">
        <ele>286.493908</ele>
        <time>2020-09-10T10:14:14.860Z</time>
      </trkpt>
      <trkpt lat="48.650157" lon="16.600484">
        <ele>286.439311</ele>
        <time>2020-09-10T10:14:15.857Z</time>
      </trkpt>
      <trkpt lat="48.650159" lon="16.600639">
        <ele>286.385408</ele>
        <time>2020-09-10T10:14:16.866Z</time>
      </trkpt>
      <trkpt lat="48.650154" lon="16.600796">
        <ele>286.330758</ele>
        <time>2020-09-10T10:14:17.874Z</time>
      </trkpt>
      <trkpt lat="48.650148" lon="16.600954">
        <ele>286.275732</ele>
        <time>2020-09-10T10:14:18.872Z</time>
      </trkpt>
      <trkpt lat="48.650143" lon="16.601111">
        <ele>286.221081</ele>
        <time>2020-09-10T10:14:19.884Z</time>
      </trkpt>
      <trkpt lat="48.650142" lon="16.601268">
        <ele>286.166491</ele>
        <time>2020-09-10T10:14:20.851Z</time>
      </trkpt>
      <trkpt lat="48.650143" lon="16.601427">
        <ele>286.111206</ele>
        <time>2020-09-10T10:14:21.846Z</time>
      </trkpt>
      <trkpt lat="48.650142" lon="16.601585">
        <ele>286.056268</ele>
        <time>2020-09-10T10:14:22.853Z</time>
      </trkpt>
      <trkpt lat="48.650142" lon="16.601741">
        <ele>286.002028</ele>
        <time>2020-09-10T10:14:23.861Z</time>
      </trkpt>
      <trkpt lat="48.650143" lon="16.601895">
        <ele>285.948482</ele>
        <time>2020-09-10T10:14:24.872Z</time>
      </trkpt>
      <trkpt lat="48.650143" lon="16.602049">
        <ele>285.894937</ele>
        <time>2020-09-10T10:14:25.862Z</time>
      </trkpt>
      <trkpt lat="48.650144" lon="16.602201">
        <ele>285.842086</ele>
        <time>2020-09-10T10:14:26.857Z</time>
      </trkpt>
      <trkpt lat="48.650148" lon="16.602353">
        <ele>285.760611</ele>
        <time>2020-09-10T10:14:27.897Z</time>
      </trkpt>
      <trkpt lat="48.650148" lon="16.602504">
        <ele>285.656422</ele>
        <time>2020-09-10T10:14:28.854Z</time>
      </trkpt>
      <trkpt lat="48.650148" lon="16.602655">
        <ele>285.552232</ele>
        <time>2020-09-10T10:14:29.906Z</time>
      </trkpt>
      <trkpt lat="48.650152" lon="16.602807">
        <ele>285.447269</ele>
        <time>2020-09-10T10:14:30.872Z</time>
      </trkpt>
      <trkpt lat="48.650156" lon="16.602958">
        <ele>285.342996</ele>
        <time>2020-09-10T10:14:31.871Z</time>
      </trkpt>
      <trkpt lat="48.650158" lon="16.603111">
        <ele>285.237406</ele>
        <time>2020-09-10T10:14:32.890Z</time>
      </trkpt>
      <trkpt lat="48.650159" lon="16.603261">
        <ele>285.133901</ele>
        <time>2020-09-10T10:14:33.870Z</time>
      </trkpt>
      <trkpt lat="48.650157" lon="16.603406">
        <ele>285.033829</ele>
        <time>2020-09-10T10:14:34.873Z</time>
      </trkpt>
      <trkpt lat="48.650149" lon="16.603547">
        <ele>284.936182</ele>
        <time>2020-09-10T10:14:35.886Z</time>
      </trkpt>
      <trkpt lat="48.650132" lon="16.603689">
        <ele>284.836606</ele>
        <time>2020-09-10T10:14:36.886Z</time>
      </trkpt>
      <trkpt lat="48.650111" lon="16.603827">
        <ele>284.738893</ele>
        <time>2020-09-10T10:14:37.850Z</time>
      </trkpt>
      <trkpt lat="48.650085" lon="16.603959">
        <ele>284.643852</ele>
        <time>2020-09-10T10:14:38.859Z</time>
      </trkpt>
      <trkpt lat="48.650033" lon="16.604211">
        <ele>284.461688</ele>
        <time>2020-09-10T10:14:40.873Z</time>
      </trkpt>
      <trkpt lat="48.649994" lon="16.604464">
        <ele>284.282429</ele>
        <time>2020-09-10T10:14:42.853Z</time>
      </trkpt>
      <trkpt lat="48.649960" lon="16.604717">
        <ele>284.104284</ele>
        <time>2020-09-10T10:14:44.879Z</time>
      </trkpt>
      <trkpt lat="48.649919" lon="16.604970">
        <ele>283.917798</ele>
        <time>2020-09-10T10:14:46.886Z</time>
      </trkpt>
      <trkpt lat="48.649880" lon="16.605224">
        <ele>283.657867</ele>
        <time>2020-09-10T10:14:48.864Z</time>
      </trkpt>
      <trkpt lat="48.649836" lon="16.605475">
        <ele>283.399016</ele>
        <time>2020-09-10T10:14:50.866Z</time>
      </trkpt>
      <trkpt lat="48.649795" lon="16.605727">
        <ele>283.140322</ele>
        <time>2020-09-10T10:14:52.861Z</time>
      </trkpt>
      <trkpt lat="48.649757" lon="16.605978">
        <ele>282.883643</ele>
        <time>2020-09-10T10:14:54.857Z</time>
      </trkpt>
      <trkpt lat="48.649715" lon="16.606229">
        <ele>282.625549</ele>
        <time>2020-09-10T10:14:56.900Z</time>
      </trkpt>
      <trkpt lat="48.649678" lon="16.606484">
        <ele>282.365310</ele>
        <time>2020-09-10T10:14:58.879Z</time>
      </trkpt>
      <trkpt lat="48.649639" lon="16.606737">
        <ele>282.106349</ele>
        <time>2020-09-10T10:15:00.875Z</time>
      </trkpt>
      <trkpt lat="48.649600" lon="16.606993">
        <ele>281.844475</ele>
        <time>2020-09-10T10:15:02.888Z</time>
      </trkpt>
      <trkpt lat="48.649560" lon="16.607244">
        <ele>281.587104</ele>
        <time>2020-09-10T10:15:04.856Z</time>
      </trkpt>
      <trkpt lat="48.649520" lon="16.607497">
        <ele>281.327795</ele>
        <time>2020-09-10T10:15:06.878Z</time>
      </trkpt>
      <trkpt lat="48.649474" lon="16.607750">
        <ele>281.113363</ele>
        <time>2020-09-10T10:15:08.886Z</time>
      </trkpt>
      <trkpt lat="48.649418" lon="16.607996">
        <ele>280.930536</ele>
        <time>2020-09-10T10:15:10.871Z</time>
      </trkpt>
      <trkpt lat="48.649355" lon="16.608237">
        <ele>280.748422</ele>
        <time>2020-09-10T10:15:12.847Z</time>
      </trkpt>
      <trkpt lat="48.649293" lon="16.608479">
        <ele>280.566042</ele>
        <time>2020-09-10T10:15:14.870Z</time>
      </trkpt>
      <trkpt lat="48.649224" lon="16.608717">
        <ele>280.383416</ele>
        <time>2020-09-10T10:15:16.881Z</time>
      </trkpt>
      <trkpt lat="48.649151" lon="16.608954">
        <ele>280.199677</ele>
        <time>2020-09-10T10:15:18.862Z</time>
      </trkpt>
      <trkpt lat="48.649075" lon="16.609187">
        <ele>280.017091</ele>
        <time>2020-09-10T10:15:20.855Z</time>
      </trkpt>
      <trkpt lat="48.649003" lon="16.609425">
        <ele>279.833159</ele>
        <time>2020-09-10T10:15:22.859Z</time>
      </trkpt>
      <trkpt lat="48.648928" lon="16.609662">
        <ele>279.648511</ele>
        <time>2020-09-10T10:15:24.871Z</time>
      </trkpt>
      <trkpt lat="48.648859" lon="16.609898">
        <ele>279.467170</ele>
        <time>2020-09-10T10:15:26.891Z</time>
      </trkpt>
      <trkpt lat="48.648785" lon="16.610128">
        <ele>279.292747</ele>
        <time>2020-09-10T10:15:28.867Z</time>
      </trkpt>
      <trkpt lat="48.648717" lon="16.610361">
        <ele>279.151087</ele>
        <time>2020-09-10T10:15:30.876Z</time>
      </trkpt>
      <trkpt lat="48.648644" lon="16.610592">
        <ele>279.008679</ele>
        <time>2020-09-10T10:15:32.876Z</time>
      </trkpt>
      <trkpt lat="48.648570" lon="16.610824">
        <ele>278.865405</ele>
        <time>2020-09-10T10:15:34.847Z</time>
      </trkpt>
      <trkpt lat="48.648504" lon="16.611058">
        <ele>278.723906</ele>
        <time>2020-09-10T10:15:36.866Z</time>
      </trkpt>
      <trkpt lat="48.648431" lon="16.611288">
        <ele>278.581999</ele>
        <time>2020-09-10T10:15:38.864Z</time>
      </trkpt>
      <trkpt lat="48.648342" lon="16.611503">
        <ele>278.440897</ele>
        <time>2020-09-10T10:15:40.887Z</time>
      </trkpt>
      <trkpt lat="48.648234" lon="16.611690">
        <ele>278.302765</ele>
        <time>2020-09-10T10:15:42.865Z</time>
      </trkpt>
      <trkpt lat="48.648113" lon="16.611864">
        <ele>278.162271</ele>
        <time>2020-09-10T10:15:44.869Z</time>
      </trkpt>
      <trkpt lat="48.647981" lon="16.612017">
        <ele>278.022318</ele>
        <time>2020-09-10T10:15:46.884Z</time>
      </trkpt>
      <trkpt lat="48.647837" lon="16.612134">
        <ele>277.884742</ele>
        <time>2020-09-10T10:15:48.869Z</time>
      </trkpt>
      <trkpt lat="48.647682" lon="16.612218">
        <ele>277.723158</ele>
        <time>2020-09-10T10:15:50.862Z</time>
      </trkpt>
      <trkpt lat="48.647519" lon="16.612286">
        <ele>277.518825</ele>
        <time>2020-09-10T10:15:52.854Z</time>
      </trkpt>
      <trkpt lat="48.647358" lon="16.612363">
        <ele>277.314772</ele>
        <time>2020-09-10T10:15:54.875Z</time>
      </trkpt>
      <trkpt lat="48.647200" lon="16.612466">
        <ele>277.106870</ele>
        <time>2020-09-10T10:15:56.873Z</time>
      </trkpt>
      <trkpt lat="48.647046" lon="16.612585">
        <ele>276.897907</ele>
        <time>2020-09-10T10:15:58.860Z</time>
      </trkpt>
      <trkpt lat="48.646893" lon="16.612699">
        <ele>276.691814</ele>
        <time>2020-09-10T10:16:00.872Z</time>
      </trkpt>
      <trkpt lat="48.646741" lon="16.612810">
        <ele>276.487857</ele>
        <time>2020-09-10T10:16:02.872Z</time>
      </trkpt>
      <trkpt lat="48.646591" lon="16.612918">
        <ele>276.287115</ele>
        <time>2020-09-10T10:16:04.856Z</time>
      </trkpt>
      <trkpt lat="48.646444" lon="16.613021">
        <ele>276.091350</ele>
        <time>2020-09-10T10:16:06.865Z</time>
      </trkpt>
      <trkpt lat="48.646317" lon="16.613161">
        <ele>275.901475</ele>
        <time>2020-09-10T10:16:08.882Z</time>
      </trkpt>
      <trkpt lat="48.646208" lon="16.613338">
        <ele>275.708275</ele>
        <time>2020-09-10T10:16:10.889Z</time>
      </trkpt>
      <trkpt lat="48.646116" lon="16.613526">
        <ele>275.521385</ele>
        <time>2020-09-10T10:16:12.855Z</time>
      </trkpt>
      <trkpt lat="48.646040" lon="16.613728">
        <ele>275.335621</ele>
        <time>2020-09-10T10:16:14.847Z</time>
      </trkpt>
      <trkpt lat="48.645962" lon="16.613924">
        <ele>275.152771</ele>
        <time>2020-09-10T10:16:16.877Z</time>
      </trkpt>
      <trkpt lat="48.645887" lon="16.614116">
        <ele>274.974525</ele>
        <time>2020-09-10T10:16:18.873Z</time>
      </trkpt>
      <trkpt lat="48.645816" lon="16.614305">
        <ele>274.800781</ele>
        <time>2020-09-10T10:16:20.866Z</time>
      </trkpt>
      <trkpt lat="48.645745" lon="16.614486">
        <ele>274.632564</ele>
        <time>2020-09-10T10:16:22.854Z</time>
      </trkpt>
      <trkpt lat="48.645675" lon="16.614662">
        <ele>274.468397</ele>
        <time>2020-09-10T10:16:24.885Z</time>
      </trkpt>
      <trkpt lat="48.645612" lon="16.614831">
        <ele>274.313327</ele>
        <time>2020-09-10T10:16:26.861Z</time>
      </trkpt>
      <trkpt lat="48.645565" lon="16.614977">
        <ele>274.183540</ele>
        <time>2020-09-10T10:16:28.849Z</time>
      </trkpt>
      <trkpt lat="48.645487" lon="16.615066">
        <ele>274.065391</ele>
        <time>2020-09-10T10:16:31.848Z</time>
      </trkpt>
      <trkpt lat="48.645433" lon="16.614941">
        <ele>273.946040</ele>
        <time>2020-09-10T10:16:34.861Z</time>
      </trkpt>
      <trkpt lat="48.645409" lon="16.614790">
        <ele>273.821925</ele>
        <time>2020-09-10T10:16:37.869Z</time>
      </trkpt>
      <trkpt lat="48.645383" lon="16.614630">
        <ele>273.690251</ele>
        <time>2020-09-10T10:16:40.851Z</time>
      </trkpt>
      <trkpt lat="48.645351" lon="16.614462">
        <ele>273.550526</ele>
        <time>2020-09-10T10:16:43.869Z</time>
      </trkpt>
      <trkpt lat="48.645307" lon="16.614290">
        <ele>273.435010</ele>
        <time>2020-09-10T10:16:46.850Z</time>
      </trkpt>
      <trkpt lat="48.645267" lon="16.614113">
        <ele>273.387708</ele>
        <time>2020-09-10T10:16:49.869Z</time>
      </trkpt>
      <trkpt lat="48.645230" lon="16.613936">
        <ele>273.340765</ele>
        <time>2020-09-10T10:16:52.886Z</time>
      </trkpt>
      <trkpt lat="48.645188" lon="16.613758">
        <ele>273.292971</ele>
        <time>2020-09-10T10:16:55.888Z</time>
      </trkpt>
      <trkpt lat="48.645146" lon="16.613585">
        <ele>273.246367</ele>
        <time>2020-09-10T10:16:58.871Z</time>
      </trkpt>
      <trkpt lat="48.645104" lon="16.613403">
        <ele>273.197620</ele>
        <time>2020-09-10T10:17:01.869Z</time>
      </trkpt>
      <trkpt lat="48.645065" lon="16.613218">
        <ele>273.148517</ele>
        <time>2020-09-10T10:17:04.848Z</time>
      </trkpt>
      <trkpt lat="48.645023" lon="16.613029">
        <ele>273.098095</ele>
        <time>2020-09-10T10:17:07.858Z</time>
      </trkpt>
      <trkpt lat="48.644986" lon="16.612863">
        <ele>273.053796</ele>
        <time>2020-09-10T10:17:10.883Z</time>
      </trkpt>
      <trkpt lat="48.644950" lon="16.612690">
        <ele>273.007932</ele>
        <time>2020-09-10T10:17:13.874Z</time>
      </trkpt>
      <trkpt lat="48.644904" lon="16.612515">
        <ele>272.960308</ele>
        <time>2020-09-10T10:17:16.868Z</time>
      </trkpt>
      <trkpt lat="48.644862" lon="16.612352">
        <ele>272.916068</ele>
        <time>2020-09-10T10:17:19.853Z</time>
      </trkpt>
      <trkpt lat="48.644817" lon="16.612179">
        <ele>272.869055</ele>
        <time>2020-09-10T10:17:22.852Z</time>
      </trkpt>
      <trkpt lat="48.644779" lon="16.612001">
        <ele>272.821754</ele>
        <time>2020-09-10T10:17:25.860Z</time>
      </trkpt>
      <trkpt lat="48.644736" lon="16.611829">
        <ele>272.775252</ele>
        <time>2020-09-10T10:17:28.850Z</time>
      </trkpt>
      <trkpt lat="48.644702" lon="16.611659">
        <ele>272.732004</ele>
        <time>2020-09-10T10:17:31.851Z</time>
      </trkpt>
      <trkpt lat="48.644658" lon="16.611488">
        <ele>272.688086</ele>
        <time>2020-09-10T10:17:34.857Z</time>
      </trkpt>
      <trkpt lat="48.644617" lon="16.611323">
        <ele>272.645897</ele>
        <time>2020-09-10T10:17:37.875Z</time>
      </trkpt>
      <trkpt lat="48.644575" lon="16.611144">
        <ele>272.600437</ele>
        <time>2020-09-10T10:17:40.869Z</time>
      </trkpt>
      <trkpt lat="48.644534" lon="16.610958">
        <ele>272.553511</ele>
        <time>2020-09-10T10:17:43.860Z</time>
      </trkpt>
      <trkpt lat="48.644493" lon="16.610788">
        <ele>272.510201</ele>
        <time>2020-09-10T10:17:46.860Z</time>
      </trkpt>
      <trkpt lat="48.644447" lon="16.610617">
        <ele>272.466015</ele>
        <time>2020-09-10T10:17:49.879Z</time>
      </trkpt>
      <trkpt lat="48.644400" lon="16.610448">
        <ele>272.422132</ele>
        <time>2020-09-10T10:17:52.863Z</time>
      </trkpt>
      <trkpt lat="48.644355" lon="16.610273">
        <ele>272.377190</ele>
        <time>2020-09-10T10:17:55.857Z</time>
      </trkpt>
      <trkpt lat="48.644312" lon="16.610108">
        <ele>272.334741</ele>
        <time>2020-09-10T10:17:58.859Z</time>
      </trkpt>
      <trkpt lat="48.644256" lon="16.609954">
        <ele>272.292672</ele>
        <time>2020-09-10T10:18:01.873Z</time>
      </trkpt>
      <trkpt lat="48.644178" lon="16.609811">
        <ele>272.248294</ele>
        <time>2020-09-10T10:18:04.857Z</time>
      </trkpt>
      <trkpt lat="48.644090" lon="16.609684">
        <ele>272.204251</ele>
        <time>2020-09-10T10:18:07.857Z</time>
      </trkpt>
      <trkpt lat="48.644002" lon="16.609549">
        <ele>272.158865</ele>
        <time>2020-09-10T10:18:10.861Z</time>
      </trkpt>
      <trkpt lat="48.643913" lon="16.609449">
        <ele>272.118716</ele>
        <time>2020-09-10T10:18:13.856Z</time>
      </trkpt>
      <trkpt lat="48.643819" lon="16.609363">
        <ele>272.092121</ele>
        <time>2020-09-10T10:18:16.871Z</time>
      </trkpt>
      <trkpt lat="48.643729" lon="16.609276">
        <ele>272.069902</ele>
        <time>2020-09-10T10:18:19.882Z</time>
      </trkpt>
      <trkpt lat="48.643637" lon="16.609201">
        <ele>272.048160</ele>
        <time>2020-09-10T10:18:22.861Z</time>
      </trkpt>
      <trkpt lat="48.643538" lon="16.609141">
        <ele>272.025972</ele>
        <time>2020-09-10T10:18:25.904Z</time>
      </trkpt>
      <trkpt lat="48.643430" lon="16.609103">
        <ele>272.002902</ele>
        <time>2020-09-10T10:18:28.850Z</time>
      </trkpt>
      <trkpt lat="48.643320" lon="16.609070">
        <ele>271.979569</ele>
        <time>2020-09-10T10:18:31.860Z</time>
      </trkpt>
      <trkpt lat="48.643216" lon="16.609049">
        <ele>271.957739</ele>
        <time>2020-09-10T10:18:34.884Z</time>
      </trkpt>
      <trkpt lat="48.643118" lon="16.609043">
        <ele>271.937332</ele>
        <time>2020-09-10T10:18:37.885Z</time>
      </trkpt>
      <trkpt lat="48.643028" lon="16.609036">
        <ele>271.918582</ele>
        <time>2020-09-10T10:18:40.877Z</time>
      </trkpt>
      <trkpt lat="48.642936" lon="16.609025">
        <ele>271.899381</ele>
        <time>2020-09-10T10:18:43.884Z</time>
      </trkpt>
      <trkpt lat="48.642843" lon="16.609019">
        <ele>271.880013</ele>
        <time>2020-09-10T10:18:46.887Z</time>
      </trkpt>
      <trkpt lat="48.642750" lon="16.609009">
        <ele>271.860615</ele>
        <time>2020-09-10T10:18:49.861Z</time>
      </trkpt>
      <trkpt lat="48.642656" lon="16.609007">
        <ele>271.841055</ele>
        <time>2020-09-10T10:18:52.849Z</time>
      </trkpt>
      <trkpt lat="48.642562" lon="16.609002">
        <ele>271.821485</ele>
        <time>2020-09-10T10:18:55.859Z</time>
      </trkpt>
      <trkpt lat="48.642467" lon="16.608998">
        <ele>271.801711</ele>
        <time>2020-09-10T10:18:58.867Z</time>
      </trkpt>
      <trkpt lat="48.642376" lon="16.609004">
        <ele>271.782760</ele>
        <time>2020-09-10T10:19:01.856Z</time>
      </trkpt>
      <trkpt lat="48.642283" lon="16.609005">
        <ele>271.763409</ele>
        <time>2020-09-10T10:19:04.850Z</time>
      </trkpt>
      <trkpt lat="48.642189" lon="16.609005">
        <ele>271.743851</ele>
        <time>2020-09-10T10:19:07.849Z</time>
      </trkpt>
      <trkpt lat="48.642089" lon="16.609003">
        <ele>271.761275</ele>
        <time>2020-09-10T10:19:10.850Z</time>
      </trkpt>
      <trkpt lat="48.641994" lon="16.609001">
        <ele>271.801239</ele>
        <time>2020-09-10T10:19:13.853Z</time>
      </trkpt>
      <trkpt lat="48.641875" lon="16.608981">
        <ele>271.851602</ele>
        <time>2020-09-10T10:19:17.849Z</time>
      </trkpt>
      <trkpt lat="48.641785" lon="16.608960">
        <ele>271.889906</ele>
        <time>2020-09-10T10:19:20.867Z</time>
      </trkpt>
      <trkpt lat="48.641692" lon="16.608952">
        <ele>271.929088</ele>
        <time>2020-09-10T10:19:23.861Z</time>
      </trkpt>
      <trkpt lat="48.641597" lon="16.608943">
        <ele>271.969126</ele>
        <time>2020-09-10T10:19:26.868Z</time>
      </trkpt>
      <trkpt lat="48.641495" lon="16.608935">
        <ele>272.012088</ele>
        <time>2020-09-10T10:19:29.854Z</time>
      </trkpt>
      <trkpt lat="48.641396" lon="16.608924">
        <ele>272.053843</ele>
        <time>2020-09-10T10:19:32.864Z</time>
      </trkpt>
      <trkpt lat="48.641295" lon="16.608918">
        <ele>272.096360</ele>
        <time>2020-09-10T10:19:35.849Z</time>
      </trkpt>
      <trkpt lat="48.641184" lon="16.608899">
        <ele>272.143348</ele>
        <time>2020-09-10T10:19:38.884Z</time>
      </trkpt>
      <trkpt lat="48.641065" lon="16.608887">
        <ele>272.193514</ele>
        <time>2020-09-10T10:19:41.885Z</time>
      </trkpt>
      <trkpt lat="48.640940" lon="16.608874">
        <ele>272.246217</ele>
        <time>2020-09-10T10:19:44.855Z</time>
      </trkpt>
      <trkpt lat="48.640849" lon="16.608863">
        <ele>272.284616</ele>
        <time>2020-09-10T10:19:46.887Z</time>
      </trkpt>
      <trkpt lat="48.640750" lon="16.608860">
        <ele>272.326267</ele>
        <time>2020-09-10T10:19:48.903Z</time>
      </trkpt>
      <trkpt lat="48.640653" lon="16.608856">
        <ele>272.367084</ele>
        <time>2020-09-10T10:19:50.911Z</time>
      </trkpt>
      <trkpt lat="48.640556" lon="16.608854">
        <ele>272.407889</ele>
        <time>2020-09-10T10:19:52.875Z</time>
      </trkpt>
      <trkpt lat="48.640451" lon="16.608857">
        <ele>272.452063</ele>
        <time>2020-09-10T10:19:54.867Z</time>
      </trkpt>
      <trkpt lat="48.640343" lon="16.608854">
        <ele>272.494377</ele>
        <time>2020-09-10T10:19:56.870Z</time>
      </trkpt>
      <trkpt lat="48.640232" lon="16.608856">
        <ele>272.513229</ele>
        <time>2020-09-10T10:19:58.860Z</time>
      </trkpt>
      <trkpt lat="48.640121" lon="16.608858">
        <ele>272.532081</ele>
        <time>2020-09-10T10:20:00.897Z</time>
      </trkpt>
      <trkpt lat="48.639999" lon="16.608862">
        <ele>272.552805</ele>
        <time>2020-09-10T10:20:02.887Z</time>
      </trkpt>
      <trkpt lat="48.639872" lon="16.608869">
        <ele>272.574387</ele>
        <time>2020-09-10T10:20:04.874Z</time>
      </trkpt>
      <trkpt lat="48.639736" lon="16.608873">
        <ele>272.597488</ele>
        <time>2020-09-10T10:20:06.881Z</time>
      </trkpt>
      <trkpt lat="48.639591" lon="16.608878">
        <ele>272.622119</ele>
        <time>2020-09-10T10:20:08.860Z</time>
      </trkpt>
      <trkpt lat="48.639443" lon="16.608888">
        <ele>272.647279</ele>
        <time>2020-09-10T10:20:10.855Z</time>
      </trkpt>
      <trkpt lat="48.639291" lon="16.608891">
        <ele>272.673095</ele>
        <time>2020-09-10T10:20:12.866Z</time>
      </trkpt>
      <trkpt lat="48.639134" lon="16.608896">
        <ele>272.699763</ele>
        <time>2020-09-10T10:20:14.850Z</time>
      </trkpt>
      <trkpt lat="48.638979" lon="16.608906">
        <ele>272.726110</ele>
        <time>2020-09-10T10:20:16.904Z</time>
      </trkpt>
      <trkpt lat="48.638828" lon="16.608920">
        <ele>272.751802</ele>
        <time>2020-09-10T10:20:18.867Z</time>
      </trkpt>
      <trkpt lat="48.638682" lon="16.608945">
        <ele>272.776755</ele>
        <time>2020-09-10T10:20:20.857Z</time>
      </trkpt>
      <trkpt lat="48.638543" lon="16.608983">
        <ele>272.812988</ele>
        <time>2020-09-10T10:20:22.865Z</time>
      </trkpt>
      <trkpt lat="48.638415" lon="16.609066">
        <ele>272.932450</ele>
        <time>2020-09-10T10:20:24.884Z</time>
      </trkpt>
      <trkpt lat="48.638300" lon="16.609174">
        <ele>273.048558</ele>
        <time>2020-09-10T10:20:26.857Z</time>
      </trkpt>
      <trkpt lat="48.638197" lon="16.609299">
        <ele>273.161821</ele>
        <time>2020-09-10T10:20:28.863Z</time>
      </trkpt>
      <trkpt lat="48.638096" lon="16.609425">
        <ele>273.274111</ele>
        <time>2020-09-10T10:20:30.873Z</time>
      </trkpt>
      <trkpt lat="48.637999" lon="16.609554">
        <ele>273.384891</ele>
        <time>2020-09-10T10:20:32.879Z</time>
      </trkpt>
      <trkpt lat="48.637902" lon="16.609665">
        <ele>273.489216</ele>
        <time>2020-09-10T10:20:34.854Z</time>
      </trkpt>
      <trkpt lat="48.637803" lon="16.609773">
        <ele>273.593912</ele>
        <time>2020-09-10T10:20:36.858Z</time>
      </trkpt>
      <trkpt lat="48.637701" lon="16.609872">
        <ele>273.697865</ele>
        <time>2020-09-10T10:20:38.854Z</time>
      </trkpt>
      <trkpt lat="48.637602" lon="16.609937">
        <ele>273.790443</ele>
        <time>2020-09-10T10:20:40.844Z</time>
      </trkpt>
      <trkpt lat="48.637507" lon="16.609990">
        <ele>273.877302</ele>
        <time>2020-09-10T10:20:42.846Z</time>
      </trkpt>
      <trkpt lat="48.637416" lon="16.610037">
        <ele>273.959789</ele>
        <time>2020-09-10T10:20:44.851Z</time>
      </trkpt>
      <trkpt lat="48.637326" lon="16.610083">
        <ele>274.041281</ele>
        <time>2020-09-10T10:20:46.844Z</time>
      </trkpt>
      <trkpt lat="48.637199" lon="16.610127">
        <ele>274.153048</ele>
        <time>2020-09-10T10:20:49.850Z</time>
      </trkpt>
      <trkpt lat="48.637086" lon="16.610172">
        <ele>274.253287</ele>
        <time>2020-09-10T10:20:52.882Z</time>
      </trkpt>
      <trkpt lat="48.636972" lon="16.610211">
        <ele>274.352143</ele>
        <time>2020-09-10T10:20:55.852Z</time>
      </trkpt>
      <trkpt lat="48.636850" lon="16.610249">
        <ele>274.447283</ele>
        <time>2020-09-10T10:20:58.846Z</time>
      </trkpt>
      <trkpt lat="48.636736" lon="16.610285">
        <ele>274.536235</ele>
        <time>2020-09-10T10:21:01.854Z</time>
      </trkpt>
      <trkpt lat="48.636627" lon="16.610314">
        <ele>274.620769</ele>
        <time>2020-09-10T10:21:04.848Z</time>
      </trkpt>
      <trkpt lat="48.636521" lon="16.610334">
        <ele>274.702361</ele>
        <time>2020-09-10T10:21:07.840Z</time>
      </trkpt>
      <trkpt lat="48.636402" lon="16.610334">
        <ele>274.793256</ele>
        <time>2020-09-10T10:21:10.848Z</time>
      </trkpt>
      <trkpt lat="48.636272" lon="16.610313">
        <ele>274.893117</ele>
        <time>2020-09-10T10:21:13.848Z</time>
      </trkpt>
      <trkpt lat="48.636162" lon="16.610291">
        <ele>274.977868</ele>
        <time>2020-09-10T10:21:16.853Z</time>
      </trkpt>
      <trkpt lat="48.636055" lon="16.610270">
        <ele>275.060282</ele>
        <time>2020-09-10T10:21:19.847Z</time>
      </trkpt>
      <trkpt lat="48.635942" lon="16.610245">
        <ele>275.147512</ele>
        <time>2020-09-10T10:21:22.885Z</time>
      </trkpt>
      <trkpt lat="48.635835" lon="16.610220">
        <ele>275.230209</ele>
        <time>2020-09-10T10:21:25.866Z</time>
      </trkpt>
      <trkpt lat="48.635730" lon="16.610183">
        <ele>275.312557</ele>
        <time>2020-09-10T10:21:28.858Z</time>
      </trkpt>
      <trkpt lat="48.635635" lon="16.610158">
        <ele>275.386209</ele>
        <time>2020-09-10T10:21:31.869Z</time>
      </trkpt>
      <trkpt lat="48.635546" lon="16.610133">
        <ele>275.455351</ele>
        <time>2020-09-10T10:21:34.865Z</time>
      </trkpt>
      <trkpt lat="48.635452" lon="16.610108">
        <ele>275.528251</ele>
        <time>2020-09-10T10:21:37.871Z</time>
      </trkpt>
      <trkpt lat="48.635345" lon="16.610078">
        <ele>275.611371</ele>
        <time>2020-09-10T10:21:40.899Z</time>
      </trkpt>
      <trkpt lat="48.635235" lon="16.610048">
        <ele>275.696745</ele>
        <time>2020-09-10T10:21:43.899Z</time>
      </trkpt>
      <trkpt lat="48.635118" lon="16.610016">
        <ele>275.766136</ele>
        <time>2020-09-10T10:21:46.862Z</time>
      </trkpt>
      <trkpt lat="48.634998" lon="16.609980">
        <ele>275.832158</ele>
        <time>2020-09-10T10:21:49.867Z</time>
      </trkpt>
      <trkpt lat="48.634885" lon="16.609943">
        <ele>275.894553</ele>
        <time>2020-09-10T10:21:52.846Z</time>
      </trkpt>
      <trkpt lat="48.634768" lon="16.609901">
        <ele>275.959448</ele>
        <time>2020-09-10T10:21:55.856Z</time>
      </trkpt>
      <trkpt lat="48.634659" lon="16.609875">
        <ele>276.018999</ele>
        <time>2020-09-10T10:21:58.847Z</time>
      </trkpt>
      <trkpt lat="48.634550" lon="16.609847">
        <ele>276.078666</ele>
        <time>2020-09-10T10:22:01.851Z</time>
      </trkpt>
      <trkpt lat="48.634438" lon="16.609826">
        <ele>276.139572</ele>
        <time>2020-09-10T10:22:04.854Z</time>
      </trkpt>
      <trkpt lat="48.634324" lon="16.609805">
        <ele>276.201549</ele>
        <time>2020-09-10T10:22:07.848Z</time>
      </trkpt>
      <trkpt lat="48.634214" lon="16.609771">
        <ele>276.262140</ele>
        <time>2020-09-10T10:22:10.856Z</time>
      </trkpt>
      <trkpt lat="48.634102" lon="16.609736">
        <ele>276.323859</ele>
        <time>2020-09-10T10:22:13.846Z</time>
      </trkpt>
      <trkpt lat="48.633980" lon="16.609704">
        <ele>276.390682</ele>
        <time>2020-09-10T10:22:16.842Z</time>
      </trkpt>
      <trkpt lat="48.633863" lon="16.609684">
        <ele>276.454226</ele>
        <time>2020-09-10T10:22:19.858Z</time>
      </trkpt>
      <trkpt lat="48.633757" lon="16.609650">
        <ele>276.512703</ele>
        <time>2020-09-10T10:22:22.858Z</time>
      </trkpt>
      <trkpt lat="48.633653" lon="16.609626">
        <ele>276.569478</ele>
        <time>2020-09-10T10:22:25.842Z</time>
      </trkpt>
      <trkpt lat="48.633539" lon="16.609602">
        <ele>276.631594</ele>
        <time>2020-09-10T10:22:28.857Z</time>
      </trkpt>
      <trkpt lat="48.633412" lon="16.609569">
        <ele>276.700177</ele>
        <time>2020-09-10T10:22:31.849Z</time>
      </trkpt>
      <trkpt lat="48.633289" lon="16.609540">
        <ele>276.763302</ele>
        <time>2020-09-10T10:22:34.853Z</time>
      </trkpt>
      <trkpt lat="48.633168" lon="16.609511">
        <ele>276.825425</ele>
        <time>2020-09-10T10:22:37.856Z</time>
      </trkpt>
      <trkpt lat="48.633053" lon="16.609473">
        <ele>276.885115</ele>
        <time>2020-09-10T10:22:40.853Z</time>
      </trkpt>
      <trkpt lat="48.632943" lon="16.609440">
        <ele>276.941981</ele>
        <time>2020-09-10T10:22:43.849Z</time>
      </trkpt>
      <trkpt lat="48.632830" lon="16.609399">
        <ele>277.000907</ele>
        <time>2020-09-10T10:22:46.849Z</time>
      </trkpt>
      <trkpt lat="48.632720" lon="16.609363">
        <ele>277.057977</ele>
        <time>2020-09-10T10:22:49.855Z</time>
      </trkpt>
      <trkpt lat="48.632601" lon="16.609333">
        <ele>277.119153</ele>
        <time>2020-09-10T10:22:52.881Z</time>
      </trkpt>
      <trkpt lat="48.632490" lon="16.609282">
        <ele>277.177978</ele>
        <time>2020-09-10T10:22:55.861Z</time>
      </trkpt>
      <trkpt lat="48.632389" lon="16.609229">
        <ele>277.232187</ele>
        <time>2020-09-10T10:22:58.868Z</time>
      </trkpt>
      <trkpt lat="48.632286" lon="16.609181">
        <ele>277.286839</ele>
        <time>2020-09-10T10:23:01.844Z</time>
      </trkpt>
      <trkpt lat="48.632182" lon="16.609130">
        <ele>277.342277</ele>
        <time>2020-09-10T10:23:04.857Z</time>
      </trkpt>
      <trkpt lat="48.632077" lon="16.609071">
        <ele>277.399075</ele>
        <time>2020-09-10T10:23:07.857Z</time>
      </trkpt>
      <trkpt lat="48.631982" lon="16.609008">
        <ele>277.451672</ele>
        <time>2020-09-10T10:23:10.880Z</time>
      </trkpt>
      <trkpt lat="48.631883" lon="16.608934">
        <ele>277.507666</ele>
        <time>2020-09-10T10:23:13.861Z</time>
      </trkpt>
      <trkpt lat="48.631784" lon="16.608870">
        <ele>277.562258</ele>
        <time>2020-09-10T10:23:16.849Z</time>
      </trkpt>
      <trkpt lat="48.631695" lon="16.608826">
        <ele>277.613182</ele>
        <time>2020-09-10T10:23:19.849Z</time>
      </trkpt>
      <trkpt lat="48.631603" lon="16.608787">
        <ele>277.675071</ele>
        <time>2020-09-10T10:23:22.849Z</time>
      </trkpt>
      <trkpt lat="48.631494" lon="16.608749">
        <ele>277.747527</ele>
        <time>2020-09-10T10:23:26.842Z</time>
      </trkpt>
      <trkpt lat="48.631379" lon="16.608706">
        <ele>277.824260</ele>
        <time>2020-09-10T10:23:30.860Z</time>
      </trkpt>
      <trkpt lat="48.631262" lon="16.608677">
        <ele>277.901059</ele>
        <time>2020-09-10T10:23:34.851Z</time>
      </trkpt>
      <trkpt lat="48.631148" lon="16.608666">
        <ele>277.975053</ele>
        <time>2020-09-10T10:23:38.849Z</time>
      </trkpt>
      <trkpt lat="48.631054" lon="16.608676">
        <ele>278.036093</ele>
        <time>2020-09-10T10:23:42.850Z</time>
      </trkpt>
      <trkpt lat="48.630953" lon="16.608682">
        <ele>278.101568</ele>
        <time>2020-09-10T10:23:46.897Z</time>
      </trkpt>
      <trkpt lat="48.630842" lon="16.608686">
        <ele>278.173490</ele>
        <time>2020-09-10T10:23:50.844Z</time>
      </trkpt>
      <trkpt lat="48.630725" lon="16.608685">
        <ele>278.249279</ele>
        <time>2020-09-10T10:23:54.856Z</time>
      </trkpt>
      <trkpt lat="48.630635" lon="16.608689">
        <ele>278.307603</ele>
        <time>2020-09-10T10:23:57.853Z</time>
      </trkpt>
      <trkpt lat="48.630539" lon="16.608712">
        <ele>278.370563</ele>
        <time>2020-09-10T10:24:00.880Z</time>
      </trkpt>
      <trkpt lat="48.630444" lon="16.608794">
        <ele>278.441409</ele>
        <time>2020-09-10T10:24:03.861Z</time>
      </trkpt>
      <trkpt lat="48.630362" lon="16.608905">
        <ele>278.512680</ele>
        <time>2020-09-10T10:24:06.845Z</time>
      </trkpt>
      <trkpt lat="48.630289" lon="16.609026">
        <ele>278.582819</ele>
        <time>2020-09-10T10:24:09.848Z</time>
      </trkpt>
      <trkpt lat="48.630234" lon="16.609156">
        <ele>278.648901</ele>
        <time>2020-09-10T10:24:12.850Z</time>
      </trkpt>
      <trkpt lat="48.630220" lon="16.609293">
        <ele>278.708250</ele>
        <time>2020-09-10T10:24:15.848Z</time>
      </trkpt>
      <trkpt lat="48.630214" lon="16.609452">
        <ele>278.792676</ele>
        <time>2020-09-10T10:24:19.867Z</time>
      </trkpt>
      <trkpt lat="48.630219" lon="16.609635">
        <ele>278.961966</ele>
        <time>2020-09-10T10:24:23.893Z</time>
      </trkpt>
      <trkpt lat="48.630203" lon="16.609813">
        <ele>279.128005</ele>
        <time>2020-09-10T10:24:27.869Z</time>
      </trkpt>
      <trkpt lat="48.630187" lon="16.609951">
        <ele>279.257506</ele>
        <time>2020-09-10T10:24:30.867Z</time>
      </trkpt>
      <trkpt lat="48.630161" lon="16.610093">
        <ele>279.393699</ele>
        <time>2020-09-10T10:24:34.872Z</time>
      </trkpt>
      <trkpt lat="48.630129" lon="16.610224">
        <ele>279.522787</ele>
        <time>2020-09-10T10:24:37.848Z</time>
      </trkpt>
      <trkpt lat="48.630046" lon="16.610336">
        <ele>279.678319</ele>
        <time>2020-09-10T10:24:40.862Z</time>
      </trkpt>
      <trkpt lat="48.629952" lon="16.610419">
        <ele>279.830526</ele>
        <time>2020-09-10T10:24:43.877Z</time>
      </trkpt>
      <trkpt lat="48.629856" lon="16.610470">
        <ele>279.972817</ele>
        <time>2020-09-10T10:24:46.883Z</time>
      </trkpt>
      <trkpt lat="48.629763" lon="16.610468">
        <ele>280.102891</ele>
        <time>2020-09-10T10:24:50.875Z</time>
      </trkpt>
      <trkpt lat="48.629666" lon="16.610409">
        <ele>280.249097</ele>
        <time>2020-09-10T10:24:54.886Z</time>
      </trkpt>
      <trkpt lat="48.629580" lon="16.610287">
        <ele>280.413964</ele>
        <time>2020-09-10T10:24:58.866Z</time>
      </trkpt>
      <trkpt lat="48.629533" lon="16.610165">
        <ele>280.544488</ele>
        <time>2020-09-10T10:25:01.858Z</time>
      </trkpt>
      <trkpt lat="48.629486" lon="16.610044">
        <ele>280.674214</ele>
        <time>2020-09-10T10:25:04.863Z</time>
      </trkpt>
      <trkpt lat="48.629428" lon="16.609929">
        <ele>280.807922</ele>
        <time>2020-09-10T10:25:07.850Z</time>
      </trkpt>
      <trkpt lat="48.629362" lon="16.609830">
        <ele>280.937895</ele>
        <time>2020-09-10T10:25:10.873Z</time>
      </trkpt>
      <trkpt lat="48.629297" lon="16.609736">
        <ele>281.063642</ele>
        <time>2020-09-10T10:25:13.867Z</time>
      </trkpt>
      <trkpt lat="48.629217" lon="16.609653">
        <ele>281.199299</ele>
        <time>2020-09-10T10:25:16.871Z</time>
      </trkpt>
      <trkpt lat="48.629126" lon="16.609591">
        <ele>281.496975</ele>
        <time>2020-09-10T10:25:19.853Z</time>
      </trkpt>
      <trkpt lat="48.629040" lon="16.609538">
        <ele>281.963166</ele>
        <time>2020-09-10T10:25:22.857Z</time>
      </trkpt>
      <trkpt lat="48.628948" lon="16.609469">
        <ele>282.478670</ele>
        <time>2020-09-10T10:25:26.874Z</time>
      </trkpt>
      <trkpt lat="48.628865" lon="16.609411">
        <ele>282.937654</ele>
        <time>2020-09-10T10:25:29.872Z</time>
      </trkpt>
      <trkpt lat="48.628773" lon="16.609334">
        <ele>283.465484</ele>
        <time>2020-09-10T10:25:33.886Z</time>
      </trkpt>
      <trkpt lat="48.628672" lon="16.609274">
        <ele>284.010223</ele>
        <time>2020-09-10T10:25:37.874Z</time>
      </trkpt>
      <trkpt lat="48.628577" lon="16.609216">
        <ele>284.524522</ele>
        <time>2020-09-10T10:25:42.881Z</time>
      </trkpt>
      <trkpt lat="48.628491" lon="16.609149">
        <ele>285.010147</ele>
        <time>2020-09-10T10:25:45.869Z</time>
      </trkpt>
      <trkpt lat="48.628387" lon="16.609113">
        <ele>285.545754</ele>
        <time>2020-09-10T10:25:48.879Z</time>
      </trkpt>
      <trkpt lat="48.628286" lon="16.609081">
        <ele>286.063808</ele>
        <time>2020-09-10T10:25:51.863Z</time>
      </trkpt>
      <trkpt lat="48.628181" lon="16.609044">
        <ele>286.605053</ele>
        <time>2020-09-10T10:25:54.856Z</time>
      </trkpt>
      <trkpt lat="48.628064" lon="16.609023">
        <ele>287.196552</ele>
        <time>2020-09-10T10:25:58.849Z</time>
      </trkpt>
      <trkpt lat="48.627956" lon="16.609110">
        <ele>287.810812</ele>
        <time>2020-09-10T10:26:02.858Z</time>
      </trkpt>
      <trkpt lat="48.627845" lon="16.609202">
        <ele>288.446209</ele>
        <time>2020-09-10T10:26:05.856Z</time>
      </trkpt>
      <trkpt lat="48.627731" lon="16.609309">
        <ele>289.119713</ele>
        <time>2020-09-10T10:26:08.852Z</time>
      </trkpt>
      <trkpt lat="48.627628" lon="16.609442">
        <ele>289.799531</ele>
        <time>2020-09-10T10:26:11.879Z</time>
      </trkpt>
      <trkpt lat="48.627547" lon="16.609608">
        <ele>290.732418</ele>
        <time>2020-09-10T10:26:14.884Z</time>
      </trkpt>
      <trkpt lat="48.627493" lon="16.609779">
        <ele>292.245371</ele>
        <time>2020-09-10T10:26:17.875Z</time>
      </trkpt>
      <trkpt lat="48.627454" lon="16.609935">
        <ele>293.576875</ele>
        <time>2020-09-10T10:26:20.858Z</time>
      </trkpt>
      <trkpt lat="48.627410" lon="16.610058">
        <ele>294.693415</ele>
        <time>2020-09-10T10:26:24.857Z</time>
      </trkpt>
      <trkpt lat="48.627313" lon="16.610344">
        <ele>297.259696</ele>
        <time>2020-09-10T10:28:51.869Z</time>
      </trkpt>
      <trkpt lat="48.627245" lon="16.610453">
        <ele>298.456279</ele>
        <time>2020-09-10T10:28:53.862Z</time>
      </trkpt>
      <trkpt lat="48.627162" lon="16.610567">
        <ele>299.810279</ele>
        <time>2020-09-10T10:28:55.877Z</time>
      </trkpt>
      <trkpt lat="48.627064" lon="16.610679">
        <ele>301.293721</ele>
        <time>2020-09-10T10:28:57.854Z</time>
      </trkpt>
      <trkpt lat="48.626946" lon="16.610791">
        <ele>302.976234</ele>
        <time>2020-09-10T10:28:59.868Z</time>
      </trkpt>
      <trkpt lat="48.626809" lon="16.610880">
        <ele>304.777079</ele>
        <time>2020-09-10T10:29:01.869Z</time>
      </trkpt>
      <trkpt lat="48.626662" lon="16.610962">
        <ele>306.669453</ele>
        <time>2020-09-10T10:29:03.863Z</time>
      </trkpt>
      <trkpt lat="48.626506" lon="16.611052">
        <ele>308.686040</ele>
        <time>2020-09-10T10:29:05.865Z</time>
      </trkpt>
      <trkpt lat="48.626416" lon="16.611093">
        <ele>309.821313</ele>
        <time>2020-09-10T10:29:06.864Z</time>
      </trkpt>
      <trkpt lat="48.626329" lon="16.611172">
        <ele>311.046880</ele>
        <time>2020-09-10T10:29:07.867Z</time>
      </trkpt>
      <trkpt lat="48.626233" lon="16.611222">
        <ele>312.064037</ele>
        <time>2020-09-10T10:29:08.857Z</time>
      </trkpt>
      <trkpt lat="48.626132" lon="16.611247">
        <ele>312.225966</ele>
        <time>2020-09-10T10:29:09.871Z</time>
      </trkpt>
      <trkpt lat="48.626027" lon="16.611234">
        <ele>312.392654</ele>
        <time>2020-09-10T10:29:10.853Z</time>
      </trkpt>
      <trkpt lat="48.625924" lon="16.611165">
        <ele>312.570884</ele>
        <time>2020-09-10T10:29:11.850Z</time>
      </trkpt>
      <trkpt lat="48.625802" lon="16.611092">
        <ele>312.778463</ele>
        <time>2020-09-10T10:29:12.845Z</time>
      </trkpt>
      <trkpt lat="48.625703" lon="16.610979">
        <ele>312.974681</ele>
        <time>2020-09-10T10:29:13.854Z</time>
      </trkpt>
      <trkpt lat="48.625617" lon="16.610855">
        <ele>313.162649</ele>
        <time>2020-09-10T10:29:14.852Z</time>
      </trkpt>
      <trkpt lat="48.625550" lon="16.610704">
        <ele>313.352848</ele>
        <time>2020-09-10T10:29:15.847Z</time>
      </trkpt>
      <trkpt lat="48.625482" lon="16.610555">
        <ele>313.542209</ele>
        <time>2020-09-10T10:29:16.866Z</time>
      </trkpt>
      <trkpt lat="48.625427" lon="16.610396">
        <ele>313.729888</ele>
        <time>2020-09-10T10:29:17.849Z</time>
      </trkpt>
      <trkpt lat="48.625374" lon="16.610229">
        <ele>313.923627</ele>
        <time>2020-09-10T10:29:18.877Z</time>
      </trkpt>
      <trkpt lat="48.625308" lon="16.610078">
        <ele>314.112949</ele>
        <time>2020-09-10T10:29:19.874Z</time>
      </trkpt>
      <trkpt lat="48.625291" lon="16.609885">
        <ele>314.316576</ele>
        <time>2020-09-10T10:29:20.847Z</time>
      </trkpt>
      <trkpt lat="48.625268" lon="16.609695">
        <ele>314.518586</ele>
        <time>2020-09-10T10:29:21.869Z</time>
      </trkpt>
      <trkpt lat="48.625236" lon="16.609507">
        <ele>314.721613</ele>
        <time>2020-09-10T10:29:22.865Z</time>
      </trkpt>
      <trkpt lat="48.625193" lon="16.609324">
        <ele>314.869144</ele>
        <time>2020-09-10T10:29:23.864Z</time>
      </trkpt>
      <trkpt lat="48.625128" lon="16.609162">
        <ele>314.829791</ele>
        <time>2020-09-10T10:29:24.855Z</time>
      </trkpt>
      <trkpt lat="48.625060" lon="16.609003">
        <ele>314.790466</ele>
        <time>2020-09-10T10:29:25.852Z</time>
      </trkpt>
      <trkpt lat="48.624980" lon="16.608856">
        <ele>314.750925</ele>
        <time>2020-09-10T10:29:26.860Z</time>
      </trkpt>
      <trkpt lat="48.624892" lon="16.608716">
        <ele>314.710807</ele>
        <time>2020-09-10T10:29:27.857Z</time>
      </trkpt>
      <trkpt lat="48.624788" lon="16.608606">
        <ele>314.670942</ele>
        <time>2020-09-10T10:29:28.850Z</time>
      </trkpt>
      <trkpt lat="48.624691" lon="16.608484">
        <ele>314.631313</ele>
        <time>2020-09-10T10:29:29.872Z</time>
      </trkpt>
      <trkpt lat="48.624592" lon="16.608362">
        <ele>314.591199</ele>
        <time>2020-09-10T10:29:30.864Z</time>
      </trkpt>
      <trkpt lat="48.624490" lon="16.608243">
        <ele>314.550733</ele>
        <time>2020-09-10T10:29:31.848Z</time>
      </trkpt>
      <trkpt lat="48.624380" lon="16.608136">
        <ele>314.509649</ele>
        <time>2020-09-10T10:29:32.867Z</time>
      </trkpt>
      <trkpt lat="48.624263" lon="16.608038">
        <ele>314.467635</ele>
        <time>2020-09-10T10:29:33.847Z</time>
      </trkpt>
      <trkpt lat="48.624150" lon="16.607929">
        <ele>314.425533</ele>
        <time>2020-09-10T10:29:34.873Z</time>
      </trkpt>
      <trkpt lat="48.624053" lon="16.607793">
        <ele>314.383985</ele>
        <time>2020-09-10T10:29:35.844Z</time>
      </trkpt>
      <trkpt lat="48.623965" lon="16.607642">
        <ele>314.342182</ele>
        <time>2020-09-10T10:29:36.864Z</time>
      </trkpt>
      <trkpt lat="48.623881" lon="16.607486">
        <ele>314.227350</ele>
        <time>2020-09-10T10:29:37.862Z</time>
      </trkpt>
      <trkpt lat="48.623797" lon="16.607330">
        <ele>313.948844</ele>
        <time>2020-09-10T10:29:38.855Z</time>
      </trkpt>
      <trkpt lat="48.623718" lon="16.607171">
        <ele>313.673522</ele>
        <time>2020-09-10T10:29:39.857Z</time>
      </trkpt>
      <trkpt lat="48.623640" lon="16.607010">
        <ele>313.397224</ele>
        <time>2020-09-10T10:29:40.871Z</time>
      </trkpt>
      <trkpt lat="48.623566" lon="16.606846">
        <ele>313.122374</ele>
        <time>2020-09-10T10:29:41.857Z</time>
      </trkpt>
      <trkpt lat="48.623496" lon="16.606678">
        <ele>312.847490</ele>
        <time>2020-09-10T10:29:42.891Z</time>
      </trkpt>
      <trkpt lat="48.623429" lon="16.606508">
        <ele>312.573530</ele>
        <time>2020-09-10T10:29:43.849Z</time>
      </trkpt>
      <trkpt lat="48.623377" lon="16.606329">
        <ele>312.302892</ele>
        <time>2020-09-10T10:29:44.872Z</time>
      </trkpt>
      <trkpt lat="48.623329" lon="16.606145">
        <ele>312.029088</ele>
        <time>2020-09-10T10:29:45.851Z</time>
      </trkpt>
      <trkpt lat="48.623283" lon="16.605959">
        <ele>311.754202</ele>
        <time>2020-09-10T10:29:46.860Z</time>
      </trkpt>
      <trkpt lat="48.623238" lon="16.605772">
        <ele>311.478743</ele>
        <time>2020-09-10T10:29:47.887Z</time>
      </trkpt>
      <trkpt lat="48.623202" lon="16.605580">
        <ele>311.202497</ele>
        <time>2020-09-10T10:29:48.859Z</time>
      </trkpt>
      <trkpt lat="48.623169" lon="16.605391">
        <ele>310.931915</ele>
        <time>2020-09-10T10:29:49.857Z</time>
      </trkpt>
      <trkpt lat="48.623134" lon="16.605202">
        <ele>310.660233</ele>
        <time>2020-09-10T10:29:50.880Z</time>
      </trkpt>
      <trkpt lat="48.623105" lon="16.605011">
        <ele>310.342905</ele>
        <time>2020-09-10T10:29:51.863Z</time>
      </trkpt>
      <trkpt lat="48.623077" lon="16.604821">
        <ele>309.994846</ele>
        <time>2020-09-10T10:29:52.850Z</time>
      </trkpt>
      <trkpt lat="48.623049" lon="16.604632">
        <ele>309.648532</ele>
        <time>2020-09-10T10:29:53.853Z</time>
      </trkpt>
      <trkpt lat="48.623023" lon="16.604445">
        <ele>309.306860</ele>
        <time>2020-09-10T10:29:54.864Z</time>
      </trkpt>
      <trkpt lat="48.623005" lon="16.604251">
        <ele>308.956588</ele>
        <time>2020-09-10T10:29:55.866Z</time>
      </trkpt>
      <trkpt lat="48.622984" lon="16.604066">
        <ele>308.620966</ele>
        <time>2020-09-10T10:29:56.876Z</time>
      </trkpt>
      <trkpt lat="48.622961" lon="16.603885">
        <ele>308.291413</ele>
        <time>2020-09-10T10:29:57.891Z</time>
      </trkpt>
      <trkpt lat="48.622936" lon="16.603707">
        <ele>307.966044</ele>
        <time>2020-09-10T10:29:58.865Z</time>
      </trkpt>
      <trkpt lat="48.622911" lon="16.603535">
        <ele>307.651161</ele>
        <time>2020-09-10T10:29:59.850Z</time>
      </trkpt>
      <trkpt lat="48.622888" lon="16.603365">
        <ele>307.340899</ele>
        <time>2020-09-10T10:30:00.857Z</time>
      </trkpt>
      <trkpt lat="48.622862" lon="16.603201">
        <ele>307.039351</ele>
        <time>2020-09-10T10:30:01.862Z</time>
      </trkpt>
      <trkpt lat="48.622827" lon="16.603046">
        <ele>306.746486</ele>
        <time>2020-09-10T10:30:02.867Z</time>
      </trkpt>
      <trkpt lat="48.622780" lon="16.602903">
        <ele>306.460939</ele>
        <time>2020-09-10T10:30:03.866Z</time>
      </trkpt>
      <trkpt lat="48.622719" lon="16.602777">
        <ele>306.181689</ele>
        <time>2020-09-10T10:30:04.846Z</time>
      </trkpt>
      <trkpt lat="48.622641" lon="16.602676">
        <ele>305.903971</ele>
        <time>2020-09-10T10:30:05.881Z</time>
      </trkpt>
      <trkpt lat="48.622561" lon="16.602585">
        <ele>305.618903</ele>
        <time>2020-09-10T10:30:06.846Z</time>
      </trkpt>
      <trkpt lat="48.622475" lon="16.602510">
        <ele>305.270936</ele>
        <time>2020-09-10T10:30:07.860Z</time>
      </trkpt>
      <trkpt lat="48.622391" lon="16.602433">
        <ele>304.926647</ele>
        <time>2020-09-10T10:30:08.851Z</time>
      </trkpt>
      <trkpt lat="48.622306" lon="16.602360">
        <ele>304.584024</ele>
        <time>2020-09-10T10:30:09.876Z</time>
      </trkpt>
      <trkpt lat="48.622220" lon="16.602292">
        <ele>304.243867</ele>
        <time>2020-09-10T10:30:10.859Z</time>
      </trkpt>
      <trkpt lat="48.622133" lon="16.602229">
        <ele>303.905761</ele>
        <time>2020-09-10T10:30:11.856Z</time>
      </trkpt>
      <trkpt lat="48.622039" lon="16.602178">
        <ele>303.555704</ele>
        <time>2020-09-10T10:30:12.868Z</time>
      </trkpt>
      <trkpt lat="48.621950" lon="16.602114">
        <ele>303.210273</ele>
        <time>2020-09-10T10:30:13.877Z</time>
      </trkpt>
      <trkpt lat="48.621855" lon="16.602063">
        <ele>302.856914</ele>
        <time>2020-09-10T10:30:14.857Z</time>
      </trkpt>
      <trkpt lat="48.621760" lon="16.602005">
        <ele>302.497806</ele>
        <time>2020-09-10T10:30:15.849Z</time>
      </trkpt>
      <trkpt lat="48.621665" lon="16.601939">
        <ele>302.131357</ele>
        <time>2020-09-10T10:30:16.881Z</time>
      </trkpt>
      <trkpt lat="48.621572" lon="16.601867">
        <ele>301.765146</ele>
        <time>2020-09-10T10:30:17.876Z</time>
      </trkpt>
      <trkpt lat="48.621477" lon="16.601796">
        <ele>301.393712</ele>
        <time>2020-09-10T10:30:18.899Z</time>
      </trkpt>
      <trkpt lat="48.621384" lon="16.601722">
        <ele>301.025366</ele>
        <time>2020-09-10T10:30:19.863Z</time>
      </trkpt>
      <trkpt lat="48.621290" lon="16.601651">
        <ele>300.657072</ele>
        <time>2020-09-10T10:30:20.858Z</time>
      </trkpt>
      <trkpt lat="48.621202" lon="16.601566">
        <ele>300.291081</ele>
        <time>2020-09-10T10:30:21.869Z</time>
      </trkpt>
      <trkpt lat="48.621112" lon="16.601487">
        <ele>299.926333</ele>
        <time>2020-09-10T10:30:22.871Z</time>
      </trkpt>
      <trkpt lat="48.621024" lon="16.601407">
        <ele>299.566445</ele>
        <time>2020-09-10T10:30:23.880Z</time>
      </trkpt>
      <trkpt lat="48.620937" lon="16.601329">
        <ele>299.192045</ele>
        <time>2020-09-10T10:30:24.860Z</time>
      </trkpt>
      <trkpt lat="48.620853" lon="16.601250">
        <ele>298.803460</ele>
        <time>2020-09-10T10:30:25.882Z</time>
      </trkpt>
      <trkpt lat="48.620772" lon="16.601168">
        <ele>298.420556</ele>
        <time>2020-09-10T10:30:26.880Z</time>
      </trkpt>
      <trkpt lat="48.620691" lon="16.601084">
        <ele>298.034739</ele>
        <time>2020-09-10T10:30:27.870Z</time>
      </trkpt>
      <trkpt lat="48.620612" lon="16.601005">
        <ele>297.662691</ele>
        <time>2020-09-10T10:30:28.872Z</time>
      </trkpt>
      <trkpt lat="48.620532" lon="16.600932">
        <ele>297.295646</ele>
        <time>2020-09-10T10:30:29.855Z</time>
      </trkpt>
      <trkpt lat="48.620452" lon="16.600859">
        <ele>296.928600</ele>
        <time>2020-09-10T10:30:30.881Z</time>
      </trkpt>
      <trkpt lat="48.620375" lon="16.600782">
        <ele>296.565971</ele>
        <time>2020-09-10T10:30:31.856Z</time>
      </trkpt>
      <trkpt lat="48.620299" lon="16.600706">
        <ele>296.208051</ele>
        <time>2020-09-10T10:30:32.862Z</time>
      </trkpt>
      <trkpt lat="48.620150" lon="16.600557">
        <ele>295.506340</ele>
        <time>2020-09-10T10:30:34.853Z</time>
      </trkpt>
      <trkpt lat="48.620004" lon="16.600409">
        <ele>294.815878</ele>
        <time>2020-09-10T10:30:36.884Z</time>
      </trkpt>
      <trkpt lat="48.619864" lon="16.600266">
        <ele>294.152223</ele>
        <time>2020-09-10T10:30:38.881Z</time>
      </trkpt>
      <trkpt lat="48.619726" lon="16.600115">
        <ele>293.483103</ele>
        <time>2020-09-10T10:30:40.863Z</time>
      </trkpt>
      <trkpt lat="48.619590" lon="16.599974">
        <ele>292.835361</ele>
        <time>2020-09-10T10:30:42.875Z</time>
      </trkpt>
      <trkpt lat="48.619449" lon="16.599842">
        <ele>292.180320</ele>
        <time>2020-09-10T10:30:44.881Z</time>
      </trkpt>
      <trkpt lat="48.619314" lon="16.599699">
        <ele>291.514419</ele>
        <time>2020-09-10T10:30:46.864Z</time>
      </trkpt>
      <trkpt lat="48.619181" lon="16.599552">
        <ele>290.848874</ele>
        <time>2020-09-10T10:30:48.854Z</time>
      </trkpt>
      <trkpt lat="48.619048" lon="16.599403">
        <ele>290.180163</ele>
        <time>2020-09-10T10:30:50.852Z</time>
      </trkpt>
      <trkpt lat="48.618911" lon="16.599267">
        <ele>289.518065</ele>
        <time>2020-09-10T10:30:52.856Z</time>
      </trkpt>
      <trkpt lat="48.618774" lon="16.599142">
        <ele>288.871619</ele>
        <time>2020-09-10T10:30:54.884Z</time>
      </trkpt>
      <trkpt lat="48.618630" lon="16.599024">
        <ele>288.209902</ele>
        <time>2020-09-10T10:30:56.850Z</time>
      </trkpt>
      <trkpt lat="48.618481" lon="16.598910">
        <ele>287.535242</ele>
        <time>2020-09-10T10:30:58.849Z</time>
      </trkpt>
      <trkpt lat="48.618326" lon="16.598795">
        <ele>286.837691</ele>
        <time>2020-09-10T10:31:00.861Z</time>
      </trkpt>
      <trkpt lat="48.618172" lon="16.598664">
        <ele>286.123817</ele>
        <time>2020-09-10T10:31:02.854Z</time>
      </trkpt>
      <trkpt lat="48.618019" lon="16.598519">
        <ele>285.394315</ele>
        <time>2020-09-10T10:31:04.856Z</time>
      </trkpt>
      <trkpt lat="48.617942" lon="16.598438">
        <ele>285.029239</ele>
        <time>2020-09-10T10:31:05.837Z</time>
      </trkpt>
      <trkpt lat="48.617869" lon="16.598352">
        <ele>284.843162</ele>
        <time>2020-09-10T10:31:06.866Z</time>
      </trkpt>
      <trkpt lat="48.617796" lon="16.598267">
        <ele>284.657899</ele>
        <time>2020-09-10T10:31:07.865Z</time>
      </trkpt>
      <trkpt lat="48.617724" lon="16.598183">
        <ele>284.475040</ele>
        <time>2020-09-10T10:31:08.864Z</time>
      </trkpt>
      <trkpt lat="48.617594" lon="16.598003">
        <ele>284.120617</ele>
        <time>2020-09-10T10:31:10.885Z</time>
      </trkpt>
      <trkpt lat="48.617474" lon="16.597822">
        <ele>283.779818</ele>
        <time>2020-09-10T10:31:12.875Z</time>
      </trkpt>
      <trkpt lat="48.617360" lon="16.597639">
        <ele>283.445524</ele>
        <time>2020-09-10T10:31:14.881Z</time>
      </trkpt>
      <trkpt lat="48.617244" lon="16.597463">
        <ele>283.115113</ele>
        <time>2020-09-10T10:31:16.876Z</time>
      </trkpt>
      <trkpt lat="48.617128" lon="16.597299">
        <ele>282.795801</ele>
        <time>2020-09-10T10:31:18.850Z</time>
      </trkpt>
      <trkpt lat="48.617013" lon="16.597131">
        <ele>282.474284</ele>
        <time>2020-09-10T10:31:20.873Z</time>
      </trkpt>
      <trkpt lat="48.616886" lon="16.596993">
        <ele>282.159812</ele>
        <time>2020-09-10T10:31:22.860Z</time>
      </trkpt>
      <trkpt lat="48.616750" lon="16.596879">
        <ele>281.847121</ele>
        <time>2020-09-10T10:31:24.861Z</time>
      </trkpt>
      <trkpt lat="48.616609" lon="16.596774">
        <ele>281.531063</ele>
        <time>2020-09-10T10:31:26.845Z</time>
      </trkpt>
      <trkpt lat="48.616465" lon="16.596675">
        <ele>281.178234</ele>
        <time>2020-09-10T10:31:28.869Z</time>
      </trkpt>
      <trkpt lat="48.616312" lon="16.596630">
        <ele>280.813637</ele>
        <time>2020-09-10T10:31:30.869Z</time>
      </trkpt>
      <trkpt lat="48.616158" lon="16.596636">
        <ele>280.453285</ele>
        <time>2020-09-10T10:31:32.863Z</time>
      </trkpt>
      <trkpt lat="48.616003" lon="16.596665">
        <ele>280.087950</ele>
        <time>2020-09-10T10:31:34.861Z</time>
      </trkpt>
      <trkpt lat="48.615853" lon="16.596738">
        <ele>279.719360</ele>
        <time>2020-09-10T10:31:36.852Z</time>
      </trkpt>
      <trkpt lat="48.615705" lon="16.596826">
        <ele>279.347375</ele>
        <time>2020-09-10T10:31:38.855Z</time>
      </trkpt>
      <trkpt lat="48.615558" lon="16.596928">
        <ele>278.969063</ele>
        <time>2020-09-10T10:31:40.870Z</time>
      </trkpt>
      <trkpt lat="48.615416" lon="16.597034">
        <ele>278.598654</ele>
        <time>2020-09-10T10:31:42.864Z</time>
      </trkpt>
      <trkpt lat="48.615274" lon="16.597138">
        <ele>278.229602</ele>
        <time>2020-09-10T10:31:44.865Z</time>
      </trkpt>
      <trkpt lat="48.615137" lon="16.597239">
        <ele>277.873098</ele>
        <time>2020-09-10T10:31:46.847Z</time>
      </trkpt>
      <trkpt lat="48.615004" lon="16.597339">
        <ele>277.525672</ele>
        <time>2020-09-10T10:31:48.861Z</time>
      </trkpt>
      <trkpt lat="48.614869" lon="16.597433">
        <ele>277.187254</ele>
        <time>2020-09-10T10:31:50.851Z</time>
      </trkpt>
      <trkpt lat="48.614734" lon="16.597536">
        <ele>276.914225</ele>
        <time>2020-09-10T10:31:52.858Z</time>
      </trkpt>
      <trkpt lat="48.614598" lon="16.597637">
        <ele>276.640643</ele>
        <time>2020-09-10T10:31:54.853Z</time>
      </trkpt>
      <trkpt lat="48.614465" lon="16.597734">
        <ele>276.374022</ele>
        <time>2020-09-10T10:31:56.892Z</time>
      </trkpt>
      <trkpt lat="48.614335" lon="16.597836">
        <ele>276.109574</ele>
        <time>2020-09-10T10:31:58.868Z</time>
      </trkpt>
      <trkpt lat="48.614208" lon="16.597936">
        <ele>275.851034</ele>
        <time>2020-09-10T10:32:00.862Z</time>
      </trkpt>
      <trkpt lat="48.614083" lon="16.598031">
        <ele>275.598428</ele>
        <time>2020-09-10T10:32:02.875Z</time>
      </trkpt>
      <trkpt lat="48.613961" lon="16.598120">
        <ele>275.353846</ele>
        <time>2020-09-10T10:32:04.863Z</time>
      </trkpt>
      <trkpt lat="48.613837" lon="16.598206">
        <ele>275.107520</ele>
        <time>2020-09-10T10:32:06.855Z</time>
      </trkpt>
      <trkpt lat="48.613711" lon="16.598295">
        <ele>274.856412</ele>
        <time>2020-09-10T10:32:08.866Z</time>
      </trkpt>
      <trkpt lat="48.613588" lon="16.598382">
        <ele>274.611223</ele>
        <time>2020-09-10T10:32:10.853Z</time>
      </trkpt>
      <trkpt lat="48.613463" lon="16.598462">
        <ele>274.366133</ele>
        <time>2020-09-10T10:32:12.839Z</time>
      </trkpt>
      <trkpt lat="48.613336" lon="16.598533">
        <ele>274.121642</ele>
        <time>2020-09-10T10:32:14.871Z</time>
      </trkpt>
      <trkpt lat="48.613210" lon="16.598598">
        <ele>273.907694</ele>
        <time>2020-09-10T10:32:16.875Z</time>
      </trkpt>
      <trkpt lat="48.613089" lon="16.598663">
        <ele>273.744438</ele>
        <time>2020-09-10T10:32:18.868Z</time>
      </trkpt>
      <trkpt lat="48.612970" lon="16.598733">
        <ele>273.582100</ele>
        <time>2020-09-10T10:32:20.863Z</time>
      </trkpt>
      <trkpt lat="48.612850" lon="16.598799">
        <ele>273.419756</ele>
        <time>2020-09-10T10:32:22.875Z</time>
      </trkpt>
      <trkpt lat="48.612731" lon="16.598861">
        <ele>273.259732</ele>
        <time>2020-09-10T10:32:24.872Z</time>
      </trkpt>
      <trkpt lat="48.612609" lon="16.598928">
        <ele>273.094711</ele>
        <time>2020-09-10T10:32:26.861Z</time>
      </trkpt>
      <trkpt lat="48.612489" lon="16.598993">
        <ele>272.932652</ele>
        <time>2020-09-10T10:32:28.862Z</time>
      </trkpt>
      <trkpt lat="48.612373" lon="16.599064">
        <ele>272.773549</ele>
        <time>2020-09-10T10:32:30.876Z</time>
      </trkpt>
      <trkpt lat="48.612261" lon="16.599136">
        <ele>272.618822</ele>
        <time>2020-09-10T10:32:32.885Z</time>
      </trkpt>
      <trkpt lat="48.612152" lon="16.599204">
        <ele>272.468911</ele>
        <time>2020-09-10T10:32:34.869Z</time>
      </trkpt>
      <trkpt lat="48.612047" lon="16.599277">
        <ele>272.321984</ele>
        <time>2020-09-10T10:32:36.882Z</time>
      </trkpt>
      <trkpt lat="48.611947" lon="16.599347">
        <ele>272.181886</ele>
        <time>2020-09-10T10:32:38.870Z</time>
      </trkpt>
      <trkpt lat="48.611848" lon="16.599416">
        <ele>272.043295</ele>
        <time>2020-09-10T10:32:40.870Z</time>
      </trkpt>
      <trkpt lat="48.611747" lon="16.599483">
        <ele>271.903073</ele>
        <time>2020-09-10T10:32:42.854Z</time>
      </trkpt>
      <trkpt lat="48.611647" lon="16.599547">
        <ele>271.765017</ele>
        <time>2020-09-10T10:32:44.871Z</time>
      </trkpt>
      <trkpt lat="48.611557" lon="16.599610">
        <ele>271.696206</ele>
        <time>2020-09-10T10:32:46.851Z</time>
      </trkpt>
      <trkpt lat="48.611471" lon="16.599673">
        <ele>271.729842</ele>
        <time>2020-09-10T10:32:48.860Z</time>
      </trkpt>
      <trkpt lat="48.611386" lon="16.599733">
        <ele>271.762861</ele>
        <time>2020-09-10T10:32:50.856Z</time>
      </trkpt>
      <trkpt lat="48.611301" lon="16.599800">
        <ele>271.796602</ele>
        <time>2020-09-10T10:32:52.849Z</time>
      </trkpt>
      <trkpt lat="48.611217" lon="16.599864">
        <ele>271.829710</ele>
        <time>2020-09-10T10:32:54.866Z</time>
      </trkpt>
      <trkpt lat="48.611134" lon="16.599924">
        <ele>271.862093</ele>
        <time>2020-09-10T10:32:56.861Z</time>
      </trkpt>
      <trkpt lat="48.611050" lon="16.599989">
        <ele>271.895307</ele>
        <time>2020-09-10T10:32:58.849Z</time>
      </trkpt>
      <trkpt lat="48.610964" lon="16.600054">
        <ele>271.929149</ele>
        <time>2020-09-10T10:33:00.858Z</time>
      </trkpt>
      <trkpt lat="48.610880" lon="16.600113">
        <ele>271.961751</ele>
        <time>2020-09-10T10:33:02.860Z</time>
      </trkpt>
      <trkpt lat="48.610791" lon="16.600176">
        <ele>271.996341</ele>
        <time>2020-09-10T10:33:04.875Z</time>
      </trkpt>
      <trkpt lat="48.610677" lon="16.600252">
        <ele>272.040196</ele>
        <time>2020-09-10T10:33:07.873Z</time>
      </trkpt>
      <trkpt lat="48.610554" lon="16.600326">
        <ele>272.086792</ele>
        <time>2020-09-10T10:33:10.873Z</time>
      </trkpt>
      <trkpt lat="48.610432" lon="16.600402">
        <ele>272.133238</ele>
        <time>2020-09-10T10:33:13.864Z</time>
      </trkpt>
      <trkpt lat="48.610315" lon="16.600464">
        <ele>272.176878</ele>
        <time>2020-09-10T10:33:16.883Z</time>
      </trkpt>
      <trkpt lat="48.610203" lon="16.600524">
        <ele>272.218703</ele>
        <time>2020-09-10T10:33:19.874Z</time>
      </trkpt>
      <trkpt lat="48.610093" lon="16.600577">
        <ele>272.259341</ele>
        <time>2020-09-10T10:33:22.855Z</time>
      </trkpt>
      <trkpt lat="48.609990" lon="16.600630">
        <ele>272.297639</ele>
        <time>2020-09-10T10:33:25.862Z</time>
      </trkpt>
      <trkpt lat="48.609889" lon="16.600683">
        <ele>272.328568</ele>
        <time>2020-09-10T10:33:28.849Z</time>
      </trkpt>
      <trkpt lat="48.609776" lon="16.600736">
        <ele>272.354996</ele>
        <time>2020-09-10T10:33:32.856Z</time>
      </trkpt>
      <trkpt lat="48.609665" lon="16.600788">
        <ele>272.380954</ele>
        <time>2020-09-10T10:33:36.900Z</time>
      </trkpt>
      <trkpt lat="48.609560" lon="16.600836">
        <ele>272.405457</ele>
        <time>2020-09-10T10:33:40.863Z</time>
      </trkpt>
      <trkpt lat="48.609455" lon="16.600871">
        <ele>272.429475</ele>
        <time>2020-09-10T10:33:44.884Z</time>
      </trkpt>
      <trkpt lat="48.609355" lon="16.600914">
        <ele>272.452698</ele>
        <time>2020-09-10T10:33:48.853Z</time>
      </trkpt>
      <trkpt lat="48.609251" lon="16.600944">
        <ele>272.476349</ele>
        <time>2020-09-10T10:33:52.858Z</time>
      </trkpt>
      <trkpt lat="48.609138" lon="16.600982">
        <ele>272.502207</ele>
        <time>2020-09-10T10:33:56.866Z</time>
      </trkpt>
      <trkpt lat="48.609038" lon="16.601012">
        <ele>272.524980</ele>
        <time>2020-09-10T10:33:59.849Z</time>
      </trkpt>
      <trkpt lat="48.608929" lon="16.601053">
        <ele>272.550071</ele>
        <time>2020-09-10T10:34:02.866Z</time>
      </trkpt>
      <trkpt lat="48.608804" lon="16.601090">
        <ele>272.578523</ele>
        <time>2020-09-10T10:34:05.882Z</time>
      </trkpt>
      <trkpt lat="48.608711" lon="16.601129">
        <ele>272.600082</ele>
        <time>2020-09-10T10:34:07.863Z</time>
      </trkpt>
      <trkpt lat="48.608589" lon="16.601173">
        <ele>272.628098</ele>
        <time>2020-09-10T10:34:09.880Z</time>
      </trkpt>
      <trkpt lat="48.608464" lon="16.601218">
        <ele>272.656801</ele>
        <time>2020-09-10T10:34:11.846Z</time>
      </trkpt>
      <trkpt lat="48.608336" lon="16.601272">
        <ele>272.686486</ele>
        <time>2020-09-10T10:34:13.864Z</time>
      </trkpt>
      <trkpt lat="48.608195" lon="16.601336">
        <ele>272.714969</ele>
        <time>2020-09-10T10:34:15.875Z</time>
      </trkpt>
      <trkpt lat="48.608042" lon="16.601402">
        <ele>272.513474</ele>
        <time>2020-09-10T10:34:17.862Z</time>
      </trkpt>
      <trkpt lat="48.607889" lon="16.601466">
        <ele>272.312431</ele>
        <time>2020-09-10T10:34:19.908Z</time>
      </trkpt>
      <trkpt lat="48.607726" lon="16.601536">
        <ele>272.097838</ele>
        <time>2020-09-10T10:34:21.850Z</time>
      </trkpt>
      <trkpt lat="48.607557" lon="16.601618">
        <ele>271.873062</ele>
        <time>2020-09-10T10:34:23.854Z</time>
      </trkpt>
      <trkpt lat="48.607469" lon="16.601663">
        <ele>271.755415</ele>
        <time>2020-09-10T10:34:24.867Z</time>
      </trkpt>
      <trkpt lat="48.607380" lon="16.601708">
        <ele>271.636568</ele>
        <time>2020-09-10T10:34:25.865Z</time>
      </trkpt>
      <trkpt lat="48.607291" lon="16.601759">
        <ele>271.516034</ele>
        <time>2020-09-10T10:34:26.859Z</time>
      </trkpt>
      <trkpt lat="48.607203" lon="16.601810">
        <ele>271.396683</ele>
        <time>2020-09-10T10:34:27.878Z</time>
      </trkpt>
      <trkpt lat="48.607113" lon="16.601860">
        <ele>271.275255</ele>
        <time>2020-09-10T10:34:28.870Z</time>
      </trkpt>
      <trkpt lat="48.607021" lon="16.601903">
        <ele>271.153304</ele>
        <time>2020-09-10T10:34:29.882Z</time>
      </trkpt>
      <trkpt lat="48.606928" lon="16.601932">
        <ele>271.033046</ele>
        <time>2020-09-10T10:34:30.862Z</time>
      </trkpt>
      <trkpt lat="48.606837" lon="16.601966">
        <ele>270.914334</ele>
        <time>2020-09-10T10:34:31.878Z</time>
      </trkpt>
      <trkpt lat="48.606744" lon="16.602003">
        <ele>270.792546</ele>
        <time>2020-09-10T10:34:32.900Z</time>
      </trkpt>
      <trkpt lat="48.606649" lon="16.602030">
        <ele>270.670127</ele>
        <time>2020-09-10T10:34:33.867Z</time>
      </trkpt>
      <trkpt lat="48.606555" lon="16.602066">
        <ele>270.547322</ele>
        <time>2020-09-10T10:34:34.863Z</time>
      </trkpt>
      <trkpt lat="48.606461" lon="16.602099">
        <ele>270.422788</ele>
        <time>2020-09-10T10:34:35.898Z</time>
      </trkpt>
      <trkpt lat="48.606364" lon="16.602097">
        <ele>270.281756</ele>
        <time>2020-09-10T10:34:36.864Z</time>
      </trkpt>
      <trkpt lat="48.606269" lon="16.602126">
        <ele>270.140860</ele>
        <time>2020-09-10T10:34:37.861Z</time>
      </trkpt>
      <trkpt lat="48.606172" lon="16.602147">
        <ele>269.998404</ele>
        <time>2020-09-10T10:34:38.874Z</time>
      </trkpt>
      <trkpt lat="48.606073" lon="16.602167">
        <ele>269.853200</ele>
        <time>2020-09-10T10:34:39.881Z</time>
      </trkpt>
      <trkpt lat="48.605974" lon="16.602184">
        <ele>269.708349</ele>
        <time>2020-09-10T10:34:40.890Z</time>
      </trkpt>
      <trkpt lat="48.605876" lon="16.602205">
        <ele>269.564454</ele>
        <time>2020-09-10T10:34:41.878Z</time>
      </trkpt>
      <trkpt lat="48.605778" lon="16.602227">
        <ele>269.420421</ele>
        <time>2020-09-10T10:34:42.879Z</time>
      </trkpt>
      <trkpt lat="48.605681" lon="16.602255">
        <ele>269.276857</ele>
        <time>2020-09-10T10:34:43.861Z</time>
      </trkpt>
      <trkpt lat="48.605588" lon="16.602279">
        <ele>269.139699</ele>
        <time>2020-09-10T10:34:44.886Z</time>
      </trkpt>
      <trkpt lat="48.605493" lon="16.602293">
        <ele>269.000935</ele>
        <time>2020-09-10T10:34:45.857Z</time>
      </trkpt>
      <trkpt lat="48.605401" lon="16.602318">
        <ele>268.865043</ele>
        <time>2020-09-10T10:34:46.878Z</time>
      </trkpt>
      <trkpt lat="48.605309" lon="16.602340">
        <ele>268.729632</ele>
        <time>2020-09-10T10:34:47.860Z</time>
      </trkpt>
      <trkpt lat="48.605217" lon="16.602369">
        <ele>268.593008</ele>
        <time>2020-09-10T10:34:48.863Z</time>
      </trkpt>
      <trkpt lat="48.605123" lon="16.602404">
        <ele>268.452271</ele>
        <time>2020-09-10T10:34:49.857Z</time>
      </trkpt>
      <trkpt lat="48.605029" lon="16.602440">
        <ele>268.311300</ele>
        <time>2020-09-10T10:34:50.860Z</time>
      </trkpt>
      <trkpt lat="48.604939" lon="16.602490">
        <ele>268.171909</ele>
        <time>2020-09-10T10:34:51.842Z</time>
      </trkpt>
      <trkpt lat="48.604847" lon="16.602509">
        <ele>268.036918</ele>
        <time>2020-09-10T10:34:52.853Z</time>
      </trkpt>
      <trkpt lat="48.604754" lon="16.602512">
        <ele>267.901684</ele>
        <time>2020-09-10T10:34:53.858Z</time>
      </trkpt>
      <trkpt lat="48.604662" lon="16.602508">
        <ele>267.799987</ele>
        <time>2020-09-10T10:34:54.843Z</time>
      </trkpt>
      <trkpt lat="48.604572" lon="16.602493">
        <ele>267.741139</ele>
        <time>2020-09-10T10:34:55.858Z</time>
      </trkpt>
      <trkpt lat="48.604398" lon="16.602461">
        <ele>267.627217</ele>
        <time>2020-09-10T10:34:57.890Z</time>
      </trkpt>
      <trkpt lat="48.604235" lon="16.602404">
        <ele>267.518483</ele>
        <time>2020-09-10T10:34:59.855Z</time>
      </trkpt>
      <trkpt lat="48.604086" lon="16.602313">
        <ele>267.414043</ele>
        <time>2020-09-10T10:35:01.862Z</time>
      </trkpt>
      <trkpt lat="48.603958" lon="16.602175">
        <ele>267.311875</ele>
        <time>2020-09-10T10:35:03.870Z</time>
      </trkpt>
      <trkpt lat="48.603839" lon="16.602032">
        <ele>267.213088</ele>
        <time>2020-09-10T10:35:05.867Z</time>
      </trkpt>
      <trkpt lat="48.603730" lon="16.601879">
        <ele>267.116431</ele>
        <time>2020-09-10T10:35:07.858Z</time>
      </trkpt>
      <trkpt lat="48.603621" lon="16.601743">
        <ele>267.024588</ele>
        <time>2020-09-10T10:35:09.873Z</time>
      </trkpt>
      <trkpt lat="48.603510" lon="16.601629">
        <ele>266.937382</ele>
        <time>2020-09-10T10:35:11.864Z</time>
      </trkpt>
      <trkpt lat="48.603398" lon="16.601538">
        <ele>266.854748</ele>
        <time>2020-09-10T10:35:13.857Z</time>
      </trkpt>
      <trkpt lat="48.603286" lon="16.601447">
        <ele>266.772114</ele>
        <time>2020-09-10T10:35:15.854Z</time>
      </trkpt>
      <trkpt lat="48.603178" lon="16.601341">
        <ele>266.688433</ele>
        <time>2020-09-10T10:35:17.871Z</time>
      </trkpt>
      <trkpt lat="48.603067" lon="16.601254">
        <ele>266.489924</ele>
        <time>2020-09-10T10:35:19.878Z</time>
      </trkpt>
      <trkpt lat="48.602960" lon="16.601188">
        <ele>266.237882</ele>
        <time>2020-09-10T10:35:21.872Z</time>
      </trkpt>
      <trkpt lat="48.602856" lon="16.601125">
        <ele>265.993529</ele>
        <time>2020-09-10T10:35:23.867Z</time>
      </trkpt>
      <trkpt lat="48.602756" lon="16.601058">
        <ele>265.754973</ele>
        <time>2020-09-10T10:35:25.866Z</time>
      </trkpt>
      <trkpt lat="48.602653" lon="16.601005">
        <ele>265.517674</ele>
        <time>2020-09-10T10:35:27.886Z</time>
      </trkpt>
      <trkpt lat="48.602550" lon="16.600960">
        <ele>265.283836</ele>
        <time>2020-09-10T10:35:29.845Z</time>
      </trkpt>
      <trkpt lat="48.602453" lon="16.600919">
        <ele>265.064163</ele>
        <time>2020-09-10T10:35:31.865Z</time>
      </trkpt>
      <trkpt lat="48.602359" lon="16.600884">
        <ele>264.853019</ele>
        <time>2020-09-10T10:35:33.874Z</time>
      </trkpt>
      <trkpt lat="48.602265" lon="16.600855">
        <ele>264.643776</ele>
        <time>2020-09-10T10:35:35.867Z</time>
      </trkpt>
      <trkpt lat="48.602173" lon="16.600832">
        <ele>264.440394</ele>
        <time>2020-09-10T10:35:37.864Z</time>
      </trkpt>
      <trkpt lat="48.602043" lon="16.600803">
        <ele>264.153786</ele>
        <time>2020-09-10T10:35:40.851Z</time>
      </trkpt>
      <trkpt lat="48.601918" lon="16.600785">
        <ele>263.879919</ele>
        <time>2020-09-10T10:35:43.890Z</time>
      </trkpt>
      <trkpt lat="48.601792" lon="16.600774">
        <ele>263.604647</ele>
        <time>2020-09-10T10:35:46.871Z</time>
      </trkpt>
      <trkpt lat="48.601663" lon="16.600782">
        <ele>263.323052</ele>
        <time>2020-09-10T10:35:49.874Z</time>
      </trkpt>
      <trkpt lat="48.601523" lon="16.600790">
        <ele>263.017484</ele>
        <time>2020-09-10T10:35:52.867Z</time>
      </trkpt>
      <trkpt lat="48.601420" lon="16.600793">
        <ele>262.792792</ele>
        <time>2020-09-10T10:35:54.882Z</time>
      </trkpt>
      <trkpt lat="48.601309" lon="16.600816">
        <ele>262.667972</ele>
        <time>2020-09-10T10:35:56.857Z</time>
      </trkpt>
      <trkpt lat="48.601195" lon="16.600842">
        <ele>262.578518</ele>
        <time>2020-09-10T10:35:58.853Z</time>
      </trkpt>
      <trkpt lat="48.601078" lon="16.600871">
        <ele>262.486526</ele>
        <time>2020-09-10T10:36:00.872Z</time>
      </trkpt>
      <trkpt lat="48.600954" lon="16.600907">
        <ele>262.388556</ele>
        <time>2020-09-10T10:36:02.890Z</time>
      </trkpt>
      <trkpt lat="48.600832" lon="16.600948">
        <ele>262.291586</ele>
        <time>2020-09-10T10:36:04.882Z</time>
      </trkpt>
      <trkpt lat="48.600704" lon="16.600998">
        <ele>262.189010</ele>
        <time>2020-09-10T10:36:06.858Z</time>
      </trkpt>
      <trkpt lat="48.600573" lon="16.601054">
        <ele>262.083382</ele>
        <time>2020-09-10T10:36:08.864Z</time>
      </trkpt>
      <trkpt lat="48.600445" lon="16.601118">
        <ele>261.978778</ele>
        <time>2020-09-10T10:36:10.869Z</time>
      </trkpt>
      <trkpt lat="48.600318" lon="16.601192">
        <ele>261.873175</ele>
        <time>2020-09-10T10:36:12.846Z</time>
      </trkpt>
      <trkpt lat="48.600191" lon="16.601267">
        <ele>261.767387</ele>
        <time>2020-09-10T10:36:14.890Z</time>
      </trkpt>
      <trkpt lat="48.600067" lon="16.601358">
        <ele>261.660442</ele>
        <time>2020-09-10T10:36:16.877Z</time>
      </trkpt>
      <trkpt lat="48.599944" lon="16.601455">
        <ele>261.552807</ele>
        <time>2020-09-10T10:36:18.910Z</time>
      </trkpt>
      <trkpt lat="48.599825" lon="16.601569">
        <ele>261.443504</ele>
        <time>2020-09-10T10:36:20.877Z</time>
      </trkpt>
      <trkpt lat="48.599705" lon="16.601684">
        <ele>261.338685</ele>
        <time>2020-09-10T10:36:22.888Z</time>
      </trkpt>
      <trkpt lat="48.599585" lon="16.601804">
        <ele>261.344886</ele>
        <time>2020-09-10T10:36:24.858Z</time>
      </trkpt>
      <trkpt lat="48.599463" lon="16.601924">
        <ele>261.351158</ele>
        <time>2020-09-10T10:36:26.853Z</time>
      </trkpt>
      <trkpt lat="48.599342" lon="16.602041">
        <ele>261.357348</ele>
        <time>2020-09-10T10:36:28.861Z</time>
      </trkpt>
      <trkpt lat="48.599228" lon="16.602169">
        <ele>261.363467</ele>
        <time>2020-09-10T10:36:30.903Z</time>
      </trkpt>
      <trkpt lat="48.599126" lon="16.602308">
        <ele>261.369385</ele>
        <time>2020-09-10T10:36:32.855Z</time>
      </trkpt>
      <trkpt lat="48.599029" lon="16.602452">
        <ele>261.375243</ele>
        <time>2020-09-10T10:36:34.871Z</time>
      </trkpt>
      <trkpt lat="48.598930" lon="16.602592">
        <ele>261.381085</ele>
        <time>2020-09-10T10:36:36.899Z</time>
      </trkpt>
      <trkpt lat="48.598828" lon="16.602727">
        <ele>261.386927</ele>
        <time>2020-09-10T10:36:38.845Z</time>
      </trkpt>
      <trkpt lat="48.598732" lon="16.602871">
        <ele>261.392755</ele>
        <time>2020-09-10T10:36:40.867Z</time>
      </trkpt>
      <trkpt lat="48.598635" lon="16.603006">
        <ele>261.398437</ele>
        <time>2020-09-10T10:36:42.861Z</time>
      </trkpt>
      <trkpt lat="48.598535" lon="16.603136">
        <ele>261.404120</ele>
        <time>2020-09-10T10:36:44.851Z</time>
      </trkpt>
      <trkpt lat="48.598439" lon="16.603269">
        <ele>261.409731</ele>
        <time>2020-09-10T10:36:46.848Z</time>
      </trkpt>
      <trkpt lat="48.598334" lon="16.603380">
        <ele>261.415253</ele>
        <time>2020-09-10T10:36:48.875Z</time>
      </trkpt>
      <trkpt lat="48.598216" lon="16.603454">
        <ele>261.272694</ele>
        <time>2020-09-10T10:36:50.842Z</time>
      </trkpt>
      <trkpt lat="48.598097" lon="16.603496">
        <ele>261.116883</ele>
        <time>2020-09-10T10:36:52.872Z</time>
      </trkpt>
      <trkpt lat="48.597978" lon="16.603519">
        <ele>260.963917</ele>
        <time>2020-09-10T10:36:54.870Z</time>
      </trkpt>
      <trkpt lat="48.597864" lon="16.603536">
        <ele>260.817855</ele>
        <time>2020-09-10T10:36:56.902Z</time>
      </trkpt>
      <trkpt lat="48.597754" lon="16.603542">
        <ele>260.677507</ele>
        <time>2020-09-10T10:36:58.856Z</time>
      </trkpt>
      <trkpt lat="48.597641" lon="16.603549">
        <ele>260.533304</ele>
        <time>2020-09-10T10:37:00.862Z</time>
      </trkpt>
      <trkpt lat="48.597538" lon="16.603555">
        <ele>260.401876</ele>
        <time>2020-09-10T10:37:02.856Z</time>
      </trkpt>
      <trkpt lat="48.597435" lon="16.603568">
        <ele>260.270088</ele>
        <time>2020-09-10T10:37:04.868Z</time>
      </trkpt>
      <trkpt lat="48.597332" lon="16.603582">
        <ele>260.138227</ele>
        <time>2020-09-10T10:37:06.879Z</time>
      </trkpt>
      <trkpt lat="48.597235" lon="16.603597">
        <ele>260.013901</ele>
        <time>2020-09-10T10:37:08.876Z</time>
      </trkpt>
      <trkpt lat="48.597141" lon="16.603615">
        <ele>259.893088</ele>
        <time>2020-09-10T10:37:10.894Z</time>
      </trkpt>
      <trkpt lat="48.597053" lon="16.603644">
        <ele>259.778249</ele>
        <time>2020-09-10T10:37:12.873Z</time>
      </trkpt>
      <trkpt lat="48.596965" lon="16.603678">
        <ele>259.662439</ele>
        <time>2020-09-10T10:37:14.879Z</time>
      </trkpt>
      <trkpt lat="48.596876" lon="16.603714">
        <ele>259.544968</ele>
        <time>2020-09-10T10:37:16.864Z</time>
      </trkpt>
      <trkpt lat="48.596790" lon="16.603759">
        <ele>259.428932</ele>
        <time>2020-09-10T10:37:18.877Z</time>
      </trkpt>
      <trkpt lat="48.596679" lon="16.603850">
        <ele>259.267936</ele>
        <time>2020-09-10T10:37:21.873Z</time>
      </trkpt>
      <trkpt lat="48.596587" lon="16.603934">
        <ele>259.130903</ele>
        <time>2020-09-10T10:37:24.866Z</time>
      </trkpt>
      <trkpt lat="48.596423" lon="16.603979">
        <ele>258.942739</ele>
        <time>2020-09-10T10:38:26.856Z</time>
      </trkpt>
      <trkpt lat="48.596307" lon="16.604028">
        <ele>258.807494</ele>
        <time>2020-09-10T10:38:29.851Z</time>
      </trkpt>
      <trkpt lat="48.596220" lon="16.604070">
        <ele>258.704942</ele>
        <time>2020-09-10T10:38:31.883Z</time>
      </trkpt>
      <trkpt lat="48.596127" lon="16.604115">
        <ele>258.595294</ele>
        <time>2020-09-10T10:38:33.864Z</time>
      </trkpt>
      <trkpt lat="48.596040" lon="16.604155">
        <ele>258.493184</ele>
        <time>2020-09-10T10:38:35.852Z</time>
      </trkpt>
      <trkpt lat="48.595908" lon="16.604219">
        <ele>258.337526</ele>
        <time>2020-09-10T10:38:38.855Z</time>
      </trkpt>
      <trkpt lat="48.595812" lon="16.604268">
        <ele>258.223750</ele>
        <time>2020-09-10T10:38:40.857Z</time>
      </trkpt>
      <trkpt lat="48.595714" lon="16.604326">
        <ele>258.105574</ele>
        <time>2020-09-10T10:38:42.844Z</time>
      </trkpt>
      <trkpt lat="48.595610" lon="16.604390">
        <ele>257.979490</ele>
        <time>2020-09-10T10:38:44.858Z</time>
      </trkpt>
      <trkpt lat="48.595501" lon="16.604458">
        <ele>257.847083</ele>
        <time>2020-09-10T10:38:46.847Z</time>
      </trkpt>
      <trkpt lat="48.595392" lon="16.604544">
        <ele>257.709024</ele>
        <time>2020-09-10T10:38:48.854Z</time>
      </trkpt>
      <trkpt lat="48.595280" lon="16.604639">
        <ele>257.564820</ele>
        <time>2020-09-10T10:38:50.849Z</time>
      </trkpt>
      <trkpt lat="48.595165" lon="16.604746">
        <ele>257.413193</ele>
        <time>2020-09-10T10:38:52.893Z</time>
      </trkpt>
      <trkpt lat="48.595050" lon="16.604855">
        <ele>257.260783</ele>
        <time>2020-09-10T10:38:54.859Z</time>
      </trkpt>
      <trkpt lat="48.594937" lon="16.604982">
        <ele>257.102756</ele>
        <time>2020-09-10T10:38:56.859Z</time>
      </trkpt>
      <trkpt lat="48.594820" lon="16.605077">
        <ele>257.035397</ele>
        <time>2020-09-10T10:38:58.867Z</time>
      </trkpt>
      <trkpt lat="48.594690" lon="16.605024">
        <ele>256.967105</ele>
        <time>2020-09-10T10:39:00.850Z</time>
      </trkpt>
      <trkpt lat="48.594573" lon="16.604922">
        <ele>256.898603</ele>
        <time>2020-09-10T10:39:02.864Z</time>
      </trkpt>
      <trkpt lat="48.594457" lon="16.604843">
        <ele>256.834073</ele>
        <time>2020-09-10T10:39:04.859Z</time>
      </trkpt>
      <trkpt lat="48.594341" lon="16.604828">
        <ele>256.775022</ele>
        <time>2020-09-10T10:39:06.881Z</time>
      </trkpt>
      <trkpt lat="48.594237" lon="16.604898">
        <ele>256.717281</ele>
        <time>2020-09-10T10:39:08.881Z</time>
      </trkpt>
      <trkpt lat="48.594154" lon="16.605017">
        <ele>256.659265</ele>
        <time>2020-09-10T10:39:10.866Z</time>
      </trkpt>
      <trkpt lat="48.594069" lon="16.605108">
        <ele>256.606438</ele>
        <time>2020-09-10T10:39:12.859Z</time>
      </trkpt>
      <trkpt lat="48.593982" lon="16.605198">
        <ele>256.552971</ele>
        <time>2020-09-10T10:39:14.870Z</time>
      </trkpt>
      <trkpt lat="48.593896" lon="16.605283">
        <ele>256.500857</ele>
        <time>2020-09-10T10:39:16.864Z</time>
      </trkpt>
      <trkpt lat="48.593820" lon="16.605369">
        <ele>256.452709</ele>
        <time>2020-09-10T10:39:18.859Z</time>
      </trkpt>
      <trkpt lat="48.593745" lon="16.605467">
        <ele>256.402430</ele>
        <time>2020-09-10T10:39:20.851Z</time>
      </trkpt>
      <trkpt lat="48.593669" lon="16.605549">
        <ele>256.355073</ele>
        <time>2020-09-10T10:39:22.871Z</time>
      </trkpt>
      <trkpt lat="48.593588" lon="16.605625">
        <ele>256.306721</ele>
        <time>2020-09-10T10:39:24.879Z</time>
      </trkpt>
      <trkpt lat="48.593503" lon="16.605700">
        <ele>256.256804</ele>
        <time>2020-09-10T10:39:26.868Z</time>
      </trkpt>
      <trkpt lat="48.593403" lon="16.605766">
        <ele>256.201461</ele>
        <time>2020-09-10T10:39:28.859Z</time>
      </trkpt>
      <trkpt lat="48.593295" lon="16.605790">
        <ele>256.187330</ele>
        <time>2020-09-10T10:39:30.864Z</time>
      </trkpt>
      <trkpt lat="48.593182" lon="16.605820">
        <ele>256.183143</ele>
        <time>2020-09-10T10:39:32.862Z</time>
      </trkpt>
      <trkpt lat="48.593069" lon="16.605866">
        <ele>256.178872</ele>
        <time>2020-09-10T10:39:34.885Z</time>
      </trkpt>
      <trkpt lat="48.592957" lon="16.605911">
        <ele>256.174643</ele>
        <time>2020-09-10T10:39:36.856Z</time>
      </trkpt>
      <trkpt lat="48.592848" lon="16.605967">
        <ele>256.170442</ele>
        <time>2020-09-10T10:39:38.875Z</time>
      </trkpt>
      <trkpt lat="48.592742" lon="16.606034">
        <ele>256.166249</ele>
        <time>2020-09-10T10:39:40.858Z</time>
      </trkpt>
      <trkpt lat="48.592639" lon="16.606100">
        <ele>256.162166</ele>
        <time>2020-09-10T10:39:42.858Z</time>
      </trkpt>
      <trkpt lat="48.592537" lon="16.606172">
        <ele>256.158058</ele>
        <time>2020-09-10T10:39:44.841Z</time>
      </trkpt>
      <trkpt lat="48.592432" lon="16.606253">
        <ele>256.153756</ele>
        <time>2020-09-10T10:39:46.857Z</time>
      </trkpt>
      <trkpt lat="48.592325" lon="16.606346">
        <ele>256.149252</ele>
        <time>2020-09-10T10:39:48.860Z</time>
      </trkpt>
      <trkpt lat="48.592222" lon="16.606440">
        <ele>256.144861</ele>
        <time>2020-09-10T10:39:50.879Z</time>
      </trkpt>
      <trkpt lat="48.592117" lon="16.606537">
        <ele>256.140370</ele>
        <time>2020-09-10T10:39:52.856Z</time>
      </trkpt>
      <trkpt lat="48.592015" lon="16.606651">
        <ele>256.135741</ele>
        <time>2020-09-10T10:39:54.875Z</time>
      </trkpt>
      <trkpt lat="48.591913" lon="16.606764">
        <ele>256.131126</ele>
        <time>2020-09-10T10:39:56.850Z</time>
      </trkpt>
      <trkpt lat="48.591810" lon="16.606874">
        <ele>256.126524</ele>
        <time>2020-09-10T10:39:58.856Z</time>
      </trkpt>
      <trkpt lat="48.591709" lon="16.606990">
        <ele>256.102476</ele>
        <time>2020-09-10T10:40:00.848Z</time>
      </trkpt>
      <trkpt lat="48.591614" lon="16.607117">
        <ele>256.067797</ele>
        <time>2020-09-10T10:40:02.850Z</time>
      </trkpt>
      <trkpt lat="48.591533" lon="16.607258">
        <ele>256.034017</ele>
        <time>2020-09-10T10:40:04.867Z</time>
      </trkpt>
      <trkpt lat="48.591457" lon="16.607404">
        <ele>256.000411</ele>
        <time>2020-09-10T10:40:06.851Z</time>
      </trkpt>
      <trkpt lat="48.591382" lon="16.607551">
        <ele>255.966830</ele>
        <time>2020-09-10T10:40:08.874Z</time>
      </trkpt>
      <trkpt lat="48.591311" lon="16.607705">
        <ele>255.932875</ele>
        <time>2020-09-10T10:40:10.862Z</time>
      </trkpt>
      <trkpt lat="48.591229" lon="16.607852">
        <ele>255.898093</ele>
        <time>2020-09-10T10:40:12.861Z</time>
      </trkpt>
      <trkpt lat="48.591146" lon="16.607988">
        <ele>255.864621</ele>
        <time>2020-09-10T10:40:14.869Z</time>
      </trkpt>
      <trkpt lat="48.591062" lon="16.608122">
        <ele>255.831227</ele>
        <time>2020-09-10T10:40:16.858Z</time>
      </trkpt>
      <trkpt lat="48.590985" lon="16.608243">
        <ele>255.800855</ele>
        <time>2020-09-10T10:40:18.863Z</time>
      </trkpt>
      <trkpt lat="48.590909" lon="16.608370">
        <ele>255.769877</ele>
        <time>2020-09-10T10:40:20.854Z</time>
      </trkpt>
      <trkpt lat="48.590834" lon="16.608504">
        <ele>255.738126</ele>
        <time>2020-09-10T10:40:22.864Z</time>
      </trkpt>
      <trkpt lat="48.590756" lon="16.608641">
        <ele>255.705429</ele>
        <time>2020-09-10T10:40:24.870Z</time>
      </trkpt>
      <trkpt lat="48.590676" lon="16.608775">
        <ele>255.672777</ele>
        <time>2020-09-10T10:40:26.880Z</time>
      </trkpt>
      <trkpt lat="48.590596" lon="16.608910">
        <ele>255.639991</ele>
        <time>2020-09-10T10:40:28.873Z</time>
      </trkpt>
      <trkpt lat="48.590521" lon="16.609040">
        <ele>255.585019</ele>
        <time>2020-09-10T10:40:30.867Z</time>
      </trkpt>
      <trkpt lat="48.590454" lon="16.609166">
        <ele>255.527081</ele>
        <time>2020-09-10T10:40:32.858Z</time>
      </trkpt>
      <trkpt lat="48.590381" lon="16.609309">
        <ele>255.462345</ele>
        <time>2020-09-10T10:40:34.869Z</time>
      </trkpt>
      <trkpt lat="48.590309" lon="16.609461">
        <ele>255.395343</ele>
        <time>2020-09-10T10:40:36.865Z</time>
      </trkpt>
      <trkpt lat="48.590249" lon="16.609608">
        <ele>255.333439</ele>
        <time>2020-09-10T10:40:38.865Z</time>
      </trkpt>
      <trkpt lat="48.590190" lon="16.609761">
        <ele>255.269969</ele>
        <time>2020-09-10T10:40:40.871Z</time>
      </trkpt>
      <trkpt lat="48.590124" lon="16.609908">
        <ele>255.206297</ele>
        <time>2020-09-10T10:40:42.878Z</time>
      </trkpt>
      <trkpt lat="48.590052" lon="16.610053">
        <ele>255.141318</ele>
        <time>2020-09-10T10:40:44.869Z</time>
      </trkpt>
      <trkpt lat="48.589973" lon="16.610178">
        <ele>255.079359</ele>
        <time>2020-09-10T10:40:46.855Z</time>
      </trkpt>
      <trkpt lat="48.589886" lon="16.610314">
        <ele>255.011553</ele>
        <time>2020-09-10T10:40:48.862Z</time>
      </trkpt>
      <trkpt lat="48.589806" lon="16.610444">
        <ele>254.947918</ele>
        <time>2020-09-10T10:40:50.864Z</time>
      </trkpt>
      <trkpt lat="48.589726" lon="16.610569">
        <ele>254.885583</ele>
        <time>2020-09-10T10:40:52.850Z</time>
      </trkpt>
      <trkpt lat="48.589644" lon="16.610692">
        <ele>254.822997</ele>
        <time>2020-09-10T10:40:54.854Z</time>
      </trkpt>
      <trkpt lat="48.589556" lon="16.610813">
        <ele>254.758547</ele>
        <time>2020-09-10T10:40:56.846Z</time>
      </trkpt>
      <trkpt lat="48.589461" lon="16.610922">
        <ele>254.693929</ele>
        <time>2020-09-10T10:40:58.846Z</time>
      </trkpt>
      <trkpt lat="48.589359" lon="16.611027">
        <ele>254.627878</ele>
        <time>2020-09-10T10:41:00.849Z</time>
      </trkpt>
      <trkpt lat="48.589259" lon="16.611130">
        <ele>254.564005</ele>
        <time>2020-09-10T10:41:02.868Z</time>
      </trkpt>
      <trkpt lat="48.589159" lon="16.611232">
        <ele>254.500328</ele>
        <time>2020-09-10T10:41:04.848Z</time>
      </trkpt>
      <trkpt lat="48.589061" lon="16.611339">
        <ele>254.436517</ele>
        <time>2020-09-10T10:41:06.869Z</time>
      </trkpt>
      <trkpt lat="48.588963" lon="16.611442">
        <ele>254.373514</ele>
        <time>2020-09-10T10:41:08.861Z</time>
      </trkpt>
      <trkpt lat="48.588864" lon="16.611537">
        <ele>254.311617</ele>
        <time>2020-09-10T10:41:10.861Z</time>
      </trkpt>
      <trkpt lat="48.588768" lon="16.611625">
        <ele>254.252355</ele>
        <time>2020-09-10T10:41:12.866Z</time>
      </trkpt>
      <trkpt lat="48.588671" lon="16.611717">
        <ele>254.191910</ele>
        <time>2020-09-10T10:41:14.876Z</time>
      </trkpt>
      <trkpt lat="48.588573" lon="16.611810">
        <ele>254.130832</ele>
        <time>2020-09-10T10:41:16.852Z</time>
      </trkpt>
      <trkpt lat="48.588474" lon="16.611902">
        <ele>254.069490</ele>
        <time>2020-09-10T10:41:18.851Z</time>
      </trkpt>
      <trkpt lat="48.588380" lon="16.611988">
        <ele>254.011492</ele>
        <time>2020-09-10T10:41:20.868Z</time>
      </trkpt>
      <trkpt lat="48.588287" lon="16.612084">
        <ele>253.952049</ele>
        <time>2020-09-10T10:41:22.879Z</time>
      </trkpt>
      <trkpt lat="48.588198" lon="16.612176">
        <ele>253.895137</ele>
        <time>2020-09-10T10:41:24.864Z</time>
      </trkpt>
      <trkpt lat="48.588104" lon="16.612268">
        <ele>253.836027</ele>
        <time>2020-09-10T10:41:26.867Z</time>
      </trkpt>
      <trkpt lat="48.588013" lon="16.612363">
        <ele>253.777651</ele>
        <time>2020-09-10T10:41:28.854Z</time>
      </trkpt>
      <trkpt lat="48.587946" lon="16.612476">
        <ele>253.724665</ele>
        <time>2020-09-10T10:41:30.886Z</time>
      </trkpt>
      <trkpt lat="48.587969" lon="16.612631">
        <ele>253.678336</ele>
        <time>2020-09-10T10:41:32.876Z</time>
      </trkpt>
      <trkpt lat="48.588046" lon="16.612754">
        <ele>253.632765</ele>
        <time>2020-09-10T10:41:34.853Z</time>
      </trkpt>
      <trkpt lat="48.588115" lon="16.612873">
        <ele>253.590183</ele>
        <time>2020-09-10T10:41:36.880Z</time>
      </trkpt>
      <trkpt lat="48.588183" lon="16.612994">
        <ele>253.547459</ele>
        <time>2020-09-10T10:41:38.857Z</time>
      </trkpt>
      <trkpt lat="48.588252" lon="16.613120">
        <ele>253.503442</ele>
        <time>2020-09-10T10:41:40.859Z</time>
      </trkpt>
      <trkpt lat="48.588322" lon="16.613253">
        <ele>253.457707</ele>
        <time>2020-09-10T10:41:42.855Z</time>
      </trkpt>
      <trkpt lat="48.588395" lon="16.613383">
        <ele>253.411820</ele>
        <time>2020-09-10T10:41:44.854Z</time>
      </trkpt>
      <trkpt lat="48.588462" lon="16.613513">
        <ele>253.367474</ele>
        <time>2020-09-10T10:41:46.855Z</time>
      </trkpt>
      <trkpt lat="48.588459" lon="16.613657">
        <ele>253.328706</ele>
        <time>2020-09-10T10:41:48.861Z</time>
      </trkpt>
      <trkpt lat="48.588367" lon="16.613793">
        <ele>253.276362</ele>
        <time>2020-09-10T10:41:50.906Z</time>
      </trkpt>
      <trkpt lat="48.588269" lon="16.613927">
        <ele>253.222607</ele>
        <time>2020-09-10T10:41:52.877Z</time>
      </trkpt>
      <trkpt lat="48.588177" lon="16.614069">
        <ele>253.169121</ele>
        <time>2020-09-10T10:41:54.849Z</time>
      </trkpt>
      <trkpt lat="48.588085" lon="16.614218">
        <ele>253.114274</ele>
        <time>2020-09-10T10:41:56.851Z</time>
      </trkpt>
      <trkpt lat="48.587995" lon="16.614363">
        <ele>253.060768</ele>
        <time>2020-09-10T10:41:58.858Z</time>
      </trkpt>
      <trkpt lat="48.587906" lon="16.614504">
        <ele>253.008324</ele>
        <time>2020-09-10T10:42:00.856Z</time>
      </trkpt>
      <trkpt lat="48.587817" lon="16.614639">
        <ele>252.913052</ele>
        <time>2020-09-10T10:42:02.847Z</time>
      </trkpt>
      <trkpt lat="48.587726" lon="16.614776">
        <ele>252.747653</ele>
        <time>2020-09-10T10:42:04.860Z</time>
      </trkpt>
      <trkpt lat="48.587637" lon="16.614911">
        <ele>252.585280</ele>
        <time>2020-09-10T10:42:06.887Z</time>
      </trkpt>
      <trkpt lat="48.587544" lon="16.615040">
        <ele>252.422728</ele>
        <time>2020-09-10T10:42:08.847Z</time>
      </trkpt>
      <trkpt lat="48.587457" lon="16.615172">
        <ele>252.263983</ele>
        <time>2020-09-10T10:42:10.848Z</time>
      </trkpt>
      <trkpt lat="48.587374" lon="16.615302">
        <ele>252.110062</ele>
        <time>2020-09-10T10:42:12.851Z</time>
      </trkpt>
      <trkpt lat="48.587292" lon="16.615430">
        <ele>251.958260</ele>
        <time>2020-09-10T10:42:14.875Z</time>
      </trkpt>
      <trkpt lat="48.587211" lon="16.615561">
        <ele>251.805495</ele>
        <time>2020-09-10T10:42:16.862Z</time>
      </trkpt>
      <trkpt lat="48.587133" lon="16.615695">
        <ele>251.653432</ele>
        <time>2020-09-10T10:42:18.891Z</time>
      </trkpt>
      <trkpt lat="48.587050" lon="16.615836">
        <ele>251.492636</ele>
        <time>2020-09-10T10:42:20.873Z</time>
      </trkpt>
      <trkpt lat="48.586965" lon="16.615971">
        <ele>251.333856</ele>
        <time>2020-09-10T10:42:22.877Z</time>
      </trkpt>
      <trkpt lat="48.586877" lon="16.616105">
        <ele>251.172994</ele>
        <time>2020-09-10T10:42:24.861Z</time>
      </trkpt>
      <trkpt lat="48.586793" lon="16.616252">
        <ele>251.007505</ele>
        <time>2020-09-10T10:42:26.853Z</time>
      </trkpt>
      <trkpt lat="48.586727" lon="16.616420">
        <ele>250.841043</ele>
        <time>2020-09-10T10:42:28.852Z</time>
      </trkpt>
      <trkpt lat="48.586673" lon="16.616598">
        <ele>250.674214</ele>
        <time>2020-09-10T10:42:30.850Z</time>
      </trkpt>
      <trkpt lat="48.586614" lon="16.616773">
        <ele>250.526877</ele>
        <time>2020-09-10T10:42:32.844Z</time>
      </trkpt>
      <trkpt lat="48.586567" lon="16.616951">
        <ele>250.384801</ele>
        <time>2020-09-10T10:42:34.849Z</time>
      </trkpt>
      <trkpt lat="48.586535" lon="16.617138">
        <ele>250.241615</ele>
        <time>2020-09-10T10:42:36.849Z</time>
      </trkpt>
      <trkpt lat="48.586509" lon="16.617328">
        <ele>250.097785</ele>
        <time>2020-09-10T10:42:38.843Z</time>
      </trkpt>
      <trkpt lat="48.586478" lon="16.617512">
        <ele>249.957031</ele>
        <time>2020-09-10T10:42:40.841Z</time>
      </trkpt>
      <trkpt lat="48.586449" lon="16.617693">
        <ele>249.818975</ele>
        <time>2020-09-10T10:42:42.848Z</time>
      </trkpt>
      <trkpt lat="48.586429" lon="16.617873">
        <ele>249.683671</ele>
        <time>2020-09-10T10:42:44.847Z</time>
      </trkpt>
      <trkpt lat="48.586410" lon="16.618048">
        <ele>249.552207</ele>
        <time>2020-09-10T10:42:46.848Z</time>
      </trkpt>
      <trkpt lat="48.586387" lon="16.618230">
        <ele>249.414850</ele>
        <time>2020-09-10T10:42:48.872Z</time>
      </trkpt>
      <trkpt lat="48.586366" lon="16.618420">
        <ele>249.272049</ele>
        <time>2020-09-10T10:42:50.873Z</time>
      </trkpt>
      <trkpt lat="48.586344" lon="16.618608">
        <ele>249.130520</ele>
        <time>2020-09-10T10:42:52.857Z</time>
      </trkpt>
      <trkpt lat="48.586322" lon="16.618797">
        <ele>248.988261</ele>
        <time>2020-09-10T10:42:54.887Z</time>
      </trkpt>
      <trkpt lat="48.586296" lon="16.618986">
        <ele>248.845156</ele>
        <time>2020-09-10T10:42:56.861Z</time>
      </trkpt>
      <trkpt lat="48.586260" lon="16.619172">
        <ele>248.701492</ele>
        <time>2020-09-10T10:42:58.879Z</time>
      </trkpt>
      <trkpt lat="48.586216" lon="16.619354">
        <ele>248.567378</ele>
        <time>2020-09-10T10:43:00.871Z</time>
      </trkpt>
      <trkpt lat="48.586173" lon="16.619531">
        <ele>248.442848</ele>
        <time>2020-09-10T10:43:02.866Z</time>
      </trkpt>
      <trkpt lat="48.586121" lon="16.619707">
        <ele>248.315545</ele>
        <time>2020-09-10T10:43:04.859Z</time>
      </trkpt>
      <trkpt lat="48.586065" lon="16.619886">
        <ele>248.184773</ele>
        <time>2020-09-10T10:43:06.859Z</time>
      </trkpt>
      <trkpt lat="48.586005" lon="16.620065">
        <ele>248.052244</ele>
        <time>2020-09-10T10:43:08.857Z</time>
      </trkpt>
      <trkpt lat="48.585943" lon="16.620239">
        <ele>247.921718</ele>
        <time>2020-09-10T10:43:10.849Z</time>
      </trkpt>
      <trkpt lat="48.585872" lon="16.620405">
        <ele>247.791165</ele>
        <time>2020-09-10T10:43:12.882Z</time>
      </trkpt>
      <trkpt lat="48.585805" lon="16.620569">
        <ele>247.663862</ele>
        <time>2020-09-10T10:43:14.864Z</time>
      </trkpt>
      <trkpt lat="48.585740" lon="16.620730">
        <ele>247.539293</ele>
        <time>2020-09-10T10:43:16.859Z</time>
      </trkpt>
      <trkpt lat="48.585661" lon="16.620881">
        <ele>247.412146</ele>
        <time>2020-09-10T10:43:18.855Z</time>
      </trkpt>
      <trkpt lat="48.585579" lon="16.621033">
        <ele>247.282609</ele>
        <time>2020-09-10T10:43:20.865Z</time>
      </trkpt>
      <trkpt lat="48.585490" lon="16.621180">
        <ele>247.151000</ele>
        <time>2020-09-10T10:43:22.856Z</time>
      </trkpt>
      <trkpt lat="48.585393" lon="16.621318">
        <ele>247.018013</ele>
        <time>2020-09-10T10:43:24.870Z</time>
      </trkpt>
      <trkpt lat="48.585295" lon="16.621445">
        <ele>246.889139</ele>
        <time>2020-09-10T10:43:26.883Z</time>
      </trkpt>
      <trkpt lat="48.585196" lon="16.621569">
        <ele>246.769215</ele>
        <time>2020-09-10T10:43:28.862Z</time>
      </trkpt>
      <trkpt lat="48.585098" lon="16.621700">
        <ele>246.651031</ele>
        <time>2020-09-10T10:43:30.869Z</time>
      </trkpt>
      <trkpt lat="48.584993" lon="16.621808">
        <ele>246.536296</ele>
        <time>2020-09-10T10:43:32.889Z</time>
      </trkpt>
      <trkpt lat="48.584883" lon="16.621899">
        <ele>246.423012</ele>
        <time>2020-09-10T10:43:34.879Z</time>
      </trkpt>
      <trkpt lat="48.584775" lon="16.621988">
        <ele>246.311887</ele>
        <time>2020-09-10T10:43:36.857Z</time>
      </trkpt>
      <trkpt lat="48.584664" lon="16.622071">
        <ele>246.200010</ele>
        <time>2020-09-10T10:43:38.855Z</time>
      </trkpt>
      <trkpt lat="48.584549" lon="16.622151">
        <ele>246.085644</ele>
        <time>2020-09-10T10:43:40.846Z</time>
      </trkpt>
      <trkpt lat="48.584425" lon="16.622202">
        <ele>245.969548</ele>
        <time>2020-09-10T10:43:42.860Z</time>
      </trkpt>
      <trkpt lat="48.584299" lon="16.622248">
        <ele>245.852444</ele>
        <time>2020-09-10T10:43:44.853Z</time>
      </trkpt>
      <trkpt lat="48.584170" lon="16.622279">
        <ele>245.734439</ele>
        <time>2020-09-10T10:43:46.879Z</time>
      </trkpt>
      <trkpt lat="48.584039" lon="16.622296">
        <ele>245.615656</ele>
        <time>2020-09-10T10:43:48.859Z</time>
      </trkpt>
      <trkpt lat="48.583905" lon="16.622298">
        <ele>245.494592</ele>
        <time>2020-09-10T10:43:50.878Z</time>
      </trkpt>
      <trkpt lat="48.583772" lon="16.622283">
        <ele>245.374103</ele>
        <time>2020-09-10T10:43:52.879Z</time>
      </trkpt>
      <trkpt lat="48.583639" lon="16.622256">
        <ele>245.252869</ele>
        <time>2020-09-10T10:43:54.865Z</time>
      </trkpt>
      <trkpt lat="48.583507" lon="16.622221">
        <ele>245.224854</ele>
        <time>2020-09-10T10:43:56.871Z</time>
      </trkpt>
      <trkpt lat="48.583380" lon="16.622174">
        <ele>245.225268</ele>
        <time>2020-09-10T10:43:58.894Z</time>
      </trkpt>
      <trkpt lat="48.583256" lon="16.622105">
        <ele>245.225686</ele>
        <time>2020-09-10T10:44:00.877Z</time>
      </trkpt>
      <trkpt lat="48.583131" lon="16.622044">
        <ele>245.226102</ele>
        <time>2020-09-10T10:44:02.860Z</time>
      </trkpt>
      <trkpt lat="48.583003" lon="16.621991">
        <ele>245.226523</ele>
        <time>2020-09-10T10:44:04.869Z</time>
      </trkpt>
      <trkpt lat="48.582874" lon="16.621940">
        <ele>245.226945</ele>
        <time>2020-09-10T10:44:06.889Z</time>
      </trkpt>
      <trkpt lat="48.582745" lon="16.621914">
        <ele>245.227357</ele>
        <time>2020-09-10T10:44:08.872Z</time>
      </trkpt>
      <trkpt lat="48.582616" lon="16.621905">
        <ele>245.227766</ele>
        <time>2020-09-10T10:44:10.870Z</time>
      </trkpt>
      <trkpt lat="48.582487" lon="16.621883">
        <ele>245.228177</ele>
        <time>2020-09-10T10:44:12.846Z</time>
      </trkpt>
      <trkpt lat="48.582359" lon="16.621867">
        <ele>245.228584</ele>
        <time>2020-09-10T10:44:14.858Z</time>
      </trkpt>
      <trkpt lat="48.582230" lon="16.621859">
        <ele>245.228992</ele>
        <time>2020-09-10T10:44:16.853Z</time>
      </trkpt>
      <trkpt lat="48.582105" lon="16.621860">
        <ele>245.229388</ele>
        <time>2020-09-10T10:44:18.877Z</time>
      </trkpt>
      <trkpt lat="48.581976" lon="16.621887">
        <ele>245.229801</ele>
        <time>2020-09-10T10:44:20.882Z</time>
      </trkpt>
      <trkpt lat="48.581847" lon="16.621923">
        <ele>245.230216</ele>
        <time>2020-09-10T10:44:22.862Z</time>
      </trkpt>
      <trkpt lat="48.581721" lon="16.621966">
        <ele>245.201463</ele>
        <time>2020-09-10T10:44:24.869Z</time>
      </trkpt>
      <trkpt lat="48.581595" lon="16.622018">
        <ele>245.171770</ele>
        <time>2020-09-10T10:44:26.895Z</time>
      </trkpt>
      <trkpt lat="48.581469" lon="16.622075">
        <ele>245.141871</ele>
        <time>2020-09-10T10:44:28.841Z</time>
      </trkpt>
      <trkpt lat="48.581345" lon="16.622139">
        <ele>245.112084</ele>
        <time>2020-09-10T10:44:30.873Z</time>
      </trkpt>
      <trkpt lat="48.581223" lon="16.622205">
        <ele>245.082627</ele>
        <time>2020-09-10T10:44:32.848Z</time>
      </trkpt>
      <trkpt lat="48.581110" lon="16.622286">
        <ele>245.054197</ele>
        <time>2020-09-10T10:44:34.859Z</time>
      </trkpt>
      <trkpt lat="48.580995" lon="16.622312">
        <ele>245.027763</ele>
        <time>2020-09-10T10:44:36.864Z</time>
      </trkpt>
      <trkpt lat="48.580903" lon="16.622215">
        <ele>245.002263</ele>
        <time>2020-09-10T10:44:38.880Z</time>
      </trkpt>
      <trkpt lat="48.580843" lon="16.622068">
        <ele>244.976286</ele>
        <time>2020-09-10T10:44:40.877Z</time>
      </trkpt>
      <trkpt lat="48.580750" lon="16.622016">
        <ele>244.953744</ele>
        <time>2020-09-10T10:44:42.848Z</time>
      </trkpt>
      <trkpt lat="48.580659" lon="16.622120">
        <ele>244.927809</ele>
        <time>2020-09-10T10:44:44.866Z</time>
      </trkpt>
      <trkpt lat="48.580574" lon="16.622240">
        <ele>244.901369</ele>
        <time>2020-09-10T10:44:46.872Z</time>
      </trkpt>
      <trkpt lat="48.580493" lon="16.622363">
        <ele>244.875268</ele>
        <time>2020-09-10T10:44:48.868Z</time>
      </trkpt>
      <trkpt lat="48.580416" lon="16.622486">
        <ele>244.849800</ele>
        <time>2020-09-10T10:44:50.855Z</time>
      </trkpt>
      <trkpt lat="48.580341" lon="16.622599">
        <ele>244.825727</ele>
        <time>2020-09-10T10:44:52.855Z</time>
      </trkpt>
      <trkpt lat="48.580261" lon="16.622717">
        <ele>244.683892</ele>
        <time>2020-09-10T10:44:54.882Z</time>
      </trkpt>
      <trkpt lat="48.580186" lon="16.622831">
        <ele>244.525785</ele>
        <time>2020-09-10T10:44:56.847Z</time>
      </trkpt>
      <trkpt lat="48.580114" lon="16.622934">
        <ele>244.378424</ele>
        <time>2020-09-10T10:44:58.859Z</time>
      </trkpt>
      <trkpt lat="48.580041" lon="16.623035">
        <ele>244.231316</ele>
        <time>2020-09-10T10:45:00.869Z</time>
      </trkpt>
      <trkpt lat="48.579965" lon="16.623142">
        <ele>244.076928</ele>
        <time>2020-09-10T10:45:02.878Z</time>
      </trkpt>
      <trkpt lat="48.579886" lon="16.623258">
        <ele>243.913208</ele>
        <time>2020-09-10T10:45:04.877Z</time>
      </trkpt>
      <trkpt lat="48.579812" lon="16.623392">
        <ele>243.741551</ele>
        <time>2020-09-10T10:45:06.871Z</time>
      </trkpt>
      <trkpt lat="48.579774" lon="16.623555">
        <ele>243.571591</ele>
        <time>2020-09-10T10:45:08.891Z</time>
      </trkpt>
      <trkpt lat="48.579765" lon="16.623718">
        <ele>243.410735</ele>
        <time>2020-09-10T10:45:10.880Z</time>
      </trkpt>
      <trkpt lat="48.579765" lon="16.623898">
        <ele>243.233717</ele>
        <time>2020-09-10T10:45:12.866Z</time>
      </trkpt>
      <trkpt lat="48.579755" lon="16.624072">
        <ele>243.061956</ele>
        <time>2020-09-10T10:45:14.877Z</time>
      </trkpt>
      <trkpt lat="48.579758" lon="16.624248">
        <ele>242.888815</ele>
        <time>2020-09-10T10:45:16.879Z</time>
      </trkpt>
      <trkpt lat="48.579750" lon="16.624414">
        <ele>242.725133</ele>
        <time>2020-09-10T10:45:18.853Z</time>
      </trkpt>
      <trkpt lat="48.579674" lon="16.624526">
        <ele>242.567352</ele>
        <time>2020-09-10T10:45:20.866Z</time>
      </trkpt>
      <trkpt lat="48.579569" lon="16.624592">
        <ele>242.398312</ele>
        <time>2020-09-10T10:45:22.877Z</time>
      </trkpt>
      <trkpt lat="48.579449" lon="16.624603">
        <ele>242.219605</ele>
        <time>2020-09-10T10:45:24.864Z</time>
      </trkpt>
      <trkpt lat="48.579339" lon="16.624595">
        <ele>242.107316</ele>
        <time>2020-09-10T10:45:26.872Z</time>
      </trkpt>
      <trkpt lat="48.579234" lon="16.624593">
        <ele>242.038681</ele>
        <time>2020-09-10T10:45:28.891Z</time>
      </trkpt>
      <trkpt lat="48.579124" lon="16.624596">
        <ele>241.966772</ele>
        <time>2020-09-10T10:45:30.872Z</time>
      </trkpt>
      <trkpt lat="48.579011" lon="16.624592">
        <ele>241.892893</ele>
        <time>2020-09-10T10:45:32.853Z</time>
      </trkpt>
      <trkpt lat="48.578899" lon="16.624594">
        <ele>241.819684</ele>
        <time>2020-09-10T10:45:34.867Z</time>
      </trkpt>
      <trkpt lat="48.578788" lon="16.624587">
        <ele>241.747070</ele>
        <time>2020-09-10T10:45:36.877Z</time>
      </trkpt>
      <trkpt lat="48.578676" lon="16.624578">
        <ele>241.673762</ele>
        <time>2020-09-10T10:45:38.846Z</time>
      </trkpt>
      <trkpt lat="48.578562" lon="16.624572">
        <ele>241.599205</ele>
        <time>2020-09-10T10:45:40.860Z</time>
      </trkpt>
      <trkpt lat="48.578452" lon="16.624576">
        <ele>241.527287</ele>
        <time>2020-09-10T10:45:42.853Z</time>
      </trkpt>
      <trkpt lat="48.578343" lon="16.624584">
        <ele>241.455959</ele>
        <time>2020-09-10T10:45:44.875Z</time>
      </trkpt>
      <trkpt lat="48.578234" lon="16.624604">
        <ele>241.384192</ele>
        <time>2020-09-10T10:45:46.846Z</time>
      </trkpt>
      <trkpt lat="48.578127" lon="16.624620">
        <ele>241.313914</ele>
        <time>2020-09-10T10:45:48.892Z</time>
      </trkpt>
      <trkpt lat="48.578021" lon="16.624636">
        <ele>241.244287</ele>
        <time>2020-09-10T10:45:50.874Z</time>
      </trkpt>
      <trkpt lat="48.577919" lon="16.624655">
        <ele>241.177114</ele>
        <time>2020-09-10T10:45:52.848Z</time>
      </trkpt>
      <trkpt lat="48.577817" lon="16.624669">
        <ele>241.110171</ele>
        <time>2020-09-10T10:45:54.860Z</time>
      </trkpt>
      <trkpt lat="48.577710" lon="16.624683">
        <ele>241.039973</ele>
        <time>2020-09-10T10:45:56.850Z</time>
      </trkpt>
      <trkpt lat="48.577609" lon="16.624690">
        <ele>240.973889</ele>
        <time>2020-09-10T10:45:58.851Z</time>
      </trkpt>
      <trkpt lat="48.577514" lon="16.624698">
        <ele>240.923730</ele>
        <time>2020-09-10T10:46:00.850Z</time>
      </trkpt>
      <trkpt lat="48.577423" lon="16.624710">
        <ele>240.875928</ele>
        <time>2020-09-10T10:46:02.884Z</time>
      </trkpt>
      <trkpt lat="48.577291" lon="16.624722">
        <ele>240.806727</ele>
        <time>2020-09-10T10:46:05.861Z</time>
      </trkpt>
      <trkpt lat="48.577163" lon="16.624727">
        <ele>240.739721</ele>
        <time>2020-09-10T10:46:08.861Z</time>
      </trkpt>
      <trkpt lat="48.577053" lon="16.624734">
        <ele>240.682106</ele>
        <time>2020-09-10T10:46:11.861Z</time>
      </trkpt>
      <trkpt lat="48.576963" lon="16.624786">
        <ele>240.631684</ele>
        <time>2020-09-10T10:46:14.852Z</time>
      </trkpt>
      <trkpt lat="48.576891" lon="16.624884">
        <ele>240.580980</ele>
        <time>2020-09-10T10:46:17.872Z</time>
      </trkpt>
      <trkpt lat="48.576836" lon="16.625025">
        <ele>240.524309</ele>
        <time>2020-09-10T10:46:21.852Z</time>
      </trkpt>
      <trkpt lat="48.576772" lon="16.625147">
        <ele>240.470403</ele>
        <time>2020-09-10T10:46:25.853Z</time>
      </trkpt>
      <trkpt lat="48.576684" lon="16.625228">
        <ele>240.416484</ele>
        <time>2020-09-10T10:46:29.868Z</time>
      </trkpt>
      <trkpt lat="48.576595" lon="16.625274">
        <ele>240.367262</ele>
        <time>2020-09-10T10:46:32.858Z</time>
      </trkpt>
      <trkpt lat="48.576482" lon="16.625344">
        <ele>240.303354</ele>
        <time>2020-09-10T10:46:35.868Z</time>
      </trkpt>
      <trkpt lat="48.576400" lon="16.625415">
        <ele>240.253900</ele>
        <time>2020-09-10T10:46:37.856Z</time>
      </trkpt>
      <trkpt lat="48.576406" lon="16.625571">
        <ele>240.199797</ele>
        <time>2020-09-10T10:46:39.869Z</time>
      </trkpt>
      <trkpt lat="48.576444" lon="16.625772">
        <ele>240.127419</ele>
        <time>2020-09-10T10:46:41.855Z</time>
      </trkpt>
      <trkpt lat="48.576473" lon="16.625980">
        <ele>240.053821</ele>
        <time>2020-09-10T10:46:43.859Z</time>
      </trkpt>
      <trkpt lat="48.576446" lon="16.626151">
        <ele>239.994392</ele>
        <time>2020-09-10T10:46:45.855Z</time>
      </trkpt>
      <trkpt lat="48.576365" lon="16.626257">
        <ele>239.940455</ele>
        <time>2020-09-10T10:46:47.874Z</time>
      </trkpt>
      <trkpt lat="48.576267" lon="16.626337">
        <ele>239.884385</ele>
        <time>2020-09-10T10:46:49.850Z</time>
      </trkpt>
      <trkpt lat="48.576166" lon="16.626376">
        <ele>239.831907</ele>
        <time>2020-09-10T10:46:51.875Z</time>
      </trkpt>
      <trkpt lat="48.576075" lon="16.626358">
        <ele>239.785706</ele>
        <time>2020-09-10T10:46:53.865Z</time>
      </trkpt>
      <trkpt lat="48.575967" lon="16.626332">
        <ele>239.730652</ele>
        <time>2020-09-10T10:46:56.849Z</time>
      </trkpt>
      <trkpt lat="48.575842" lon="16.626329">
        <ele>239.667717</ele>
        <time>2020-09-10T10:46:59.864Z</time>
      </trkpt>
      <trkpt lat="48.575745" lon="16.626407">
        <ele>239.612405</ele>
        <time>2020-09-10T10:47:01.877Z</time>
      </trkpt>
      <trkpt lat="48.575642" lon="16.626490">
        <ele>239.553644</ele>
        <time>2020-09-10T10:47:03.850Z</time>
      </trkpt>
      <trkpt lat="48.575530" lon="16.626555">
        <ele>239.493248</ele>
        <time>2020-09-10T10:47:05.893Z</time>
      </trkpt>
      <trkpt lat="48.575418" lon="16.626619">
        <ele>239.432971</ele>
        <time>2020-09-10T10:47:07.852Z</time>
      </trkpt>
      <trkpt lat="48.575303" lon="16.626680">
        <ele>239.371617</ele>
        <time>2020-09-10T10:47:09.854Z</time>
      </trkpt>
      <trkpt lat="48.575189" lon="16.626736">
        <ele>239.311272</ele>
        <time>2020-09-10T10:47:11.859Z</time>
      </trkpt>
      <trkpt lat="48.575077" lon="16.626795">
        <ele>239.251564</ele>
        <time>2020-09-10T10:47:13.849Z</time>
      </trkpt>
      <trkpt lat="48.574965" lon="16.626855">
        <ele>239.191744</ele>
        <time>2020-09-10T10:47:15.876Z</time>
      </trkpt>
      <trkpt lat="48.574856" lon="16.626916">
        <ele>239.133231</ele>
        <time>2020-09-10T10:47:17.855Z</time>
      </trkpt>
      <trkpt lat="48.574751" lon="16.626979">
        <ele>239.093748</ele>
        <time>2020-09-10T10:47:19.862Z</time>
      </trkpt>
      <trkpt lat="48.574641" lon="16.627037">
        <ele>239.055919</ele>
        <time>2020-09-10T10:47:21.870Z</time>
      </trkpt>
      <trkpt lat="48.574529" lon="16.627100">
        <ele>239.017115</ele>
        <time>2020-09-10T10:47:23.853Z</time>
      </trkpt>
      <trkpt lat="48.574424" lon="16.627156">
        <ele>238.980961</ele>
        <time>2020-09-10T10:47:25.889Z</time>
      </trkpt>
      <trkpt lat="48.574323" lon="16.627212">
        <ele>238.946028</ele>
        <time>2020-09-10T10:47:27.879Z</time>
      </trkpt>
      <trkpt lat="48.574237" lon="16.627272">
        <ele>238.915272</ele>
        <time>2020-09-10T10:47:29.856Z</time>
      </trkpt>
      <trkpt lat="48.574227" lon="16.627433">
        <ele>238.880530</ele>
        <time>2020-09-10T10:47:32.851Z</time>
      </trkpt>
      <trkpt lat="48.574266" lon="16.627555">
        <ele>238.851421</ele>
        <time>2020-09-10T10:47:35.860Z</time>
      </trkpt>
      <trkpt lat="48.574314" lon="16.627701">
        <ele>238.816395</ele>
        <time>2020-09-10T10:47:38.856Z</time>
      </trkpt>
      <trkpt lat="48.574360" lon="16.627866">
        <ele>238.777928</ele>
        <time>2020-09-10T10:47:41.877Z</time>
      </trkpt>
      <trkpt lat="48.574388" lon="16.628000">
        <ele>238.747738</ele>
        <time>2020-09-10T10:47:43.861Z</time>
      </trkpt>
      <trkpt lat="48.574414" lon="16.628151">
        <ele>238.714217</ele>
        <time>2020-09-10T10:47:45.848Z</time>
      </trkpt>
      <trkpt lat="48.574435" lon="16.628308">
        <ele>238.679804</ele>
        <time>2020-09-10T10:47:47.864Z</time>
      </trkpt>
      <trkpt lat="48.574451" lon="16.628475">
        <ele>238.643552</ele>
        <time>2020-09-10T10:47:49.854Z</time>
      </trkpt>
      <trkpt lat="48.574469" lon="16.628647">
        <ele>238.606140</ele>
        <time>2020-09-10T10:47:51.863Z</time>
      </trkpt>
      <trkpt lat="48.574485" lon="16.628807">
        <ele>238.571375</ele>
        <time>2020-09-10T10:47:53.873Z</time>
      </trkpt>
      <trkpt lat="48.574499" lon="16.628976">
        <ele>238.533541</ele>
        <time>2020-09-10T10:47:55.873Z</time>
      </trkpt>
      <trkpt lat="48.574517" lon="16.629143">
        <ele>238.490273</ele>
        <time>2020-09-10T10:47:57.860Z</time>
      </trkpt>
      <trkpt lat="48.574536" lon="16.629307">
        <ele>238.447696</ele>
        <time>2020-09-10T10:47:59.862Z</time>
      </trkpt>
      <trkpt lat="48.574554" lon="16.629476">
        <ele>238.403923</ele>
        <time>2020-09-10T10:48:01.892Z</time>
      </trkpt>
      <trkpt lat="48.574571" lon="16.629645">
        <ele>238.360210</ele>
        <time>2020-09-10T10:48:03.861Z</time>
      </trkpt>
      <trkpt lat="48.574589" lon="16.629818">
        <ele>238.315426</ele>
        <time>2020-09-10T10:48:05.856Z</time>
      </trkpt>
      <trkpt lat="48.574598" lon="16.629990">
        <ele>238.271305</ele>
        <time>2020-09-10T10:48:07.876Z</time>
      </trkpt>
      <trkpt lat="48.574609" lon="16.630160">
        <ele>238.227625</ele>
        <time>2020-09-10T10:48:09.866Z</time>
      </trkpt>
      <trkpt lat="48.574622" lon="16.630332">
        <ele>238.183355</ele>
        <time>2020-09-10T10:48:11.857Z</time>
      </trkpt>
      <trkpt lat="48.574640" lon="16.630497">
        <ele>238.140591</ele>
        <time>2020-09-10T10:48:13.850Z</time>
      </trkpt>
      <trkpt lat="48.574677" lon="16.630661">
        <ele>238.096282</ele>
        <time>2020-09-10T10:48:15.875Z</time>
      </trkpt>
      <trkpt lat="48.574727" lon="16.630817">
        <ele>238.051955</ele>
        <time>2020-09-10T10:48:17.870Z</time>
      </trkpt>
      <trkpt lat="48.574783" lon="16.630964">
        <ele>238.008579</ele>
        <time>2020-09-10T10:48:19.858Z</time>
      </trkpt>
      <trkpt lat="48.574835" lon="16.631115">
        <ele>237.965048</ele>
        <time>2020-09-10T10:48:21.859Z</time>
      </trkpt>
      <trkpt lat="48.574890" lon="16.631264">
        <ele>237.921417</ele>
        <time>2020-09-10T10:48:23.874Z</time>
      </trkpt>
      <trkpt lat="48.574942" lon="16.631417">
        <ele>237.877432</ele>
        <time>2020-09-10T10:48:25.855Z</time>
      </trkpt>
      <trkpt lat="48.574995" lon="16.631572">
        <ele>237.835433</ele>
        <time>2020-09-10T10:48:27.857Z</time>
      </trkpt>
      <trkpt lat="48.575043" lon="16.631718">
        <ele>237.801927</ele>
        <time>2020-09-10T10:48:29.853Z</time>
      </trkpt>
      <trkpt lat="48.575074" lon="16.631862">
        <ele>237.770806</ele>
        <time>2020-09-10T10:48:31.857Z</time>
      </trkpt>
      <trkpt lat="48.575005" lon="16.631956">
        <ele>237.741951</ele>
        <time>2020-09-10T10:48:33.859Z</time>
      </trkpt>
      <trkpt lat="48.574923" lon="16.632019">
        <ele>237.713379</ele>
        <time>2020-09-10T10:48:35.869Z</time>
      </trkpt>
      <trkpt lat="48.574839" lon="16.632116">
        <ele>237.680543</ele>
        <time>2020-09-10T10:48:37.862Z</time>
      </trkpt>
      <trkpt lat="48.574846" lon="16.632273">
        <ele>237.648203</ele>
        <time>2020-09-10T10:48:39.865Z</time>
      </trkpt>
      <trkpt lat="48.574884" lon="16.632423">
        <ele>237.615193</ele>
        <time>2020-09-10T10:48:41.869Z</time>
      </trkpt>
      <trkpt lat="48.574922" lon="16.632577">
        <ele>237.581414</ele>
        <time>2020-09-10T10:48:43.860Z</time>
      </trkpt>
      <trkpt lat="48.574967" lon="16.632733">
        <ele>237.546439</ele>
        <time>2020-09-10T10:48:45.884Z</time>
      </trkpt>
      <trkpt lat="48.575012" lon="16.632881">
        <ele>237.512965</ele>
        <time>2020-09-10T10:48:47.859Z</time>
      </trkpt>
      <trkpt lat="48.575064" lon="16.633023">
        <ele>237.479610</ele>
        <time>2020-09-10T10:48:49.863Z</time>
      </trkpt>
      <trkpt lat="48.575116" lon="16.633158">
        <ele>237.447506</ele>
        <time>2020-09-10T10:48:51.886Z</time>
      </trkpt>
      <trkpt lat="48.575177" lon="16.633281">
        <ele>237.415914</ele>
        <time>2020-09-10T10:48:53.877Z</time>
      </trkpt>
      <trkpt lat="48.575275" lon="16.633280">
        <ele>237.385473</ele>
        <time>2020-09-10T10:48:55.882Z</time>
      </trkpt>
      <trkpt lat="48.575343" lon="16.633187">
        <ele>237.356987</ele>
        <time>2020-09-10T10:48:57.865Z</time>
      </trkpt>
      <trkpt lat="48.575415" lon="16.633085">
        <ele>237.326334</ele>
        <time>2020-09-10T10:48:59.865Z</time>
      </trkpt>
      <trkpt lat="48.575494" lon="16.632987">
        <ele>237.294589</ele>
        <time>2020-09-10T10:49:01.850Z</time>
      </trkpt>
      <trkpt lat="48.575578" lon="16.632884">
        <ele>237.273858</ele>
        <time>2020-09-10T10:49:03.866Z</time>
      </trkpt>
      <trkpt lat="48.575669" lon="16.632777">
        <ele>237.255458</ele>
        <time>2020-09-10T10:49:05.864Z</time>
      </trkpt>
      <trkpt lat="48.575758" lon="16.632671">
        <ele>237.237374</ele>
        <time>2020-09-10T10:49:07.859Z</time>
      </trkpt>
      <trkpt lat="48.575842" lon="16.632573">
        <ele>237.220439</ele>
        <time>2020-09-10T10:49:09.857Z</time>
      </trkpt>
      <trkpt lat="48.575926" lon="16.632470">
        <ele>237.203176</ele>
        <time>2020-09-10T10:49:11.866Z</time>
      </trkpt>
      <trkpt lat="48.576012" lon="16.632365">
        <ele>237.185532</ele>
        <time>2020-09-10T10:49:13.883Z</time>
      </trkpt>
      <trkpt lat="48.576093" lon="16.632264">
        <ele>237.168774</ele>
        <time>2020-09-10T10:49:15.862Z</time>
      </trkpt>
      <trkpt lat="48.576177" lon="16.632167">
        <ele>237.151903</ele>
        <time>2020-09-10T10:49:17.873Z</time>
      </trkpt>
      <trkpt lat="48.576261" lon="16.632063">
        <ele>237.134573</ele>
        <time>2020-09-10T10:49:19.855Z</time>
      </trkpt>
      <trkpt lat="48.576343" lon="16.631961">
        <ele>237.117624</ele>
        <time>2020-09-10T10:49:21.854Z</time>
      </trkpt>
      <trkpt lat="48.576421" lon="16.631871">
        <ele>237.101963</ele>
        <time>2020-09-10T10:49:23.873Z</time>
      </trkpt>
      <trkpt lat="48.576518" lon="16.631748">
        <ele>237.081756</ele>
        <time>2020-09-10T10:49:26.859Z</time>
      </trkpt>
      <trkpt lat="48.576632" lon="16.631847">
        <ele>237.060773</ele>
        <time>2020-09-10T10:49:29.863Z</time>
      </trkpt>
      <trkpt lat="48.576702" lon="16.631994">
        <ele>237.041649</ele>
        <time>2020-09-10T10:49:31.857Z</time>
      </trkpt>
      <trkpt lat="48.576780" lon="16.632130">
        <ele>237.022644</ele>
        <time>2020-09-10T10:49:33.869Z</time>
      </trkpt>
      <trkpt lat="48.576854" lon="16.632261">
        <ele>237.004456</ele>
        <time>2020-09-10T10:49:35.867Z</time>
      </trkpt>
      <trkpt lat="48.576933" lon="16.632386">
        <ele>236.986141</ele>
        <time>2020-09-10T10:49:37.848Z</time>
      </trkpt>
      <trkpt lat="48.577011" lon="16.632504">
        <ele>236.968451</ele>
        <time>2020-09-10T10:49:39.870Z</time>
      </trkpt>
      <trkpt lat="48.577086" lon="16.632616">
        <ele>236.951552</ele>
        <time>2020-09-10T10:49:41.849Z</time>
      </trkpt>
      <trkpt lat="48.577168" lon="16.632735">
        <ele>236.933330</ele>
        <time>2020-09-10T10:49:43.861Z</time>
      </trkpt>
      <trkpt lat="48.577248" lon="16.632850">
        <ele>236.915633</ele>
        <time>2020-09-10T10:49:45.853Z</time>
      </trkpt>
      <trkpt lat="48.577326" lon="16.632963">
        <ele>236.898315</ele>
        <time>2020-09-10T10:49:47.846Z</time>
      </trkpt>
      <trkpt lat="48.577408" lon="16.633074">
        <ele>236.880670</ele>
        <time>2020-09-10T10:49:49.887Z</time>
      </trkpt>
      <trkpt lat="48.577484" lon="16.633187">
        <ele>236.863582</ele>
        <time>2020-09-10T10:49:51.888Z</time>
      </trkpt>
      <trkpt lat="48.577558" lon="16.633299">
        <ele>236.846796</ele>
        <time>2020-09-10T10:49:53.847Z</time>
      </trkpt>
      <trkpt lat="48.577628" lon="16.633404">
        <ele>236.830988</ele>
        <time>2020-09-10T10:49:55.884Z</time>
      </trkpt>
      <trkpt lat="48.577702" lon="16.633512">
        <ele>236.814499</ele>
        <time>2020-09-10T10:49:57.855Z</time>
      </trkpt>
      <trkpt lat="48.577775" lon="16.633622">
        <ele>236.797976</ele>
        <time>2020-09-10T10:49:59.866Z</time>
      </trkpt>
      <trkpt lat="48.577850" lon="16.633722">
        <ele>236.781945</ele>
        <time>2020-09-10T10:50:01.894Z</time>
      </trkpt>
      <trkpt lat="48.577923" lon="16.633825">
        <ele>236.765938</ele>
        <time>2020-09-10T10:50:03.866Z</time>
      </trkpt>
      <trkpt lat="48.577999" lon="16.633932">
        <ele>236.749290</ele>
        <time>2020-09-10T10:50:05.866Z</time>
      </trkpt>
      <trkpt lat="48.578073" lon="16.634041">
        <ele>236.732727</ele>
        <time>2020-09-10T10:50:07.868Z</time>
      </trkpt>
      <trkpt lat="48.578141" lon="16.634155">
        <ele>236.716450</ele>
        <time>2020-09-10T10:50:09.902Z</time>
      </trkpt>
      <trkpt lat="48.578199" lon="16.634271">
        <ele>236.692527</ele>
        <time>2020-09-10T10:50:11.891Z</time>
      </trkpt>
      <trkpt lat="48.578269" lon="16.634382">
        <ele>236.663769</ele>
        <time>2020-09-10T10:50:13.880Z</time>
      </trkpt>
      <trkpt lat="48.578343" lon="16.634489">
        <ele>236.634740</ele>
        <time>2020-09-10T10:50:15.849Z</time>
      </trkpt>
      <trkpt lat="48.578421" lon="16.634601">
        <ele>236.604244</ele>
        <time>2020-09-10T10:50:17.864Z</time>
      </trkpt>
      <trkpt lat="48.578495" lon="16.634712">
        <ele>236.574692</ele>
        <time>2020-09-10T10:50:19.873Z</time>
      </trkpt>
      <trkpt lat="48.578566" lon="16.634819">
        <ele>236.546272</ele>
        <time>2020-09-10T10:50:21.875Z</time>
      </trkpt>
      <trkpt lat="48.578637" lon="16.634920">
        <ele>236.518636</ele>
        <time>2020-09-10T10:50:23.866Z</time>
      </trkpt>
      <trkpt lat="48.578711" lon="16.635026">
        <ele>236.489737</ele>
        <time>2020-09-10T10:50:25.856Z</time>
      </trkpt>
      <trkpt lat="48.578786" lon="16.635132">
        <ele>236.460631</ele>
        <time>2020-09-10T10:50:27.851Z</time>
      </trkpt>
      <trkpt lat="48.578860" lon="16.635240">
        <ele>236.431473</ele>
        <time>2020-09-10T10:50:29.859Z</time>
      </trkpt>
      <trkpt lat="48.578932" lon="16.635352">
        <ele>236.402187</ele>
        <time>2020-09-10T10:50:31.846Z</time>
      </trkpt>
      <trkpt lat="48.579004" lon="16.635466">
        <ele>236.372630</ele>
        <time>2020-09-10T10:50:33.860Z</time>
      </trkpt>
      <trkpt lat="48.579078" lon="16.635582">
        <ele>236.342411</ele>
        <time>2020-09-10T10:50:35.850Z</time>
      </trkpt>
      <trkpt lat="48.579155" lon="16.635699">
        <ele>236.311463</ele>
        <time>2020-09-10T10:50:37.860Z</time>
      </trkpt>
      <trkpt lat="48.579231" lon="16.635813">
        <ele>236.281112</ele>
        <time>2020-09-10T10:50:39.864Z</time>
      </trkpt>
      <trkpt lat="48.579305" lon="16.635930">
        <ele>236.250758</ele>
        <time>2020-09-10T10:50:41.866Z</time>
      </trkpt>
      <trkpt lat="48.579382" lon="16.636049">
        <ele>236.219542</ele>
        <time>2020-09-10T10:50:43.863Z</time>
      </trkpt>
      <trkpt lat="48.579457" lon="16.636165">
        <ele>236.191014</ele>
        <time>2020-09-10T10:50:45.877Z</time>
      </trkpt>
      <trkpt lat="48.579528" lon="16.636282">
        <ele>236.165522</ele>
        <time>2020-09-10T10:50:47.850Z</time>
      </trkpt>
      <trkpt lat="48.579598" lon="16.636400">
        <ele>236.140075</ele>
        <time>2020-09-10T10:50:49.889Z</time>
      </trkpt>
      <trkpt lat="48.579669" lon="16.636513">
        <ele>236.115053</ele>
        <time>2020-09-10T10:50:51.854Z</time>
      </trkpt>
      <trkpt lat="48.579739" lon="16.636629">
        <ele>236.089844</ele>
        <time>2020-09-10T10:50:53.850Z</time>
      </trkpt>
      <trkpt lat="48.579806" lon="16.636746">
        <ele>236.064998</ele>
        <time>2020-09-10T10:50:55.850Z</time>
      </trkpt>
      <trkpt lat="48.579869" lon="16.636874">
        <ele>236.039383</ele>
        <time>2020-09-10T10:50:57.859Z</time>
      </trkpt>
      <trkpt lat="48.579929" lon="16.637009">
        <ele>236.013271</ele>
        <time>2020-09-10T10:50:59.855Z</time>
      </trkpt>
      <trkpt lat="48.579980" lon="16.637148">
        <ele>235.987750</ele>
        <time>2020-09-10T10:51:01.853Z</time>
      </trkpt>
      <trkpt lat="48.580023" lon="16.637293">
        <ele>235.962237</ele>
        <time>2020-09-10T10:51:03.866Z</time>
      </trkpt>
      <trkpt lat="48.580066" lon="16.637433">
        <ele>235.937455</ele>
        <time>2020-09-10T10:51:05.862Z</time>
      </trkpt>
      <trkpt lat="48.580109" lon="16.637568">
        <ele>235.913398</ele>
        <time>2020-09-10T10:51:07.847Z</time>
      </trkpt>
      <trkpt lat="48.580152" lon="16.637705">
        <ele>235.889051</ele>
        <time>2020-09-10T10:51:09.869Z</time>
      </trkpt>
      <trkpt lat="48.580196" lon="16.637843">
        <ele>235.864455</ele>
        <time>2020-09-10T10:51:11.860Z</time>
      </trkpt>
      <trkpt lat="48.580242" lon="16.637975">
        <ele>235.840501</ele>
        <time>2020-09-10T10:51:13.867Z</time>
      </trkpt>
      <trkpt lat="48.580290" lon="16.638106">
        <ele>235.816457</ele>
        <time>2020-09-10T10:51:15.867Z</time>
      </trkpt>
      <trkpt lat="48.580338" lon="16.638229">
        <ele>235.793529</ele>
        <time>2020-09-10T10:51:17.863Z</time>
      </trkpt>
      <trkpt lat="48.580382" lon="16.638356">
        <ele>235.770511</ele>
        <time>2020-09-10T10:51:19.883Z</time>
      </trkpt>
      <trkpt lat="48.580440" lon="16.638530">
        <ele>235.737743</ele>
        <time>2020-09-10T10:51:22.861Z</time>
      </trkpt>
      <trkpt lat="48.580522" lon="16.638643">
        <ele>235.709304</ele>
        <time>2020-09-10T10:51:25.882Z</time>
      </trkpt>
      <trkpt lat="48.580596" lon="16.638745">
        <ele>235.683638</ele>
        <time>2020-09-10T10:51:28.864Z</time>
      </trkpt>
      <trkpt lat="48.580675" lon="16.638883">
        <ele>235.652695</ele>
        <time>2020-09-10T10:51:31.854Z</time>
      </trkpt>
      <trkpt lat="48.580741" lon="16.639059">
        <ele>235.618393</ele>
        <time>2020-09-10T10:51:34.867Z</time>
      </trkpt>
      <trkpt lat="48.580788" lon="16.639178">
        <ele>235.594894</ele>
        <time>2020-09-10T10:51:36.860Z</time>
      </trkpt>
      <trkpt lat="48.580838" lon="16.639300">
        <ele>235.570561</ele>
        <time>2020-09-10T10:51:38.868Z</time>
      </trkpt>
      <trkpt lat="48.580886" lon="16.639431">
        <ele>235.545171</ele>
        <time>2020-09-10T10:51:40.867Z</time>
      </trkpt>
      <trkpt lat="48.580938" lon="16.639563">
        <ele>235.519122</ele>
        <time>2020-09-10T10:51:42.862Z</time>
      </trkpt>
      <trkpt lat="48.580999" lon="16.639693">
        <ele>235.492099</ele>
        <time>2020-09-10T10:51:44.858Z</time>
      </trkpt>
      <trkpt lat="48.581054" lon="16.639826">
        <ele>235.465506</ele>
        <time>2020-09-10T10:51:46.868Z</time>
      </trkpt>
      <trkpt lat="48.581112" lon="16.639966">
        <ele>235.437498</ele>
        <time>2020-09-10T10:51:48.899Z</time>
      </trkpt>
      <trkpt lat="48.581166" lon="16.640099">
        <ele>235.411040</ele>
        <time>2020-09-10T10:51:50.868Z</time>
      </trkpt>
      <trkpt lat="48.581223" lon="16.640235">
        <ele>235.383743</ele>
        <time>2020-09-10T10:51:52.876Z</time>
      </trkpt>
      <trkpt lat="48.581278" lon="16.640383">
        <ele>235.354961</ele>
        <time>2020-09-10T10:51:54.900Z</time>
      </trkpt>
      <trkpt lat="48.581331" lon="16.640529">
        <ele>235.326725</ele>
        <time>2020-09-10T10:51:56.851Z</time>
      </trkpt>
      <trkpt lat="48.581384" lon="16.640668">
        <ele>235.299501</ele>
        <time>2020-09-10T10:51:58.889Z</time>
      </trkpt>
      <trkpt lat="48.581438" lon="16.640801">
        <ele>235.272934</ele>
        <time>2020-09-10T10:52:00.869Z</time>
      </trkpt>
      <trkpt lat="48.581491" lon="16.640936">
        <ele>235.246209</ele>
        <time>2020-09-10T10:52:02.876Z</time>
      </trkpt>
      <trkpt lat="48.581544" lon="16.641082">
        <ele>235.217856</ele>
        <time>2020-09-10T10:52:04.855Z</time>
      </trkpt>
      <trkpt lat="48.581598" lon="16.641231">
        <ele>235.188932</ele>
        <time>2020-09-10T10:52:06.876Z</time>
      </trkpt>
      <trkpt lat="48.581649" lon="16.641378">
        <ele>235.160674</ele>
        <time>2020-09-10T10:52:08.862Z</time>
      </trkpt>
      <trkpt lat="48.581699" lon="16.641520">
        <ele>235.133287</ele>
        <time>2020-09-10T10:52:10.869Z</time>
      </trkpt>
      <trkpt lat="48.581751" lon="16.641671">
        <ele>235.104306</ele>
        <time>2020-09-10T10:52:12.886Z</time>
      </trkpt>
      <trkpt lat="48.581806" lon="16.641821">
        <ele>235.075109</ele>
        <time>2020-09-10T10:52:14.882Z</time>
      </trkpt>
      <trkpt lat="48.581868" lon="16.641976">
        <ele>235.044272</ele>
        <time>2020-09-10T10:52:16.857Z</time>
      </trkpt>
      <trkpt lat="48.581929" lon="16.642125">
        <ele>235.014441</ele>
        <time>2020-09-10T10:52:18.848Z</time>
      </trkpt>
      <trkpt lat="48.581988" lon="16.642262">
        <ele>234.986611</ele>
        <time>2020-09-10T10:52:20.853Z</time>
      </trkpt>
      <trkpt lat="48.582033" lon="16.642415">
        <ele>234.958105</ele>
        <time>2020-09-10T10:52:22.884Z</time>
      </trkpt>
      <trkpt lat="48.582084" lon="16.642589">
        <ele>234.925705</ele>
        <time>2020-09-10T10:52:24.856Z</time>
      </trkpt>
      <trkpt lat="48.582145" lon="16.642754">
        <ele>234.893526</ele>
        <time>2020-09-10T10:52:26.864Z</time>
      </trkpt>
      <trkpt lat="48.582204" lon="16.642910">
        <ele>234.862934</ele>
        <time>2020-09-10T10:52:28.852Z</time>
      </trkpt>
      <trkpt lat="48.582260" lon="16.643063">
        <ele>234.834067</ele>
        <time>2020-09-10T10:52:30.866Z</time>
      </trkpt>
      <trkpt lat="48.582318" lon="16.643209">
        <ele>234.808071</ele>
        <time>2020-09-10T10:52:32.855Z</time>
      </trkpt>
      <trkpt lat="48.582373" lon="16.643356">
        <ele>234.782291</ele>
        <time>2020-09-10T10:52:34.872Z</time>
      </trkpt>
      <trkpt lat="48.582428" lon="16.643503">
        <ele>234.756511</ele>
        <time>2020-09-10T10:52:36.852Z</time>
      </trkpt>
      <trkpt lat="48.582485" lon="16.643645">
        <ele>234.731156</ele>
        <time>2020-09-10T10:52:38.892Z</time>
      </trkpt>
      <trkpt lat="48.582540" lon="16.643788">
        <ele>234.705906</ele>
        <time>2020-09-10T10:52:40.871Z</time>
      </trkpt>
      <trkpt lat="48.582594" lon="16.643932">
        <ele>234.680638</ele>
        <time>2020-09-10T10:52:42.845Z</time>
      </trkpt>
      <trkpt lat="48.582645" lon="16.644079">
        <ele>234.655300</ele>
        <time>2020-09-10T10:52:44.865Z</time>
      </trkpt>
      <trkpt lat="48.582696" lon="16.644223">
        <ele>234.630367</ele>
        <time>2020-09-10T10:52:46.864Z</time>
      </trkpt>
      <trkpt lat="48.582750" lon="16.644365">
        <ele>234.605364</ele>
        <time>2020-09-10T10:52:48.863Z</time>
      </trkpt>
      <trkpt lat="48.582804" lon="16.644508">
        <ele>234.580229</ele>
        <time>2020-09-10T10:52:50.855Z</time>
      </trkpt>
      <trkpt lat="48.582858" lon="16.644650">
        <ele>234.555227</ele>
        <time>2020-09-10T10:52:52.851Z</time>
      </trkpt>
      <trkpt lat="48.582910" lon="16.644794">
        <ele>234.530184</ele>
        <time>2020-09-10T10:52:54.859Z</time>
      </trkpt>
      <trkpt lat="48.582959" lon="16.644935">
        <ele>234.505871</ele>
        <time>2020-09-10T10:52:56.878Z</time>
      </trkpt>
      <trkpt lat="48.583006" lon="16.645068">
        <ele>234.482854</ele>
        <time>2020-09-10T10:52:58.872Z</time>
      </trkpt>
      <trkpt lat="48.583058" lon="16.645182">
        <ele>234.461716</ele>
        <time>2020-09-10T10:53:00.861Z</time>
      </trkpt>
      <trkpt lat="48.583125" lon="16.645296">
        <ele>234.438438</ele>
        <time>2020-09-10T10:53:03.877Z</time>
      </trkpt>
      <trkpt lat="48.583029" lon="16.645359">
        <ele>234.405398</ele>
        <time>2020-09-10T10:53:07.856Z</time>
      </trkpt>
      <trkpt lat="48.582939" lon="16.645408">
        <ele>234.367708</ele>
        <time>2020-09-10T10:53:10.858Z</time>
      </trkpt>
      <trkpt lat="48.582912" lon="16.645543">
        <ele>234.330948</ele>
        <time>2020-09-10T10:53:24.856Z</time>
      </trkpt>
      <trkpt lat="48.582979" lon="16.645681">
        <ele>234.286331</ele>
        <time>2020-09-10T10:53:28.861Z</time>
      </trkpt>
      <trkpt lat="48.583026" lon="16.645808">
        <ele>234.248401</ele>
        <time>2020-09-10T10:53:30.863Z</time>
      </trkpt>
      <trkpt lat="48.583080" lon="16.645945">
        <ele>234.206834</ele>
        <time>2020-09-10T10:53:32.862Z</time>
      </trkpt>
      <trkpt lat="48.583136" lon="16.646076">
        <ele>234.166181</ele>
        <time>2020-09-10T10:53:34.852Z</time>
      </trkpt>
      <trkpt lat="48.583196" lon="16.646222">
        <ele>234.121382</ele>
        <time>2020-09-10T10:53:36.874Z</time>
      </trkpt>
      <trkpt lat="48.583260" lon="16.646361">
        <ele>234.077240</ele>
        <time>2020-09-10T10:53:38.850Z</time>
      </trkpt>
      <trkpt lat="48.583331" lon="16.646498">
        <ele>234.031879</ele>
        <time>2020-09-10T10:53:40.864Z</time>
      </trkpt>
      <trkpt lat="48.583398" lon="16.646636">
        <ele>233.987262</ele>
        <time>2020-09-10T10:53:42.857Z</time>
      </trkpt>
      <trkpt lat="48.583459" lon="16.646763">
        <ele>233.946356</ele>
        <time>2020-09-10T10:53:44.849Z</time>
      </trkpt>
      <trkpt lat="48.583526" lon="16.646889">
        <ele>233.904220</ele>
        <time>2020-09-10T10:53:46.849Z</time>
      </trkpt>
      <trkpt lat="48.583595" lon="16.647023">
        <ele>233.859960</ele>
        <time>2020-09-10T10:53:48.854Z</time>
      </trkpt>
      <trkpt lat="48.583662" lon="16.647157">
        <ele>233.816180</ele>
        <time>2020-09-10T10:53:50.871Z</time>
      </trkpt>
      <trkpt lat="48.583732" lon="16.647289">
        <ele>233.772085</ele>
        <time>2020-09-10T10:53:52.855Z</time>
      </trkpt>
      <trkpt lat="48.583802" lon="16.647419">
        <ele>233.728395</ele>
        <time>2020-09-10T10:53:54.855Z</time>
      </trkpt>
      <trkpt lat="48.583876" lon="16.647549">
        <ele>233.718184</ele>
        <time>2020-09-10T10:53:56.849Z</time>
      </trkpt>
      <trkpt lat="48.583953" lon="16.647675">
        <ele>233.718184</ele>
        <time>2020-09-10T10:53:58.894Z</time>
      </trkpt>
      <trkpt lat="48.584027" lon="16.647802">
        <ele>233.718184</ele>
        <time>2020-09-10T10:54:00.848Z</time>
      </trkpt>
      <trkpt lat="48.584098" lon="16.647929">
        <ele>233.718184</ele>
        <time>2020-09-10T10:54:02.859Z</time>
      </trkpt>
      <trkpt lat="48.584165" lon="16.648054">
        <ele>233.718184</ele>
        <time>2020-09-10T10:54:04.861Z</time>
      </trkpt>
      <trkpt lat="48.584232" lon="16.648178">
        <ele>233.718184</ele>
        <time>2020-09-10T10:54:06.866Z</time>
      </trkpt>
      <trkpt lat="48.584301" lon="16.648289">
        <ele>233.718184</ele>
        <time>2020-09-10T10:54:08.853Z</time>
      </trkpt>
      <trkpt lat="48.584367" lon="16.648417">
        <ele>233.718184</ele>
        <time>2020-09-10T10:54:10.860Z</time>
      </trkpt>
      <trkpt lat="48.584422" lon="16.648530">
        <ele>233.718184</ele>
        <time>2020-09-10T10:54:12.873Z</time>
      </trkpt>
      <trkpt lat="48.584457" lon="16.648671">
        <ele>233.718184</ele>
        <time>2020-09-10T10:54:14.874Z</time>
      </trkpt>
      <trkpt lat="48.584405" lon="16.648789">
        <ele>233.718184</ele>
        <time>2020-09-10T10:54:16.860Z</time>
      </trkpt>
      <trkpt lat="48.584338" lon="16.648952">
        <ele>233.718184</ele>
        <time>2020-09-10T10:54:19.874Z</time>
      </trkpt>
      <trkpt lat="48.584281" lon="16.649064">
        <ele>233.718184</ele>
        <time>2020-09-10T10:54:21.880Z</time>
      </trkpt>
      <trkpt lat="48.584215" lon="16.649211">
        <ele>233.718184</ele>
        <time>2020-09-10T10:54:24.857Z</time>
      </trkpt>
      <trkpt lat="48.584135" lon="16.649274">
        <ele>233.718184</ele>
        <time>2020-09-10T10:54:26.853Z</time>
      </trkpt>
      <trkpt lat="48.584024" lon="16.649134">
        <ele>233.718184</ele>
        <time>2020-09-10T10:54:56.180Z</time>
      </trkpt>
    </trkseg>
  </trk>
</gpx>